<?xml version="1.0" encoding="UTF-8" standalone="no" ?>
<gpx xmlns="http://www.topografix.com/GPX/1/1" xmlns:xsi="http://www.w3.org/2001/XMLSchema-instance" xsi:schemaLocation="http://www.topografix.com/GPX/1/1 http://www.topografix.com/GPX/1/1/gpx.xsd" version="1.1" creator="VisuGPX - https://www.visugpx.com">
  <metadata>
    <name>Lacs Ligniens à partir de Beauvezer</name>
    <desc><![CDATA[Joli parcours d'été qui va jusqu'aux Ligniens. 
La montée est assez longue, piste du départ à froid un peu dure. A varianter : après la pose déjeuner au bord du lac, il est préférable d'aller chercher directement le second col, plus au nord afin d'éviter un portage et une redescente de l'autre coté trop abimée pour pouvoir rouler.
Ensuite on enchaine la belle descente jusqu'au gîte avec un point d'eau, et on repart pour une traversée montante qui se termine en portage/poussage, pour attaquer la dernière descente d'anthologie...]]></desc>
  </metadata>
  <trk>
    <name><![CDATA[Beauvezer Cyclisme]]></name>
    <extensions>
      <line xmlns="http://www.topografix.com/GPX/gpx_style/0/2">
        <color>0000FF</color>
        <width>4</width>
      </line>
    </extensions>
    <trkseg>
      <trkpt lat="44.14322" lon="6.59498">
        <ele>1160.4000244141</ele>
        <time>2022-07-09T07:42:55.000Z</time>
      </trkpt>
      <trkpt lat="44.14323" lon="6.59498">
        <ele>1160.4000244141</ele>
        <time>2022-07-09T07:43:03.000Z</time>
      </trkpt>
      <trkpt lat="44.1432" lon="6.59496">
        <ele>1160.1999511719</ele>
        <time>2022-07-09T07:43:10.000Z</time>
      </trkpt>
      <trkpt lat="44.14313" lon="6.59494">
        <ele>1160</ele>
        <time>2022-07-09T07:43:16.000Z</time>
      </trkpt>
      <trkpt lat="44.14312" lon="6.59493">
        <ele>1159.8000488281</ele>
        <time>2022-07-09T07:43:17.000Z</time>
      </trkpt>
      <trkpt lat="44.14311" lon="6.59491">
        <ele>1159.4000244141</ele>
        <time>2022-07-09T07:43:22.000Z</time>
      </trkpt>
      <trkpt lat="44.1431" lon="6.59492">
        <ele>1159.1999511719</ele>
        <time>2022-07-09T07:43:29.000Z</time>
      </trkpt>
      <trkpt lat="44.1431" lon="6.59491">
        <ele>1159.8000488281</ele>
        <time>2022-07-09T07:43:37.000Z</time>
      </trkpt>
      <trkpt lat="44.1431" lon="6.59492">
        <ele>1160.4000244141</ele>
        <time>2022-07-09T07:43:47.000Z</time>
      </trkpt>
      <trkpt lat="44.1431" lon="6.59492">
        <ele>1160</ele>
        <time>2022-07-09T07:43:56.000Z</time>
      </trkpt>
      <trkpt lat="44.14309" lon="6.59494">
        <ele>1160.4000244141</ele>
        <time>2022-07-09T07:43:59.000Z</time>
      </trkpt>
      <trkpt lat="44.14309" lon="6.59495">
        <ele>1160.4000244141</ele>
        <time>2022-07-09T07:44:01.000Z</time>
      </trkpt>
      <trkpt lat="44.14308" lon="6.59493">
        <ele>1160.5999755859</ele>
        <time>2022-07-09T07:44:08.000Z</time>
      </trkpt>
      <trkpt lat="44.14306" lon="6.59494">
        <ele>1160</ele>
        <time>2022-07-09T07:44:14.000Z</time>
      </trkpt>
      <trkpt lat="44.14306" lon="6.59494">
        <ele>1159.1999511719</ele>
        <time>2022-07-09T07:44:17.000Z</time>
      </trkpt>
      <trkpt lat="44.14306" lon="6.59493">
        <ele>1159</ele>
        <time>2022-07-09T07:44:28.000Z</time>
      </trkpt>
      <trkpt lat="44.14306" lon="6.59492">
        <ele>1159.1999511719</ele>
        <time>2022-07-09T07:44:39.000Z</time>
      </trkpt>
      <trkpt lat="44.14306" lon="6.59492">
        <ele>1159.4000244141</ele>
        <time>2022-07-09T07:44:48.000Z</time>
      </trkpt>
      <trkpt lat="44.14306" lon="6.59492">
        <ele>1159.1999511719</ele>
        <time>2022-07-09T07:44:54.000Z</time>
      </trkpt>
      <trkpt lat="44.14307" lon="6.59492">
        <ele>1159.1999511719</ele>
        <time>2022-07-09T07:45:05.000Z</time>
      </trkpt>
      <trkpt lat="44.14306" lon="6.59492">
        <ele>1159.8000488281</ele>
        <time>2022-07-09T07:45:15.000Z</time>
      </trkpt>
      <trkpt lat="44.14306" lon="6.59492">
        <ele>1160.1999511719</ele>
        <time>2022-07-09T07:45:27.000Z</time>
      </trkpt>
      <trkpt lat="44.14308" lon="6.59491">
        <ele>1159.8000488281</ele>
        <time>2022-07-09T07:45:38.000Z</time>
      </trkpt>
      <trkpt lat="44.14308" lon="6.59491">
        <ele>1159.4000244141</ele>
        <time>2022-07-09T07:45:46.000Z</time>
      </trkpt>
      <trkpt lat="44.14308" lon="6.59491">
        <ele>1159.4000244141</ele>
        <time>2022-07-09T07:45:57.000Z</time>
      </trkpt>
      <trkpt lat="44.14309" lon="6.59491">
        <ele>1159.4000244141</ele>
        <time>2022-07-09T07:46:09.000Z</time>
      </trkpt>
      <trkpt lat="44.14309" lon="6.59491">
        <ele>1159.5999755859</ele>
        <time>2022-07-09T07:46:15.000Z</time>
      </trkpt>
      <trkpt lat="44.14309" lon="6.59489">
        <ele>1159.5999755859</ele>
        <time>2022-07-09T07:46:23.000Z</time>
      </trkpt>
      <trkpt lat="44.14309" lon="6.59489">
        <ele>1160</ele>
        <time>2022-07-09T07:46:30.000Z</time>
      </trkpt>
      <trkpt lat="44.14308" lon="6.59489">
        <ele>1160.1999511719</ele>
        <time>2022-07-09T07:46:38.000Z</time>
      </trkpt>
      <trkpt lat="44.14306" lon="6.59487">
        <ele>1160</ele>
        <time>2022-07-09T07:46:50.000Z</time>
      </trkpt>
      <trkpt lat="44.14304" lon="6.59487">
        <ele>1160</ele>
        <time>2022-07-09T07:46:57.000Z</time>
      </trkpt>
      <trkpt lat="44.14304" lon="6.59487">
        <ele>1159.8000488281</ele>
        <time>2022-07-09T07:47:01.000Z</time>
      </trkpt>
      <trkpt lat="44.14304" lon="6.59487">
        <ele>1160</ele>
        <time>2022-07-09T07:47:11.000Z</time>
      </trkpt>
      <trkpt lat="44.14305" lon="6.59484">
        <ele>1160.1999511719</ele>
        <time>2022-07-09T07:47:23.000Z</time>
      </trkpt>
      <trkpt lat="44.14305" lon="6.59485">
        <ele>1160.1999511719</ele>
        <time>2022-07-09T07:47:25.000Z</time>
      </trkpt>
      <trkpt lat="44.14307" lon="6.59486">
        <ele>1160.1999511719</ele>
        <time>2022-07-09T07:47:29.000Z</time>
      </trkpt>
      <trkpt lat="44.14306" lon="6.59487">
        <ele>1159.8000488281</ele>
        <time>2022-07-09T07:47:35.000Z</time>
      </trkpt>
      <trkpt lat="44.14306" lon="6.59488">
        <ele>1159.5999755859</ele>
        <time>2022-07-09T07:47:44.000Z</time>
      </trkpt>
      <trkpt lat="44.14306" lon="6.5949">
        <ele>1160</ele>
        <time>2022-07-09T07:47:50.000Z</time>
      </trkpt>
      <trkpt lat="44.14307" lon="6.59491">
        <ele>1160.1999511719</ele>
        <time>2022-07-09T07:47:54.000Z</time>
      </trkpt>
      <trkpt lat="44.14308" lon="6.59491">
        <ele>1160.1999511719</ele>
        <time>2022-07-09T07:47:55.000Z</time>
      </trkpt>
      <trkpt lat="44.14309" lon="6.59491">
        <ele>1160.4000244141</ele>
        <time>2022-07-09T07:47:59.000Z</time>
      </trkpt>
      <trkpt lat="44.14309" lon="6.59491">
        <ele>1160</ele>
        <time>2022-07-09T07:48:05.000Z</time>
      </trkpt>
      <trkpt lat="44.14309" lon="6.59491">
        <ele>1159.8000488281</ele>
        <time>2022-07-09T07:48:11.000Z</time>
      </trkpt>
      <trkpt lat="44.14308" lon="6.59491">
        <ele>1160.4000244141</ele>
        <time>2022-07-09T07:48:20.000Z</time>
      </trkpt>
      <trkpt lat="44.14307" lon="6.59489">
        <ele>1160.4000244141</ele>
        <time>2022-07-09T07:48:29.000Z</time>
      </trkpt>
      <trkpt lat="44.14307" lon="6.59489">
        <ele>1160.5999755859</ele>
        <time>2022-07-09T07:48:41.000Z</time>
      </trkpt>
      <trkpt lat="44.14306" lon="6.59488">
        <ele>1160.1999511719</ele>
        <time>2022-07-09T07:48:53.000Z</time>
      </trkpt>
      <trkpt lat="44.14306" lon="6.59488">
        <ele>1160.5999755859</ele>
        <time>2022-07-09T07:49:04.000Z</time>
      </trkpt>
      <trkpt lat="44.14306" lon="6.5949">
        <ele>1160.4000244141</ele>
        <time>2022-07-09T07:49:09.000Z</time>
      </trkpt>
      <trkpt lat="44.14306" lon="6.5949">
        <ele>1160</ele>
        <time>2022-07-09T07:49:14.000Z</time>
      </trkpt>
      <trkpt lat="44.14306" lon="6.59489">
        <ele>1160.5999755859</ele>
        <time>2022-07-09T07:49:21.000Z</time>
      </trkpt>
      <trkpt lat="44.14306" lon="6.59489">
        <ele>1160.5999755859</ele>
        <time>2022-07-09T07:49:27.000Z</time>
      </trkpt>
      <trkpt lat="44.14306" lon="6.59488">
        <ele>1160.8000488281</ele>
        <time>2022-07-09T07:49:39.000Z</time>
      </trkpt>
      <trkpt lat="44.14306" lon="6.59486">
        <ele>1160.5999755859</ele>
        <time>2022-07-09T07:49:47.000Z</time>
      </trkpt>
      <trkpt lat="44.14305" lon="6.59482">
        <ele>1160.5999755859</ele>
        <time>2022-07-09T07:49:54.000Z</time>
      </trkpt>
      <trkpt lat="44.143" lon="6.59481">
        <ele>1160.8000488281</ele>
        <time>2022-07-09T07:50:00.000Z</time>
      </trkpt>
      <trkpt lat="44.14302" lon="6.59488">
        <ele>1160.5999755859</ele>
        <time>2022-07-09T07:50:05.000Z</time>
      </trkpt>
      <trkpt lat="44.14303" lon="6.59489">
        <ele>1160.4000244141</ele>
        <time>2022-07-09T07:50:11.000Z</time>
      </trkpt>
      <trkpt lat="44.14305" lon="6.5949">
        <ele>1160.4000244141</ele>
        <time>2022-07-09T07:50:24.000Z</time>
      </trkpt>
      <trkpt lat="44.14306" lon="6.5949">
        <ele>1160.5999755859</ele>
        <time>2022-07-09T07:50:39.000Z</time>
      </trkpt>
      <trkpt lat="44.14306" lon="6.59491">
        <ele>1160.5999755859</ele>
        <time>2022-07-09T07:51:01.000Z</time>
      </trkpt>
      <trkpt lat="44.14309" lon="6.59489">
        <ele>1160.4000244141</ele>
        <time>2022-07-09T07:51:09.000Z</time>
      </trkpt>
      <trkpt lat="44.14306" lon="6.59485">
        <ele>1160.4000244141</ele>
        <time>2022-07-09T07:51:13.000Z</time>
      </trkpt>
      <trkpt lat="44.143" lon="6.59494">
        <ele>1160.5999755859</ele>
        <time>2022-07-09T07:51:18.000Z</time>
      </trkpt>
      <trkpt lat="44.14299" lon="6.59497">
        <ele>1160.5999755859</ele>
        <time>2022-07-09T07:51:19.000Z</time>
      </trkpt>
      <trkpt lat="44.14292" lon="6.59523">
        <ele>1160.8000488281</ele>
        <time>2022-07-09T07:51:27.000Z</time>
      </trkpt>
      <trkpt lat="44.14286" lon="6.59545">
        <ele>1161</ele>
        <time>2022-07-09T07:51:33.000Z</time>
      </trkpt>
      <trkpt lat="44.14281" lon="6.59561">
        <ele>1161.4000244141</ele>
        <time>2022-07-09T07:51:37.000Z</time>
      </trkpt>
      <trkpt lat="44.14277" lon="6.59576">
        <ele>1161.1999511719</ele>
        <time>2022-07-09T07:51:41.000Z</time>
      </trkpt>
      <trkpt lat="44.14267" lon="6.59609">
        <ele>1161.1999511719</ele>
        <time>2022-07-09T07:51:49.000Z</time>
      </trkpt>
      <trkpt lat="44.14266" lon="6.59618">
        <ele>1161.4000244141</ele>
        <time>2022-07-09T07:51:52.000Z</time>
      </trkpt>
      <trkpt lat="44.14267" lon="6.5962">
        <ele>1161.4000244141</ele>
        <time>2022-07-09T07:51:53.000Z</time>
      </trkpt>
      <trkpt lat="44.14271" lon="6.59627">
        <ele>1162.5999755859</ele>
        <time>2022-07-09T07:51:57.000Z</time>
      </trkpt>
      <trkpt lat="44.14276" lon="6.59631">
        <ele>1163.8000488281</ele>
        <time>2022-07-09T07:52:01.000Z</time>
      </trkpt>
      <trkpt lat="44.14282" lon="6.59635">
        <ele>1165</ele>
        <time>2022-07-09T07:52:05.000Z</time>
      </trkpt>
      <trkpt lat="44.14286" lon="6.59638">
        <ele>1165.8000488281</ele>
        <time>2022-07-09T07:52:08.000Z</time>
      </trkpt>
      <trkpt lat="44.14287" lon="6.5964">
        <ele>1166.1999511719</ele>
        <time>2022-07-09T07:52:09.000Z</time>
      </trkpt>
      <trkpt lat="44.14292" lon="6.59643">
        <ele>1167.1999511719</ele>
        <time>2022-07-09T07:52:13.000Z</time>
      </trkpt>
      <trkpt lat="44.14295" lon="6.59646">
        <ele>1167.8000488281</ele>
        <time>2022-07-09T07:52:15.000Z</time>
      </trkpt>
      <trkpt lat="44.14296" lon="6.5965">
        <ele>1168.1999511719</ele>
        <time>2022-07-09T07:52:17.000Z</time>
      </trkpt>
      <trkpt lat="44.14299" lon="6.59657">
        <ele>1169.1999511719</ele>
        <time>2022-07-09T07:52:21.000Z</time>
      </trkpt>
      <trkpt lat="44.14299" lon="6.59659">
        <ele>1169.5999755859</ele>
        <time>2022-07-09T07:52:22.000Z</time>
      </trkpt>
      <trkpt lat="44.143" lon="6.59664">
        <ele>1170.4000244141</ele>
        <time>2022-07-09T07:52:25.000Z</time>
      </trkpt>
      <trkpt lat="44.14301" lon="6.59669">
        <ele>1171</ele>
        <time>2022-07-09T07:52:28.000Z</time>
      </trkpt>
      <trkpt lat="44.14301" lon="6.59673">
        <ele>1171.4000244141</ele>
        <time>2022-07-09T07:52:30.000Z</time>
      </trkpt>
      <trkpt lat="44.143" lon="6.59675">
        <ele>1171.4000244141</ele>
        <time>2022-07-09T07:52:31.000Z</time>
      </trkpt>
      <trkpt lat="44.143" lon="6.59676">
        <ele>1171.8000488281</ele>
        <time>2022-07-09T07:52:32.000Z</time>
      </trkpt>
      <trkpt lat="44.143" lon="6.59679">
        <ele>1172.1999511719</ele>
        <time>2022-07-09T07:52:34.000Z</time>
      </trkpt>
      <trkpt lat="44.143" lon="6.59682">
        <ele>1172.5999755859</ele>
        <time>2022-07-09T07:52:36.000Z</time>
      </trkpt>
      <trkpt lat="44.143" lon="6.59689">
        <ele>1173.1999511719</ele>
        <time>2022-07-09T07:52:40.000Z</time>
      </trkpt>
      <trkpt lat="44.14302" lon="6.59694">
        <ele>1173.8000488281</ele>
        <time>2022-07-09T07:52:43.000Z</time>
      </trkpt>
      <trkpt lat="44.14307" lon="6.59698">
        <ele>1174.4000244141</ele>
        <time>2022-07-09T07:52:47.000Z</time>
      </trkpt>
      <trkpt lat="44.1431" lon="6.59697">
        <ele>1174.5999755859</ele>
        <time>2022-07-09T07:52:49.000Z</time>
      </trkpt>
      <trkpt lat="44.14312" lon="6.59697">
        <ele>1174.8000488281</ele>
        <time>2022-07-09T07:52:51.000Z</time>
      </trkpt>
      <trkpt lat="44.14315" lon="6.59696">
        <ele>1175.1999511719</ele>
        <time>2022-07-09T07:52:53.000Z</time>
      </trkpt>
      <trkpt lat="44.14321" lon="6.59695">
        <ele>1176</ele>
        <time>2022-07-09T07:52:57.000Z</time>
      </trkpt>
      <trkpt lat="44.14328" lon="6.59697">
        <ele>1176.4000244141</ele>
        <time>2022-07-09T07:53:01.000Z</time>
      </trkpt>
      <trkpt lat="44.14337" lon="6.59707">
        <ele>1177</ele>
        <time>2022-07-09T07:53:08.000Z</time>
      </trkpt>
      <trkpt lat="44.14345" lon="6.59715">
        <ele>1177.8000488281</ele>
        <time>2022-07-09T07:53:14.000Z</time>
      </trkpt>
      <trkpt lat="44.14347" lon="6.59718">
        <ele>1178</ele>
        <time>2022-07-09T07:53:16.000Z</time>
      </trkpt>
      <trkpt lat="44.14351" lon="6.59723">
        <ele>1178.4000244141</ele>
        <time>2022-07-09T07:53:19.000Z</time>
      </trkpt>
      <trkpt lat="44.14363" lon="6.59731">
        <ele>1179</ele>
        <time>2022-07-09T07:53:26.000Z</time>
      </trkpt>
      <trkpt lat="44.14365" lon="6.59732">
        <ele>1179</ele>
        <time>2022-07-09T07:53:28.000Z</time>
      </trkpt>
      <trkpt lat="44.14366" lon="6.59734">
        <ele>1179.1999511719</ele>
        <time>2022-07-09T07:53:29.000Z</time>
      </trkpt>
      <trkpt lat="44.14366" lon="6.59736">
        <ele>1179.4000244141</ele>
        <time>2022-07-09T07:53:30.000Z</time>
      </trkpt>
      <trkpt lat="44.14369" lon="6.59741">
        <ele>1179.4000244141</ele>
        <time>2022-07-09T07:53:33.000Z</time>
      </trkpt>
      <trkpt lat="44.14372" lon="6.59745">
        <ele>1179.5999755859</ele>
        <time>2022-07-09T07:53:35.000Z</time>
      </trkpt>
      <trkpt lat="44.14377" lon="6.5975">
        <ele>1180.4000244141</ele>
        <time>2022-07-09T07:53:39.000Z</time>
      </trkpt>
      <trkpt lat="44.14382" lon="6.59754">
        <ele>1180.5999755859</ele>
        <time>2022-07-09T07:53:42.000Z</time>
      </trkpt>
      <trkpt lat="44.14391" lon="6.59762">
        <ele>1180.8000488281</ele>
        <time>2022-07-09T07:53:47.000Z</time>
      </trkpt>
      <trkpt lat="44.14404" lon="6.59773">
        <ele>1181.1999511719</ele>
        <time>2022-07-09T07:53:53.000Z</time>
      </trkpt>
      <trkpt lat="44.14406" lon="6.59775">
        <ele>1181.4000244141</ele>
        <time>2022-07-09T07:53:54.000Z</time>
      </trkpt>
      <trkpt lat="44.14416" lon="6.59784">
        <ele>1182.1999511719</ele>
        <time>2022-07-09T07:53:59.000Z</time>
      </trkpt>
      <trkpt lat="44.14424" lon="6.59791">
        <ele>1182.5999755859</ele>
        <time>2022-07-09T07:54:03.000Z</time>
      </trkpt>
      <trkpt lat="44.14427" lon="6.59793">
        <ele>1182.5999755859</ele>
        <time>2022-07-09T07:54:04.000Z</time>
      </trkpt>
      <trkpt lat="44.14436" lon="6.59801">
        <ele>1183.5999755859</ele>
        <time>2022-07-09T07:54:09.000Z</time>
      </trkpt>
      <trkpt lat="44.14442" lon="6.59807">
        <ele>1184.5999755859</ele>
        <time>2022-07-09T07:54:14.000Z</time>
      </trkpt>
      <trkpt lat="44.14444" lon="6.59808">
        <ele>1184.8000488281</ele>
        <time>2022-07-09T07:54:15.000Z</time>
      </trkpt>
      <trkpt lat="44.14446" lon="6.5981">
        <ele>1185.4000244141</ele>
        <time>2022-07-09T07:54:17.000Z</time>
      </trkpt>
      <trkpt lat="44.14448" lon="6.59812">
        <ele>1185.5999755859</ele>
        <time>2022-07-09T07:54:18.000Z</time>
      </trkpt>
      <trkpt lat="44.1445" lon="6.59813">
        <ele>1186</ele>
        <time>2022-07-09T07:54:19.000Z</time>
      </trkpt>
      <trkpt lat="44.14454" lon="6.59815">
        <ele>1186.1999511719</ele>
        <time>2022-07-09T07:54:21.000Z</time>
      </trkpt>
      <trkpt lat="44.14459" lon="6.59816">
        <ele>1186.5999755859</ele>
        <time>2022-07-09T07:54:23.000Z</time>
      </trkpt>
      <trkpt lat="44.14466" lon="6.59819">
        <ele>1187</ele>
        <time>2022-07-09T07:54:26.000Z</time>
      </trkpt>
      <trkpt lat="44.14474" lon="6.59823">
        <ele>1187.4000244141</ele>
        <time>2022-07-09T07:54:30.000Z</time>
      </trkpt>
      <trkpt lat="44.14485" lon="6.5983">
        <ele>1188</ele>
        <time>2022-07-09T07:54:36.000Z</time>
      </trkpt>
      <trkpt lat="44.14497" lon="6.59841">
        <ele>1188.5999755859</ele>
        <time>2022-07-09T07:54:43.000Z</time>
      </trkpt>
      <trkpt lat="44.14505" lon="6.59848">
        <ele>1189</ele>
        <time>2022-07-09T07:54:47.000Z</time>
      </trkpt>
      <trkpt lat="44.14509" lon="6.59851">
        <ele>1189.4000244141</ele>
        <time>2022-07-09T07:54:49.000Z</time>
      </trkpt>
      <trkpt lat="44.14528" lon="6.59861">
        <ele>1189.8000488281</ele>
        <time>2022-07-09T07:54:56.000Z</time>
      </trkpt>
      <trkpt lat="44.14536" lon="6.59866">
        <ele>1190.1999511719</ele>
        <time>2022-07-09T07:54:59.000Z</time>
      </trkpt>
      <trkpt lat="44.14542" lon="6.5987">
        <ele>1190.4000244141</ele>
        <time>2022-07-09T07:55:02.000Z</time>
      </trkpt>
      <trkpt lat="44.14547" lon="6.59874">
        <ele>1191.4000244141</ele>
        <time>2022-07-09T07:55:05.000Z</time>
      </trkpt>
      <trkpt lat="44.14553" lon="6.59877">
        <ele>1192.1999511719</ele>
        <time>2022-07-09T07:55:08.000Z</time>
      </trkpt>
      <trkpt lat="44.14555" lon="6.59878">
        <ele>1192.4000244141</ele>
        <time>2022-07-09T07:55:09.000Z</time>
      </trkpt>
      <trkpt lat="44.14564" lon="6.59884">
        <ele>1193.5999755859</ele>
        <time>2022-07-09T07:55:14.000Z</time>
      </trkpt>
      <trkpt lat="44.1457" lon="6.59887">
        <ele>1194.5999755859</ele>
        <time>2022-07-09T07:55:18.000Z</time>
      </trkpt>
      <trkpt lat="44.14572" lon="6.5989">
        <ele>1195</ele>
        <time>2022-07-09T07:55:20.000Z</time>
      </trkpt>
      <trkpt lat="44.14577" lon="6.59896">
        <ele>1195.8000488281</ele>
        <time>2022-07-09T07:55:24.000Z</time>
      </trkpt>
      <trkpt lat="44.14579" lon="6.59897">
        <ele>1196</ele>
        <time>2022-07-09T07:55:25.000Z</time>
      </trkpt>
      <trkpt lat="44.14585" lon="6.59901">
        <ele>1196.8000488281</ele>
        <time>2022-07-09T07:55:29.000Z</time>
      </trkpt>
      <trkpt lat="44.14589" lon="6.59903">
        <ele>1197.1999511719</ele>
        <time>2022-07-09T07:55:31.000Z</time>
      </trkpt>
      <trkpt lat="44.14596" lon="6.59907">
        <ele>1198</ele>
        <time>2022-07-09T07:55:35.000Z</time>
      </trkpt>
      <trkpt lat="44.14599" lon="6.59909">
        <ele>1198.1999511719</ele>
        <time>2022-07-09T07:55:37.000Z</time>
      </trkpt>
      <trkpt lat="44.14605" lon="6.59914">
        <ele>1199</ele>
        <time>2022-07-09T07:55:41.000Z</time>
      </trkpt>
      <trkpt lat="44.14607" lon="6.59915">
        <ele>1199.1999511719</ele>
        <time>2022-07-09T07:55:42.000Z</time>
      </trkpt>
      <trkpt lat="44.14617" lon="6.5992">
        <ele>1200</ele>
        <time>2022-07-09T07:55:47.000Z</time>
      </trkpt>
      <trkpt lat="44.14621" lon="6.59923">
        <ele>1200.4000244141</ele>
        <time>2022-07-09T07:55:49.000Z</time>
      </trkpt>
      <trkpt lat="44.14633" lon="6.5993">
        <ele>1201.1999511719</ele>
        <time>2022-07-09T07:55:55.000Z</time>
      </trkpt>
      <trkpt lat="44.14635" lon="6.59931">
        <ele>1201.1999511719</ele>
        <time>2022-07-09T07:55:56.000Z</time>
      </trkpt>
      <trkpt lat="44.14652" lon="6.5994">
        <ele>1202.1999511719</ele>
        <time>2022-07-09T07:56:04.000Z</time>
      </trkpt>
      <trkpt lat="44.14664" lon="6.59949">
        <ele>1203</ele>
        <time>2022-07-09T07:56:10.000Z</time>
      </trkpt>
      <trkpt lat="44.14669" lon="6.59953">
        <ele>1203.4000244141</ele>
        <time>2022-07-09T07:56:13.000Z</time>
      </trkpt>
      <trkpt lat="44.14676" lon="6.59957">
        <ele>1203.4000244141</ele>
        <time>2022-07-09T07:56:16.000Z</time>
      </trkpt>
      <trkpt lat="44.14685" lon="6.59965">
        <ele>1203.5999755859</ele>
        <time>2022-07-09T07:56:20.000Z</time>
      </trkpt>
      <trkpt lat="44.14697" lon="6.59975">
        <ele>1203.5999755859</ele>
        <time>2022-07-09T07:56:25.000Z</time>
      </trkpt>
      <trkpt lat="44.14716" lon="6.59985">
        <ele>1204.4000244141</ele>
        <time>2022-07-09T07:56:32.000Z</time>
      </trkpt>
      <trkpt lat="44.14719" lon="6.59986">
        <ele>1204.4000244141</ele>
        <time>2022-07-09T07:56:33.000Z</time>
      </trkpt>
      <trkpt lat="44.1474" lon="6.60001">
        <ele>1205.4000244141</ele>
        <time>2022-07-09T07:56:42.000Z</time>
      </trkpt>
      <trkpt lat="44.14751" lon="6.60014">
        <ele>1206</ele>
        <time>2022-07-09T07:56:48.000Z</time>
      </trkpt>
      <trkpt lat="44.14758" lon="6.6002">
        <ele>1206.4000244141</ele>
        <time>2022-07-09T07:56:51.000Z</time>
      </trkpt>
      <trkpt lat="44.14771" lon="6.60032">
        <ele>1206.5999755859</ele>
        <time>2022-07-09T07:56:56.000Z</time>
      </trkpt>
      <trkpt lat="44.14787" lon="6.60045">
        <ele>1206</ele>
        <time>2022-07-09T07:57:01.000Z</time>
      </trkpt>
      <trkpt lat="44.148" lon="6.60047">
        <ele>1206.4000244141</ele>
        <time>2022-07-09T07:57:06.000Z</time>
      </trkpt>
      <trkpt lat="44.14814" lon="6.6005">
        <ele>1207.5999755859</ele>
        <time>2022-07-09T07:57:11.000Z</time>
      </trkpt>
      <trkpt lat="44.14823" lon="6.60056">
        <ele>1208.5999755859</ele>
        <time>2022-07-09T07:57:15.000Z</time>
      </trkpt>
      <trkpt lat="44.14825" lon="6.60058">
        <ele>1209</ele>
        <time>2022-07-09T07:57:16.000Z</time>
      </trkpt>
      <trkpt lat="44.14833" lon="6.60067">
        <ele>1209.8000488281</ele>
        <time>2022-07-09T07:57:20.000Z</time>
      </trkpt>
      <trkpt lat="44.14842" lon="6.60077">
        <ele>1210.5999755859</ele>
        <time>2022-07-09T07:57:24.000Z</time>
      </trkpt>
      <trkpt lat="44.14849" lon="6.60086">
        <ele>1211</ele>
        <time>2022-07-09T07:57:27.000Z</time>
      </trkpt>
      <trkpt lat="44.14859" lon="6.60096">
        <ele>1211</ele>
        <time>2022-07-09T07:57:31.000Z</time>
      </trkpt>
      <trkpt lat="44.14873" lon="6.60109">
        <ele>1212</ele>
        <time>2022-07-09T07:57:38.000Z</time>
      </trkpt>
      <trkpt lat="44.14884" lon="6.6012">
        <ele>1213</ele>
        <time>2022-07-09T07:57:43.000Z</time>
      </trkpt>
      <trkpt lat="44.14886" lon="6.60123">
        <ele>1213.1999511719</ele>
        <time>2022-07-09T07:57:44.000Z</time>
      </trkpt>
      <trkpt lat="44.14894" lon="6.60141">
        <ele>1213.1999511719</ele>
        <time>2022-07-09T07:57:49.000Z</time>
      </trkpt>
      <trkpt lat="44.14897" lon="6.60165">
        <ele>1213.5999755859</ele>
        <time>2022-07-09T07:57:55.000Z</time>
      </trkpt>
      <trkpt lat="44.14905" lon="6.60183">
        <ele>1213.4000244141</ele>
        <time>2022-07-09T07:58:00.000Z</time>
      </trkpt>
      <trkpt lat="44.1492" lon="6.60192">
        <ele>1212.8000488281</ele>
        <time>2022-07-09T07:58:04.000Z</time>
      </trkpt>
      <trkpt lat="44.14924" lon="6.60193">
        <ele>1212.4000244141</ele>
        <time>2022-07-09T07:58:05.000Z</time>
      </trkpt>
      <trkpt lat="44.14935" lon="6.60196">
        <ele>1212</ele>
        <time>2022-07-09T07:58:07.000Z</time>
      </trkpt>
      <trkpt lat="44.1495" lon="6.60201">
        <ele>1210.8000488281</ele>
        <time>2022-07-09T07:58:10.000Z</time>
      </trkpt>
      <trkpt lat="44.14956" lon="6.60202">
        <ele>1210.5999755859</ele>
        <time>2022-07-09T07:58:11.000Z</time>
      </trkpt>
      <trkpt lat="44.14973" lon="6.60204">
        <ele>1210</ele>
        <time>2022-07-09T07:58:14.000Z</time>
      </trkpt>
      <trkpt lat="44.14979" lon="6.60203">
        <ele>1209.8000488281</ele>
        <time>2022-07-09T07:58:15.000Z</time>
      </trkpt>
      <trkpt lat="44.14985" lon="6.60202">
        <ele>1209.5999755859</ele>
        <time>2022-07-09T07:58:16.000Z</time>
      </trkpt>
      <trkpt lat="44.15003" lon="6.60201">
        <ele>1208.8000488281</ele>
        <time>2022-07-09T07:58:19.000Z</time>
      </trkpt>
      <trkpt lat="44.15015" lon="6.60205">
        <ele>1208</ele>
        <time>2022-07-09T07:58:21.000Z</time>
      </trkpt>
      <trkpt lat="44.15021" lon="6.60208">
        <ele>1207.4000244141</ele>
        <time>2022-07-09T07:58:22.000Z</time>
      </trkpt>
      <trkpt lat="44.15026" lon="6.60209">
        <ele>1206.8000488281</ele>
        <time>2022-07-09T07:58:23.000Z</time>
      </trkpt>
      <trkpt lat="44.15032" lon="6.60209">
        <ele>1206.4000244141</ele>
        <time>2022-07-09T07:58:24.000Z</time>
      </trkpt>
      <trkpt lat="44.15037" lon="6.60206">
        <ele>1206</ele>
        <time>2022-07-09T07:58:25.000Z</time>
      </trkpt>
      <trkpt lat="44.15045" lon="6.60197">
        <ele>1205.4000244141</ele>
        <time>2022-07-09T07:58:27.000Z</time>
      </trkpt>
      <trkpt lat="44.15052" lon="6.60191">
        <ele>1205</ele>
        <time>2022-07-09T07:58:29.000Z</time>
      </trkpt>
      <trkpt lat="44.15071" lon="6.60188">
        <ele>1206.1999511719</ele>
        <time>2022-07-09T07:58:34.000Z</time>
      </trkpt>
      <trkpt lat="44.15075" lon="6.60187">
        <ele>1206.4000244141</ele>
        <time>2022-07-09T07:58:35.000Z</time>
      </trkpt>
      <trkpt lat="44.15094" lon="6.6019">
        <ele>1207.4000244141</ele>
        <time>2022-07-09T07:58:40.000Z</time>
      </trkpt>
      <trkpt lat="44.15097" lon="6.60191">
        <ele>1207.5999755859</ele>
        <time>2022-07-09T07:58:41.000Z</time>
      </trkpt>
      <trkpt lat="44.15113" lon="6.60198">
        <ele>1208.5999755859</ele>
        <time>2022-07-09T07:58:46.000Z</time>
      </trkpt>
      <trkpt lat="44.15115" lon="6.60199">
        <ele>1208.8000488281</ele>
        <time>2022-07-09T07:58:47.000Z</time>
      </trkpt>
      <trkpt lat="44.15123" lon="6.60204">
        <ele>1209.8000488281</ele>
        <time>2022-07-09T07:58:51.000Z</time>
      </trkpt>
      <trkpt lat="44.15133" lon="6.60211">
        <ele>1211</ele>
        <time>2022-07-09T07:58:56.000Z</time>
      </trkpt>
      <trkpt lat="44.15134" lon="6.60212">
        <ele>1211.1999511719</ele>
        <time>2022-07-09T07:58:57.000Z</time>
      </trkpt>
      <trkpt lat="44.15138" lon="6.60216">
        <ele>1212</ele>
        <time>2022-07-09T07:59:00.000Z</time>
      </trkpt>
      <trkpt lat="44.15143" lon="6.60221">
        <ele>1213.1999511719</ele>
        <time>2022-07-09T07:59:04.000Z</time>
      </trkpt>
      <trkpt lat="44.15148" lon="6.60225">
        <ele>1214.4000244141</ele>
        <time>2022-07-09T07:59:08.000Z</time>
      </trkpt>
      <trkpt lat="44.15151" lon="6.60228">
        <ele>1215</ele>
        <time>2022-07-09T07:59:10.000Z</time>
      </trkpt>
      <trkpt lat="44.15158" lon="6.60234">
        <ele>1215.5999755859</ele>
        <time>2022-07-09T07:59:14.000Z</time>
      </trkpt>
      <trkpt lat="44.15164" lon="6.60239">
        <ele>1216.1999511719</ele>
        <time>2022-07-09T07:59:17.000Z</time>
      </trkpt>
      <trkpt lat="44.1517" lon="6.60247">
        <ele>1216.8000488281</ele>
        <time>2022-07-09T07:59:20.000Z</time>
      </trkpt>
      <trkpt lat="44.15177" lon="6.60258">
        <ele>1216.8000488281</ele>
        <time>2022-07-09T07:59:23.000Z</time>
      </trkpt>
      <trkpt lat="44.15192" lon="6.60282">
        <ele>1215.5999755859</ele>
        <time>2022-07-09T07:59:28.000Z</time>
      </trkpt>
      <trkpt lat="44.15214" lon="6.60304">
        <ele>1215.1999511719</ele>
        <time>2022-07-09T07:59:34.000Z</time>
      </trkpt>
      <trkpt lat="44.15234" lon="6.60322">
        <ele>1215.4000244141</ele>
        <time>2022-07-09T07:59:40.000Z</time>
      </trkpt>
      <trkpt lat="44.15251" lon="6.60332">
        <ele>1216.1999511719</ele>
        <time>2022-07-09T07:59:45.000Z</time>
      </trkpt>
      <trkpt lat="44.15257" lon="6.60335">
        <ele>1216.8000488281</ele>
        <time>2022-07-09T07:59:47.000Z</time>
      </trkpt>
      <trkpt lat="44.15265" lon="6.60341">
        <ele>1217.8000488281</ele>
        <time>2022-07-09T07:59:50.000Z</time>
      </trkpt>
      <trkpt lat="44.15267" lon="6.60343">
        <ele>1218.1999511719</ele>
        <time>2022-07-09T07:59:51.000Z</time>
      </trkpt>
      <trkpt lat="44.1528" lon="6.60351">
        <ele>1219</ele>
        <time>2022-07-09T07:59:56.000Z</time>
      </trkpt>
      <trkpt lat="44.15283" lon="6.60352">
        <ele>1219.1999511719</ele>
        <time>2022-07-09T07:59:57.000Z</time>
      </trkpt>
      <trkpt lat="44.15292" lon="6.60357">
        <ele>1220</ele>
        <time>2022-07-09T08:00:01.000Z</time>
      </trkpt>
      <trkpt lat="44.15295" lon="6.60361">
        <ele>1220.4000244141</ele>
        <time>2022-07-09T08:00:03.000Z</time>
      </trkpt>
      <trkpt lat="44.15301" lon="6.60368">
        <ele>1221.1999511719</ele>
        <time>2022-07-09T08:00:07.000Z</time>
      </trkpt>
      <trkpt lat="44.15309" lon="6.60376">
        <ele>1222.4000244141</ele>
        <time>2022-07-09T08:00:11.000Z</time>
      </trkpt>
      <trkpt lat="44.15321" lon="6.60387">
        <ele>1223.5999755859</ele>
        <time>2022-07-09T08:00:17.000Z</time>
      </trkpt>
      <trkpt lat="44.15325" lon="6.60391">
        <ele>1224</ele>
        <time>2022-07-09T08:00:19.000Z</time>
      </trkpt>
      <trkpt lat="44.15341" lon="6.60402">
        <ele>1224.4000244141</ele>
        <time>2022-07-09T08:00:25.000Z</time>
      </trkpt>
      <trkpt lat="44.15356" lon="6.60414">
        <ele>1224.5999755859</ele>
        <time>2022-07-09T08:00:31.000Z</time>
      </trkpt>
      <trkpt lat="44.15358" lon="6.60416">
        <ele>1224.8000488281</ele>
        <time>2022-07-09T08:00:32.000Z</time>
      </trkpt>
      <trkpt lat="44.15365" lon="6.60423">
        <ele>1225.5999755859</ele>
        <time>2022-07-09T08:00:37.000Z</time>
      </trkpt>
      <trkpt lat="44.15366" lon="6.60424">
        <ele>1225.8000488281</ele>
        <time>2022-07-09T08:00:38.000Z</time>
      </trkpt>
      <trkpt lat="44.15375" lon="6.60433">
        <ele>1226.1999511719</ele>
        <time>2022-07-09T08:00:44.000Z</time>
      </trkpt>
      <trkpt lat="44.15389" lon="6.60442">
        <ele>1225.5999755859</ele>
        <time>2022-07-09T08:00:51.000Z</time>
      </trkpt>
      <trkpt lat="44.15394" lon="6.60441">
        <ele>1225.1999511719</ele>
        <time>2022-07-09T08:00:53.000Z</time>
      </trkpt>
      <trkpt lat="44.15399" lon="6.60437">
        <ele>1224.4000244141</ele>
        <time>2022-07-09T08:00:55.000Z</time>
      </trkpt>
      <trkpt lat="44.15406" lon="6.60437">
        <ele>1223.4000244141</ele>
        <time>2022-07-09T08:00:57.000Z</time>
      </trkpt>
      <trkpt lat="44.1541" lon="6.60441">
        <ele>1222.5999755859</ele>
        <time>2022-07-09T08:00:58.000Z</time>
      </trkpt>
      <trkpt lat="44.15413" lon="6.60445">
        <ele>1222</ele>
        <time>2022-07-09T08:00:59.000Z</time>
      </trkpt>
      <trkpt lat="44.15418" lon="6.60455">
        <ele>1220.5999755859</ele>
        <time>2022-07-09T08:01:01.000Z</time>
      </trkpt>
      <trkpt lat="44.15419" lon="6.60459">
        <ele>1220</ele>
        <time>2022-07-09T08:01:02.000Z</time>
      </trkpt>
      <trkpt lat="44.1542" lon="6.60464">
        <ele>1219.5999755859</ele>
        <time>2022-07-09T08:01:04.000Z</time>
      </trkpt>
      <trkpt lat="44.1542" lon="6.60468">
        <ele>1219.8000488281</ele>
        <time>2022-07-09T08:01:06.000Z</time>
      </trkpt>
      <trkpt lat="44.1542" lon="6.60473">
        <ele>1220.8000488281</ele>
        <time>2022-07-09T08:01:09.000Z</time>
      </trkpt>
      <trkpt lat="44.1542" lon="6.60478">
        <ele>1221.5999755859</ele>
        <time>2022-07-09T08:01:12.000Z</time>
      </trkpt>
      <trkpt lat="44.15421" lon="6.60479">
        <ele>1221.8000488281</ele>
        <time>2022-07-09T08:01:13.000Z</time>
      </trkpt>
      <trkpt lat="44.15421" lon="6.60486">
        <ele>1223</ele>
        <time>2022-07-09T08:01:17.000Z</time>
      </trkpt>
      <trkpt lat="44.15422" lon="6.60487">
        <ele>1223.4000244141</ele>
        <time>2022-07-09T08:01:18.000Z</time>
      </trkpt>
      <trkpt lat="44.15423" lon="6.60489">
        <ele>1223.8000488281</ele>
        <time>2022-07-09T08:01:19.000Z</time>
      </trkpt>
      <trkpt lat="44.15425" lon="6.60492">
        <ele>1224.1999511719</ele>
        <time>2022-07-09T08:01:21.000Z</time>
      </trkpt>
      <trkpt lat="44.15436" lon="6.60503">
        <ele>1225</ele>
        <time>2022-07-09T08:01:28.000Z</time>
      </trkpt>
      <trkpt lat="44.15447" lon="6.60518">
        <ele>1225.1999511719</ele>
        <time>2022-07-09T08:01:34.000Z</time>
      </trkpt>
      <trkpt lat="44.15457" lon="6.60544">
        <ele>1224.4000244141</ele>
        <time>2022-07-09T08:01:39.000Z</time>
      </trkpt>
      <trkpt lat="44.15463" lon="6.60559">
        <ele>1224.4000244141</ele>
        <time>2022-07-09T08:01:43.000Z</time>
      </trkpt>
      <trkpt lat="44.15473" lon="6.60577">
        <ele>1224.8000488281</ele>
        <time>2022-07-09T08:01:48.000Z</time>
      </trkpt>
      <trkpt lat="44.15474" lon="6.6058">
        <ele>1224.8000488281</ele>
        <time>2022-07-09T08:01:49.000Z</time>
      </trkpt>
      <trkpt lat="44.15478" lon="6.60586">
        <ele>1225.1999511719</ele>
        <time>2022-07-09T08:01:52.000Z</time>
      </trkpt>
      <trkpt lat="44.1548" lon="6.60588">
        <ele>1225.5999755859</ele>
        <time>2022-07-09T08:01:53.000Z</time>
      </trkpt>
      <trkpt lat="44.15481" lon="6.6059">
        <ele>1225.8000488281</ele>
        <time>2022-07-09T08:01:54.000Z</time>
      </trkpt>
      <trkpt lat="44.15484" lon="6.60593">
        <ele>1226.5999755859</ele>
        <time>2022-07-09T08:01:56.000Z</time>
      </trkpt>
      <trkpt lat="44.15489" lon="6.60599">
        <ele>1227.5999755859</ele>
        <time>2022-07-09T08:02:00.000Z</time>
      </trkpt>
      <trkpt lat="44.15491" lon="6.60601">
        <ele>1228.1999511719</ele>
        <time>2022-07-09T08:02:02.000Z</time>
      </trkpt>
      <trkpt lat="44.15492" lon="6.60602">
        <ele>1228.5999755859</ele>
        <time>2022-07-09T08:02:04.000Z</time>
      </trkpt>
      <trkpt lat="44.15493" lon="6.60604">
        <ele>1228.8000488281</ele>
        <time>2022-07-09T08:02:05.000Z</time>
      </trkpt>
      <trkpt lat="44.15496" lon="6.60607">
        <ele>1230</ele>
        <time>2022-07-09T08:02:08.000Z</time>
      </trkpt>
      <trkpt lat="44.15498" lon="6.6061">
        <ele>1230.8000488281</ele>
        <time>2022-07-09T08:02:11.000Z</time>
      </trkpt>
      <trkpt lat="44.15498" lon="6.60611">
        <ele>1231</ele>
        <time>2022-07-09T08:02:12.000Z</time>
      </trkpt>
      <trkpt lat="44.15499" lon="6.6061">
        <ele>1231.8000488281</ele>
        <time>2022-07-09T08:02:17.000Z</time>
      </trkpt>
      <trkpt lat="44.15499" lon="6.6061">
        <ele>1231.4000244141</ele>
        <time>2022-07-09T08:02:24.000Z</time>
      </trkpt>
      <trkpt lat="44.15498" lon="6.60612">
        <ele>1231.4000244141</ele>
        <time>2022-07-09T08:02:33.000Z</time>
      </trkpt>
      <trkpt lat="44.15497" lon="6.60612">
        <ele>1231.5999755859</ele>
        <time>2022-07-09T08:02:40.000Z</time>
      </trkpt>
      <trkpt lat="44.15498" lon="6.60612">
        <ele>1231.8000488281</ele>
        <time>2022-07-09T08:02:49.000Z</time>
      </trkpt>
      <trkpt lat="44.15499" lon="6.60613">
        <ele>1232</ele>
        <time>2022-07-09T08:02:57.000Z</time>
      </trkpt>
      <trkpt lat="44.15499" lon="6.60613">
        <ele>1232</ele>
        <time>2022-07-09T08:02:58.000Z</time>
      </trkpt>
      <trkpt lat="44.155" lon="6.60613">
        <ele>1232.1999511719</ele>
        <time>2022-07-09T08:03:05.000Z</time>
      </trkpt>
      <trkpt lat="44.155" lon="6.60614">
        <ele>1231.8000488281</ele>
        <time>2022-07-09T08:03:15.000Z</time>
      </trkpt>
      <trkpt lat="44.155" lon="6.60614">
        <ele>1232.4000244141</ele>
        <time>2022-07-09T08:03:21.000Z</time>
      </trkpt>
      <trkpt lat="44.155" lon="6.60614">
        <ele>1232.5999755859</ele>
        <time>2022-07-09T08:03:27.000Z</time>
      </trkpt>
      <trkpt lat="44.15503" lon="6.60617">
        <ele>1233.1999511719</ele>
        <time>2022-07-09T08:03:34.000Z</time>
      </trkpt>
      <trkpt lat="44.15504" lon="6.60617">
        <ele>1233.4000244141</ele>
        <time>2022-07-09T08:03:36.000Z</time>
      </trkpt>
      <trkpt lat="44.15506" lon="6.60618">
        <ele>1234.1999511719</ele>
        <time>2022-07-09T08:03:40.000Z</time>
      </trkpt>
      <trkpt lat="44.15507" lon="6.60618">
        <ele>1234.4000244141</ele>
        <time>2022-07-09T08:03:41.000Z</time>
      </trkpt>
      <trkpt lat="44.15509" lon="6.60619">
        <ele>1235.8000488281</ele>
        <time>2022-07-09T08:03:46.000Z</time>
      </trkpt>
      <trkpt lat="44.1551" lon="6.60619">
        <ele>1236</ele>
        <time>2022-07-09T08:03:47.000Z</time>
      </trkpt>
      <trkpt lat="44.15515" lon="6.60621">
        <ele>1236.8000488281</ele>
        <time>2022-07-09T08:03:52.000Z</time>
      </trkpt>
      <trkpt lat="44.15518" lon="6.60621">
        <ele>1237.1999511719</ele>
        <time>2022-07-09T08:03:55.000Z</time>
      </trkpt>
      <trkpt lat="44.15524" lon="6.60623">
        <ele>1237.8000488281</ele>
        <time>2022-07-09T08:04:01.000Z</time>
      </trkpt>
      <trkpt lat="44.15527" lon="6.60624">
        <ele>1238.1999511719</ele>
        <time>2022-07-09T08:04:04.000Z</time>
      </trkpt>
      <trkpt lat="44.15531" lon="6.60627">
        <ele>1239</ele>
        <time>2022-07-09T08:04:08.000Z</time>
      </trkpt>
      <trkpt lat="44.15533" lon="6.60629">
        <ele>1239.8000488281</ele>
        <time>2022-07-09T08:04:12.000Z</time>
      </trkpt>
      <trkpt lat="44.15533" lon="6.60629">
        <ele>1240</ele>
        <time>2022-07-09T08:04:15.000Z</time>
      </trkpt>
      <trkpt lat="44.15534" lon="6.60631">
        <ele>1239.8000488281</ele>
        <time>2022-07-09T08:04:17.000Z</time>
      </trkpt>
      <trkpt lat="44.15535" lon="6.60632">
        <ele>1239.8000488281</ele>
        <time>2022-07-09T08:04:18.000Z</time>
      </trkpt>
      <trkpt lat="44.1554" lon="6.60635">
        <ele>1240</ele>
        <time>2022-07-09T08:04:22.000Z</time>
      </trkpt>
      <trkpt lat="44.15549" lon="6.6064">
        <ele>1240.5999755859</ele>
        <time>2022-07-09T08:04:28.000Z</time>
      </trkpt>
      <trkpt lat="44.15555" lon="6.60645">
        <ele>1241.4000244141</ele>
        <time>2022-07-09T08:04:33.000Z</time>
      </trkpt>
      <trkpt lat="44.15556" lon="6.60646">
        <ele>1241.8000488281</ele>
        <time>2022-07-09T08:04:34.000Z</time>
      </trkpt>
      <trkpt lat="44.15558" lon="6.60648">
        <ele>1242.4000244141</ele>
        <time>2022-07-09T08:04:36.000Z</time>
      </trkpt>
      <trkpt lat="44.1556" lon="6.6065">
        <ele>1243.5999755859</ele>
        <time>2022-07-09T08:04:39.000Z</time>
      </trkpt>
      <trkpt lat="44.15568" lon="6.60656">
        <ele>1244.4000244141</ele>
        <time>2022-07-09T08:04:44.000Z</time>
      </trkpt>
      <trkpt lat="44.1557" lon="6.60658">
        <ele>1244.5999755859</ele>
        <time>2022-07-09T08:04:46.000Z</time>
      </trkpt>
      <trkpt lat="44.15573" lon="6.60661">
        <ele>1245.5999755859</ele>
        <time>2022-07-09T08:04:50.000Z</time>
      </trkpt>
      <trkpt lat="44.1558" lon="6.60668">
        <ele>1246.4000244141</ele>
        <time>2022-07-09T08:04:55.000Z</time>
      </trkpt>
      <trkpt lat="44.15581" lon="6.6067">
        <ele>1246.8000488281</ele>
        <time>2022-07-09T08:04:58.000Z</time>
      </trkpt>
      <trkpt lat="44.15581" lon="6.6067">
        <ele>1247</ele>
        <time>2022-07-09T08:04:59.000Z</time>
      </trkpt>
      <trkpt lat="44.15586" lon="6.60675">
        <ele>1247.5999755859</ele>
        <time>2022-07-09T08:05:05.000Z</time>
      </trkpt>
      <trkpt lat="44.15587" lon="6.60676">
        <ele>1247.8000488281</ele>
        <time>2022-07-09T08:05:06.000Z</time>
      </trkpt>
      <trkpt lat="44.15591" lon="6.60682">
        <ele>1248.8000488281</ele>
        <time>2022-07-09T08:05:12.000Z</time>
      </trkpt>
      <trkpt lat="44.15591" lon="6.60682">
        <ele>1249</ele>
        <time>2022-07-09T08:05:13.000Z</time>
      </trkpt>
      <trkpt lat="44.15594" lon="6.60685">
        <ele>1250</ele>
        <time>2022-07-09T08:05:18.000Z</time>
      </trkpt>
      <trkpt lat="44.15595" lon="6.60685">
        <ele>1250.1999511719</ele>
        <time>2022-07-09T08:05:19.000Z</time>
      </trkpt>
      <trkpt lat="44.156" lon="6.60692">
        <ele>1251</ele>
        <time>2022-07-09T08:05:27.000Z</time>
      </trkpt>
      <trkpt lat="44.15601" lon="6.60693">
        <ele>1251.1999511719</ele>
        <time>2022-07-09T08:05:28.000Z</time>
      </trkpt>
      <trkpt lat="44.15604" lon="6.607">
        <ele>1252.1999511719</ele>
        <time>2022-07-09T08:05:34.000Z</time>
      </trkpt>
      <trkpt lat="44.15605" lon="6.60701">
        <ele>1252.5999755859</ele>
        <time>2022-07-09T08:05:36.000Z</time>
      </trkpt>
      <trkpt lat="44.15605" lon="6.60706">
        <ele>1253.4000244141</ele>
        <time>2022-07-09T08:05:41.000Z</time>
      </trkpt>
      <trkpt lat="44.15606" lon="6.60708">
        <ele>1253.8000488281</ele>
        <time>2022-07-09T08:05:44.000Z</time>
      </trkpt>
      <trkpt lat="44.15609" lon="6.60711">
        <ele>1254.1999511719</ele>
        <time>2022-07-09T08:05:49.000Z</time>
      </trkpt>
      <trkpt lat="44.15615" lon="6.60723">
        <ele>1253.8000488281</ele>
        <time>2022-07-09T08:05:53.000Z</time>
      </trkpt>
      <trkpt lat="44.15622" lon="6.6073">
        <ele>1253.1999511719</ele>
        <time>2022-07-09T08:05:58.000Z</time>
      </trkpt>
      <trkpt lat="44.1563" lon="6.60742">
        <ele>1254</ele>
        <time>2022-07-09T08:06:05.000Z</time>
      </trkpt>
      <trkpt lat="44.15631" lon="6.60744">
        <ele>1254.4000244141</ele>
        <time>2022-07-09T08:06:06.000Z</time>
      </trkpt>
      <trkpt lat="44.15635" lon="6.60754">
        <ele>1255.1999511719</ele>
        <time>2022-07-09T08:06:12.000Z</time>
      </trkpt>
      <trkpt lat="44.15636" lon="6.60759">
        <ele>1255.4000244141</ele>
        <time>2022-07-09T08:06:15.000Z</time>
      </trkpt>
      <trkpt lat="44.15636" lon="6.60762">
        <ele>1255.4000244141</ele>
        <time>2022-07-09T08:06:16.000Z</time>
      </trkpt>
      <trkpt lat="44.15636" lon="6.60765">
        <ele>1255.5999755859</ele>
        <time>2022-07-09T08:06:18.000Z</time>
      </trkpt>
      <trkpt lat="44.15639" lon="6.60773">
        <ele>1256.5999755859</ele>
        <time>2022-07-09T08:06:22.000Z</time>
      </trkpt>
      <trkpt lat="44.15639" lon="6.60777">
        <ele>1256.8000488281</ele>
        <time>2022-07-09T08:06:24.000Z</time>
      </trkpt>
      <trkpt lat="44.15641" lon="6.60783">
        <ele>1257.5999755859</ele>
        <time>2022-07-09T08:06:28.000Z</time>
      </trkpt>
      <trkpt lat="44.15643" lon="6.60785">
        <ele>1258</ele>
        <time>2022-07-09T08:06:30.000Z</time>
      </trkpt>
      <trkpt lat="44.15648" lon="6.60792">
        <ele>1258.5999755859</ele>
        <time>2022-07-09T08:06:34.000Z</time>
      </trkpt>
      <trkpt lat="44.1565" lon="6.60793">
        <ele>1258.8000488281</ele>
        <time>2022-07-09T08:06:35.000Z</time>
      </trkpt>
      <trkpt lat="44.15651" lon="6.60796">
        <ele>1259</ele>
        <time>2022-07-09T08:06:37.000Z</time>
      </trkpt>
      <trkpt lat="44.15655" lon="6.608">
        <ele>1259.5999755859</ele>
        <time>2022-07-09T08:06:40.000Z</time>
      </trkpt>
      <trkpt lat="44.15656" lon="6.60801">
        <ele>1259.8000488281</ele>
        <time>2022-07-09T08:06:41.000Z</time>
      </trkpt>
      <trkpt lat="44.1566" lon="6.60806">
        <ele>1261</ele>
        <time>2022-07-09T08:06:45.000Z</time>
      </trkpt>
      <trkpt lat="44.15661" lon="6.60806">
        <ele>1261.1999511719</ele>
        <time>2022-07-09T08:06:47.000Z</time>
      </trkpt>
      <trkpt lat="44.15665" lon="6.60807">
        <ele>1261.8000488281</ele>
        <time>2022-07-09T08:06:56.000Z</time>
      </trkpt>
      <trkpt lat="44.15667" lon="6.60808">
        <ele>1262</ele>
        <time>2022-07-09T08:06:58.000Z</time>
      </trkpt>
      <trkpt lat="44.15669" lon="6.6081">
        <ele>1262.4000244141</ele>
        <time>2022-07-09T08:07:00.000Z</time>
      </trkpt>
      <trkpt lat="44.1567" lon="6.60813">
        <ele>1263</ele>
        <time>2022-07-09T08:07:02.000Z</time>
      </trkpt>
      <trkpt lat="44.15668" lon="6.6082">
        <ele>1264.1999511719</ele>
        <time>2022-07-09T08:07:06.000Z</time>
      </trkpt>
      <trkpt lat="44.15667" lon="6.60823">
        <ele>1264.4000244141</ele>
        <time>2022-07-09T08:07:08.000Z</time>
      </trkpt>
      <trkpt lat="44.15667" lon="6.60825">
        <ele>1264.8000488281</ele>
        <time>2022-07-09T08:07:10.000Z</time>
      </trkpt>
      <trkpt lat="44.15667" lon="6.6083">
        <ele>1265</ele>
        <time>2022-07-09T08:07:12.000Z</time>
      </trkpt>
      <trkpt lat="44.15666" lon="6.60834">
        <ele>1265</ele>
        <time>2022-07-09T08:07:14.000Z</time>
      </trkpt>
      <trkpt lat="44.15665" lon="6.60846">
        <ele>1265</ele>
        <time>2022-07-09T08:07:19.000Z</time>
      </trkpt>
      <trkpt lat="44.15664" lon="6.60856">
        <ele>1264.8000488281</ele>
        <time>2022-07-09T08:07:24.000Z</time>
      </trkpt>
      <trkpt lat="44.15662" lon="6.60867">
        <ele>1264.5999755859</ele>
        <time>2022-07-09T08:07:29.000Z</time>
      </trkpt>
      <trkpt lat="44.1566" lon="6.60874">
        <ele>1265.1999511719</ele>
        <time>2022-07-09T08:07:32.000Z</time>
      </trkpt>
      <trkpt lat="44.1566" lon="6.60875">
        <ele>1265.1999511719</ele>
        <time>2022-07-09T08:07:34.000Z</time>
      </trkpt>
      <trkpt lat="44.15661" lon="6.6088">
        <ele>1265.1999511719</ele>
        <time>2022-07-09T08:07:40.000Z</time>
      </trkpt>
      <trkpt lat="44.15664" lon="6.60885">
        <ele>1266.1999511719</ele>
        <time>2022-07-09T08:07:46.000Z</time>
      </trkpt>
      <trkpt lat="44.15665" lon="6.60885">
        <ele>1266.4000244141</ele>
        <time>2022-07-09T08:07:47.000Z</time>
      </trkpt>
      <trkpt lat="44.15671" lon="6.60889">
        <ele>1266.5999755859</ele>
        <time>2022-07-09T08:07:54.000Z</time>
      </trkpt>
      <trkpt lat="44.15677" lon="6.60893">
        <ele>1267.4000244141</ele>
        <time>2022-07-09T08:08:01.000Z</time>
      </trkpt>
      <trkpt lat="44.15681" lon="6.60897">
        <ele>1268.4000244141</ele>
        <time>2022-07-09T08:08:07.000Z</time>
      </trkpt>
      <trkpt lat="44.15681" lon="6.60898">
        <ele>1268.5999755859</ele>
        <time>2022-07-09T08:08:08.000Z</time>
      </trkpt>
      <trkpt lat="44.15683" lon="6.60903">
        <ele>1269.4000244141</ele>
        <time>2022-07-09T08:08:12.000Z</time>
      </trkpt>
      <trkpt lat="44.15684" lon="6.60907">
        <ele>1269.8000488281</ele>
        <time>2022-07-09T08:08:15.000Z</time>
      </trkpt>
      <trkpt lat="44.15685" lon="6.60911">
        <ele>1270.4000244141</ele>
        <time>2022-07-09T08:08:19.000Z</time>
      </trkpt>
      <trkpt lat="44.15685" lon="6.60912">
        <ele>1270.5999755859</ele>
        <time>2022-07-09T08:08:20.000Z</time>
      </trkpt>
      <trkpt lat="44.15686" lon="6.60916">
        <ele>1271.5999755859</ele>
        <time>2022-07-09T08:08:26.000Z</time>
      </trkpt>
      <trkpt lat="44.15687" lon="6.60918">
        <ele>1271.8000488281</ele>
        <time>2022-07-09T08:08:27.000Z</time>
      </trkpt>
      <trkpt lat="44.15692" lon="6.60926">
        <ele>1271.5999755859</ele>
        <time>2022-07-09T08:08:32.000Z</time>
      </trkpt>
      <trkpt lat="44.15697" lon="6.60936">
        <ele>1271</ele>
        <time>2022-07-09T08:08:37.000Z</time>
      </trkpt>
      <trkpt lat="44.157" lon="6.60947">
        <ele>1271.1999511719</ele>
        <time>2022-07-09T08:08:42.000Z</time>
      </trkpt>
      <trkpt lat="44.157" lon="6.60949">
        <ele>1271.4000244141</ele>
        <time>2022-07-09T08:08:43.000Z</time>
      </trkpt>
      <trkpt lat="44.157" lon="6.60955">
        <ele>1273.1999511719</ele>
        <time>2022-07-09T08:08:47.000Z</time>
      </trkpt>
      <trkpt lat="44.157" lon="6.60956">
        <ele>1273.4000244141</ele>
        <time>2022-07-09T08:08:48.000Z</time>
      </trkpt>
      <trkpt lat="44.15705" lon="6.60963">
        <ele>1274.1999511719</ele>
        <time>2022-07-09T08:08:53.000Z</time>
      </trkpt>
      <trkpt lat="44.15707" lon="6.60966">
        <ele>1274.8000488281</ele>
        <time>2022-07-09T08:08:55.000Z</time>
      </trkpt>
      <trkpt lat="44.15708" lon="6.60968">
        <ele>1275.4000244141</ele>
        <time>2022-07-09T08:08:57.000Z</time>
      </trkpt>
      <trkpt lat="44.15711" lon="6.60972">
        <ele>1276.4000244141</ele>
        <time>2022-07-09T08:09:01.000Z</time>
      </trkpt>
      <trkpt lat="44.15719" lon="6.6098">
        <ele>1277.4000244141</ele>
        <time>2022-07-09T08:09:08.000Z</time>
      </trkpt>
      <trkpt lat="44.15725" lon="6.60987">
        <ele>1277.1999511719</ele>
        <time>2022-07-09T08:09:11.000Z</time>
      </trkpt>
      <trkpt lat="44.1573" lon="6.6099">
        <ele>1276.8000488281</ele>
        <time>2022-07-09T08:09:13.000Z</time>
      </trkpt>
      <trkpt lat="44.15743" lon="6.60996">
        <ele>1276.1999511719</ele>
        <time>2022-07-09T08:09:18.000Z</time>
      </trkpt>
      <trkpt lat="44.15752" lon="6.61001">
        <ele>1276.8000488281</ele>
        <time>2022-07-09T08:09:23.000Z</time>
      </trkpt>
      <trkpt lat="44.15758" lon="6.61007">
        <ele>1277.5999755859</ele>
        <time>2022-07-09T08:09:26.000Z</time>
      </trkpt>
      <trkpt lat="44.15762" lon="6.61014">
        <ele>1277.5999755859</ele>
        <time>2022-07-09T08:09:28.000Z</time>
      </trkpt>
      <trkpt lat="44.15766" lon="6.61029">
        <ele>1276.8000488281</ele>
        <time>2022-07-09T08:09:32.000Z</time>
      </trkpt>
      <trkpt lat="44.15773" lon="6.61042">
        <ele>1277.5999755859</ele>
        <time>2022-07-09T08:09:38.000Z</time>
      </trkpt>
      <trkpt lat="44.15778" lon="6.61051">
        <ele>1278.5999755859</ele>
        <time>2022-07-09T08:09:43.000Z</time>
      </trkpt>
      <trkpt lat="44.1578" lon="6.61054">
        <ele>1279</ele>
        <time>2022-07-09T08:09:45.000Z</time>
      </trkpt>
      <trkpt lat="44.15783" lon="6.61057">
        <ele>1279.1999511719</ele>
        <time>2022-07-09T08:09:47.000Z</time>
      </trkpt>
      <trkpt lat="44.15786" lon="6.61059">
        <ele>1279.4000244141</ele>
        <time>2022-07-09T08:09:49.000Z</time>
      </trkpt>
      <trkpt lat="44.15788" lon="6.61061">
        <ele>1279.5999755859</ele>
        <time>2022-07-09T08:09:51.000Z</time>
      </trkpt>
      <trkpt lat="44.1579" lon="6.61064">
        <ele>1280.1999511719</ele>
        <time>2022-07-09T08:09:54.000Z</time>
      </trkpt>
      <trkpt lat="44.15791" lon="6.61064">
        <ele>1280.5999755859</ele>
        <time>2022-07-09T08:09:55.000Z</time>
      </trkpt>
      <trkpt lat="44.15793" lon="6.61068">
        <ele>1281.8000488281</ele>
        <time>2022-07-09T08:09:59.000Z</time>
      </trkpt>
      <trkpt lat="44.15793" lon="6.61068">
        <ele>1282</ele>
        <time>2022-07-09T08:10:00.000Z</time>
      </trkpt>
      <trkpt lat="44.15795" lon="6.61073">
        <ele>1282.4000244141</ele>
        <time>2022-07-09T08:10:08.000Z</time>
      </trkpt>
      <trkpt lat="44.15795" lon="6.61073">
        <ele>1282</ele>
        <time>2022-07-09T08:10:13.000Z</time>
      </trkpt>
      <trkpt lat="44.15796" lon="6.61074">
        <ele>1281.8000488281</ele>
        <time>2022-07-09T08:10:14.000Z</time>
      </trkpt>
      <trkpt lat="44.15797" lon="6.61078">
        <ele>1282.4000244141</ele>
        <time>2022-07-09T08:10:18.000Z</time>
      </trkpt>
      <trkpt lat="44.15797" lon="6.6108">
        <ele>1282.8000488281</ele>
        <time>2022-07-09T08:10:20.000Z</time>
      </trkpt>
      <trkpt lat="44.15796" lon="6.61085">
        <ele>1283.4000244141</ele>
        <time>2022-07-09T08:10:25.000Z</time>
      </trkpt>
      <trkpt lat="44.15796" lon="6.61087">
        <ele>1284</ele>
        <time>2022-07-09T08:10:28.000Z</time>
      </trkpt>
      <trkpt lat="44.15794" lon="6.61092">
        <ele>1284.8000488281</ele>
        <time>2022-07-09T08:10:34.000Z</time>
      </trkpt>
      <trkpt lat="44.15794" lon="6.61094">
        <ele>1285</ele>
        <time>2022-07-09T08:10:36.000Z</time>
      </trkpt>
      <trkpt lat="44.15793" lon="6.61095">
        <ele>1285.4000244141</ele>
        <time>2022-07-09T08:10:38.000Z</time>
      </trkpt>
      <trkpt lat="44.15792" lon="6.61096">
        <ele>1286.1999511719</ele>
        <time>2022-07-09T08:10:41.000Z</time>
      </trkpt>
      <trkpt lat="44.15789" lon="6.61098">
        <ele>1287.1999511719</ele>
        <time>2022-07-09T08:10:46.000Z</time>
      </trkpt>
      <trkpt lat="44.15787" lon="6.61098">
        <ele>1288</ele>
        <time>2022-07-09T08:10:50.000Z</time>
      </trkpt>
      <trkpt lat="44.15786" lon="6.611">
        <ele>1288.4000244141</ele>
        <time>2022-07-09T08:10:53.000Z</time>
      </trkpt>
      <trkpt lat="44.15783" lon="6.61104">
        <ele>1289.5999755859</ele>
        <time>2022-07-09T08:11:00.000Z</time>
      </trkpt>
      <trkpt lat="44.15782" lon="6.61108">
        <ele>1290.5999755859</ele>
        <time>2022-07-09T08:11:05.000Z</time>
      </trkpt>
      <trkpt lat="44.15781" lon="6.61109">
        <ele>1291</ele>
        <time>2022-07-09T08:11:07.000Z</time>
      </trkpt>
      <trkpt lat="44.1578" lon="6.61112">
        <ele>1291.5999755859</ele>
        <time>2022-07-09T08:11:10.000Z</time>
      </trkpt>
      <trkpt lat="44.15781" lon="6.61116">
        <ele>1292.5999755859</ele>
        <time>2022-07-09T08:11:15.000Z</time>
      </trkpt>
      <trkpt lat="44.15781" lon="6.61118">
        <ele>1292.8000488281</ele>
        <time>2022-07-09T08:11:16.000Z</time>
      </trkpt>
      <trkpt lat="44.15779" lon="6.61123">
        <ele>1293</ele>
        <time>2022-07-09T08:11:20.000Z</time>
      </trkpt>
      <trkpt lat="44.15779" lon="6.61124">
        <ele>1292.8000488281</ele>
        <time>2022-07-09T08:11:21.000Z</time>
      </trkpt>
      <trkpt lat="44.15778" lon="6.6113">
        <ele>1293.4000244141</ele>
        <time>2022-07-09T08:11:26.000Z</time>
      </trkpt>
      <trkpt lat="44.15778" lon="6.61131">
        <ele>1293.8000488281</ele>
        <time>2022-07-09T08:11:29.000Z</time>
      </trkpt>
      <trkpt lat="44.15778" lon="6.61134">
        <ele>1294.5999755859</ele>
        <time>2022-07-09T08:11:32.000Z</time>
      </trkpt>
      <trkpt lat="44.15779" lon="6.61135">
        <ele>1294.8000488281</ele>
        <time>2022-07-09T08:11:33.000Z</time>
      </trkpt>
      <trkpt lat="44.15779" lon="6.61136">
        <ele>1295</ele>
        <time>2022-07-09T08:11:34.000Z</time>
      </trkpt>
      <trkpt lat="44.1578" lon="6.61138">
        <ele>1295.4000244141</ele>
        <time>2022-07-09T08:11:38.000Z</time>
      </trkpt>
      <trkpt lat="44.15783" lon="6.6114">
        <ele>1295.4000244141</ele>
        <time>2022-07-09T08:11:44.000Z</time>
      </trkpt>
      <trkpt lat="44.15788" lon="6.61147">
        <ele>1295.8000488281</ele>
        <time>2022-07-09T08:11:49.000Z</time>
      </trkpt>
      <trkpt lat="44.15788" lon="6.61148">
        <ele>1296.1999511719</ele>
        <time>2022-07-09T08:11:50.000Z</time>
      </trkpt>
      <trkpt lat="44.15791" lon="6.61153">
        <ele>1297.1999511719</ele>
        <time>2022-07-09T08:11:54.000Z</time>
      </trkpt>
      <trkpt lat="44.15791" lon="6.61154">
        <ele>1297.4000244141</ele>
        <time>2022-07-09T08:11:55.000Z</time>
      </trkpt>
      <trkpt lat="44.15798" lon="6.61158">
        <ele>1298.1999511719</ele>
        <time>2022-07-09T08:12:00.000Z</time>
      </trkpt>
      <trkpt lat="44.158" lon="6.61158">
        <ele>1298.1999511719</ele>
        <time>2022-07-09T08:12:01.000Z</time>
      </trkpt>
      <trkpt lat="44.1581" lon="6.61161">
        <ele>1299.1999511719</ele>
        <time>2022-07-09T08:12:09.000Z</time>
      </trkpt>
      <trkpt lat="44.1581" lon="6.61162">
        <ele>1299.4000244141</ele>
        <time>2022-07-09T08:12:10.000Z</time>
      </trkpt>
      <trkpt lat="44.15813" lon="6.61163">
        <ele>1299.8000488281</ele>
        <time>2022-07-09T08:12:13.000Z</time>
      </trkpt>
      <trkpt lat="44.15814" lon="6.61166">
        <ele>1300.1999511719</ele>
        <time>2022-07-09T08:12:15.000Z</time>
      </trkpt>
      <trkpt lat="44.15816" lon="6.61168">
        <ele>1300.8000488281</ele>
        <time>2022-07-09T08:12:17.000Z</time>
      </trkpt>
      <trkpt lat="44.15818" lon="6.61172">
        <ele>1301.1999511719</ele>
        <time>2022-07-09T08:12:21.000Z</time>
      </trkpt>
      <trkpt lat="44.15818" lon="6.61175">
        <ele>1301.5999755859</ele>
        <time>2022-07-09T08:12:23.000Z</time>
      </trkpt>
      <trkpt lat="44.15819" lon="6.61177">
        <ele>1302</ele>
        <time>2022-07-09T08:12:25.000Z</time>
      </trkpt>
      <trkpt lat="44.15819" lon="6.6118">
        <ele>1302.4000244141</ele>
        <time>2022-07-09T08:12:27.000Z</time>
      </trkpt>
      <trkpt lat="44.1582" lon="6.61181">
        <ele>1302.8000488281</ele>
        <time>2022-07-09T08:12:28.000Z</time>
      </trkpt>
      <trkpt lat="44.1582" lon="6.61182">
        <ele>1303</ele>
        <time>2022-07-09T08:12:29.000Z</time>
      </trkpt>
      <trkpt lat="44.15821" lon="6.61188">
        <ele>1303.5999755859</ele>
        <time>2022-07-09T08:12:33.000Z</time>
      </trkpt>
      <trkpt lat="44.15826" lon="6.61195">
        <ele>1304.5999755859</ele>
        <time>2022-07-09T08:12:39.000Z</time>
      </trkpt>
      <trkpt lat="44.15832" lon="6.61198">
        <ele>1305.4000244141</ele>
        <time>2022-07-09T08:12:45.000Z</time>
      </trkpt>
      <trkpt lat="44.15833" lon="6.61199">
        <ele>1305.8000488281</ele>
        <time>2022-07-09T08:12:47.000Z</time>
      </trkpt>
      <trkpt lat="44.15836" lon="6.61203">
        <ele>1306.4000244141</ele>
        <time>2022-07-09T08:12:51.000Z</time>
      </trkpt>
      <trkpt lat="44.1584" lon="6.61205">
        <ele>1306.8000488281</ele>
        <time>2022-07-09T08:12:54.000Z</time>
      </trkpt>
      <trkpt lat="44.15844" lon="6.61209">
        <ele>1307.1999511719</ele>
        <time>2022-07-09T08:12:58.000Z</time>
      </trkpt>
      <trkpt lat="44.15856" lon="6.61216">
        <ele>1307.4000244141</ele>
        <time>2022-07-09T08:13:04.000Z</time>
      </trkpt>
      <trkpt lat="44.15874" lon="6.61224">
        <ele>1306.1999511719</ele>
        <time>2022-07-09T08:13:09.000Z</time>
      </trkpt>
      <trkpt lat="44.15881" lon="6.61226">
        <ele>1305.5999755859</ele>
        <time>2022-07-09T08:13:11.000Z</time>
      </trkpt>
      <trkpt lat="44.15891" lon="6.61228">
        <ele>1305.5999755859</ele>
        <time>2022-07-09T08:13:14.000Z</time>
      </trkpt>
      <trkpt lat="44.15903" lon="6.61232">
        <ele>1306.4000244141</ele>
        <time>2022-07-09T08:13:19.000Z</time>
      </trkpt>
      <trkpt lat="44.15908" lon="6.61236">
        <ele>1306.8000488281</ele>
        <time>2022-07-09T08:13:21.000Z</time>
      </trkpt>
      <trkpt lat="44.15913" lon="6.61244">
        <ele>1307</ele>
        <time>2022-07-09T08:13:24.000Z</time>
      </trkpt>
      <trkpt lat="44.15917" lon="6.61259">
        <ele>1307.5999755859</ele>
        <time>2022-07-09T08:13:29.000Z</time>
      </trkpt>
      <trkpt lat="44.15919" lon="6.61266">
        <ele>1307.8000488281</ele>
        <time>2022-07-09T08:13:31.000Z</time>
      </trkpt>
      <trkpt lat="44.15922" lon="6.61278">
        <ele>1307.8000488281</ele>
        <time>2022-07-09T08:13:34.000Z</time>
      </trkpt>
      <trkpt lat="44.15927" lon="6.61303">
        <ele>1307.5999755859</ele>
        <time>2022-07-09T08:13:40.000Z</time>
      </trkpt>
      <trkpt lat="44.15929" lon="6.6132">
        <ele>1309</ele>
        <time>2022-07-09T08:13:46.000Z</time>
      </trkpt>
      <trkpt lat="44.15931" lon="6.61328">
        <ele>1310</ele>
        <time>2022-07-09T08:13:50.000Z</time>
      </trkpt>
      <trkpt lat="44.15933" lon="6.61333">
        <ele>1310.5999755859</ele>
        <time>2022-07-09T08:13:53.000Z</time>
      </trkpt>
      <trkpt lat="44.15936" lon="6.61339">
        <ele>1311</ele>
        <time>2022-07-09T08:13:56.000Z</time>
      </trkpt>
      <trkpt lat="44.15943" lon="6.61352">
        <ele>1311.5999755859</ele>
        <time>2022-07-09T08:14:03.000Z</time>
      </trkpt>
      <trkpt lat="44.15947" lon="6.61357">
        <ele>1312.1999511719</ele>
        <time>2022-07-09T08:14:06.000Z</time>
      </trkpt>
      <trkpt lat="44.15952" lon="6.61363">
        <ele>1312.8000488281</ele>
        <time>2022-07-09T08:14:10.000Z</time>
      </trkpt>
      <trkpt lat="44.15955" lon="6.61368">
        <ele>1313.1999511719</ele>
        <time>2022-07-09T08:14:13.000Z</time>
      </trkpt>
      <trkpt lat="44.15959" lon="6.61374">
        <ele>1313.5999755859</ele>
        <time>2022-07-09T08:14:16.000Z</time>
      </trkpt>
      <trkpt lat="44.1596" lon="6.61375">
        <ele>1313.8000488281</ele>
        <time>2022-07-09T08:14:17.000Z</time>
      </trkpt>
      <trkpt lat="44.15963" lon="6.61382">
        <ele>1314</ele>
        <time>2022-07-09T08:14:20.000Z</time>
      </trkpt>
      <trkpt lat="44.15969" lon="6.61392">
        <ele>1314.4000244141</ele>
        <time>2022-07-09T08:14:25.000Z</time>
      </trkpt>
      <trkpt lat="44.15972" lon="6.61398">
        <ele>1314.5999755859</ele>
        <time>2022-07-09T08:14:28.000Z</time>
      </trkpt>
      <trkpt lat="44.15982" lon="6.61417">
        <ele>1315.1999511719</ele>
        <time>2022-07-09T08:14:36.000Z</time>
      </trkpt>
      <trkpt lat="44.15987" lon="6.61426">
        <ele>1315.4000244141</ele>
        <time>2022-07-09T08:14:41.000Z</time>
      </trkpt>
      <trkpt lat="44.15988" lon="6.61428">
        <ele>1315.4000244141</ele>
        <time>2022-07-09T08:14:42.000Z</time>
      </trkpt>
      <trkpt lat="44.15992" lon="6.61433">
        <ele>1316.5999755859</ele>
        <time>2022-07-09T08:14:46.000Z</time>
      </trkpt>
      <trkpt lat="44.15994" lon="6.61438">
        <ele>1317</ele>
        <time>2022-07-09T08:14:49.000Z</time>
      </trkpt>
      <trkpt lat="44.15991" lon="6.61442">
        <ele>1317.1999511719</ele>
        <time>2022-07-09T08:14:53.000Z</time>
      </trkpt>
      <trkpt lat="44.1599" lon="6.61442">
        <ele>1317.4000244141</ele>
        <time>2022-07-09T08:14:58.000Z</time>
      </trkpt>
      <trkpt lat="44.1599" lon="6.61444">
        <ele>1317.1999511719</ele>
        <time>2022-07-09T08:15:03.000Z</time>
      </trkpt>
      <trkpt lat="44.1599" lon="6.61445">
        <ele>1317.4000244141</ele>
        <time>2022-07-09T08:15:11.000Z</time>
      </trkpt>
      <trkpt lat="44.15989" lon="6.61445">
        <ele>1317</ele>
        <time>2022-07-09T08:15:19.000Z</time>
      </trkpt>
      <trkpt lat="44.15989" lon="6.61446">
        <ele>1317.1999511719</ele>
        <time>2022-07-09T08:15:27.000Z</time>
      </trkpt>
      <trkpt lat="44.1599" lon="6.61445">
        <ele>1317</ele>
        <time>2022-07-09T08:15:36.000Z</time>
      </trkpt>
      <trkpt lat="44.1599" lon="6.61446">
        <ele>1317.4000244141</ele>
        <time>2022-07-09T08:15:41.000Z</time>
      </trkpt>
      <trkpt lat="44.1599" lon="6.61449">
        <ele>1317.4000244141</ele>
        <time>2022-07-09T08:15:44.000Z</time>
      </trkpt>
      <trkpt lat="44.15993" lon="6.61453">
        <ele>1317.4000244141</ele>
        <time>2022-07-09T08:15:46.000Z</time>
      </trkpt>
      <trkpt lat="44.15994" lon="6.61452">
        <ele>1317.4000244141</ele>
        <time>2022-07-09T08:15:51.000Z</time>
      </trkpt>
      <trkpt lat="44.15993" lon="6.61448">
        <ele>1316.5999755859</ele>
        <time>2022-07-09T08:15:58.000Z</time>
      </trkpt>
      <trkpt lat="44.1599" lon="6.61448">
        <ele>1317</ele>
        <time>2022-07-09T08:16:05.000Z</time>
      </trkpt>
      <trkpt lat="44.15989" lon="6.61448">
        <ele>1317.1999511719</ele>
        <time>2022-07-09T08:16:14.000Z</time>
      </trkpt>
      <trkpt lat="44.15989" lon="6.61448">
        <ele>1317.4000244141</ele>
        <time>2022-07-09T08:16:20.000Z</time>
      </trkpt>
      <trkpt lat="44.15989" lon="6.6145">
        <ele>1317.1999511719</ele>
        <time>2022-07-09T08:16:30.000Z</time>
      </trkpt>
      <trkpt lat="44.15988" lon="6.61451">
        <ele>1317.1999511719</ele>
        <time>2022-07-09T08:16:34.000Z</time>
      </trkpt>
      <trkpt lat="44.15986" lon="6.61451">
        <ele>1317.1999511719</ele>
        <time>2022-07-09T08:16:36.000Z</time>
      </trkpt>
      <trkpt lat="44.15985" lon="6.61452">
        <ele>1317.5999755859</ele>
        <time>2022-07-09T08:16:38.000Z</time>
      </trkpt>
      <trkpt lat="44.15986" lon="6.61452">
        <ele>1317.8000488281</ele>
        <time>2022-07-09T08:16:41.000Z</time>
      </trkpt>
      <trkpt lat="44.15987" lon="6.61451">
        <ele>1317.4000244141</ele>
        <time>2022-07-09T08:16:48.000Z</time>
      </trkpt>
      <trkpt lat="44.15985" lon="6.61453">
        <ele>1317</ele>
        <time>2022-07-09T08:16:55.000Z</time>
      </trkpt>
      <trkpt lat="44.15985" lon="6.61452">
        <ele>1317.4000244141</ele>
        <time>2022-07-09T08:17:01.000Z</time>
      </trkpt>
      <trkpt lat="44.15985" lon="6.6145">
        <ele>1317.8000488281</ele>
        <time>2022-07-09T08:17:08.000Z</time>
      </trkpt>
      <trkpt lat="44.15985" lon="6.61451">
        <ele>1317.8000488281</ele>
        <time>2022-07-09T08:17:15.000Z</time>
      </trkpt>
      <trkpt lat="44.15985" lon="6.61451">
        <ele>1317.4000244141</ele>
        <time>2022-07-09T08:17:20.000Z</time>
      </trkpt>
      <trkpt lat="44.15985" lon="6.61452">
        <ele>1317.4000244141</ele>
        <time>2022-07-09T08:17:26.000Z</time>
      </trkpt>
      <trkpt lat="44.15985" lon="6.61454">
        <ele>1317.8000488281</ele>
        <time>2022-07-09T08:17:33.000Z</time>
      </trkpt>
      <trkpt lat="44.15985" lon="6.61454">
        <ele>1317.4000244141</ele>
        <time>2022-07-09T08:17:45.000Z</time>
      </trkpt>
      <trkpt lat="44.15984" lon="6.61453">
        <ele>1317.8000488281</ele>
        <time>2022-07-09T08:17:51.000Z</time>
      </trkpt>
      <trkpt lat="44.15985" lon="6.61453">
        <ele>1317.5999755859</ele>
        <time>2022-07-09T08:18:00.000Z</time>
      </trkpt>
      <trkpt lat="44.15987" lon="6.61452">
        <ele>1317.5999755859</ele>
        <time>2022-07-09T08:18:07.000Z</time>
      </trkpt>
      <trkpt lat="44.15988" lon="6.6145">
        <ele>1317.8000488281</ele>
        <time>2022-07-09T08:18:13.000Z</time>
      </trkpt>
      <trkpt lat="44.1599" lon="6.61449">
        <ele>1317.5999755859</ele>
        <time>2022-07-09T08:18:21.000Z</time>
      </trkpt>
      <trkpt lat="44.15995" lon="6.61448">
        <ele>1317.5999755859</ele>
        <time>2022-07-09T08:18:30.000Z</time>
      </trkpt>
      <trkpt lat="44.15996" lon="6.61452">
        <ele>1317.5999755859</ele>
        <time>2022-07-09T08:18:42.000Z</time>
      </trkpt>
      <trkpt lat="44.15991" lon="6.61458">
        <ele>1317.5999755859</ele>
        <time>2022-07-09T08:18:52.000Z</time>
      </trkpt>
      <trkpt lat="44.15993" lon="6.61459">
        <ele>1317.5999755859</ele>
        <time>2022-07-09T08:19:02.000Z</time>
      </trkpt>
      <trkpt lat="44.15994" lon="6.61458">
        <ele>1317.5999755859</ele>
        <time>2022-07-09T08:19:10.000Z</time>
      </trkpt>
      <trkpt lat="44.15997" lon="6.61455">
        <ele>1317.8000488281</ele>
        <time>2022-07-09T08:19:16.000Z</time>
      </trkpt>
      <trkpt lat="44.15998" lon="6.61453">
        <ele>1318</ele>
        <time>2022-07-09T08:19:29.000Z</time>
      </trkpt>
      <trkpt lat="44.15997" lon="6.61453">
        <ele>1318</ele>
        <time>2022-07-09T08:19:38.000Z</time>
      </trkpt>
      <trkpt lat="44.15996" lon="6.61451">
        <ele>1317.8000488281</ele>
        <time>2022-07-09T08:19:52.000Z</time>
      </trkpt>
      <trkpt lat="44.15994" lon="6.61451">
        <ele>1317.8000488281</ele>
        <time>2022-07-09T08:19:59.000Z</time>
      </trkpt>
      <trkpt lat="44.15991" lon="6.6145">
        <ele>1318</ele>
        <time>2022-07-09T08:20:05.000Z</time>
      </trkpt>
      <trkpt lat="44.1599" lon="6.61451">
        <ele>1318.1999511719</ele>
        <time>2022-07-09T08:20:08.000Z</time>
      </trkpt>
      <trkpt lat="44.15991" lon="6.61452">
        <ele>1318</ele>
        <time>2022-07-09T08:20:10.000Z</time>
      </trkpt>
      <trkpt lat="44.1599" lon="6.61453">
        <ele>1317.5999755859</ele>
        <time>2022-07-09T08:20:17.000Z</time>
      </trkpt>
      <trkpt lat="44.1599" lon="6.61453">
        <ele>1317.4000244141</ele>
        <time>2022-07-09T08:20:27.000Z</time>
      </trkpt>
      <trkpt lat="44.15991" lon="6.61454">
        <ele>1317.5999755859</ele>
        <time>2022-07-09T08:20:34.000Z</time>
      </trkpt>
      <trkpt lat="44.15991" lon="6.61449">
        <ele>1317.5999755859</ele>
        <time>2022-07-09T08:20:39.000Z</time>
      </trkpt>
      <trkpt lat="44.15991" lon="6.61446">
        <ele>1317.8000488281</ele>
        <time>2022-07-09T08:20:48.000Z</time>
      </trkpt>
      <trkpt lat="44.15993" lon="6.61446">
        <ele>1317.8000488281</ele>
        <time>2022-07-09T08:20:54.000Z</time>
      </trkpt>
      <trkpt lat="44.15993" lon="6.61446">
        <ele>1317.8000488281</ele>
        <time>2022-07-09T08:21:01.000Z</time>
      </trkpt>
      <trkpt lat="44.15993" lon="6.61446">
        <ele>1317.5999755859</ele>
        <time>2022-07-09T08:21:08.000Z</time>
      </trkpt>
      <trkpt lat="44.15992" lon="6.61445">
        <ele>1318.1999511719</ele>
        <time>2022-07-09T08:21:18.000Z</time>
      </trkpt>
      <trkpt lat="44.15993" lon="6.61445">
        <ele>1318</ele>
        <time>2022-07-09T08:21:27.000Z</time>
      </trkpt>
      <trkpt lat="44.15993" lon="6.61445">
        <ele>1318</ele>
        <time>2022-07-09T08:21:34.000Z</time>
      </trkpt>
      <trkpt lat="44.15992" lon="6.61444">
        <ele>1317.1999511719</ele>
        <time>2022-07-09T08:21:40.000Z</time>
      </trkpt>
      <trkpt lat="44.15992" lon="6.61443">
        <ele>1317.4000244141</ele>
        <time>2022-07-09T08:21:41.000Z</time>
      </trkpt>
      <trkpt lat="44.15989" lon="6.6144">
        <ele>1317.8000488281</ele>
        <time>2022-07-09T08:21:47.000Z</time>
      </trkpt>
      <trkpt lat="44.15983" lon="6.61434">
        <ele>1318.1999511719</ele>
        <time>2022-07-09T08:21:53.000Z</time>
      </trkpt>
      <trkpt lat="44.15976" lon="6.61428">
        <ele>1318.5999755859</ele>
        <time>2022-07-09T08:21:58.000Z</time>
      </trkpt>
      <trkpt lat="44.15975" lon="6.61426">
        <ele>1318.8000488281</ele>
        <time>2022-07-09T08:21:59.000Z</time>
      </trkpt>
      <trkpt lat="44.15964" lon="6.61418">
        <ele>1319.8000488281</ele>
        <time>2022-07-09T08:22:06.000Z</time>
      </trkpt>
      <trkpt lat="44.15956" lon="6.6141">
        <ele>1320.8000488281</ele>
        <time>2022-07-09T08:22:12.000Z</time>
      </trkpt>
      <trkpt lat="44.15955" lon="6.61409">
        <ele>1321</ele>
        <time>2022-07-09T08:22:13.000Z</time>
      </trkpt>
      <trkpt lat="44.15947" lon="6.61401">
        <ele>1322</ele>
        <time>2022-07-09T08:22:19.000Z</time>
      </trkpt>
      <trkpt lat="44.15944" lon="6.61398">
        <ele>1322.4000244141</ele>
        <time>2022-07-09T08:22:21.000Z</time>
      </trkpt>
      <trkpt lat="44.1594" lon="6.61393">
        <ele>1323</ele>
        <time>2022-07-09T08:22:24.000Z</time>
      </trkpt>
      <trkpt lat="44.15932" lon="6.61384">
        <ele>1324</ele>
        <time>2022-07-09T08:22:30.000Z</time>
      </trkpt>
      <trkpt lat="44.15927" lon="6.61375">
        <ele>1325</ele>
        <time>2022-07-09T08:22:35.000Z</time>
      </trkpt>
      <trkpt lat="44.15923" lon="6.61371">
        <ele>1325.5999755859</ele>
        <time>2022-07-09T08:22:38.000Z</time>
      </trkpt>
      <trkpt lat="44.1592" lon="6.61367">
        <ele>1326.1999511719</ele>
        <time>2022-07-09T08:22:40.000Z</time>
      </trkpt>
      <trkpt lat="44.15912" lon="6.61357">
        <ele>1327.4000244141</ele>
        <time>2022-07-09T08:22:47.000Z</time>
      </trkpt>
      <trkpt lat="44.15903" lon="6.61348">
        <ele>1328.4000244141</ele>
        <time>2022-07-09T08:22:54.000Z</time>
      </trkpt>
      <trkpt lat="44.159" lon="6.61345">
        <ele>1328.5999755859</ele>
        <time>2022-07-09T08:22:56.000Z</time>
      </trkpt>
      <trkpt lat="44.15896" lon="6.61343">
        <ele>1329</ele>
        <time>2022-07-09T08:22:59.000Z</time>
      </trkpt>
      <trkpt lat="44.15893" lon="6.61341">
        <ele>1329.4000244141</ele>
        <time>2022-07-09T08:23:01.000Z</time>
      </trkpt>
      <trkpt lat="44.15892" lon="6.6134">
        <ele>1329.4000244141</ele>
        <time>2022-07-09T08:23:02.000Z</time>
      </trkpt>
      <trkpt lat="44.15884" lon="6.61332">
        <ele>1330</ele>
        <time>2022-07-09T08:23:07.000Z</time>
      </trkpt>
      <trkpt lat="44.15883" lon="6.61331">
        <ele>1330.1999511719</ele>
        <time>2022-07-09T08:23:08.000Z</time>
      </trkpt>
      <trkpt lat="44.15881" lon="6.61328">
        <ele>1330.4000244141</ele>
        <time>2022-07-09T08:23:10.000Z</time>
      </trkpt>
      <trkpt lat="44.15874" lon="6.61319">
        <ele>1331.4000244141</ele>
        <time>2022-07-09T08:23:16.000Z</time>
      </trkpt>
      <trkpt lat="44.15873" lon="6.61317">
        <ele>1331.5999755859</ele>
        <time>2022-07-09T08:23:17.000Z</time>
      </trkpt>
      <trkpt lat="44.15866" lon="6.61309">
        <ele>1332.8000488281</ele>
        <time>2022-07-09T08:23:23.000Z</time>
      </trkpt>
      <trkpt lat="44.15856" lon="6.61306">
        <ele>1333.8000488281</ele>
        <time>2022-07-09T08:23:30.000Z</time>
      </trkpt>
      <trkpt lat="44.15853" lon="6.61306">
        <ele>1334</ele>
        <time>2022-07-09T08:23:32.000Z</time>
      </trkpt>
      <trkpt lat="44.15845" lon="6.61307">
        <ele>1334.8000488281</ele>
        <time>2022-07-09T08:23:37.000Z</time>
      </trkpt>
      <trkpt lat="44.15843" lon="6.61308">
        <ele>1335</ele>
        <time>2022-07-09T08:23:39.000Z</time>
      </trkpt>
      <trkpt lat="44.15833" lon="6.61313">
        <ele>1336</ele>
        <time>2022-07-09T08:23:46.000Z</time>
      </trkpt>
      <trkpt lat="44.15825" lon="6.6132">
        <ele>1337.1999511719</ele>
        <time>2022-07-09T08:23:53.000Z</time>
      </trkpt>
      <trkpt lat="44.15818" lon="6.6133">
        <ele>1337.8000488281</ele>
        <time>2022-07-09T08:23:59.000Z</time>
      </trkpt>
      <trkpt lat="44.15814" lon="6.61331">
        <ele>1338.1999511719</ele>
        <time>2022-07-09T08:24:01.000Z</time>
      </trkpt>
      <trkpt lat="44.15808" lon="6.61332">
        <ele>1339</ele>
        <time>2022-07-09T08:24:05.000Z</time>
      </trkpt>
      <trkpt lat="44.15805" lon="6.61332">
        <ele>1339.1999511719</ele>
        <time>2022-07-09T08:24:07.000Z</time>
      </trkpt>
      <trkpt lat="44.15797" lon="6.61331">
        <ele>1339.8000488281</ele>
        <time>2022-07-09T08:24:12.000Z</time>
      </trkpt>
      <trkpt lat="44.15793" lon="6.6133">
        <ele>1340.1999511719</ele>
        <time>2022-07-09T08:24:15.000Z</time>
      </trkpt>
      <trkpt lat="44.15784" lon="6.61326">
        <ele>1341</ele>
        <time>2022-07-09T08:24:21.000Z</time>
      </trkpt>
      <trkpt lat="44.15782" lon="6.61325">
        <ele>1341.4000244141</ele>
        <time>2022-07-09T08:24:23.000Z</time>
      </trkpt>
      <trkpt lat="44.15775" lon="6.61321">
        <ele>1342.4000244141</ele>
        <time>2022-07-09T08:24:28.000Z</time>
      </trkpt>
      <trkpt lat="44.15773" lon="6.61319">
        <ele>1342.8000488281</ele>
        <time>2022-07-09T08:24:30.000Z</time>
      </trkpt>
      <trkpt lat="44.15771" lon="6.61318">
        <ele>1343.1999511719</ele>
        <time>2022-07-09T08:24:32.000Z</time>
      </trkpt>
      <trkpt lat="44.15769" lon="6.61317">
        <ele>1343.5999755859</ele>
        <time>2022-07-09T08:24:34.000Z</time>
      </trkpt>
      <trkpt lat="44.15766" lon="6.61316">
        <ele>1343.8000488281</ele>
        <time>2022-07-09T08:24:36.000Z</time>
      </trkpt>
      <trkpt lat="44.15761" lon="6.61313">
        <ele>1344.5999755859</ele>
        <time>2022-07-09T08:24:41.000Z</time>
      </trkpt>
      <trkpt lat="44.15757" lon="6.61312">
        <ele>1345</ele>
        <time>2022-07-09T08:24:44.000Z</time>
      </trkpt>
      <trkpt lat="44.15751" lon="6.61311">
        <ele>1345.5999755859</ele>
        <time>2022-07-09T08:24:49.000Z</time>
      </trkpt>
      <trkpt lat="44.15744" lon="6.61311">
        <ele>1346.1999511719</ele>
        <time>2022-07-09T08:24:54.000Z</time>
      </trkpt>
      <trkpt lat="44.15739" lon="6.61311">
        <ele>1346.5999755859</ele>
        <time>2022-07-09T08:24:58.000Z</time>
      </trkpt>
      <trkpt lat="44.15732" lon="6.61309">
        <ele>1347.1999511719</ele>
        <time>2022-07-09T08:25:03.000Z</time>
      </trkpt>
      <trkpt lat="44.15725" lon="6.61305">
        <ele>1347.8000488281</ele>
        <time>2022-07-09T08:25:08.000Z</time>
      </trkpt>
      <trkpt lat="44.15721" lon="6.61302">
        <ele>1348.4000244141</ele>
        <time>2022-07-09T08:25:11.000Z</time>
      </trkpt>
      <trkpt lat="44.15717" lon="6.61298">
        <ele>1348.8000488281</ele>
        <time>2022-07-09T08:25:14.000Z</time>
      </trkpt>
      <trkpt lat="44.15714" lon="6.61289">
        <ele>1349.5999755859</ele>
        <time>2022-07-09T08:25:19.000Z</time>
      </trkpt>
      <trkpt lat="44.15711" lon="6.61283">
        <ele>1350</ele>
        <time>2022-07-09T08:25:22.000Z</time>
      </trkpt>
      <trkpt lat="44.15708" lon="6.61274">
        <ele>1351</ele>
        <time>2022-07-09T08:25:27.000Z</time>
      </trkpt>
      <trkpt lat="44.15707" lon="6.6127">
        <ele>1351.4000244141</ele>
        <time>2022-07-09T08:25:29.000Z</time>
      </trkpt>
      <trkpt lat="44.157" lon="6.61256">
        <ele>1352</ele>
        <time>2022-07-09T08:25:36.000Z</time>
      </trkpt>
      <trkpt lat="44.15699" lon="6.61254">
        <ele>1352.1999511719</ele>
        <time>2022-07-09T08:25:37.000Z</time>
      </trkpt>
      <trkpt lat="44.15692" lon="6.61243">
        <ele>1352.8000488281</ele>
        <time>2022-07-09T08:25:42.000Z</time>
      </trkpt>
      <trkpt lat="44.15686" lon="6.61231">
        <ele>1353.1999511719</ele>
        <time>2022-07-09T08:25:47.000Z</time>
      </trkpt>
      <trkpt lat="44.15683" lon="6.61227">
        <ele>1353.4000244141</ele>
        <time>2022-07-09T08:25:49.000Z</time>
      </trkpt>
      <trkpt lat="44.15672" lon="6.61225">
        <ele>1354.1999511719</ele>
        <time>2022-07-09T08:25:55.000Z</time>
      </trkpt>
      <trkpt lat="44.15669" lon="6.61226">
        <ele>1354.1999511719</ele>
        <time>2022-07-09T08:25:57.000Z</time>
      </trkpt>
      <trkpt lat="44.15662" lon="6.61229">
        <ele>1355</ele>
        <time>2022-07-09T08:26:01.000Z</time>
      </trkpt>
      <trkpt lat="44.15659" lon="6.61231">
        <ele>1355.4000244141</ele>
        <time>2022-07-09T08:26:03.000Z</time>
      </trkpt>
      <trkpt lat="44.15652" lon="6.61237">
        <ele>1356.1999511719</ele>
        <time>2022-07-09T08:26:08.000Z</time>
      </trkpt>
      <trkpt lat="44.15647" lon="6.61239">
        <ele>1356.4000244141</ele>
        <time>2022-07-09T08:26:11.000Z</time>
      </trkpt>
      <trkpt lat="44.15642" lon="6.6124">
        <ele>1356.8000488281</ele>
        <time>2022-07-09T08:26:14.000Z</time>
      </trkpt>
      <trkpt lat="44.15632" lon="6.61241">
        <ele>1357.4000244141</ele>
        <time>2022-07-09T08:26:19.000Z</time>
      </trkpt>
      <trkpt lat="44.15631" lon="6.61241">
        <ele>1357.5999755859</ele>
        <time>2022-07-09T08:26:20.000Z</time>
      </trkpt>
      <trkpt lat="44.1562" lon="6.61236">
        <ele>1358.5999755859</ele>
        <time>2022-07-09T08:26:26.000Z</time>
      </trkpt>
      <trkpt lat="44.15618" lon="6.61235">
        <ele>1358.5999755859</ele>
        <time>2022-07-09T08:26:27.000Z</time>
      </trkpt>
      <trkpt lat="44.1561" lon="6.61232">
        <ele>1359.5999755859</ele>
        <time>2022-07-09T08:26:33.000Z</time>
      </trkpt>
      <trkpt lat="44.15606" lon="6.61231">
        <ele>1360.1999511719</ele>
        <time>2022-07-09T08:26:36.000Z</time>
      </trkpt>
      <trkpt lat="44.15602" lon="6.61232">
        <ele>1360.5999755859</ele>
        <time>2022-07-09T08:26:39.000Z</time>
      </trkpt>
      <trkpt lat="44.15597" lon="6.61235">
        <ele>1360.8000488281</ele>
        <time>2022-07-09T08:26:43.000Z</time>
      </trkpt>
      <trkpt lat="44.15596" lon="6.61245">
        <ele>1361.1999511719</ele>
        <time>2022-07-09T08:26:48.000Z</time>
      </trkpt>
      <trkpt lat="44.15604" lon="6.61252">
        <ele>1361.1999511719</ele>
        <time>2022-07-09T08:26:53.000Z</time>
      </trkpt>
      <trkpt lat="44.15605" lon="6.61254">
        <ele>1361.4000244141</ele>
        <time>2022-07-09T08:26:54.000Z</time>
      </trkpt>
      <trkpt lat="44.15614" lon="6.61257">
        <ele>1361.8000488281</ele>
        <time>2022-07-09T08:26:59.000Z</time>
      </trkpt>
      <trkpt lat="44.15621" lon="6.61258">
        <ele>1362.4000244141</ele>
        <time>2022-07-09T08:27:03.000Z</time>
      </trkpt>
      <trkpt lat="44.15627" lon="6.61258">
        <ele>1362.8000488281</ele>
        <time>2022-07-09T08:27:06.000Z</time>
      </trkpt>
      <trkpt lat="44.15637" lon="6.61259">
        <ele>1363.5999755859</ele>
        <time>2022-07-09T08:27:12.000Z</time>
      </trkpt>
      <trkpt lat="44.15639" lon="6.61259">
        <ele>1363.8000488281</ele>
        <time>2022-07-09T08:27:13.000Z</time>
      </trkpt>
      <trkpt lat="44.15651" lon="6.6126">
        <ele>1364.8000488281</ele>
        <time>2022-07-09T08:27:20.000Z</time>
      </trkpt>
      <trkpt lat="44.15662" lon="6.61265">
        <ele>1366</ele>
        <time>2022-07-09T08:27:27.000Z</time>
      </trkpt>
      <trkpt lat="44.15663" lon="6.61266">
        <ele>1366</ele>
        <time>2022-07-09T08:27:28.000Z</time>
      </trkpt>
      <trkpt lat="44.15671" lon="6.61274">
        <ele>1367</ele>
        <time>2022-07-09T08:27:34.000Z</time>
      </trkpt>
      <trkpt lat="44.15679" lon="6.61286">
        <ele>1368</ele>
        <time>2022-07-09T08:27:41.000Z</time>
      </trkpt>
      <trkpt lat="44.15686" lon="6.61301">
        <ele>1369</ele>
        <time>2022-07-09T08:27:49.000Z</time>
      </trkpt>
      <trkpt lat="44.15687" lon="6.61303">
        <ele>1369</ele>
        <time>2022-07-09T08:27:50.000Z</time>
      </trkpt>
      <trkpt lat="44.1569" lon="6.61313">
        <ele>1369.8000488281</ele>
        <time>2022-07-09T08:27:55.000Z</time>
      </trkpt>
      <trkpt lat="44.15692" lon="6.61319">
        <ele>1370.1999511719</ele>
        <time>2022-07-09T08:27:58.000Z</time>
      </trkpt>
      <trkpt lat="44.15695" lon="6.61324">
        <ele>1370.4000244141</ele>
        <time>2022-07-09T08:28:01.000Z</time>
      </trkpt>
      <trkpt lat="44.15698" lon="6.61332">
        <ele>1371.1999511719</ele>
        <time>2022-07-09T08:28:05.000Z</time>
      </trkpt>
      <trkpt lat="44.15699" lon="6.61337">
        <ele>1371.5999755859</ele>
        <time>2022-07-09T08:28:08.000Z</time>
      </trkpt>
      <trkpt lat="44.15703" lon="6.61347">
        <ele>1372.4000244141</ele>
        <time>2022-07-09T08:28:13.000Z</time>
      </trkpt>
      <trkpt lat="44.15705" lon="6.61355">
        <ele>1373</ele>
        <time>2022-07-09T08:28:18.000Z</time>
      </trkpt>
      <trkpt lat="44.15707" lon="6.61359">
        <ele>1373.4000244141</ele>
        <time>2022-07-09T08:28:20.000Z</time>
      </trkpt>
      <trkpt lat="44.15711" lon="6.61371">
        <ele>1374.1999511719</ele>
        <time>2022-07-09T08:28:27.000Z</time>
      </trkpt>
      <trkpt lat="44.15712" lon="6.61373">
        <ele>1374.4000244141</ele>
        <time>2022-07-09T08:28:28.000Z</time>
      </trkpt>
      <trkpt lat="44.15718" lon="6.61383">
        <ele>1375.4000244141</ele>
        <time>2022-07-09T08:28:35.000Z</time>
      </trkpt>
      <trkpt lat="44.1572" lon="6.61386">
        <ele>1375.8000488281</ele>
        <time>2022-07-09T08:28:37.000Z</time>
      </trkpt>
      <trkpt lat="44.15724" lon="6.61393">
        <ele>1376.4000244141</ele>
        <time>2022-07-09T08:28:42.000Z</time>
      </trkpt>
      <trkpt lat="44.15728" lon="6.61399">
        <ele>1377</ele>
        <time>2022-07-09T08:28:46.000Z</time>
      </trkpt>
      <trkpt lat="44.15733" lon="6.61406">
        <ele>1377.5999755859</ele>
        <time>2022-07-09T08:28:51.000Z</time>
      </trkpt>
      <trkpt lat="44.15738" lon="6.61413">
        <ele>1378.1999511719</ele>
        <time>2022-07-09T08:28:56.000Z</time>
      </trkpt>
      <trkpt lat="44.15742" lon="6.61415">
        <ele>1378.5999755859</ele>
        <time>2022-07-09T08:28:59.000Z</time>
      </trkpt>
      <trkpt lat="44.15748" lon="6.61419">
        <ele>1379.4000244141</ele>
        <time>2022-07-09T08:29:04.000Z</time>
      </trkpt>
      <trkpt lat="44.15751" lon="6.61421">
        <ele>1379.5999755859</ele>
        <time>2022-07-09T08:29:06.000Z</time>
      </trkpt>
      <trkpt lat="44.15759" lon="6.61427">
        <ele>1380.5999755859</ele>
        <time>2022-07-09T08:29:13.000Z</time>
      </trkpt>
      <trkpt lat="44.15761" lon="6.61428">
        <ele>1380.8000488281</ele>
        <time>2022-07-09T08:29:14.000Z</time>
      </trkpt>
      <trkpt lat="44.15771" lon="6.61435">
        <ele>1381.5999755859</ele>
        <time>2022-07-09T08:29:21.000Z</time>
      </trkpt>
      <trkpt lat="44.15772" lon="6.61436">
        <ele>1381.8000488281</ele>
        <time>2022-07-09T08:29:22.000Z</time>
      </trkpt>
      <trkpt lat="44.15782" lon="6.61441">
        <ele>1382.8000488281</ele>
        <time>2022-07-09T08:29:30.000Z</time>
      </trkpt>
      <trkpt lat="44.15783" lon="6.61442">
        <ele>1382.8000488281</ele>
        <time>2022-07-09T08:29:31.000Z</time>
      </trkpt>
      <trkpt lat="44.15794" lon="6.61446">
        <ele>1383.8000488281</ele>
        <time>2022-07-09T08:29:39.000Z</time>
      </trkpt>
      <trkpt lat="44.15796" lon="6.61446">
        <ele>1384</ele>
        <time>2022-07-09T08:29:40.000Z</time>
      </trkpt>
      <trkpt lat="44.15806" lon="6.6145">
        <ele>1385.1999511719</ele>
        <time>2022-07-09T08:29:47.000Z</time>
      </trkpt>
      <trkpt lat="44.15809" lon="6.61452">
        <ele>1385.5999755859</ele>
        <time>2022-07-09T08:29:49.000Z</time>
      </trkpt>
      <trkpt lat="44.15817" lon="6.61456">
        <ele>1386.1999511719</ele>
        <time>2022-07-09T08:29:55.000Z</time>
      </trkpt>
      <trkpt lat="44.15819" lon="6.61458">
        <ele>1386.4000244141</ele>
        <time>2022-07-09T08:29:57.000Z</time>
      </trkpt>
      <trkpt lat="44.15826" lon="6.61465">
        <ele>1387.1999511719</ele>
        <time>2022-07-09T08:30:03.000Z</time>
      </trkpt>
      <trkpt lat="44.1583" lon="6.61468">
        <ele>1387.5999755859</ele>
        <time>2022-07-09T08:30:06.000Z</time>
      </trkpt>
      <trkpt lat="44.15836" lon="6.61476">
        <ele>1388.1999511719</ele>
        <time>2022-07-09T08:30:12.000Z</time>
      </trkpt>
      <trkpt lat="44.15839" lon="6.61482">
        <ele>1389</ele>
        <time>2022-07-09T08:30:16.000Z</time>
      </trkpt>
      <trkpt lat="44.15843" lon="6.61489">
        <ele>1389.4000244141</ele>
        <time>2022-07-09T08:30:20.000Z</time>
      </trkpt>
      <trkpt lat="44.15844" lon="6.61492">
        <ele>1389.8000488281</ele>
        <time>2022-07-09T08:30:22.000Z</time>
      </trkpt>
      <trkpt lat="44.15848" lon="6.61506">
        <ele>1390.4000244141</ele>
        <time>2022-07-09T08:30:29.000Z</time>
      </trkpt>
      <trkpt lat="44.15849" lon="6.61509">
        <ele>1390.5999755859</ele>
        <time>2022-07-09T08:30:31.000Z</time>
      </trkpt>
      <trkpt lat="44.15851" lon="6.61521">
        <ele>1391.5999755859</ele>
        <time>2022-07-09T08:30:37.000Z</time>
      </trkpt>
      <trkpt lat="44.15852" lon="6.61531">
        <ele>1392.1999511719</ele>
        <time>2022-07-09T08:30:42.000Z</time>
      </trkpt>
      <trkpt lat="44.15852" lon="6.61537">
        <ele>1392.5999755859</ele>
        <time>2022-07-09T08:30:45.000Z</time>
      </trkpt>
      <trkpt lat="44.15852" lon="6.61547">
        <ele>1393.4000244141</ele>
        <time>2022-07-09T08:30:50.000Z</time>
      </trkpt>
      <trkpt lat="44.15852" lon="6.61555">
        <ele>1393.5999755859</ele>
        <time>2022-07-09T08:30:54.000Z</time>
      </trkpt>
      <trkpt lat="44.15852" lon="6.61561">
        <ele>1394.1999511719</ele>
        <time>2022-07-09T08:30:57.000Z</time>
      </trkpt>
      <trkpt lat="44.15853" lon="6.61565">
        <ele>1394.8000488281</ele>
        <time>2022-07-09T08:31:00.000Z</time>
      </trkpt>
      <trkpt lat="44.15854" lon="6.61569">
        <ele>1395</ele>
        <time>2022-07-09T08:31:02.000Z</time>
      </trkpt>
      <trkpt lat="44.15856" lon="6.61579">
        <ele>1395.8000488281</ele>
        <time>2022-07-09T08:31:08.000Z</time>
      </trkpt>
      <trkpt lat="44.15861" lon="6.61592">
        <ele>1397</ele>
        <time>2022-07-09T08:31:16.000Z</time>
      </trkpt>
      <trkpt lat="44.15862" lon="6.61596">
        <ele>1397.4000244141</ele>
        <time>2022-07-09T08:31:18.000Z</time>
      </trkpt>
      <trkpt lat="44.15865" lon="6.61608">
        <ele>1398.1999511719</ele>
        <time>2022-07-09T08:31:25.000Z</time>
      </trkpt>
      <trkpt lat="44.15865" lon="6.61611">
        <ele>1398.4000244141</ele>
        <time>2022-07-09T08:31:27.000Z</time>
      </trkpt>
      <trkpt lat="44.15864" lon="6.61622">
        <ele>1399.1999511719</ele>
        <time>2022-07-09T08:31:33.000Z</time>
      </trkpt>
      <trkpt lat="44.15864" lon="6.61628">
        <ele>1399.5999755859</ele>
        <time>2022-07-09T08:31:36.000Z</time>
      </trkpt>
      <trkpt lat="44.15862" lon="6.61636">
        <ele>1400.4000244141</ele>
        <time>2022-07-09T08:31:41.000Z</time>
      </trkpt>
      <trkpt lat="44.1586" lon="6.61641">
        <ele>1400.8000488281</ele>
        <time>2022-07-09T08:31:44.000Z</time>
      </trkpt>
      <trkpt lat="44.15857" lon="6.6165">
        <ele>1401.5999755859</ele>
        <time>2022-07-09T08:31:50.000Z</time>
      </trkpt>
      <trkpt lat="44.15856" lon="6.61652">
        <ele>1401.5999755859</ele>
        <time>2022-07-09T08:31:51.000Z</time>
      </trkpt>
      <trkpt lat="44.15853" lon="6.61662">
        <ele>1402.5999755859</ele>
        <time>2022-07-09T08:31:57.000Z</time>
      </trkpt>
      <trkpt lat="44.15853" lon="6.61664">
        <ele>1402.5999755859</ele>
        <time>2022-07-09T08:31:58.000Z</time>
      </trkpt>
      <trkpt lat="44.15852" lon="6.61673">
        <ele>1403.8000488281</ele>
        <time>2022-07-09T08:32:04.000Z</time>
      </trkpt>
      <trkpt lat="44.15852" lon="6.61677">
        <ele>1404</ele>
        <time>2022-07-09T08:32:06.000Z</time>
      </trkpt>
      <trkpt lat="44.15853" lon="6.61687">
        <ele>1404.8000488281</ele>
        <time>2022-07-09T08:32:12.000Z</time>
      </trkpt>
      <trkpt lat="44.15853" lon="6.6169">
        <ele>1405</ele>
        <time>2022-07-09T08:32:14.000Z</time>
      </trkpt>
      <trkpt lat="44.15856" lon="6.61702">
        <ele>1405.8000488281</ele>
        <time>2022-07-09T08:32:21.000Z</time>
      </trkpt>
      <trkpt lat="44.1586" lon="6.61715">
        <ele>1406.8000488281</ele>
        <time>2022-07-09T08:32:29.000Z</time>
      </trkpt>
      <trkpt lat="44.15861" lon="6.61716">
        <ele>1406.8000488281</ele>
        <time>2022-07-09T08:32:30.000Z</time>
      </trkpt>
      <trkpt lat="44.15866" lon="6.61723">
        <ele>1407.5999755859</ele>
        <time>2022-07-09T08:32:35.000Z</time>
      </trkpt>
      <trkpt lat="44.15868" lon="6.61725">
        <ele>1407.8000488281</ele>
        <time>2022-07-09T08:32:37.000Z</time>
      </trkpt>
      <trkpt lat="44.15874" lon="6.6173">
        <ele>1408.5999755859</ele>
        <time>2022-07-09T08:32:43.000Z</time>
      </trkpt>
      <trkpt lat="44.15875" lon="6.61731">
        <ele>1408.8000488281</ele>
        <time>2022-07-09T08:32:44.000Z</time>
      </trkpt>
      <trkpt lat="44.15884" lon="6.61734">
        <ele>1409.4000244141</ele>
        <time>2022-07-09T08:32:51.000Z</time>
      </trkpt>
      <trkpt lat="44.15887" lon="6.61736">
        <ele>1409.8000488281</ele>
        <time>2022-07-09T08:32:54.000Z</time>
      </trkpt>
      <trkpt lat="44.15894" lon="6.61739">
        <ele>1410.4000244141</ele>
        <time>2022-07-09T08:33:00.000Z</time>
      </trkpt>
      <trkpt lat="44.15899" lon="6.61742">
        <ele>1411</ele>
        <time>2022-07-09T08:33:04.000Z</time>
      </trkpt>
      <trkpt lat="44.15902" lon="6.61747">
        <ele>1411.5999755859</ele>
        <time>2022-07-09T08:33:08.000Z</time>
      </trkpt>
      <trkpt lat="44.15908" lon="6.6175">
        <ele>1412</ele>
        <time>2022-07-09T08:33:13.000Z</time>
      </trkpt>
      <trkpt lat="44.15911" lon="6.61755">
        <ele>1412.4000244141</ele>
        <time>2022-07-09T08:33:17.000Z</time>
      </trkpt>
      <trkpt lat="44.15919" lon="6.61763">
        <ele>1413</ele>
        <time>2022-07-09T08:33:24.000Z</time>
      </trkpt>
      <trkpt lat="44.1592" lon="6.61764">
        <ele>1413</ele>
        <time>2022-07-09T08:33:25.000Z</time>
      </trkpt>
      <trkpt lat="44.15927" lon="6.61773">
        <ele>1414</ele>
        <time>2022-07-09T08:33:33.000Z</time>
      </trkpt>
      <trkpt lat="44.15928" lon="6.61774">
        <ele>1414.1999511719</ele>
        <time>2022-07-09T08:33:34.000Z</time>
      </trkpt>
      <trkpt lat="44.15934" lon="6.61783">
        <ele>1415</ele>
        <time>2022-07-09T08:33:41.000Z</time>
      </trkpt>
      <trkpt lat="44.1594" lon="6.61794">
        <ele>1416</ele>
        <time>2022-07-09T08:33:49.000Z</time>
      </trkpt>
      <trkpt lat="44.1594" lon="6.61795">
        <ele>1416.1999511719</ele>
        <time>2022-07-09T08:33:50.000Z</time>
      </trkpt>
      <trkpt lat="44.15945" lon="6.61806">
        <ele>1417.1999511719</ele>
        <time>2022-07-09T08:33:58.000Z</time>
      </trkpt>
      <trkpt lat="44.15949" lon="6.61816">
        <ele>1418.1999511719</ele>
        <time>2022-07-09T08:34:05.000Z</time>
      </trkpt>
      <trkpt lat="44.1595" lon="6.61818">
        <ele>1418.4000244141</ele>
        <time>2022-07-09T08:34:06.000Z</time>
      </trkpt>
      <trkpt lat="44.15952" lon="6.61822">
        <ele>1418.8000488281</ele>
        <time>2022-07-09T08:34:09.000Z</time>
      </trkpt>
      <trkpt lat="44.15954" lon="6.61828">
        <ele>1419.1999511719</ele>
        <time>2022-07-09T08:34:13.000Z</time>
      </trkpt>
      <trkpt lat="44.15954" lon="6.6183">
        <ele>1419.5999755859</ele>
        <time>2022-07-09T08:34:14.000Z</time>
      </trkpt>
      <trkpt lat="44.15957" lon="6.61838">
        <ele>1420.1999511719</ele>
        <time>2022-07-09T08:34:19.000Z</time>
      </trkpt>
      <trkpt lat="44.15961" lon="6.61846">
        <ele>1420.5999755859</ele>
        <time>2022-07-09T08:34:24.000Z</time>
      </trkpt>
      <trkpt lat="44.15963" lon="6.6185">
        <ele>1421</ele>
        <time>2022-07-09T08:34:27.000Z</time>
      </trkpt>
      <trkpt lat="44.15966" lon="6.61857">
        <ele>1421.8000488281</ele>
        <time>2022-07-09T08:34:32.000Z</time>
      </trkpt>
      <trkpt lat="44.15968" lon="6.6186">
        <ele>1422</ele>
        <time>2022-07-09T08:34:34.000Z</time>
      </trkpt>
      <trkpt lat="44.15972" lon="6.61866">
        <ele>1422.8000488281</ele>
        <time>2022-07-09T08:34:39.000Z</time>
      </trkpt>
      <trkpt lat="44.15975" lon="6.6187">
        <ele>1423.1999511719</ele>
        <time>2022-07-09T08:34:43.000Z</time>
      </trkpt>
      <trkpt lat="44.15979" lon="6.61875">
        <ele>1423.8000488281</ele>
        <time>2022-07-09T08:34:47.000Z</time>
      </trkpt>
      <trkpt lat="44.15983" lon="6.61879">
        <ele>1424.5999755859</ele>
        <time>2022-07-09T08:34:51.000Z</time>
      </trkpt>
      <trkpt lat="44.15985" lon="6.61883">
        <ele>1425</ele>
        <time>2022-07-09T08:34:54.000Z</time>
      </trkpt>
      <trkpt lat="44.15989" lon="6.61889">
        <ele>1425.8000488281</ele>
        <time>2022-07-09T08:34:59.000Z</time>
      </trkpt>
      <trkpt lat="44.15991" lon="6.61892">
        <ele>1426</ele>
        <time>2022-07-09T08:35:01.000Z</time>
      </trkpt>
      <trkpt lat="44.15994" lon="6.61898">
        <ele>1426.5999755859</ele>
        <time>2022-07-09T08:35:05.000Z</time>
      </trkpt>
      <trkpt lat="44.15997" lon="6.61904">
        <ele>1427</ele>
        <time>2022-07-09T08:35:09.000Z</time>
      </trkpt>
      <trkpt lat="44.16" lon="6.61911">
        <ele>1427.8000488281</ele>
        <time>2022-07-09T08:35:13.000Z</time>
      </trkpt>
      <trkpt lat="44.16004" lon="6.6192">
        <ele>1428.1999511719</ele>
        <time>2022-07-09T08:35:19.000Z</time>
      </trkpt>
      <trkpt lat="44.16006" lon="6.61925">
        <ele>1428.5999755859</ele>
        <time>2022-07-09T08:35:22.000Z</time>
      </trkpt>
      <trkpt lat="44.16008" lon="6.61929">
        <ele>1429.1999511719</ele>
        <time>2022-07-09T08:35:25.000Z</time>
      </trkpt>
      <trkpt lat="44.16014" lon="6.61939">
        <ele>1430</ele>
        <time>2022-07-09T08:35:32.000Z</time>
      </trkpt>
      <trkpt lat="44.16015" lon="6.6194">
        <ele>1430.1999511719</ele>
        <time>2022-07-09T08:35:33.000Z</time>
      </trkpt>
      <trkpt lat="44.16021" lon="6.61947">
        <ele>1430.8000488281</ele>
        <time>2022-07-09T08:35:39.000Z</time>
      </trkpt>
      <trkpt lat="44.16024" lon="6.61951">
        <ele>1431.1999511719</ele>
        <time>2022-07-09T08:35:42.000Z</time>
      </trkpt>
      <trkpt lat="44.16029" lon="6.61956">
        <ele>1431.8000488281</ele>
        <time>2022-07-09T08:35:47.000Z</time>
      </trkpt>
      <trkpt lat="44.16035" lon="6.61961">
        <ele>1432.4000244141</ele>
        <time>2022-07-09T08:35:52.000Z</time>
      </trkpt>
      <trkpt lat="44.16039" lon="6.61963">
        <ele>1432.8000488281</ele>
        <time>2022-07-09T08:35:55.000Z</time>
      </trkpt>
      <trkpt lat="44.16045" lon="6.61967">
        <ele>1433.4000244141</ele>
        <time>2022-07-09T08:36:00.000Z</time>
      </trkpt>
      <trkpt lat="44.16049" lon="6.61969">
        <ele>1433.8000488281</ele>
        <time>2022-07-09T08:36:03.000Z</time>
      </trkpt>
      <trkpt lat="44.16055" lon="6.61971">
        <ele>1434.4000244141</ele>
        <time>2022-07-09T08:36:08.000Z</time>
      </trkpt>
      <trkpt lat="44.1606" lon="6.61974">
        <ele>1434.8000488281</ele>
        <time>2022-07-09T08:36:12.000Z</time>
      </trkpt>
      <trkpt lat="44.16064" lon="6.61974">
        <ele>1435.1999511719</ele>
        <time>2022-07-09T08:36:15.000Z</time>
      </trkpt>
      <trkpt lat="44.16067" lon="6.61975">
        <ele>1435.4000244141</ele>
        <time>2022-07-09T08:36:18.000Z</time>
      </trkpt>
      <trkpt lat="44.16069" lon="6.61976">
        <ele>1435.5999755859</ele>
        <time>2022-07-09T08:36:19.000Z</time>
      </trkpt>
      <trkpt lat="44.16074" lon="6.61978">
        <ele>1436.4000244141</ele>
        <time>2022-07-09T08:36:24.000Z</time>
      </trkpt>
      <trkpt lat="44.16075" lon="6.61978">
        <ele>1436.4000244141</ele>
        <time>2022-07-09T08:36:25.000Z</time>
      </trkpt>
      <trkpt lat="44.16078" lon="6.6198">
        <ele>1436.5999755859</ele>
        <time>2022-07-09T08:36:27.000Z</time>
      </trkpt>
      <trkpt lat="44.16079" lon="6.61981">
        <ele>1436.8000488281</ele>
        <time>2022-07-09T08:36:28.000Z</time>
      </trkpt>
      <trkpt lat="44.16082" lon="6.61985">
        <ele>1437.4000244141</ele>
        <time>2022-07-09T08:36:32.000Z</time>
      </trkpt>
      <trkpt lat="44.16086" lon="6.61987">
        <ele>1437.8000488281</ele>
        <time>2022-07-09T08:36:35.000Z</time>
      </trkpt>
      <trkpt lat="44.16089" lon="6.61992">
        <ele>1438.4000244141</ele>
        <time>2022-07-09T08:36:39.000Z</time>
      </trkpt>
      <trkpt lat="44.16092" lon="6.61995">
        <ele>1438.8000488281</ele>
        <time>2022-07-09T08:36:42.000Z</time>
      </trkpt>
      <trkpt lat="44.16096" lon="6.61999">
        <ele>1439.1999511719</ele>
        <time>2022-07-09T08:36:46.000Z</time>
      </trkpt>
      <trkpt lat="44.16101" lon="6.62004">
        <ele>1439.8000488281</ele>
        <time>2022-07-09T08:36:50.000Z</time>
      </trkpt>
      <trkpt lat="44.16106" lon="6.62008">
        <ele>1440.4000244141</ele>
        <time>2022-07-09T08:36:55.000Z</time>
      </trkpt>
      <trkpt lat="44.16111" lon="6.62012">
        <ele>1440.8000488281</ele>
        <time>2022-07-09T08:37:00.000Z</time>
      </trkpt>
      <trkpt lat="44.16115" lon="6.62014">
        <ele>1441.1999511719</ele>
        <time>2022-07-09T08:37:03.000Z</time>
      </trkpt>
      <trkpt lat="44.16118" lon="6.62018">
        <ele>1442</ele>
        <time>2022-07-09T08:37:07.000Z</time>
      </trkpt>
      <trkpt lat="44.16122" lon="6.62022">
        <ele>1442.4000244141</ele>
        <time>2022-07-09T08:37:11.000Z</time>
      </trkpt>
      <trkpt lat="44.16129" lon="6.62026">
        <ele>1443</ele>
        <time>2022-07-09T08:37:16.000Z</time>
      </trkpt>
      <trkpt lat="44.16133" lon="6.62028">
        <ele>1443.4000244141</ele>
        <time>2022-07-09T08:37:19.000Z</time>
      </trkpt>
      <trkpt lat="44.16142" lon="6.62028">
        <ele>1444</ele>
        <time>2022-07-09T08:37:25.000Z</time>
      </trkpt>
      <trkpt lat="44.16145" lon="6.62028">
        <ele>1444.1999511719</ele>
        <time>2022-07-09T08:37:27.000Z</time>
      </trkpt>
      <trkpt lat="44.16156" lon="6.62028">
        <ele>1445</ele>
        <time>2022-07-09T08:37:34.000Z</time>
      </trkpt>
      <trkpt lat="44.16157" lon="6.62028">
        <ele>1445.1999511719</ele>
        <time>2022-07-09T08:37:35.000Z</time>
      </trkpt>
      <trkpt lat="44.16167" lon="6.6203">
        <ele>1446.1999511719</ele>
        <time>2022-07-09T08:37:42.000Z</time>
      </trkpt>
      <trkpt lat="44.16168" lon="6.62029">
        <ele>1446.4000244141</ele>
        <time>2022-07-09T08:37:43.000Z</time>
      </trkpt>
      <trkpt lat="44.16176" lon="6.6203">
        <ele>1447.4000244141</ele>
        <time>2022-07-09T08:37:49.000Z</time>
      </trkpt>
      <trkpt lat="44.16177" lon="6.62031">
        <ele>1447.5999755859</ele>
        <time>2022-07-09T08:37:50.000Z</time>
      </trkpt>
      <trkpt lat="44.16184" lon="6.62042">
        <ele>1448.1999511719</ele>
        <time>2022-07-09T08:37:58.000Z</time>
      </trkpt>
      <trkpt lat="44.16186" lon="6.62045">
        <ele>1448.4000244141</ele>
        <time>2022-07-09T08:38:00.000Z</time>
      </trkpt>
      <trkpt lat="44.16189" lon="6.62056">
        <ele>1449.1999511719</ele>
        <time>2022-07-09T08:38:07.000Z</time>
      </trkpt>
      <trkpt lat="44.1619" lon="6.62059">
        <ele>1449.4000244141</ele>
        <time>2022-07-09T08:38:09.000Z</time>
      </trkpt>
      <trkpt lat="44.16192" lon="6.62066">
        <ele>1450.4000244141</ele>
        <time>2022-07-09T08:38:14.000Z</time>
      </trkpt>
      <trkpt lat="44.16194" lon="6.6207">
        <ele>1450.5999755859</ele>
        <time>2022-07-09T08:38:16.000Z</time>
      </trkpt>
      <trkpt lat="44.16198" lon="6.62079">
        <ele>1451.5999755859</ele>
        <time>2022-07-09T08:38:22.000Z</time>
      </trkpt>
      <trkpt lat="44.16198" lon="6.6208">
        <ele>1451.8000488281</ele>
        <time>2022-07-09T08:38:23.000Z</time>
      </trkpt>
      <trkpt lat="44.16203" lon="6.62088">
        <ele>1452.5999755859</ele>
        <time>2022-07-09T08:38:29.000Z</time>
      </trkpt>
      <trkpt lat="44.16204" lon="6.62091">
        <ele>1452.8000488281</ele>
        <time>2022-07-09T08:38:31.000Z</time>
      </trkpt>
      <trkpt lat="44.1621" lon="6.62102">
        <ele>1453.8000488281</ele>
        <time>2022-07-09T08:38:39.000Z</time>
      </trkpt>
      <trkpt lat="44.16211" lon="6.62104">
        <ele>1453.8000488281</ele>
        <time>2022-07-09T08:38:40.000Z</time>
      </trkpt>
      <trkpt lat="44.16215" lon="6.62111">
        <ele>1454.4000244141</ele>
        <time>2022-07-09T08:38:45.000Z</time>
      </trkpt>
      <trkpt lat="44.16218" lon="6.62116">
        <ele>1454.8000488281</ele>
        <time>2022-07-09T08:38:49.000Z</time>
      </trkpt>
      <trkpt lat="44.16222" lon="6.62123">
        <ele>1455.5999755859</ele>
        <time>2022-07-09T08:38:54.000Z</time>
      </trkpt>
      <trkpt lat="44.16225" lon="6.62126">
        <ele>1456</ele>
        <time>2022-07-09T08:38:57.000Z</time>
      </trkpt>
      <trkpt lat="44.16231" lon="6.62134">
        <ele>1456.5999755859</ele>
        <time>2022-07-09T08:39:03.000Z</time>
      </trkpt>
      <trkpt lat="44.16233" lon="6.62137">
        <ele>1457</ele>
        <time>2022-07-09T08:39:06.000Z</time>
      </trkpt>
      <trkpt lat="44.16239" lon="6.62143">
        <ele>1457.5999755859</ele>
        <time>2022-07-09T08:39:11.000Z</time>
      </trkpt>
      <trkpt lat="44.16243" lon="6.62147">
        <ele>1458</ele>
        <time>2022-07-09T08:39:15.000Z</time>
      </trkpt>
      <trkpt lat="44.16247" lon="6.6215">
        <ele>1458.4000244141</ele>
        <time>2022-07-09T08:39:18.000Z</time>
      </trkpt>
      <trkpt lat="44.16252" lon="6.62155">
        <ele>1459.1999511719</ele>
        <time>2022-07-09T08:39:23.000Z</time>
      </trkpt>
      <trkpt lat="44.16256" lon="6.62158">
        <ele>1459.5999755859</ele>
        <time>2022-07-09T08:39:27.000Z</time>
      </trkpt>
      <trkpt lat="44.16262" lon="6.62164">
        <ele>1460.1999511719</ele>
        <time>2022-07-09T08:39:33.000Z</time>
      </trkpt>
      <trkpt lat="44.16269" lon="6.62171">
        <ele>1461</ele>
        <time>2022-07-09T08:39:40.000Z</time>
      </trkpt>
      <trkpt lat="44.16272" lon="6.62174">
        <ele>1461.4000244141</ele>
        <time>2022-07-09T08:39:43.000Z</time>
      </trkpt>
      <trkpt lat="44.16274" lon="6.62179">
        <ele>1461.8000488281</ele>
        <time>2022-07-09T08:39:47.000Z</time>
      </trkpt>
      <trkpt lat="44.16275" lon="6.6218">
        <ele>1462</ele>
        <time>2022-07-09T08:39:48.000Z</time>
      </trkpt>
      <trkpt lat="44.16279" lon="6.62185">
        <ele>1462.5999755859</ele>
        <time>2022-07-09T08:39:52.000Z</time>
      </trkpt>
      <trkpt lat="44.1628" lon="6.62186">
        <ele>1462.8000488281</ele>
        <time>2022-07-09T08:39:53.000Z</time>
      </trkpt>
      <trkpt lat="44.16288" lon="6.62192">
        <ele>1463.5999755859</ele>
        <time>2022-07-09T08:40:01.000Z</time>
      </trkpt>
      <trkpt lat="44.16295" lon="6.62194">
        <ele>1464.5999755859</ele>
        <time>2022-07-09T08:40:07.000Z</time>
      </trkpt>
      <trkpt lat="44.16297" lon="6.62194">
        <ele>1464.8000488281</ele>
        <time>2022-07-09T08:40:09.000Z</time>
      </trkpt>
      <trkpt lat="44.16303" lon="6.62194">
        <ele>1465.4000244141</ele>
        <time>2022-07-09T08:40:14.000Z</time>
      </trkpt>
      <trkpt lat="44.16307" lon="6.62195">
        <ele>1466</ele>
        <time>2022-07-09T08:40:18.000Z</time>
      </trkpt>
      <trkpt lat="44.1631" lon="6.62195">
        <ele>1466.4000244141</ele>
        <time>2022-07-09T08:40:21.000Z</time>
      </trkpt>
      <trkpt lat="44.16316" lon="6.62195">
        <ele>1467</ele>
        <time>2022-07-09T08:40:27.000Z</time>
      </trkpt>
      <trkpt lat="44.16317" lon="6.62195">
        <ele>1467.1999511719</ele>
        <time>2022-07-09T08:40:28.000Z</time>
      </trkpt>
      <trkpt lat="44.16326" lon="6.62198">
        <ele>1468</ele>
        <time>2022-07-09T08:40:36.000Z</time>
      </trkpt>
      <trkpt lat="44.16332" lon="6.62203">
        <ele>1468.8000488281</ele>
        <time>2022-07-09T08:40:42.000Z</time>
      </trkpt>
      <trkpt lat="44.16332" lon="6.62204">
        <ele>1468.8000488281</ele>
        <time>2022-07-09T08:40:43.000Z</time>
      </trkpt>
      <trkpt lat="44.16333" lon="6.62207">
        <ele>1469.1999511719</ele>
        <time>2022-07-09T08:40:45.000Z</time>
      </trkpt>
      <trkpt lat="44.16335" lon="6.62214">
        <ele>1469.5999755859</ele>
        <time>2022-07-09T08:40:50.000Z</time>
      </trkpt>
      <trkpt lat="44.16335" lon="6.62224">
        <ele>1470.1999511719</ele>
        <time>2022-07-09T08:40:57.000Z</time>
      </trkpt>
      <trkpt lat="44.16335" lon="6.62226">
        <ele>1470.1999511719</ele>
        <time>2022-07-09T08:40:58.000Z</time>
      </trkpt>
      <trkpt lat="44.16335" lon="6.62233">
        <ele>1470.8000488281</ele>
        <time>2022-07-09T08:41:02.000Z</time>
      </trkpt>
      <trkpt lat="44.16336" lon="6.62236">
        <ele>1471.1999511719</ele>
        <time>2022-07-09T08:41:05.000Z</time>
      </trkpt>
      <trkpt lat="44.16336" lon="6.62243">
        <ele>1471.5999755859</ele>
        <time>2022-07-09T08:41:09.000Z</time>
      </trkpt>
      <trkpt lat="44.16336" lon="6.62252">
        <ele>1472.1999511719</ele>
        <time>2022-07-09T08:41:14.000Z</time>
      </trkpt>
      <trkpt lat="44.16336" lon="6.62254">
        <ele>1472.1999511719</ele>
        <time>2022-07-09T08:41:15.000Z</time>
      </trkpt>
      <trkpt lat="44.16337" lon="6.6226">
        <ele>1473.1999511719</ele>
        <time>2022-07-09T08:41:20.000Z</time>
      </trkpt>
      <trkpt lat="44.16337" lon="6.62262">
        <ele>1473.1999511719</ele>
        <time>2022-07-09T08:41:21.000Z</time>
      </trkpt>
      <trkpt lat="44.16338" lon="6.62269">
        <ele>1474</ele>
        <time>2022-07-09T08:41:27.000Z</time>
      </trkpt>
      <trkpt lat="44.16338" lon="6.62273">
        <ele>1474.4000244141</ele>
        <time>2022-07-09T08:41:30.000Z</time>
      </trkpt>
      <trkpt lat="44.16339" lon="6.62278">
        <ele>1474.8000488281</ele>
        <time>2022-07-09T08:41:34.000Z</time>
      </trkpt>
      <trkpt lat="44.16341" lon="6.62285">
        <ele>1475.4000244141</ele>
        <time>2022-07-09T08:41:39.000Z</time>
      </trkpt>
      <trkpt lat="44.16341" lon="6.62286">
        <ele>1475.5999755859</ele>
        <time>2022-07-09T08:41:40.000Z</time>
      </trkpt>
      <trkpt lat="44.16343" lon="6.62294">
        <ele>1476.1999511719</ele>
        <time>2022-07-09T08:41:46.000Z</time>
      </trkpt>
      <trkpt lat="44.16345" lon="6.62299">
        <ele>1476.4000244141</ele>
        <time>2022-07-09T08:41:50.000Z</time>
      </trkpt>
      <trkpt lat="44.16348" lon="6.62305">
        <ele>1477</ele>
        <time>2022-07-09T08:41:54.000Z</time>
      </trkpt>
      <trkpt lat="44.16354" lon="6.62312">
        <ele>1477.4000244141</ele>
        <time>2022-07-09T08:42:01.000Z</time>
      </trkpt>
      <trkpt lat="44.16356" lon="6.62315">
        <ele>1477.5999755859</ele>
        <time>2022-07-09T08:42:03.000Z</time>
      </trkpt>
      <trkpt lat="44.16359" lon="6.62319">
        <ele>1477.8000488281</ele>
        <time>2022-07-09T08:42:07.000Z</time>
      </trkpt>
      <trkpt lat="44.1636" lon="6.62319">
        <ele>1477.8000488281</ele>
        <time>2022-07-09T08:42:08.000Z</time>
      </trkpt>
      <trkpt lat="44.16364" lon="6.62322">
        <ele>1477.8000488281</ele>
        <time>2022-07-09T08:42:11.000Z</time>
      </trkpt>
      <trkpt lat="44.16365" lon="6.62323">
        <ele>1478</ele>
        <time>2022-07-09T08:42:12.000Z</time>
      </trkpt>
      <trkpt lat="44.16371" lon="6.62328">
        <ele>1478.5999755859</ele>
        <time>2022-07-09T08:42:18.000Z</time>
      </trkpt>
      <trkpt lat="44.16381" lon="6.62333">
        <ele>1479.5999755859</ele>
        <time>2022-07-09T08:42:27.000Z</time>
      </trkpt>
      <trkpt lat="44.16382" lon="6.62334">
        <ele>1479.5999755859</ele>
        <time>2022-07-09T08:42:28.000Z</time>
      </trkpt>
      <trkpt lat="44.1639" lon="6.62335">
        <ele>1480.5999755859</ele>
        <time>2022-07-09T08:42:35.000Z</time>
      </trkpt>
      <trkpt lat="44.16397" lon="6.62336">
        <ele>1481.5999755859</ele>
        <time>2022-07-09T08:42:41.000Z</time>
      </trkpt>
      <trkpt lat="44.16398" lon="6.62336">
        <ele>1481.5999755859</ele>
        <time>2022-07-09T08:42:42.000Z</time>
      </trkpt>
      <trkpt lat="44.164" lon="6.62336">
        <ele>1481.8000488281</ele>
        <time>2022-07-09T08:42:44.000Z</time>
      </trkpt>
      <trkpt lat="44.16403" lon="6.62335">
        <ele>1482</ele>
        <time>2022-07-09T08:42:47.000Z</time>
      </trkpt>
      <trkpt lat="44.16411" lon="6.62333">
        <ele>1482.8000488281</ele>
        <time>2022-07-09T08:42:54.000Z</time>
      </trkpt>
      <trkpt lat="44.1642" lon="6.62331">
        <ele>1483.8000488281</ele>
        <time>2022-07-09T08:43:02.000Z</time>
      </trkpt>
      <trkpt lat="44.16421" lon="6.6233">
        <ele>1483.8000488281</ele>
        <time>2022-07-09T08:43:03.000Z</time>
      </trkpt>
      <trkpt lat="44.16423" lon="6.6233">
        <ele>1484.1999511719</ele>
        <time>2022-07-09T08:43:05.000Z</time>
      </trkpt>
      <trkpt lat="44.16427" lon="6.62329">
        <ele>1484.4000244141</ele>
        <time>2022-07-09T08:43:08.000Z</time>
      </trkpt>
      <trkpt lat="44.16433" lon="6.62329">
        <ele>1485</ele>
        <time>2022-07-09T08:43:14.000Z</time>
      </trkpt>
      <trkpt lat="44.16435" lon="6.62329">
        <ele>1485.1999511719</ele>
        <time>2022-07-09T08:43:16.000Z</time>
      </trkpt>
      <trkpt lat="44.16443" lon="6.62329">
        <ele>1486</ele>
        <time>2022-07-09T08:43:23.000Z</time>
      </trkpt>
      <trkpt lat="44.16444" lon="6.62329">
        <ele>1486.1999511719</ele>
        <time>2022-07-09T08:43:24.000Z</time>
      </trkpt>
      <trkpt lat="44.16451" lon="6.6233">
        <ele>1486.8000488281</ele>
        <time>2022-07-09T08:43:30.000Z</time>
      </trkpt>
      <trkpt lat="44.16453" lon="6.62331">
        <ele>1487.1999511719</ele>
        <time>2022-07-09T08:43:33.000Z</time>
      </trkpt>
      <trkpt lat="44.16456" lon="6.62334">
        <ele>1487.5999755859</ele>
        <time>2022-07-09T08:43:36.000Z</time>
      </trkpt>
      <trkpt lat="44.16461" lon="6.62339">
        <ele>1488.4000244141</ele>
        <time>2022-07-09T08:43:42.000Z</time>
      </trkpt>
      <trkpt lat="44.16468" lon="6.62347">
        <ele>1489.4000244141</ele>
        <time>2022-07-09T08:43:50.000Z</time>
      </trkpt>
      <trkpt lat="44.16469" lon="6.62348">
        <ele>1489.5999755859</ele>
        <time>2022-07-09T08:43:52.000Z</time>
      </trkpt>
      <trkpt lat="44.16478" lon="6.62357">
        <ele>1490.1999511719</ele>
        <time>2022-07-09T08:44:00.000Z</time>
      </trkpt>
      <trkpt lat="44.1648" lon="6.62359">
        <ele>1490.4000244141</ele>
        <time>2022-07-09T08:44:02.000Z</time>
      </trkpt>
      <trkpt lat="44.16488" lon="6.62364">
        <ele>1491.1999511719</ele>
        <time>2022-07-09T08:44:09.000Z</time>
      </trkpt>
      <trkpt lat="44.1649" lon="6.62366">
        <ele>1491.4000244141</ele>
        <time>2022-07-09T08:44:11.000Z</time>
      </trkpt>
      <trkpt lat="44.16496" lon="6.62372">
        <ele>1491.8000488281</ele>
        <time>2022-07-09T08:44:17.000Z</time>
      </trkpt>
      <trkpt lat="44.165" lon="6.62374">
        <ele>1492.4000244141</ele>
        <time>2022-07-09T08:44:20.000Z</time>
      </trkpt>
      <trkpt lat="44.16501" lon="6.62375">
        <ele>1492.4000244141</ele>
        <time>2022-07-09T08:44:21.000Z</time>
      </trkpt>
      <trkpt lat="44.16506" lon="6.62379">
        <ele>1492.8000488281</ele>
        <time>2022-07-09T08:44:26.000Z</time>
      </trkpt>
      <trkpt lat="44.16514" lon="6.62386">
        <ele>1493.5999755859</ele>
        <time>2022-07-09T08:44:33.000Z</time>
      </trkpt>
      <trkpt lat="44.16515" lon="6.62387">
        <ele>1493.8000488281</ele>
        <time>2022-07-09T08:44:34.000Z</time>
      </trkpt>
      <trkpt lat="44.16522" lon="6.62395">
        <ele>1494.5999755859</ele>
        <time>2022-07-09T08:44:41.000Z</time>
      </trkpt>
      <trkpt lat="44.16529" lon="6.62403">
        <ele>1495.4000244141</ele>
        <time>2022-07-09T08:44:48.000Z</time>
      </trkpt>
      <trkpt lat="44.16531" lon="6.62406">
        <ele>1495.8000488281</ele>
        <time>2022-07-09T08:44:50.000Z</time>
      </trkpt>
      <trkpt lat="44.16535" lon="6.62413">
        <ele>1496.5999755859</ele>
        <time>2022-07-09T08:44:56.000Z</time>
      </trkpt>
      <trkpt lat="44.16536" lon="6.62415">
        <ele>1496.8000488281</ele>
        <time>2022-07-09T08:44:58.000Z</time>
      </trkpt>
      <trkpt lat="44.16539" lon="6.62419">
        <ele>1497</ele>
        <time>2022-07-09T08:45:02.000Z</time>
      </trkpt>
      <trkpt lat="44.16543" lon="6.62426">
        <ele>1497.8000488281</ele>
        <time>2022-07-09T08:45:07.000Z</time>
      </trkpt>
      <trkpt lat="44.16545" lon="6.62429">
        <ele>1498</ele>
        <time>2022-07-09T08:45:10.000Z</time>
      </trkpt>
      <trkpt lat="44.16548" lon="6.62437">
        <ele>1498.8000488281</ele>
        <time>2022-07-09T08:45:16.000Z</time>
      </trkpt>
      <trkpt lat="44.1655" lon="6.62439">
        <ele>1499.1999511719</ele>
        <time>2022-07-09T08:45:18.000Z</time>
      </trkpt>
      <trkpt lat="44.16554" lon="6.62446">
        <ele>1499.8000488281</ele>
        <time>2022-07-09T08:45:24.000Z</time>
      </trkpt>
      <trkpt lat="44.16555" lon="6.62448">
        <ele>1500</ele>
        <time>2022-07-09T08:45:25.000Z</time>
      </trkpt>
      <trkpt lat="44.16561" lon="6.62455">
        <ele>1501</ele>
        <time>2022-07-09T08:45:31.000Z</time>
      </trkpt>
      <trkpt lat="44.16562" lon="6.62456">
        <ele>1501</ele>
        <time>2022-07-09T08:45:32.000Z</time>
      </trkpt>
      <trkpt lat="44.16566" lon="6.62464">
        <ele>1501.5999755859</ele>
        <time>2022-07-09T08:45:37.000Z</time>
      </trkpt>
      <trkpt lat="44.16568" lon="6.62467">
        <ele>1502</ele>
        <time>2022-07-09T08:45:39.000Z</time>
      </trkpt>
      <trkpt lat="44.16572" lon="6.62473">
        <ele>1502.8000488281</ele>
        <time>2022-07-09T08:45:44.000Z</time>
      </trkpt>
      <trkpt lat="44.16573" lon="6.62474">
        <ele>1503</ele>
        <time>2022-07-09T08:45:45.000Z</time>
      </trkpt>
      <trkpt lat="44.16574" lon="6.62475">
        <ele>1503</ele>
        <time>2022-07-09T08:45:46.000Z</time>
      </trkpt>
      <trkpt lat="44.16577" lon="6.62478">
        <ele>1503.5999755859</ele>
        <time>2022-07-09T08:45:49.000Z</time>
      </trkpt>
      <trkpt lat="44.1658" lon="6.62481">
        <ele>1503.8000488281</ele>
        <time>2022-07-09T08:45:52.000Z</time>
      </trkpt>
      <trkpt lat="44.16582" lon="6.62483">
        <ele>1504.1999511719</ele>
        <time>2022-07-09T08:45:54.000Z</time>
      </trkpt>
      <trkpt lat="44.16582" lon="6.62483">
        <ele>1504.4000244141</ele>
        <time>2022-07-09T08:45:55.000Z</time>
      </trkpt>
      <trkpt lat="44.16585" lon="6.62486">
        <ele>1505</ele>
        <time>2022-07-09T08:45:58.000Z</time>
      </trkpt>
      <trkpt lat="44.16587" lon="6.62488">
        <ele>1505.1999511719</ele>
        <time>2022-07-09T08:46:00.000Z</time>
      </trkpt>
      <trkpt lat="44.16588" lon="6.62489">
        <ele>1505.1999511719</ele>
        <time>2022-07-09T08:46:01.000Z</time>
      </trkpt>
      <trkpt lat="44.16591" lon="6.62492">
        <ele>1506</ele>
        <time>2022-07-09T08:46:05.000Z</time>
      </trkpt>
      <trkpt lat="44.16593" lon="6.62494">
        <ele>1506.4000244141</ele>
        <time>2022-07-09T08:46:07.000Z</time>
      </trkpt>
      <trkpt lat="44.16597" lon="6.625">
        <ele>1507.1999511719</ele>
        <time>2022-07-09T08:46:13.000Z</time>
      </trkpt>
      <trkpt lat="44.16598" lon="6.62503">
        <ele>1507.5999755859</ele>
        <time>2022-07-09T08:46:15.000Z</time>
      </trkpt>
      <trkpt lat="44.16599" lon="6.62506">
        <ele>1508</ele>
        <time>2022-07-09T08:46:18.000Z</time>
      </trkpt>
      <trkpt lat="44.16603" lon="6.62513">
        <ele>1508.5999755859</ele>
        <time>2022-07-09T08:46:24.000Z</time>
      </trkpt>
      <trkpt lat="44.16605" lon="6.62516">
        <ele>1509</ele>
        <time>2022-07-09T08:46:27.000Z</time>
      </trkpt>
      <trkpt lat="44.1661" lon="6.62522">
        <ele>1509.8000488281</ele>
        <time>2022-07-09T08:46:33.000Z</time>
      </trkpt>
      <trkpt lat="44.16612" lon="6.62524">
        <ele>1510</ele>
        <time>2022-07-09T08:46:35.000Z</time>
      </trkpt>
      <trkpt lat="44.16618" lon="6.6253">
        <ele>1510.4000244141</ele>
        <time>2022-07-09T08:46:41.000Z</time>
      </trkpt>
      <trkpt lat="44.16621" lon="6.62532">
        <ele>1510.8000488281</ele>
        <time>2022-07-09T08:46:44.000Z</time>
      </trkpt>
      <trkpt lat="44.16627" lon="6.62536">
        <ele>1511.1999511719</ele>
        <time>2022-07-09T08:46:50.000Z</time>
      </trkpt>
      <trkpt lat="44.16634" lon="6.62542">
        <ele>1511.8000488281</ele>
        <time>2022-07-09T08:46:56.000Z</time>
      </trkpt>
      <trkpt lat="44.16637" lon="6.62545">
        <ele>1512.1999511719</ele>
        <time>2022-07-09T08:46:59.000Z</time>
      </trkpt>
      <trkpt lat="44.16647" lon="6.62549">
        <ele>1512.5999755859</ele>
        <time>2022-07-09T08:47:06.000Z</time>
      </trkpt>
      <trkpt lat="44.1665" lon="6.62551">
        <ele>1513</ele>
        <time>2022-07-09T08:47:09.000Z</time>
      </trkpt>
      <trkpt lat="44.16655" lon="6.62553">
        <ele>1513.5999755859</ele>
        <time>2022-07-09T08:47:14.000Z</time>
      </trkpt>
      <trkpt lat="44.1666" lon="6.62554">
        <ele>1514.1999511719</ele>
        <time>2022-07-09T08:47:18.000Z</time>
      </trkpt>
      <trkpt lat="44.16663" lon="6.62555">
        <ele>1514.4000244141</ele>
        <time>2022-07-09T08:47:21.000Z</time>
      </trkpt>
      <trkpt lat="44.16675" lon="6.62559">
        <ele>1515</ele>
        <time>2022-07-09T08:47:30.000Z</time>
      </trkpt>
      <trkpt lat="44.16676" lon="6.62559">
        <ele>1515.1999511719</ele>
        <time>2022-07-09T08:47:31.000Z</time>
      </trkpt>
      <trkpt lat="44.16682" lon="6.62561">
        <ele>1515.5999755859</ele>
        <time>2022-07-09T08:47:36.000Z</time>
      </trkpt>
      <trkpt lat="44.16689" lon="6.62564">
        <ele>1516</ele>
        <time>2022-07-09T08:47:42.000Z</time>
      </trkpt>
      <trkpt lat="44.1669" lon="6.62565">
        <ele>1516.1999511719</ele>
        <time>2022-07-09T08:47:43.000Z</time>
      </trkpt>
      <trkpt lat="44.16699" lon="6.62569">
        <ele>1517</ele>
        <time>2022-07-09T08:47:50.000Z</time>
      </trkpt>
      <trkpt lat="44.16702" lon="6.62571">
        <ele>1517.1999511719</ele>
        <time>2022-07-09T08:47:53.000Z</time>
      </trkpt>
      <trkpt lat="44.16706" lon="6.62576">
        <ele>1517.5999755859</ele>
        <time>2022-07-09T08:47:57.000Z</time>
      </trkpt>
      <trkpt lat="44.16711" lon="6.62582">
        <ele>1518.4000244141</ele>
        <time>2022-07-09T08:48:03.000Z</time>
      </trkpt>
      <trkpt lat="44.16713" lon="6.62584">
        <ele>1518.4000244141</ele>
        <time>2022-07-09T08:48:05.000Z</time>
      </trkpt>
      <trkpt lat="44.16722" lon="6.62592">
        <ele>1519.4000244141</ele>
        <time>2022-07-09T08:48:13.000Z</time>
      </trkpt>
      <trkpt lat="44.16729" lon="6.62597">
        <ele>1520.4000244141</ele>
        <time>2022-07-09T08:48:20.000Z</time>
      </trkpt>
      <trkpt lat="44.16736" lon="6.62602">
        <ele>1521.4000244141</ele>
        <time>2022-07-09T08:48:27.000Z</time>
      </trkpt>
      <trkpt lat="44.16737" lon="6.62602">
        <ele>1521.5999755859</ele>
        <time>2022-07-09T08:48:28.000Z</time>
      </trkpt>
      <trkpt lat="44.16742" lon="6.62608">
        <ele>1522.1999511719</ele>
        <time>2022-07-09T08:48:34.000Z</time>
      </trkpt>
      <trkpt lat="44.16746" lon="6.62613">
        <ele>1522.5999755859</ele>
        <time>2022-07-09T08:48:39.000Z</time>
      </trkpt>
      <trkpt lat="44.1675" lon="6.62617">
        <ele>1522.8000488281</ele>
        <time>2022-07-09T08:48:43.000Z</time>
      </trkpt>
      <trkpt lat="44.16754" lon="6.62623">
        <ele>1523.5999755859</ele>
        <time>2022-07-09T08:48:49.000Z</time>
      </trkpt>
      <trkpt lat="44.16755" lon="6.62625">
        <ele>1523.8000488281</ele>
        <time>2022-07-09T08:48:50.000Z</time>
      </trkpt>
      <trkpt lat="44.1676" lon="6.62633">
        <ele>1524.5999755859</ele>
        <time>2022-07-09T08:48:57.000Z</time>
      </trkpt>
      <trkpt lat="44.16761" lon="6.62634">
        <ele>1524.5999755859</ele>
        <time>2022-07-09T08:48:58.000Z</time>
      </trkpt>
      <trkpt lat="44.16765" lon="6.62642">
        <ele>1525.1999511719</ele>
        <time>2022-07-09T08:49:04.000Z</time>
      </trkpt>
      <trkpt lat="44.16771" lon="6.6265">
        <ele>1525.8000488281</ele>
        <time>2022-07-09T08:49:10.000Z</time>
      </trkpt>
      <trkpt lat="44.16777" lon="6.62658">
        <ele>1526.8000488281</ele>
        <time>2022-07-09T08:49:18.000Z</time>
      </trkpt>
      <trkpt lat="44.16778" lon="6.62659">
        <ele>1526.8000488281</ele>
        <time>2022-07-09T08:49:19.000Z</time>
      </trkpt>
      <trkpt lat="44.16783" lon="6.62666">
        <ele>1527.4000244141</ele>
        <time>2022-07-09T08:49:26.000Z</time>
      </trkpt>
      <trkpt lat="44.16787" lon="6.6267">
        <ele>1528</ele>
        <time>2022-07-09T08:49:30.000Z</time>
      </trkpt>
      <trkpt lat="44.1679" lon="6.62674">
        <ele>1528.1999511719</ele>
        <time>2022-07-09T08:49:33.000Z</time>
      </trkpt>
      <trkpt lat="44.16796" lon="6.62683">
        <ele>1529</ele>
        <time>2022-07-09T08:49:40.000Z</time>
      </trkpt>
      <trkpt lat="44.16797" lon="6.62684">
        <ele>1529</ele>
        <time>2022-07-09T08:49:41.000Z</time>
      </trkpt>
      <trkpt lat="44.16808" lon="6.627">
        <ele>1529.8000488281</ele>
        <time>2022-07-09T08:49:51.000Z</time>
      </trkpt>
      <trkpt lat="44.1681" lon="6.62702">
        <ele>1530</ele>
        <time>2022-07-09T08:49:52.000Z</time>
      </trkpt>
      <trkpt lat="44.16819" lon="6.62715">
        <ele>1530.4000244141</ele>
        <time>2022-07-09T08:49:58.000Z</time>
      </trkpt>
      <trkpt lat="44.16831" lon="6.62727">
        <ele>1531</ele>
        <time>2022-07-09T08:50:05.000Z</time>
      </trkpt>
      <trkpt lat="44.16832" lon="6.62728">
        <ele>1531.1999511719</ele>
        <time>2022-07-09T08:50:06.000Z</time>
      </trkpt>
      <trkpt lat="44.16841" lon="6.62735">
        <ele>1532</ele>
        <time>2022-07-09T08:50:11.000Z</time>
      </trkpt>
      <trkpt lat="44.1685" lon="6.62739">
        <ele>1533</ele>
        <time>2022-07-09T08:50:18.000Z</time>
      </trkpt>
      <trkpt lat="44.16852" lon="6.6274">
        <ele>1533.1999511719</ele>
        <time>2022-07-09T08:50:19.000Z</time>
      </trkpt>
      <trkpt lat="44.16859" lon="6.62745">
        <ele>1534.1999511719</ele>
        <time>2022-07-09T08:50:25.000Z</time>
      </trkpt>
      <trkpt lat="44.16868" lon="6.62755">
        <ele>1535.1999511719</ele>
        <time>2022-07-09T08:50:33.000Z</time>
      </trkpt>
      <trkpt lat="44.1687" lon="6.62759">
        <ele>1535.4000244141</ele>
        <time>2022-07-09T08:50:35.000Z</time>
      </trkpt>
      <trkpt lat="44.16877" lon="6.62768">
        <ele>1535.5999755859</ele>
        <time>2022-07-09T08:50:41.000Z</time>
      </trkpt>
      <trkpt lat="44.16885" lon="6.62778">
        <ele>1536.4000244141</ele>
        <time>2022-07-09T08:50:48.000Z</time>
      </trkpt>
      <trkpt lat="44.16895" lon="6.62788">
        <ele>1537.4000244141</ele>
        <time>2022-07-09T08:50:57.000Z</time>
      </trkpt>
      <trkpt lat="44.16904" lon="6.62796">
        <ele>1538.4000244141</ele>
        <time>2022-07-09T08:51:05.000Z</time>
      </trkpt>
      <trkpt lat="44.16905" lon="6.62798">
        <ele>1538.5999755859</ele>
        <time>2022-07-09T08:51:06.000Z</time>
      </trkpt>
      <trkpt lat="44.16912" lon="6.62805">
        <ele>1539.4000244141</ele>
        <time>2022-07-09T08:51:13.000Z</time>
      </trkpt>
      <trkpt lat="44.16913" lon="6.62806">
        <ele>1539.5999755859</ele>
        <time>2022-07-09T08:51:14.000Z</time>
      </trkpt>
      <trkpt lat="44.16919" lon="6.62811">
        <ele>1540.1999511719</ele>
        <time>2022-07-09T08:51:20.000Z</time>
      </trkpt>
      <trkpt lat="44.16923" lon="6.62813">
        <ele>1540.5999755859</ele>
        <time>2022-07-09T08:51:24.000Z</time>
      </trkpt>
      <trkpt lat="44.16928" lon="6.62818">
        <ele>1541.1999511719</ele>
        <time>2022-07-09T08:51:29.000Z</time>
      </trkpt>
      <trkpt lat="44.16932" lon="6.62823">
        <ele>1541.5999755859</ele>
        <time>2022-07-09T08:51:34.000Z</time>
      </trkpt>
      <trkpt lat="44.16932" lon="6.62824">
        <ele>1541.8000488281</ele>
        <time>2022-07-09T08:51:35.000Z</time>
      </trkpt>
      <trkpt lat="44.16934" lon="6.62827">
        <ele>1542</ele>
        <time>2022-07-09T08:51:40.000Z</time>
      </trkpt>
      <trkpt lat="44.16934" lon="6.62827">
        <ele>1542.1999511719</ele>
        <time>2022-07-09T08:52:02.000Z</time>
      </trkpt>
      <trkpt lat="44.16937" lon="6.62833">
        <ele>1542.1999511719</ele>
        <time>2022-07-09T08:52:14.000Z</time>
      </trkpt>
      <trkpt lat="44.16943" lon="6.62842">
        <ele>1542.4000244141</ele>
        <time>2022-07-09T08:52:21.000Z</time>
      </trkpt>
      <trkpt lat="44.16947" lon="6.62848">
        <ele>1542.8000488281</ele>
        <time>2022-07-09T08:52:25.000Z</time>
      </trkpt>
      <trkpt lat="44.16951" lon="6.62851">
        <ele>1543</ele>
        <time>2022-07-09T08:52:28.000Z</time>
      </trkpt>
      <trkpt lat="44.16962" lon="6.62862">
        <ele>1543.5999755859</ele>
        <time>2022-07-09T08:52:36.000Z</time>
      </trkpt>
      <trkpt lat="44.1697" lon="6.62869">
        <ele>1543.8000488281</ele>
        <time>2022-07-09T08:52:41.000Z</time>
      </trkpt>
      <trkpt lat="44.16972" lon="6.6287">
        <ele>1543.8000488281</ele>
        <time>2022-07-09T08:52:42.000Z</time>
      </trkpt>
      <trkpt lat="44.16985" lon="6.62878">
        <ele>1544.8000488281</ele>
        <time>2022-07-09T08:52:51.000Z</time>
      </trkpt>
      <trkpt lat="44.16994" lon="6.62886">
        <ele>1545.8000488281</ele>
        <time>2022-07-09T08:52:58.000Z</time>
      </trkpt>
      <trkpt lat="44.17004" lon="6.62898">
        <ele>1547</ele>
        <time>2022-07-09T08:53:07.000Z</time>
      </trkpt>
      <trkpt lat="44.17012" lon="6.62909">
        <ele>1548</ele>
        <time>2022-07-09T08:53:15.000Z</time>
      </trkpt>
      <trkpt lat="44.17012" lon="6.6291">
        <ele>1548.1999511719</ele>
        <time>2022-07-09T08:53:16.000Z</time>
      </trkpt>
      <trkpt lat="44.17016" lon="6.62918">
        <ele>1548.5999755859</ele>
        <time>2022-07-09T08:53:21.000Z</time>
      </trkpt>
      <trkpt lat="44.17018" lon="6.6292">
        <ele>1549</ele>
        <time>2022-07-09T08:53:23.000Z</time>
      </trkpt>
      <trkpt lat="44.17021" lon="6.62923">
        <ele>1549.4000244141</ele>
        <time>2022-07-09T08:53:25.000Z</time>
      </trkpt>
      <trkpt lat="44.17024" lon="6.62927">
        <ele>1549.5999755859</ele>
        <time>2022-07-09T08:53:28.000Z</time>
      </trkpt>
      <trkpt lat="44.17028" lon="6.62932">
        <ele>1550.1999511719</ele>
        <time>2022-07-09T08:53:32.000Z</time>
      </trkpt>
      <trkpt lat="44.17031" lon="6.62936">
        <ele>1550.4000244141</ele>
        <time>2022-07-09T08:53:35.000Z</time>
      </trkpt>
      <trkpt lat="44.17038" lon="6.62943">
        <ele>1551.1999511719</ele>
        <time>2022-07-09T08:53:40.000Z</time>
      </trkpt>
      <trkpt lat="44.17041" lon="6.62945">
        <ele>1551.1999511719</ele>
        <time>2022-07-09T08:53:42.000Z</time>
      </trkpt>
      <trkpt lat="44.17048" lon="6.62954">
        <ele>1552.4000244141</ele>
        <time>2022-07-09T08:53:49.000Z</time>
      </trkpt>
      <trkpt lat="44.17055" lon="6.62968">
        <ele>1553.1999511719</ele>
        <time>2022-07-09T08:53:57.000Z</time>
      </trkpt>
      <trkpt lat="44.17055" lon="6.6297">
        <ele>1553.4000244141</ele>
        <time>2022-07-09T08:53:58.000Z</time>
      </trkpt>
      <trkpt lat="44.17057" lon="6.62984">
        <ele>1553.8000488281</ele>
        <time>2022-07-09T08:54:04.000Z</time>
      </trkpt>
      <trkpt lat="44.17059" lon="6.62998">
        <ele>1554.4000244141</ele>
        <time>2022-07-09T08:54:10.000Z</time>
      </trkpt>
      <trkpt lat="44.17059" lon="6.63">
        <ele>1554.5999755859</ele>
        <time>2022-07-09T08:54:11.000Z</time>
      </trkpt>
      <trkpt lat="44.17063" lon="6.63015">
        <ele>1555.4000244141</ele>
        <time>2022-07-09T08:54:17.000Z</time>
      </trkpt>
      <trkpt lat="44.17063" lon="6.63018">
        <ele>1555.5999755859</ele>
        <time>2022-07-09T08:54:18.000Z</time>
      </trkpt>
      <trkpt lat="44.17066" lon="6.63033">
        <ele>1556.5999755859</ele>
        <time>2022-07-09T08:54:25.000Z</time>
      </trkpt>
      <trkpt lat="44.17067" lon="6.63045">
        <ele>1557.4000244141</ele>
        <time>2022-07-09T08:54:30.000Z</time>
      </trkpt>
      <trkpt lat="44.17068" lon="6.63052">
        <ele>1557.5999755859</ele>
        <time>2022-07-09T08:54:33.000Z</time>
      </trkpt>
      <trkpt lat="44.17068" lon="6.63066">
        <ele>1558.4000244141</ele>
        <time>2022-07-09T08:54:38.000Z</time>
      </trkpt>
      <trkpt lat="44.17068" lon="6.63074">
        <ele>1558.5999755859</ele>
        <time>2022-07-09T08:54:41.000Z</time>
      </trkpt>
      <trkpt lat="44.17068" lon="6.63085">
        <ele>1559.1999511719</ele>
        <time>2022-07-09T08:54:45.000Z</time>
      </trkpt>
      <trkpt lat="44.17068" lon="6.63092">
        <ele>1559.8000488281</ele>
        <time>2022-07-09T08:54:48.000Z</time>
      </trkpt>
      <trkpt lat="44.17066" lon="6.63104">
        <ele>1560.4000244141</ele>
        <time>2022-07-09T08:54:53.000Z</time>
      </trkpt>
      <trkpt lat="44.17064" lon="6.63114">
        <ele>1560.8000488281</ele>
        <time>2022-07-09T08:54:57.000Z</time>
      </trkpt>
      <trkpt lat="44.17062" lon="6.63125">
        <ele>1561.4000244141</ele>
        <time>2022-07-09T08:55:01.000Z</time>
      </trkpt>
      <trkpt lat="44.17058" lon="6.63144">
        <ele>1562</ele>
        <time>2022-07-09T08:55:07.000Z</time>
      </trkpt>
      <trkpt lat="44.17056" lon="6.6315">
        <ele>1562.4000244141</ele>
        <time>2022-07-09T08:55:09.000Z</time>
      </trkpt>
      <trkpt lat="44.17054" lon="6.63159">
        <ele>1563</ele>
        <time>2022-07-09T08:55:13.000Z</time>
      </trkpt>
      <trkpt lat="44.17053" lon="6.63164">
        <ele>1563.4000244141</ele>
        <time>2022-07-09T08:55:15.000Z</time>
      </trkpt>
      <trkpt lat="44.17051" lon="6.63171">
        <ele>1564</ele>
        <time>2022-07-09T08:55:18.000Z</time>
      </trkpt>
      <trkpt lat="44.17045" lon="6.63185">
        <ele>1564.8000488281</ele>
        <time>2022-07-09T08:55:24.000Z</time>
      </trkpt>
      <trkpt lat="44.17043" lon="6.63191">
        <ele>1565</ele>
        <time>2022-07-09T08:55:27.000Z</time>
      </trkpt>
      <trkpt lat="44.17038" lon="6.63203">
        <ele>1565.5999755859</ele>
        <time>2022-07-09T08:55:32.000Z</time>
      </trkpt>
      <trkpt lat="44.17035" lon="6.63212">
        <ele>1566.1999511719</ele>
        <time>2022-07-09T08:55:36.000Z</time>
      </trkpt>
      <trkpt lat="44.17033" lon="6.63218">
        <ele>1566.4000244141</ele>
        <time>2022-07-09T08:55:39.000Z</time>
      </trkpt>
      <trkpt lat="44.17026" lon="6.63232">
        <ele>1567.4000244141</ele>
        <time>2022-07-09T08:55:46.000Z</time>
      </trkpt>
      <trkpt lat="44.17025" lon="6.63234">
        <ele>1567.5999755859</ele>
        <time>2022-07-09T08:55:47.000Z</time>
      </trkpt>
      <trkpt lat="44.17017" lon="6.63246">
        <ele>1568.4000244141</ele>
        <time>2022-07-09T08:55:54.000Z</time>
      </trkpt>
      <trkpt lat="44.17014" lon="6.6325">
        <ele>1568.4000244141</ele>
        <time>2022-07-09T08:55:56.000Z</time>
      </trkpt>
      <trkpt lat="44.17003" lon="6.63266">
        <ele>1569</ele>
        <time>2022-07-09T08:56:04.000Z</time>
      </trkpt>
      <trkpt lat="44.16989" lon="6.63279">
        <ele>1569.1999511719</ele>
        <time>2022-07-09T08:56:11.000Z</time>
      </trkpt>
      <trkpt lat="44.16966" lon="6.63287">
        <ele>1568.8000488281</ele>
        <time>2022-07-09T08:56:18.000Z</time>
      </trkpt>
      <trkpt lat="44.1694" lon="6.633">
        <ele>1568.8000488281</ele>
        <time>2022-07-09T08:56:26.000Z</time>
      </trkpt>
      <trkpt lat="44.16924" lon="6.63314">
        <ele>1569.5999755859</ele>
        <time>2022-07-09T08:56:32.000Z</time>
      </trkpt>
      <trkpt lat="44.16921" lon="6.63316">
        <ele>1569.8000488281</ele>
        <time>2022-07-09T08:56:33.000Z</time>
      </trkpt>
      <trkpt lat="44.16899" lon="6.6333">
        <ele>1570</ele>
        <time>2022-07-09T08:56:41.000Z</time>
      </trkpt>
      <trkpt lat="44.16882" lon="6.63343">
        <ele>1570.5999755859</ele>
        <time>2022-07-09T08:56:47.000Z</time>
      </trkpt>
      <trkpt lat="44.1687" lon="6.63361">
        <ele>1571.4000244141</ele>
        <time>2022-07-09T08:56:53.000Z</time>
      </trkpt>
      <trkpt lat="44.16864" lon="6.63377">
        <ele>1571.5999755859</ele>
        <time>2022-07-09T08:56:57.000Z</time>
      </trkpt>
      <trkpt lat="44.16858" lon="6.63392">
        <ele>1572.1999511719</ele>
        <time>2022-07-09T08:57:01.000Z</time>
      </trkpt>
      <trkpt lat="44.1685" lon="6.63405">
        <ele>1572.8000488281</ele>
        <time>2022-07-09T08:57:05.000Z</time>
      </trkpt>
      <trkpt lat="44.16844" lon="6.63417">
        <ele>1573</ele>
        <time>2022-07-09T08:57:08.000Z</time>
      </trkpt>
      <trkpt lat="44.16826" lon="6.6345">
        <ele>1572.8000488281</ele>
        <time>2022-07-09T08:57:16.000Z</time>
      </trkpt>
      <trkpt lat="44.16812" lon="6.63477">
        <ele>1573.5999755859</ele>
        <time>2022-07-09T08:57:24.000Z</time>
      </trkpt>
      <trkpt lat="44.16798" lon="6.63491">
        <ele>1573.5999755859</ele>
        <time>2022-07-09T08:57:29.000Z</time>
      </trkpt>
      <trkpt lat="44.16789" lon="6.63514">
        <ele>1573.5999755859</ele>
        <time>2022-07-09T08:57:34.000Z</time>
      </trkpt>
      <trkpt lat="44.1678" lon="6.63537">
        <ele>1573.8000488281</ele>
        <time>2022-07-09T08:57:39.000Z</time>
      </trkpt>
      <trkpt lat="44.16778" lon="6.63541">
        <ele>1573.8000488281</ele>
        <time>2022-07-09T08:57:40.000Z</time>
      </trkpt>
      <trkpt lat="44.16772" lon="6.63555">
        <ele>1574.8000488281</ele>
        <time>2022-07-09T08:57:44.000Z</time>
      </trkpt>
      <trkpt lat="44.16761" lon="6.63575">
        <ele>1575.4000244141</ele>
        <time>2022-07-09T08:57:50.000Z</time>
      </trkpt>
      <trkpt lat="44.16756" lon="6.63585">
        <ele>1575.8000488281</ele>
        <time>2022-07-09T08:57:53.000Z</time>
      </trkpt>
      <trkpt lat="44.16746" lon="6.63606">
        <ele>1576.4000244141</ele>
        <time>2022-07-09T08:57:59.000Z</time>
      </trkpt>
      <trkpt lat="44.16735" lon="6.63635">
        <ele>1576.8000488281</ele>
        <time>2022-07-09T08:58:06.000Z</time>
      </trkpt>
      <trkpt lat="44.16725" lon="6.6368">
        <ele>1577.1999511719</ele>
        <time>2022-07-09T08:58:16.000Z</time>
      </trkpt>
      <trkpt lat="44.16722" lon="6.63703">
        <ele>1577.5999755859</ele>
        <time>2022-07-09T08:58:21.000Z</time>
      </trkpt>
      <trkpt lat="44.1672" lon="6.63722">
        <ele>1578</ele>
        <time>2022-07-09T08:58:25.000Z</time>
      </trkpt>
      <trkpt lat="44.1672" lon="6.63736">
        <ele>1578</ele>
        <time>2022-07-09T08:58:28.000Z</time>
      </trkpt>
      <trkpt lat="44.1672" lon="6.63763">
        <ele>1578.4000244141</ele>
        <time>2022-07-09T08:58:34.000Z</time>
      </trkpt>
      <trkpt lat="44.16714" lon="6.63778">
        <ele>1579</ele>
        <time>2022-07-09T08:58:38.000Z</time>
      </trkpt>
      <trkpt lat="44.16709" lon="6.63789">
        <ele>1579.1999511719</ele>
        <time>2022-07-09T08:58:41.000Z</time>
      </trkpt>
      <trkpt lat="44.16701" lon="6.63817">
        <ele>1580</ele>
        <time>2022-07-09T08:58:49.000Z</time>
      </trkpt>
      <trkpt lat="44.16695" lon="6.63841">
        <ele>1581</ele>
        <time>2022-07-09T08:58:57.000Z</time>
      </trkpt>
      <trkpt lat="44.16693" lon="6.63846">
        <ele>1581</ele>
        <time>2022-07-09T08:58:59.000Z</time>
      </trkpt>
      <trkpt lat="44.1669" lon="6.63855">
        <ele>1582</ele>
        <time>2022-07-09T08:59:03.000Z</time>
      </trkpt>
      <trkpt lat="44.16689" lon="6.63859">
        <ele>1582.1999511719</ele>
        <time>2022-07-09T08:59:05.000Z</time>
      </trkpt>
      <trkpt lat="44.16683" lon="6.63876">
        <ele>1583.1999511719</ele>
        <time>2022-07-09T08:59:13.000Z</time>
      </trkpt>
      <trkpt lat="44.16678" lon="6.63889">
        <ele>1584.4000244141</ele>
        <time>2022-07-09T08:59:20.000Z</time>
      </trkpt>
      <trkpt lat="44.16677" lon="6.63891">
        <ele>1584.5999755859</ele>
        <time>2022-07-09T08:59:21.000Z</time>
      </trkpt>
      <trkpt lat="44.16673" lon="6.639">
        <ele>1585.4000244141</ele>
        <time>2022-07-09T08:59:27.000Z</time>
      </trkpt>
      <trkpt lat="44.1667" lon="6.63904">
        <ele>1585.8000488281</ele>
        <time>2022-07-09T08:59:30.000Z</time>
      </trkpt>
      <trkpt lat="44.16667" lon="6.6391">
        <ele>1586.4000244141</ele>
        <time>2022-07-09T08:59:34.000Z</time>
      </trkpt>
      <trkpt lat="44.16663" lon="6.63913">
        <ele>1586.8000488281</ele>
        <time>2022-07-09T08:59:37.000Z</time>
      </trkpt>
      <trkpt lat="44.16658" lon="6.63918">
        <ele>1587.5999755859</ele>
        <time>2022-07-09T08:59:42.000Z</time>
      </trkpt>
      <trkpt lat="44.16656" lon="6.6392">
        <ele>1587.8000488281</ele>
        <time>2022-07-09T08:59:44.000Z</time>
      </trkpt>
      <trkpt lat="44.16651" lon="6.63924">
        <ele>1588.5999755859</ele>
        <time>2022-07-09T08:59:49.000Z</time>
      </trkpt>
      <trkpt lat="44.16647" lon="6.63926">
        <ele>1589</ele>
        <time>2022-07-09T08:59:52.000Z</time>
      </trkpt>
      <trkpt lat="44.16643" lon="6.6393">
        <ele>1589.5999755859</ele>
        <time>2022-07-09T08:59:56.000Z</time>
      </trkpt>
      <trkpt lat="44.16641" lon="6.63932">
        <ele>1589.5999755859</ele>
        <time>2022-07-09T08:59:58.000Z</time>
      </trkpt>
      <trkpt lat="44.16633" lon="6.63939">
        <ele>1590.1999511719</ele>
        <time>2022-07-09T09:00:05.000Z</time>
      </trkpt>
      <trkpt lat="44.1663" lon="6.63943">
        <ele>1590.5999755859</ele>
        <time>2022-07-09T09:00:08.000Z</time>
      </trkpt>
      <trkpt lat="44.16628" lon="6.63951">
        <ele>1591</ele>
        <time>2022-07-09T09:00:12.000Z</time>
      </trkpt>
      <trkpt lat="44.16627" lon="6.63961">
        <ele>1591.8000488281</ele>
        <time>2022-07-09T09:00:17.000Z</time>
      </trkpt>
      <trkpt lat="44.16626" lon="6.63969">
        <ele>1592.1999511719</ele>
        <time>2022-07-09T09:00:21.000Z</time>
      </trkpt>
      <trkpt lat="44.16624" lon="6.63984">
        <ele>1592.8000488281</ele>
        <time>2022-07-09T09:00:28.000Z</time>
      </trkpt>
      <trkpt lat="44.16624" lon="6.63986">
        <ele>1592.8000488281</ele>
        <time>2022-07-09T09:00:29.000Z</time>
      </trkpt>
      <trkpt lat="44.16619" lon="6.64002">
        <ele>1593.8000488281</ele>
        <time>2022-07-09T09:00:37.000Z</time>
      </trkpt>
      <trkpt lat="44.16614" lon="6.64011">
        <ele>1594.8000488281</ele>
        <time>2022-07-09T09:00:43.000Z</time>
      </trkpt>
      <trkpt lat="44.16612" lon="6.64014">
        <ele>1594.8000488281</ele>
        <time>2022-07-09T09:00:45.000Z</time>
      </trkpt>
      <trkpt lat="44.16608" lon="6.64019">
        <ele>1595.5999755859</ele>
        <time>2022-07-09T09:00:49.000Z</time>
      </trkpt>
      <trkpt lat="44.16605" lon="6.64023">
        <ele>1596</ele>
        <time>2022-07-09T09:00:52.000Z</time>
      </trkpt>
      <trkpt lat="44.16599" lon="6.64029">
        <ele>1597.1999511719</ele>
        <time>2022-07-09T09:00:58.000Z</time>
      </trkpt>
      <trkpt lat="44.16592" lon="6.64034">
        <ele>1597.8000488281</ele>
        <time>2022-07-09T09:01:04.000Z</time>
      </trkpt>
      <trkpt lat="44.16588" lon="6.64036">
        <ele>1598.1999511719</ele>
        <time>2022-07-09T09:01:07.000Z</time>
      </trkpt>
      <trkpt lat="44.16582" lon="6.64039">
        <ele>1599</ele>
        <time>2022-07-09T09:01:12.000Z</time>
      </trkpt>
      <trkpt lat="44.16579" lon="6.6404">
        <ele>1599.4000244141</ele>
        <time>2022-07-09T09:01:15.000Z</time>
      </trkpt>
      <trkpt lat="44.16569" lon="6.64042">
        <ele>1600.1999511719</ele>
        <time>2022-07-09T09:01:22.000Z</time>
      </trkpt>
      <trkpt lat="44.16565" lon="6.64043">
        <ele>1600.4000244141</ele>
        <time>2022-07-09T09:01:25.000Z</time>
      </trkpt>
      <trkpt lat="44.16554" lon="6.64043">
        <ele>1601.1999511719</ele>
        <time>2022-07-09T09:01:32.000Z</time>
      </trkpt>
      <trkpt lat="44.1655" lon="6.64043">
        <ele>1601.4000244141</ele>
        <time>2022-07-09T09:01:35.000Z</time>
      </trkpt>
      <trkpt lat="44.1654" lon="6.64044">
        <ele>1601.5999755859</ele>
        <time>2022-07-09T09:01:40.000Z</time>
      </trkpt>
      <trkpt lat="44.1653" lon="6.64055">
        <ele>1602</ele>
        <time>2022-07-09T09:01:46.000Z</time>
      </trkpt>
      <trkpt lat="44.16517" lon="6.64077">
        <ele>1602.5999755859</ele>
        <time>2022-07-09T09:01:54.000Z</time>
      </trkpt>
      <trkpt lat="44.16513" lon="6.64083">
        <ele>1602.4000244141</ele>
        <time>2022-07-09T09:01:56.000Z</time>
      </trkpt>
      <trkpt lat="44.16497" lon="6.641">
        <ele>1602.5999755859</ele>
        <time>2022-07-09T09:02:03.000Z</time>
      </trkpt>
      <trkpt lat="44.16482" lon="6.64112">
        <ele>1603.1999511719</ele>
        <time>2022-07-09T09:02:09.000Z</time>
      </trkpt>
      <trkpt lat="44.16468" lon="6.64131">
        <ele>1603.4000244141</ele>
        <time>2022-07-09T09:02:15.000Z</time>
      </trkpt>
      <trkpt lat="44.16463" lon="6.64138">
        <ele>1603.5999755859</ele>
        <time>2022-07-09T09:02:17.000Z</time>
      </trkpt>
      <trkpt lat="44.16448" lon="6.64159">
        <ele>1603.8000488281</ele>
        <time>2022-07-09T09:02:23.000Z</time>
      </trkpt>
      <trkpt lat="44.16429" lon="6.64193">
        <ele>1604</ele>
        <time>2022-07-09T09:02:31.000Z</time>
      </trkpt>
      <trkpt lat="44.1641" lon="6.64232">
        <ele>1604.1999511719</ele>
        <time>2022-07-09T09:02:39.000Z</time>
      </trkpt>
      <trkpt lat="44.16395" lon="6.64261">
        <ele>1604</ele>
        <time>2022-07-09T09:02:45.000Z</time>
      </trkpt>
      <trkpt lat="44.16385" lon="6.6429">
        <ele>1604.1999511719</ele>
        <time>2022-07-09T09:02:51.000Z</time>
      </trkpt>
      <trkpt lat="44.16379" lon="6.64328">
        <ele>1604.4000244141</ele>
        <time>2022-07-09T09:02:58.000Z</time>
      </trkpt>
      <trkpt lat="44.16375" lon="6.64345">
        <ele>1604.1999511719</ele>
        <time>2022-07-09T09:03:01.000Z</time>
      </trkpt>
      <trkpt lat="44.16372" lon="6.64355">
        <ele>1604.5999755859</ele>
        <time>2022-07-09T09:03:03.000Z</time>
      </trkpt>
      <trkpt lat="44.16368" lon="6.64366">
        <ele>1605</ele>
        <time>2022-07-09T09:03:05.000Z</time>
      </trkpt>
      <trkpt lat="44.1636" lon="6.64393">
        <ele>1605</ele>
        <time>2022-07-09T09:03:10.000Z</time>
      </trkpt>
      <trkpt lat="44.16356" lon="6.64404">
        <ele>1605.1999511719</ele>
        <time>2022-07-09T09:03:12.000Z</time>
      </trkpt>
      <trkpt lat="44.16349" lon="6.64426">
        <ele>1605.4000244141</ele>
        <time>2022-07-09T09:03:16.000Z</time>
      </trkpt>
      <trkpt lat="44.16344" lon="6.64436">
        <ele>1605.5999755859</ele>
        <time>2022-07-09T09:03:18.000Z</time>
      </trkpt>
      <trkpt lat="44.16335" lon="6.64453">
        <ele>1605.8000488281</ele>
        <time>2022-07-09T09:03:21.000Z</time>
      </trkpt>
      <trkpt lat="44.16329" lon="6.64469">
        <ele>1605.5999755859</ele>
        <time>2022-07-09T09:03:24.000Z</time>
      </trkpt>
      <trkpt lat="44.16316" lon="6.645">
        <ele>1605.8000488281</ele>
        <time>2022-07-09T09:03:30.000Z</time>
      </trkpt>
      <trkpt lat="44.16313" lon="6.64505">
        <ele>1605.8000488281</ele>
        <time>2022-07-09T09:03:31.000Z</time>
      </trkpt>
      <trkpt lat="44.16295" lon="6.64533">
        <ele>1605.5999755859</ele>
        <time>2022-07-09T09:03:37.000Z</time>
      </trkpt>
      <trkpt lat="44.16269" lon="6.64565">
        <ele>1605.5999755859</ele>
        <time>2022-07-09T09:03:44.000Z</time>
      </trkpt>
      <trkpt lat="44.16247" lon="6.64593">
        <ele>1605.1999511719</ele>
        <time>2022-07-09T09:03:50.000Z</time>
      </trkpt>
      <trkpt lat="44.16243" lon="6.64597">
        <ele>1605.1999511719</ele>
        <time>2022-07-09T09:03:51.000Z</time>
      </trkpt>
      <trkpt lat="44.16219" lon="6.64618">
        <ele>1604.8000488281</ele>
        <time>2022-07-09T09:03:56.000Z</time>
      </trkpt>
      <trkpt lat="44.16215" lon="6.64624">
        <ele>1604.5999755859</ele>
        <time>2022-07-09T09:03:57.000Z</time>
      </trkpt>
      <trkpt lat="44.16198" lon="6.6466">
        <ele>1603.8000488281</ele>
        <time>2022-07-09T09:04:02.000Z</time>
      </trkpt>
      <trkpt lat="44.16195" lon="6.64666">
        <ele>1603.5999755859</ele>
        <time>2022-07-09T09:04:03.000Z</time>
      </trkpt>
      <trkpt lat="44.16181" lon="6.6469">
        <ele>1603.4000244141</ele>
        <time>2022-07-09T09:04:07.000Z</time>
      </trkpt>
      <trkpt lat="44.16177" lon="6.64695">
        <ele>1603.5999755859</ele>
        <time>2022-07-09T09:04:08.000Z</time>
      </trkpt>
      <trkpt lat="44.1616" lon="6.64716">
        <ele>1604.5999755859</ele>
        <time>2022-07-09T09:04:13.000Z</time>
      </trkpt>
      <trkpt lat="44.16157" lon="6.64721">
        <ele>1605</ele>
        <time>2022-07-09T09:04:14.000Z</time>
      </trkpt>
      <trkpt lat="44.16155" lon="6.64725">
        <ele>1605.1999511719</ele>
        <time>2022-07-09T09:04:15.000Z</time>
      </trkpt>
      <trkpt lat="44.16148" lon="6.64736">
        <ele>1606</ele>
        <time>2022-07-09T09:04:18.000Z</time>
      </trkpt>
      <trkpt lat="44.1614" lon="6.64744">
        <ele>1606.4000244141</ele>
        <time>2022-07-09T09:04:21.000Z</time>
      </trkpt>
      <trkpt lat="44.16125" lon="6.64758">
        <ele>1606.8000488281</ele>
        <time>2022-07-09T09:04:26.000Z</time>
      </trkpt>
      <trkpt lat="44.16123" lon="6.6476">
        <ele>1607.1999511719</ele>
        <time>2022-07-09T09:04:27.000Z</time>
      </trkpt>
      <trkpt lat="44.16115" lon="6.64769">
        <ele>1608.4000244141</ele>
        <time>2022-07-09T09:04:31.000Z</time>
      </trkpt>
      <trkpt lat="44.16109" lon="6.64774">
        <ele>1609.4000244141</ele>
        <time>2022-07-09T09:04:34.000Z</time>
      </trkpt>
      <trkpt lat="44.161" lon="6.64781">
        <ele>1610.5999755859</ele>
        <time>2022-07-09T09:04:38.000Z</time>
      </trkpt>
      <trkpt lat="44.16096" lon="6.64784">
        <ele>1610.8000488281</ele>
        <time>2022-07-09T09:04:40.000Z</time>
      </trkpt>
      <trkpt lat="44.1609" lon="6.64791">
        <ele>1611.5999755859</ele>
        <time>2022-07-09T09:04:44.000Z</time>
      </trkpt>
      <trkpt lat="44.16086" lon="6.64794">
        <ele>1612</ele>
        <time>2022-07-09T09:04:46.000Z</time>
      </trkpt>
      <trkpt lat="44.16081" lon="6.648">
        <ele>1612.8000488281</ele>
        <time>2022-07-09T09:04:49.000Z</time>
      </trkpt>
      <trkpt lat="44.16075" lon="6.64806">
        <ele>1613.4000244141</ele>
        <time>2022-07-09T09:04:52.000Z</time>
      </trkpt>
      <trkpt lat="44.1607" lon="6.64813">
        <ele>1614</ele>
        <time>2022-07-09T09:04:55.000Z</time>
      </trkpt>
      <trkpt lat="44.16063" lon="6.64822">
        <ele>1614</ele>
        <time>2022-07-09T09:04:58.000Z</time>
      </trkpt>
      <trkpt lat="44.16056" lon="6.64833">
        <ele>1615.1999511719</ele>
        <time>2022-07-09T09:05:02.000Z</time>
      </trkpt>
      <trkpt lat="44.1605" lon="6.6484">
        <ele>1615.5999755859</ele>
        <time>2022-07-09T09:05:05.000Z</time>
      </trkpt>
      <trkpt lat="44.16041" lon="6.64852">
        <ele>1616.1999511719</ele>
        <time>2022-07-09T09:05:10.000Z</time>
      </trkpt>
      <trkpt lat="44.16033" lon="6.64859">
        <ele>1616.5999755859</ele>
        <time>2022-07-09T09:05:13.000Z</time>
      </trkpt>
      <trkpt lat="44.16014" lon="6.6488">
        <ele>1617</ele>
        <time>2022-07-09T09:05:21.000Z</time>
      </trkpt>
      <trkpt lat="44.1601" lon="6.64886">
        <ele>1617.1999511719</ele>
        <time>2022-07-09T09:05:23.000Z</time>
      </trkpt>
      <trkpt lat="44.15996" lon="6.64907">
        <ele>1617.5999755859</ele>
        <time>2022-07-09T09:05:29.000Z</time>
      </trkpt>
      <trkpt lat="44.15983" lon="6.64935">
        <ele>1618</ele>
        <time>2022-07-09T09:05:35.000Z</time>
      </trkpt>
      <trkpt lat="44.15982" lon="6.64959">
        <ele>1618</ele>
        <time>2022-07-09T09:05:39.000Z</time>
      </trkpt>
      <trkpt lat="44.15975" lon="6.64988">
        <ele>1618</ele>
        <time>2022-07-09T09:05:44.000Z</time>
      </trkpt>
      <trkpt lat="44.15972" lon="6.64993">
        <ele>1618</ele>
        <time>2022-07-09T09:05:45.000Z</time>
      </trkpt>
      <trkpt lat="44.1596" lon="6.65013">
        <ele>1618.1999511719</ele>
        <time>2022-07-09T09:05:49.000Z</time>
      </trkpt>
      <trkpt lat="44.15954" lon="6.65022">
        <ele>1618.4000244141</ele>
        <time>2022-07-09T09:05:51.000Z</time>
      </trkpt>
      <trkpt lat="44.1595" lon="6.65026">
        <ele>1618.4000244141</ele>
        <time>2022-07-09T09:05:52.000Z</time>
      </trkpt>
      <trkpt lat="44.15928" lon="6.65061">
        <ele>1618.4000244141</ele>
        <time>2022-07-09T09:05:59.000Z</time>
      </trkpt>
      <trkpt lat="44.15909" lon="6.65093">
        <ele>1618.5999755859</ele>
        <time>2022-07-09T09:06:05.000Z</time>
      </trkpt>
      <trkpt lat="44.15906" lon="6.65099">
        <ele>1618.5999755859</ele>
        <time>2022-07-09T09:06:06.000Z</time>
      </trkpt>
      <trkpt lat="44.15885" lon="6.6514">
        <ele>1618.5999755859</ele>
        <time>2022-07-09T09:06:13.000Z</time>
      </trkpt>
      <trkpt lat="44.15869" lon="6.65186">
        <ele>1618.5999755859</ele>
        <time>2022-07-09T09:06:20.000Z</time>
      </trkpt>
      <trkpt lat="44.15866" lon="6.65192">
        <ele>1618.1999511719</ele>
        <time>2022-07-09T09:06:21.000Z</time>
      </trkpt>
      <trkpt lat="44.15858" lon="6.65202">
        <ele>1618</ele>
        <time>2022-07-09T09:06:23.000Z</time>
      </trkpt>
      <trkpt lat="44.1585" lon="6.65212">
        <ele>1618</ele>
        <time>2022-07-09T09:06:25.000Z</time>
      </trkpt>
      <trkpt lat="44.15846" lon="6.65226">
        <ele>1617.8000488281</ele>
        <time>2022-07-09T09:06:27.000Z</time>
      </trkpt>
      <trkpt lat="44.15844" lon="6.6524">
        <ele>1617.5999755859</ele>
        <time>2022-07-09T09:06:29.000Z</time>
      </trkpt>
      <trkpt lat="44.1584" lon="6.65263">
        <ele>1617.5999755859</ele>
        <time>2022-07-09T09:06:32.000Z</time>
      </trkpt>
      <trkpt lat="44.15836" lon="6.65294">
        <ele>1617.1999511719</ele>
        <time>2022-07-09T09:06:36.000Z</time>
      </trkpt>
      <trkpt lat="44.15832" lon="6.65316">
        <ele>1617</ele>
        <time>2022-07-09T09:06:39.000Z</time>
      </trkpt>
      <trkpt lat="44.15822" lon="6.6536">
        <ele>1617.8000488281</ele>
        <time>2022-07-09T09:06:46.000Z</time>
      </trkpt>
      <trkpt lat="44.15819" lon="6.65372">
        <ele>1618.1999511719</ele>
        <time>2022-07-09T09:06:48.000Z</time>
      </trkpt>
      <trkpt lat="44.15809" lon="6.65401">
        <ele>1618.1999511719</ele>
        <time>2022-07-09T09:06:53.000Z</time>
      </trkpt>
      <trkpt lat="44.15795" lon="6.65436">
        <ele>1619.1999511719</ele>
        <time>2022-07-09T09:07:00.000Z</time>
      </trkpt>
      <trkpt lat="44.15785" lon="6.65454">
        <ele>1620.4000244141</ele>
        <time>2022-07-09T09:07:05.000Z</time>
      </trkpt>
      <trkpt lat="44.15784" lon="6.65457">
        <ele>1620.5999755859</ele>
        <time>2022-07-09T09:07:06.000Z</time>
      </trkpt>
      <trkpt lat="44.15778" lon="6.65468">
        <ele>1621.5999755859</ele>
        <time>2022-07-09T09:07:10.000Z</time>
      </trkpt>
      <trkpt lat="44.15775" lon="6.65476">
        <ele>1622.1999511719</ele>
        <time>2022-07-09T09:07:13.000Z</time>
      </trkpt>
      <trkpt lat="44.15773" lon="6.6548">
        <ele>1622.5999755859</ele>
        <time>2022-07-09T09:07:15.000Z</time>
      </trkpt>
      <trkpt lat="44.15769" lon="6.65488">
        <ele>1623.5999755859</ele>
        <time>2022-07-09T09:07:19.000Z</time>
      </trkpt>
      <trkpt lat="44.15768" lon="6.6549">
        <ele>1623.8000488281</ele>
        <time>2022-07-09T09:07:20.000Z</time>
      </trkpt>
      <trkpt lat="44.15764" lon="6.65495">
        <ele>1624.5999755859</ele>
        <time>2022-07-09T09:07:23.000Z</time>
      </trkpt>
      <trkpt lat="44.1576" lon="6.65504">
        <ele>1625.4000244141</ele>
        <time>2022-07-09T09:07:27.000Z</time>
      </trkpt>
      <trkpt lat="44.15757" lon="6.65507">
        <ele>1625.8000488281</ele>
        <time>2022-07-09T09:07:29.000Z</time>
      </trkpt>
      <trkpt lat="44.15749" lon="6.65515">
        <ele>1626.5999755859</ele>
        <time>2022-07-09T09:07:35.000Z</time>
      </trkpt>
      <trkpt lat="44.15746" lon="6.65517">
        <ele>1626.8000488281</ele>
        <time>2022-07-09T09:07:37.000Z</time>
      </trkpt>
      <trkpt lat="44.15743" lon="6.6552">
        <ele>1627</ele>
        <time>2022-07-09T09:07:41.000Z</time>
      </trkpt>
      <trkpt lat="44.15742" lon="6.65521">
        <ele>1627.1999511719</ele>
        <time>2022-07-09T09:07:46.000Z</time>
      </trkpt>
      <trkpt lat="44.15742" lon="6.65521">
        <ele>1627.5999755859</ele>
        <time>2022-07-09T09:08:05.000Z</time>
      </trkpt>
      <trkpt lat="44.15742" lon="6.65521">
        <ele>1627.8000488281</ele>
        <time>2022-07-09T09:08:21.000Z</time>
      </trkpt>
      <trkpt lat="44.15742" lon="6.65521">
        <ele>1627.8000488281</ele>
        <time>2022-07-09T09:08:43.000Z</time>
      </trkpt>
      <trkpt lat="44.1574" lon="6.65525">
        <ele>1627.5999755859</ele>
        <time>2022-07-09T09:08:52.000Z</time>
      </trkpt>
      <trkpt lat="44.15739" lon="6.65525">
        <ele>1627.5999755859</ele>
        <time>2022-07-09T09:08:53.000Z</time>
      </trkpt>
      <trkpt lat="44.15734" lon="6.65524">
        <ele>1627.4000244141</ele>
        <time>2022-07-09T09:08:56.000Z</time>
      </trkpt>
      <trkpt lat="44.15725" lon="6.6553">
        <ele>1627</ele>
        <time>2022-07-09T09:09:00.000Z</time>
      </trkpt>
      <trkpt lat="44.15717" lon="6.65538">
        <ele>1626.8000488281</ele>
        <time>2022-07-09T09:09:05.000Z</time>
      </trkpt>
      <trkpt lat="44.15707" lon="6.65555">
        <ele>1628</ele>
        <time>2022-07-09T09:09:12.000Z</time>
      </trkpt>
      <trkpt lat="44.15702" lon="6.65571">
        <ele>1628.8000488281</ele>
        <time>2022-07-09T09:09:17.000Z</time>
      </trkpt>
      <trkpt lat="44.15701" lon="6.65579">
        <ele>1628.8000488281</ele>
        <time>2022-07-09T09:09:19.000Z</time>
      </trkpt>
      <trkpt lat="44.15697" lon="6.65601">
        <ele>1629.5999755859</ele>
        <time>2022-07-09T09:09:26.000Z</time>
      </trkpt>
      <trkpt lat="44.15696" lon="6.65604">
        <ele>1629.8000488281</ele>
        <time>2022-07-09T09:09:27.000Z</time>
      </trkpt>
      <trkpt lat="44.15694" lon="6.65619">
        <ele>1631</ele>
        <time>2022-07-09T09:09:32.000Z</time>
      </trkpt>
      <trkpt lat="44.15693" lon="6.65622">
        <ele>1631</ele>
        <time>2022-07-09T09:09:33.000Z</time>
      </trkpt>
      <trkpt lat="44.1569" lon="6.65642">
        <ele>1631.8000488281</ele>
        <time>2022-07-09T09:09:40.000Z</time>
      </trkpt>
      <trkpt lat="44.1569" lon="6.65645">
        <ele>1632</ele>
        <time>2022-07-09T09:09:41.000Z</time>
      </trkpt>
      <trkpt lat="44.15689" lon="6.65656">
        <ele>1632.4000244141</ele>
        <time>2022-07-09T09:09:45.000Z</time>
      </trkpt>
      <trkpt lat="44.15684" lon="6.65669">
        <ele>1633</ele>
        <time>2022-07-09T09:09:51.000Z</time>
      </trkpt>
      <trkpt lat="44.15681" lon="6.65679">
        <ele>1633.5999755859</ele>
        <time>2022-07-09T09:09:54.000Z</time>
      </trkpt>
      <trkpt lat="44.15676" lon="6.65691">
        <ele>1634.1999511719</ele>
        <time>2022-07-09T09:09:58.000Z</time>
      </trkpt>
      <trkpt lat="44.15672" lon="6.65699">
        <ele>1635.1999511719</ele>
        <time>2022-07-09T09:10:01.000Z</time>
      </trkpt>
      <trkpt lat="44.15671" lon="6.65701">
        <ele>1635.4000244141</ele>
        <time>2022-07-09T09:10:02.000Z</time>
      </trkpt>
      <trkpt lat="44.15664" lon="6.65715">
        <ele>1636.4000244141</ele>
        <time>2022-07-09T09:10:08.000Z</time>
      </trkpt>
      <trkpt lat="44.15663" lon="6.65718">
        <ele>1636.8000488281</ele>
        <time>2022-07-09T09:10:09.000Z</time>
      </trkpt>
      <trkpt lat="44.15658" lon="6.65727">
        <ele>1637.5999755859</ele>
        <time>2022-07-09T09:10:13.000Z</time>
      </trkpt>
      <trkpt lat="44.15653" lon="6.65736">
        <ele>1638.1999511719</ele>
        <time>2022-07-09T09:10:17.000Z</time>
      </trkpt>
      <trkpt lat="44.15648" lon="6.65744">
        <ele>1638.5999755859</ele>
        <time>2022-07-09T09:10:21.000Z</time>
      </trkpt>
      <trkpt lat="44.15642" lon="6.65751">
        <ele>1639.1999511719</ele>
        <time>2022-07-09T09:10:25.000Z</time>
      </trkpt>
      <trkpt lat="44.15638" lon="6.65756">
        <ele>1639.8000488281</ele>
        <time>2022-07-09T09:10:27.000Z</time>
      </trkpt>
      <trkpt lat="44.15633" lon="6.65766">
        <ele>1640.4000244141</ele>
        <time>2022-07-09T09:10:31.000Z</time>
      </trkpt>
      <trkpt lat="44.15631" lon="6.65769">
        <ele>1640.8000488281</ele>
        <time>2022-07-09T09:10:33.000Z</time>
      </trkpt>
      <trkpt lat="44.15626" lon="6.65777">
        <ele>1641.5999755859</ele>
        <time>2022-07-09T09:10:38.000Z</time>
      </trkpt>
      <trkpt lat="44.15624" lon="6.6578">
        <ele>1641.8000488281</ele>
        <time>2022-07-09T09:10:39.000Z</time>
      </trkpt>
      <trkpt lat="44.15617" lon="6.65792">
        <ele>1642.8000488281</ele>
        <time>2022-07-09T09:10:45.000Z</time>
      </trkpt>
      <trkpt lat="44.15614" lon="6.65795">
        <ele>1643.1999511719</ele>
        <time>2022-07-09T09:10:47.000Z</time>
      </trkpt>
      <trkpt lat="44.15608" lon="6.65802">
        <ele>1644</ele>
        <time>2022-07-09T09:10:51.000Z</time>
      </trkpt>
      <trkpt lat="44.15602" lon="6.65805">
        <ele>1644.5999755859</ele>
        <time>2022-07-09T09:10:54.000Z</time>
      </trkpt>
      <trkpt lat="44.15594" lon="6.65809">
        <ele>1645.1999511719</ele>
        <time>2022-07-09T09:10:59.000Z</time>
      </trkpt>
      <trkpt lat="44.1559" lon="6.65809">
        <ele>1645.8000488281</ele>
        <time>2022-07-09T09:11:02.000Z</time>
      </trkpt>
      <trkpt lat="44.15586" lon="6.65809">
        <ele>1646.1999511719</ele>
        <time>2022-07-09T09:11:04.000Z</time>
      </trkpt>
      <trkpt lat="44.15575" lon="6.65809">
        <ele>1647</ele>
        <time>2022-07-09T09:11:11.000Z</time>
      </trkpt>
      <trkpt lat="44.15571" lon="6.65809">
        <ele>1647.1999511719</ele>
        <time>2022-07-09T09:11:13.000Z</time>
      </trkpt>
      <trkpt lat="44.15559" lon="6.65807">
        <ele>1647.8000488281</ele>
        <time>2022-07-09T09:11:19.000Z</time>
      </trkpt>
      <trkpt lat="44.15555" lon="6.65808">
        <ele>1648.1999511719</ele>
        <time>2022-07-09T09:11:21.000Z</time>
      </trkpt>
      <trkpt lat="44.15546" lon="6.6581">
        <ele>1649.1999511719</ele>
        <time>2022-07-09T09:11:26.000Z</time>
      </trkpt>
      <trkpt lat="44.15544" lon="6.6581">
        <ele>1649.4000244141</ele>
        <time>2022-07-09T09:11:27.000Z</time>
      </trkpt>
      <trkpt lat="44.15534" lon="6.65816">
        <ele>1650</ele>
        <time>2022-07-09T09:11:33.000Z</time>
      </trkpt>
      <trkpt lat="44.1553" lon="6.6582">
        <ele>1650.4000244141</ele>
        <time>2022-07-09T09:11:36.000Z</time>
      </trkpt>
      <trkpt lat="44.15523" lon="6.65831">
        <ele>1650.5999755859</ele>
        <time>2022-07-09T09:11:41.000Z</time>
      </trkpt>
      <trkpt lat="44.15515" lon="6.65847">
        <ele>1651.4000244141</ele>
        <time>2022-07-09T09:11:49.000Z</time>
      </trkpt>
      <trkpt lat="44.15514" lon="6.6585">
        <ele>1651.5999755859</ele>
        <time>2022-07-09T09:11:50.000Z</time>
      </trkpt>
      <trkpt lat="44.15509" lon="6.65868">
        <ele>1652.4000244141</ele>
        <time>2022-07-09T09:11:58.000Z</time>
      </trkpt>
      <trkpt lat="44.15506" lon="6.65883">
        <ele>1653.4000244141</ele>
        <time>2022-07-09T09:12:05.000Z</time>
      </trkpt>
      <trkpt lat="44.15506" lon="6.65886">
        <ele>1653.5999755859</ele>
        <time>2022-07-09T09:12:06.000Z</time>
      </trkpt>
      <trkpt lat="44.15504" lon="6.65898">
        <ele>1654.5999755859</ele>
        <time>2022-07-09T09:12:12.000Z</time>
      </trkpt>
      <trkpt lat="44.15504" lon="6.659">
        <ele>1654.5999755859</ele>
        <time>2022-07-09T09:12:13.000Z</time>
      </trkpt>
      <trkpt lat="44.15503" lon="6.65913">
        <ele>1655.8000488281</ele>
        <time>2022-07-09T09:12:19.000Z</time>
      </trkpt>
      <trkpt lat="44.15503" lon="6.65917">
        <ele>1656</ele>
        <time>2022-07-09T09:12:21.000Z</time>
      </trkpt>
      <trkpt lat="44.15503" lon="6.65932">
        <ele>1656.8000488281</ele>
        <time>2022-07-09T09:12:29.000Z</time>
      </trkpt>
      <trkpt lat="44.15503" lon="6.65934">
        <ele>1656.8000488281</ele>
        <time>2022-07-09T09:12:30.000Z</time>
      </trkpt>
      <trkpt lat="44.15506" lon="6.65949">
        <ele>1657.5999755859</ele>
        <time>2022-07-09T09:12:37.000Z</time>
      </trkpt>
      <trkpt lat="44.15507" lon="6.65957">
        <ele>1658</ele>
        <time>2022-07-09T09:12:40.000Z</time>
      </trkpt>
      <trkpt lat="44.15508" lon="6.65967">
        <ele>1658.4000244141</ele>
        <time>2022-07-09T09:12:44.000Z</time>
      </trkpt>
      <trkpt lat="44.15513" lon="6.65988">
        <ele>1659</ele>
        <time>2022-07-09T09:12:51.000Z</time>
      </trkpt>
      <trkpt lat="44.15514" lon="6.65991">
        <ele>1659</ele>
        <time>2022-07-09T09:12:52.000Z</time>
      </trkpt>
      <trkpt lat="44.15518" lon="6.66019">
        <ele>1659.8000488281</ele>
        <time>2022-07-09T09:13:01.000Z</time>
      </trkpt>
      <trkpt lat="44.15519" lon="6.66021">
        <ele>1660</ele>
        <time>2022-07-09T09:13:02.000Z</time>
      </trkpt>
      <trkpt lat="44.1552" lon="6.66039">
        <ele>1660.5999755859</ele>
        <time>2022-07-09T09:13:08.000Z</time>
      </trkpt>
      <trkpt lat="44.1552" lon="6.66051">
        <ele>1661</ele>
        <time>2022-07-09T09:13:12.000Z</time>
      </trkpt>
      <trkpt lat="44.15521" lon="6.66061">
        <ele>1661.4000244141</ele>
        <time>2022-07-09T09:13:15.000Z</time>
      </trkpt>
      <trkpt lat="44.15522" lon="6.66074">
        <ele>1662</ele>
        <time>2022-07-09T09:13:19.000Z</time>
      </trkpt>
      <trkpt lat="44.15523" lon="6.66083">
        <ele>1662.5999755859</ele>
        <time>2022-07-09T09:13:22.000Z</time>
      </trkpt>
      <trkpt lat="44.15523" lon="6.66091">
        <ele>1663.1999511719</ele>
        <time>2022-07-09T09:13:25.000Z</time>
      </trkpt>
      <trkpt lat="44.15524" lon="6.66105">
        <ele>1664.1999511719</ele>
        <time>2022-07-09T09:13:30.000Z</time>
      </trkpt>
      <trkpt lat="44.15524" lon="6.66107">
        <ele>1664.4000244141</ele>
        <time>2022-07-09T09:13:31.000Z</time>
      </trkpt>
      <trkpt lat="44.15523" lon="6.6612">
        <ele>1665</ele>
        <time>2022-07-09T09:13:36.000Z</time>
      </trkpt>
      <trkpt lat="44.15521" lon="6.66125">
        <ele>1665.4000244141</ele>
        <time>2022-07-09T09:13:38.000Z</time>
      </trkpt>
      <trkpt lat="44.15518" lon="6.66138">
        <ele>1665.8000488281</ele>
        <time>2022-07-09T09:13:43.000Z</time>
      </trkpt>
      <trkpt lat="44.15514" lon="6.66147">
        <ele>1666.5999755859</ele>
        <time>2022-07-09T09:13:47.000Z</time>
      </trkpt>
      <trkpt lat="44.1551" lon="6.66161">
        <ele>1667</ele>
        <time>2022-07-09T09:13:52.000Z</time>
      </trkpt>
      <trkpt lat="44.155" lon="6.66187">
        <ele>1667.4000244141</ele>
        <time>2022-07-09T09:13:59.000Z</time>
      </trkpt>
      <trkpt lat="44.15495" lon="6.66197">
        <ele>1667.1999511719</ele>
        <time>2022-07-09T09:14:01.000Z</time>
      </trkpt>
      <trkpt lat="44.15486" lon="6.66214">
        <ele>1666.5999755859</ele>
        <time>2022-07-09T09:14:04.000Z</time>
      </trkpt>
      <trkpt lat="44.15469" lon="6.66236">
        <ele>1665.4000244141</ele>
        <time>2022-07-09T09:14:08.000Z</time>
      </trkpt>
      <trkpt lat="44.15459" lon="6.66246">
        <ele>1665.1999511719</ele>
        <time>2022-07-09T09:14:10.000Z</time>
      </trkpt>
      <trkpt lat="44.15454" lon="6.66252">
        <ele>1665</ele>
        <time>2022-07-09T09:14:11.000Z</time>
      </trkpt>
      <trkpt lat="44.15436" lon="6.66274">
        <ele>1665</ele>
        <time>2022-07-09T09:14:15.000Z</time>
      </trkpt>
      <trkpt lat="44.15412" lon="6.66304">
        <ele>1665.1999511719</ele>
        <time>2022-07-09T09:14:21.000Z</time>
      </trkpt>
      <trkpt lat="44.15387" lon="6.6634">
        <ele>1666</ele>
        <time>2022-07-09T09:14:29.000Z</time>
      </trkpt>
      <trkpt lat="44.15365" lon="6.66368">
        <ele>1666.5999755859</ele>
        <time>2022-07-09T09:14:36.000Z</time>
      </trkpt>
      <trkpt lat="44.15355" lon="6.66379">
        <ele>1667.1999511719</ele>
        <time>2022-07-09T09:14:39.000Z</time>
      </trkpt>
      <trkpt lat="44.15337" lon="6.66404">
        <ele>1667.5999755859</ele>
        <time>2022-07-09T09:14:45.000Z</time>
      </trkpt>
      <trkpt lat="44.15331" lon="6.66411">
        <ele>1668</ele>
        <time>2022-07-09T09:14:47.000Z</time>
      </trkpt>
      <trkpt lat="44.15321" lon="6.6642">
        <ele>1668.1999511719</ele>
        <time>2022-07-09T09:14:50.000Z</time>
      </trkpt>
      <trkpt lat="44.15316" lon="6.66427">
        <ele>1668.5999755859</ele>
        <time>2022-07-09T09:14:52.000Z</time>
      </trkpt>
      <trkpt lat="44.15314" lon="6.6643">
        <ele>1668.8000488281</ele>
        <time>2022-07-09T09:14:53.000Z</time>
      </trkpt>
      <trkpt lat="44.15313" lon="6.6644">
        <ele>1669</ele>
        <time>2022-07-09T09:14:55.000Z</time>
      </trkpt>
      <trkpt lat="44.15314" lon="6.66445">
        <ele>1669.1999511719</ele>
        <time>2022-07-09T09:14:56.000Z</time>
      </trkpt>
      <trkpt lat="44.15315" lon="6.66455">
        <ele>1669.1999511719</ele>
        <time>2022-07-09T09:14:58.000Z</time>
      </trkpt>
      <trkpt lat="44.15313" lon="6.66471">
        <ele>1669</ele>
        <time>2022-07-09T09:15:01.000Z</time>
      </trkpt>
      <trkpt lat="44.15312" lon="6.66487">
        <ele>1669.4000244141</ele>
        <time>2022-07-09T09:15:04.000Z</time>
      </trkpt>
      <trkpt lat="44.15312" lon="6.66492">
        <ele>1669.8000488281</ele>
        <time>2022-07-09T09:15:05.000Z</time>
      </trkpt>
      <trkpt lat="44.15312" lon="6.66502">
        <ele>1669.5999755859</ele>
        <time>2022-07-09T09:15:07.000Z</time>
      </trkpt>
      <trkpt lat="44.15317" lon="6.6654">
        <ele>1669.1999511719</ele>
        <time>2022-07-09T09:15:15.000Z</time>
      </trkpt>
      <trkpt lat="44.15316" lon="6.66559">
        <ele>1670.8000488281</ele>
        <time>2022-07-09T09:15:21.000Z</time>
      </trkpt>
      <trkpt lat="44.15315" lon="6.66562">
        <ele>1671</ele>
        <time>2022-07-09T09:15:22.000Z</time>
      </trkpt>
      <trkpt lat="44.15313" lon="6.66572">
        <ele>1672</ele>
        <time>2022-07-09T09:15:25.000Z</time>
      </trkpt>
      <trkpt lat="44.15311" lon="6.66582">
        <ele>1672.5999755859</ele>
        <time>2022-07-09T09:15:28.000Z</time>
      </trkpt>
      <trkpt lat="44.15311" lon="6.66596">
        <ele>1673.4000244141</ele>
        <time>2022-07-09T09:15:34.000Z</time>
      </trkpt>
      <trkpt lat="44.15311" lon="6.66601">
        <ele>1673.8000488281</ele>
        <time>2022-07-09T09:15:36.000Z</time>
      </trkpt>
      <trkpt lat="44.15312" lon="6.66615">
        <ele>1674.4000244141</ele>
        <time>2022-07-09T09:15:41.000Z</time>
      </trkpt>
      <trkpt lat="44.15311" lon="6.66618">
        <ele>1674.5999755859</ele>
        <time>2022-07-09T09:15:42.000Z</time>
      </trkpt>
      <trkpt lat="44.1531" lon="6.66627">
        <ele>1675.5999755859</ele>
        <time>2022-07-09T09:15:46.000Z</time>
      </trkpt>
      <trkpt lat="44.15308" lon="6.66634">
        <ele>1676.5999755859</ele>
        <time>2022-07-09T09:15:50.000Z</time>
      </trkpt>
      <trkpt lat="44.15308" lon="6.66636">
        <ele>1676.8000488281</ele>
        <time>2022-07-09T09:15:51.000Z</time>
      </trkpt>
      <trkpt lat="44.15306" lon="6.66648">
        <ele>1677.8000488281</ele>
        <time>2022-07-09T09:15:57.000Z</time>
      </trkpt>
      <trkpt lat="44.15306" lon="6.6665">
        <ele>1678</ele>
        <time>2022-07-09T09:15:58.000Z</time>
      </trkpt>
      <trkpt lat="44.15302" lon="6.66663">
        <ele>1678.8000488281</ele>
        <time>2022-07-09T09:16:05.000Z</time>
      </trkpt>
      <trkpt lat="44.15301" lon="6.66667">
        <ele>1679</ele>
        <time>2022-07-09T09:16:07.000Z</time>
      </trkpt>
      <trkpt lat="44.15297" lon="6.66682">
        <ele>1679.8000488281</ele>
        <time>2022-07-09T09:16:14.000Z</time>
      </trkpt>
      <trkpt lat="44.15296" lon="6.66686">
        <ele>1680</ele>
        <time>2022-07-09T09:16:16.000Z</time>
      </trkpt>
      <trkpt lat="44.15294" lon="6.66698">
        <ele>1680.4000244141</ele>
        <time>2022-07-09T09:16:20.000Z</time>
      </trkpt>
      <trkpt lat="44.15295" lon="6.66709">
        <ele>1681</ele>
        <time>2022-07-09T09:16:23.000Z</time>
      </trkpt>
      <trkpt lat="44.15293" lon="6.66725">
        <ele>1681.4000244141</ele>
        <time>2022-07-09T09:16:27.000Z</time>
      </trkpt>
      <trkpt lat="44.15281" lon="6.66746">
        <ele>1681.4000244141</ele>
        <time>2022-07-09T09:16:33.000Z</time>
      </trkpt>
      <trkpt lat="44.1526" lon="6.66767">
        <ele>1681.1999511719</ele>
        <time>2022-07-09T09:16:40.000Z</time>
      </trkpt>
      <trkpt lat="44.15252" lon="6.66785">
        <ele>1681.1999511719</ele>
        <time>2022-07-09T09:16:44.000Z</time>
      </trkpt>
      <trkpt lat="44.15251" lon="6.6681">
        <ele>1681.5999755859</ele>
        <time>2022-07-09T09:16:50.000Z</time>
      </trkpt>
      <trkpt lat="44.15246" lon="6.66828">
        <ele>1682</ele>
        <time>2022-07-09T09:16:54.000Z</time>
      </trkpt>
      <trkpt lat="44.15244" lon="6.66833">
        <ele>1682</ele>
        <time>2022-07-09T09:16:55.000Z</time>
      </trkpt>
      <trkpt lat="44.15233" lon="6.66853">
        <ele>1681.4000244141</ele>
        <time>2022-07-09T09:16:58.000Z</time>
      </trkpt>
      <trkpt lat="44.15229" lon="6.6686">
        <ele>1681</ele>
        <time>2022-07-09T09:16:59.000Z</time>
      </trkpt>
      <trkpt lat="44.15217" lon="6.66879">
        <ele>1679.8000488281</ele>
        <time>2022-07-09T09:17:02.000Z</time>
      </trkpt>
      <trkpt lat="44.15204" lon="6.66903">
        <ele>1678.8000488281</ele>
        <time>2022-07-09T09:17:06.000Z</time>
      </trkpt>
      <trkpt lat="44.15193" lon="6.66924">
        <ele>1679.8000488281</ele>
        <time>2022-07-09T09:17:11.000Z</time>
      </trkpt>
      <trkpt lat="44.15188" lon="6.66931">
        <ele>1680.8000488281</ele>
        <time>2022-07-09T09:17:14.000Z</time>
      </trkpt>
      <trkpt lat="44.15185" lon="6.66936">
        <ele>1681.1999511719</ele>
        <time>2022-07-09T09:17:16.000Z</time>
      </trkpt>
      <trkpt lat="44.15177" lon="6.66948">
        <ele>1682</ele>
        <time>2022-07-09T09:17:20.000Z</time>
      </trkpt>
      <trkpt lat="44.15171" lon="6.66959">
        <ele>1683</ele>
        <time>2022-07-09T09:17:24.000Z</time>
      </trkpt>
      <trkpt lat="44.15166" lon="6.66968">
        <ele>1683.4000244141</ele>
        <time>2022-07-09T09:17:27.000Z</time>
      </trkpt>
      <trkpt lat="44.15155" lon="6.66988">
        <ele>1684.1999511719</ele>
        <time>2022-07-09T09:17:34.000Z</time>
      </trkpt>
      <trkpt lat="44.15151" lon="6.66994">
        <ele>1684.4000244141</ele>
        <time>2022-07-09T09:17:36.000Z</time>
      </trkpt>
      <trkpt lat="44.15141" lon="6.67015">
        <ele>1685.1999511719</ele>
        <time>2022-07-09T09:17:44.000Z</time>
      </trkpt>
      <trkpt lat="44.15134" lon="6.67032">
        <ele>1686.4000244141</ele>
        <time>2022-07-09T09:17:51.000Z</time>
      </trkpt>
      <trkpt lat="44.15133" lon="6.67034">
        <ele>1686.5999755859</ele>
        <time>2022-07-09T09:17:52.000Z</time>
      </trkpt>
      <trkpt lat="44.15131" lon="6.67047">
        <ele>1687.1999511719</ele>
        <time>2022-07-09T09:17:58.000Z</time>
      </trkpt>
      <trkpt lat="44.15131" lon="6.67049">
        <ele>1687.4000244141</ele>
        <time>2022-07-09T09:17:59.000Z</time>
      </trkpt>
      <trkpt lat="44.15133" lon="6.67061">
        <ele>1688.4000244141</ele>
        <time>2022-07-09T09:18:05.000Z</time>
      </trkpt>
      <trkpt lat="44.15133" lon="6.67063">
        <ele>1688.5999755859</ele>
        <time>2022-07-09T09:18:06.000Z</time>
      </trkpt>
      <trkpt lat="44.15137" lon="6.67073">
        <ele>1689.1999511719</ele>
        <time>2022-07-09T09:18:12.000Z</time>
      </trkpt>
      <trkpt lat="44.15137" lon="6.67074">
        <ele>1689.4000244141</ele>
        <time>2022-07-09T09:18:13.000Z</time>
      </trkpt>
      <trkpt lat="44.15139" lon="6.67077">
        <ele>1689.5999755859</ele>
        <time>2022-07-09T09:18:15.000Z</time>
      </trkpt>
      <trkpt lat="44.15145" lon="6.67084">
        <ele>1690.5999755859</ele>
        <time>2022-07-09T09:18:21.000Z</time>
      </trkpt>
      <trkpt lat="44.15151" lon="6.67092">
        <ele>1691.8000488281</ele>
        <time>2022-07-09T09:18:28.000Z</time>
      </trkpt>
      <trkpt lat="44.15159" lon="6.67102">
        <ele>1692.8000488281</ele>
        <time>2022-07-09T09:18:36.000Z</time>
      </trkpt>
      <trkpt lat="44.15165" lon="6.67111">
        <ele>1693.8000488281</ele>
        <time>2022-07-09T09:18:43.000Z</time>
      </trkpt>
      <trkpt lat="44.15166" lon="6.67112">
        <ele>1694</ele>
        <time>2022-07-09T09:18:44.000Z</time>
      </trkpt>
      <trkpt lat="44.15167" lon="6.67115">
        <ele>1694.1999511719</ele>
        <time>2022-07-09T09:18:46.000Z</time>
      </trkpt>
      <trkpt lat="44.15169" lon="6.6712">
        <ele>1694.5999755859</ele>
        <time>2022-07-09T09:18:49.000Z</time>
      </trkpt>
      <trkpt lat="44.15169" lon="6.67122">
        <ele>1694.8000488281</ele>
        <time>2022-07-09T09:18:50.000Z</time>
      </trkpt>
      <trkpt lat="44.15169" lon="6.67123">
        <ele>1695</ele>
        <time>2022-07-09T09:18:51.000Z</time>
      </trkpt>
      <trkpt lat="44.15169" lon="6.67132">
        <ele>1695.5999755859</ele>
        <time>2022-07-09T09:18:56.000Z</time>
      </trkpt>
      <trkpt lat="44.15169" lon="6.67145">
        <ele>1696</ele>
        <time>2022-07-09T09:19:02.000Z</time>
      </trkpt>
      <trkpt lat="44.15166" lon="6.67159">
        <ele>1697.1999511719</ele>
        <time>2022-07-09T09:19:10.000Z</time>
      </trkpt>
      <trkpt lat="44.15163" lon="6.67172">
        <ele>1697.8000488281</ele>
        <time>2022-07-09T09:19:18.000Z</time>
      </trkpt>
      <trkpt lat="44.15162" lon="6.67177">
        <ele>1698.4000244141</ele>
        <time>2022-07-09T09:19:21.000Z</time>
      </trkpt>
      <trkpt lat="44.15159" lon="6.67186">
        <ele>1699.1999511719</ele>
        <time>2022-07-09T09:19:26.000Z</time>
      </trkpt>
      <trkpt lat="44.15158" lon="6.67189">
        <ele>1699.4000244141</ele>
        <time>2022-07-09T09:19:28.000Z</time>
      </trkpt>
      <trkpt lat="44.15157" lon="6.67199">
        <ele>1700</ele>
        <time>2022-07-09T09:19:34.000Z</time>
      </trkpt>
      <trkpt lat="44.15157" lon="6.67202">
        <ele>1700.4000244141</ele>
        <time>2022-07-09T09:19:36.000Z</time>
      </trkpt>
      <trkpt lat="44.15158" lon="6.67212">
        <ele>1701.1999511719</ele>
        <time>2022-07-09T09:19:42.000Z</time>
      </trkpt>
      <trkpt lat="44.1516" lon="6.6722">
        <ele>1701.4000244141</ele>
        <time>2022-07-09T09:19:47.000Z</time>
      </trkpt>
      <trkpt lat="44.15162" lon="6.67223">
        <ele>1701.8000488281</ele>
        <time>2022-07-09T09:19:50.000Z</time>
      </trkpt>
      <trkpt lat="44.15166" lon="6.67227">
        <ele>1702.5999755859</ele>
        <time>2022-07-09T09:19:55.000Z</time>
      </trkpt>
      <trkpt lat="44.15168" lon="6.67228">
        <ele>1703</ele>
        <time>2022-07-09T09:19:58.000Z</time>
      </trkpt>
      <trkpt lat="44.1517" lon="6.67228">
        <ele>1703.1999511719</ele>
        <time>2022-07-09T09:20:00.000Z</time>
      </trkpt>
      <trkpt lat="44.15173" lon="6.67227">
        <ele>1703.5999755859</ele>
        <time>2022-07-09T09:20:03.000Z</time>
      </trkpt>
      <trkpt lat="44.15174" lon="6.67226">
        <ele>1703.8000488281</ele>
        <time>2022-07-09T09:20:04.000Z</time>
      </trkpt>
      <trkpt lat="44.15183" lon="6.67218">
        <ele>1704.5999755859</ele>
        <time>2022-07-09T09:20:12.000Z</time>
      </trkpt>
      <trkpt lat="44.15185" lon="6.67215">
        <ele>1704.8000488281</ele>
        <time>2022-07-09T09:20:14.000Z</time>
      </trkpt>
      <trkpt lat="44.15192" lon="6.67208">
        <ele>1705.1999511719</ele>
        <time>2022-07-09T09:20:19.000Z</time>
      </trkpt>
      <trkpt lat="44.15201" lon="6.67197">
        <ele>1705.8000488281</ele>
        <time>2022-07-09T09:20:26.000Z</time>
      </trkpt>
      <trkpt lat="44.15207" lon="6.67184">
        <ele>1706.1999511719</ele>
        <time>2022-07-09T09:20:33.000Z</time>
      </trkpt>
      <trkpt lat="44.15213" lon="6.67173">
        <ele>1706.5999755859</ele>
        <time>2022-07-09T09:20:40.000Z</time>
      </trkpt>
      <trkpt lat="44.1522" lon="6.67165">
        <ele>1707</ele>
        <time>2022-07-09T09:20:46.000Z</time>
      </trkpt>
      <trkpt lat="44.15221" lon="6.67164">
        <ele>1707</ele>
        <time>2022-07-09T09:20:47.000Z</time>
      </trkpt>
      <trkpt lat="44.15227" lon="6.67155">
        <ele>1707.5999755859</ele>
        <time>2022-07-09T09:20:53.000Z</time>
      </trkpt>
      <trkpt lat="44.15229" lon="6.6715">
        <ele>1708</ele>
        <time>2022-07-09T09:20:56.000Z</time>
      </trkpt>
      <trkpt lat="44.15231" lon="6.67143">
        <ele>1708.5999755859</ele>
        <time>2022-07-09T09:21:00.000Z</time>
      </trkpt>
      <trkpt lat="44.15232" lon="6.67138">
        <ele>1709</ele>
        <time>2022-07-09T09:21:03.000Z</time>
      </trkpt>
      <trkpt lat="44.15235" lon="6.67133">
        <ele>1709.4000244141</ele>
        <time>2022-07-09T09:21:07.000Z</time>
      </trkpt>
      <trkpt lat="44.15237" lon="6.67125">
        <ele>1710</ele>
        <time>2022-07-09T09:21:11.000Z</time>
      </trkpt>
      <trkpt lat="44.15237" lon="6.67123">
        <ele>1710.1999511719</ele>
        <time>2022-07-09T09:21:12.000Z</time>
      </trkpt>
      <trkpt lat="44.15238" lon="6.67118">
        <ele>1710.8000488281</ele>
        <time>2022-07-09T09:21:15.000Z</time>
      </trkpt>
      <trkpt lat="44.15238" lon="6.67114">
        <ele>1711.1999511719</ele>
        <time>2022-07-09T09:21:17.000Z</time>
      </trkpt>
      <trkpt lat="44.15239" lon="6.67107">
        <ele>1712</ele>
        <time>2022-07-09T09:21:22.000Z</time>
      </trkpt>
      <trkpt lat="44.15239" lon="6.67106">
        <ele>1712.1999511719</ele>
        <time>2022-07-09T09:21:23.000Z</time>
      </trkpt>
      <trkpt lat="44.15239" lon="6.67104">
        <ele>1712.4000244141</ele>
        <time>2022-07-09T09:21:24.000Z</time>
      </trkpt>
      <trkpt lat="44.15239" lon="6.67094">
        <ele>1713.4000244141</ele>
        <time>2022-07-09T09:21:30.000Z</time>
      </trkpt>
      <trkpt lat="44.1524" lon="6.67093">
        <ele>1713.5999755859</ele>
        <time>2022-07-09T09:21:31.000Z</time>
      </trkpt>
      <trkpt lat="44.15241" lon="6.6709">
        <ele>1713.8000488281</ele>
        <time>2022-07-09T09:21:33.000Z</time>
      </trkpt>
      <trkpt lat="44.15244" lon="6.67086">
        <ele>1714.4000244141</ele>
        <time>2022-07-09T09:21:37.000Z</time>
      </trkpt>
      <trkpt lat="44.15246" lon="6.67077">
        <ele>1715.4000244141</ele>
        <time>2022-07-09T09:21:43.000Z</time>
      </trkpt>
      <trkpt lat="44.15246" lon="6.67075">
        <ele>1715.5999755859</ele>
        <time>2022-07-09T09:21:44.000Z</time>
      </trkpt>
      <trkpt lat="44.15247" lon="6.67068">
        <ele>1716</ele>
        <time>2022-07-09T09:21:49.000Z</time>
      </trkpt>
      <trkpt lat="44.15248" lon="6.67066">
        <ele>1716.1999511719</ele>
        <time>2022-07-09T09:21:51.000Z</time>
      </trkpt>
      <trkpt lat="44.15248" lon="6.67061">
        <ele>1716.5999755859</ele>
        <time>2022-07-09T09:21:54.000Z</time>
      </trkpt>
      <trkpt lat="44.15251" lon="6.67049">
        <ele>1717.4000244141</ele>
        <time>2022-07-09T09:22:01.000Z</time>
      </trkpt>
      <trkpt lat="44.15253" lon="6.67044">
        <ele>1717.5999755859</ele>
        <time>2022-07-09T09:22:04.000Z</time>
      </trkpt>
      <trkpt lat="44.15253" lon="6.67043">
        <ele>1717.8000488281</ele>
        <time>2022-07-09T09:22:05.000Z</time>
      </trkpt>
      <trkpt lat="44.15254" lon="6.6704">
        <ele>1718</ele>
        <time>2022-07-09T09:22:07.000Z</time>
      </trkpt>
      <trkpt lat="44.15254" lon="6.67038">
        <ele>1718.1999511719</ele>
        <time>2022-07-09T09:22:08.000Z</time>
      </trkpt>
      <trkpt lat="44.15256" lon="6.67033">
        <ele>1718.8000488281</ele>
        <time>2022-07-09T09:22:12.000Z</time>
      </trkpt>
      <trkpt lat="44.15259" lon="6.67029">
        <ele>1719.1999511719</ele>
        <time>2022-07-09T09:22:15.000Z</time>
      </trkpt>
      <trkpt lat="44.1526" lon="6.67027">
        <ele>1719.5999755859</ele>
        <time>2022-07-09T09:22:17.000Z</time>
      </trkpt>
      <trkpt lat="44.15261" lon="6.67026">
        <ele>1719.8000488281</ele>
        <time>2022-07-09T09:22:18.000Z</time>
      </trkpt>
      <trkpt lat="44.15261" lon="6.67024">
        <ele>1720.1999511719</ele>
        <time>2022-07-09T09:22:19.000Z</time>
      </trkpt>
      <trkpt lat="44.15262" lon="6.67019">
        <ele>1720.8000488281</ele>
        <time>2022-07-09T09:22:22.000Z</time>
      </trkpt>
      <trkpt lat="44.15263" lon="6.67018">
        <ele>1721</ele>
        <time>2022-07-09T09:22:23.000Z</time>
      </trkpt>
      <trkpt lat="44.15263" lon="6.67017">
        <ele>1721.1999511719</ele>
        <time>2022-07-09T09:22:24.000Z</time>
      </trkpt>
      <trkpt lat="44.15266" lon="6.67016">
        <ele>1721.5999755859</ele>
        <time>2022-07-09T09:22:27.000Z</time>
      </trkpt>
      <trkpt lat="44.15269" lon="6.67016">
        <ele>1722</ele>
        <time>2022-07-09T09:22:29.000Z</time>
      </trkpt>
      <trkpt lat="44.15272" lon="6.67018">
        <ele>1722.1999511719</ele>
        <time>2022-07-09T09:22:32.000Z</time>
      </trkpt>
      <trkpt lat="44.15272" lon="6.67019">
        <ele>1722.1999511719</ele>
        <time>2022-07-09T09:22:33.000Z</time>
      </trkpt>
      <trkpt lat="44.15277" lon="6.67018">
        <ele>1723</ele>
        <time>2022-07-09T09:22:38.000Z</time>
      </trkpt>
      <trkpt lat="44.15283" lon="6.67017">
        <ele>1723.8000488281</ele>
        <time>2022-07-09T09:22:44.000Z</time>
      </trkpt>
      <trkpt lat="44.15284" lon="6.67017">
        <ele>1724</ele>
        <time>2022-07-09T09:22:46.000Z</time>
      </trkpt>
      <trkpt lat="44.15288" lon="6.67017">
        <ele>1724.4000244141</ele>
        <time>2022-07-09T09:22:50.000Z</time>
      </trkpt>
      <trkpt lat="44.15288" lon="6.67016">
        <ele>1724.4000244141</ele>
        <time>2022-07-09T09:22:51.000Z</time>
      </trkpt>
      <trkpt lat="44.15295" lon="6.67013">
        <ele>1725.1999511719</ele>
        <time>2022-07-09T09:22:58.000Z</time>
      </trkpt>
      <trkpt lat="44.153" lon="6.67008">
        <ele>1726.1999511719</ele>
        <time>2022-07-09T09:23:04.000Z</time>
      </trkpt>
      <trkpt lat="44.15307" lon="6.66997">
        <ele>1727.1999511719</ele>
        <time>2022-07-09T09:23:12.000Z</time>
      </trkpt>
      <trkpt lat="44.15308" lon="6.66996">
        <ele>1727.1999511719</ele>
        <time>2022-07-09T09:23:13.000Z</time>
      </trkpt>
      <trkpt lat="44.15311" lon="6.66988">
        <ele>1728</ele>
        <time>2022-07-09T09:23:18.000Z</time>
      </trkpt>
      <trkpt lat="44.15312" lon="6.66985">
        <ele>1728.4000244141</ele>
        <time>2022-07-09T09:23:20.000Z</time>
      </trkpt>
      <trkpt lat="44.15317" lon="6.6697">
        <ele>1729.4000244141</ele>
        <time>2022-07-09T09:23:28.000Z</time>
      </trkpt>
      <trkpt lat="44.15325" lon="6.66968">
        <ele>1730</ele>
        <time>2022-07-09T09:23:34.000Z</time>
      </trkpt>
      <trkpt lat="44.15326" lon="6.66968">
        <ele>1730.1999511719</ele>
        <time>2022-07-09T09:23:35.000Z</time>
      </trkpt>
      <trkpt lat="44.15327" lon="6.66971">
        <ele>1730.5999755859</ele>
        <time>2022-07-09T09:23:37.000Z</time>
      </trkpt>
      <trkpt lat="44.15328" lon="6.66974">
        <ele>1730.8000488281</ele>
        <time>2022-07-09T09:23:39.000Z</time>
      </trkpt>
      <trkpt lat="44.15327" lon="6.6698">
        <ele>1731.4000244141</ele>
        <time>2022-07-09T09:23:44.000Z</time>
      </trkpt>
      <trkpt lat="44.15326" lon="6.66981">
        <ele>1731.4000244141</ele>
        <time>2022-07-09T09:23:45.000Z</time>
      </trkpt>
      <trkpt lat="44.15325" lon="6.66982">
        <ele>1731.5999755859</ele>
        <time>2022-07-09T09:23:46.000Z</time>
      </trkpt>
      <trkpt lat="44.15324" lon="6.66986">
        <ele>1732.1999511719</ele>
        <time>2022-07-09T09:23:50.000Z</time>
      </trkpt>
      <trkpt lat="44.15324" lon="6.66987">
        <ele>1732.4000244141</ele>
        <time>2022-07-09T09:23:51.000Z</time>
      </trkpt>
      <trkpt lat="44.15324" lon="6.66992">
        <ele>1732.8000488281</ele>
        <time>2022-07-09T09:23:54.000Z</time>
      </trkpt>
      <trkpt lat="44.15323" lon="6.66998">
        <ele>1733.1999511719</ele>
        <time>2022-07-09T09:23:59.000Z</time>
      </trkpt>
      <trkpt lat="44.15322" lon="6.67004">
        <ele>1733.8000488281</ele>
        <time>2022-07-09T09:24:03.000Z</time>
      </trkpt>
      <trkpt lat="44.15322" lon="6.67008">
        <ele>1734.1999511719</ele>
        <time>2022-07-09T09:24:06.000Z</time>
      </trkpt>
      <trkpt lat="44.15324" lon="6.67014">
        <ele>1734.8000488281</ele>
        <time>2022-07-09T09:24:11.000Z</time>
      </trkpt>
      <trkpt lat="44.15324" lon="6.67015">
        <ele>1734.8000488281</ele>
        <time>2022-07-09T09:24:12.000Z</time>
      </trkpt>
      <trkpt lat="44.15324" lon="6.67023">
        <ele>1735.8000488281</ele>
        <time>2022-07-09T09:24:18.000Z</time>
      </trkpt>
      <trkpt lat="44.15324" lon="6.67025">
        <ele>1735.8000488281</ele>
        <time>2022-07-09T09:24:19.000Z</time>
      </trkpt>
      <trkpt lat="44.15323" lon="6.67034">
        <ele>1736.4000244141</ele>
        <time>2022-07-09T09:24:26.000Z</time>
      </trkpt>
      <trkpt lat="44.15322" lon="6.67038">
        <ele>1736.8000488281</ele>
        <time>2022-07-09T09:24:29.000Z</time>
      </trkpt>
      <trkpt lat="44.1532" lon="6.67041">
        <ele>1737.4000244141</ele>
        <time>2022-07-09T09:24:32.000Z</time>
      </trkpt>
      <trkpt lat="44.15319" lon="6.67044">
        <ele>1737.8000488281</ele>
        <time>2022-07-09T09:24:35.000Z</time>
      </trkpt>
      <trkpt lat="44.15318" lon="6.67049">
        <ele>1738.5999755859</ele>
        <time>2022-07-09T09:24:39.000Z</time>
      </trkpt>
      <trkpt lat="44.15317" lon="6.67053">
        <ele>1738.8000488281</ele>
        <time>2022-07-09T09:24:42.000Z</time>
      </trkpt>
      <trkpt lat="44.15316" lon="6.67057">
        <ele>1739.1999511719</ele>
        <time>2022-07-09T09:24:45.000Z</time>
      </trkpt>
      <trkpt lat="44.15315" lon="6.67064">
        <ele>1740</ele>
        <time>2022-07-09T09:24:50.000Z</time>
      </trkpt>
      <trkpt lat="44.15315" lon="6.67066">
        <ele>1740</ele>
        <time>2022-07-09T09:24:52.000Z</time>
      </trkpt>
      <trkpt lat="44.15314" lon="6.67072">
        <ele>1740.4000244141</ele>
        <time>2022-07-09T09:24:55.000Z</time>
      </trkpt>
      <trkpt lat="44.15315" lon="6.67076">
        <ele>1741</ele>
        <time>2022-07-09T09:24:58.000Z</time>
      </trkpt>
      <trkpt lat="44.15315" lon="6.67082">
        <ele>1741.5999755859</ele>
        <time>2022-07-09T09:25:02.000Z</time>
      </trkpt>
      <trkpt lat="44.15315" lon="6.67086">
        <ele>1742</ele>
        <time>2022-07-09T09:25:05.000Z</time>
      </trkpt>
      <trkpt lat="44.15314" lon="6.6709">
        <ele>1742.5999755859</ele>
        <time>2022-07-09T09:25:08.000Z</time>
      </trkpt>
      <trkpt lat="44.15314" lon="6.67092">
        <ele>1742.8000488281</ele>
        <time>2022-07-09T09:25:10.000Z</time>
      </trkpt>
      <trkpt lat="44.15314" lon="6.67095">
        <ele>1743.1999511719</ele>
        <time>2022-07-09T09:25:12.000Z</time>
      </trkpt>
      <trkpt lat="44.15313" lon="6.67098">
        <ele>1743.1999511719</ele>
        <time>2022-07-09T09:25:14.000Z</time>
      </trkpt>
      <trkpt lat="44.15313" lon="6.67107">
        <ele>1744</ele>
        <time>2022-07-09T09:25:21.000Z</time>
      </trkpt>
      <trkpt lat="44.15313" lon="6.67108">
        <ele>1744.1999511719</ele>
        <time>2022-07-09T09:25:22.000Z</time>
      </trkpt>
      <trkpt lat="44.15312" lon="6.67109">
        <ele>1744.1999511719</ele>
        <time>2022-07-09T09:25:23.000Z</time>
      </trkpt>
      <trkpt lat="44.15311" lon="6.67112">
        <ele>1744.5999755859</ele>
        <time>2022-07-09T09:25:26.000Z</time>
      </trkpt>
      <trkpt lat="44.15309" lon="6.6712">
        <ele>1745.1999511719</ele>
        <time>2022-07-09T09:25:32.000Z</time>
      </trkpt>
      <trkpt lat="44.15309" lon="6.67121">
        <ele>1745.1999511719</ele>
        <time>2022-07-09T09:25:33.000Z</time>
      </trkpt>
      <trkpt lat="44.15305" lon="6.67126">
        <ele>1745.8000488281</ele>
        <time>2022-07-09T09:25:39.000Z</time>
      </trkpt>
      <trkpt lat="44.15303" lon="6.67129">
        <ele>1746.4000244141</ele>
        <time>2022-07-09T09:25:42.000Z</time>
      </trkpt>
      <trkpt lat="44.15303" lon="6.6713">
        <ele>1746.4000244141</ele>
        <time>2022-07-09T09:25:43.000Z</time>
      </trkpt>
      <trkpt lat="44.15301" lon="6.67134">
        <ele>1746.8000488281</ele>
        <time>2022-07-09T09:25:46.000Z</time>
      </trkpt>
      <trkpt lat="44.15298" lon="6.67141">
        <ele>1747.4000244141</ele>
        <time>2022-07-09T09:25:51.000Z</time>
      </trkpt>
      <trkpt lat="44.15298" lon="6.67145">
        <ele>1748</ele>
        <time>2022-07-09T09:25:54.000Z</time>
      </trkpt>
      <trkpt lat="44.15297" lon="6.67149">
        <ele>1748.4000244141</ele>
        <time>2022-07-09T09:25:57.000Z</time>
      </trkpt>
      <trkpt lat="44.15295" lon="6.67156">
        <ele>1749.1999511719</ele>
        <time>2022-07-09T09:26:02.000Z</time>
      </trkpt>
      <trkpt lat="44.15294" lon="6.67159">
        <ele>1749.5999755859</ele>
        <time>2022-07-09T09:26:04.000Z</time>
      </trkpt>
      <trkpt lat="44.15294" lon="6.67166">
        <ele>1750.4000244141</ele>
        <time>2022-07-09T09:26:08.000Z</time>
      </trkpt>
      <trkpt lat="44.15293" lon="6.67169">
        <ele>1750.8000488281</ele>
        <time>2022-07-09T09:26:10.000Z</time>
      </trkpt>
      <trkpt lat="44.15293" lon="6.67175">
        <ele>1751.5999755859</ele>
        <time>2022-07-09T09:26:15.000Z</time>
      </trkpt>
      <trkpt lat="44.15292" lon="6.67177">
        <ele>1751.8000488281</ele>
        <time>2022-07-09T09:26:16.000Z</time>
      </trkpt>
      <trkpt lat="44.15291" lon="6.67185">
        <ele>1752.8000488281</ele>
        <time>2022-07-09T09:26:22.000Z</time>
      </trkpt>
      <trkpt lat="44.15291" lon="6.67196">
        <ele>1754</ele>
        <time>2022-07-09T09:26:29.000Z</time>
      </trkpt>
      <trkpt lat="44.15291" lon="6.67208">
        <ele>1755.1999511719</ele>
        <time>2022-07-09T09:26:37.000Z</time>
      </trkpt>
      <trkpt lat="44.1529" lon="6.6721">
        <ele>1755.1999511719</ele>
        <time>2022-07-09T09:26:38.000Z</time>
      </trkpt>
      <trkpt lat="44.15289" lon="6.67222">
        <ele>1756.4000244141</ele>
        <time>2022-07-09T09:26:46.000Z</time>
      </trkpt>
      <trkpt lat="44.15288" lon="6.67231">
        <ele>1757.1999511719</ele>
        <time>2022-07-09T09:26:52.000Z</time>
      </trkpt>
      <trkpt lat="44.15288" lon="6.67232">
        <ele>1757.4000244141</ele>
        <time>2022-07-09T09:26:53.000Z</time>
      </trkpt>
      <trkpt lat="44.15286" lon="6.67237">
        <ele>1758</ele>
        <time>2022-07-09T09:26:58.000Z</time>
      </trkpt>
      <trkpt lat="44.15286" lon="6.67238">
        <ele>1758.4000244141</ele>
        <time>2022-07-09T09:27:01.000Z</time>
      </trkpt>
      <trkpt lat="44.15286" lon="6.67238">
        <ele>1758.4000244141</ele>
        <time>2022-07-09T09:27:03.000Z</time>
      </trkpt>
      <trkpt lat="44.15285" lon="6.67238">
        <ele>1758.5999755859</ele>
        <time>2022-07-09T09:27:20.000Z</time>
      </trkpt>
      <trkpt lat="44.15286" lon="6.67239">
        <ele>1758.5999755859</ele>
        <time>2022-07-09T09:27:42.000Z</time>
      </trkpt>
      <trkpt lat="44.15285" lon="6.67244">
        <ele>1758.5999755859</ele>
        <time>2022-07-09T09:27:48.000Z</time>
      </trkpt>
      <trkpt lat="44.15284" lon="6.67245">
        <ele>1758.5999755859</ele>
        <time>2022-07-09T09:27:49.000Z</time>
      </trkpt>
      <trkpt lat="44.15279" lon="6.67255">
        <ele>1758.5999755859</ele>
        <time>2022-07-09T09:27:53.000Z</time>
      </trkpt>
      <trkpt lat="44.15274" lon="6.67266">
        <ele>1757.8000488281</ele>
        <time>2022-07-09T09:27:57.000Z</time>
      </trkpt>
      <trkpt lat="44.15272" lon="6.67274">
        <ele>1758.1999511719</ele>
        <time>2022-07-09T09:28:01.000Z</time>
      </trkpt>
      <trkpt lat="44.15272" lon="6.6728">
        <ele>1758.8000488281</ele>
        <time>2022-07-09T09:28:04.000Z</time>
      </trkpt>
      <trkpt lat="44.1527" lon="6.67286">
        <ele>1759.5999755859</ele>
        <time>2022-07-09T09:28:08.000Z</time>
      </trkpt>
      <trkpt lat="44.15269" lon="6.6729">
        <ele>1759.8000488281</ele>
        <time>2022-07-09T09:28:10.000Z</time>
      </trkpt>
      <trkpt lat="44.15267" lon="6.67301">
        <ele>1760.5999755859</ele>
        <time>2022-07-09T09:28:16.000Z</time>
      </trkpt>
      <trkpt lat="44.15267" lon="6.67302">
        <ele>1760.8000488281</ele>
        <time>2022-07-09T09:28:17.000Z</time>
      </trkpt>
      <trkpt lat="44.15267" lon="6.67308">
        <ele>1761.8000488281</ele>
        <time>2022-07-09T09:28:21.000Z</time>
      </trkpt>
      <trkpt lat="44.15267" lon="6.67309">
        <ele>1762</ele>
        <time>2022-07-09T09:28:22.000Z</time>
      </trkpt>
      <trkpt lat="44.15266" lon="6.67317">
        <ele>1762.8000488281</ele>
        <time>2022-07-09T09:28:27.000Z</time>
      </trkpt>
      <trkpt lat="44.15266" lon="6.67319">
        <ele>1763</ele>
        <time>2022-07-09T09:28:28.000Z</time>
      </trkpt>
      <trkpt lat="44.15267" lon="6.67325">
        <ele>1763.8000488281</ele>
        <time>2022-07-09T09:28:32.000Z</time>
      </trkpt>
      <trkpt lat="44.15266" lon="6.67326">
        <ele>1764</ele>
        <time>2022-07-09T09:28:33.000Z</time>
      </trkpt>
      <trkpt lat="44.15266" lon="6.67328">
        <ele>1764.5999755859</ele>
        <time>2022-07-09T09:28:34.000Z</time>
      </trkpt>
      <trkpt lat="44.15265" lon="6.67333">
        <ele>1765.1999511719</ele>
        <time>2022-07-09T09:28:37.000Z</time>
      </trkpt>
      <trkpt lat="44.15263" lon="6.67337">
        <ele>1765</ele>
        <time>2022-07-09T09:28:39.000Z</time>
      </trkpt>
      <trkpt lat="44.15256" lon="6.67345">
        <ele>1765.1999511719</ele>
        <time>2022-07-09T09:28:44.000Z</time>
      </trkpt>
      <trkpt lat="44.15248" lon="6.67357">
        <ele>1765.5999755859</ele>
        <time>2022-07-09T09:28:51.000Z</time>
      </trkpt>
      <trkpt lat="44.15241" lon="6.67368">
        <ele>1765.8000488281</ele>
        <time>2022-07-09T09:28:57.000Z</time>
      </trkpt>
      <trkpt lat="44.15237" lon="6.67375">
        <ele>1766.4000244141</ele>
        <time>2022-07-09T09:29:00.000Z</time>
      </trkpt>
      <trkpt lat="44.15234" lon="6.6738">
        <ele>1766.8000488281</ele>
        <time>2022-07-09T09:29:03.000Z</time>
      </trkpt>
      <trkpt lat="44.15229" lon="6.67388">
        <ele>1767.1999511719</ele>
        <time>2022-07-09T09:29:09.000Z</time>
      </trkpt>
      <trkpt lat="44.15224" lon="6.67396">
        <ele>1767.1999511719</ele>
        <time>2022-07-09T09:29:15.000Z</time>
      </trkpt>
      <trkpt lat="44.15223" lon="6.67399">
        <ele>1767.4000244141</ele>
        <time>2022-07-09T09:29:16.000Z</time>
      </trkpt>
      <trkpt lat="44.15219" lon="6.6741">
        <ele>1767.4000244141</ele>
        <time>2022-07-09T09:29:20.000Z</time>
      </trkpt>
      <trkpt lat="44.15216" lon="6.67414">
        <ele>1767.4000244141</ele>
        <time>2022-07-09T09:29:22.000Z</time>
      </trkpt>
      <trkpt lat="44.15209" lon="6.67421">
        <ele>1767.8000488281</ele>
        <time>2022-07-09T09:29:26.000Z</time>
      </trkpt>
      <trkpt lat="44.15206" lon="6.67427">
        <ele>1768.4000244141</ele>
        <time>2022-07-09T09:29:29.000Z</time>
      </trkpt>
      <trkpt lat="44.15202" lon="6.67433">
        <ele>1769</ele>
        <time>2022-07-09T09:29:32.000Z</time>
      </trkpt>
      <trkpt lat="44.15197" lon="6.67443">
        <ele>1769.4000244141</ele>
        <time>2022-07-09T09:29:37.000Z</time>
      </trkpt>
      <trkpt lat="44.15195" lon="6.67444">
        <ele>1769.5999755859</ele>
        <time>2022-07-09T09:29:38.000Z</time>
      </trkpt>
      <trkpt lat="44.1519" lon="6.67447">
        <ele>1770</ele>
        <time>2022-07-09T09:29:41.000Z</time>
      </trkpt>
      <trkpt lat="44.15185" lon="6.6745">
        <ele>1770</ele>
        <time>2022-07-09T09:29:43.000Z</time>
      </trkpt>
      <trkpt lat="44.15177" lon="6.67461">
        <ele>1770</ele>
        <time>2022-07-09T09:29:48.000Z</time>
      </trkpt>
      <trkpt lat="44.15168" lon="6.67476">
        <ele>1770.5999755859</ele>
        <time>2022-07-09T09:29:54.000Z</time>
      </trkpt>
      <trkpt lat="44.15164" lon="6.67481">
        <ele>1770.8000488281</ele>
        <time>2022-07-09T09:29:56.000Z</time>
      </trkpt>
      <trkpt lat="44.15159" lon="6.67485">
        <ele>1771</ele>
        <time>2022-07-09T09:30:00.000Z</time>
      </trkpt>
      <trkpt lat="44.15154" lon="6.67488">
        <ele>1771.8000488281</ele>
        <time>2022-07-09T09:30:05.000Z</time>
      </trkpt>
      <trkpt lat="44.15153" lon="6.67488">
        <ele>1771.8000488281</ele>
        <time>2022-07-09T09:30:06.000Z</time>
      </trkpt>
      <trkpt lat="44.15149" lon="6.67488">
        <ele>1771.8000488281</ele>
        <time>2022-07-09T09:30:12.000Z</time>
      </trkpt>
      <trkpt lat="44.15146" lon="6.67492">
        <ele>1771.5999755859</ele>
        <time>2022-07-09T09:30:17.000Z</time>
      </trkpt>
      <trkpt lat="44.15137" lon="6.67501">
        <ele>1772</ele>
        <time>2022-07-09T09:30:23.000Z</time>
      </trkpt>
      <trkpt lat="44.15133" lon="6.67502">
        <ele>1771.5999755859</ele>
        <time>2022-07-09T09:30:27.000Z</time>
      </trkpt>
      <trkpt lat="44.15128" lon="6.67499">
        <ele>1771.1999511719</ele>
        <time>2022-07-09T09:30:33.000Z</time>
      </trkpt>
      <trkpt lat="44.15126" lon="6.67498">
        <ele>1771.4000244141</ele>
        <time>2022-07-09T09:30:35.000Z</time>
      </trkpt>
      <trkpt lat="44.15125" lon="6.67494">
        <ele>1771.4000244141</ele>
        <time>2022-07-09T09:30:38.000Z</time>
      </trkpt>
      <trkpt lat="44.15123" lon="6.67498">
        <ele>1772.1999511719</ele>
        <time>2022-07-09T09:30:44.000Z</time>
      </trkpt>
      <trkpt lat="44.15121" lon="6.67501">
        <ele>1772.8000488281</ele>
        <time>2022-07-09T09:30:48.000Z</time>
      </trkpt>
      <trkpt lat="44.15121" lon="6.67502">
        <ele>1772.8000488281</ele>
        <time>2022-07-09T09:30:49.000Z</time>
      </trkpt>
      <trkpt lat="44.1512" lon="6.67504">
        <ele>1773.8000488281</ele>
        <time>2022-07-09T09:30:54.000Z</time>
      </trkpt>
      <trkpt lat="44.15118" lon="6.67508">
        <ele>1775</ele>
        <time>2022-07-09T09:31:00.000Z</time>
      </trkpt>
      <trkpt lat="44.15116" lon="6.6751">
        <ele>1775.5999755859</ele>
        <time>2022-07-09T09:31:03.000Z</time>
      </trkpt>
      <trkpt lat="44.15116" lon="6.6751">
        <ele>1776</ele>
        <time>2022-07-09T09:31:05.000Z</time>
      </trkpt>
      <trkpt lat="44.15114" lon="6.67513">
        <ele>1776.5999755859</ele>
        <time>2022-07-09T09:31:09.000Z</time>
      </trkpt>
      <trkpt lat="44.15113" lon="6.67514">
        <ele>1777.1999511719</ele>
        <time>2022-07-09T09:31:12.000Z</time>
      </trkpt>
      <trkpt lat="44.15111" lon="6.67516">
        <ele>1777.8000488281</ele>
        <time>2022-07-09T09:31:16.000Z</time>
      </trkpt>
      <trkpt lat="44.15109" lon="6.67518">
        <ele>1778.4000244141</ele>
        <time>2022-07-09T09:31:19.000Z</time>
      </trkpt>
      <trkpt lat="44.15106" lon="6.6752">
        <ele>1779.4000244141</ele>
        <time>2022-07-09T09:31:24.000Z</time>
      </trkpt>
      <trkpt lat="44.15105" lon="6.6752">
        <ele>1779.5999755859</ele>
        <time>2022-07-09T09:31:25.000Z</time>
      </trkpt>
      <trkpt lat="44.15102" lon="6.67521">
        <ele>1780.5999755859</ele>
        <time>2022-07-09T09:31:30.000Z</time>
      </trkpt>
      <trkpt lat="44.15099" lon="6.67523">
        <ele>1781.1999511719</ele>
        <time>2022-07-09T09:31:34.000Z</time>
      </trkpt>
      <trkpt lat="44.15096" lon="6.67523">
        <ele>1781.5999755859</ele>
        <time>2022-07-09T09:31:37.000Z</time>
      </trkpt>
      <trkpt lat="44.15092" lon="6.67525">
        <ele>1782.1999511719</ele>
        <time>2022-07-09T09:31:42.000Z</time>
      </trkpt>
      <trkpt lat="44.15088" lon="6.67527">
        <ele>1782.8000488281</ele>
        <time>2022-07-09T09:31:47.000Z</time>
      </trkpt>
      <trkpt lat="44.15086" lon="6.67529">
        <ele>1783.1999511719</ele>
        <time>2022-07-09T09:31:50.000Z</time>
      </trkpt>
      <trkpt lat="44.15084" lon="6.67533">
        <ele>1783.8000488281</ele>
        <time>2022-07-09T09:31:54.000Z</time>
      </trkpt>
      <trkpt lat="44.15082" lon="6.67537">
        <ele>1784.1999511719</ele>
        <time>2022-07-09T09:31:58.000Z</time>
      </trkpt>
      <trkpt lat="44.1508" lon="6.67539">
        <ele>1784.8000488281</ele>
        <time>2022-07-09T09:32:01.000Z</time>
      </trkpt>
      <trkpt lat="44.15076" lon="6.67544">
        <ele>1785.5999755859</ele>
        <time>2022-07-09T09:32:07.000Z</time>
      </trkpt>
      <trkpt lat="44.15074" lon="6.67546">
        <ele>1785.8000488281</ele>
        <time>2022-07-09T09:32:09.000Z</time>
      </trkpt>
      <trkpt lat="44.15068" lon="6.67551">
        <ele>1787</ele>
        <time>2022-07-09T09:32:16.000Z</time>
      </trkpt>
      <trkpt lat="44.15063" lon="6.67557">
        <ele>1788</ele>
        <time>2022-07-09T09:32:23.000Z</time>
      </trkpt>
      <trkpt lat="44.15061" lon="6.6756">
        <ele>1788.1999511719</ele>
        <time>2022-07-09T09:32:26.000Z</time>
      </trkpt>
      <trkpt lat="44.15057" lon="6.67564">
        <ele>1789</ele>
        <time>2022-07-09T09:32:31.000Z</time>
      </trkpt>
      <trkpt lat="44.15054" lon="6.67567">
        <ele>1789.5999755859</ele>
        <time>2022-07-09T09:32:35.000Z</time>
      </trkpt>
      <trkpt lat="44.1505" lon="6.67571">
        <ele>1790.1999511719</ele>
        <time>2022-07-09T09:32:40.000Z</time>
      </trkpt>
      <trkpt lat="44.15048" lon="6.67573">
        <ele>1790.4000244141</ele>
        <time>2022-07-09T09:32:43.000Z</time>
      </trkpt>
      <trkpt lat="44.15044" lon="6.67577">
        <ele>1791.1999511719</ele>
        <time>2022-07-09T09:32:48.000Z</time>
      </trkpt>
      <trkpt lat="44.1504" lon="6.67581">
        <ele>1791.8000488281</ele>
        <time>2022-07-09T09:32:54.000Z</time>
      </trkpt>
      <trkpt lat="44.15037" lon="6.67582">
        <ele>1792.4000244141</ele>
        <time>2022-07-09T09:32:57.000Z</time>
      </trkpt>
      <trkpt lat="44.15033" lon="6.67586">
        <ele>1793.1999511719</ele>
        <time>2022-07-09T09:33:03.000Z</time>
      </trkpt>
      <trkpt lat="44.15032" lon="6.67586">
        <ele>1793.4000244141</ele>
        <time>2022-07-09T09:33:04.000Z</time>
      </trkpt>
      <trkpt lat="44.15027" lon="6.67593">
        <ele>1794.4000244141</ele>
        <time>2022-07-09T09:33:12.000Z</time>
      </trkpt>
      <trkpt lat="44.15026" lon="6.67594">
        <ele>1794.5999755859</ele>
        <time>2022-07-09T09:33:13.000Z</time>
      </trkpt>
      <trkpt lat="44.15021" lon="6.67599">
        <ele>1795.4000244141</ele>
        <time>2022-07-09T09:33:20.000Z</time>
      </trkpt>
      <trkpt lat="44.1502" lon="6.67601">
        <ele>1795.5999755859</ele>
        <time>2022-07-09T09:33:22.000Z</time>
      </trkpt>
      <trkpt lat="44.15017" lon="6.67607">
        <ele>1796.5999755859</ele>
        <time>2022-07-09T09:33:28.000Z</time>
      </trkpt>
      <trkpt lat="44.15016" lon="6.67608">
        <ele>1796.8000488281</ele>
        <time>2022-07-09T09:33:30.000Z</time>
      </trkpt>
      <trkpt lat="44.15016" lon="6.67609">
        <ele>1797</ele>
        <time>2022-07-09T09:33:31.000Z</time>
      </trkpt>
      <trkpt lat="44.15014" lon="6.67613">
        <ele>1797.5999755859</ele>
        <time>2022-07-09T09:33:35.000Z</time>
      </trkpt>
      <trkpt lat="44.15014" lon="6.67618">
        <ele>1798.1999511719</ele>
        <time>2022-07-09T09:33:39.000Z</time>
      </trkpt>
      <trkpt lat="44.15013" lon="6.67621">
        <ele>1798.8000488281</ele>
        <time>2022-07-09T09:33:42.000Z</time>
      </trkpt>
      <trkpt lat="44.15011" lon="6.67625">
        <ele>1799.5999755859</ele>
        <time>2022-07-09T09:33:47.000Z</time>
      </trkpt>
      <trkpt lat="44.1501" lon="6.67627">
        <ele>1799.8000488281</ele>
        <time>2022-07-09T09:33:49.000Z</time>
      </trkpt>
      <trkpt lat="44.15007" lon="6.67632">
        <ele>1800.8000488281</ele>
        <time>2022-07-09T09:33:54.000Z</time>
      </trkpt>
      <trkpt lat="44.15006" lon="6.67633">
        <ele>1801.1999511719</ele>
        <time>2022-07-09T09:33:56.000Z</time>
      </trkpt>
      <trkpt lat="44.15005" lon="6.67634">
        <ele>1802</ele>
        <time>2022-07-09T09:34:00.000Z</time>
      </trkpt>
      <trkpt lat="44.15005" lon="6.67634">
        <ele>1802</ele>
        <time>2022-07-09T09:34:01.000Z</time>
      </trkpt>
      <trkpt lat="44.15004" lon="6.67635">
        <ele>1802</ele>
        <time>2022-07-09T09:34:04.000Z</time>
      </trkpt>
      <trkpt lat="44.15002" lon="6.67638">
        <ele>1802</ele>
        <time>2022-07-09T09:34:07.000Z</time>
      </trkpt>
      <trkpt lat="44.14997" lon="6.67644">
        <ele>1802.5999755859</ele>
        <time>2022-07-09T09:34:13.000Z</time>
      </trkpt>
      <trkpt lat="44.14995" lon="6.67646">
        <ele>1802.8000488281</ele>
        <time>2022-07-09T09:34:15.000Z</time>
      </trkpt>
      <trkpt lat="44.14993" lon="6.67648">
        <ele>1803.1999511719</ele>
        <time>2022-07-09T09:34:17.000Z</time>
      </trkpt>
      <trkpt lat="44.14989" lon="6.67654">
        <ele>1804</ele>
        <time>2022-07-09T09:34:22.000Z</time>
      </trkpt>
      <trkpt lat="44.14988" lon="6.67655">
        <ele>1804.1999511719</ele>
        <time>2022-07-09T09:34:24.000Z</time>
      </trkpt>
      <trkpt lat="44.14985" lon="6.67659">
        <ele>1805</ele>
        <time>2022-07-09T09:34:28.000Z</time>
      </trkpt>
      <trkpt lat="44.14984" lon="6.67659">
        <ele>1805.1999511719</ele>
        <time>2022-07-09T09:34:29.000Z</time>
      </trkpt>
      <trkpt lat="44.14982" lon="6.67663">
        <ele>1806</ele>
        <time>2022-07-09T09:34:33.000Z</time>
      </trkpt>
      <trkpt lat="44.14981" lon="6.67665">
        <ele>1806.1999511719</ele>
        <time>2022-07-09T09:34:35.000Z</time>
      </trkpt>
      <trkpt lat="44.1498" lon="6.67666">
        <ele>1806.4000244141</ele>
        <time>2022-07-09T09:34:36.000Z</time>
      </trkpt>
      <trkpt lat="44.14979" lon="6.67668">
        <ele>1806.8000488281</ele>
        <time>2022-07-09T09:34:38.000Z</time>
      </trkpt>
      <trkpt lat="44.14977" lon="6.67671">
        <ele>1807.4000244141</ele>
        <time>2022-07-09T09:34:42.000Z</time>
      </trkpt>
      <trkpt lat="44.14976" lon="6.67672">
        <ele>1807.5999755859</ele>
        <time>2022-07-09T09:34:43.000Z</time>
      </trkpt>
      <trkpt lat="44.14976" lon="6.67675">
        <ele>1808</ele>
        <time>2022-07-09T09:34:45.000Z</time>
      </trkpt>
      <trkpt lat="44.14974" lon="6.67678">
        <ele>1808.1999511719</ele>
        <time>2022-07-09T09:34:48.000Z</time>
      </trkpt>
      <trkpt lat="44.14974" lon="6.6768">
        <ele>1808.5999755859</ele>
        <time>2022-07-09T09:34:50.000Z</time>
      </trkpt>
      <trkpt lat="44.1497" lon="6.67687">
        <ele>1809.5999755859</ele>
        <time>2022-07-09T09:34:56.000Z</time>
      </trkpt>
      <trkpt lat="44.1497" lon="6.67688">
        <ele>1809.5999755859</ele>
        <time>2022-07-09T09:34:57.000Z</time>
      </trkpt>
      <trkpt lat="44.14965" lon="6.67695">
        <ele>1810.8000488281</ele>
        <time>2022-07-09T09:35:03.000Z</time>
      </trkpt>
      <trkpt lat="44.14955" lon="6.67703">
        <ele>1811.4000244141</ele>
        <time>2022-07-09T09:35:11.000Z</time>
      </trkpt>
      <trkpt lat="44.14947" lon="6.67709">
        <ele>1811.8000488281</ele>
        <time>2022-07-09T09:35:17.000Z</time>
      </trkpt>
      <trkpt lat="44.14944" lon="6.67711">
        <ele>1812</ele>
        <time>2022-07-09T09:35:19.000Z</time>
      </trkpt>
      <trkpt lat="44.14927" lon="6.6772">
        <ele>1812.5999755859</ele>
        <time>2022-07-09T09:35:28.000Z</time>
      </trkpt>
      <trkpt lat="44.14923" lon="6.67724">
        <ele>1813</ele>
        <time>2022-07-09T09:35:31.000Z</time>
      </trkpt>
      <trkpt lat="44.14918" lon="6.6773">
        <ele>1813.4000244141</ele>
        <time>2022-07-09T09:35:36.000Z</time>
      </trkpt>
      <trkpt lat="44.14914" lon="6.67735">
        <ele>1814</ele>
        <time>2022-07-09T09:35:40.000Z</time>
      </trkpt>
      <trkpt lat="44.14911" lon="6.6774">
        <ele>1814.8000488281</ele>
        <time>2022-07-09T09:35:44.000Z</time>
      </trkpt>
      <trkpt lat="44.1491" lon="6.67742">
        <ele>1815.1999511719</ele>
        <time>2022-07-09T09:35:46.000Z</time>
      </trkpt>
      <trkpt lat="44.14907" lon="6.67749">
        <ele>1816</ele>
        <time>2022-07-09T09:35:51.000Z</time>
      </trkpt>
      <trkpt lat="44.14906" lon="6.67751">
        <ele>1816.1999511719</ele>
        <time>2022-07-09T09:35:53.000Z</time>
      </trkpt>
      <trkpt lat="44.14903" lon="6.67756">
        <ele>1816.5999755859</ele>
        <time>2022-07-09T09:35:57.000Z</time>
      </trkpt>
      <trkpt lat="44.14898" lon="6.67761">
        <ele>1817.1999511719</ele>
        <time>2022-07-09T09:36:02.000Z</time>
      </trkpt>
      <trkpt lat="44.14897" lon="6.67763">
        <ele>1817.5999755859</ele>
        <time>2022-07-09T09:36:03.000Z</time>
      </trkpt>
      <trkpt lat="44.14893" lon="6.67768">
        <ele>1818.1999511719</ele>
        <time>2022-07-09T09:36:08.000Z</time>
      </trkpt>
      <trkpt lat="44.14891" lon="6.67771">
        <ele>1818.5999755859</ele>
        <time>2022-07-09T09:36:10.000Z</time>
      </trkpt>
      <trkpt lat="44.14884" lon="6.67782">
        <ele>1819.4000244141</ele>
        <time>2022-07-09T09:36:19.000Z</time>
      </trkpt>
      <trkpt lat="44.14883" lon="6.67783">
        <ele>1819.5999755859</ele>
        <time>2022-07-09T09:36:20.000Z</time>
      </trkpt>
      <trkpt lat="44.14879" lon="6.67786">
        <ele>1820.4000244141</ele>
        <time>2022-07-09T09:36:24.000Z</time>
      </trkpt>
      <trkpt lat="44.14876" lon="6.6779">
        <ele>1821</ele>
        <time>2022-07-09T09:36:28.000Z</time>
      </trkpt>
      <trkpt lat="44.14874" lon="6.67793">
        <ele>1821.4000244141</ele>
        <time>2022-07-09T09:36:31.000Z</time>
      </trkpt>
      <trkpt lat="44.14874" lon="6.67794">
        <ele>1821.5999755859</ele>
        <time>2022-07-09T09:36:32.000Z</time>
      </trkpt>
      <trkpt lat="44.14873" lon="6.67797">
        <ele>1821.8000488281</ele>
        <time>2022-07-09T09:36:34.000Z</time>
      </trkpt>
      <trkpt lat="44.14869" lon="6.67801">
        <ele>1822.5999755859</ele>
        <time>2022-07-09T09:36:39.000Z</time>
      </trkpt>
      <trkpt lat="44.14868" lon="6.67803">
        <ele>1823</ele>
        <time>2022-07-09T09:36:41.000Z</time>
      </trkpt>
      <trkpt lat="44.14865" lon="6.67807">
        <ele>1823.5999755859</ele>
        <time>2022-07-09T09:36:45.000Z</time>
      </trkpt>
      <trkpt lat="44.14864" lon="6.67809">
        <ele>1824</ele>
        <time>2022-07-09T09:36:47.000Z</time>
      </trkpt>
      <trkpt lat="44.1486" lon="6.67814">
        <ele>1824.8000488281</ele>
        <time>2022-07-09T09:36:53.000Z</time>
      </trkpt>
      <trkpt lat="44.14856" lon="6.67819">
        <ele>1825.8000488281</ele>
        <time>2022-07-09T09:36:59.000Z</time>
      </trkpt>
      <trkpt lat="44.14853" lon="6.67822">
        <ele>1826.4000244141</ele>
        <time>2022-07-09T09:37:02.000Z</time>
      </trkpt>
      <trkpt lat="44.14851" lon="6.67824">
        <ele>1826.8000488281</ele>
        <time>2022-07-09T09:37:05.000Z</time>
      </trkpt>
      <trkpt lat="44.14851" lon="6.67825">
        <ele>1827</ele>
        <time>2022-07-09T09:37:06.000Z</time>
      </trkpt>
      <trkpt lat="44.1485" lon="6.67826">
        <ele>1827</ele>
        <time>2022-07-09T09:37:07.000Z</time>
      </trkpt>
      <trkpt lat="44.1485" lon="6.67827">
        <ele>1827.1999511719</ele>
        <time>2022-07-09T09:37:08.000Z</time>
      </trkpt>
      <trkpt lat="44.14849" lon="6.67831">
        <ele>1828</ele>
        <time>2022-07-09T09:37:14.000Z</time>
      </trkpt>
      <trkpt lat="44.14848" lon="6.67832">
        <ele>1828</ele>
        <time>2022-07-09T09:37:15.000Z</time>
      </trkpt>
      <trkpt lat="44.14846" lon="6.67836">
        <ele>1829</ele>
        <time>2022-07-09T09:37:21.000Z</time>
      </trkpt>
      <trkpt lat="44.14845" lon="6.67836">
        <ele>1829.1999511719</ele>
        <time>2022-07-09T09:37:23.000Z</time>
      </trkpt>
      <trkpt lat="44.14843" lon="6.6784">
        <ele>1829.8000488281</ele>
        <time>2022-07-09T09:37:28.000Z</time>
      </trkpt>
      <trkpt lat="44.14843" lon="6.6784">
        <ele>1830.1999511719</ele>
        <time>2022-07-09T09:37:30.000Z</time>
      </trkpt>
      <trkpt lat="44.14839" lon="6.67845">
        <ele>1831.4000244141</ele>
        <time>2022-07-09T09:37:36.000Z</time>
      </trkpt>
      <trkpt lat="44.14835" lon="6.67849">
        <ele>1832.4000244141</ele>
        <time>2022-07-09T09:37:44.000Z</time>
      </trkpt>
      <trkpt lat="44.14834" lon="6.6785">
        <ele>1832.4000244141</ele>
        <time>2022-07-09T09:37:45.000Z</time>
      </trkpt>
      <trkpt lat="44.14832" lon="6.67856">
        <ele>1833.4000244141</ele>
        <time>2022-07-09T09:37:52.000Z</time>
      </trkpt>
      <trkpt lat="44.14829" lon="6.6786">
        <ele>1834.4000244141</ele>
        <time>2022-07-09T09:37:59.000Z</time>
      </trkpt>
      <trkpt lat="44.14829" lon="6.67861">
        <ele>1834.5999755859</ele>
        <time>2022-07-09T09:38:00.000Z</time>
      </trkpt>
      <trkpt lat="44.14826" lon="6.67864">
        <ele>1835.5999755859</ele>
        <time>2022-07-09T09:38:06.000Z</time>
      </trkpt>
      <trkpt lat="44.14825" lon="6.67865">
        <ele>1835.8000488281</ele>
        <time>2022-07-09T09:38:07.000Z</time>
      </trkpt>
      <trkpt lat="44.14823" lon="6.67869">
        <ele>1836.4000244141</ele>
        <time>2022-07-09T09:38:13.000Z</time>
      </trkpt>
      <trkpt lat="44.14823" lon="6.67869">
        <ele>1836.8000488281</ele>
        <time>2022-07-09T09:38:15.000Z</time>
      </trkpt>
      <trkpt lat="44.14823" lon="6.6787">
        <ele>1837</ele>
        <time>2022-07-09T09:38:22.000Z</time>
      </trkpt>
      <trkpt lat="44.14821" lon="6.67871">
        <ele>1837.1999511719</ele>
        <time>2022-07-09T09:38:29.000Z</time>
      </trkpt>
      <trkpt lat="44.14821" lon="6.67872">
        <ele>1837</ele>
        <time>2022-07-09T09:38:35.000Z</time>
      </trkpt>
      <trkpt lat="44.14821" lon="6.67874">
        <ele>1837</ele>
        <time>2022-07-09T09:38:43.000Z</time>
      </trkpt>
      <trkpt lat="44.14817" lon="6.67875">
        <ele>1837.4000244141</ele>
        <time>2022-07-09T09:38:50.000Z</time>
      </trkpt>
      <trkpt lat="44.14814" lon="6.67879">
        <ele>1837.4000244141</ele>
        <time>2022-07-09T09:39:00.000Z</time>
      </trkpt>
      <trkpt lat="44.1481" lon="6.67883">
        <ele>1837.8000488281</ele>
        <time>2022-07-09T09:39:09.000Z</time>
      </trkpt>
      <trkpt lat="44.14806" lon="6.67887">
        <ele>1838.1999511719</ele>
        <time>2022-07-09T09:39:17.000Z</time>
      </trkpt>
      <trkpt lat="44.14804" lon="6.67889">
        <ele>1838.8000488281</ele>
        <time>2022-07-09T09:39:24.000Z</time>
      </trkpt>
      <trkpt lat="44.14803" lon="6.67889">
        <ele>1839</ele>
        <time>2022-07-09T09:39:26.000Z</time>
      </trkpt>
      <trkpt lat="44.14799" lon="6.67891">
        <ele>1839.8000488281</ele>
        <time>2022-07-09T09:39:34.000Z</time>
      </trkpt>
      <trkpt lat="44.14798" lon="6.67892">
        <ele>1839.8000488281</ele>
        <time>2022-07-09T09:39:35.000Z</time>
      </trkpt>
      <trkpt lat="44.14795" lon="6.67895">
        <ele>1840.8000488281</ele>
        <time>2022-07-09T09:39:43.000Z</time>
      </trkpt>
      <trkpt lat="44.14794" lon="6.67895">
        <ele>1841</ele>
        <time>2022-07-09T09:39:44.000Z</time>
      </trkpt>
      <trkpt lat="44.1479" lon="6.67901">
        <ele>1842</ele>
        <time>2022-07-09T09:39:53.000Z</time>
      </trkpt>
      <trkpt lat="44.14789" lon="6.67902">
        <ele>1842.1999511719</ele>
        <time>2022-07-09T09:39:54.000Z</time>
      </trkpt>
      <trkpt lat="44.14784" lon="6.67907">
        <ele>1843</ele>
        <time>2022-07-09T09:40:03.000Z</time>
      </trkpt>
      <trkpt lat="44.14783" lon="6.67907">
        <ele>1843</ele>
        <time>2022-07-09T09:40:04.000Z</time>
      </trkpt>
      <trkpt lat="44.14777" lon="6.67909">
        <ele>1843.8000488281</ele>
        <time>2022-07-09T09:40:13.000Z</time>
      </trkpt>
      <trkpt lat="44.14775" lon="6.6791">
        <ele>1844</ele>
        <time>2022-07-09T09:40:15.000Z</time>
      </trkpt>
      <trkpt lat="44.1477" lon="6.67915">
        <ele>1845</ele>
        <time>2022-07-09T09:40:23.000Z</time>
      </trkpt>
      <trkpt lat="44.14769" lon="6.67916">
        <ele>1845.1999511719</ele>
        <time>2022-07-09T09:40:25.000Z</time>
      </trkpt>
      <trkpt lat="44.14767" lon="6.67924">
        <ele>1846</ele>
        <time>2022-07-09T09:40:33.000Z</time>
      </trkpt>
      <trkpt lat="44.14767" lon="6.67927">
        <ele>1846.1999511719</ele>
        <time>2022-07-09T09:40:35.000Z</time>
      </trkpt>
      <trkpt lat="44.14764" lon="6.67938">
        <ele>1847</ele>
        <time>2022-07-09T09:40:45.000Z</time>
      </trkpt>
      <trkpt lat="44.14763" lon="6.6794">
        <ele>1847.4000244141</ele>
        <time>2022-07-09T09:40:47.000Z</time>
      </trkpt>
      <trkpt lat="44.14761" lon="6.67944">
        <ele>1848.1999511719</ele>
        <time>2022-07-09T09:40:52.000Z</time>
      </trkpt>
      <trkpt lat="44.1476" lon="6.67945">
        <ele>1848.4000244141</ele>
        <time>2022-07-09T09:40:54.000Z</time>
      </trkpt>
      <trkpt lat="44.14756" lon="6.67948">
        <ele>1849</ele>
        <time>2022-07-09T09:41:00.000Z</time>
      </trkpt>
      <trkpt lat="44.14754" lon="6.67949">
        <ele>1849.8000488281</ele>
        <time>2022-07-09T09:41:03.000Z</time>
      </trkpt>
      <trkpt lat="44.1475" lon="6.67954">
        <ele>1850.5999755859</ele>
        <time>2022-07-09T09:41:10.000Z</time>
      </trkpt>
      <trkpt lat="44.1475" lon="6.67954">
        <ele>1850.8000488281</ele>
        <time>2022-07-09T09:41:11.000Z</time>
      </trkpt>
      <trkpt lat="44.14745" lon="6.6796">
        <ele>1851.8000488281</ele>
        <time>2022-07-09T09:41:19.000Z</time>
      </trkpt>
      <trkpt lat="44.14744" lon="6.67961">
        <ele>1851.8000488281</ele>
        <time>2022-07-09T09:41:20.000Z</time>
      </trkpt>
      <trkpt lat="44.1474" lon="6.67969">
        <ele>1852.8000488281</ele>
        <time>2022-07-09T09:41:29.000Z</time>
      </trkpt>
      <trkpt lat="44.14736" lon="6.67974">
        <ele>1853.5999755859</ele>
        <time>2022-07-09T09:41:35.000Z</time>
      </trkpt>
      <trkpt lat="44.14732" lon="6.67976">
        <ele>1854</ele>
        <time>2022-07-09T09:41:39.000Z</time>
      </trkpt>
      <trkpt lat="44.14728" lon="6.67979">
        <ele>1854.4000244141</ele>
        <time>2022-07-09T09:41:43.000Z</time>
      </trkpt>
      <trkpt lat="44.14724" lon="6.67982">
        <ele>1854.5999755859</ele>
        <time>2022-07-09T09:41:49.000Z</time>
      </trkpt>
      <trkpt lat="44.14721" lon="6.67985">
        <ele>1855</ele>
        <time>2022-07-09T09:41:52.000Z</time>
      </trkpt>
      <trkpt lat="44.14719" lon="6.67988">
        <ele>1855.4000244141</ele>
        <time>2022-07-09T09:41:56.000Z</time>
      </trkpt>
      <trkpt lat="44.14714" lon="6.67994">
        <ele>1856</ele>
        <time>2022-07-09T09:42:02.000Z</time>
      </trkpt>
      <trkpt lat="44.14711" lon="6.67998">
        <ele>1856.4000244141</ele>
        <time>2022-07-09T09:42:06.000Z</time>
      </trkpt>
      <trkpt lat="44.14707" lon="6.68003">
        <ele>1857.1999511719</ele>
        <time>2022-07-09T09:42:14.000Z</time>
      </trkpt>
      <trkpt lat="44.14705" lon="6.68004">
        <ele>1857.4000244141</ele>
        <time>2022-07-09T09:42:16.000Z</time>
      </trkpt>
      <trkpt lat="44.14703" lon="6.68004">
        <ele>1858</ele>
        <time>2022-07-09T09:42:20.000Z</time>
      </trkpt>
      <trkpt lat="44.14702" lon="6.68004">
        <ele>1858.1999511719</ele>
        <time>2022-07-09T09:42:21.000Z</time>
      </trkpt>
      <trkpt lat="44.14697" lon="6.68005">
        <ele>1859.1999511719</ele>
        <time>2022-07-09T09:42:28.000Z</time>
      </trkpt>
      <trkpt lat="44.14693" lon="6.68008">
        <ele>1860.4000244141</ele>
        <time>2022-07-09T09:42:35.000Z</time>
      </trkpt>
      <trkpt lat="44.14692" lon="6.68009">
        <ele>1860.8000488281</ele>
        <time>2022-07-09T09:42:37.000Z</time>
      </trkpt>
      <trkpt lat="44.14689" lon="6.6801">
        <ele>1861.5999755859</ele>
        <time>2022-07-09T09:42:42.000Z</time>
      </trkpt>
      <trkpt lat="44.14687" lon="6.68012">
        <ele>1862.4000244141</ele>
        <time>2022-07-09T09:42:46.000Z</time>
      </trkpt>
      <trkpt lat="44.14686" lon="6.68012">
        <ele>1862.5999755859</ele>
        <time>2022-07-09T09:42:48.000Z</time>
      </trkpt>
      <trkpt lat="44.14682" lon="6.68014">
        <ele>1863.8000488281</ele>
        <time>2022-07-09T09:42:54.000Z</time>
      </trkpt>
      <trkpt lat="44.14682" lon="6.68015">
        <ele>1864.1999511719</ele>
        <time>2022-07-09T09:42:56.000Z</time>
      </trkpt>
      <trkpt lat="44.14679" lon="6.68018">
        <ele>1864.8000488281</ele>
        <time>2022-07-09T09:43:01.000Z</time>
      </trkpt>
      <trkpt lat="44.14677" lon="6.6802">
        <ele>1865.5999755859</ele>
        <time>2022-07-09T09:43:05.000Z</time>
      </trkpt>
      <trkpt lat="44.14676" lon="6.68021">
        <ele>1866</ele>
        <time>2022-07-09T09:43:07.000Z</time>
      </trkpt>
      <trkpt lat="44.14673" lon="6.68025">
        <ele>1867</ele>
        <time>2022-07-09T09:43:14.000Z</time>
      </trkpt>
      <trkpt lat="44.14671" lon="6.68027">
        <ele>1868</ele>
        <time>2022-07-09T09:43:20.000Z</time>
      </trkpt>
      <trkpt lat="44.1467" lon="6.68029">
        <ele>1868.4000244141</ele>
        <time>2022-07-09T09:43:23.000Z</time>
      </trkpt>
      <trkpt lat="44.14669" lon="6.6803">
        <ele>1869</ele>
        <time>2022-07-09T09:43:27.000Z</time>
      </trkpt>
      <trkpt lat="44.14669" lon="6.6803">
        <ele>1869.1999511719</ele>
        <time>2022-07-09T09:43:28.000Z</time>
      </trkpt>
      <trkpt lat="44.14665" lon="6.68034">
        <ele>1870.1999511719</ele>
        <time>2022-07-09T09:43:36.000Z</time>
      </trkpt>
      <trkpt lat="44.1466" lon="6.68035">
        <ele>1871.4000244141</ele>
        <time>2022-07-09T09:43:43.000Z</time>
      </trkpt>
      <trkpt lat="44.14659" lon="6.68036">
        <ele>1871.5999755859</ele>
        <time>2022-07-09T09:43:44.000Z</time>
      </trkpt>
      <trkpt lat="44.14654" lon="6.68036">
        <ele>1872.4000244141</ele>
        <time>2022-07-09T09:43:50.000Z</time>
      </trkpt>
      <trkpt lat="44.14652" lon="6.68037">
        <ele>1872.8000488281</ele>
        <time>2022-07-09T09:43:53.000Z</time>
      </trkpt>
      <trkpt lat="44.14649" lon="6.6804">
        <ele>1873.5999755859</ele>
        <time>2022-07-09T09:43:58.000Z</time>
      </trkpt>
      <trkpt lat="44.14647" lon="6.68042">
        <ele>1874.1999511719</ele>
        <time>2022-07-09T09:44:02.000Z</time>
      </trkpt>
      <trkpt lat="44.14646" lon="6.68042">
        <ele>1874.5999755859</ele>
        <time>2022-07-09T09:44:08.000Z</time>
      </trkpt>
      <trkpt lat="44.14645" lon="6.68043">
        <ele>1874.5999755859</ele>
        <time>2022-07-09T09:44:09.000Z</time>
      </trkpt>
      <trkpt lat="44.14641" lon="6.68045">
        <ele>1875</ele>
        <time>2022-07-09T09:44:15.000Z</time>
      </trkpt>
      <trkpt lat="44.14638" lon="6.6805">
        <ele>1875.8000488281</ele>
        <time>2022-07-09T09:44:20.000Z</time>
      </trkpt>
      <trkpt lat="44.14637" lon="6.68053">
        <ele>1876.1999511719</ele>
        <time>2022-07-09T09:44:23.000Z</time>
      </trkpt>
      <trkpt lat="44.14633" lon="6.68058">
        <ele>1876.8000488281</ele>
        <time>2022-07-09T09:44:30.000Z</time>
      </trkpt>
      <trkpt lat="44.1463" lon="6.68063">
        <ele>1877.8000488281</ele>
        <time>2022-07-09T09:44:35.000Z</time>
      </trkpt>
      <trkpt lat="44.14628" lon="6.68068">
        <ele>1878.5999755859</ele>
        <time>2022-07-09T09:44:40.000Z</time>
      </trkpt>
      <trkpt lat="44.14626" lon="6.6807">
        <ele>1878.8000488281</ele>
        <time>2022-07-09T09:44:42.000Z</time>
      </trkpt>
      <trkpt lat="44.14626" lon="6.68071">
        <ele>1879</ele>
        <time>2022-07-09T09:44:43.000Z</time>
      </trkpt>
      <trkpt lat="44.14624" lon="6.68074">
        <ele>1879.4000244141</ele>
        <time>2022-07-09T09:44:46.000Z</time>
      </trkpt>
      <trkpt lat="44.14622" lon="6.68081">
        <ele>1880.1999511719</ele>
        <time>2022-07-09T09:44:52.000Z</time>
      </trkpt>
      <trkpt lat="44.14619" lon="6.6809">
        <ele>1881.1999511719</ele>
        <time>2022-07-09T09:44:59.000Z</time>
      </trkpt>
      <trkpt lat="44.14619" lon="6.68091">
        <ele>1881.4000244141</ele>
        <time>2022-07-09T09:45:00.000Z</time>
      </trkpt>
      <trkpt lat="44.14615" lon="6.68097">
        <ele>1881.8000488281</ele>
        <time>2022-07-09T09:45:06.000Z</time>
      </trkpt>
      <trkpt lat="44.14615" lon="6.68098">
        <ele>1881.8000488281</ele>
        <time>2022-07-09T09:45:07.000Z</time>
      </trkpt>
      <trkpt lat="44.14612" lon="6.68102">
        <ele>1882.4000244141</ele>
        <time>2022-07-09T09:45:11.000Z</time>
      </trkpt>
      <trkpt lat="44.14608" lon="6.68106">
        <ele>1882.8000488281</ele>
        <time>2022-07-09T09:45:15.000Z</time>
      </trkpt>
      <trkpt lat="44.14605" lon="6.68109">
        <ele>1883.4000244141</ele>
        <time>2022-07-09T09:45:19.000Z</time>
      </trkpt>
      <trkpt lat="44.14604" lon="6.6811">
        <ele>1883.5999755859</ele>
        <time>2022-07-09T09:45:21.000Z</time>
      </trkpt>
      <trkpt lat="44.14601" lon="6.68114">
        <ele>1884.4000244141</ele>
        <time>2022-07-09T09:45:26.000Z</time>
      </trkpt>
      <trkpt lat="44.14598" lon="6.68117">
        <ele>1885.5999755859</ele>
        <time>2022-07-09T09:45:32.000Z</time>
      </trkpt>
      <trkpt lat="44.14597" lon="6.68118">
        <ele>1885.8000488281</ele>
        <time>2022-07-09T09:45:33.000Z</time>
      </trkpt>
      <trkpt lat="44.14594" lon="6.68121">
        <ele>1886.5999755859</ele>
        <time>2022-07-09T09:45:38.000Z</time>
      </trkpt>
      <trkpt lat="44.14591" lon="6.68124">
        <ele>1887.5999755859</ele>
        <time>2022-07-09T09:45:45.000Z</time>
      </trkpt>
      <trkpt lat="44.1459" lon="6.68125">
        <ele>1887.8000488281</ele>
        <time>2022-07-09T09:45:47.000Z</time>
      </trkpt>
      <trkpt lat="44.14587" lon="6.68129">
        <ele>1889</ele>
        <time>2022-07-09T09:45:53.000Z</time>
      </trkpt>
      <trkpt lat="44.14584" lon="6.68131">
        <ele>1890</ele>
        <time>2022-07-09T09:45:59.000Z</time>
      </trkpt>
      <trkpt lat="44.14584" lon="6.68131">
        <ele>1890.1999511719</ele>
        <time>2022-07-09T09:46:00.000Z</time>
      </trkpt>
      <trkpt lat="44.14581" lon="6.68133">
        <ele>1891</ele>
        <time>2022-07-09T09:46:05.000Z</time>
      </trkpt>
      <trkpt lat="44.1458" lon="6.68135">
        <ele>1891.8000488281</ele>
        <time>2022-07-09T09:46:09.000Z</time>
      </trkpt>
      <trkpt lat="44.14579" lon="6.68137">
        <ele>1892.1999511719</ele>
        <time>2022-07-09T09:46:12.000Z</time>
      </trkpt>
      <trkpt lat="44.14576" lon="6.6814">
        <ele>1893</ele>
        <time>2022-07-09T09:46:18.000Z</time>
      </trkpt>
      <trkpt lat="44.14576" lon="6.6814">
        <ele>1893.1999511719</ele>
        <time>2022-07-09T09:46:19.000Z</time>
      </trkpt>
      <trkpt lat="44.14573" lon="6.68144">
        <ele>1894.4000244141</ele>
        <time>2022-07-09T09:46:25.000Z</time>
      </trkpt>
      <trkpt lat="44.14572" lon="6.68145">
        <ele>1894.5999755859</ele>
        <time>2022-07-09T09:46:26.000Z</time>
      </trkpt>
      <trkpt lat="44.14571" lon="6.68146">
        <ele>1895</ele>
        <time>2022-07-09T09:46:29.000Z</time>
      </trkpt>
      <trkpt lat="44.1457" lon="6.68147">
        <ele>1895.4000244141</ele>
        <time>2022-07-09T09:46:31.000Z</time>
      </trkpt>
      <trkpt lat="44.14569" lon="6.68148">
        <ele>1895.5999755859</ele>
        <time>2022-07-09T09:46:33.000Z</time>
      </trkpt>
      <trkpt lat="44.14567" lon="6.6815">
        <ele>1896.4000244141</ele>
        <time>2022-07-09T09:46:38.000Z</time>
      </trkpt>
      <trkpt lat="44.14565" lon="6.68153">
        <ele>1897</ele>
        <time>2022-07-09T09:46:42.000Z</time>
      </trkpt>
      <trkpt lat="44.14563" lon="6.68156">
        <ele>1897.5999755859</ele>
        <time>2022-07-09T09:46:46.000Z</time>
      </trkpt>
      <trkpt lat="44.1456" lon="6.68158">
        <ele>1898.4000244141</ele>
        <time>2022-07-09T09:46:51.000Z</time>
      </trkpt>
      <trkpt lat="44.14558" lon="6.68163">
        <ele>1898.4000244141</ele>
        <time>2022-07-09T09:46:58.000Z</time>
      </trkpt>
      <trkpt lat="44.14555" lon="6.68166">
        <ele>1898.5999755859</ele>
        <time>2022-07-09T09:47:01.000Z</time>
      </trkpt>
      <trkpt lat="44.14554" lon="6.68166">
        <ele>1898.8000488281</ele>
        <time>2022-07-09T09:47:02.000Z</time>
      </trkpt>
      <trkpt lat="44.14549" lon="6.68171">
        <ele>1899.4000244141</ele>
        <time>2022-07-09T09:47:09.000Z</time>
      </trkpt>
      <trkpt lat="44.14546" lon="6.68172">
        <ele>1899.8000488281</ele>
        <time>2022-07-09T09:47:12.000Z</time>
      </trkpt>
      <trkpt lat="44.14542" lon="6.68176">
        <ele>1900.1999511719</ele>
        <time>2022-07-09T09:47:18.000Z</time>
      </trkpt>
      <trkpt lat="44.14537" lon="6.68179">
        <ele>1900.8000488281</ele>
        <time>2022-07-09T09:47:22.000Z</time>
      </trkpt>
      <trkpt lat="44.14531" lon="6.6818">
        <ele>1901</ele>
        <time>2022-07-09T09:47:26.000Z</time>
      </trkpt>
      <trkpt lat="44.14518" lon="6.6818">
        <ele>1901</ele>
        <time>2022-07-09T09:47:33.000Z</time>
      </trkpt>
      <trkpt lat="44.14517" lon="6.6818">
        <ele>1901.1999511719</ele>
        <time>2022-07-09T09:47:34.000Z</time>
      </trkpt>
      <trkpt lat="44.1451" lon="6.68181">
        <ele>1901.8000488281</ele>
        <time>2022-07-09T09:47:39.000Z</time>
      </trkpt>
      <trkpt lat="44.14505" lon="6.68182">
        <ele>1902</ele>
        <time>2022-07-09T09:47:42.000Z</time>
      </trkpt>
      <trkpt lat="44.14498" lon="6.68187">
        <ele>1902.1999511719</ele>
        <time>2022-07-09T09:47:45.000Z</time>
      </trkpt>
      <trkpt lat="44.14481" lon="6.682">
        <ele>1902.4000244141</ele>
        <time>2022-07-09T09:47:53.000Z</time>
      </trkpt>
      <trkpt lat="44.14472" lon="6.68206">
        <ele>1902.8000488281</ele>
        <time>2022-07-09T09:47:57.000Z</time>
      </trkpt>
      <trkpt lat="44.1446" lon="6.68213">
        <ele>1903</ele>
        <time>2022-07-09T09:48:02.000Z</time>
      </trkpt>
      <trkpt lat="44.14436" lon="6.68229">
        <ele>1903.1999511719</ele>
        <time>2022-07-09T09:48:11.000Z</time>
      </trkpt>
      <trkpt lat="44.14416" lon="6.6825">
        <ele>1903.8000488281</ele>
        <time>2022-07-09T09:48:20.000Z</time>
      </trkpt>
      <trkpt lat="44.14414" lon="6.68252">
        <ele>1904</ele>
        <time>2022-07-09T09:48:21.000Z</time>
      </trkpt>
      <trkpt lat="44.14403" lon="6.68265">
        <ele>1904.8000488281</ele>
        <time>2022-07-09T09:48:27.000Z</time>
      </trkpt>
      <trkpt lat="44.144" lon="6.6827">
        <ele>1905</ele>
        <time>2022-07-09T09:48:29.000Z</time>
      </trkpt>
      <trkpt lat="44.1439" lon="6.68286">
        <ele>1905.4000244141</ele>
        <time>2022-07-09T09:48:34.000Z</time>
      </trkpt>
      <trkpt lat="44.14367" lon="6.68302">
        <ele>1905</ele>
        <time>2022-07-09T09:48:41.000Z</time>
      </trkpt>
      <trkpt lat="44.1435" lon="6.68317">
        <ele>1905.8000488281</ele>
        <time>2022-07-09T09:48:48.000Z</time>
      </trkpt>
      <trkpt lat="44.14346" lon="6.68321">
        <ele>1906.1999511719</ele>
        <time>2022-07-09T09:48:50.000Z</time>
      </trkpt>
      <trkpt lat="44.14338" lon="6.68334">
        <ele>1907</ele>
        <time>2022-07-09T09:48:56.000Z</time>
      </trkpt>
      <trkpt lat="44.14337" lon="6.68336">
        <ele>1907.1999511719</ele>
        <time>2022-07-09T09:48:57.000Z</time>
      </trkpt>
      <trkpt lat="44.14328" lon="6.68344">
        <ele>1908</ele>
        <time>2022-07-09T09:49:02.000Z</time>
      </trkpt>
      <trkpt lat="44.1432" lon="6.68345">
        <ele>1908.4000244141</ele>
        <time>2022-07-09T09:49:05.000Z</time>
      </trkpt>
      <trkpt lat="44.14316" lon="6.68344">
        <ele>1908.1999511719</ele>
        <time>2022-07-09T09:49:07.000Z</time>
      </trkpt>
      <trkpt lat="44.14313" lon="6.68345">
        <ele>1908.8000488281</ele>
        <time>2022-07-09T09:49:11.000Z</time>
      </trkpt>
      <trkpt lat="44.14309" lon="6.68345">
        <ele>1909.5999755859</ele>
        <time>2022-07-09T09:49:16.000Z</time>
      </trkpt>
      <trkpt lat="44.14308" lon="6.68345">
        <ele>1910</ele>
        <time>2022-07-09T09:49:18.000Z</time>
      </trkpt>
      <trkpt lat="44.14305" lon="6.68346">
        <ele>1910.5999755859</ele>
        <time>2022-07-09T09:49:21.000Z</time>
      </trkpt>
      <trkpt lat="44.14301" lon="6.68348">
        <ele>1911.5999755859</ele>
        <time>2022-07-09T09:49:27.000Z</time>
      </trkpt>
      <trkpt lat="44.143" lon="6.68348">
        <ele>1912</ele>
        <time>2022-07-09T09:49:29.000Z</time>
      </trkpt>
      <trkpt lat="44.14299" lon="6.68348">
        <ele>1912.8000488281</ele>
        <time>2022-07-09T09:49:33.000Z</time>
      </trkpt>
      <trkpt lat="44.14298" lon="6.68348">
        <ele>1913.4000244141</ele>
        <time>2022-07-09T09:49:38.000Z</time>
      </trkpt>
      <trkpt lat="44.14296" lon="6.68348">
        <ele>1913.5999755859</ele>
        <time>2022-07-09T09:49:50.000Z</time>
      </trkpt>
      <trkpt lat="44.14295" lon="6.68349">
        <ele>1913.8000488281</ele>
        <time>2022-07-09T09:49:52.000Z</time>
      </trkpt>
      <trkpt lat="44.14292" lon="6.68351">
        <ele>1915</ele>
        <time>2022-07-09T09:49:59.000Z</time>
      </trkpt>
      <trkpt lat="44.14291" lon="6.68352">
        <ele>1915.1999511719</ele>
        <time>2022-07-09T09:50:00.000Z</time>
      </trkpt>
      <trkpt lat="44.14288" lon="6.68354">
        <ele>1916</ele>
        <time>2022-07-09T09:50:05.000Z</time>
      </trkpt>
      <trkpt lat="44.14284" lon="6.68356">
        <ele>1917.1999511719</ele>
        <time>2022-07-09T09:50:11.000Z</time>
      </trkpt>
      <trkpt lat="44.1428" lon="6.68359">
        <ele>1918.4000244141</ele>
        <time>2022-07-09T09:50:17.000Z</time>
      </trkpt>
      <trkpt lat="44.14276" lon="6.6836">
        <ele>1919.1999511719</ele>
        <time>2022-07-09T09:50:21.000Z</time>
      </trkpt>
      <trkpt lat="44.14273" lon="6.6836">
        <ele>1919.5999755859</ele>
        <time>2022-07-09T09:50:24.000Z</time>
      </trkpt>
      <trkpt lat="44.14267" lon="6.68361">
        <ele>1920</ele>
        <time>2022-07-09T09:50:30.000Z</time>
      </trkpt>
      <trkpt lat="44.14267" lon="6.6836">
        <ele>1920.1999511719</ele>
        <time>2022-07-09T09:50:35.000Z</time>
      </trkpt>
      <trkpt lat="44.14265" lon="6.6836">
        <ele>1920.1999511719</ele>
        <time>2022-07-09T09:50:36.000Z</time>
      </trkpt>
      <trkpt lat="44.14252" lon="6.6836">
        <ele>1920.4000244141</ele>
        <time>2022-07-09T09:50:43.000Z</time>
      </trkpt>
      <trkpt lat="44.14246" lon="6.68361">
        <ele>1920.5999755859</ele>
        <time>2022-07-09T09:50:46.000Z</time>
      </trkpt>
      <trkpt lat="44.14238" lon="6.68363">
        <ele>1921.1999511719</ele>
        <time>2022-07-09T09:50:50.000Z</time>
      </trkpt>
      <trkpt lat="44.14218" lon="6.68368">
        <ele>1921.4000244141</ele>
        <time>2022-07-09T09:50:58.000Z</time>
      </trkpt>
      <trkpt lat="44.14192" lon="6.68381">
        <ele>1921.1999511719</ele>
        <time>2022-07-09T09:51:07.000Z</time>
      </trkpt>
      <trkpt lat="44.14169" lon="6.68395">
        <ele>1920</ele>
        <time>2022-07-09T09:51:14.000Z</time>
      </trkpt>
      <trkpt lat="44.14165" lon="6.68397">
        <ele>1919.5999755859</ele>
        <time>2022-07-09T09:51:15.000Z</time>
      </trkpt>
      <trkpt lat="44.14153" lon="6.684">
        <ele>1918</ele>
        <time>2022-07-09T09:51:18.000Z</time>
      </trkpt>
      <trkpt lat="44.1414" lon="6.68402">
        <ele>1916.4000244141</ele>
        <time>2022-07-09T09:51:21.000Z</time>
      </trkpt>
      <trkpt lat="44.14136" lon="6.68404">
        <ele>1915.5999755859</ele>
        <time>2022-07-09T09:51:22.000Z</time>
      </trkpt>
      <trkpt lat="44.14133" lon="6.68406">
        <ele>1914.8000488281</ele>
        <time>2022-07-09T09:51:23.000Z</time>
      </trkpt>
      <trkpt lat="44.14124" lon="6.68406">
        <ele>1913.4000244141</ele>
        <time>2022-07-09T09:51:25.000Z</time>
      </trkpt>
      <trkpt lat="44.14119" lon="6.68406">
        <ele>1913.4000244141</ele>
        <time>2022-07-09T09:51:26.000Z</time>
      </trkpt>
      <trkpt lat="44.14114" lon="6.68406">
        <ele>1913.1999511719</ele>
        <time>2022-07-09T09:51:27.000Z</time>
      </trkpt>
      <trkpt lat="44.1411" lon="6.68406">
        <ele>1913.5999755859</ele>
        <time>2022-07-09T09:51:28.000Z</time>
      </trkpt>
      <trkpt lat="44.14102" lon="6.68409">
        <ele>1912.8000488281</ele>
        <time>2022-07-09T09:51:30.000Z</time>
      </trkpt>
      <trkpt lat="44.141" lon="6.6841">
        <ele>1912.1999511719</ele>
        <time>2022-07-09T09:51:31.000Z</time>
      </trkpt>
      <trkpt lat="44.14093" lon="6.68411">
        <ele>1911.5999755859</ele>
        <time>2022-07-09T09:51:33.000Z</time>
      </trkpt>
      <trkpt lat="44.1409" lon="6.68412">
        <ele>1911.4000244141</ele>
        <time>2022-07-09T09:51:34.000Z</time>
      </trkpt>
      <trkpt lat="44.14075" lon="6.68414">
        <ele>1911.5999755859</ele>
        <time>2022-07-09T09:51:39.000Z</time>
      </trkpt>
      <trkpt lat="44.14057" lon="6.68423">
        <ele>1911.8000488281</ele>
        <time>2022-07-09T09:51:44.000Z</time>
      </trkpt>
      <trkpt lat="44.14047" lon="6.6843">
        <ele>1911.4000244141</ele>
        <time>2022-07-09T09:51:46.000Z</time>
      </trkpt>
      <trkpt lat="44.14042" lon="6.68433">
        <ele>1911</ele>
        <time>2022-07-09T09:51:47.000Z</time>
      </trkpt>
      <trkpt lat="44.14036" lon="6.68435">
        <ele>1910.4000244141</ele>
        <time>2022-07-09T09:51:48.000Z</time>
      </trkpt>
      <trkpt lat="44.1403" lon="6.68438">
        <ele>1910</ele>
        <time>2022-07-09T09:51:49.000Z</time>
      </trkpt>
      <trkpt lat="44.1402" lon="6.68439">
        <ele>1908.1999511719</ele>
        <time>2022-07-09T09:51:51.000Z</time>
      </trkpt>
      <trkpt lat="44.14016" lon="6.68438">
        <ele>1907.4000244141</ele>
        <time>2022-07-09T09:51:52.000Z</time>
      </trkpt>
      <trkpt lat="44.14012" lon="6.68438">
        <ele>1907</ele>
        <time>2022-07-09T09:51:53.000Z</time>
      </trkpt>
      <trkpt lat="44.13992" lon="6.6844">
        <ele>1907.5999755859</ele>
        <time>2022-07-09T09:51:58.000Z</time>
      </trkpt>
      <trkpt lat="44.13975" lon="6.68446">
        <ele>1908.1999511719</ele>
        <time>2022-07-09T09:52:03.000Z</time>
      </trkpt>
      <trkpt lat="44.13968" lon="6.68449">
        <ele>1908.5999755859</ele>
        <time>2022-07-09T09:52:05.000Z</time>
      </trkpt>
      <trkpt lat="44.13947" lon="6.6846">
        <ele>1909.1999511719</ele>
        <time>2022-07-09T09:52:12.000Z</time>
      </trkpt>
      <trkpt lat="44.13942" lon="6.68463">
        <ele>1909.5999755859</ele>
        <time>2022-07-09T09:52:14.000Z</time>
      </trkpt>
      <trkpt lat="44.13933" lon="6.68476">
        <ele>1910.4000244141</ele>
        <time>2022-07-09T09:52:20.000Z</time>
      </trkpt>
      <trkpt lat="44.13925" lon="6.68487">
        <ele>1911.4000244141</ele>
        <time>2022-07-09T09:52:26.000Z</time>
      </trkpt>
      <trkpt lat="44.13923" lon="6.68491">
        <ele>1911.8000488281</ele>
        <time>2022-07-09T09:52:28.000Z</time>
      </trkpt>
      <trkpt lat="44.13917" lon="6.68498">
        <ele>1912.4000244141</ele>
        <time>2022-07-09T09:52:32.000Z</time>
      </trkpt>
      <trkpt lat="44.13913" lon="6.685">
        <ele>1912.8000488281</ele>
        <time>2022-07-09T09:52:34.000Z</time>
      </trkpt>
      <trkpt lat="44.13906" lon="6.68501">
        <ele>1913.4000244141</ele>
        <time>2022-07-09T09:52:37.000Z</time>
      </trkpt>
      <trkpt lat="44.13897" lon="6.68504">
        <ele>1913.8000488281</ele>
        <time>2022-07-09T09:52:41.000Z</time>
      </trkpt>
      <trkpt lat="44.13876" lon="6.68511">
        <ele>1913.4000244141</ele>
        <time>2022-07-09T09:52:48.000Z</time>
      </trkpt>
      <trkpt lat="44.13852" lon="6.68524">
        <ele>1914</ele>
        <time>2022-07-09T09:52:57.000Z</time>
      </trkpt>
      <trkpt lat="44.13846" lon="6.68529">
        <ele>1914.5999755859</ele>
        <time>2022-07-09T09:53:00.000Z</time>
      </trkpt>
      <trkpt lat="44.1384" lon="6.68534">
        <ele>1915.1999511719</ele>
        <time>2022-07-09T09:53:04.000Z</time>
      </trkpt>
      <trkpt lat="44.13835" lon="6.68539">
        <ele>1915.8000488281</ele>
        <time>2022-07-09T09:53:07.000Z</time>
      </trkpt>
      <trkpt lat="44.13826" lon="6.68548">
        <ele>1916</ele>
        <time>2022-07-09T09:53:11.000Z</time>
      </trkpt>
      <trkpt lat="44.13812" lon="6.6856">
        <ele>1916</ele>
        <time>2022-07-09T09:53:17.000Z</time>
      </trkpt>
      <trkpt lat="44.138" lon="6.68562">
        <ele>1915.4000244141</ele>
        <time>2022-07-09T09:53:22.000Z</time>
      </trkpt>
      <trkpt lat="44.13796" lon="6.68564">
        <ele>1915.8000488281</ele>
        <time>2022-07-09T09:53:27.000Z</time>
      </trkpt>
      <trkpt lat="44.13791" lon="6.68567">
        <ele>1916.4000244141</ele>
        <time>2022-07-09T09:53:32.000Z</time>
      </trkpt>
      <trkpt lat="44.13782" lon="6.68575">
        <ele>1916.8000488281</ele>
        <time>2022-07-09T09:53:39.000Z</time>
      </trkpt>
      <trkpt lat="44.13775" lon="6.68583">
        <ele>1917.8000488281</ele>
        <time>2022-07-09T09:53:46.000Z</time>
      </trkpt>
      <trkpt lat="44.13774" lon="6.68584">
        <ele>1917.8000488281</ele>
        <time>2022-07-09T09:53:47.000Z</time>
      </trkpt>
      <trkpt lat="44.1377" lon="6.68586">
        <ele>1918.4000244141</ele>
        <time>2022-07-09T09:53:51.000Z</time>
      </trkpt>
      <trkpt lat="44.13768" lon="6.68588">
        <ele>1918.5999755859</ele>
        <time>2022-07-09T09:53:53.000Z</time>
      </trkpt>
      <trkpt lat="44.13767" lon="6.68589">
        <ele>1918.8000488281</ele>
        <time>2022-07-09T09:53:54.000Z</time>
      </trkpt>
      <trkpt lat="44.13764" lon="6.68592">
        <ele>1919.5999755859</ele>
        <time>2022-07-09T09:53:58.000Z</time>
      </trkpt>
      <trkpt lat="44.13763" lon="6.68593">
        <ele>1919.8000488281</ele>
        <time>2022-07-09T09:53:59.000Z</time>
      </trkpt>
      <trkpt lat="44.1376" lon="6.68598">
        <ele>1920.5999755859</ele>
        <time>2022-07-09T09:54:04.000Z</time>
      </trkpt>
      <trkpt lat="44.13759" lon="6.68599">
        <ele>1920.8000488281</ele>
        <time>2022-07-09T09:54:05.000Z</time>
      </trkpt>
      <trkpt lat="44.13759" lon="6.68606">
        <ele>1922.1999511719</ele>
        <time>2022-07-09T09:54:10.000Z</time>
      </trkpt>
      <trkpt lat="44.13758" lon="6.68607">
        <ele>1922.4000244141</ele>
        <time>2022-07-09T09:54:11.000Z</time>
      </trkpt>
      <trkpt lat="44.13756" lon="6.68611">
        <ele>1923.1999511719</ele>
        <time>2022-07-09T09:54:15.000Z</time>
      </trkpt>
      <trkpt lat="44.13755" lon="6.68614">
        <ele>1923.5999755859</ele>
        <time>2022-07-09T09:54:17.000Z</time>
      </trkpt>
      <trkpt lat="44.13754" lon="6.68616">
        <ele>1924</ele>
        <time>2022-07-09T09:54:19.000Z</time>
      </trkpt>
      <trkpt lat="44.13753" lon="6.68618">
        <ele>1924.4000244141</ele>
        <time>2022-07-09T09:54:21.000Z</time>
      </trkpt>
      <trkpt lat="44.13752" lon="6.68619">
        <ele>1924.4000244141</ele>
        <time>2022-07-09T09:54:22.000Z</time>
      </trkpt>
      <trkpt lat="44.13752" lon="6.6862">
        <ele>1925.1999511719</ele>
        <time>2022-07-09T09:54:27.000Z</time>
      </trkpt>
      <trkpt lat="44.13751" lon="6.68622">
        <ele>1925.4000244141</ele>
        <time>2022-07-09T09:54:33.000Z</time>
      </trkpt>
      <trkpt lat="44.1375" lon="6.68623">
        <ele>1925.1999511719</ele>
        <time>2022-07-09T09:54:34.000Z</time>
      </trkpt>
      <trkpt lat="44.13749" lon="6.68623">
        <ele>1925.4000244141</ele>
        <time>2022-07-09T09:54:35.000Z</time>
      </trkpt>
      <trkpt lat="44.13745" lon="6.68627">
        <ele>1926.1999511719</ele>
        <time>2022-07-09T09:54:40.000Z</time>
      </trkpt>
      <trkpt lat="44.13744" lon="6.68628">
        <ele>1926.5999755859</ele>
        <time>2022-07-09T09:54:42.000Z</time>
      </trkpt>
      <trkpt lat="44.13739" lon="6.68634">
        <ele>1927.4000244141</ele>
        <time>2022-07-09T09:54:49.000Z</time>
      </trkpt>
      <trkpt lat="44.13739" lon="6.68635">
        <ele>1927.5999755859</ele>
        <time>2022-07-09T09:54:50.000Z</time>
      </trkpt>
      <trkpt lat="44.13736" lon="6.68639">
        <ele>1928.1999511719</ele>
        <time>2022-07-09T09:54:55.000Z</time>
      </trkpt>
      <trkpt lat="44.13734" lon="6.68642">
        <ele>1928.8000488281</ele>
        <time>2022-07-09T09:54:58.000Z</time>
      </trkpt>
      <trkpt lat="44.13733" lon="6.68644">
        <ele>1929</ele>
        <time>2022-07-09T09:55:00.000Z</time>
      </trkpt>
      <trkpt lat="44.13733" lon="6.68645">
        <ele>1929.1999511719</ele>
        <time>2022-07-09T09:55:01.000Z</time>
      </trkpt>
      <trkpt lat="44.13731" lon="6.68649">
        <ele>1929.4000244141</ele>
        <time>2022-07-09T09:55:04.000Z</time>
      </trkpt>
      <trkpt lat="44.13729" lon="6.68652">
        <ele>1929.8000488281</ele>
        <time>2022-07-09T09:55:07.000Z</time>
      </trkpt>
      <trkpt lat="44.13729" lon="6.68653">
        <ele>1929.8000488281</ele>
        <time>2022-07-09T09:55:08.000Z</time>
      </trkpt>
      <trkpt lat="44.13725" lon="6.68661">
        <ele>1930.4000244141</ele>
        <time>2022-07-09T09:55:15.000Z</time>
      </trkpt>
      <trkpt lat="44.13723" lon="6.68663">
        <ele>1930.8000488281</ele>
        <time>2022-07-09T09:55:18.000Z</time>
      </trkpt>
      <trkpt lat="44.1372" lon="6.68666">
        <ele>1931.1999511719</ele>
        <time>2022-07-09T09:55:22.000Z</time>
      </trkpt>
      <trkpt lat="44.1372" lon="6.68667">
        <ele>1931.4000244141</ele>
        <time>2022-07-09T09:55:23.000Z</time>
      </trkpt>
      <trkpt lat="44.13712" lon="6.68674">
        <ele>1931.8000488281</ele>
        <time>2022-07-09T09:55:31.000Z</time>
      </trkpt>
      <trkpt lat="44.13707" lon="6.6868">
        <ele>1932.8000488281</ele>
        <time>2022-07-09T09:55:36.000Z</time>
      </trkpt>
      <trkpt lat="44.13706" lon="6.68682">
        <ele>1933</ele>
        <time>2022-07-09T09:55:38.000Z</time>
      </trkpt>
      <trkpt lat="44.13704" lon="6.68684">
        <ele>1933.4000244141</ele>
        <time>2022-07-09T09:55:41.000Z</time>
      </trkpt>
      <trkpt lat="44.13703" lon="6.68686">
        <ele>1933.8000488281</ele>
        <time>2022-07-09T09:55:44.000Z</time>
      </trkpt>
      <trkpt lat="44.13701" lon="6.68687">
        <ele>1934.1999511719</ele>
        <time>2022-07-09T09:55:46.000Z</time>
      </trkpt>
      <trkpt lat="44.137" lon="6.68688">
        <ele>1934.4000244141</ele>
        <time>2022-07-09T09:55:48.000Z</time>
      </trkpt>
      <trkpt lat="44.13697" lon="6.68692">
        <ele>1935.1999511719</ele>
        <time>2022-07-09T09:55:53.000Z</time>
      </trkpt>
      <trkpt lat="44.13696" lon="6.68693">
        <ele>1935.5999755859</ele>
        <time>2022-07-09T09:55:55.000Z</time>
      </trkpt>
      <trkpt lat="44.13694" lon="6.68695">
        <ele>1936.1999511719</ele>
        <time>2022-07-09T09:55:59.000Z</time>
      </trkpt>
      <trkpt lat="44.13691" lon="6.68699">
        <ele>1937.1999511719</ele>
        <time>2022-07-09T09:56:04.000Z</time>
      </trkpt>
      <trkpt lat="44.1369" lon="6.68699">
        <ele>1937.4000244141</ele>
        <time>2022-07-09T09:56:05.000Z</time>
      </trkpt>
      <trkpt lat="44.13687" lon="6.68704">
        <ele>1938.4000244141</ele>
        <time>2022-07-09T09:56:11.000Z</time>
      </trkpt>
      <trkpt lat="44.13686" lon="6.68705">
        <ele>1938.8000488281</ele>
        <time>2022-07-09T09:56:13.000Z</time>
      </trkpt>
      <trkpt lat="44.13684" lon="6.68708">
        <ele>1939.4000244141</ele>
        <time>2022-07-09T09:56:17.000Z</time>
      </trkpt>
      <trkpt lat="44.1368" lon="6.68712">
        <ele>1940.4000244141</ele>
        <time>2022-07-09T09:56:24.000Z</time>
      </trkpt>
      <trkpt lat="44.13679" lon="6.68713">
        <ele>1940.5999755859</ele>
        <time>2022-07-09T09:56:25.000Z</time>
      </trkpt>
      <trkpt lat="44.13675" lon="6.68716">
        <ele>1941.5999755859</ele>
        <time>2022-07-09T09:56:32.000Z</time>
      </trkpt>
      <trkpt lat="44.13674" lon="6.68717">
        <ele>1941.8000488281</ele>
        <time>2022-07-09T09:56:34.000Z</time>
      </trkpt>
      <trkpt lat="44.13672" lon="6.68719">
        <ele>1942.5999755859</ele>
        <time>2022-07-09T09:56:39.000Z</time>
      </trkpt>
      <trkpt lat="44.13671" lon="6.68721">
        <ele>1943</ele>
        <time>2022-07-09T09:56:42.000Z</time>
      </trkpt>
      <trkpt lat="44.13667" lon="6.68723">
        <ele>1943.5999755859</ele>
        <time>2022-07-09T09:56:48.000Z</time>
      </trkpt>
      <trkpt lat="44.13665" lon="6.68725">
        <ele>1944.1999511719</ele>
        <time>2022-07-09T09:56:51.000Z</time>
      </trkpt>
      <trkpt lat="44.13664" lon="6.68726">
        <ele>1944.8000488281</ele>
        <time>2022-07-09T09:56:55.000Z</time>
      </trkpt>
      <trkpt lat="44.13664" lon="6.68726">
        <ele>1944.8000488281</ele>
        <time>2022-07-09T09:56:58.000Z</time>
      </trkpt>
      <trkpt lat="44.13659" lon="6.68729">
        <ele>1945</ele>
        <time>2022-07-09T09:57:03.000Z</time>
      </trkpt>
      <trkpt lat="44.13653" lon="6.68734">
        <ele>1945.8000488281</ele>
        <time>2022-07-09T09:57:08.000Z</time>
      </trkpt>
      <trkpt lat="44.13651" lon="6.68736">
        <ele>1946</ele>
        <time>2022-07-09T09:57:10.000Z</time>
      </trkpt>
      <trkpt lat="44.13645" lon="6.68739">
        <ele>1947</ele>
        <time>2022-07-09T09:57:16.000Z</time>
      </trkpt>
      <trkpt lat="44.13644" lon="6.68739">
        <ele>1947.1999511719</ele>
        <time>2022-07-09T09:57:17.000Z</time>
      </trkpt>
      <trkpt lat="44.13643" lon="6.6874">
        <ele>1947.4000244141</ele>
        <time>2022-07-09T09:57:19.000Z</time>
      </trkpt>
      <trkpt lat="44.13639" lon="6.68741">
        <ele>1948</ele>
        <time>2022-07-09T09:57:23.000Z</time>
      </trkpt>
      <trkpt lat="44.13638" lon="6.68741">
        <ele>1948.1999511719</ele>
        <time>2022-07-09T09:57:24.000Z</time>
      </trkpt>
      <trkpt lat="44.13636" lon="6.68741">
        <ele>1948.1999511719</ele>
        <time>2022-07-09T09:57:25.000Z</time>
      </trkpt>
      <trkpt lat="44.13627" lon="6.68747">
        <ele>1949.1999511719</ele>
        <time>2022-07-09T09:57:34.000Z</time>
      </trkpt>
      <trkpt lat="44.13625" lon="6.68748">
        <ele>1949.5999755859</ele>
        <time>2022-07-09T09:57:37.000Z</time>
      </trkpt>
      <trkpt lat="44.13621" lon="6.68752">
        <ele>1950</ele>
        <time>2022-07-09T09:57:41.000Z</time>
      </trkpt>
      <trkpt lat="44.13618" lon="6.68756">
        <ele>1950.1999511719</ele>
        <time>2022-07-09T09:57:45.000Z</time>
      </trkpt>
      <trkpt lat="44.13615" lon="6.6876">
        <ele>1950.4000244141</ele>
        <time>2022-07-09T09:57:48.000Z</time>
      </trkpt>
      <trkpt lat="44.13604" lon="6.68768">
        <ele>1950.4000244141</ele>
        <time>2022-07-09T09:57:54.000Z</time>
      </trkpt>
      <trkpt lat="44.13587" lon="6.68779">
        <ele>1950.4000244141</ele>
        <time>2022-07-09T09:58:02.000Z</time>
      </trkpt>
      <trkpt lat="44.13574" lon="6.68792">
        <ele>1950.8000488281</ele>
        <time>2022-07-09T09:58:09.000Z</time>
      </trkpt>
      <trkpt lat="44.13569" lon="6.68796">
        <ele>1951.1999511719</ele>
        <time>2022-07-09T09:58:13.000Z</time>
      </trkpt>
      <trkpt lat="44.13566" lon="6.68799">
        <ele>1951.5999755859</ele>
        <time>2022-07-09T09:58:15.000Z</time>
      </trkpt>
      <trkpt lat="44.13556" lon="6.68808">
        <ele>1952.4000244141</ele>
        <time>2022-07-09T09:58:22.000Z</time>
      </trkpt>
      <trkpt lat="44.13554" lon="6.68809">
        <ele>1952.4000244141</ele>
        <time>2022-07-09T09:58:23.000Z</time>
      </trkpt>
      <trkpt lat="44.13543" lon="6.68816">
        <ele>1953.4000244141</ele>
        <time>2022-07-09T09:58:30.000Z</time>
      </trkpt>
      <trkpt lat="44.13537" lon="6.68821">
        <ele>1954.5999755859</ele>
        <time>2022-07-09T09:58:34.000Z</time>
      </trkpt>
      <trkpt lat="44.13533" lon="6.68823">
        <ele>1955</ele>
        <time>2022-07-09T09:58:37.000Z</time>
      </trkpt>
      <trkpt lat="44.13528" lon="6.68825">
        <ele>1955.8000488281</ele>
        <time>2022-07-09T09:58:41.000Z</time>
      </trkpt>
      <trkpt lat="44.13524" lon="6.68827">
        <ele>1956.4000244141</ele>
        <time>2022-07-09T09:58:45.000Z</time>
      </trkpt>
      <trkpt lat="44.13522" lon="6.68828">
        <ele>1956.8000488281</ele>
        <time>2022-07-09T09:58:47.000Z</time>
      </trkpt>
      <trkpt lat="44.13517" lon="6.68832">
        <ele>1957.1999511719</ele>
        <time>2022-07-09T09:58:51.000Z</time>
      </trkpt>
      <trkpt lat="44.13508" lon="6.68837">
        <ele>1957.4000244141</ele>
        <time>2022-07-09T09:58:57.000Z</time>
      </trkpt>
      <trkpt lat="44.13499" lon="6.68842">
        <ele>1957.8000488281</ele>
        <time>2022-07-09T09:59:03.000Z</time>
      </trkpt>
      <trkpt lat="44.13499" lon="6.68842">
        <ele>1957.8000488281</ele>
        <time>2022-07-09T09:59:05.000Z</time>
      </trkpt>
      <trkpt lat="44.13498" lon="6.68843">
        <ele>1958</ele>
        <time>2022-07-09T09:59:08.000Z</time>
      </trkpt>
      <trkpt lat="44.13496" lon="6.68846">
        <ele>1958</ele>
        <time>2022-07-09T09:59:20.000Z</time>
      </trkpt>
      <trkpt lat="44.13495" lon="6.68847">
        <ele>1958.1999511719</ele>
        <time>2022-07-09T09:59:34.000Z</time>
      </trkpt>
      <trkpt lat="44.1349" lon="6.6885">
        <ele>1958.5999755859</ele>
        <time>2022-07-09T09:59:42.000Z</time>
      </trkpt>
      <trkpt lat="44.13487" lon="6.68852">
        <ele>1958.8000488281</ele>
        <time>2022-07-09T09:59:46.000Z</time>
      </trkpt>
      <trkpt lat="44.13482" lon="6.68853">
        <ele>1959.1999511719</ele>
        <time>2022-07-09T09:59:50.000Z</time>
      </trkpt>
      <trkpt lat="44.13477" lon="6.68856">
        <ele>1959.8000488281</ele>
        <time>2022-07-09T09:59:56.000Z</time>
      </trkpt>
      <trkpt lat="44.13476" lon="6.68856">
        <ele>1960</ele>
        <time>2022-07-09T09:59:57.000Z</time>
      </trkpt>
      <trkpt lat="44.13468" lon="6.68862">
        <ele>1960.5999755859</ele>
        <time>2022-07-09T10:00:05.000Z</time>
      </trkpt>
      <trkpt lat="44.13466" lon="6.68865">
        <ele>1961</ele>
        <time>2022-07-09T10:00:08.000Z</time>
      </trkpt>
      <trkpt lat="44.13462" lon="6.68869">
        <ele>1961.5999755859</ele>
        <time>2022-07-09T10:00:14.000Z</time>
      </trkpt>
      <trkpt lat="44.1346" lon="6.6887">
        <ele>1962.1999511719</ele>
        <time>2022-07-09T10:00:17.000Z</time>
      </trkpt>
      <trkpt lat="44.13455" lon="6.68874">
        <ele>1963.4000244141</ele>
        <time>2022-07-09T10:00:23.000Z</time>
      </trkpt>
      <trkpt lat="44.13453" lon="6.68875">
        <ele>1963.8000488281</ele>
        <time>2022-07-09T10:00:25.000Z</time>
      </trkpt>
      <trkpt lat="44.13452" lon="6.68876">
        <ele>1964.4000244141</ele>
        <time>2022-07-09T10:00:29.000Z</time>
      </trkpt>
      <trkpt lat="44.13452" lon="6.68876">
        <ele>1964.5999755859</ele>
        <time>2022-07-09T10:00:30.000Z</time>
      </trkpt>
      <trkpt lat="44.13448" lon="6.6888">
        <ele>1964.5999755859</ele>
        <time>2022-07-09T10:00:39.000Z</time>
      </trkpt>
      <trkpt lat="44.1344" lon="6.68887">
        <ele>1965.5999755859</ele>
        <time>2022-07-09T10:00:45.000Z</time>
      </trkpt>
      <trkpt lat="44.13439" lon="6.68888">
        <ele>1965.8000488281</ele>
        <time>2022-07-09T10:00:46.000Z</time>
      </trkpt>
      <trkpt lat="44.13433" lon="6.68893">
        <ele>1966.5999755859</ele>
        <time>2022-07-09T10:00:50.000Z</time>
      </trkpt>
      <trkpt lat="44.13432" lon="6.68894">
        <ele>1966.8000488281</ele>
        <time>2022-07-09T10:00:51.000Z</time>
      </trkpt>
      <trkpt lat="44.13425" lon="6.689">
        <ele>1967.8000488281</ele>
        <time>2022-07-09T10:00:56.000Z</time>
      </trkpt>
      <trkpt lat="44.13421" lon="6.68903">
        <ele>1968.1999511719</ele>
        <time>2022-07-09T10:00:59.000Z</time>
      </trkpt>
      <trkpt lat="44.13416" lon="6.68907">
        <ele>1969</ele>
        <time>2022-07-09T10:01:03.000Z</time>
      </trkpt>
      <trkpt lat="44.13409" lon="6.68914">
        <ele>1969.8000488281</ele>
        <time>2022-07-09T10:01:09.000Z</time>
      </trkpt>
      <trkpt lat="44.13407" lon="6.68916">
        <ele>1970.1999511719</ele>
        <time>2022-07-09T10:01:11.000Z</time>
      </trkpt>
      <trkpt lat="44.13401" lon="6.68922">
        <ele>1970.5999755859</ele>
        <time>2022-07-09T10:01:16.000Z</time>
      </trkpt>
      <trkpt lat="44.13395" lon="6.68927">
        <ele>1971.1999511719</ele>
        <time>2022-07-09T10:01:21.000Z</time>
      </trkpt>
      <trkpt lat="44.13394" lon="6.68927">
        <ele>1971.4000244141</ele>
        <time>2022-07-09T10:01:22.000Z</time>
      </trkpt>
      <trkpt lat="44.13389" lon="6.68931">
        <ele>1972.1999511719</ele>
        <time>2022-07-09T10:01:27.000Z</time>
      </trkpt>
      <trkpt lat="44.13388" lon="6.68932">
        <ele>1972.5999755859</ele>
        <time>2022-07-09T10:01:29.000Z</time>
      </trkpt>
      <trkpt lat="44.13385" lon="6.68934">
        <ele>1973.1999511719</ele>
        <time>2022-07-09T10:01:33.000Z</time>
      </trkpt>
      <trkpt lat="44.13382" lon="6.68935">
        <ele>1973.4000244141</ele>
        <time>2022-07-09T10:01:35.000Z</time>
      </trkpt>
      <trkpt lat="44.13379" lon="6.68937">
        <ele>1974.1999511719</ele>
        <time>2022-07-09T10:01:39.000Z</time>
      </trkpt>
      <trkpt lat="44.13376" lon="6.68938">
        <ele>1974.5999755859</ele>
        <time>2022-07-09T10:01:42.000Z</time>
      </trkpt>
      <trkpt lat="44.1337" lon="6.68942">
        <ele>1975.1999511719</ele>
        <time>2022-07-09T10:01:48.000Z</time>
      </trkpt>
      <trkpt lat="44.13362" lon="6.68949">
        <ele>1976</ele>
        <time>2022-07-09T10:01:56.000Z</time>
      </trkpt>
      <trkpt lat="44.13355" lon="6.68952">
        <ele>1976.4000244141</ele>
        <time>2022-07-09T10:02:02.000Z</time>
      </trkpt>
      <trkpt lat="44.13353" lon="6.68955">
        <ele>1976.5999755859</ele>
        <time>2022-07-09T10:02:04.000Z</time>
      </trkpt>
      <trkpt lat="44.13349" lon="6.68959">
        <ele>1976.8000488281</ele>
        <time>2022-07-09T10:02:08.000Z</time>
      </trkpt>
      <trkpt lat="44.13346" lon="6.68963">
        <ele>1977</ele>
        <time>2022-07-09T10:02:10.000Z</time>
      </trkpt>
      <trkpt lat="44.13341" lon="6.6897">
        <ele>1977.1999511719</ele>
        <time>2022-07-09T10:02:14.000Z</time>
      </trkpt>
      <trkpt lat="44.13339" lon="6.68973">
        <ele>1977.4000244141</ele>
        <time>2022-07-09T10:02:16.000Z</time>
      </trkpt>
      <trkpt lat="44.13331" lon="6.68984">
        <ele>1978.1999511719</ele>
        <time>2022-07-09T10:02:24.000Z</time>
      </trkpt>
      <trkpt lat="44.13327" lon="6.68991">
        <ele>1978.4000244141</ele>
        <time>2022-07-09T10:02:28.000Z</time>
      </trkpt>
      <trkpt lat="44.13322" lon="6.68994">
        <ele>1978.8000488281</ele>
        <time>2022-07-09T10:02:31.000Z</time>
      </trkpt>
      <trkpt lat="44.13317" lon="6.68998">
        <ele>1979.4000244141</ele>
        <time>2022-07-09T10:02:35.000Z</time>
      </trkpt>
      <trkpt lat="44.13311" lon="6.69002">
        <ele>1980</ele>
        <time>2022-07-09T10:02:39.000Z</time>
      </trkpt>
      <trkpt lat="44.13307" lon="6.69006">
        <ele>1980.5999755859</ele>
        <time>2022-07-09T10:02:42.000Z</time>
      </trkpt>
      <trkpt lat="44.133" lon="6.69011">
        <ele>1981.1999511719</ele>
        <time>2022-07-09T10:02:47.000Z</time>
      </trkpt>
      <trkpt lat="44.13296" lon="6.69015">
        <ele>1981.5999755859</ele>
        <time>2022-07-09T10:02:51.000Z</time>
      </trkpt>
      <trkpt lat="44.13292" lon="6.69016">
        <ele>1982.1999511719</ele>
        <time>2022-07-09T10:02:54.000Z</time>
      </trkpt>
      <trkpt lat="44.13289" lon="6.69019">
        <ele>1982.5999755859</ele>
        <time>2022-07-09T10:02:57.000Z</time>
      </trkpt>
      <trkpt lat="44.13285" lon="6.69022">
        <ele>1983</ele>
        <time>2022-07-09T10:03:01.000Z</time>
      </trkpt>
      <trkpt lat="44.13279" lon="6.69028">
        <ele>1983.5999755859</ele>
        <time>2022-07-09T10:03:06.000Z</time>
      </trkpt>
      <trkpt lat="44.13273" lon="6.69033">
        <ele>1983.5999755859</ele>
        <time>2022-07-09T10:03:10.000Z</time>
      </trkpt>
      <trkpt lat="44.13253" lon="6.69048">
        <ele>1984</ele>
        <time>2022-07-09T10:03:21.000Z</time>
      </trkpt>
      <trkpt lat="44.13245" lon="6.69053">
        <ele>1984.5999755859</ele>
        <time>2022-07-09T10:03:26.000Z</time>
      </trkpt>
      <trkpt lat="44.13238" lon="6.69058">
        <ele>1985</ele>
        <time>2022-07-09T10:03:30.000Z</time>
      </trkpt>
      <trkpt lat="44.13224" lon="6.69067">
        <ele>1985.8000488281</ele>
        <time>2022-07-09T10:03:38.000Z</time>
      </trkpt>
      <trkpt lat="44.13222" lon="6.69067">
        <ele>1986</ele>
        <time>2022-07-09T10:03:39.000Z</time>
      </trkpt>
      <trkpt lat="44.13212" lon="6.69077">
        <ele>1986.8000488281</ele>
        <time>2022-07-09T10:03:46.000Z</time>
      </trkpt>
      <trkpt lat="44.13209" lon="6.6908">
        <ele>1986.8000488281</ele>
        <time>2022-07-09T10:03:49.000Z</time>
      </trkpt>
      <trkpt lat="44.13203" lon="6.69085">
        <ele>1987.5999755859</ele>
        <time>2022-07-09T10:03:54.000Z</time>
      </trkpt>
      <trkpt lat="44.13201" lon="6.69087">
        <ele>1988</ele>
        <time>2022-07-09T10:03:56.000Z</time>
      </trkpt>
      <trkpt lat="44.13195" lon="6.69091">
        <ele>1988.8000488281</ele>
        <time>2022-07-09T10:04:01.000Z</time>
      </trkpt>
      <trkpt lat="44.13193" lon="6.69093">
        <ele>1989</ele>
        <time>2022-07-09T10:04:03.000Z</time>
      </trkpt>
      <trkpt lat="44.13186" lon="6.69096">
        <ele>1989.5999755859</ele>
        <time>2022-07-09T10:04:08.000Z</time>
      </trkpt>
      <trkpt lat="44.13179" lon="6.69101">
        <ele>1990</ele>
        <time>2022-07-09T10:04:14.000Z</time>
      </trkpt>
      <trkpt lat="44.13176" lon="6.69103">
        <ele>1990.1999511719</ele>
        <time>2022-07-09T10:04:16.000Z</time>
      </trkpt>
      <trkpt lat="44.13163" lon="6.69112">
        <ele>1991</ele>
        <time>2022-07-09T10:04:26.000Z</time>
      </trkpt>
      <trkpt lat="44.13162" lon="6.69113">
        <ele>1991.1999511719</ele>
        <time>2022-07-09T10:04:27.000Z</time>
      </trkpt>
      <trkpt lat="44.13157" lon="6.69118">
        <ele>1991.5999755859</ele>
        <time>2022-07-09T10:04:32.000Z</time>
      </trkpt>
      <trkpt lat="44.13154" lon="6.69122">
        <ele>1992</ele>
        <time>2022-07-09T10:04:35.000Z</time>
      </trkpt>
      <trkpt lat="44.13153" lon="6.69122">
        <ele>1992.1999511719</ele>
        <time>2022-07-09T10:04:36.000Z</time>
      </trkpt>
      <trkpt lat="44.13149" lon="6.69125">
        <ele>1992.5999755859</ele>
        <time>2022-07-09T10:04:39.000Z</time>
      </trkpt>
      <trkpt lat="44.13141" lon="6.69131">
        <ele>1993.1999511719</ele>
        <time>2022-07-09T10:04:46.000Z</time>
      </trkpt>
      <trkpt lat="44.1314" lon="6.69132">
        <ele>1993.4000244141</ele>
        <time>2022-07-09T10:04:47.000Z</time>
      </trkpt>
      <trkpt lat="44.13132" lon="6.69138">
        <ele>1994.1999511719</ele>
        <time>2022-07-09T10:04:54.000Z</time>
      </trkpt>
      <trkpt lat="44.13131" lon="6.69139">
        <ele>1994.4000244141</ele>
        <time>2022-07-09T10:04:55.000Z</time>
      </trkpt>
      <trkpt lat="44.13123" lon="6.69145">
        <ele>1995</ele>
        <time>2022-07-09T10:05:02.000Z</time>
      </trkpt>
      <trkpt lat="44.13117" lon="6.69148">
        <ele>1995.4000244141</ele>
        <time>2022-07-09T10:05:07.000Z</time>
      </trkpt>
      <trkpt lat="44.13114" lon="6.6915">
        <ele>1995.8000488281</ele>
        <time>2022-07-09T10:05:10.000Z</time>
      </trkpt>
      <trkpt lat="44.13107" lon="6.69153">
        <ele>1996.5999755859</ele>
        <time>2022-07-09T10:05:17.000Z</time>
      </trkpt>
      <trkpt lat="44.13102" lon="6.69158">
        <ele>1997.5999755859</ele>
        <time>2022-07-09T10:05:23.000Z</time>
      </trkpt>
      <trkpt lat="44.13097" lon="6.69162">
        <ele>1998.5999755859</ele>
        <time>2022-07-09T10:05:29.000Z</time>
      </trkpt>
      <trkpt lat="44.1309" lon="6.69165">
        <ele>1999.5999755859</ele>
        <time>2022-07-09T10:05:36.000Z</time>
      </trkpt>
      <trkpt lat="44.13089" lon="6.69165">
        <ele>1999.8000488281</ele>
        <time>2022-07-09T10:05:37.000Z</time>
      </trkpt>
      <trkpt lat="44.13084" lon="6.69168">
        <ele>2000.8000488281</ele>
        <time>2022-07-09T10:05:43.000Z</time>
      </trkpt>
      <trkpt lat="44.13078" lon="6.69171">
        <ele>2001.8000488281</ele>
        <time>2022-07-09T10:05:49.000Z</time>
      </trkpt>
      <trkpt lat="44.1307" lon="6.69175">
        <ele>2002.5999755859</ele>
        <time>2022-07-09T10:05:57.000Z</time>
      </trkpt>
      <trkpt lat="44.13063" lon="6.69178">
        <ele>2003</ele>
        <time>2022-07-09T10:06:03.000Z</time>
      </trkpt>
      <trkpt lat="44.13061" lon="6.69178">
        <ele>2003</ele>
        <time>2022-07-09T10:06:04.000Z</time>
      </trkpt>
      <trkpt lat="44.13052" lon="6.69181">
        <ele>2003.5999755859</ele>
        <time>2022-07-09T10:06:12.000Z</time>
      </trkpt>
      <trkpt lat="44.13046" lon="6.69182">
        <ele>2004</ele>
        <time>2022-07-09T10:06:17.000Z</time>
      </trkpt>
      <trkpt lat="44.13042" lon="6.69183">
        <ele>2004.1999511719</ele>
        <time>2022-07-09T10:06:20.000Z</time>
      </trkpt>
      <trkpt lat="44.13033" lon="6.69184">
        <ele>2004.8000488281</ele>
        <time>2022-07-09T10:06:27.000Z</time>
      </trkpt>
      <trkpt lat="44.13032" lon="6.69184">
        <ele>2005</ele>
        <time>2022-07-09T10:06:28.000Z</time>
      </trkpt>
      <trkpt lat="44.13025" lon="6.69183">
        <ele>2005</ele>
        <time>2022-07-09T10:06:33.000Z</time>
      </trkpt>
      <trkpt lat="44.13016" lon="6.69182">
        <ele>2005.4000244141</ele>
        <time>2022-07-09T10:06:40.000Z</time>
      </trkpt>
      <trkpt lat="44.13009" lon="6.69183">
        <ele>2006</ele>
        <time>2022-07-09T10:06:45.000Z</time>
      </trkpt>
      <trkpt lat="44.13008" lon="6.69184">
        <ele>2006</ele>
        <time>2022-07-09T10:06:46.000Z</time>
      </trkpt>
      <trkpt lat="44.12998" lon="6.69184">
        <ele>2006.1999511719</ele>
        <time>2022-07-09T10:06:50.000Z</time>
      </trkpt>
      <trkpt lat="44.12984" lon="6.69179">
        <ele>2005</ele>
        <time>2022-07-09T10:06:54.000Z</time>
      </trkpt>
      <trkpt lat="44.12981" lon="6.6918">
        <ele>2004.4000244141</ele>
        <time>2022-07-09T10:06:55.000Z</time>
      </trkpt>
      <trkpt lat="44.12977" lon="6.69184">
        <ele>2003.4000244141</ele>
        <time>2022-07-09T10:06:57.000Z</time>
      </trkpt>
      <trkpt lat="44.12975" lon="6.69187">
        <ele>2003.1999511719</ele>
        <time>2022-07-09T10:06:59.000Z</time>
      </trkpt>
      <trkpt lat="44.12967" lon="6.6919">
        <ele>2003.8000488281</ele>
        <time>2022-07-09T10:07:03.000Z</time>
      </trkpt>
      <trkpt lat="44.12954" lon="6.69194">
        <ele>2003.5999755859</ele>
        <time>2022-07-09T10:07:09.000Z</time>
      </trkpt>
      <trkpt lat="44.12945" lon="6.69197">
        <ele>2003.4000244141</ele>
        <time>2022-07-09T10:07:14.000Z</time>
      </trkpt>
      <trkpt lat="44.1293" lon="6.69204">
        <ele>2004</ele>
        <time>2022-07-09T10:07:21.000Z</time>
      </trkpt>
      <trkpt lat="44.12919" lon="6.69208">
        <ele>2003.8000488281</ele>
        <time>2022-07-09T10:07:27.000Z</time>
      </trkpt>
      <trkpt lat="44.12918" lon="6.69208">
        <ele>2003.8000488281</ele>
        <time>2022-07-09T10:07:28.000Z</time>
      </trkpt>
      <trkpt lat="44.12915" lon="6.69208">
        <ele>2004.4000244141</ele>
        <time>2022-07-09T10:07:30.000Z</time>
      </trkpt>
      <trkpt lat="44.12912" lon="6.6921">
        <ele>2004.8000488281</ele>
        <time>2022-07-09T10:07:32.000Z</time>
      </trkpt>
      <trkpt lat="44.12901" lon="6.6922">
        <ele>2005.4000244141</ele>
        <time>2022-07-09T10:07:39.000Z</time>
      </trkpt>
      <trkpt lat="44.129" lon="6.69221">
        <ele>2005.4000244141</ele>
        <time>2022-07-09T10:07:40.000Z</time>
      </trkpt>
      <trkpt lat="44.12899" lon="6.69221">
        <ele>2005.8000488281</ele>
        <time>2022-07-09T10:07:42.000Z</time>
      </trkpt>
      <trkpt lat="44.12898" lon="6.69222">
        <ele>2005.8000488281</ele>
        <time>2022-07-09T10:07:43.000Z</time>
      </trkpt>
      <trkpt lat="44.12892" lon="6.69224">
        <ele>2006.5999755859</ele>
        <time>2022-07-09T10:07:49.000Z</time>
      </trkpt>
      <trkpt lat="44.12892" lon="6.69224">
        <ele>2006.5999755859</ele>
        <time>2022-07-09T10:07:50.000Z</time>
      </trkpt>
      <trkpt lat="44.12885" lon="6.69228">
        <ele>2007.5999755859</ele>
        <time>2022-07-09T10:07:57.000Z</time>
      </trkpt>
      <trkpt lat="44.12882" lon="6.6923">
        <ele>2007.8000488281</ele>
        <time>2022-07-09T10:08:00.000Z</time>
      </trkpt>
      <trkpt lat="44.12875" lon="6.69234">
        <ele>2008.4000244141</ele>
        <time>2022-07-09T10:08:08.000Z</time>
      </trkpt>
      <trkpt lat="44.12874" lon="6.69235">
        <ele>2008.5999755859</ele>
        <time>2022-07-09T10:08:09.000Z</time>
      </trkpt>
      <trkpt lat="44.1287" lon="6.6924">
        <ele>2009.8000488281</ele>
        <time>2022-07-09T10:08:15.000Z</time>
      </trkpt>
      <trkpt lat="44.12864" lon="6.69246">
        <ele>2010.8000488281</ele>
        <time>2022-07-09T10:08:22.000Z</time>
      </trkpt>
      <trkpt lat="44.12864" lon="6.69246">
        <ele>2011</ele>
        <time>2022-07-09T10:08:24.000Z</time>
      </trkpt>
      <trkpt lat="44.12863" lon="6.69247">
        <ele>2011</ele>
        <time>2022-07-09T10:08:26.000Z</time>
      </trkpt>
      <trkpt lat="44.12861" lon="6.69251">
        <ele>2011.1999511719</ele>
        <time>2022-07-09T10:08:29.000Z</time>
      </trkpt>
      <trkpt lat="44.12852" lon="6.6926">
        <ele>2011.8000488281</ele>
        <time>2022-07-09T10:08:35.000Z</time>
      </trkpt>
      <trkpt lat="44.12848" lon="6.69262">
        <ele>2011.8000488281</ele>
        <time>2022-07-09T10:08:37.000Z</time>
      </trkpt>
      <trkpt lat="44.1284" lon="6.69266">
        <ele>2012.1999511719</ele>
        <time>2022-07-09T10:08:42.000Z</time>
      </trkpt>
      <trkpt lat="44.12829" lon="6.69279">
        <ele>2012</ele>
        <time>2022-07-09T10:08:49.000Z</time>
      </trkpt>
      <trkpt lat="44.12817" lon="6.69291">
        <ele>2012.8000488281</ele>
        <time>2022-07-09T10:08:57.000Z</time>
      </trkpt>
      <trkpt lat="44.12805" lon="6.69302">
        <ele>2013.4000244141</ele>
        <time>2022-07-09T10:09:04.000Z</time>
      </trkpt>
      <trkpt lat="44.12795" lon="6.6931">
        <ele>2014</ele>
        <time>2022-07-09T10:09:10.000Z</time>
      </trkpt>
      <trkpt lat="44.12794" lon="6.69311">
        <ele>2013.8000488281</ele>
        <time>2022-07-09T10:09:11.000Z</time>
      </trkpt>
      <trkpt lat="44.12784" lon="6.69321">
        <ele>2014.8000488281</ele>
        <time>2022-07-09T10:09:17.000Z</time>
      </trkpt>
      <trkpt lat="44.12781" lon="6.69323">
        <ele>2015.1999511719</ele>
        <time>2022-07-09T10:09:19.000Z</time>
      </trkpt>
      <trkpt lat="44.12773" lon="6.69331">
        <ele>2015.5999755859</ele>
        <time>2022-07-09T10:09:24.000Z</time>
      </trkpt>
      <trkpt lat="44.12765" lon="6.69343">
        <ele>2016.4000244141</ele>
        <time>2022-07-09T10:09:30.000Z</time>
      </trkpt>
      <trkpt lat="44.12762" lon="6.69347">
        <ele>2016.4000244141</ele>
        <time>2022-07-09T10:09:32.000Z</time>
      </trkpt>
      <trkpt lat="44.12746" lon="6.69367">
        <ele>2016</ele>
        <time>2022-07-09T10:09:40.000Z</time>
      </trkpt>
      <trkpt lat="44.12739" lon="6.69378">
        <ele>2015.8000488281</ele>
        <time>2022-07-09T10:09:45.000Z</time>
      </trkpt>
      <trkpt lat="44.1273" lon="6.69388">
        <ele>2016.5999755859</ele>
        <time>2022-07-09T10:09:51.000Z</time>
      </trkpt>
      <trkpt lat="44.12725" lon="6.69393">
        <ele>2016.8000488281</ele>
        <time>2022-07-09T10:09:55.000Z</time>
      </trkpt>
      <trkpt lat="44.12724" lon="6.69395">
        <ele>2017</ele>
        <time>2022-07-09T10:09:56.000Z</time>
      </trkpt>
      <trkpt lat="44.12721" lon="6.69401">
        <ele>2017.5999755859</ele>
        <time>2022-07-09T10:09:59.000Z</time>
      </trkpt>
      <trkpt lat="44.12715" lon="6.69411">
        <ele>2017.5999755859</ele>
        <time>2022-07-09T10:10:03.000Z</time>
      </trkpt>
      <trkpt lat="44.12704" lon="6.69427">
        <ele>2017.1999511719</ele>
        <time>2022-07-09T10:10:08.000Z</time>
      </trkpt>
      <trkpt lat="44.127" lon="6.69432">
        <ele>2016.4000244141</ele>
        <time>2022-07-09T10:10:10.000Z</time>
      </trkpt>
      <trkpt lat="44.12698" lon="6.69432">
        <ele>2016</ele>
        <time>2022-07-09T10:10:11.000Z</time>
      </trkpt>
      <trkpt lat="44.12696" lon="6.69433">
        <ele>2016</ele>
        <time>2022-07-09T10:10:12.000Z</time>
      </trkpt>
      <trkpt lat="44.12693" lon="6.69438">
        <ele>2016.1999511719</ele>
        <time>2022-07-09T10:10:16.000Z</time>
      </trkpt>
      <trkpt lat="44.12692" lon="6.69441">
        <ele>2016.5999755859</ele>
        <time>2022-07-09T10:10:17.000Z</time>
      </trkpt>
      <trkpt lat="44.12688" lon="6.69445">
        <ele>2017</ele>
        <time>2022-07-09T10:10:20.000Z</time>
      </trkpt>
      <trkpt lat="44.12678" lon="6.69454">
        <ele>2017.1999511719</ele>
        <time>2022-07-09T10:10:26.000Z</time>
      </trkpt>
      <trkpt lat="44.12663" lon="6.69461">
        <ele>2017.1999511719</ele>
        <time>2022-07-09T10:10:33.000Z</time>
      </trkpt>
      <trkpt lat="44.12648" lon="6.69469">
        <ele>2017</ele>
        <time>2022-07-09T10:10:39.000Z</time>
      </trkpt>
      <trkpt lat="44.12631" lon="6.69475">
        <ele>2016.5999755859</ele>
        <time>2022-07-09T10:10:44.000Z</time>
      </trkpt>
      <trkpt lat="44.12603" lon="6.69489">
        <ele>2015.5999755859</ele>
        <time>2022-07-09T10:10:51.000Z</time>
      </trkpt>
      <trkpt lat="44.12598" lon="6.69492">
        <ele>2015.4000244141</ele>
        <time>2022-07-09T10:10:52.000Z</time>
      </trkpt>
      <trkpt lat="44.12594" lon="6.69493">
        <ele>2015.1999511719</ele>
        <time>2022-07-09T10:10:53.000Z</time>
      </trkpt>
      <trkpt lat="44.12576" lon="6.695">
        <ele>2014.5999755859</ele>
        <time>2022-07-09T10:10:57.000Z</time>
      </trkpt>
      <trkpt lat="44.12572" lon="6.69503">
        <ele>2014.1999511719</ele>
        <time>2022-07-09T10:10:58.000Z</time>
      </trkpt>
      <trkpt lat="44.12563" lon="6.6951">
        <ele>2014</ele>
        <time>2022-07-09T10:11:01.000Z</time>
      </trkpt>
      <trkpt lat="44.12552" lon="6.69519">
        <ele>2014.4000244141</ele>
        <time>2022-07-09T10:11:05.000Z</time>
      </trkpt>
      <trkpt lat="44.12542" lon="6.69519">
        <ele>2014.1999511719</ele>
        <time>2022-07-09T10:11:08.000Z</time>
      </trkpt>
      <trkpt lat="44.12534" lon="6.6952">
        <ele>2014.4000244141</ele>
        <time>2022-07-09T10:11:10.000Z</time>
      </trkpt>
      <trkpt lat="44.12509" lon="6.69521">
        <ele>2014.8000488281</ele>
        <time>2022-07-09T10:11:18.000Z</time>
      </trkpt>
      <trkpt lat="44.12493" lon="6.69526">
        <ele>2015</ele>
        <time>2022-07-09T10:11:24.000Z</time>
      </trkpt>
      <trkpt lat="44.12488" lon="6.6953">
        <ele>2015.4000244141</ele>
        <time>2022-07-09T10:11:26.000Z</time>
      </trkpt>
      <trkpt lat="44.12474" lon="6.69539">
        <ele>2016</ele>
        <time>2022-07-09T10:11:32.000Z</time>
      </trkpt>
      <trkpt lat="44.12457" lon="6.69546">
        <ele>2016.4000244141</ele>
        <time>2022-07-09T10:11:39.000Z</time>
      </trkpt>
      <trkpt lat="44.12454" lon="6.69547">
        <ele>2016.4000244141</ele>
        <time>2022-07-09T10:11:40.000Z</time>
      </trkpt>
      <trkpt lat="44.12441" lon="6.6956">
        <ele>2016.8000488281</ele>
        <time>2022-07-09T10:11:46.000Z</time>
      </trkpt>
      <trkpt lat="44.12426" lon="6.69571">
        <ele>2017.4000244141</ele>
        <time>2022-07-09T10:11:53.000Z</time>
      </trkpt>
      <trkpt lat="44.12424" lon="6.69573">
        <ele>2017.5999755859</ele>
        <time>2022-07-09T10:11:54.000Z</time>
      </trkpt>
      <trkpt lat="44.12407" lon="6.69584">
        <ele>2018.1999511719</ele>
        <time>2022-07-09T10:12:01.000Z</time>
      </trkpt>
      <trkpt lat="44.12389" lon="6.69597">
        <ele>2018.5999755859</ele>
        <time>2022-07-09T10:12:09.000Z</time>
      </trkpt>
      <trkpt lat="44.12387" lon="6.69599">
        <ele>2018.5999755859</ele>
        <time>2022-07-09T10:12:10.000Z</time>
      </trkpt>
      <trkpt lat="44.12377" lon="6.69608">
        <ele>2019.5999755859</ele>
        <time>2022-07-09T10:12:15.000Z</time>
      </trkpt>
      <trkpt lat="44.12375" lon="6.69608">
        <ele>2019.5999755859</ele>
        <time>2022-07-09T10:12:16.000Z</time>
      </trkpt>
      <trkpt lat="44.12374" lon="6.69608">
        <ele>2019.8000488281</ele>
        <time>2022-07-09T10:12:17.000Z</time>
      </trkpt>
      <trkpt lat="44.12366" lon="6.69606">
        <ele>2020.5999755859</ele>
        <time>2022-07-09T10:12:22.000Z</time>
      </trkpt>
      <trkpt lat="44.12362" lon="6.69606">
        <ele>2020.8000488281</ele>
        <time>2022-07-09T10:12:24.000Z</time>
      </trkpt>
      <trkpt lat="44.12348" lon="6.69604">
        <ele>2021</ele>
        <time>2022-07-09T10:12:31.000Z</time>
      </trkpt>
      <trkpt lat="44.12335" lon="6.696">
        <ele>2021.4000244141</ele>
        <time>2022-07-09T10:12:38.000Z</time>
      </trkpt>
      <trkpt lat="44.12326" lon="6.69603">
        <ele>2021.8000488281</ele>
        <time>2022-07-09T10:12:43.000Z</time>
      </trkpt>
      <trkpt lat="44.12324" lon="6.69604">
        <ele>2021.8000488281</ele>
        <time>2022-07-09T10:12:44.000Z</time>
      </trkpt>
      <trkpt lat="44.1231" lon="6.69618">
        <ele>2022.1999511719</ele>
        <time>2022-07-09T10:12:52.000Z</time>
      </trkpt>
      <trkpt lat="44.12301" lon="6.69626">
        <ele>2022.4000244141</ele>
        <time>2022-07-09T10:12:56.000Z</time>
      </trkpt>
      <trkpt lat="44.1229" lon="6.69633">
        <ele>2022.4000244141</ele>
        <time>2022-07-09T10:13:01.000Z</time>
      </trkpt>
      <trkpt lat="44.12279" lon="6.69636">
        <ele>2022.5999755859</ele>
        <time>2022-07-09T10:13:06.000Z</time>
      </trkpt>
      <trkpt lat="44.12267" lon="6.69639">
        <ele>2023</ele>
        <time>2022-07-09T10:13:12.000Z</time>
      </trkpt>
      <trkpt lat="44.12266" lon="6.6964">
        <ele>2023</ele>
        <time>2022-07-09T10:13:13.000Z</time>
      </trkpt>
      <trkpt lat="44.12255" lon="6.69645">
        <ele>2024</ele>
        <time>2022-07-09T10:13:20.000Z</time>
      </trkpt>
      <trkpt lat="44.12245" lon="6.69646">
        <ele>2024.1999511719</ele>
        <time>2022-07-09T10:13:26.000Z</time>
      </trkpt>
      <trkpt lat="44.12233" lon="6.6965">
        <ele>2024.8000488281</ele>
        <time>2022-07-09T10:13:33.000Z</time>
      </trkpt>
      <trkpt lat="44.1223" lon="6.69651">
        <ele>2025</ele>
        <time>2022-07-09T10:13:35.000Z</time>
      </trkpt>
      <trkpt lat="44.12221" lon="6.69653">
        <ele>2025.5999755859</ele>
        <time>2022-07-09T10:13:40.000Z</time>
      </trkpt>
      <trkpt lat="44.12211" lon="6.6966">
        <ele>2026</ele>
        <time>2022-07-09T10:13:47.000Z</time>
      </trkpt>
      <trkpt lat="44.1221" lon="6.69661">
        <ele>2026.1999511719</ele>
        <time>2022-07-09T10:13:48.000Z</time>
      </trkpt>
      <trkpt lat="44.12205" lon="6.69663">
        <ele>2026.4000244141</ele>
        <time>2022-07-09T10:13:51.000Z</time>
      </trkpt>
      <trkpt lat="44.12201" lon="6.69663">
        <ele>2026.5999755859</ele>
        <time>2022-07-09T10:13:54.000Z</time>
      </trkpt>
      <trkpt lat="44.122" lon="6.69663">
        <ele>2026.5999755859</ele>
        <time>2022-07-09T10:13:55.000Z</time>
      </trkpt>
      <trkpt lat="44.12194" lon="6.69665">
        <ele>2027.1999511719</ele>
        <time>2022-07-09T10:13:59.000Z</time>
      </trkpt>
      <trkpt lat="44.12183" lon="6.69662">
        <ele>2027.4000244141</ele>
        <time>2022-07-09T10:14:04.000Z</time>
      </trkpt>
      <trkpt lat="44.12181" lon="6.69662">
        <ele>2027.1999511719</ele>
        <time>2022-07-09T10:14:05.000Z</time>
      </trkpt>
      <trkpt lat="44.12176" lon="6.69666">
        <ele>2026.8000488281</ele>
        <time>2022-07-09T10:14:08.000Z</time>
      </trkpt>
      <trkpt lat="44.12174" lon="6.69669">
        <ele>2026.8000488281</ele>
        <time>2022-07-09T10:14:10.000Z</time>
      </trkpt>
      <trkpt lat="44.12172" lon="6.69671">
        <ele>2026.8000488281</ele>
        <time>2022-07-09T10:14:11.000Z</time>
      </trkpt>
      <trkpt lat="44.12171" lon="6.69672">
        <ele>2027.1999511719</ele>
        <time>2022-07-09T10:14:12.000Z</time>
      </trkpt>
      <trkpt lat="44.12165" lon="6.69677">
        <ele>2027.8000488281</ele>
        <time>2022-07-09T10:14:17.000Z</time>
      </trkpt>
      <trkpt lat="44.12162" lon="6.69678">
        <ele>2028.1999511719</ele>
        <time>2022-07-09T10:14:20.000Z</time>
      </trkpt>
      <trkpt lat="44.12158" lon="6.6968">
        <ele>2028.8000488281</ele>
        <time>2022-07-09T10:14:23.000Z</time>
      </trkpt>
      <trkpt lat="44.12157" lon="6.69681">
        <ele>2028.8000488281</ele>
        <time>2022-07-09T10:14:24.000Z</time>
      </trkpt>
      <trkpt lat="44.12151" lon="6.69686">
        <ele>2029.1999511719</ele>
        <time>2022-07-09T10:14:29.000Z</time>
      </trkpt>
      <trkpt lat="44.12148" lon="6.69688">
        <ele>2029.4000244141</ele>
        <time>2022-07-09T10:14:31.000Z</time>
      </trkpt>
      <trkpt lat="44.1214" lon="6.69696">
        <ele>2029.8000488281</ele>
        <time>2022-07-09T10:14:38.000Z</time>
      </trkpt>
      <trkpt lat="44.12129" lon="6.6971">
        <ele>2030</ele>
        <time>2022-07-09T10:14:47.000Z</time>
      </trkpt>
      <trkpt lat="44.12128" lon="6.69711">
        <ele>2030.1999511719</ele>
        <time>2022-07-09T10:14:48.000Z</time>
      </trkpt>
      <trkpt lat="44.12123" lon="6.69718">
        <ele>2031.4000244141</ele>
        <time>2022-07-09T10:14:53.000Z</time>
      </trkpt>
      <trkpt lat="44.12122" lon="6.69721">
        <ele>2032</ele>
        <time>2022-07-09T10:14:55.000Z</time>
      </trkpt>
      <trkpt lat="44.12122" lon="6.69725">
        <ele>2032.5999755859</ele>
        <time>2022-07-09T10:14:58.000Z</time>
      </trkpt>
      <trkpt lat="44.12122" lon="6.69729">
        <ele>2033</ele>
        <time>2022-07-09T10:15:01.000Z</time>
      </trkpt>
      <trkpt lat="44.12122" lon="6.69734">
        <ele>2033.8000488281</ele>
        <time>2022-07-09T10:15:05.000Z</time>
      </trkpt>
      <trkpt lat="44.12122" lon="6.69735">
        <ele>2034.1999511719</ele>
        <time>2022-07-09T10:15:08.000Z</time>
      </trkpt>
      <trkpt lat="44.12121" lon="6.69736">
        <ele>2034.5999755859</ele>
        <time>2022-07-09T10:15:13.000Z</time>
      </trkpt>
      <trkpt lat="44.12121" lon="6.69736">
        <ele>2034.8000488281</ele>
        <time>2022-07-09T10:15:14.000Z</time>
      </trkpt>
      <trkpt lat="44.12122" lon="6.69738">
        <ele>2034.8000488281</ele>
        <time>2022-07-09T10:15:24.000Z</time>
      </trkpt>
      <trkpt lat="44.12122" lon="6.69742">
        <ele>2035</ele>
        <time>2022-07-09T10:15:27.000Z</time>
      </trkpt>
      <trkpt lat="44.1212" lon="6.6975">
        <ele>2036</ele>
        <time>2022-07-09T10:15:35.000Z</time>
      </trkpt>
      <trkpt lat="44.12119" lon="6.69754">
        <ele>2037</ele>
        <time>2022-07-09T10:15:41.000Z</time>
      </trkpt>
      <trkpt lat="44.12118" lon="6.69757">
        <ele>2037.8000488281</ele>
        <time>2022-07-09T10:15:45.000Z</time>
      </trkpt>
      <trkpt lat="44.12117" lon="6.69759">
        <ele>2038</ele>
        <time>2022-07-09T10:15:47.000Z</time>
      </trkpt>
      <trkpt lat="44.12116" lon="6.69761">
        <ele>2039.1999511719</ele>
        <time>2022-07-09T10:15:52.000Z</time>
      </trkpt>
      <trkpt lat="44.12114" lon="6.69764">
        <ele>2039.5999755859</ele>
        <time>2022-07-09T10:15:56.000Z</time>
      </trkpt>
      <trkpt lat="44.12113" lon="6.69766">
        <ele>2040.1999511719</ele>
        <time>2022-07-09T10:16:00.000Z</time>
      </trkpt>
      <trkpt lat="44.12111" lon="6.69768">
        <ele>2041.4000244141</ele>
        <time>2022-07-09T10:16:05.000Z</time>
      </trkpt>
      <trkpt lat="44.12111" lon="6.69769">
        <ele>2041.8000488281</ele>
        <time>2022-07-09T10:16:07.000Z</time>
      </trkpt>
      <trkpt lat="44.12109" lon="6.69771">
        <ele>2042.4000244141</ele>
        <time>2022-07-09T10:16:11.000Z</time>
      </trkpt>
      <trkpt lat="44.12108" lon="6.69773">
        <ele>2043</ele>
        <time>2022-07-09T10:16:15.000Z</time>
      </trkpt>
      <trkpt lat="44.12107" lon="6.69775">
        <ele>2043.5999755859</ele>
        <time>2022-07-09T10:16:18.000Z</time>
      </trkpt>
      <trkpt lat="44.12105" lon="6.69778">
        <ele>2044.5999755859</ele>
        <time>2022-07-09T10:16:23.000Z</time>
      </trkpt>
      <trkpt lat="44.12105" lon="6.69779">
        <ele>2045</ele>
        <time>2022-07-09T10:16:25.000Z</time>
      </trkpt>
      <trkpt lat="44.12102" lon="6.69782">
        <ele>2045.8000488281</ele>
        <time>2022-07-09T10:16:31.000Z</time>
      </trkpt>
      <trkpt lat="44.121" lon="6.69784">
        <ele>2046</ele>
        <time>2022-07-09T10:16:34.000Z</time>
      </trkpt>
      <trkpt lat="44.12098" lon="6.69786">
        <ele>2046.8000488281</ele>
        <time>2022-07-09T10:16:38.000Z</time>
      </trkpt>
      <trkpt lat="44.12095" lon="6.69789">
        <ele>2047.5999755859</ele>
        <time>2022-07-09T10:16:44.000Z</time>
      </trkpt>
      <trkpt lat="44.12094" lon="6.6979">
        <ele>2047.8000488281</ele>
        <time>2022-07-09T10:16:46.000Z</time>
      </trkpt>
      <trkpt lat="44.1209" lon="6.69795">
        <ele>2048.8000488281</ele>
        <time>2022-07-09T10:16:54.000Z</time>
      </trkpt>
      <trkpt lat="44.1209" lon="6.69795">
        <ele>2049</ele>
        <time>2022-07-09T10:16:55.000Z</time>
      </trkpt>
      <trkpt lat="44.12088" lon="6.69799">
        <ele>2049.8000488281</ele>
        <time>2022-07-09T10:17:01.000Z</time>
      </trkpt>
      <trkpt lat="44.12087" lon="6.69802">
        <ele>2050.6000976562</ele>
        <time>2022-07-09T10:17:06.000Z</time>
      </trkpt>
      <trkpt lat="44.12085" lon="6.69804">
        <ele>2051</ele>
        <time>2022-07-09T10:17:09.000Z</time>
      </trkpt>
      <trkpt lat="44.12084" lon="6.69806">
        <ele>2051.3999023438</ele>
        <time>2022-07-09T10:17:12.000Z</time>
      </trkpt>
      <trkpt lat="44.12081" lon="6.69808">
        <ele>2052</ele>
        <time>2022-07-09T10:17:16.000Z</time>
      </trkpt>
      <trkpt lat="44.12077" lon="6.69812">
        <ele>2052.6000976562</ele>
        <time>2022-07-09T10:17:22.000Z</time>
      </trkpt>
      <trkpt lat="44.12074" lon="6.69815">
        <ele>2053</ele>
        <time>2022-07-09T10:17:27.000Z</time>
      </trkpt>
      <trkpt lat="44.12072" lon="6.69817">
        <ele>2053.6000976562</ele>
        <time>2022-07-09T10:17:31.000Z</time>
      </trkpt>
      <trkpt lat="44.12072" lon="6.69818">
        <ele>2054</ele>
        <time>2022-07-09T10:17:34.000Z</time>
      </trkpt>
      <trkpt lat="44.12069" lon="6.69823">
        <ele>2055</ele>
        <time>2022-07-09T10:17:41.000Z</time>
      </trkpt>
      <trkpt lat="44.12068" lon="6.69824">
        <ele>2055.1999511719</ele>
        <time>2022-07-09T10:17:42.000Z</time>
      </trkpt>
      <trkpt lat="44.12065" lon="6.69826">
        <ele>2056.1999511719</ele>
        <time>2022-07-09T10:17:49.000Z</time>
      </trkpt>
      <trkpt lat="44.12065" lon="6.69828">
        <ele>2056.6000976562</ele>
        <time>2022-07-09T10:17:51.000Z</time>
      </trkpt>
      <trkpt lat="44.12068" lon="6.69828">
        <ele>2057.3999023438</ele>
        <time>2022-07-09T10:17:57.000Z</time>
      </trkpt>
      <trkpt lat="44.12069" lon="6.69828">
        <ele>2057.6000976562</ele>
        <time>2022-07-09T10:17:58.000Z</time>
      </trkpt>
      <trkpt lat="44.12073" lon="6.69827">
        <ele>2058.3999023438</ele>
        <time>2022-07-09T10:18:03.000Z</time>
      </trkpt>
      <trkpt lat="44.12077" lon="6.69827">
        <ele>2059.1999511719</ele>
        <time>2022-07-09T10:18:08.000Z</time>
      </trkpt>
      <trkpt lat="44.12079" lon="6.69827">
        <ele>2059.3999023438</ele>
        <time>2022-07-09T10:18:10.000Z</time>
      </trkpt>
      <trkpt lat="44.12084" lon="6.69827">
        <ele>2060.3999023438</ele>
        <time>2022-07-09T10:18:18.000Z</time>
      </trkpt>
      <trkpt lat="44.12085" lon="6.69827">
        <ele>2060.6000976562</ele>
        <time>2022-07-09T10:18:19.000Z</time>
      </trkpt>
      <trkpt lat="44.1209" lon="6.69826">
        <ele>2061.8000488281</ele>
        <time>2022-07-09T10:18:26.000Z</time>
      </trkpt>
      <trkpt lat="44.1209" lon="6.69826">
        <ele>2062</ele>
        <time>2022-07-09T10:18:27.000Z</time>
      </trkpt>
      <trkpt lat="44.12094" lon="6.69828">
        <ele>2062.8000488281</ele>
        <time>2022-07-09T10:18:34.000Z</time>
      </trkpt>
      <trkpt lat="44.12094" lon="6.69829">
        <ele>2063</ele>
        <time>2022-07-09T10:18:35.000Z</time>
      </trkpt>
      <trkpt lat="44.12098" lon="6.69831">
        <ele>2063.8000488281</ele>
        <time>2022-07-09T10:18:44.000Z</time>
      </trkpt>
      <trkpt lat="44.12099" lon="6.69831">
        <ele>2064</ele>
        <time>2022-07-09T10:18:45.000Z</time>
      </trkpt>
      <trkpt lat="44.121" lon="6.69832">
        <ele>2064.1999511719</ele>
        <time>2022-07-09T10:18:51.000Z</time>
      </trkpt>
      <trkpt lat="44.121" lon="6.69838">
        <ele>2065</ele>
        <time>2022-07-09T10:19:00.000Z</time>
      </trkpt>
      <trkpt lat="44.12098" lon="6.69842">
        <ele>2066</ele>
        <time>2022-07-09T10:19:07.000Z</time>
      </trkpt>
      <trkpt lat="44.12097" lon="6.69843">
        <ele>2066.3999023438</ele>
        <time>2022-07-09T10:19:09.000Z</time>
      </trkpt>
      <trkpt lat="44.12096" lon="6.69846">
        <ele>2067.1999511719</ele>
        <time>2022-07-09T10:19:13.000Z</time>
      </trkpt>
      <trkpt lat="44.12095" lon="6.69849">
        <ele>2068</ele>
        <time>2022-07-09T10:19:18.000Z</time>
      </trkpt>
      <trkpt lat="44.12095" lon="6.6985">
        <ele>2068.1999511719</ele>
        <time>2022-07-09T10:19:19.000Z</time>
      </trkpt>
      <trkpt lat="44.12092" lon="6.69854">
        <ele>2069.1999511719</ele>
        <time>2022-07-09T10:19:26.000Z</time>
      </trkpt>
      <trkpt lat="44.12091" lon="6.69855">
        <ele>2069.3999023438</ele>
        <time>2022-07-09T10:19:27.000Z</time>
      </trkpt>
      <trkpt lat="44.12089" lon="6.69857">
        <ele>2070.3999023438</ele>
        <time>2022-07-09T10:19:33.000Z</time>
      </trkpt>
      <trkpt lat="44.12088" lon="6.69858">
        <ele>2070.6000976562</ele>
        <time>2022-07-09T10:19:35.000Z</time>
      </trkpt>
      <trkpt lat="44.12085" lon="6.6986">
        <ele>2071.3999023438</ele>
        <time>2022-07-09T10:19:40.000Z</time>
      </trkpt>
      <trkpt lat="44.12083" lon="6.69863">
        <ele>2072</ele>
        <time>2022-07-09T10:19:45.000Z</time>
      </trkpt>
      <trkpt lat="44.12082" lon="6.69864">
        <ele>2072.3999023438</ele>
        <time>2022-07-09T10:19:48.000Z</time>
      </trkpt>
      <trkpt lat="44.12079" lon="6.69867">
        <ele>2073.3999023438</ele>
        <time>2022-07-09T10:19:54.000Z</time>
      </trkpt>
      <trkpt lat="44.12079" lon="6.69868">
        <ele>2073.6000976562</ele>
        <time>2022-07-09T10:19:55.000Z</time>
      </trkpt>
      <trkpt lat="44.12076" lon="6.69871">
        <ele>2074.6000976562</ele>
        <time>2022-07-09T10:20:01.000Z</time>
      </trkpt>
      <trkpt lat="44.12076" lon="6.69871">
        <ele>2074.6000976562</ele>
        <time>2022-07-09T10:20:02.000Z</time>
      </trkpt>
      <trkpt lat="44.12074" lon="6.69873">
        <ele>2075.6000976562</ele>
        <time>2022-07-09T10:20:09.000Z</time>
      </trkpt>
      <trkpt lat="44.12074" lon="6.69874">
        <ele>2075.8000488281</ele>
        <time>2022-07-09T10:20:10.000Z</time>
      </trkpt>
      <trkpt lat="44.12071" lon="6.69878">
        <ele>2076.3999023438</ele>
        <time>2022-07-09T10:20:17.000Z</time>
      </trkpt>
      <trkpt lat="44.1207" lon="6.69879">
        <ele>2076.8000488281</ele>
        <time>2022-07-09T10:20:19.000Z</time>
      </trkpt>
      <trkpt lat="44.12067" lon="6.69883">
        <ele>2078</ele>
        <time>2022-07-09T10:20:26.000Z</time>
      </trkpt>
      <trkpt lat="44.12064" lon="6.69888">
        <ele>2079</ele>
        <time>2022-07-09T10:20:33.000Z</time>
      </trkpt>
      <trkpt lat="44.12063" lon="6.6989">
        <ele>2079.3999023438</ele>
        <time>2022-07-09T10:20:36.000Z</time>
      </trkpt>
      <trkpt lat="44.12061" lon="6.69894">
        <ele>2080</ele>
        <time>2022-07-09T10:20:41.000Z</time>
      </trkpt>
      <trkpt lat="44.12058" lon="6.69896">
        <ele>2080.3999023438</ele>
        <time>2022-07-09T10:20:45.000Z</time>
      </trkpt>
      <trkpt lat="44.12056" lon="6.69901">
        <ele>2081</ele>
        <time>2022-07-09T10:20:50.000Z</time>
      </trkpt>
      <trkpt lat="44.12055" lon="6.69902">
        <ele>2081.3999023438</ele>
        <time>2022-07-09T10:20:52.000Z</time>
      </trkpt>
      <trkpt lat="44.12053" lon="6.69906">
        <ele>2082</ele>
        <time>2022-07-09T10:20:56.000Z</time>
      </trkpt>
      <trkpt lat="44.12051" lon="6.69909">
        <ele>2082.6000976562</ele>
        <time>2022-07-09T10:21:00.000Z</time>
      </trkpt>
      <trkpt lat="44.12049" lon="6.69912">
        <ele>2083.1999511719</ele>
        <time>2022-07-09T10:21:04.000Z</time>
      </trkpt>
      <trkpt lat="44.12047" lon="6.69918">
        <ele>2084.1999511719</ele>
        <time>2022-07-09T10:21:11.000Z</time>
      </trkpt>
      <trkpt lat="44.12047" lon="6.69918">
        <ele>2084.3999023438</ele>
        <time>2022-07-09T10:21:12.000Z</time>
      </trkpt>
      <trkpt lat="44.12046" lon="6.69925">
        <ele>2085.3999023438</ele>
        <time>2022-07-09T10:21:20.000Z</time>
      </trkpt>
      <trkpt lat="44.12044" lon="6.69928">
        <ele>2086.1999511719</ele>
        <time>2022-07-09T10:21:24.000Z</time>
      </trkpt>
      <trkpt lat="44.12043" lon="6.69928">
        <ele>2086.3999023438</ele>
        <time>2022-07-09T10:21:26.000Z</time>
      </trkpt>
      <trkpt lat="44.12039" lon="6.69931">
        <ele>2087.3999023438</ele>
        <time>2022-07-09T10:21:32.000Z</time>
      </trkpt>
      <trkpt lat="44.12037" lon="6.69932">
        <ele>2088</ele>
        <time>2022-07-09T10:21:36.000Z</time>
      </trkpt>
      <trkpt lat="44.12035" lon="6.69933">
        <ele>2088.6000976562</ele>
        <time>2022-07-09T10:21:40.000Z</time>
      </trkpt>
      <trkpt lat="44.12033" lon="6.69935">
        <ele>2089.6000976562</ele>
        <time>2022-07-09T10:21:46.000Z</time>
      </trkpt>
      <trkpt lat="44.12033" lon="6.69936">
        <ele>2089.8000488281</ele>
        <time>2022-07-09T10:21:47.000Z</time>
      </trkpt>
      <trkpt lat="44.1203" lon="6.69938">
        <ele>2090.6000976562</ele>
        <time>2022-07-09T10:21:53.000Z</time>
      </trkpt>
      <trkpt lat="44.1203" lon="6.69938">
        <ele>2090.8000488281</ele>
        <time>2022-07-09T10:21:54.000Z</time>
      </trkpt>
      <trkpt lat="44.12026" lon="6.6994">
        <ele>2091.8000488281</ele>
        <time>2022-07-09T10:22:02.000Z</time>
      </trkpt>
      <trkpt lat="44.12025" lon="6.69941">
        <ele>2092.3999023438</ele>
        <time>2022-07-09T10:22:05.000Z</time>
      </trkpt>
      <trkpt lat="44.12025" lon="6.69942">
        <ele>2092.8000488281</ele>
        <time>2022-07-09T10:22:08.000Z</time>
      </trkpt>
      <trkpt lat="44.12025" lon="6.69941">
        <ele>2093.3999023438</ele>
        <time>2022-07-09T10:22:13.000Z</time>
      </trkpt>
      <trkpt lat="44.12026" lon="6.69941">
        <ele>2093.3999023438</ele>
        <time>2022-07-09T10:22:25.000Z</time>
      </trkpt>
      <trkpt lat="44.12029" lon="6.69941">
        <ele>2093.6000976562</ele>
        <time>2022-07-09T10:22:47.000Z</time>
      </trkpt>
      <trkpt lat="44.12027" lon="6.69943">
        <ele>2093.3999023438</ele>
        <time>2022-07-09T10:22:51.000Z</time>
      </trkpt>
      <trkpt lat="44.12024" lon="6.69943">
        <ele>2094</ele>
        <time>2022-07-09T10:22:55.000Z</time>
      </trkpt>
      <trkpt lat="44.12022" lon="6.69943">
        <ele>2094.8000488281</ele>
        <time>2022-07-09T10:22:58.000Z</time>
      </trkpt>
      <trkpt lat="44.1202" lon="6.69944">
        <ele>2095</ele>
        <time>2022-07-09T10:23:00.000Z</time>
      </trkpt>
      <trkpt lat="44.12017" lon="6.69946">
        <ele>2095.8000488281</ele>
        <time>2022-07-09T10:23:06.000Z</time>
      </trkpt>
      <trkpt lat="44.12016" lon="6.69947">
        <ele>2096.1999511719</ele>
        <time>2022-07-09T10:23:08.000Z</time>
      </trkpt>
      <trkpt lat="44.12014" lon="6.6995">
        <ele>2097.3999023438</ele>
        <time>2022-07-09T10:23:13.000Z</time>
      </trkpt>
      <trkpt lat="44.12011" lon="6.69954">
        <ele>2098.6000976562</ele>
        <time>2022-07-09T10:23:20.000Z</time>
      </trkpt>
      <trkpt lat="44.12011" lon="6.69955">
        <ele>2098.8000488281</ele>
        <time>2022-07-09T10:23:21.000Z</time>
      </trkpt>
      <trkpt lat="44.12009" lon="6.69958">
        <ele>2099.6000976562</ele>
        <time>2022-07-09T10:23:26.000Z</time>
      </trkpt>
      <trkpt lat="44.12007" lon="6.69961">
        <ele>2100.6000976562</ele>
        <time>2022-07-09T10:23:31.000Z</time>
      </trkpt>
      <trkpt lat="44.12004" lon="6.69964">
        <ele>2101.8000488281</ele>
        <time>2022-07-09T10:23:37.000Z</time>
      </trkpt>
      <trkpt lat="44.12004" lon="6.69964">
        <ele>2102</ele>
        <time>2022-07-09T10:23:38.000Z</time>
      </trkpt>
      <trkpt lat="44.12001" lon="6.69967">
        <ele>2102.8000488281</ele>
        <time>2022-07-09T10:23:44.000Z</time>
      </trkpt>
      <trkpt lat="44.12" lon="6.69969">
        <ele>2103.3999023438</ele>
        <time>2022-07-09T10:23:47.000Z</time>
      </trkpt>
      <trkpt lat="44.11999" lon="6.6997">
        <ele>2104</ele>
        <time>2022-07-09T10:23:50.000Z</time>
      </trkpt>
      <trkpt lat="44.11998" lon="6.69975">
        <ele>2105</ele>
        <time>2022-07-09T10:23:57.000Z</time>
      </trkpt>
      <trkpt lat="44.11997" lon="6.69979">
        <ele>2106</ele>
        <time>2022-07-09T10:24:03.000Z</time>
      </trkpt>
      <trkpt lat="44.11995" lon="6.69981">
        <ele>2106.6000976562</ele>
        <time>2022-07-09T10:24:07.000Z</time>
      </trkpt>
      <trkpt lat="44.11992" lon="6.69982">
        <ele>2107</ele>
        <time>2022-07-09T10:24:12.000Z</time>
      </trkpt>
      <trkpt lat="44.1199" lon="6.69982">
        <ele>2107.8000488281</ele>
        <time>2022-07-09T10:24:16.000Z</time>
      </trkpt>
      <trkpt lat="44.11989" lon="6.69983">
        <ele>2108.1999511719</ele>
        <time>2022-07-09T10:24:19.000Z</time>
      </trkpt>
      <trkpt lat="44.11986" lon="6.69986">
        <ele>2109.1999511719</ele>
        <time>2022-07-09T10:24:25.000Z</time>
      </trkpt>
      <trkpt lat="44.11986" lon="6.69986">
        <ele>2109.3999023438</ele>
        <time>2022-07-09T10:24:26.000Z</time>
      </trkpt>
      <trkpt lat="44.11984" lon="6.69989">
        <ele>2110.3999023438</ele>
        <time>2022-07-09T10:24:32.000Z</time>
      </trkpt>
      <trkpt lat="44.11983" lon="6.6999">
        <ele>2110.8000488281</ele>
        <time>2022-07-09T10:24:34.000Z</time>
      </trkpt>
      <trkpt lat="44.11982" lon="6.69991">
        <ele>2111.6000976562</ele>
        <time>2022-07-09T10:24:41.000Z</time>
      </trkpt>
      <trkpt lat="44.11982" lon="6.69991">
        <ele>2111.8000488281</ele>
        <time>2022-07-09T10:24:43.000Z</time>
      </trkpt>
      <trkpt lat="44.11981" lon="6.6999">
        <ele>2112</ele>
        <time>2022-07-09T10:24:49.000Z</time>
      </trkpt>
      <trkpt lat="44.11982" lon="6.69991">
        <ele>2112</ele>
        <time>2022-07-09T10:24:59.000Z</time>
      </trkpt>
      <trkpt lat="44.1198" lon="6.69993">
        <ele>2112</ele>
        <time>2022-07-09T10:25:05.000Z</time>
      </trkpt>
      <trkpt lat="44.11979" lon="6.69995">
        <ele>2112.1999511719</ele>
        <time>2022-07-09T10:25:11.000Z</time>
      </trkpt>
      <trkpt lat="44.11978" lon="6.69996">
        <ele>2112.6000976562</ele>
        <time>2022-07-09T10:25:14.000Z</time>
      </trkpt>
      <trkpt lat="44.11977" lon="6.69996">
        <ele>2113.1999511719</ele>
        <time>2022-07-09T10:25:17.000Z</time>
      </trkpt>
      <trkpt lat="44.11976" lon="6.69997">
        <ele>2113.8000488281</ele>
        <time>2022-07-09T10:25:20.000Z</time>
      </trkpt>
      <trkpt lat="44.11974" lon="6.69999">
        <ele>2114.3999023438</ele>
        <time>2022-07-09T10:25:23.000Z</time>
      </trkpt>
      <trkpt lat="44.11971" lon="6.7">
        <ele>2114.8000488281</ele>
        <time>2022-07-09T10:25:28.000Z</time>
      </trkpt>
      <trkpt lat="44.11971" lon="6.70001">
        <ele>2114.8000488281</ele>
        <time>2022-07-09T10:25:29.000Z</time>
      </trkpt>
      <trkpt lat="44.11967" lon="6.70002">
        <ele>2115.8000488281</ele>
        <time>2022-07-09T10:25:35.000Z</time>
      </trkpt>
      <trkpt lat="44.11964" lon="6.70003">
        <ele>2116.8000488281</ele>
        <time>2022-07-09T10:25:42.000Z</time>
      </trkpt>
      <trkpt lat="44.11962" lon="6.70004">
        <ele>2117</ele>
        <time>2022-07-09T10:25:43.000Z</time>
      </trkpt>
      <trkpt lat="44.1196" lon="6.70006">
        <ele>2117.3999023438</ele>
        <time>2022-07-09T10:25:47.000Z</time>
      </trkpt>
      <trkpt lat="44.11958" lon="6.70007">
        <ele>2118</ele>
        <time>2022-07-09T10:25:53.000Z</time>
      </trkpt>
      <trkpt lat="44.11955" lon="6.70008">
        <ele>2119</ele>
        <time>2022-07-09T10:25:59.000Z</time>
      </trkpt>
      <trkpt lat="44.11951" lon="6.70009">
        <ele>2120.1999511719</ele>
        <time>2022-07-09T10:26:05.000Z</time>
      </trkpt>
      <trkpt lat="44.11949" lon="6.70009">
        <ele>2120.6000976562</ele>
        <time>2022-07-09T10:26:07.000Z</time>
      </trkpt>
      <trkpt lat="44.11946" lon="6.70008">
        <ele>2121.1999511719</ele>
        <time>2022-07-09T10:26:13.000Z</time>
      </trkpt>
      <trkpt lat="44.11945" lon="6.70008">
        <ele>2121.3999023438</ele>
        <time>2022-07-09T10:26:15.000Z</time>
      </trkpt>
      <trkpt lat="44.11941" lon="6.70007">
        <ele>2122.1999511719</ele>
        <time>2022-07-09T10:26:22.000Z</time>
      </trkpt>
      <trkpt lat="44.1194" lon="6.70008">
        <ele>2123.1999511719</ele>
        <time>2022-07-09T10:26:29.000Z</time>
      </trkpt>
      <trkpt lat="44.11941" lon="6.70012">
        <ele>2124.1999511719</ele>
        <time>2022-07-09T10:26:37.000Z</time>
      </trkpt>
      <trkpt lat="44.11942" lon="6.70014">
        <ele>2125.1999511719</ele>
        <time>2022-07-09T10:26:43.000Z</time>
      </trkpt>
      <trkpt lat="44.11943" lon="6.70015">
        <ele>2125.3999023438</ele>
        <time>2022-07-09T10:26:44.000Z</time>
      </trkpt>
      <trkpt lat="44.11944" lon="6.70017">
        <ele>2126</ele>
        <time>2022-07-09T10:26:49.000Z</time>
      </trkpt>
      <trkpt lat="44.11944" lon="6.7002">
        <ele>2126.3999023438</ele>
        <time>2022-07-09T10:26:52.000Z</time>
      </trkpt>
      <trkpt lat="44.11945" lon="6.70021">
        <ele>2127</ele>
        <time>2022-07-09T10:26:56.000Z</time>
      </trkpt>
      <trkpt lat="44.11945" lon="6.70023">
        <ele>2127.6000976562</ele>
        <time>2022-07-09T10:27:00.000Z</time>
      </trkpt>
      <trkpt lat="44.11946" lon="6.70024">
        <ele>2128</ele>
        <time>2022-07-09T10:27:04.000Z</time>
      </trkpt>
      <trkpt lat="44.11947" lon="6.70026">
        <ele>2128.6000976562</ele>
        <time>2022-07-09T10:27:08.000Z</time>
      </trkpt>
      <trkpt lat="44.11947" lon="6.70028">
        <ele>2129.1999511719</ele>
        <time>2022-07-09T10:27:12.000Z</time>
      </trkpt>
      <trkpt lat="44.11948" lon="6.70031">
        <ele>2129.8000488281</ele>
        <time>2022-07-09T10:27:17.000Z</time>
      </trkpt>
      <trkpt lat="44.11949" lon="6.70032">
        <ele>2130.1999511719</ele>
        <time>2022-07-09T10:27:20.000Z</time>
      </trkpt>
      <trkpt lat="44.11949" lon="6.70033">
        <ele>2130.8000488281</ele>
        <time>2022-07-09T10:27:23.000Z</time>
      </trkpt>
      <trkpt lat="44.11949" lon="6.70036">
        <ele>2131.3999023438</ele>
        <time>2022-07-09T10:27:27.000Z</time>
      </trkpt>
      <trkpt lat="44.11949" lon="6.70038">
        <ele>2131.8000488281</ele>
        <time>2022-07-09T10:27:31.000Z</time>
      </trkpt>
      <trkpt lat="44.11949" lon="6.70039">
        <ele>2132.1999511719</ele>
        <time>2022-07-09T10:27:33.000Z</time>
      </trkpt>
      <trkpt lat="44.1195" lon="6.70042">
        <ele>2132.6000976562</ele>
        <time>2022-07-09T10:27:39.000Z</time>
      </trkpt>
      <trkpt lat="44.1195" lon="6.70043">
        <ele>2133</ele>
        <time>2022-07-09T10:27:40.000Z</time>
      </trkpt>
      <trkpt lat="44.1195" lon="6.70046">
        <ele>2134</ele>
        <time>2022-07-09T10:27:44.000Z</time>
      </trkpt>
      <trkpt lat="44.1195" lon="6.70047">
        <ele>2134.3999023438</ele>
        <time>2022-07-09T10:27:46.000Z</time>
      </trkpt>
      <trkpt lat="44.11949" lon="6.70051">
        <ele>2135</ele>
        <time>2022-07-09T10:27:52.000Z</time>
      </trkpt>
      <trkpt lat="44.11947" lon="6.70054">
        <ele>2136</ele>
        <time>2022-07-09T10:27:57.000Z</time>
      </trkpt>
      <trkpt lat="44.11947" lon="6.70054">
        <ele>2136.1999511719</ele>
        <time>2022-07-09T10:27:58.000Z</time>
      </trkpt>
      <trkpt lat="44.11946" lon="6.70056">
        <ele>2136.6000976562</ele>
        <time>2022-07-09T10:28:03.000Z</time>
      </trkpt>
      <trkpt lat="44.11945" lon="6.70059">
        <ele>2137.1999511719</ele>
        <time>2022-07-09T10:28:07.000Z</time>
      </trkpt>
      <trkpt lat="44.11945" lon="6.7006">
        <ele>2137.6000976562</ele>
        <time>2022-07-09T10:28:09.000Z</time>
      </trkpt>
      <trkpt lat="44.11944" lon="6.70064">
        <ele>2138.1999511719</ele>
        <time>2022-07-09T10:28:15.000Z</time>
      </trkpt>
      <trkpt lat="44.11944" lon="6.70065">
        <ele>2138.1999511719</ele>
        <time>2022-07-09T10:28:17.000Z</time>
      </trkpt>
      <trkpt lat="44.11942" lon="6.70069">
        <ele>2139</ele>
        <time>2022-07-09T10:28:22.000Z</time>
      </trkpt>
      <trkpt lat="44.11941" lon="6.7007">
        <ele>2139.1999511719</ele>
        <time>2022-07-09T10:28:25.000Z</time>
      </trkpt>
      <trkpt lat="44.11941" lon="6.70071">
        <ele>2139.1999511719</ele>
        <time>2022-07-09T10:28:26.000Z</time>
      </trkpt>
      <trkpt lat="44.1194" lon="6.70072">
        <ele>2139.3999023438</ele>
        <time>2022-07-09T10:28:27.000Z</time>
      </trkpt>
      <trkpt lat="44.11937" lon="6.70076">
        <ele>2140.3999023438</ele>
        <time>2022-07-09T10:28:34.000Z</time>
      </trkpt>
      <trkpt lat="44.11936" lon="6.7008">
        <ele>2141</ele>
        <time>2022-07-09T10:28:39.000Z</time>
      </trkpt>
      <trkpt lat="44.11936" lon="6.70081">
        <ele>2141.1999511719</ele>
        <time>2022-07-09T10:28:40.000Z</time>
      </trkpt>
      <trkpt lat="44.11935" lon="6.70082">
        <ele>2141.6000976562</ele>
        <time>2022-07-09T10:28:42.000Z</time>
      </trkpt>
      <trkpt lat="44.11934" lon="6.70086">
        <ele>2142.3999023438</ele>
        <time>2022-07-09T10:28:46.000Z</time>
      </trkpt>
      <trkpt lat="44.11933" lon="6.70089">
        <ele>2142.6000976562</ele>
        <time>2022-07-09T10:28:49.000Z</time>
      </trkpt>
      <trkpt lat="44.11932" lon="6.70095">
        <ele>2143.6000976562</ele>
        <time>2022-07-09T10:28:56.000Z</time>
      </trkpt>
      <trkpt lat="44.11932" lon="6.70096">
        <ele>2143.8000488281</ele>
        <time>2022-07-09T10:28:57.000Z</time>
      </trkpt>
      <trkpt lat="44.11931" lon="6.70099">
        <ele>2144.3999023438</ele>
        <time>2022-07-09T10:29:04.000Z</time>
      </trkpt>
      <trkpt lat="44.11932" lon="6.70098">
        <ele>2144</ele>
        <time>2022-07-09T10:29:10.000Z</time>
      </trkpt>
      <trkpt lat="44.11932" lon="6.70098">
        <ele>2143.3999023438</ele>
        <time>2022-07-09T10:29:17.000Z</time>
      </trkpt>
      <trkpt lat="44.11932" lon="6.70098">
        <ele>2143.8000488281</ele>
        <time>2022-07-09T10:29:28.000Z</time>
      </trkpt>
      <trkpt lat="44.11932" lon="6.70097">
        <ele>2144.3999023438</ele>
        <time>2022-07-09T10:29:38.000Z</time>
      </trkpt>
      <trkpt lat="44.11933" lon="6.70097">
        <ele>2144.3999023438</ele>
        <time>2022-07-09T10:30:01.000Z</time>
      </trkpt>
      <trkpt lat="44.11932" lon="6.70097">
        <ele>2143.1999511719</ele>
        <time>2022-07-09T10:30:09.000Z</time>
      </trkpt>
      <trkpt lat="44.11932" lon="6.70097">
        <ele>2144</ele>
        <time>2022-07-09T10:30:14.000Z</time>
      </trkpt>
      <trkpt lat="44.11932" lon="6.70097">
        <ele>2144.8000488281</ele>
        <time>2022-07-09T10:30:20.000Z</time>
      </trkpt>
      <trkpt lat="44.11932" lon="6.70098">
        <ele>2144.6000976562</ele>
        <time>2022-07-09T10:30:22.000Z</time>
      </trkpt>
      <trkpt lat="44.11932" lon="6.70099">
        <ele>2144.1999511719</ele>
        <time>2022-07-09T10:30:26.000Z</time>
      </trkpt>
      <trkpt lat="44.11931" lon="6.70102">
        <ele>2144.8000488281</ele>
        <time>2022-07-09T10:30:31.000Z</time>
      </trkpt>
      <trkpt lat="44.11928" lon="6.70114">
        <ele>2144.3999023438</ele>
        <time>2022-07-09T10:30:35.000Z</time>
      </trkpt>
      <trkpt lat="44.11927" lon="6.70119">
        <ele>2144.1999511719</ele>
        <time>2022-07-09T10:30:36.000Z</time>
      </trkpt>
      <trkpt lat="44.11928" lon="6.70123">
        <ele>2143.6000976562</ele>
        <time>2022-07-09T10:30:38.000Z</time>
      </trkpt>
      <trkpt lat="44.11928" lon="6.70127">
        <ele>2143.3999023438</ele>
        <time>2022-07-09T10:30:43.000Z</time>
      </trkpt>
      <trkpt lat="44.11929" lon="6.70133">
        <ele>2144.3999023438</ele>
        <time>2022-07-09T10:30:49.000Z</time>
      </trkpt>
      <trkpt lat="44.11928" lon="6.70134">
        <ele>2144.6000976562</ele>
        <time>2022-07-09T10:30:50.000Z</time>
      </trkpt>
      <trkpt lat="44.11925" lon="6.70134">
        <ele>2145.3999023438</ele>
        <time>2022-07-09T10:30:53.000Z</time>
      </trkpt>
      <trkpt lat="44.11923" lon="6.70134">
        <ele>2145.8000488281</ele>
        <time>2022-07-09T10:30:55.000Z</time>
      </trkpt>
      <trkpt lat="44.11919" lon="6.70136">
        <ele>2147</ele>
        <time>2022-07-09T10:31:01.000Z</time>
      </trkpt>
      <trkpt lat="44.11918" lon="6.70138">
        <ele>2147.1999511719</ele>
        <time>2022-07-09T10:31:03.000Z</time>
      </trkpt>
      <trkpt lat="44.11915" lon="6.70143">
        <ele>2148</ele>
        <time>2022-07-09T10:31:08.000Z</time>
      </trkpt>
      <trkpt lat="44.11912" lon="6.70146">
        <ele>2148.6000976562</ele>
        <time>2022-07-09T10:31:12.000Z</time>
      </trkpt>
      <trkpt lat="44.11909" lon="6.70149">
        <ele>2149.1999511719</ele>
        <time>2022-07-09T10:31:16.000Z</time>
      </trkpt>
      <trkpt lat="44.11906" lon="6.70152">
        <ele>2149.6000976562</ele>
        <time>2022-07-09T10:31:20.000Z</time>
      </trkpt>
      <trkpt lat="44.11904" lon="6.70153">
        <ele>2150.1999511719</ele>
        <time>2022-07-09T10:31:23.000Z</time>
      </trkpt>
      <trkpt lat="44.11902" lon="6.70156">
        <ele>2151.1999511719</ele>
        <time>2022-07-09T10:31:28.000Z</time>
      </trkpt>
      <trkpt lat="44.119" lon="6.70159">
        <ele>2152.1999511719</ele>
        <time>2022-07-09T10:31:33.000Z</time>
      </trkpt>
      <trkpt lat="44.11897" lon="6.70161">
        <ele>2153.1999511719</ele>
        <time>2022-07-09T10:31:38.000Z</time>
      </trkpt>
      <trkpt lat="44.11896" lon="6.70162">
        <ele>2153.3999023438</ele>
        <time>2022-07-09T10:31:39.000Z</time>
      </trkpt>
      <trkpt lat="44.11893" lon="6.70165">
        <ele>2154.3999023438</ele>
        <time>2022-07-09T10:31:45.000Z</time>
      </trkpt>
      <trkpt lat="44.11891" lon="6.70166">
        <ele>2154.8000488281</ele>
        <time>2022-07-09T10:31:47.000Z</time>
      </trkpt>
      <trkpt lat="44.11888" lon="6.70169">
        <ele>2155.6000976562</ele>
        <time>2022-07-09T10:31:52.000Z</time>
      </trkpt>
      <trkpt lat="44.11885" lon="6.70171">
        <ele>2156.1999511719</ele>
        <time>2022-07-09T10:31:57.000Z</time>
      </trkpt>
      <trkpt lat="44.11884" lon="6.70173">
        <ele>2156.6000976562</ele>
        <time>2022-07-09T10:31:59.000Z</time>
      </trkpt>
      <trkpt lat="44.11881" lon="6.70177">
        <ele>2157.6000976562</ele>
        <time>2022-07-09T10:32:05.000Z</time>
      </trkpt>
      <trkpt lat="44.1188" lon="6.70177">
        <ele>2157.8000488281</ele>
        <time>2022-07-09T10:32:06.000Z</time>
      </trkpt>
      <trkpt lat="44.11877" lon="6.70182">
        <ele>2158.8000488281</ele>
        <time>2022-07-09T10:32:13.000Z</time>
      </trkpt>
      <trkpt lat="44.11873" lon="6.7019">
        <ele>2159.8000488281</ele>
        <time>2022-07-09T10:32:21.000Z</time>
      </trkpt>
      <trkpt lat="44.11872" lon="6.70192">
        <ele>2160</ele>
        <time>2022-07-09T10:32:23.000Z</time>
      </trkpt>
      <trkpt lat="44.1187" lon="6.70197">
        <ele>2160.6000976562</ele>
        <time>2022-07-09T10:32:30.000Z</time>
      </trkpt>
      <trkpt lat="44.11872" lon="6.70202">
        <ele>2160.8000488281</ele>
        <time>2022-07-09T10:32:36.000Z</time>
      </trkpt>
      <trkpt lat="44.11872" lon="6.70207">
        <ele>2161.8000488281</ele>
        <time>2022-07-09T10:32:42.000Z</time>
      </trkpt>
      <trkpt lat="44.11872" lon="6.70207">
        <ele>2162</ele>
        <time>2022-07-09T10:32:43.000Z</time>
      </trkpt>
      <trkpt lat="44.11872" lon="6.70207">
        <ele>2161.3999023438</ele>
        <time>2022-07-09T10:32:50.000Z</time>
      </trkpt>
      <trkpt lat="44.11872" lon="6.70206">
        <ele>2162</ele>
        <time>2022-07-09T10:32:58.000Z</time>
      </trkpt>
      <trkpt lat="44.11873" lon="6.70206">
        <ele>2161.8000488281</ele>
        <time>2022-07-09T10:33:07.000Z</time>
      </trkpt>
      <trkpt lat="44.11873" lon="6.70206">
        <ele>2162.6000976562</ele>
        <time>2022-07-09T10:33:22.000Z</time>
      </trkpt>
      <trkpt lat="44.11873" lon="6.70205">
        <ele>2162.6000976562</ele>
        <time>2022-07-09T10:33:36.000Z</time>
      </trkpt>
      <trkpt lat="44.11872" lon="6.70205">
        <ele>2162.3999023438</ele>
        <time>2022-07-09T10:33:54.000Z</time>
      </trkpt>
      <trkpt lat="44.11872" lon="6.70202">
        <ele>2162.1999511719</ele>
        <time>2022-07-09T10:33:59.000Z</time>
      </trkpt>
      <trkpt lat="44.11873" lon="6.70198">
        <ele>2162</ele>
        <time>2022-07-09T10:34:06.000Z</time>
      </trkpt>
      <trkpt lat="44.11873" lon="6.70198">
        <ele>2161</ele>
        <time>2022-07-09T10:34:16.000Z</time>
      </trkpt>
      <trkpt lat="44.11873" lon="6.70198">
        <ele>2161</ele>
        <time>2022-07-09T10:34:26.000Z</time>
      </trkpt>
      <trkpt lat="44.11871" lon="6.70196">
        <ele>2161.6000976562</ele>
        <time>2022-07-09T10:34:36.000Z</time>
      </trkpt>
      <trkpt lat="44.11871" lon="6.70194">
        <ele>2161.6000976562</ele>
        <time>2022-07-09T10:34:38.000Z</time>
      </trkpt>
      <trkpt lat="44.11869" lon="6.70194">
        <ele>2161</ele>
        <time>2022-07-09T10:34:43.000Z</time>
      </trkpt>
      <trkpt lat="44.11868" lon="6.70195">
        <ele>2160.8000488281</ele>
        <time>2022-07-09T10:34:44.000Z</time>
      </trkpt>
      <trkpt lat="44.11861" lon="6.70201">
        <ele>2161.3999023438</ele>
        <time>2022-07-09T10:34:51.000Z</time>
      </trkpt>
      <trkpt lat="44.11859" lon="6.70204">
        <ele>2162</ele>
        <time>2022-07-09T10:34:55.000Z</time>
      </trkpt>
      <trkpt lat="44.11857" lon="6.70206">
        <ele>2162.1999511719</ele>
        <time>2022-07-09T10:34:57.000Z</time>
      </trkpt>
      <trkpt lat="44.11856" lon="6.70209">
        <ele>2163</ele>
        <time>2022-07-09T10:35:01.000Z</time>
      </trkpt>
      <trkpt lat="44.11856" lon="6.70209">
        <ele>2163</ele>
        <time>2022-07-09T10:35:02.000Z</time>
      </trkpt>
      <trkpt lat="44.11856" lon="6.7021">
        <ele>2163.1999511719</ele>
        <time>2022-07-09T10:35:03.000Z</time>
      </trkpt>
      <trkpt lat="44.11853" lon="6.70217">
        <ele>2163.3999023438</ele>
        <time>2022-07-09T10:35:08.000Z</time>
      </trkpt>
      <trkpt lat="44.11849" lon="6.70227">
        <ele>2164</ele>
        <time>2022-07-09T10:35:13.000Z</time>
      </trkpt>
      <trkpt lat="44.11847" lon="6.70233">
        <ele>2164</ele>
        <time>2022-07-09T10:35:16.000Z</time>
      </trkpt>
      <trkpt lat="44.1184" lon="6.70249">
        <ele>2164.6000976562</ele>
        <time>2022-07-09T10:35:24.000Z</time>
      </trkpt>
      <trkpt lat="44.11837" lon="6.70254">
        <ele>2165</ele>
        <time>2022-07-09T10:35:27.000Z</time>
      </trkpt>
      <trkpt lat="44.11834" lon="6.7026">
        <ele>2165.8000488281</ele>
        <time>2022-07-09T10:35:31.000Z</time>
      </trkpt>
      <trkpt lat="44.11833" lon="6.70262">
        <ele>2166</ele>
        <time>2022-07-09T10:35:32.000Z</time>
      </trkpt>
      <trkpt lat="44.11829" lon="6.70272">
        <ele>2166.8000488281</ele>
        <time>2022-07-09T10:35:38.000Z</time>
      </trkpt>
      <trkpt lat="44.11826" lon="6.70279">
        <ele>2167</ele>
        <time>2022-07-09T10:35:42.000Z</time>
      </trkpt>
      <trkpt lat="44.11822" lon="6.70288">
        <ele>2167.6000976562</ele>
        <time>2022-07-09T10:35:47.000Z</time>
      </trkpt>
      <trkpt lat="44.11818" lon="6.70297">
        <ele>2168.1999511719</ele>
        <time>2022-07-09T10:35:53.000Z</time>
      </trkpt>
      <trkpt lat="44.11817" lon="6.70299">
        <ele>2168.1999511719</ele>
        <time>2022-07-09T10:35:54.000Z</time>
      </trkpt>
      <trkpt lat="44.11815" lon="6.70305">
        <ele>2168.8000488281</ele>
        <time>2022-07-09T10:35:58.000Z</time>
      </trkpt>
      <trkpt lat="44.11812" lon="6.70309">
        <ele>2169.3999023438</ele>
        <time>2022-07-09T10:36:01.000Z</time>
      </trkpt>
      <trkpt lat="44.11811" lon="6.7031">
        <ele>2169.3999023438</ele>
        <time>2022-07-09T10:36:02.000Z</time>
      </trkpt>
      <trkpt lat="44.11803" lon="6.70319">
        <ele>2170.1999511719</ele>
        <time>2022-07-09T10:36:10.000Z</time>
      </trkpt>
      <trkpt lat="44.11803" lon="6.7032">
        <ele>2170.3999023438</ele>
        <time>2022-07-09T10:36:11.000Z</time>
      </trkpt>
      <trkpt lat="44.118" lon="6.70327">
        <ele>2171</ele>
        <time>2022-07-09T10:36:16.000Z</time>
      </trkpt>
      <trkpt lat="44.11798" lon="6.70331">
        <ele>2171.3999023438</ele>
        <time>2022-07-09T10:36:19.000Z</time>
      </trkpt>
      <trkpt lat="44.11796" lon="6.70336">
        <ele>2172.1999511719</ele>
        <time>2022-07-09T10:36:23.000Z</time>
      </trkpt>
      <trkpt lat="44.11794" lon="6.70342">
        <ele>2172.6000976562</ele>
        <time>2022-07-09T10:36:27.000Z</time>
      </trkpt>
      <trkpt lat="44.11792" lon="6.70347">
        <ele>2173.6000976562</ele>
        <time>2022-07-09T10:36:31.000Z</time>
      </trkpt>
      <trkpt lat="44.11791" lon="6.70348">
        <ele>2173.8000488281</ele>
        <time>2022-07-09T10:36:32.000Z</time>
      </trkpt>
      <trkpt lat="44.11787" lon="6.70356">
        <ele>2174.3999023438</ele>
        <time>2022-07-09T10:36:37.000Z</time>
      </trkpt>
      <trkpt lat="44.11779" lon="6.70367">
        <ele>2174.3999023438</ele>
        <time>2022-07-09T10:36:44.000Z</time>
      </trkpt>
      <trkpt lat="44.11768" lon="6.70377">
        <ele>2174.8000488281</ele>
        <time>2022-07-09T10:36:51.000Z</time>
      </trkpt>
      <trkpt lat="44.11759" lon="6.70385">
        <ele>2175.1999511719</ele>
        <time>2022-07-09T10:36:57.000Z</time>
      </trkpt>
      <trkpt lat="44.11748" lon="6.70392">
        <ele>2175.8000488281</ele>
        <time>2022-07-09T10:37:03.000Z</time>
      </trkpt>
      <trkpt lat="44.11745" lon="6.70396">
        <ele>2176</ele>
        <time>2022-07-09T10:37:05.000Z</time>
      </trkpt>
      <trkpt lat="44.11726" lon="6.70406">
        <ele>2175.8000488281</ele>
        <time>2022-07-09T10:37:13.000Z</time>
      </trkpt>
      <trkpt lat="44.11705" lon="6.70416">
        <ele>2176.3999023438</ele>
        <time>2022-07-09T10:37:22.000Z</time>
      </trkpt>
      <trkpt lat="44.11699" lon="6.70418">
        <ele>2176.8000488281</ele>
        <time>2022-07-09T10:37:25.000Z</time>
      </trkpt>
      <trkpt lat="44.1169" lon="6.70421">
        <ele>2177.6000976562</ele>
        <time>2022-07-09T10:37:31.000Z</time>
      </trkpt>
      <trkpt lat="44.11687" lon="6.70422">
        <ele>2178</ele>
        <time>2022-07-09T10:37:33.000Z</time>
      </trkpt>
      <trkpt lat="44.11678" lon="6.70427">
        <ele>2179</ele>
        <time>2022-07-09T10:37:40.000Z</time>
      </trkpt>
      <trkpt lat="44.11676" lon="6.70428">
        <ele>2179.1999511719</ele>
        <time>2022-07-09T10:37:41.000Z</time>
      </trkpt>
      <trkpt lat="44.11668" lon="6.7043">
        <ele>2180</ele>
        <time>2022-07-09T10:37:47.000Z</time>
      </trkpt>
      <trkpt lat="44.11662" lon="6.70431">
        <ele>2180.3999023438</ele>
        <time>2022-07-09T10:37:51.000Z</time>
      </trkpt>
      <trkpt lat="44.11657" lon="6.70434">
        <ele>2181.1999511719</ele>
        <time>2022-07-09T10:37:55.000Z</time>
      </trkpt>
      <trkpt lat="44.11655" lon="6.70435">
        <ele>2181.3999023438</ele>
        <time>2022-07-09T10:37:57.000Z</time>
      </trkpt>
      <trkpt lat="44.1165" lon="6.7044">
        <ele>2182.1999511719</ele>
        <time>2022-07-09T10:38:02.000Z</time>
      </trkpt>
      <trkpt lat="44.11648" lon="6.70441">
        <ele>2182.6000976562</ele>
        <time>2022-07-09T10:38:04.000Z</time>
      </trkpt>
      <trkpt lat="44.11643" lon="6.70442">
        <ele>2183.1999511719</ele>
        <time>2022-07-09T10:38:09.000Z</time>
      </trkpt>
      <trkpt lat="44.11641" lon="6.70442">
        <ele>2183.1999511719</ele>
        <time>2022-07-09T10:38:10.000Z</time>
      </trkpt>
      <trkpt lat="44.11635" lon="6.70446">
        <ele>2184.3999023438</ele>
        <time>2022-07-09T10:38:16.000Z</time>
      </trkpt>
      <trkpt lat="44.11635" lon="6.70446">
        <ele>2184.6000976562</ele>
        <time>2022-07-09T10:38:17.000Z</time>
      </trkpt>
      <trkpt lat="44.11633" lon="6.70447">
        <ele>2185.1999511719</ele>
        <time>2022-07-09T10:38:22.000Z</time>
      </trkpt>
      <trkpt lat="44.11632" lon="6.70448">
        <ele>2185.3999023438</ele>
        <time>2022-07-09T10:38:24.000Z</time>
      </trkpt>
      <trkpt lat="44.11628" lon="6.7045">
        <ele>2186.1999511719</ele>
        <time>2022-07-09T10:38:31.000Z</time>
      </trkpt>
      <trkpt lat="44.11627" lon="6.70451">
        <ele>2186.6000976562</ele>
        <time>2022-07-09T10:38:33.000Z</time>
      </trkpt>
      <trkpt lat="44.11623" lon="6.70455">
        <ele>2187.8000488281</ele>
        <time>2022-07-09T10:38:39.000Z</time>
      </trkpt>
      <trkpt lat="44.11623" lon="6.70455">
        <ele>2188</ele>
        <time>2022-07-09T10:38:40.000Z</time>
      </trkpt>
      <trkpt lat="44.11618" lon="6.70459">
        <ele>2188.8000488281</ele>
        <time>2022-07-09T10:38:46.000Z</time>
      </trkpt>
      <trkpt lat="44.11616" lon="6.7046">
        <ele>2189.1999511719</ele>
        <time>2022-07-09T10:38:48.000Z</time>
      </trkpt>
      <trkpt lat="44.11613" lon="6.70461">
        <ele>2189.6000976562</ele>
        <time>2022-07-09T10:38:54.000Z</time>
      </trkpt>
      <trkpt lat="44.11612" lon="6.70462">
        <ele>2189.8000488281</ele>
        <time>2022-07-09T10:38:58.000Z</time>
      </trkpt>
      <trkpt lat="44.1161" lon="6.70463">
        <ele>2189.6000976562</ele>
        <time>2022-07-09T10:39:00.000Z</time>
      </trkpt>
      <trkpt lat="44.11601" lon="6.70465">
        <ele>2189.8000488281</ele>
        <time>2022-07-09T10:39:07.000Z</time>
      </trkpt>
      <trkpt lat="44.11597" lon="6.70463">
        <ele>2190</ele>
        <time>2022-07-09T10:39:10.000Z</time>
      </trkpt>
      <trkpt lat="44.11592" lon="6.70463">
        <ele>2190</ele>
        <time>2022-07-09T10:39:13.000Z</time>
      </trkpt>
      <trkpt lat="44.11582" lon="6.70463">
        <ele>2190.6000976562</ele>
        <time>2022-07-09T10:39:20.000Z</time>
      </trkpt>
      <trkpt lat="44.11581" lon="6.70463">
        <ele>2190.8000488281</ele>
        <time>2022-07-09T10:39:21.000Z</time>
      </trkpt>
      <trkpt lat="44.11575" lon="6.70468">
        <ele>2191</ele>
        <time>2022-07-09T10:39:26.000Z</time>
      </trkpt>
      <trkpt lat="44.11574" lon="6.70469">
        <ele>2191</ele>
        <time>2022-07-09T10:39:27.000Z</time>
      </trkpt>
      <trkpt lat="44.11571" lon="6.70473">
        <ele>2191.1999511719</ele>
        <time>2022-07-09T10:39:31.000Z</time>
      </trkpt>
      <trkpt lat="44.11565" lon="6.70478">
        <ele>2191.3999023438</ele>
        <time>2022-07-09T10:39:37.000Z</time>
      </trkpt>
      <trkpt lat="44.1156" lon="6.70482">
        <ele>2192</ele>
        <time>2022-07-09T10:39:42.000Z</time>
      </trkpt>
      <trkpt lat="44.11558" lon="6.70483">
        <ele>2192.3999023438</ele>
        <time>2022-07-09T10:39:44.000Z</time>
      </trkpt>
      <trkpt lat="44.11555" lon="6.70484">
        <ele>2192.8000488281</ele>
        <time>2022-07-09T10:39:48.000Z</time>
      </trkpt>
      <trkpt lat="44.11553" lon="6.70484">
        <ele>2193.1999511719</ele>
        <time>2022-07-09T10:39:50.000Z</time>
      </trkpt>
      <trkpt lat="44.11548" lon="6.70483">
        <ele>2194.1999511719</ele>
        <time>2022-07-09T10:39:57.000Z</time>
      </trkpt>
      <trkpt lat="44.11547" lon="6.70483">
        <ele>2194.1999511719</ele>
        <time>2022-07-09T10:39:59.000Z</time>
      </trkpt>
      <trkpt lat="44.11546" lon="6.70482">
        <ele>2194.1999511719</ele>
        <time>2022-07-09T10:40:00.000Z</time>
      </trkpt>
      <trkpt lat="44.11544" lon="6.70481">
        <ele>2194.1999511719</ele>
        <time>2022-07-09T10:40:03.000Z</time>
      </trkpt>
      <trkpt lat="44.1154" lon="6.70479">
        <ele>2193.1999511719</ele>
        <time>2022-07-09T10:40:08.000Z</time>
      </trkpt>
      <trkpt lat="44.11539" lon="6.70478">
        <ele>2192.8000488281</ele>
        <time>2022-07-09T10:40:09.000Z</time>
      </trkpt>
      <trkpt lat="44.11531" lon="6.70477">
        <ele>2193.1999511719</ele>
        <time>2022-07-09T10:40:19.000Z</time>
      </trkpt>
      <trkpt lat="44.11523" lon="6.70475">
        <ele>2193.8000488281</ele>
        <time>2022-07-09T10:40:28.000Z</time>
      </trkpt>
      <trkpt lat="44.1152" lon="6.70476">
        <ele>2194.1999511719</ele>
        <time>2022-07-09T10:40:33.000Z</time>
      </trkpt>
      <trkpt lat="44.11517" lon="6.70477">
        <ele>2194.3999023438</ele>
        <time>2022-07-09T10:40:36.000Z</time>
      </trkpt>
      <trkpt lat="44.1151" lon="6.70481">
        <ele>2195.3999023438</ele>
        <time>2022-07-09T10:40:44.000Z</time>
      </trkpt>
      <trkpt lat="44.11506" lon="6.70485">
        <ele>2195.6000976562</ele>
        <time>2022-07-09T10:40:50.000Z</time>
      </trkpt>
      <trkpt lat="44.115" lon="6.70491">
        <ele>2196.3999023438</ele>
        <time>2022-07-09T10:40:57.000Z</time>
      </trkpt>
      <trkpt lat="44.11499" lon="6.70491">
        <ele>2196.6000976562</ele>
        <time>2022-07-09T10:40:58.000Z</time>
      </trkpt>
      <trkpt lat="44.11495" lon="6.70493">
        <ele>2197.3999023438</ele>
        <time>2022-07-09T10:41:04.000Z</time>
      </trkpt>
      <trkpt lat="44.11492" lon="6.70495">
        <ele>2198</ele>
        <time>2022-07-09T10:41:08.000Z</time>
      </trkpt>
      <trkpt lat="44.11488" lon="6.705">
        <ele>2198.3999023438</ele>
        <time>2022-07-09T10:41:15.000Z</time>
      </trkpt>
      <trkpt lat="44.11483" lon="6.70507">
        <ele>2199.6000976562</ele>
        <time>2022-07-09T10:41:23.000Z</time>
      </trkpt>
      <trkpt lat="44.11483" lon="6.70508">
        <ele>2199.6000976562</ele>
        <time>2022-07-09T10:41:24.000Z</time>
      </trkpt>
      <trkpt lat="44.11482" lon="6.70511">
        <ele>2200</ele>
        <time>2022-07-09T10:41:28.000Z</time>
      </trkpt>
      <trkpt lat="44.11481" lon="6.70512">
        <ele>2200</ele>
        <time>2022-07-09T10:41:29.000Z</time>
      </trkpt>
      <trkpt lat="44.11477" lon="6.70517">
        <ele>2200.8000488281</ele>
        <time>2022-07-09T10:41:35.000Z</time>
      </trkpt>
      <trkpt lat="44.11477" lon="6.70518">
        <ele>2200.8000488281</ele>
        <time>2022-07-09T10:41:36.000Z</time>
      </trkpt>
      <trkpt lat="44.11471" lon="6.70526">
        <ele>2201.8000488281</ele>
        <time>2022-07-09T10:41:45.000Z</time>
      </trkpt>
      <trkpt lat="44.11461" lon="6.70529">
        <ele>2202</ele>
        <time>2022-07-09T10:41:54.000Z</time>
      </trkpt>
      <trkpt lat="44.11452" lon="6.70529">
        <ele>2202.1999511719</ele>
        <time>2022-07-09T10:42:02.000Z</time>
      </trkpt>
      <trkpt lat="44.1145" lon="6.70529">
        <ele>2202.3999023438</ele>
        <time>2022-07-09T10:42:07.000Z</time>
      </trkpt>
      <trkpt lat="44.11443" lon="6.70528">
        <ele>2202.6000976562</ele>
        <time>2022-07-09T10:42:13.000Z</time>
      </trkpt>
      <trkpt lat="44.11439" lon="6.70528">
        <ele>2202.8000488281</ele>
        <time>2022-07-09T10:42:16.000Z</time>
      </trkpt>
      <trkpt lat="44.11437" lon="6.70528">
        <ele>2203</ele>
        <time>2022-07-09T10:42:18.000Z</time>
      </trkpt>
      <trkpt lat="44.11428" lon="6.7053">
        <ele>2203.8000488281</ele>
        <time>2022-07-09T10:42:25.000Z</time>
      </trkpt>
      <trkpt lat="44.11427" lon="6.7053">
        <ele>2204</ele>
        <time>2022-07-09T10:42:26.000Z</time>
      </trkpt>
      <trkpt lat="44.11419" lon="6.70532">
        <ele>2204.8000488281</ele>
        <time>2022-07-09T10:42:32.000Z</time>
      </trkpt>
      <trkpt lat="44.11417" lon="6.70532">
        <ele>2205</ele>
        <time>2022-07-09T10:42:34.000Z</time>
      </trkpt>
      <trkpt lat="44.11413" lon="6.70534">
        <ele>2205.8000488281</ele>
        <time>2022-07-09T10:42:38.000Z</time>
      </trkpt>
      <trkpt lat="44.1141" lon="6.70536">
        <ele>2206</ele>
        <time>2022-07-09T10:42:41.000Z</time>
      </trkpt>
      <trkpt lat="44.11403" lon="6.70539">
        <ele>2206.1999511719</ele>
        <time>2022-07-09T10:42:47.000Z</time>
      </trkpt>
      <trkpt lat="44.11394" lon="6.70545">
        <ele>2206.8000488281</ele>
        <time>2022-07-09T10:42:55.000Z</time>
      </trkpt>
      <trkpt lat="44.11387" lon="6.70545">
        <ele>2207.1999511719</ele>
        <time>2022-07-09T10:43:00.000Z</time>
      </trkpt>
      <trkpt lat="44.11386" lon="6.70545">
        <ele>2207.1999511719</ele>
        <time>2022-07-09T10:43:01.000Z</time>
      </trkpt>
      <trkpt lat="44.11378" lon="6.70541">
        <ele>2208.3999023438</ele>
        <time>2022-07-09T10:43:09.000Z</time>
      </trkpt>
      <trkpt lat="44.1137" lon="6.70539">
        <ele>2209</ele>
        <time>2022-07-09T10:43:16.000Z</time>
      </trkpt>
      <trkpt lat="44.11364" lon="6.70543">
        <ele>2209.3999023438</ele>
        <time>2022-07-09T10:43:22.000Z</time>
      </trkpt>
      <trkpt lat="44.11363" lon="6.70544">
        <ele>2209.6000976562</ele>
        <time>2022-07-09T10:43:23.000Z</time>
      </trkpt>
      <trkpt lat="44.11358" lon="6.70547">
        <ele>2210.3999023438</ele>
        <time>2022-07-09T10:43:28.000Z</time>
      </trkpt>
      <trkpt lat="44.1135" lon="6.70548">
        <ele>2211.6000976562</ele>
        <time>2022-07-09T10:43:35.000Z</time>
      </trkpt>
      <trkpt lat="44.11343" lon="6.70545">
        <ele>2212.3999023438</ele>
        <time>2022-07-09T10:43:42.000Z</time>
      </trkpt>
      <trkpt lat="44.11342" lon="6.70544">
        <ele>2212.6000976562</ele>
        <time>2022-07-09T10:43:43.000Z</time>
      </trkpt>
      <trkpt lat="44.11336" lon="6.70542">
        <ele>2213.8000488281</ele>
        <time>2022-07-09T10:43:49.000Z</time>
      </trkpt>
      <trkpt lat="44.11333" lon="6.70541">
        <ele>2214.1999511719</ele>
        <time>2022-07-09T10:43:53.000Z</time>
      </trkpt>
      <trkpt lat="44.11329" lon="6.7054">
        <ele>2214.6000976562</ele>
        <time>2022-07-09T10:43:57.000Z</time>
      </trkpt>
      <trkpt lat="44.11328" lon="6.7054">
        <ele>2214.6000976562</ele>
        <time>2022-07-09T10:43:58.000Z</time>
      </trkpt>
      <trkpt lat="44.11327" lon="6.7054">
        <ele>2214.8000488281</ele>
        <time>2022-07-09T10:43:59.000Z</time>
      </trkpt>
      <trkpt lat="44.11322" lon="6.7054">
        <ele>2215.1999511719</ele>
        <time>2022-07-09T10:44:05.000Z</time>
      </trkpt>
      <trkpt lat="44.11318" lon="6.7054">
        <ele>2215.6000976562</ele>
        <time>2022-07-09T10:44:09.000Z</time>
      </trkpt>
      <trkpt lat="44.11316" lon="6.70541">
        <ele>2216</ele>
        <time>2022-07-09T10:44:12.000Z</time>
      </trkpt>
      <trkpt lat="44.11314" lon="6.70541">
        <ele>2216.3999023438</ele>
        <time>2022-07-09T10:44:15.000Z</time>
      </trkpt>
      <trkpt lat="44.11311" lon="6.70542">
        <ele>2216.8000488281</ele>
        <time>2022-07-09T10:44:18.000Z</time>
      </trkpt>
      <trkpt lat="44.11311" lon="6.70542">
        <ele>2217</ele>
        <time>2022-07-09T10:44:19.000Z</time>
      </trkpt>
      <trkpt lat="44.11309" lon="6.70543">
        <ele>2217.1999511719</ele>
        <time>2022-07-09T10:44:21.000Z</time>
      </trkpt>
      <trkpt lat="44.11308" lon="6.70544">
        <ele>2217.3999023438</ele>
        <time>2022-07-09T10:44:23.000Z</time>
      </trkpt>
      <trkpt lat="44.11306" lon="6.70546">
        <ele>2217.8000488281</ele>
        <time>2022-07-09T10:44:27.000Z</time>
      </trkpt>
      <trkpt lat="44.11305" lon="6.70547">
        <ele>2218</ele>
        <time>2022-07-09T10:44:29.000Z</time>
      </trkpt>
      <trkpt lat="44.11303" lon="6.70548">
        <ele>2218.1999511719</ele>
        <time>2022-07-09T10:44:31.000Z</time>
      </trkpt>
      <trkpt lat="44.11301" lon="6.70548">
        <ele>2218.3999023438</ele>
        <time>2022-07-09T10:44:33.000Z</time>
      </trkpt>
      <trkpt lat="44.11299" lon="6.70549">
        <ele>2218.6000976562</ele>
        <time>2022-07-09T10:44:35.000Z</time>
      </trkpt>
      <trkpt lat="44.11296" lon="6.7055">
        <ele>2219</ele>
        <time>2022-07-09T10:44:38.000Z</time>
      </trkpt>
      <trkpt lat="44.11294" lon="6.70552">
        <ele>2219.1999511719</ele>
        <time>2022-07-09T10:44:40.000Z</time>
      </trkpt>
      <trkpt lat="44.11293" lon="6.70552">
        <ele>2219.1999511719</ele>
        <time>2022-07-09T10:44:41.000Z</time>
      </trkpt>
      <trkpt lat="44.11292" lon="6.70553">
        <ele>2219.3999023438</ele>
        <time>2022-07-09T10:44:43.000Z</time>
      </trkpt>
      <trkpt lat="44.11291" lon="6.70553">
        <ele>2219.6000976562</ele>
        <time>2022-07-09T10:44:44.000Z</time>
      </trkpt>
      <trkpt lat="44.11288" lon="6.70555">
        <ele>2220.3999023438</ele>
        <time>2022-07-09T10:44:48.000Z</time>
      </trkpt>
      <trkpt lat="44.11286" lon="6.70555">
        <ele>2220.6000976562</ele>
        <time>2022-07-09T10:44:50.000Z</time>
      </trkpt>
      <trkpt lat="44.11284" lon="6.70556">
        <ele>2221</ele>
        <time>2022-07-09T10:44:52.000Z</time>
      </trkpt>
      <trkpt lat="44.11282" lon="6.70556">
        <ele>2221.3999023438</ele>
        <time>2022-07-09T10:44:55.000Z</time>
      </trkpt>
      <trkpt lat="44.11281" lon="6.70556">
        <ele>2221.3999023438</ele>
        <time>2022-07-09T10:44:56.000Z</time>
      </trkpt>
      <trkpt lat="44.1128" lon="6.70557">
        <ele>2222.1999511719</ele>
        <time>2022-07-09T10:45:01.000Z</time>
      </trkpt>
      <trkpt lat="44.11277" lon="6.70557">
        <ele>2222.3999023438</ele>
        <time>2022-07-09T10:45:05.000Z</time>
      </trkpt>
      <trkpt lat="44.11275" lon="6.70558">
        <ele>2222.6000976562</ele>
        <time>2022-07-09T10:45:08.000Z</time>
      </trkpt>
      <trkpt lat="44.11271" lon="6.7056">
        <ele>2223.6000976562</ele>
        <time>2022-07-09T10:45:14.000Z</time>
      </trkpt>
      <trkpt lat="44.11269" lon="6.70561">
        <ele>2224</ele>
        <time>2022-07-09T10:45:17.000Z</time>
      </trkpt>
      <trkpt lat="44.11265" lon="6.70564">
        <ele>2224.3999023438</ele>
        <time>2022-07-09T10:45:24.000Z</time>
      </trkpt>
      <trkpt lat="44.11264" lon="6.70564">
        <ele>2224.6000976562</ele>
        <time>2022-07-09T10:45:25.000Z</time>
      </trkpt>
      <trkpt lat="44.11261" lon="6.70566">
        <ele>2225.1999511719</ele>
        <time>2022-07-09T10:45:30.000Z</time>
      </trkpt>
      <trkpt lat="44.11257" lon="6.70568">
        <ele>2225.6000976562</ele>
        <time>2022-07-09T10:45:36.000Z</time>
      </trkpt>
      <trkpt lat="44.11256" lon="6.70569">
        <ele>2226</ele>
        <time>2022-07-09T10:45:38.000Z</time>
      </trkpt>
      <trkpt lat="44.11253" lon="6.7057">
        <ele>2226.3999023438</ele>
        <time>2022-07-09T10:45:42.000Z</time>
      </trkpt>
      <trkpt lat="44.11251" lon="6.70569">
        <ele>2226.8000488281</ele>
        <time>2022-07-09T10:45:45.000Z</time>
      </trkpt>
      <trkpt lat="44.11245" lon="6.70569">
        <ele>2227.8000488281</ele>
        <time>2022-07-09T10:45:53.000Z</time>
      </trkpt>
      <trkpt lat="44.11245" lon="6.70569">
        <ele>2227.8000488281</ele>
        <time>2022-07-09T10:45:54.000Z</time>
      </trkpt>
      <trkpt lat="44.1124" lon="6.70569">
        <ele>2228.8000488281</ele>
        <time>2022-07-09T10:46:01.000Z</time>
      </trkpt>
      <trkpt lat="44.11239" lon="6.7057">
        <ele>2229.1999511719</ele>
        <time>2022-07-09T10:46:03.000Z</time>
      </trkpt>
      <trkpt lat="44.11234" lon="6.70572">
        <ele>2229.8000488281</ele>
        <time>2022-07-09T10:46:09.000Z</time>
      </trkpt>
      <trkpt lat="44.11232" lon="6.70574">
        <ele>2230.3999023438</ele>
        <time>2022-07-09T10:46:13.000Z</time>
      </trkpt>
      <trkpt lat="44.11229" lon="6.70576">
        <ele>2231</ele>
        <time>2022-07-09T10:46:18.000Z</time>
      </trkpt>
      <trkpt lat="44.11228" lon="6.70577">
        <ele>2231.6000976562</ele>
        <time>2022-07-09T10:46:21.000Z</time>
      </trkpt>
      <trkpt lat="44.11225" lon="6.70578">
        <ele>2232</ele>
        <time>2022-07-09T10:46:25.000Z</time>
      </trkpt>
      <trkpt lat="44.11222" lon="6.70578">
        <ele>2232.3999023438</ele>
        <time>2022-07-09T10:46:28.000Z</time>
      </trkpt>
      <trkpt lat="44.11217" lon="6.70579">
        <ele>2233</ele>
        <time>2022-07-09T10:46:34.000Z</time>
      </trkpt>
      <trkpt lat="44.11215" lon="6.7058">
        <ele>2233.6000976562</ele>
        <time>2022-07-09T10:46:37.000Z</time>
      </trkpt>
      <trkpt lat="44.11211" lon="6.70583">
        <ele>2234</ele>
        <time>2022-07-09T10:46:45.000Z</time>
      </trkpt>
      <trkpt lat="44.11204" lon="6.70587">
        <ele>2234.1999511719</ele>
        <time>2022-07-09T10:46:52.000Z</time>
      </trkpt>
      <trkpt lat="44.11203" lon="6.70588">
        <ele>2234.1999511719</ele>
        <time>2022-07-09T10:46:53.000Z</time>
      </trkpt>
      <trkpt lat="44.112" lon="6.7059">
        <ele>2234.3999023438</ele>
        <time>2022-07-09T10:46:56.000Z</time>
      </trkpt>
      <trkpt lat="44.11197" lon="6.70593">
        <ele>2234.3999023438</ele>
        <time>2022-07-09T10:46:58.000Z</time>
      </trkpt>
      <trkpt lat="44.11191" lon="6.70597">
        <ele>2234.6000976562</ele>
        <time>2022-07-09T10:47:02.000Z</time>
      </trkpt>
      <trkpt lat="44.1118" lon="6.70603">
        <ele>2234.8000488281</ele>
        <time>2022-07-09T10:47:10.000Z</time>
      </trkpt>
      <trkpt lat="44.11166" lon="6.70608">
        <ele>2234.8000488281</ele>
        <time>2022-07-09T10:47:18.000Z</time>
      </trkpt>
      <trkpt lat="44.11154" lon="6.70606">
        <ele>2235.1999511719</ele>
        <time>2022-07-09T10:47:25.000Z</time>
      </trkpt>
      <trkpt lat="44.11139" lon="6.70606">
        <ele>2235</ele>
        <time>2022-07-09T10:47:31.000Z</time>
      </trkpt>
      <trkpt lat="44.11123" lon="6.70615">
        <ele>2233.6000976562</ele>
        <time>2022-07-09T10:47:35.000Z</time>
      </trkpt>
      <trkpt lat="44.11114" lon="6.70621">
        <ele>2232.6000976562</ele>
        <time>2022-07-09T10:47:37.000Z</time>
      </trkpt>
      <trkpt lat="44.11103" lon="6.70626">
        <ele>2231.1999511719</ele>
        <time>2022-07-09T10:47:39.000Z</time>
      </trkpt>
      <trkpt lat="44.11096" lon="6.70626">
        <ele>2229.8000488281</ele>
        <time>2022-07-09T10:47:40.000Z</time>
      </trkpt>
      <trkpt lat="44.11091" lon="6.70624">
        <ele>2228.1999511719</ele>
        <time>2022-07-09T10:47:41.000Z</time>
      </trkpt>
      <trkpt lat="44.1108" lon="6.70617">
        <ele>2226.1999511719</ele>
        <time>2022-07-09T10:47:43.000Z</time>
      </trkpt>
      <trkpt lat="44.11065" lon="6.70616">
        <ele>2225.1999511719</ele>
        <time>2022-07-09T10:47:46.000Z</time>
      </trkpt>
      <trkpt lat="44.11061" lon="6.70617">
        <ele>2224.8000488281</ele>
        <time>2022-07-09T10:47:47.000Z</time>
      </trkpt>
      <trkpt lat="44.11052" lon="6.70621">
        <ele>2223.8000488281</ele>
        <time>2022-07-09T10:47:49.000Z</time>
      </trkpt>
      <trkpt lat="44.11044" lon="6.70622">
        <ele>2224.1999511719</ele>
        <time>2022-07-09T10:47:51.000Z</time>
      </trkpt>
      <trkpt lat="44.1104" lon="6.70622">
        <ele>2224.6000976562</ele>
        <time>2022-07-09T10:47:52.000Z</time>
      </trkpt>
      <trkpt lat="44.11037" lon="6.70622">
        <ele>2225</ele>
        <time>2022-07-09T10:47:53.000Z</time>
      </trkpt>
      <trkpt lat="44.11015" lon="6.70624">
        <ele>2225.6000976562</ele>
        <time>2022-07-09T10:47:59.000Z</time>
      </trkpt>
      <trkpt lat="44.11006" lon="6.7062">
        <ele>2226</ele>
        <time>2022-07-09T10:48:03.000Z</time>
      </trkpt>
      <trkpt lat="44.10989" lon="6.70618">
        <ele>2226.1999511719</ele>
        <time>2022-07-09T10:48:07.000Z</time>
      </trkpt>
      <trkpt lat="44.10985" lon="6.70619">
        <ele>2226</ele>
        <time>2022-07-09T10:48:08.000Z</time>
      </trkpt>
      <trkpt lat="44.10973" lon="6.7062">
        <ele>2224.8000488281</ele>
        <time>2022-07-09T10:48:11.000Z</time>
      </trkpt>
      <trkpt lat="44.10964" lon="6.70621">
        <ele>2224.8000488281</ele>
        <time>2022-07-09T10:48:13.000Z</time>
      </trkpt>
      <trkpt lat="44.10955" lon="6.70623">
        <ele>2224.3999023438</ele>
        <time>2022-07-09T10:48:15.000Z</time>
      </trkpt>
      <trkpt lat="44.10942" lon="6.70629">
        <ele>2223.6000976562</ele>
        <time>2022-07-09T10:48:18.000Z</time>
      </trkpt>
      <trkpt lat="44.10924" lon="6.70638">
        <ele>2223</ele>
        <time>2022-07-09T10:48:22.000Z</time>
      </trkpt>
      <trkpt lat="44.10896" lon="6.70647">
        <ele>2223.6000976562</ele>
        <time>2022-07-09T10:48:28.000Z</time>
      </trkpt>
      <trkpt lat="44.10888" lon="6.7065">
        <ele>2223.3999023438</ele>
        <time>2022-07-09T10:48:30.000Z</time>
      </trkpt>
      <trkpt lat="44.10874" lon="6.70654">
        <ele>2224</ele>
        <time>2022-07-09T10:48:34.000Z</time>
      </trkpt>
      <trkpt lat="44.10866" lon="6.70658">
        <ele>2224.8000488281</ele>
        <time>2022-07-09T10:48:37.000Z</time>
      </trkpt>
      <trkpt lat="44.10856" lon="6.70662">
        <ele>2225.1999511719</ele>
        <time>2022-07-09T10:48:41.000Z</time>
      </trkpt>
      <trkpt lat="44.10847" lon="6.70663">
        <ele>2225.8000488281</ele>
        <time>2022-07-09T10:48:46.000Z</time>
      </trkpt>
      <trkpt lat="44.10845" lon="6.70663">
        <ele>2226</ele>
        <time>2022-07-09T10:48:47.000Z</time>
      </trkpt>
      <trkpt lat="44.10836" lon="6.70663">
        <ele>2227</ele>
        <time>2022-07-09T10:48:51.000Z</time>
      </trkpt>
      <trkpt lat="44.1083" lon="6.70663">
        <ele>2227.1999511719</ele>
        <time>2022-07-09T10:48:54.000Z</time>
      </trkpt>
      <trkpt lat="44.10822" lon="6.70662">
        <ele>2228</ele>
        <time>2022-07-09T10:48:58.000Z</time>
      </trkpt>
      <trkpt lat="44.10816" lon="6.70662">
        <ele>2228.3999023438</ele>
        <time>2022-07-09T10:49:01.000Z</time>
      </trkpt>
      <trkpt lat="44.10801" lon="6.70663">
        <ele>2228.8000488281</ele>
        <time>2022-07-09T10:49:08.000Z</time>
      </trkpt>
      <trkpt lat="44.10789" lon="6.70666">
        <ele>2229</ele>
        <time>2022-07-09T10:49:13.000Z</time>
      </trkpt>
      <trkpt lat="44.10782" lon="6.70668">
        <ele>2229.1999511719</ele>
        <time>2022-07-09T10:49:16.000Z</time>
      </trkpt>
      <trkpt lat="44.10768" lon="6.70671">
        <ele>2230.1999511719</ele>
        <time>2022-07-09T10:49:25.000Z</time>
      </trkpt>
      <trkpt lat="44.10767" lon="6.70671">
        <ele>2230.1999511719</ele>
        <time>2022-07-09T10:49:26.000Z</time>
      </trkpt>
      <trkpt lat="44.10757" lon="6.70664">
        <ele>2231.1999511719</ele>
        <time>2022-07-09T10:49:33.000Z</time>
      </trkpt>
      <trkpt lat="44.10756" lon="6.70663">
        <ele>2231.1999511719</ele>
        <time>2022-07-09T10:49:34.000Z</time>
      </trkpt>
      <trkpt lat="44.10745" lon="6.70663">
        <ele>2231.6000976562</ele>
        <time>2022-07-09T10:49:40.000Z</time>
      </trkpt>
      <trkpt lat="44.10734" lon="6.70662">
        <ele>2231.8000488281</ele>
        <time>2022-07-09T10:49:47.000Z</time>
      </trkpt>
      <trkpt lat="44.10725" lon="6.70662">
        <ele>2232.3999023438</ele>
        <time>2022-07-09T10:49:52.000Z</time>
      </trkpt>
      <trkpt lat="44.10722" lon="6.70661">
        <ele>2232.3999023438</ele>
        <time>2022-07-09T10:49:54.000Z</time>
      </trkpt>
      <trkpt lat="44.10713" lon="6.70659">
        <ele>2233</ele>
        <time>2022-07-09T10:50:01.000Z</time>
      </trkpt>
      <trkpt lat="44.10711" lon="6.70658">
        <ele>2233.3999023438</ele>
        <time>2022-07-09T10:50:03.000Z</time>
      </trkpt>
      <trkpt lat="44.10702" lon="6.70656">
        <ele>2233.8000488281</ele>
        <time>2022-07-09T10:50:08.000Z</time>
      </trkpt>
      <trkpt lat="44.10692" lon="6.70649">
        <ele>2234.1999511719</ele>
        <time>2022-07-09T10:50:15.000Z</time>
      </trkpt>
      <trkpt lat="44.10687" lon="6.70646">
        <ele>2234.3999023438</ele>
        <time>2022-07-09T10:50:18.000Z</time>
      </trkpt>
      <trkpt lat="44.10683" lon="6.70642">
        <ele>2235.3999023438</ele>
        <time>2022-07-09T10:50:22.000Z</time>
      </trkpt>
      <trkpt lat="44.10682" lon="6.70641">
        <ele>2235.6000976562</ele>
        <time>2022-07-09T10:50:23.000Z</time>
      </trkpt>
      <trkpt lat="44.1068" lon="6.70641">
        <ele>2235.8000488281</ele>
        <time>2022-07-09T10:50:24.000Z</time>
      </trkpt>
      <trkpt lat="44.10674" lon="6.7064">
        <ele>2236.1999511719</ele>
        <time>2022-07-09T10:50:28.000Z</time>
      </trkpt>
      <trkpt lat="44.10673" lon="6.7064">
        <ele>2236.3999023438</ele>
        <time>2022-07-09T10:50:29.000Z</time>
      </trkpt>
      <trkpt lat="44.10667" lon="6.70637">
        <ele>2236.6000976562</ele>
        <time>2022-07-09T10:50:33.000Z</time>
      </trkpt>
      <trkpt lat="44.10659" lon="6.70634">
        <ele>2237.1999511719</ele>
        <time>2022-07-09T10:50:38.000Z</time>
      </trkpt>
      <trkpt lat="44.10645" lon="6.70629">
        <ele>2237.6000976562</ele>
        <time>2022-07-09T10:50:46.000Z</time>
      </trkpt>
      <trkpt lat="44.10629" lon="6.70629">
        <ele>2237.6000976562</ele>
        <time>2022-07-09T10:50:53.000Z</time>
      </trkpt>
      <trkpt lat="44.10613" lon="6.70638">
        <ele>2237.6000976562</ele>
        <time>2022-07-09T10:51:00.000Z</time>
      </trkpt>
      <trkpt lat="44.10611" lon="6.70639">
        <ele>2237.8000488281</ele>
        <time>2022-07-09T10:51:01.000Z</time>
      </trkpt>
      <trkpt lat="44.10595" lon="6.70641">
        <ele>2237.3999023438</ele>
        <time>2022-07-09T10:51:06.000Z</time>
      </trkpt>
      <trkpt lat="44.10587" lon="6.70645">
        <ele>2236.6000976562</ele>
        <time>2022-07-09T10:51:09.000Z</time>
      </trkpt>
      <trkpt lat="44.10584" lon="6.70646">
        <ele>2236.3999023438</ele>
        <time>2022-07-09T10:51:10.000Z</time>
      </trkpt>
      <trkpt lat="44.10575" lon="6.70648">
        <ele>2236.1999511719</ele>
        <time>2022-07-09T10:51:14.000Z</time>
      </trkpt>
      <trkpt lat="44.10568" lon="6.70651">
        <ele>2236.3999023438</ele>
        <time>2022-07-09T10:51:16.000Z</time>
      </trkpt>
      <trkpt lat="44.10565" lon="6.70652">
        <ele>2236.6000976562</ele>
        <time>2022-07-09T10:51:17.000Z</time>
      </trkpt>
      <trkpt lat="44.10557" lon="6.70654">
        <ele>2235.3999023438</ele>
        <time>2022-07-09T10:51:20.000Z</time>
      </trkpt>
      <trkpt lat="44.1055" lon="6.70657">
        <ele>2235.3999023438</ele>
        <time>2022-07-09T10:51:22.000Z</time>
      </trkpt>
      <trkpt lat="44.10531" lon="6.70666">
        <ele>2234.6000976562</ele>
        <time>2022-07-09T10:51:28.000Z</time>
      </trkpt>
      <trkpt lat="44.10527" lon="6.70668">
        <ele>2234.3999023438</ele>
        <time>2022-07-09T10:51:29.000Z</time>
      </trkpt>
      <trkpt lat="44.10516" lon="6.70669">
        <ele>2233.6000976562</ele>
        <time>2022-07-09T10:51:32.000Z</time>
      </trkpt>
      <trkpt lat="44.10513" lon="6.7067">
        <ele>2233</ele>
        <time>2022-07-09T10:51:33.000Z</time>
      </trkpt>
      <trkpt lat="44.10506" lon="6.7067">
        <ele>2231.8000488281</ele>
        <time>2022-07-09T10:51:36.000Z</time>
      </trkpt>
      <trkpt lat="44.10504" lon="6.70671">
        <ele>2232</ele>
        <time>2022-07-09T10:51:37.000Z</time>
      </trkpt>
      <trkpt lat="44.10494" lon="6.70676">
        <ele>2232.8000488281</ele>
        <time>2022-07-09T10:51:41.000Z</time>
      </trkpt>
      <trkpt lat="44.10486" lon="6.70679">
        <ele>2232.6000976562</ele>
        <time>2022-07-09T10:51:44.000Z</time>
      </trkpt>
      <trkpt lat="44.10468" lon="6.70688">
        <ele>2233.1999511719</ele>
        <time>2022-07-09T10:51:51.000Z</time>
      </trkpt>
      <trkpt lat="44.10447" lon="6.70701">
        <ele>2232.3999023438</ele>
        <time>2022-07-09T10:51:57.000Z</time>
      </trkpt>
      <trkpt lat="44.10436" lon="6.70706">
        <ele>2231.8000488281</ele>
        <time>2022-07-09T10:52:01.000Z</time>
      </trkpt>
      <trkpt lat="44.10434" lon="6.70706">
        <ele>2231.8000488281</ele>
        <time>2022-07-09T10:52:02.000Z</time>
      </trkpt>
      <trkpt lat="44.10418" lon="6.7071">
        <ele>2232</ele>
        <time>2022-07-09T10:52:09.000Z</time>
      </trkpt>
      <trkpt lat="44.10407" lon="6.70715">
        <ele>2232</ele>
        <time>2022-07-09T10:52:16.000Z</time>
      </trkpt>
      <trkpt lat="44.10407" lon="6.70717">
        <ele>2231.8000488281</ele>
        <time>2022-07-09T10:52:20.000Z</time>
      </trkpt>
      <trkpt lat="44.10407" lon="6.70717">
        <ele>2231.8000488281</ele>
        <time>2022-07-09T10:52:21.000Z</time>
      </trkpt>
      <trkpt lat="44.10405" lon="6.70717">
        <ele>2232</ele>
        <time>2022-07-09T10:52:25.000Z</time>
      </trkpt>
      <trkpt lat="44.10404" lon="6.70717">
        <ele>2232.1999511719</ele>
        <time>2022-07-09T10:52:32.000Z</time>
      </trkpt>
      <trkpt lat="44.10404" lon="6.70717">
        <ele>2232.6000976562</ele>
        <time>2022-07-09T10:52:42.000Z</time>
      </trkpt>
      <trkpt lat="44.10404" lon="6.70717">
        <ele>2232.6000976562</ele>
        <time>2022-07-09T10:52:51.000Z</time>
      </trkpt>
      <trkpt lat="44.10404" lon="6.70716">
        <ele>2231.8000488281</ele>
        <time>2022-07-09T10:53:00.000Z</time>
      </trkpt>
      <trkpt lat="44.10406" lon="6.70717">
        <ele>2232.6000976562</ele>
        <time>2022-07-09T10:53:07.000Z</time>
      </trkpt>
      <trkpt lat="44.10406" lon="6.70717">
        <ele>2232.8000488281</ele>
        <time>2022-07-09T10:53:08.000Z</time>
      </trkpt>
      <trkpt lat="44.10406" lon="6.70718">
        <ele>2233</ele>
        <time>2022-07-09T10:53:16.000Z</time>
      </trkpt>
      <trkpt lat="44.10406" lon="6.70718">
        <ele>2233</ele>
        <time>2022-07-09T10:53:28.000Z</time>
      </trkpt>
      <trkpt lat="44.10404" lon="6.70717">
        <ele>2232.1999511719</ele>
        <time>2022-07-09T10:53:35.000Z</time>
      </trkpt>
      <trkpt lat="44.10404" lon="6.70717">
        <ele>2232</ele>
        <time>2022-07-09T10:53:43.000Z</time>
      </trkpt>
      <trkpt lat="44.10404" lon="6.70717">
        <ele>2232</ele>
        <time>2022-07-09T10:53:54.000Z</time>
      </trkpt>
      <trkpt lat="44.10403" lon="6.70716">
        <ele>2232.3999023438</ele>
        <time>2022-07-09T10:54:00.000Z</time>
      </trkpt>
      <trkpt lat="44.10404" lon="6.70716">
        <ele>2231.8000488281</ele>
        <time>2022-07-09T10:54:11.000Z</time>
      </trkpt>
      <trkpt lat="44.10404" lon="6.70716">
        <ele>2231.8000488281</ele>
        <time>2022-07-09T10:54:12.000Z</time>
      </trkpt>
      <trkpt lat="44.10405" lon="6.70715">
        <ele>2231.8000488281</ele>
        <time>2022-07-09T10:54:30.000Z</time>
      </trkpt>
      <trkpt lat="44.10406" lon="6.70714">
        <ele>2231.6000976562</ele>
        <time>2022-07-09T10:54:47.000Z</time>
      </trkpt>
      <trkpt lat="44.10406" lon="6.70714">
        <ele>2231.3999023438</ele>
        <time>2022-07-09T10:55:08.000Z</time>
      </trkpt>
      <trkpt lat="44.10406" lon="6.70714">
        <ele>2231.3999023438</ele>
        <time>2022-07-09T10:55:28.000Z</time>
      </trkpt>
      <trkpt lat="44.10407" lon="6.70714">
        <ele>2231.3999023438</ele>
        <time>2022-07-09T10:55:46.000Z</time>
      </trkpt>
      <trkpt lat="44.10407" lon="6.70714">
        <ele>2231.3999023438</ele>
        <time>2022-07-09T10:56:04.000Z</time>
      </trkpt>
      <trkpt lat="44.10407" lon="6.70714">
        <ele>2231</ele>
        <time>2022-07-09T10:56:24.000Z</time>
      </trkpt>
      <trkpt lat="44.10407" lon="6.70714">
        <ele>2231</ele>
        <time>2022-07-09T10:56:40.000Z</time>
      </trkpt>
      <trkpt lat="44.10407" lon="6.70715">
        <ele>2230.8000488281</ele>
        <time>2022-07-09T10:56:53.000Z</time>
      </trkpt>
      <trkpt lat="44.10407" lon="6.70715">
        <ele>2230.8000488281</ele>
        <time>2022-07-09T10:57:08.000Z</time>
      </trkpt>
      <trkpt lat="44.10407" lon="6.70716">
        <ele>2230.8000488281</ele>
        <time>2022-07-09T10:57:31.000Z</time>
      </trkpt>
      <trkpt lat="44.10406" lon="6.70717">
        <ele>2230.8000488281</ele>
        <time>2022-07-09T10:58:08.000Z</time>
      </trkpt>
      <trkpt lat="44.10406" lon="6.70717">
        <ele>2231.1999511719</ele>
        <time>2022-07-09T10:58:30.000Z</time>
      </trkpt>
      <trkpt lat="44.10407" lon="6.70717">
        <ele>2231</ele>
        <time>2022-07-09T10:58:49.000Z</time>
      </trkpt>
      <trkpt lat="44.10407" lon="6.70716">
        <ele>2231.3999023438</ele>
        <time>2022-07-09T10:59:11.000Z</time>
      </trkpt>
      <trkpt lat="44.10407" lon="6.70716">
        <ele>2231</ele>
        <time>2022-07-09T10:59:29.000Z</time>
      </trkpt>
      <trkpt lat="44.10407" lon="6.70717">
        <ele>2231.3999023438</ele>
        <time>2022-07-09T10:59:49.000Z</time>
      </trkpt>
      <trkpt lat="44.10407" lon="6.70716">
        <ele>2231.1999511719</ele>
        <time>2022-07-09T11:00:09.000Z</time>
      </trkpt>
      <trkpt lat="44.10407" lon="6.70716">
        <ele>2231.3999023438</ele>
        <time>2022-07-09T11:00:35.000Z</time>
      </trkpt>
      <trkpt lat="44.10407" lon="6.70715">
        <ele>2231.3999023438</ele>
        <time>2022-07-09T11:00:55.000Z</time>
      </trkpt>
      <trkpt lat="44.10407" lon="6.70716">
        <ele>2231.6000976562</ele>
        <time>2022-07-09T11:01:19.000Z</time>
      </trkpt>
      <trkpt lat="44.10407" lon="6.70716">
        <ele>2231.8000488281</ele>
        <time>2022-07-09T11:01:21.000Z</time>
      </trkpt>
      <trkpt lat="44.10407" lon="6.70716">
        <ele>2232</ele>
        <time>2022-07-09T11:01:39.000Z</time>
      </trkpt>
      <trkpt lat="44.10407" lon="6.70716">
        <ele>2231.6000976562</ele>
        <time>2022-07-09T11:01:54.000Z</time>
      </trkpt>
      <trkpt lat="44.10407" lon="6.70716">
        <ele>2231.6000976562</ele>
        <time>2022-07-09T11:02:19.000Z</time>
      </trkpt>
      <trkpt lat="44.10407" lon="6.70716">
        <ele>2232</ele>
        <time>2022-07-09T11:02:47.000Z</time>
      </trkpt>
      <trkpt lat="44.10408" lon="6.70716">
        <ele>2232</ele>
        <time>2022-07-09T11:03:06.000Z</time>
      </trkpt>
      <trkpt lat="44.10408" lon="6.70715">
        <ele>2232.1999511719</ele>
        <time>2022-07-09T11:03:34.000Z</time>
      </trkpt>
      <trkpt lat="44.10407" lon="6.70715">
        <ele>2232.3999023438</ele>
        <time>2022-07-09T11:03:50.000Z</time>
      </trkpt>
      <trkpt lat="44.10407" lon="6.70715">
        <ele>2232.3999023438</ele>
        <time>2022-07-09T11:04:04.000Z</time>
      </trkpt>
      <trkpt lat="44.10407" lon="6.70716">
        <ele>2232.3999023438</ele>
        <time>2022-07-09T11:04:10.000Z</time>
      </trkpt>
      <trkpt lat="44.10407" lon="6.70716">
        <ele>2232.1999511719</ele>
        <time>2022-07-09T11:04:25.000Z</time>
      </trkpt>
      <trkpt lat="44.10407" lon="6.70715">
        <ele>2232</ele>
        <time>2022-07-09T11:04:43.000Z</time>
      </trkpt>
      <trkpt lat="44.10408" lon="6.70714">
        <ele>2232</ele>
        <time>2022-07-09T11:04:56.000Z</time>
      </trkpt>
      <trkpt lat="44.10407" lon="6.70715">
        <ele>2232.1999511719</ele>
        <time>2022-07-09T11:05:12.000Z</time>
      </trkpt>
      <trkpt lat="44.10407" lon="6.70715">
        <ele>2232.3999023438</ele>
        <time>2022-07-09T11:05:35.000Z</time>
      </trkpt>
      <trkpt lat="44.10407" lon="6.70715">
        <ele>2232.6000976562</ele>
        <time>2022-07-09T11:06:00.000Z</time>
      </trkpt>
      <trkpt lat="44.10407" lon="6.70715">
        <ele>2232.6000976562</ele>
        <time>2022-07-09T11:06:21.000Z</time>
      </trkpt>
      <trkpt lat="44.10407" lon="6.70716">
        <ele>2232.6000976562</ele>
        <time>2022-07-09T11:06:46.000Z</time>
      </trkpt>
      <trkpt lat="44.10407" lon="6.70715">
        <ele>2232.6000976562</ele>
        <time>2022-07-09T11:07:06.000Z</time>
      </trkpt>
      <trkpt lat="44.10407" lon="6.70715">
        <ele>2232.6000976562</ele>
        <time>2022-07-09T11:07:29.000Z</time>
      </trkpt>
      <trkpt lat="44.10407" lon="6.70714">
        <ele>2232.8000488281</ele>
        <time>2022-07-09T11:07:36.000Z</time>
      </trkpt>
      <trkpt lat="44.10407" lon="6.70714">
        <ele>2232.8000488281</ele>
        <time>2022-07-09T11:07:38.000Z</time>
      </trkpt>
      <trkpt lat="44.10406" lon="6.70715">
        <ele>2233</ele>
        <time>2022-07-09T11:07:51.000Z</time>
      </trkpt>
      <trkpt lat="44.10406" lon="6.70716">
        <ele>2232.8000488281</ele>
        <time>2022-07-09T11:08:01.000Z</time>
      </trkpt>
      <trkpt lat="44.10406" lon="6.70716">
        <ele>2232</ele>
        <time>2022-07-09T11:08:19.000Z</time>
      </trkpt>
      <trkpt lat="44.10405" lon="6.70716">
        <ele>2232</ele>
        <time>2022-07-09T11:08:26.000Z</time>
      </trkpt>
      <trkpt lat="44.10404" lon="6.70715">
        <ele>2232.1999511719</ele>
        <time>2022-07-09T11:08:45.000Z</time>
      </trkpt>
      <trkpt lat="44.10404" lon="6.70716">
        <ele>2232.1999511719</ele>
        <time>2022-07-09T11:08:54.000Z</time>
      </trkpt>
      <trkpt lat="44.10404" lon="6.70716">
        <ele>2232.8000488281</ele>
        <time>2022-07-09T11:09:17.000Z</time>
      </trkpt>
      <trkpt lat="44.10404" lon="6.70715">
        <ele>2232.8000488281</ele>
        <time>2022-07-09T11:09:34.000Z</time>
      </trkpt>
      <trkpt lat="44.10404" lon="6.70715">
        <ele>2232.8000488281</ele>
        <time>2022-07-09T11:09:57.000Z</time>
      </trkpt>
      <trkpt lat="44.10404" lon="6.70715">
        <ele>2232.6000976562</ele>
        <time>2022-07-09T11:10:18.000Z</time>
      </trkpt>
      <trkpt lat="44.10403" lon="6.70715">
        <ele>2232.8000488281</ele>
        <time>2022-07-09T11:10:38.000Z</time>
      </trkpt>
      <trkpt lat="44.10403" lon="6.70715">
        <ele>2233</ele>
        <time>2022-07-09T11:10:56.000Z</time>
      </trkpt>
      <trkpt lat="44.10403" lon="6.70715">
        <ele>2233.3999023438</ele>
        <time>2022-07-09T11:11:16.000Z</time>
      </trkpt>
      <trkpt lat="44.10404" lon="6.70715">
        <ele>2233.3999023438</ele>
        <time>2022-07-09T11:11:37.000Z</time>
      </trkpt>
      <trkpt lat="44.10403" lon="6.70715">
        <ele>2233.6000976562</ele>
        <time>2022-07-09T11:11:55.000Z</time>
      </trkpt>
      <trkpt lat="44.10403" lon="6.70715">
        <ele>2233.3999023438</ele>
        <time>2022-07-09T11:12:15.000Z</time>
      </trkpt>
      <trkpt lat="44.10404" lon="6.70714">
        <ele>2233.6000976562</ele>
        <time>2022-07-09T11:12:37.000Z</time>
      </trkpt>
      <trkpt lat="44.10404" lon="6.70714">
        <ele>2233.3999023438</ele>
        <time>2022-07-09T11:12:43.000Z</time>
      </trkpt>
      <trkpt lat="44.10404" lon="6.70714">
        <ele>2233.6000976562</ele>
        <time>2022-07-09T11:12:53.000Z</time>
      </trkpt>
      <trkpt lat="44.10404" lon="6.70714">
        <ele>2233.8000488281</ele>
        <time>2022-07-09T11:12:59.000Z</time>
      </trkpt>
      <trkpt lat="44.10404" lon="6.70714">
        <ele>2233.3999023438</ele>
        <time>2022-07-09T11:13:06.000Z</time>
      </trkpt>
      <trkpt lat="44.10405" lon="6.70715">
        <ele>2234</ele>
        <time>2022-07-09T11:13:17.000Z</time>
      </trkpt>
      <trkpt lat="44.10405" lon="6.70715">
        <ele>2233.8000488281</ele>
        <time>2022-07-09T11:13:23.000Z</time>
      </trkpt>
      <trkpt lat="44.10405" lon="6.70715">
        <ele>2233.8000488281</ele>
        <time>2022-07-09T11:13:34.000Z</time>
      </trkpt>
      <trkpt lat="44.10405" lon="6.70715">
        <ele>2233.8000488281</ele>
        <time>2022-07-09T11:13:40.000Z</time>
      </trkpt>
      <trkpt lat="44.10405" lon="6.70714">
        <ele>2234.3999023438</ele>
        <time>2022-07-09T11:13:44.000Z</time>
      </trkpt>
      <trkpt lat="44.10405" lon="6.70714">
        <ele>2234.3999023438</ele>
        <time>2022-07-09T11:13:45.000Z</time>
      </trkpt>
      <trkpt lat="44.10405" lon="6.70715">
        <ele>2234.1999511719</ele>
        <time>2022-07-09T11:13:57.000Z</time>
      </trkpt>
      <trkpt lat="44.10405" lon="6.70715">
        <ele>2234.1999511719</ele>
        <time>2022-07-09T11:14:06.000Z</time>
      </trkpt>
      <trkpt lat="44.10405" lon="6.70716">
        <ele>2234.1999511719</ele>
        <time>2022-07-09T11:14:12.000Z</time>
      </trkpt>
      <trkpt lat="44.10405" lon="6.70716">
        <ele>2234</ele>
        <time>2022-07-09T11:14:49.000Z</time>
      </trkpt>
      <trkpt lat="44.10406" lon="6.70716">
        <ele>2234.1999511719</ele>
        <time>2022-07-09T11:14:55.000Z</time>
      </trkpt>
      <trkpt lat="44.10405" lon="6.70716">
        <ele>2234.3999023438</ele>
        <time>2022-07-09T11:15:03.000Z</time>
      </trkpt>
      <trkpt lat="44.10405" lon="6.70716">
        <ele>2234.3999023438</ele>
        <time>2022-07-09T11:15:15.000Z</time>
      </trkpt>
      <trkpt lat="44.10405" lon="6.70716">
        <ele>2234.8000488281</ele>
        <time>2022-07-09T11:15:29.000Z</time>
      </trkpt>
      <trkpt lat="44.10406" lon="6.70716">
        <ele>2234.1999511719</ele>
        <time>2022-07-09T11:15:48.000Z</time>
      </trkpt>
      <trkpt lat="44.10406" lon="6.70716">
        <ele>2234.3999023438</ele>
        <time>2022-07-09T11:16:00.000Z</time>
      </trkpt>
      <trkpt lat="44.10406" lon="6.70716">
        <ele>2234.1999511719</ele>
        <time>2022-07-09T11:16:11.000Z</time>
      </trkpt>
      <trkpt lat="44.10406" lon="6.70716">
        <ele>2234.1999511719</ele>
        <time>2022-07-09T11:16:24.000Z</time>
      </trkpt>
      <trkpt lat="44.10406" lon="6.70716">
        <ele>2234.3999023438</ele>
        <time>2022-07-09T11:16:31.000Z</time>
      </trkpt>
      <trkpt lat="44.10406" lon="6.70716">
        <ele>2234.3999023438</ele>
        <time>2022-07-09T11:16:44.000Z</time>
      </trkpt>
      <trkpt lat="44.10406" lon="6.70717">
        <ele>2234.3999023438</ele>
        <time>2022-07-09T11:16:56.000Z</time>
      </trkpt>
      <trkpt lat="44.10406" lon="6.70717">
        <ele>2234</ele>
        <time>2022-07-09T11:17:05.000Z</time>
      </trkpt>
      <trkpt lat="44.10406" lon="6.70716">
        <ele>2234.3999023438</ele>
        <time>2022-07-09T11:17:26.000Z</time>
      </trkpt>
      <trkpt lat="44.10406" lon="6.70716">
        <ele>2234.3999023438</ele>
        <time>2022-07-09T11:17:33.000Z</time>
      </trkpt>
      <trkpt lat="44.10407" lon="6.70717">
        <ele>2234.6000976562</ele>
        <time>2022-07-09T11:17:34.000Z</time>
      </trkpt>
      <trkpt lat="44.10407" lon="6.70717">
        <ele>2234.3999023438</ele>
        <time>2022-07-09T11:17:37.000Z</time>
      </trkpt>
      <trkpt lat="44.10407" lon="6.70716">
        <ele>2234</ele>
        <time>2022-07-09T11:18:01.000Z</time>
      </trkpt>
      <trkpt lat="44.10407" lon="6.70715">
        <ele>2234</ele>
        <time>2022-07-09T11:18:28.000Z</time>
      </trkpt>
      <trkpt lat="44.10407" lon="6.70714">
        <ele>2234.1999511719</ele>
        <time>2022-07-09T11:18:43.000Z</time>
      </trkpt>
      <trkpt lat="44.10407" lon="6.70715">
        <ele>2234.3999023438</ele>
        <time>2022-07-09T11:18:55.000Z</time>
      </trkpt>
      <trkpt lat="44.10407" lon="6.70715">
        <ele>2233.8000488281</ele>
        <time>2022-07-09T11:19:04.000Z</time>
      </trkpt>
      <trkpt lat="44.10407" lon="6.70715">
        <ele>2233.8000488281</ele>
        <time>2022-07-09T11:19:12.000Z</time>
      </trkpt>
      <trkpt lat="44.10407" lon="6.70714">
        <ele>2233.6000976562</ele>
        <time>2022-07-09T11:19:26.000Z</time>
      </trkpt>
      <trkpt lat="44.10407" lon="6.70714">
        <ele>2233.8000488281</ele>
        <time>2022-07-09T11:19:32.000Z</time>
      </trkpt>
      <trkpt lat="44.10407" lon="6.70715">
        <ele>2234.3999023438</ele>
        <time>2022-07-09T11:19:45.000Z</time>
      </trkpt>
      <trkpt lat="44.10407" lon="6.70714">
        <ele>2234</ele>
        <time>2022-07-09T11:19:56.000Z</time>
      </trkpt>
      <trkpt lat="44.10407" lon="6.70715">
        <ele>2234.6000976562</ele>
        <time>2022-07-09T11:20:04.000Z</time>
      </trkpt>
      <trkpt lat="44.10406" lon="6.70715">
        <ele>2234.6000976562</ele>
        <time>2022-07-09T11:20:11.000Z</time>
      </trkpt>
      <trkpt lat="44.10406" lon="6.70715">
        <ele>2234.8000488281</ele>
        <time>2022-07-09T11:20:12.000Z</time>
      </trkpt>
      <trkpt lat="44.10407" lon="6.70716">
        <ele>2234</ele>
        <time>2022-07-09T11:20:19.000Z</time>
      </trkpt>
      <trkpt lat="44.10407" lon="6.70716">
        <ele>2234</ele>
        <time>2022-07-09T11:20:25.000Z</time>
      </trkpt>
      <trkpt lat="44.10409" lon="6.70717">
        <ele>2233.8000488281</ele>
        <time>2022-07-09T11:20:32.000Z</time>
      </trkpt>
      <trkpt lat="44.1041" lon="6.70718">
        <ele>2233.8000488281</ele>
        <time>2022-07-09T11:20:33.000Z</time>
      </trkpt>
      <trkpt lat="44.10409" lon="6.70718">
        <ele>2234.8000488281</ele>
        <time>2022-07-09T11:20:38.000Z</time>
      </trkpt>
      <trkpt lat="44.10409" lon="6.70718">
        <ele>2234.3999023438</ele>
        <time>2022-07-09T11:20:46.000Z</time>
      </trkpt>
      <trkpt lat="44.10409" lon="6.70718">
        <ele>2234.1999511719</ele>
        <time>2022-07-09T11:20:54.000Z</time>
      </trkpt>
      <trkpt lat="44.10409" lon="6.70718">
        <ele>2234.6000976562</ele>
        <time>2022-07-09T11:21:03.000Z</time>
      </trkpt>
      <trkpt lat="44.10409" lon="6.70717">
        <ele>2233.8000488281</ele>
        <time>2022-07-09T11:21:09.000Z</time>
      </trkpt>
      <trkpt lat="44.10411" lon="6.70716">
        <ele>2234</ele>
        <time>2022-07-09T11:21:16.000Z</time>
      </trkpt>
      <trkpt lat="44.10411" lon="6.70716">
        <ele>2233.8000488281</ele>
        <time>2022-07-09T11:21:20.000Z</time>
      </trkpt>
      <trkpt lat="44.10411" lon="6.70716">
        <ele>2234.1999511719</ele>
        <time>2022-07-09T11:21:25.000Z</time>
      </trkpt>
      <trkpt lat="44.10411" lon="6.70715">
        <ele>2233.8000488281</ele>
        <time>2022-07-09T11:21:33.000Z</time>
      </trkpt>
      <trkpt lat="44.10416" lon="6.70709">
        <ele>2234</ele>
        <time>2022-07-09T11:21:39.000Z</time>
      </trkpt>
      <trkpt lat="44.10422" lon="6.7071">
        <ele>2234</ele>
        <time>2022-07-09T11:21:43.000Z</time>
      </trkpt>
      <trkpt lat="44.10424" lon="6.70709">
        <ele>2234.1999511719</ele>
        <time>2022-07-09T11:21:44.000Z</time>
      </trkpt>
      <trkpt lat="44.10437" lon="6.70704">
        <ele>2234.1999511719</ele>
        <time>2022-07-09T11:21:51.000Z</time>
      </trkpt>
      <trkpt lat="44.10452" lon="6.707">
        <ele>2234</ele>
        <time>2022-07-09T11:21:59.000Z</time>
      </trkpt>
      <trkpt lat="44.10459" lon="6.70693">
        <ele>2233.8000488281</ele>
        <time>2022-07-09T11:22:04.000Z</time>
      </trkpt>
      <trkpt lat="44.10467" lon="6.70681">
        <ele>2234</ele>
        <time>2022-07-09T11:22:11.000Z</time>
      </trkpt>
      <trkpt lat="44.10476" lon="6.70675">
        <ele>2234.1999511719</ele>
        <time>2022-07-09T11:22:17.000Z</time>
      </trkpt>
      <trkpt lat="44.10479" lon="6.70672">
        <ele>2234.3999023438</ele>
        <time>2022-07-09T11:22:19.000Z</time>
      </trkpt>
      <trkpt lat="44.10483" lon="6.70666">
        <ele>2233.8000488281</ele>
        <time>2022-07-09T11:22:22.000Z</time>
      </trkpt>
      <trkpt lat="44.10485" lon="6.70665">
        <ele>2233.8000488281</ele>
        <time>2022-07-09T11:22:23.000Z</time>
      </trkpt>
      <trkpt lat="44.10495" lon="6.70653">
        <ele>2233.6000976562</ele>
        <time>2022-07-09T11:22:30.000Z</time>
      </trkpt>
      <trkpt lat="44.10498" lon="6.7065">
        <ele>2233.6000976562</ele>
        <time>2022-07-09T11:22:33.000Z</time>
      </trkpt>
      <trkpt lat="44.10499" lon="6.70645">
        <ele>2233.8000488281</ele>
        <time>2022-07-09T11:22:35.000Z</time>
      </trkpt>
      <trkpt lat="44.10497" lon="6.70632">
        <ele>2233.3999023438</ele>
        <time>2022-07-09T11:22:40.000Z</time>
      </trkpt>
      <trkpt lat="44.10497" lon="6.70618">
        <ele>2233.3999023438</ele>
        <time>2022-07-09T11:22:46.000Z</time>
      </trkpt>
      <trkpt lat="44.10495" lon="6.70605">
        <ele>2233.6000976562</ele>
        <time>2022-07-09T11:22:52.000Z</time>
      </trkpt>
      <trkpt lat="44.10496" lon="6.70587">
        <ele>2234.8000488281</ele>
        <time>2022-07-09T11:23:00.000Z</time>
      </trkpt>
      <trkpt lat="44.10495" lon="6.70575">
        <ele>2235.6000976562</ele>
        <time>2022-07-09T11:23:07.000Z</time>
      </trkpt>
      <trkpt lat="44.10494" lon="6.70573">
        <ele>2236</ele>
        <time>2022-07-09T11:23:08.000Z</time>
      </trkpt>
      <trkpt lat="44.10486" lon="6.7056">
        <ele>2236.1999511719</ele>
        <time>2022-07-09T11:23:15.000Z</time>
      </trkpt>
      <trkpt lat="44.1048" lon="6.70554">
        <ele>2236.1999511719</ele>
        <time>2022-07-09T11:23:20.000Z</time>
      </trkpt>
      <trkpt lat="44.10474" lon="6.7055">
        <ele>2236.8000488281</ele>
        <time>2022-07-09T11:23:24.000Z</time>
      </trkpt>
      <trkpt lat="44.10474" lon="6.70548">
        <ele>2237.1999511719</ele>
        <time>2022-07-09T11:23:25.000Z</time>
      </trkpt>
      <trkpt lat="44.10474" lon="6.70546">
        <ele>2237.3999023438</ele>
        <time>2022-07-09T11:23:26.000Z</time>
      </trkpt>
      <trkpt lat="44.10473" lon="6.70543">
        <ele>2238.1999511719</ele>
        <time>2022-07-09T11:23:28.000Z</time>
      </trkpt>
      <trkpt lat="44.10472" lon="6.70542">
        <ele>2238.3999023438</ele>
        <time>2022-07-09T11:23:29.000Z</time>
      </trkpt>
      <trkpt lat="44.10471" lon="6.70535">
        <ele>2239.1999511719</ele>
        <time>2022-07-09T11:23:33.000Z</time>
      </trkpt>
      <trkpt lat="44.10468" lon="6.70527">
        <ele>2239.3999023438</ele>
        <time>2022-07-09T11:23:38.000Z</time>
      </trkpt>
      <trkpt lat="44.10467" lon="6.70524">
        <ele>2239.8000488281</ele>
        <time>2022-07-09T11:23:40.000Z</time>
      </trkpt>
      <trkpt lat="44.10463" lon="6.70512">
        <ele>2240.1999511719</ele>
        <time>2022-07-09T11:23:46.000Z</time>
      </trkpt>
      <trkpt lat="44.1046" lon="6.70504">
        <ele>2240.6000976562</ele>
        <time>2022-07-09T11:23:51.000Z</time>
      </trkpt>
      <trkpt lat="44.10459" lon="6.70502">
        <ele>2240.8000488281</ele>
        <time>2022-07-09T11:23:53.000Z</time>
      </trkpt>
      <trkpt lat="44.10456" lon="6.70502">
        <ele>2241.8000488281</ele>
        <time>2022-07-09T11:23:56.000Z</time>
      </trkpt>
      <trkpt lat="44.10454" lon="6.70501">
        <ele>2242</ele>
        <time>2022-07-09T11:23:58.000Z</time>
      </trkpt>
      <trkpt lat="44.10454" lon="6.70498">
        <ele>2242.6000976562</ele>
        <time>2022-07-09T11:24:00.000Z</time>
      </trkpt>
      <trkpt lat="44.10454" lon="6.70496">
        <ele>2243</ele>
        <time>2022-07-09T11:24:02.000Z</time>
      </trkpt>
      <trkpt lat="44.10451" lon="6.70488">
        <ele>2243.6000976562</ele>
        <time>2022-07-09T11:24:09.000Z</time>
      </trkpt>
      <trkpt lat="44.1045" lon="6.70486">
        <ele>2244</ele>
        <time>2022-07-09T11:24:11.000Z</time>
      </trkpt>
      <trkpt lat="44.10446" lon="6.70479">
        <ele>2244.1999511719</ele>
        <time>2022-07-09T11:24:16.000Z</time>
      </trkpt>
      <trkpt lat="44.10446" lon="6.70477">
        <ele>2244.3999023438</ele>
        <time>2022-07-09T11:24:17.000Z</time>
      </trkpt>
      <trkpt lat="44.10446" lon="6.70473">
        <ele>2245</ele>
        <time>2022-07-09T11:24:20.000Z</time>
      </trkpt>
      <trkpt lat="44.10445" lon="6.70471">
        <ele>2245.1999511719</ele>
        <time>2022-07-09T11:24:21.000Z</time>
      </trkpt>
      <trkpt lat="44.10447" lon="6.70463">
        <ele>2246</ele>
        <time>2022-07-09T11:24:27.000Z</time>
      </trkpt>
      <trkpt lat="44.10447" lon="6.70462">
        <ele>2246.3999023438</ele>
        <time>2022-07-09T11:24:28.000Z</time>
      </trkpt>
      <trkpt lat="44.10449" lon="6.70454">
        <ele>2246.8000488281</ele>
        <time>2022-07-09T11:24:34.000Z</time>
      </trkpt>
      <trkpt lat="44.10452" lon="6.70442">
        <ele>2247</ele>
        <time>2022-07-09T11:24:42.000Z</time>
      </trkpt>
      <trkpt lat="44.10453" lon="6.70435">
        <ele>2247.3999023438</ele>
        <time>2022-07-09T11:24:46.000Z</time>
      </trkpt>
      <trkpt lat="44.10455" lon="6.70433">
        <ele>2247.8000488281</ele>
        <time>2022-07-09T11:24:48.000Z</time>
      </trkpt>
      <trkpt lat="44.10466" lon="6.70423">
        <ele>2248</ele>
        <time>2022-07-09T11:24:56.000Z</time>
      </trkpt>
      <trkpt lat="44.10474" lon="6.70417">
        <ele>2248.6000976562</ele>
        <time>2022-07-09T11:25:01.000Z</time>
      </trkpt>
      <trkpt lat="44.10478" lon="6.70414">
        <ele>2248.8000488281</ele>
        <time>2022-07-09T11:25:03.000Z</time>
      </trkpt>
      <trkpt lat="44.1049" lon="6.70407">
        <ele>2248.6000976562</ele>
        <time>2022-07-09T11:25:09.000Z</time>
      </trkpt>
      <trkpt lat="44.10506" lon="6.70397">
        <ele>2248.3999023438</ele>
        <time>2022-07-09T11:25:14.000Z</time>
      </trkpt>
      <trkpt lat="44.1052" lon="6.70385">
        <ele>2247.8000488281</ele>
        <time>2022-07-09T11:25:20.000Z</time>
      </trkpt>
      <trkpt lat="44.10543" lon="6.70364">
        <ele>2248</ele>
        <time>2022-07-09T11:25:29.000Z</time>
      </trkpt>
      <trkpt lat="44.10555" lon="6.70351">
        <ele>2247.3999023438</ele>
        <time>2022-07-09T11:25:33.000Z</time>
      </trkpt>
      <trkpt lat="44.10564" lon="6.70342">
        <ele>2246.8000488281</ele>
        <time>2022-07-09T11:25:36.000Z</time>
      </trkpt>
      <trkpt lat="44.10584" lon="6.70319">
        <ele>2246.1999511719</ele>
        <time>2022-07-09T11:25:43.000Z</time>
      </trkpt>
      <trkpt lat="44.10598" lon="6.70294">
        <ele>2246.3999023438</ele>
        <time>2022-07-09T11:25:49.000Z</time>
      </trkpt>
      <trkpt lat="44.10597" lon="6.70274">
        <ele>2245.1999511719</ele>
        <time>2022-07-09T11:25:52.000Z</time>
      </trkpt>
      <trkpt lat="44.10597" lon="6.70268">
        <ele>2245</ele>
        <time>2022-07-09T11:25:53.000Z</time>
      </trkpt>
      <trkpt lat="44.10596" lon="6.70254">
        <ele>2244.3999023438</ele>
        <time>2022-07-09T11:25:55.000Z</time>
      </trkpt>
      <trkpt lat="44.10594" lon="6.70248">
        <ele>2243.6000976562</ele>
        <time>2022-07-09T11:25:56.000Z</time>
      </trkpt>
      <trkpt lat="44.10591" lon="6.70243">
        <ele>2243.6000976562</ele>
        <time>2022-07-09T11:25:57.000Z</time>
      </trkpt>
      <trkpt lat="44.10584" lon="6.70239">
        <ele>2242.8000488281</ele>
        <time>2022-07-09T11:26:00.000Z</time>
      </trkpt>
      <trkpt lat="44.10581" lon="6.70239">
        <ele>2242.8000488281</ele>
        <time>2022-07-09T11:26:01.000Z</time>
      </trkpt>
      <trkpt lat="44.10566" lon="6.70237">
        <ele>2244.1999511719</ele>
        <time>2022-07-09T11:26:07.000Z</time>
      </trkpt>
      <trkpt lat="44.10547" lon="6.70235">
        <ele>2244</ele>
        <time>2022-07-09T11:26:13.000Z</time>
      </trkpt>
      <trkpt lat="44.10523" lon="6.70242">
        <ele>2243.6000976562</ele>
        <time>2022-07-09T11:26:20.000Z</time>
      </trkpt>
      <trkpt lat="44.10517" lon="6.70241">
        <ele>2243.3999023438</ele>
        <time>2022-07-09T11:26:22.000Z</time>
      </trkpt>
      <trkpt lat="44.10513" lon="6.70237">
        <ele>2243.6000976562</ele>
        <time>2022-07-09T11:26:24.000Z</time>
      </trkpt>
      <trkpt lat="44.10506" lon="6.70228">
        <ele>2243.3999023438</ele>
        <time>2022-07-09T11:26:29.000Z</time>
      </trkpt>
      <trkpt lat="44.10505" lon="6.70224">
        <ele>2243.6000976562</ele>
        <time>2022-07-09T11:26:30.000Z</time>
      </trkpt>
      <trkpt lat="44.10497" lon="6.70208">
        <ele>2242.6000976562</ele>
        <time>2022-07-09T11:26:34.000Z</time>
      </trkpt>
      <trkpt lat="44.10493" lon="6.70199">
        <ele>2242</ele>
        <time>2022-07-09T11:26:36.000Z</time>
      </trkpt>
      <trkpt lat="44.1049" lon="6.7019">
        <ele>2241.6000976562</ele>
        <time>2022-07-09T11:26:38.000Z</time>
      </trkpt>
      <trkpt lat="44.10485" lon="6.70166">
        <ele>2241.3999023438</ele>
        <time>2022-07-09T11:26:43.000Z</time>
      </trkpt>
      <trkpt lat="44.10484" lon="6.70127">
        <ele>2241.6000976562</ele>
        <time>2022-07-09T11:26:51.000Z</time>
      </trkpt>
      <trkpt lat="44.10489" lon="6.70103">
        <ele>2242</ele>
        <time>2022-07-09T11:26:57.000Z</time>
      </trkpt>
      <trkpt lat="44.10492" lon="6.70094">
        <ele>2242.6000976562</ele>
        <time>2022-07-09T11:27:00.000Z</time>
      </trkpt>
      <trkpt lat="44.10495" lon="6.7008">
        <ele>2243.8000488281</ele>
        <time>2022-07-09T11:27:05.000Z</time>
      </trkpt>
      <trkpt lat="44.10496" lon="6.70077">
        <ele>2244</ele>
        <time>2022-07-09T11:27:06.000Z</time>
      </trkpt>
      <trkpt lat="44.10497" lon="6.70062">
        <ele>2244.8000488281</ele>
        <time>2022-07-09T11:27:12.000Z</time>
      </trkpt>
      <trkpt lat="44.10498" lon="6.70059">
        <ele>2244.8000488281</ele>
        <time>2022-07-09T11:27:13.000Z</time>
      </trkpt>
      <trkpt lat="44.105" lon="6.7004">
        <ele>2244.1999511719</ele>
        <time>2022-07-09T11:27:19.000Z</time>
      </trkpt>
      <trkpt lat="44.10507" lon="6.70019">
        <ele>2244.8000488281</ele>
        <time>2022-07-09T11:27:27.000Z</time>
      </trkpt>
      <trkpt lat="44.10513" lon="6.70003">
        <ele>2245</ele>
        <time>2022-07-09T11:27:34.000Z</time>
      </trkpt>
      <trkpt lat="44.10523" lon="6.69996">
        <ele>2245.8000488281</ele>
        <time>2022-07-09T11:27:40.000Z</time>
      </trkpt>
      <trkpt lat="44.10524" lon="6.69993">
        <ele>2246</ele>
        <time>2022-07-09T11:27:41.000Z</time>
      </trkpt>
      <trkpt lat="44.10529" lon="6.69985">
        <ele>2246</ele>
        <time>2022-07-09T11:27:45.000Z</time>
      </trkpt>
      <trkpt lat="44.10542" lon="6.69979">
        <ele>2246</ele>
        <time>2022-07-09T11:27:51.000Z</time>
      </trkpt>
      <trkpt lat="44.10554" lon="6.69975">
        <ele>2246.3999023438</ele>
        <time>2022-07-09T11:27:57.000Z</time>
      </trkpt>
      <trkpt lat="44.10563" lon="6.69962">
        <ele>2246.8000488281</ele>
        <time>2022-07-09T11:28:04.000Z</time>
      </trkpt>
      <trkpt lat="44.10567" lon="6.69959">
        <ele>2246.8000488281</ele>
        <time>2022-07-09T11:28:08.000Z</time>
      </trkpt>
      <trkpt lat="44.10569" lon="6.6996">
        <ele>2246.8000488281</ele>
        <time>2022-07-09T11:28:09.000Z</time>
      </trkpt>
      <trkpt lat="44.10571" lon="6.69966">
        <ele>2246.1999511719</ele>
        <time>2022-07-09T11:28:12.000Z</time>
      </trkpt>
      <trkpt lat="44.10571" lon="6.69967">
        <ele>2246</ele>
        <time>2022-07-09T11:28:13.000Z</time>
      </trkpt>
      <trkpt lat="44.10574" lon="6.69975">
        <ele>2246.3999023438</ele>
        <time>2022-07-09T11:28:17.000Z</time>
      </trkpt>
      <trkpt lat="44.10578" lon="6.69979">
        <ele>2247</ele>
        <time>2022-07-09T11:28:20.000Z</time>
      </trkpt>
      <trkpt lat="44.10584" lon="6.69983">
        <ele>2247.1999511719</ele>
        <time>2022-07-09T11:28:23.000Z</time>
      </trkpt>
      <trkpt lat="44.10598" lon="6.69983">
        <ele>2247.1999511719</ele>
        <time>2022-07-09T11:28:29.000Z</time>
      </trkpt>
      <trkpt lat="44.10608" lon="6.69982">
        <ele>2247.3999023438</ele>
        <time>2022-07-09T11:28:34.000Z</time>
      </trkpt>
      <trkpt lat="44.1061" lon="6.69981">
        <ele>2247.3999023438</ele>
        <time>2022-07-09T11:28:35.000Z</time>
      </trkpt>
      <trkpt lat="44.10611" lon="6.69978">
        <ele>2247.1999511719</ele>
        <time>2022-07-09T11:28:38.000Z</time>
      </trkpt>
      <trkpt lat="44.10613" lon="6.69977">
        <ele>2246.6000976562</ele>
        <time>2022-07-09T11:28:43.000Z</time>
      </trkpt>
      <trkpt lat="44.10614" lon="6.69977">
        <ele>2246.6000976562</ele>
        <time>2022-07-09T11:28:44.000Z</time>
      </trkpt>
      <trkpt lat="44.10618" lon="6.69977">
        <ele>2247.3999023438</ele>
        <time>2022-07-09T11:28:51.000Z</time>
      </trkpt>
      <trkpt lat="44.10619" lon="6.69978">
        <ele>2247.6000976562</ele>
        <time>2022-07-09T11:28:52.000Z</time>
      </trkpt>
      <trkpt lat="44.10622" lon="6.69981">
        <ele>2247.8000488281</ele>
        <time>2022-07-09T11:28:56.000Z</time>
      </trkpt>
      <trkpt lat="44.10623" lon="6.69981">
        <ele>2248</ele>
        <time>2022-07-09T11:28:59.000Z</time>
      </trkpt>
      <trkpt lat="44.10624" lon="6.69981">
        <ele>2248</ele>
        <time>2022-07-09T11:29:02.000Z</time>
      </trkpt>
      <trkpt lat="44.10632" lon="6.69983">
        <ele>2248</ele>
        <time>2022-07-09T11:29:06.000Z</time>
      </trkpt>
      <trkpt lat="44.10639" lon="6.69986">
        <ele>2247.8000488281</ele>
        <time>2022-07-09T11:29:10.000Z</time>
      </trkpt>
      <trkpt lat="44.10647" lon="6.6999">
        <ele>2247.6000976562</ele>
        <time>2022-07-09T11:29:14.000Z</time>
      </trkpt>
      <trkpt lat="44.10656" lon="6.69986">
        <ele>2248</ele>
        <time>2022-07-09T11:29:19.000Z</time>
      </trkpt>
      <trkpt lat="44.10662" lon="6.69982">
        <ele>2247.6000976562</ele>
        <time>2022-07-09T11:29:23.000Z</time>
      </trkpt>
      <trkpt lat="44.10665" lon="6.69982">
        <ele>2247.1999511719</ele>
        <time>2022-07-09T11:29:27.000Z</time>
      </trkpt>
      <trkpt lat="44.10665" lon="6.69983">
        <ele>2247.1999511719</ele>
        <time>2022-07-09T11:29:28.000Z</time>
      </trkpt>
      <trkpt lat="44.10671" lon="6.69982">
        <ele>2247.6000976562</ele>
        <time>2022-07-09T11:29:34.000Z</time>
      </trkpt>
      <trkpt lat="44.10672" lon="6.69982">
        <ele>2247.6000976562</ele>
        <time>2022-07-09T11:29:35.000Z</time>
      </trkpt>
      <trkpt lat="44.1068" lon="6.69979">
        <ele>2247.8000488281</ele>
        <time>2022-07-09T11:29:39.000Z</time>
      </trkpt>
      <trkpt lat="44.10681" lon="6.69978">
        <ele>2248</ele>
        <time>2022-07-09T11:29:40.000Z</time>
      </trkpt>
      <trkpt lat="44.10684" lon="6.69976">
        <ele>2248.1999511719</ele>
        <time>2022-07-09T11:29:42.000Z</time>
      </trkpt>
      <trkpt lat="44.10687" lon="6.69972">
        <ele>2248.3999023438</ele>
        <time>2022-07-09T11:29:44.000Z</time>
      </trkpt>
      <trkpt lat="44.10692" lon="6.69973">
        <ele>2248.6000976562</ele>
        <time>2022-07-09T11:29:47.000Z</time>
      </trkpt>
      <trkpt lat="44.107" lon="6.69974">
        <ele>2249</ele>
        <time>2022-07-09T11:29:51.000Z</time>
      </trkpt>
      <trkpt lat="44.10701" lon="6.69974">
        <ele>2249.3999023438</ele>
        <time>2022-07-09T11:29:52.000Z</time>
      </trkpt>
      <trkpt lat="44.10708" lon="6.6997">
        <ele>2250.1999511719</ele>
        <time>2022-07-09T11:29:56.000Z</time>
      </trkpt>
      <trkpt lat="44.10711" lon="6.69967">
        <ele>2250.6000976562</ele>
        <time>2022-07-09T11:29:58.000Z</time>
      </trkpt>
      <trkpt lat="44.10726" lon="6.69957">
        <ele>2251</ele>
        <time>2022-07-09T11:30:05.000Z</time>
      </trkpt>
      <trkpt lat="44.10732" lon="6.69951">
        <ele>2251.1999511719</ele>
        <time>2022-07-09T11:30:08.000Z</time>
      </trkpt>
      <trkpt lat="44.1074" lon="6.69942">
        <ele>2251.6000976562</ele>
        <time>2022-07-09T11:30:13.000Z</time>
      </trkpt>
      <trkpt lat="44.10745" lon="6.69937">
        <ele>2252.3999023438</ele>
        <time>2022-07-09T11:30:17.000Z</time>
      </trkpt>
      <trkpt lat="44.10747" lon="6.69935">
        <ele>2252.6000976562</ele>
        <time>2022-07-09T11:30:18.000Z</time>
      </trkpt>
      <trkpt lat="44.10754" lon="6.69926">
        <ele>2253.3999023438</ele>
        <time>2022-07-09T11:30:25.000Z</time>
      </trkpt>
      <trkpt lat="44.10755" lon="6.69926">
        <ele>2253.6000976562</ele>
        <time>2022-07-09T11:30:26.000Z</time>
      </trkpt>
      <trkpt lat="44.10765" lon="6.69924">
        <ele>2254</ele>
        <time>2022-07-09T11:30:31.000Z</time>
      </trkpt>
      <trkpt lat="44.1078" lon="6.69916">
        <ele>2254.3999023438</ele>
        <time>2022-07-09T11:30:39.000Z</time>
      </trkpt>
      <trkpt lat="44.10796" lon="6.699">
        <ele>2254</ele>
        <time>2022-07-09T11:30:47.000Z</time>
      </trkpt>
      <trkpt lat="44.10806" lon="6.69887">
        <ele>2254</ele>
        <time>2022-07-09T11:30:52.000Z</time>
      </trkpt>
      <trkpt lat="44.10813" lon="6.69871">
        <ele>2254.1999511719</ele>
        <time>2022-07-09T11:30:58.000Z</time>
      </trkpt>
      <trkpt lat="44.10814" lon="6.69869">
        <ele>2254.8000488281</ele>
        <time>2022-07-09T11:31:00.000Z</time>
      </trkpt>
      <trkpt lat="44.10814" lon="6.69865">
        <ele>2255.3999023438</ele>
        <time>2022-07-09T11:31:03.000Z</time>
      </trkpt>
      <trkpt lat="44.10815" lon="6.6986">
        <ele>2255.8000488281</ele>
        <time>2022-07-09T11:31:06.000Z</time>
      </trkpt>
      <trkpt lat="44.10815" lon="6.69853">
        <ele>2256.1999511719</ele>
        <time>2022-07-09T11:31:10.000Z</time>
      </trkpt>
      <trkpt lat="44.10816" lon="6.69849">
        <ele>2256.8000488281</ele>
        <time>2022-07-09T11:31:13.000Z</time>
      </trkpt>
      <trkpt lat="44.10818" lon="6.69843">
        <ele>2258</ele>
        <time>2022-07-09T11:31:17.000Z</time>
      </trkpt>
      <trkpt lat="44.10828" lon="6.69831">
        <ele>2258.3999023438</ele>
        <time>2022-07-09T11:31:24.000Z</time>
      </trkpt>
      <trkpt lat="44.10839" lon="6.69815">
        <ele>2258.1999511719</ele>
        <time>2022-07-09T11:31:30.000Z</time>
      </trkpt>
      <trkpt lat="44.1085" lon="6.6979">
        <ele>2257.8000488281</ele>
        <time>2022-07-09T11:31:37.000Z</time>
      </trkpt>
      <trkpt lat="44.10853" lon="6.69771">
        <ele>2257.1999511719</ele>
        <time>2022-07-09T11:31:42.000Z</time>
      </trkpt>
      <trkpt lat="44.10857" lon="6.69751">
        <ele>2258.6000976562</ele>
        <time>2022-07-09T11:31:49.000Z</time>
      </trkpt>
      <trkpt lat="44.10862" lon="6.69731">
        <ele>2258</ele>
        <time>2022-07-09T11:31:54.000Z</time>
      </trkpt>
      <trkpt lat="44.10867" lon="6.69707">
        <ele>2257.3999023438</ele>
        <time>2022-07-09T11:32:01.000Z</time>
      </trkpt>
      <trkpt lat="44.10868" lon="6.69687">
        <ele>2258.1999511719</ele>
        <time>2022-07-09T11:32:08.000Z</time>
      </trkpt>
      <trkpt lat="44.10871" lon="6.6967">
        <ele>2259</ele>
        <time>2022-07-09T11:32:14.000Z</time>
      </trkpt>
      <trkpt lat="44.1087" lon="6.69653">
        <ele>2259.3999023438</ele>
        <time>2022-07-09T11:32:20.000Z</time>
      </trkpt>
      <trkpt lat="44.10865" lon="6.69639">
        <ele>2259.8000488281</ele>
        <time>2022-07-09T11:32:26.000Z</time>
      </trkpt>
      <trkpt lat="44.10856" lon="6.69637">
        <ele>2260.1999511719</ele>
        <time>2022-07-09T11:32:30.000Z</time>
      </trkpt>
      <trkpt lat="44.10849" lon="6.69635">
        <ele>2260.1999511719</ele>
        <time>2022-07-09T11:32:33.000Z</time>
      </trkpt>
      <trkpt lat="44.10834" lon="6.69624">
        <ele>2260</ele>
        <time>2022-07-09T11:32:40.000Z</time>
      </trkpt>
      <trkpt lat="44.10822" lon="6.69615">
        <ele>2260.3999023438</ele>
        <time>2022-07-09T11:32:46.000Z</time>
      </trkpt>
      <trkpt lat="44.1081" lon="6.69597">
        <ele>2261</ele>
        <time>2022-07-09T11:32:54.000Z</time>
      </trkpt>
      <trkpt lat="44.10804" lon="6.6959">
        <ele>2261.1999511719</ele>
        <time>2022-07-09T11:32:58.000Z</time>
      </trkpt>
      <trkpt lat="44.10798" lon="6.69587">
        <ele>2261.6000976562</ele>
        <time>2022-07-09T11:33:01.000Z</time>
      </trkpt>
      <trkpt lat="44.10784" lon="6.6959">
        <ele>2261.6000976562</ele>
        <time>2022-07-09T11:33:07.000Z</time>
      </trkpt>
      <trkpt lat="44.10772" lon="6.69599">
        <ele>2261.6000976562</ele>
        <time>2022-07-09T11:33:12.000Z</time>
      </trkpt>
      <trkpt lat="44.10763" lon="6.69599">
        <ele>2261.8000488281</ele>
        <time>2022-07-09T11:33:16.000Z</time>
      </trkpt>
      <trkpt lat="44.10762" lon="6.69598">
        <ele>2261.8000488281</ele>
        <time>2022-07-09T11:33:17.000Z</time>
      </trkpt>
      <trkpt lat="44.10751" lon="6.69584">
        <ele>2262</ele>
        <time>2022-07-09T11:33:22.000Z</time>
      </trkpt>
      <trkpt lat="44.10749" lon="6.69569">
        <ele>2261.8000488281</ele>
        <time>2022-07-09T11:33:26.000Z</time>
      </trkpt>
      <trkpt lat="44.10741" lon="6.69546">
        <ele>2262</ele>
        <time>2022-07-09T11:33:33.000Z</time>
      </trkpt>
      <trkpt lat="44.10734" lon="6.69539">
        <ele>2262.1999511719</ele>
        <time>2022-07-09T11:33:37.000Z</time>
      </trkpt>
      <trkpt lat="44.10732" lon="6.69537">
        <ele>2262.1999511719</ele>
        <time>2022-07-09T11:33:38.000Z</time>
      </trkpt>
      <trkpt lat="44.10718" lon="6.69525">
        <ele>2262.1999511719</ele>
        <time>2022-07-09T11:33:45.000Z</time>
      </trkpt>
      <trkpt lat="44.10701" lon="6.69509">
        <ele>2262.3999023438</ele>
        <time>2022-07-09T11:33:54.000Z</time>
      </trkpt>
      <trkpt lat="44.10693" lon="6.69501">
        <ele>2262.6000976562</ele>
        <time>2022-07-09T11:33:59.000Z</time>
      </trkpt>
      <trkpt lat="44.10685" lon="6.6949">
        <ele>2263.1999511719</ele>
        <time>2022-07-09T11:34:04.000Z</time>
      </trkpt>
      <trkpt lat="44.10679" lon="6.69473">
        <ele>2263.3999023438</ele>
        <time>2022-07-09T11:34:10.000Z</time>
      </trkpt>
      <trkpt lat="44.10671" lon="6.69463">
        <ele>2264.1999511719</ele>
        <time>2022-07-09T11:34:15.000Z</time>
      </trkpt>
      <trkpt lat="44.10671" lon="6.6946">
        <ele>2264.3999023438</ele>
        <time>2022-07-09T11:34:16.000Z</time>
      </trkpt>
      <trkpt lat="44.1067" lon="6.69445">
        <ele>2264.6000976562</ele>
        <time>2022-07-09T11:34:21.000Z</time>
      </trkpt>
      <trkpt lat="44.10664" lon="6.69422">
        <ele>2265.3999023438</ele>
        <time>2022-07-09T11:34:29.000Z</time>
      </trkpt>
      <trkpt lat="44.10664" lon="6.69419">
        <ele>2265.3999023438</ele>
        <time>2022-07-09T11:34:30.000Z</time>
      </trkpt>
      <trkpt lat="44.1066" lon="6.69406">
        <ele>2266</ele>
        <time>2022-07-09T11:34:35.000Z</time>
      </trkpt>
      <trkpt lat="44.10656" lon="6.69384">
        <ele>2266.3999023438</ele>
        <time>2022-07-09T11:34:42.000Z</time>
      </trkpt>
      <trkpt lat="44.10658" lon="6.69362">
        <ele>2266.3999023438</ele>
        <time>2022-07-09T11:34:49.000Z</time>
      </trkpt>
      <trkpt lat="44.10662" lon="6.69356">
        <ele>2266.8000488281</ele>
        <time>2022-07-09T11:34:52.000Z</time>
      </trkpt>
      <trkpt lat="44.10667" lon="6.69349">
        <ele>2267.1999511719</ele>
        <time>2022-07-09T11:34:55.000Z</time>
      </trkpt>
      <trkpt lat="44.10675" lon="6.69331">
        <ele>2267.6000976562</ele>
        <time>2022-07-09T11:35:02.000Z</time>
      </trkpt>
      <trkpt lat="44.10682" lon="6.69306">
        <ele>2267.8000488281</ele>
        <time>2022-07-09T11:35:10.000Z</time>
      </trkpt>
      <trkpt lat="44.10686" lon="6.69283">
        <ele>2267.8000488281</ele>
        <time>2022-07-09T11:35:17.000Z</time>
      </trkpt>
      <trkpt lat="44.10679" lon="6.69265">
        <ele>2268</ele>
        <time>2022-07-09T11:35:23.000Z</time>
      </trkpt>
      <trkpt lat="44.10672" lon="6.6925">
        <ele>2268.3999023438</ele>
        <time>2022-07-09T11:35:29.000Z</time>
      </trkpt>
      <trkpt lat="44.10672" lon="6.69247">
        <ele>2268.1999511719</ele>
        <time>2022-07-09T11:35:30.000Z</time>
      </trkpt>
      <trkpt lat="44.10676" lon="6.6923">
        <ele>2268.8000488281</ele>
        <time>2022-07-09T11:35:35.000Z</time>
      </trkpt>
      <trkpt lat="44.10676" lon="6.69227">
        <ele>2269</ele>
        <time>2022-07-09T11:35:36.000Z</time>
      </trkpt>
      <trkpt lat="44.10671" lon="6.69217">
        <ele>2269</ele>
        <time>2022-07-09T11:35:40.000Z</time>
      </trkpt>
      <trkpt lat="44.10668" lon="6.69206">
        <ele>2268.1999511719</ele>
        <time>2022-07-09T11:35:44.000Z</time>
      </trkpt>
      <trkpt lat="44.10663" lon="6.69198">
        <ele>2269</ele>
        <time>2022-07-09T11:35:48.000Z</time>
      </trkpt>
      <trkpt lat="44.10661" lon="6.69189">
        <ele>2268.8000488281</ele>
        <time>2022-07-09T11:35:51.000Z</time>
      </trkpt>
      <trkpt lat="44.1066" lon="6.69183">
        <ele>2268.8000488281</ele>
        <time>2022-07-09T11:35:53.000Z</time>
      </trkpt>
      <trkpt lat="44.1066" lon="6.69171">
        <ele>2269.3999023438</ele>
        <time>2022-07-09T11:35:58.000Z</time>
      </trkpt>
      <trkpt lat="44.1066" lon="6.69158">
        <ele>2269.3999023438</ele>
        <time>2022-07-09T11:36:04.000Z</time>
      </trkpt>
      <trkpt lat="44.10661" lon="6.69148">
        <ele>2269.3999023438</ele>
        <time>2022-07-09T11:36:09.000Z</time>
      </trkpt>
      <trkpt lat="44.10664" lon="6.69137">
        <ele>2269.8000488281</ele>
        <time>2022-07-09T11:36:15.000Z</time>
      </trkpt>
      <trkpt lat="44.10664" lon="6.69134">
        <ele>2270</ele>
        <time>2022-07-09T11:36:16.000Z</time>
      </trkpt>
      <trkpt lat="44.10664" lon="6.69123">
        <ele>2269.8000488281</ele>
        <time>2022-07-09T11:36:21.000Z</time>
      </trkpt>
      <trkpt lat="44.10664" lon="6.69106">
        <ele>2270.1999511719</ele>
        <time>2022-07-09T11:36:28.000Z</time>
      </trkpt>
      <trkpt lat="44.10664" lon="6.69102">
        <ele>2270.3999023438</ele>
        <time>2022-07-09T11:36:30.000Z</time>
      </trkpt>
      <trkpt lat="44.10663" lon="6.69098">
        <ele>2270.1999511719</ele>
        <time>2022-07-09T11:36:32.000Z</time>
      </trkpt>
      <trkpt lat="44.10667" lon="6.69092">
        <ele>2270.1999511719</ele>
        <time>2022-07-09T11:36:36.000Z</time>
      </trkpt>
      <trkpt lat="44.10668" lon="6.69091">
        <ele>2270.3999023438</ele>
        <time>2022-07-09T11:36:37.000Z</time>
      </trkpt>
      <trkpt lat="44.10673" lon="6.6908">
        <ele>2270.6000976562</ele>
        <time>2022-07-09T11:36:43.000Z</time>
      </trkpt>
      <trkpt lat="44.10676" lon="6.69073">
        <ele>2271</ele>
        <time>2022-07-09T11:36:47.000Z</time>
      </trkpt>
      <trkpt lat="44.10679" lon="6.69065">
        <ele>2271.1999511719</ele>
        <time>2022-07-09T11:36:51.000Z</time>
      </trkpt>
      <trkpt lat="44.10684" lon="6.6905">
        <ele>2271.6000976562</ele>
        <time>2022-07-09T11:36:59.000Z</time>
      </trkpt>
      <trkpt lat="44.10685" lon="6.6904">
        <ele>2272</ele>
        <time>2022-07-09T11:37:04.000Z</time>
      </trkpt>
      <trkpt lat="44.10684" lon="6.69038">
        <ele>2272</ele>
        <time>2022-07-09T11:37:05.000Z</time>
      </trkpt>
      <trkpt lat="44.1068" lon="6.6902">
        <ele>2272.3999023438</ele>
        <time>2022-07-09T11:37:13.000Z</time>
      </trkpt>
      <trkpt lat="44.1068" lon="6.69014">
        <ele>2272.3999023438</ele>
        <time>2022-07-09T11:37:16.000Z</time>
      </trkpt>
      <trkpt lat="44.10679" lon="6.6901">
        <ele>2272.1999511719</ele>
        <time>2022-07-09T11:37:18.000Z</time>
      </trkpt>
      <trkpt lat="44.10678" lon="6.69">
        <ele>2273.1999511719</ele>
        <time>2022-07-09T11:37:23.000Z</time>
      </trkpt>
      <trkpt lat="44.1068" lon="6.68997">
        <ele>2273.8000488281</ele>
        <time>2022-07-09T11:37:25.000Z</time>
      </trkpt>
      <trkpt lat="44.10683" lon="6.68987">
        <ele>2274.1999511719</ele>
        <time>2022-07-09T11:37:31.000Z</time>
      </trkpt>
      <trkpt lat="44.10684" lon="6.68985">
        <ele>2274.3999023438</ele>
        <time>2022-07-09T11:37:32.000Z</time>
      </trkpt>
      <trkpt lat="44.10689" lon="6.68975">
        <ele>2275</ele>
        <time>2022-07-09T11:37:39.000Z</time>
      </trkpt>
      <trkpt lat="44.10692" lon="6.68971">
        <ele>2275.3999023438</ele>
        <time>2022-07-09T11:37:42.000Z</time>
      </trkpt>
      <trkpt lat="44.10696" lon="6.68967">
        <ele>2275.8000488281</ele>
        <time>2022-07-09T11:37:46.000Z</time>
      </trkpt>
      <trkpt lat="44.10702" lon="6.68963">
        <ele>2276.3999023438</ele>
        <time>2022-07-09T11:37:51.000Z</time>
      </trkpt>
      <trkpt lat="44.10703" lon="6.68965">
        <ele>2276.6000976562</ele>
        <time>2022-07-09T11:37:52.000Z</time>
      </trkpt>
      <trkpt lat="44.10709" lon="6.68969">
        <ele>2277.1999511719</ele>
        <time>2022-07-09T11:37:58.000Z</time>
      </trkpt>
      <trkpt lat="44.10708" lon="6.68969">
        <ele>2277.8000488281</ele>
        <time>2022-07-09T11:38:00.000Z</time>
      </trkpt>
      <trkpt lat="44.10709" lon="6.68968">
        <ele>2278</ele>
        <time>2022-07-09T11:38:04.000Z</time>
      </trkpt>
      <trkpt lat="44.1071" lon="6.68967">
        <ele>2277.3999023438</ele>
        <time>2022-07-09T11:38:13.000Z</time>
      </trkpt>
      <trkpt lat="44.10711" lon="6.68965">
        <ele>2277.3999023438</ele>
        <time>2022-07-09T11:38:15.000Z</time>
      </trkpt>
      <trkpt lat="44.10712" lon="6.68959">
        <ele>2277.3999023438</ele>
        <time>2022-07-09T11:38:18.000Z</time>
      </trkpt>
      <trkpt lat="44.10712" lon="6.68951">
        <ele>2277.8000488281</ele>
        <time>2022-07-09T11:38:22.000Z</time>
      </trkpt>
      <trkpt lat="44.10713" lon="6.68946">
        <ele>2278.3999023438</ele>
        <time>2022-07-09T11:38:25.000Z</time>
      </trkpt>
      <trkpt lat="44.10713" lon="6.68934">
        <ele>2278.8000488281</ele>
        <time>2022-07-09T11:38:32.000Z</time>
      </trkpt>
      <trkpt lat="44.10713" lon="6.68923">
        <ele>2279.8000488281</ele>
        <time>2022-07-09T11:38:39.000Z</time>
      </trkpt>
      <trkpt lat="44.10713" lon="6.68919">
        <ele>2280</ele>
        <time>2022-07-09T11:38:41.000Z</time>
      </trkpt>
      <trkpt lat="44.10713" lon="6.68904">
        <ele>2280.6000976562</ele>
        <time>2022-07-09T11:38:49.000Z</time>
      </trkpt>
      <trkpt lat="44.10713" lon="6.68903">
        <ele>2280.8000488281</ele>
        <time>2022-07-09T11:38:50.000Z</time>
      </trkpt>
      <trkpt lat="44.10713" lon="6.6889">
        <ele>2281.3999023438</ele>
        <time>2022-07-09T11:38:57.000Z</time>
      </trkpt>
      <trkpt lat="44.10713" lon="6.68886">
        <ele>2282</ele>
        <time>2022-07-09T11:39:00.000Z</time>
      </trkpt>
      <trkpt lat="44.10714" lon="6.68879">
        <ele>2282.6000976562</ele>
        <time>2022-07-09T11:39:04.000Z</time>
      </trkpt>
      <trkpt lat="44.10716" lon="6.68866">
        <ele>2282.8000488281</ele>
        <time>2022-07-09T11:39:11.000Z</time>
      </trkpt>
      <trkpt lat="44.10716" lon="6.68864">
        <ele>2283</ele>
        <time>2022-07-09T11:39:12.000Z</time>
      </trkpt>
      <trkpt lat="44.10716" lon="6.6886">
        <ele>2283.8000488281</ele>
        <time>2022-07-09T11:39:17.000Z</time>
      </trkpt>
      <trkpt lat="44.10716" lon="6.68855">
        <ele>2284</ele>
        <time>2022-07-09T11:39:21.000Z</time>
      </trkpt>
      <trkpt lat="44.10715" lon="6.6885">
        <ele>2284.1999511719</ele>
        <time>2022-07-09T11:39:26.000Z</time>
      </trkpt>
      <trkpt lat="44.10714" lon="6.68847">
        <ele>2284.8000488281</ele>
        <time>2022-07-09T11:39:32.000Z</time>
      </trkpt>
      <trkpt lat="44.10714" lon="6.68846">
        <ele>2285.1999511719</ele>
        <time>2022-07-09T11:39:34.000Z</time>
      </trkpt>
      <trkpt lat="44.10714" lon="6.68846">
        <ele>2285.6000976562</ele>
        <time>2022-07-09T11:39:37.000Z</time>
      </trkpt>
      <trkpt lat="44.10713" lon="6.68844">
        <ele>2285.6000976562</ele>
        <time>2022-07-09T11:39:38.000Z</time>
      </trkpt>
      <trkpt lat="44.10712" lon="6.68843">
        <ele>2285.3999023438</ele>
        <time>2022-07-09T11:39:41.000Z</time>
      </trkpt>
      <trkpt lat="44.10709" lon="6.68839">
        <ele>2286.3999023438</ele>
        <time>2022-07-09T11:39:47.000Z</time>
      </trkpt>
      <trkpt lat="44.10709" lon="6.68838">
        <ele>2286.3999023438</ele>
        <time>2022-07-09T11:39:48.000Z</time>
      </trkpt>
      <trkpt lat="44.10706" lon="6.68833">
        <ele>2287.3999023438</ele>
        <time>2022-07-09T11:39:54.000Z</time>
      </trkpt>
      <trkpt lat="44.10706" lon="6.68832">
        <ele>2287.3999023438</ele>
        <time>2022-07-09T11:39:55.000Z</time>
      </trkpt>
      <trkpt lat="44.10704" lon="6.68829">
        <ele>2288.3999023438</ele>
        <time>2022-07-09T11:40:01.000Z</time>
      </trkpt>
      <trkpt lat="44.10703" lon="6.68827">
        <ele>2288.8000488281</ele>
        <time>2022-07-09T11:40:04.000Z</time>
      </trkpt>
      <trkpt lat="44.10703" lon="6.68827">
        <ele>2289.6000976562</ele>
        <time>2022-07-09T11:40:07.000Z</time>
      </trkpt>
      <trkpt lat="44.10702" lon="6.68825">
        <ele>2290</ele>
        <time>2022-07-09T11:40:08.000Z</time>
      </trkpt>
      <trkpt lat="44.10701" lon="6.68823">
        <ele>2290.1999511719</ele>
        <time>2022-07-09T11:40:09.000Z</time>
      </trkpt>
      <trkpt lat="44.10699" lon="6.6882">
        <ele>2290.3999023438</ele>
        <time>2022-07-09T11:40:15.000Z</time>
      </trkpt>
      <trkpt lat="44.10699" lon="6.68819">
        <ele>2290.6000976562</ele>
        <time>2022-07-09T11:40:16.000Z</time>
      </trkpt>
      <trkpt lat="44.10698" lon="6.68813">
        <ele>2291.3999023438</ele>
        <time>2022-07-09T11:40:21.000Z</time>
      </trkpt>
      <trkpt lat="44.10698" lon="6.68812">
        <ele>2291.8000488281</ele>
        <time>2022-07-09T11:40:23.000Z</time>
      </trkpt>
      <trkpt lat="44.10699" lon="6.6881">
        <ele>2292</ele>
        <time>2022-07-09T11:40:25.000Z</time>
      </trkpt>
      <trkpt lat="44.107" lon="6.68808">
        <ele>2292</ele>
        <time>2022-07-09T11:40:28.000Z</time>
      </trkpt>
      <trkpt lat="44.107" lon="6.68806">
        <ele>2292.1999511719</ele>
        <time>2022-07-09T11:40:30.000Z</time>
      </trkpt>
      <trkpt lat="44.107" lon="6.68802">
        <ele>2293</ele>
        <time>2022-07-09T11:40:34.000Z</time>
      </trkpt>
      <trkpt lat="44.107" lon="6.68801">
        <ele>2293</ele>
        <time>2022-07-09T11:40:35.000Z</time>
      </trkpt>
      <trkpt lat="44.107" lon="6.68798">
        <ele>2293.6000976562</ele>
        <time>2022-07-09T11:40:37.000Z</time>
      </trkpt>
      <trkpt lat="44.107" lon="6.68798">
        <ele>2294</ele>
        <time>2022-07-09T11:40:38.000Z</time>
      </trkpt>
      <trkpt lat="44.10699" lon="6.68796">
        <ele>2294.3999023438</ele>
        <time>2022-07-09T11:40:40.000Z</time>
      </trkpt>
      <trkpt lat="44.10699" lon="6.68791">
        <ele>2295.1999511719</ele>
        <time>2022-07-09T11:40:44.000Z</time>
      </trkpt>
      <trkpt lat="44.10698" lon="6.68784">
        <ele>2295.6000976562</ele>
        <time>2022-07-09T11:40:50.000Z</time>
      </trkpt>
      <trkpt lat="44.10697" lon="6.68778">
        <ele>2296.1999511719</ele>
        <time>2022-07-09T11:40:55.000Z</time>
      </trkpt>
      <trkpt lat="44.10697" lon="6.68774">
        <ele>2296.8000488281</ele>
        <time>2022-07-09T11:40:58.000Z</time>
      </trkpt>
      <trkpt lat="44.10696" lon="6.68769">
        <ele>2297.1999511719</ele>
        <time>2022-07-09T11:41:01.000Z</time>
      </trkpt>
      <trkpt lat="44.10697" lon="6.68763">
        <ele>2297.8000488281</ele>
        <time>2022-07-09T11:41:06.000Z</time>
      </trkpt>
      <trkpt lat="44.10697" lon="6.68755">
        <ele>2298.1999511719</ele>
        <time>2022-07-09T11:41:11.000Z</time>
      </trkpt>
      <trkpt lat="44.10697" lon="6.68751">
        <ele>2298</ele>
        <time>2022-07-09T11:41:14.000Z</time>
      </trkpt>
      <trkpt lat="44.10698" lon="6.68747">
        <ele>2298</ele>
        <time>2022-07-09T11:41:16.000Z</time>
      </trkpt>
      <trkpt lat="44.10697" lon="6.68739">
        <ele>2298</ele>
        <time>2022-07-09T11:41:21.000Z</time>
      </trkpt>
      <trkpt lat="44.10695" lon="6.68728">
        <ele>2298.6000976562</ele>
        <time>2022-07-09T11:41:29.000Z</time>
      </trkpt>
      <trkpt lat="44.10695" lon="6.68719">
        <ele>2299.1999511719</ele>
        <time>2022-07-09T11:41:36.000Z</time>
      </trkpt>
      <trkpt lat="44.10695" lon="6.68718">
        <ele>2299.3999023438</ele>
        <time>2022-07-09T11:41:37.000Z</time>
      </trkpt>
      <trkpt lat="44.10694" lon="6.68704">
        <ele>2300.1999511719</ele>
        <time>2022-07-09T11:41:46.000Z</time>
      </trkpt>
      <trkpt lat="44.10694" lon="6.68703">
        <ele>2300.3999023438</ele>
        <time>2022-07-09T11:41:47.000Z</time>
      </trkpt>
      <trkpt lat="44.10693" lon="6.68693">
        <ele>2301.1999511719</ele>
        <time>2022-07-09T11:41:55.000Z</time>
      </trkpt>
      <trkpt lat="44.10693" lon="6.68691">
        <ele>2301.3999023438</ele>
        <time>2022-07-09T11:41:57.000Z</time>
      </trkpt>
      <trkpt lat="44.10691" lon="6.68683">
        <ele>2302.6000976562</ele>
        <time>2022-07-09T11:42:04.000Z</time>
      </trkpt>
      <trkpt lat="44.10691" lon="6.68677">
        <ele>2303.6000976562</ele>
        <time>2022-07-09T11:42:10.000Z</time>
      </trkpt>
      <trkpt lat="44.10691" lon="6.68674">
        <ele>2304</ele>
        <time>2022-07-09T11:42:13.000Z</time>
      </trkpt>
      <trkpt lat="44.10692" lon="6.6867">
        <ele>2304.6000976562</ele>
        <time>2022-07-09T11:42:17.000Z</time>
      </trkpt>
      <trkpt lat="44.10692" lon="6.68668">
        <ele>2305</ele>
        <time>2022-07-09T11:42:19.000Z</time>
      </trkpt>
      <trkpt lat="44.10691" lon="6.68664">
        <ele>2305.6000976562</ele>
        <time>2022-07-09T11:42:23.000Z</time>
      </trkpt>
      <trkpt lat="44.1069" lon="6.68658">
        <ele>2306.3999023438</ele>
        <time>2022-07-09T11:42:28.000Z</time>
      </trkpt>
      <trkpt lat="44.1069" lon="6.68656">
        <ele>2306.8000488281</ele>
        <time>2022-07-09T11:42:30.000Z</time>
      </trkpt>
      <trkpt lat="44.10689" lon="6.68648">
        <ele>2307.3999023438</ele>
        <time>2022-07-09T11:42:36.000Z</time>
      </trkpt>
      <trkpt lat="44.10689" lon="6.68648">
        <ele>2307.6000976562</ele>
        <time>2022-07-09T11:42:43.000Z</time>
      </trkpt>
      <trkpt lat="44.10688" lon="6.68645">
        <ele>2307.3999023438</ele>
        <time>2022-07-09T11:42:56.000Z</time>
      </trkpt>
      <trkpt lat="44.10687" lon="6.6864">
        <ele>2307.8000488281</ele>
        <time>2022-07-09T11:43:01.000Z</time>
      </trkpt>
      <trkpt lat="44.10688" lon="6.68637">
        <ele>2308.3999023438</ele>
        <time>2022-07-09T11:43:04.000Z</time>
      </trkpt>
      <trkpt lat="44.10688" lon="6.68635">
        <ele>2309.1999511719</ele>
        <time>2022-07-09T11:43:07.000Z</time>
      </trkpt>
      <trkpt lat="44.10689" lon="6.68631">
        <ele>2310</ele>
        <time>2022-07-09T11:43:12.000Z</time>
      </trkpt>
      <trkpt lat="44.1069" lon="6.6863">
        <ele>2310.1999511719</ele>
        <time>2022-07-09T11:43:13.000Z</time>
      </trkpt>
      <trkpt lat="44.10691" lon="6.68628">
        <ele>2311.1999511719</ele>
        <time>2022-07-09T11:43:19.000Z</time>
      </trkpt>
      <trkpt lat="44.10697" lon="6.68622">
        <ele>2311</ele>
        <time>2022-07-09T11:43:24.000Z</time>
      </trkpt>
      <trkpt lat="44.10702" lon="6.68612">
        <ele>2311.3999023438</ele>
        <time>2022-07-09T11:43:30.000Z</time>
      </trkpt>
      <trkpt lat="44.10702" lon="6.6861">
        <ele>2311.3999023438</ele>
        <time>2022-07-09T11:43:31.000Z</time>
      </trkpt>
      <trkpt lat="44.10704" lon="6.68592">
        <ele>2311.3999023438</ele>
        <time>2022-07-09T11:43:40.000Z</time>
      </trkpt>
      <trkpt lat="44.10698" lon="6.68581">
        <ele>2312.1999511719</ele>
        <time>2022-07-09T11:43:48.000Z</time>
      </trkpt>
      <trkpt lat="44.10696" lon="6.68579">
        <ele>2312.6000976562</ele>
        <time>2022-07-09T11:43:50.000Z</time>
      </trkpt>
      <trkpt lat="44.10689" lon="6.6858">
        <ele>2313.6000976562</ele>
        <time>2022-07-09T11:43:55.000Z</time>
      </trkpt>
      <trkpt lat="44.10681" lon="6.68574">
        <ele>2314.8000488281</ele>
        <time>2022-07-09T11:44:00.000Z</time>
      </trkpt>
      <trkpt lat="44.10681" lon="6.68572">
        <ele>2315</ele>
        <time>2022-07-09T11:44:01.000Z</time>
      </trkpt>
      <trkpt lat="44.10676" lon="6.68559">
        <ele>2314.3999023438</ele>
        <time>2022-07-09T11:44:08.000Z</time>
      </trkpt>
      <trkpt lat="44.10671" lon="6.68548">
        <ele>2314.8000488281</ele>
        <time>2022-07-09T11:44:14.000Z</time>
      </trkpt>
      <trkpt lat="44.10665" lon="6.68537">
        <ele>2315.3999023438</ele>
        <time>2022-07-09T11:44:21.000Z</time>
      </trkpt>
      <trkpt lat="44.10664" lon="6.68535">
        <ele>2315.6000976562</ele>
        <time>2022-07-09T11:44:22.000Z</time>
      </trkpt>
      <trkpt lat="44.10661" lon="6.68522">
        <ele>2315.8000488281</ele>
        <time>2022-07-09T11:44:28.000Z</time>
      </trkpt>
      <trkpt lat="44.10663" lon="6.68512">
        <ele>2316.8000488281</ele>
        <time>2022-07-09T11:44:34.000Z</time>
      </trkpt>
      <trkpt lat="44.10663" lon="6.6851">
        <ele>2317</ele>
        <time>2022-07-09T11:44:35.000Z</time>
      </trkpt>
      <trkpt lat="44.10661" lon="6.685">
        <ele>2317.6000976562</ele>
        <time>2022-07-09T11:44:41.000Z</time>
      </trkpt>
      <trkpt lat="44.10656" lon="6.6849">
        <ele>2318.1999511719</ele>
        <time>2022-07-09T11:44:48.000Z</time>
      </trkpt>
      <trkpt lat="44.1065" lon="6.68478">
        <ele>2318.6000976562</ele>
        <time>2022-07-09T11:44:55.000Z</time>
      </trkpt>
      <trkpt lat="44.10646" lon="6.68468">
        <ele>2318.8000488281</ele>
        <time>2022-07-09T11:45:01.000Z</time>
      </trkpt>
      <trkpt lat="44.10644" lon="6.68461">
        <ele>2319.1999511719</ele>
        <time>2022-07-09T11:45:05.000Z</time>
      </trkpt>
      <trkpt lat="44.10643" lon="6.68458">
        <ele>2319.3999023438</ele>
        <time>2022-07-09T11:45:07.000Z</time>
      </trkpt>
      <trkpt lat="44.10642" lon="6.68445">
        <ele>2320.1999511719</ele>
        <time>2022-07-09T11:45:15.000Z</time>
      </trkpt>
      <trkpt lat="44.10642" lon="6.68442">
        <ele>2320.3999023438</ele>
        <time>2022-07-09T11:45:17.000Z</time>
      </trkpt>
      <trkpt lat="44.1064" lon="6.68436">
        <ele>2321.3999023438</ele>
        <time>2022-07-09T11:45:22.000Z</time>
      </trkpt>
      <trkpt lat="44.10638" lon="6.68429">
        <ele>2322</ele>
        <time>2022-07-09T11:45:28.000Z</time>
      </trkpt>
      <trkpt lat="44.10635" lon="6.68426">
        <ele>2322.8000488281</ele>
        <time>2022-07-09T11:45:32.000Z</time>
      </trkpt>
      <trkpt lat="44.10634" lon="6.68423">
        <ele>2322.8000488281</ele>
        <time>2022-07-09T11:45:34.000Z</time>
      </trkpt>
      <trkpt lat="44.10631" lon="6.68413">
        <ele>2323.8000488281</ele>
        <time>2022-07-09T11:45:41.000Z</time>
      </trkpt>
      <trkpt lat="44.10629" lon="6.68404">
        <ele>2324.8000488281</ele>
        <time>2022-07-09T11:45:47.000Z</time>
      </trkpt>
      <trkpt lat="44.10629" lon="6.68403">
        <ele>2325</ele>
        <time>2022-07-09T11:45:48.000Z</time>
      </trkpt>
      <trkpt lat="44.10624" lon="6.68394">
        <ele>2325.8000488281</ele>
        <time>2022-07-09T11:45:55.000Z</time>
      </trkpt>
      <trkpt lat="44.10622" lon="6.6839">
        <ele>2326.1999511719</ele>
        <time>2022-07-09T11:45:58.000Z</time>
      </trkpt>
      <trkpt lat="44.10621" lon="6.68385">
        <ele>2326.8000488281</ele>
        <time>2022-07-09T11:46:02.000Z</time>
      </trkpt>
      <trkpt lat="44.10621" lon="6.68383">
        <ele>2327</ele>
        <time>2022-07-09T11:46:03.000Z</time>
      </trkpt>
      <trkpt lat="44.10622" lon="6.68381">
        <ele>2327.1999511719</ele>
        <time>2022-07-09T11:46:04.000Z</time>
      </trkpt>
      <trkpt lat="44.10624" lon="6.68375">
        <ele>2328</ele>
        <time>2022-07-09T11:46:08.000Z</time>
      </trkpt>
      <trkpt lat="44.10625" lon="6.68371">
        <ele>2328.1999511719</ele>
        <time>2022-07-09T11:46:10.000Z</time>
      </trkpt>
      <trkpt lat="44.10626" lon="6.68358">
        <ele>2329.1999511719</ele>
        <time>2022-07-09T11:46:18.000Z</time>
      </trkpt>
      <trkpt lat="44.10624" lon="6.68349">
        <ele>2330</ele>
        <time>2022-07-09T11:46:24.000Z</time>
      </trkpt>
      <trkpt lat="44.10621" lon="6.68342">
        <ele>2330.1999511719</ele>
        <time>2022-07-09T11:46:29.000Z</time>
      </trkpt>
      <trkpt lat="44.10621" lon="6.68341">
        <ele>2330.1999511719</ele>
        <time>2022-07-09T11:46:30.000Z</time>
      </trkpt>
      <trkpt lat="44.10619" lon="6.68332">
        <ele>2331.1999511719</ele>
        <time>2022-07-09T11:46:36.000Z</time>
      </trkpt>
      <trkpt lat="44.10619" lon="6.68328">
        <ele>2331.3999023438</ele>
        <time>2022-07-09T11:46:39.000Z</time>
      </trkpt>
      <trkpt lat="44.10615" lon="6.68319">
        <ele>2332.1999511719</ele>
        <time>2022-07-09T11:46:46.000Z</time>
      </trkpt>
      <trkpt lat="44.10612" lon="6.68314">
        <ele>2332.3999023438</ele>
        <time>2022-07-09T11:46:51.000Z</time>
      </trkpt>
      <trkpt lat="44.10611" lon="6.68314">
        <ele>2332.3999023438</ele>
        <time>2022-07-09T11:46:53.000Z</time>
      </trkpt>
      <trkpt lat="44.10609" lon="6.68312">
        <ele>2333.1999511719</ele>
        <time>2022-07-09T11:46:59.000Z</time>
      </trkpt>
      <trkpt lat="44.10608" lon="6.68311">
        <ele>2333.1999511719</ele>
        <time>2022-07-09T11:47:00.000Z</time>
      </trkpt>
      <trkpt lat="44.10608" lon="6.68313">
        <ele>2333.3999023438</ele>
        <time>2022-07-09T11:47:01.000Z</time>
      </trkpt>
      <trkpt lat="44.10608" lon="6.68311">
        <ele>2333.8000488281</ele>
        <time>2022-07-09T11:47:05.000Z</time>
      </trkpt>
      <trkpt lat="44.10608" lon="6.68311">
        <ele>2334.3999023438</ele>
        <time>2022-07-09T11:47:11.000Z</time>
      </trkpt>
      <trkpt lat="44.10607" lon="6.68309">
        <ele>2334.6000976562</ele>
        <time>2022-07-09T11:47:14.000Z</time>
      </trkpt>
      <trkpt lat="44.10606" lon="6.68307">
        <ele>2334.3999023438</ele>
        <time>2022-07-09T11:47:17.000Z</time>
      </trkpt>
      <trkpt lat="44.10603" lon="6.683">
        <ele>2334.3999023438</ele>
        <time>2022-07-09T11:47:25.000Z</time>
      </trkpt>
      <trkpt lat="44.10603" lon="6.683">
        <ele>2334.6000976562</ele>
        <time>2022-07-09T11:47:26.000Z</time>
      </trkpt>
      <trkpt lat="44.10601" lon="6.68294">
        <ele>2335.6000976562</ele>
        <time>2022-07-09T11:47:33.000Z</time>
      </trkpt>
      <trkpt lat="44.10604" lon="6.68292">
        <ele>2336.1999511719</ele>
        <time>2022-07-09T11:47:39.000Z</time>
      </trkpt>
      <trkpt lat="44.10603" lon="6.6829">
        <ele>2336.6000976562</ele>
        <time>2022-07-09T11:47:43.000Z</time>
      </trkpt>
      <trkpt lat="44.10603" lon="6.6829">
        <ele>2337.1999511719</ele>
        <time>2022-07-09T11:47:45.000Z</time>
      </trkpt>
      <trkpt lat="44.10603" lon="6.68288">
        <ele>2337.8000488281</ele>
        <time>2022-07-09T11:47:47.000Z</time>
      </trkpt>
      <trkpt lat="44.10602" lon="6.68284">
        <ele>2338.3999023438</ele>
        <time>2022-07-09T11:47:51.000Z</time>
      </trkpt>
      <trkpt lat="44.10603" lon="6.68282">
        <ele>2338.8000488281</ele>
        <time>2022-07-09T11:47:55.000Z</time>
      </trkpt>
      <trkpt lat="44.10603" lon="6.68283">
        <ele>2339</ele>
        <time>2022-07-09T11:47:56.000Z</time>
      </trkpt>
      <trkpt lat="44.10604" lon="6.68282">
        <ele>2340</ele>
        <time>2022-07-09T11:48:01.000Z</time>
      </trkpt>
      <trkpt lat="44.10605" lon="6.68283">
        <ele>2340</ele>
        <time>2022-07-09T11:48:02.000Z</time>
      </trkpt>
      <trkpt lat="44.10606" lon="6.68282">
        <ele>2340.3999023438</ele>
        <time>2022-07-09T11:48:06.000Z</time>
      </trkpt>
      <trkpt lat="44.10607" lon="6.6828">
        <ele>2341</ele>
        <time>2022-07-09T11:48:11.000Z</time>
      </trkpt>
      <trkpt lat="44.10607" lon="6.6828">
        <ele>2341.3999023438</ele>
        <time>2022-07-09T11:48:13.000Z</time>
      </trkpt>
      <trkpt lat="44.10607" lon="6.68277">
        <ele>2342</ele>
        <time>2022-07-09T11:48:16.000Z</time>
      </trkpt>
      <trkpt lat="44.10608" lon="6.68276">
        <ele>2342.6000976562</ele>
        <time>2022-07-09T11:48:19.000Z</time>
      </trkpt>
      <trkpt lat="44.1061" lon="6.68277">
        <ele>2343</ele>
        <time>2022-07-09T11:48:22.000Z</time>
      </trkpt>
      <trkpt lat="44.10609" lon="6.68276">
        <ele>2343.1999511719</ele>
        <time>2022-07-09T11:48:23.000Z</time>
      </trkpt>
      <trkpt lat="44.10611" lon="6.68276">
        <ele>2343.3999023438</ele>
        <time>2022-07-09T11:48:25.000Z</time>
      </trkpt>
      <trkpt lat="44.10614" lon="6.68275">
        <ele>2344.1999511719</ele>
        <time>2022-07-09T11:48:31.000Z</time>
      </trkpt>
      <trkpt lat="44.10615" lon="6.68274">
        <ele>2344.3999023438</ele>
        <time>2022-07-09T11:48:33.000Z</time>
      </trkpt>
      <trkpt lat="44.10617" lon="6.6827">
        <ele>2344.8000488281</ele>
        <time>2022-07-09T11:48:38.000Z</time>
      </trkpt>
      <trkpt lat="44.1062" lon="6.68268">
        <ele>2345.1999511719</ele>
        <time>2022-07-09T11:48:41.000Z</time>
      </trkpt>
      <trkpt lat="44.10621" lon="6.68269">
        <ele>2346.1999511719</ele>
        <time>2022-07-09T11:48:43.000Z</time>
      </trkpt>
      <trkpt lat="44.10622" lon="6.68269">
        <ele>2346.3999023438</ele>
        <time>2022-07-09T11:48:44.000Z</time>
      </trkpt>
      <trkpt lat="44.10627" lon="6.68272">
        <ele>2346.3999023438</ele>
        <time>2022-07-09T11:48:51.000Z</time>
      </trkpt>
      <trkpt lat="44.10634" lon="6.68272">
        <ele>2346.8000488281</ele>
        <time>2022-07-09T11:48:59.000Z</time>
      </trkpt>
      <trkpt lat="44.10637" lon="6.68267">
        <ele>2346.6000976562</ele>
        <time>2022-07-09T11:49:04.000Z</time>
      </trkpt>
      <trkpt lat="44.10638" lon="6.68266">
        <ele>2346.8000488281</ele>
        <time>2022-07-09T11:49:06.000Z</time>
      </trkpt>
      <trkpt lat="44.10642" lon="6.68262">
        <ele>2347.3999023438</ele>
        <time>2022-07-09T11:49:14.000Z</time>
      </trkpt>
      <trkpt lat="44.10643" lon="6.6826">
        <ele>2347.3999023438</ele>
        <time>2022-07-09T11:49:17.000Z</time>
      </trkpt>
      <trkpt lat="44.10645" lon="6.68258">
        <ele>2347.1999511719</ele>
        <time>2022-07-09T11:49:19.000Z</time>
      </trkpt>
      <trkpt lat="44.10655" lon="6.68242">
        <ele>2347.3999023438</ele>
        <time>2022-07-09T11:49:29.000Z</time>
      </trkpt>
      <trkpt lat="44.10662" lon="6.68233">
        <ele>2347.8000488281</ele>
        <time>2022-07-09T11:49:35.000Z</time>
      </trkpt>
      <trkpt lat="44.10667" lon="6.6823">
        <ele>2348.6000976562</ele>
        <time>2022-07-09T11:49:39.000Z</time>
      </trkpt>
      <trkpt lat="44.1067" lon="6.6823">
        <ele>2349.3999023438</ele>
        <time>2022-07-09T11:49:42.000Z</time>
      </trkpt>
      <trkpt lat="44.10672" lon="6.6823">
        <ele>2349.8000488281</ele>
        <time>2022-07-09T11:49:44.000Z</time>
      </trkpt>
      <trkpt lat="44.10675" lon="6.68228">
        <ele>2350.6000976562</ele>
        <time>2022-07-09T11:49:47.000Z</time>
      </trkpt>
      <trkpt lat="44.10676" lon="6.68227">
        <ele>2350.6000976562</ele>
        <time>2022-07-09T11:49:48.000Z</time>
      </trkpt>
      <trkpt lat="44.10677" lon="6.68226">
        <ele>2350.8000488281</ele>
        <time>2022-07-09T11:49:49.000Z</time>
      </trkpt>
      <trkpt lat="44.1068" lon="6.68219">
        <ele>2351.8000488281</ele>
        <time>2022-07-09T11:49:54.000Z</time>
      </trkpt>
      <trkpt lat="44.10681" lon="6.68216">
        <ele>2352</ele>
        <time>2022-07-09T11:49:56.000Z</time>
      </trkpt>
      <trkpt lat="44.10682" lon="6.68213">
        <ele>2352</ele>
        <time>2022-07-09T11:49:59.000Z</time>
      </trkpt>
      <trkpt lat="44.10683" lon="6.68211">
        <ele>2352</ele>
        <time>2022-07-09T11:50:00.000Z</time>
      </trkpt>
      <trkpt lat="44.10689" lon="6.682">
        <ele>2352.6000976562</ele>
        <time>2022-07-09T11:50:07.000Z</time>
      </trkpt>
      <trkpt lat="44.10697" lon="6.68187">
        <ele>2353</ele>
        <time>2022-07-09T11:50:16.000Z</time>
      </trkpt>
      <trkpt lat="44.107" lon="6.68181">
        <ele>2353.1999511719</ele>
        <time>2022-07-09T11:50:21.000Z</time>
      </trkpt>
      <trkpt lat="44.10705" lon="6.68175">
        <ele>2353.8000488281</ele>
        <time>2022-07-09T11:50:27.000Z</time>
      </trkpt>
      <trkpt lat="44.10705" lon="6.68174">
        <ele>2354</ele>
        <time>2022-07-09T11:50:28.000Z</time>
      </trkpt>
      <trkpt lat="44.10712" lon="6.68167">
        <ele>2354.3999023438</ele>
        <time>2022-07-09T11:50:34.000Z</time>
      </trkpt>
      <trkpt lat="44.10713" lon="6.68166">
        <ele>2354.3999023438</ele>
        <time>2022-07-09T11:50:35.000Z</time>
      </trkpt>
      <trkpt lat="44.10718" lon="6.68158">
        <ele>2355</ele>
        <time>2022-07-09T11:50:41.000Z</time>
      </trkpt>
      <trkpt lat="44.10721" lon="6.68155">
        <ele>2355.3999023438</ele>
        <time>2022-07-09T11:50:44.000Z</time>
      </trkpt>
      <trkpt lat="44.10724" lon="6.68151">
        <ele>2356</ele>
        <time>2022-07-09T11:50:47.000Z</time>
      </trkpt>
      <trkpt lat="44.10726" lon="6.68147">
        <ele>2356.6000976562</ele>
        <time>2022-07-09T11:50:50.000Z</time>
      </trkpt>
      <trkpt lat="44.10731" lon="6.68143">
        <ele>2357.1999511719</ele>
        <time>2022-07-09T11:50:55.000Z</time>
      </trkpt>
      <trkpt lat="44.10734" lon="6.68142">
        <ele>2357.8000488281</ele>
        <time>2022-07-09T11:50:58.000Z</time>
      </trkpt>
      <trkpt lat="44.10737" lon="6.68142">
        <ele>2358.1999511719</ele>
        <time>2022-07-09T11:51:00.000Z</time>
      </trkpt>
      <trkpt lat="44.10741" lon="6.6814">
        <ele>2358.8000488281</ele>
        <time>2022-07-09T11:51:04.000Z</time>
      </trkpt>
      <trkpt lat="44.10744" lon="6.68137">
        <ele>2359.1999511719</ele>
        <time>2022-07-09T11:51:08.000Z</time>
      </trkpt>
      <trkpt lat="44.10746" lon="6.68134">
        <ele>2359.6000976562</ele>
        <time>2022-07-09T11:51:10.000Z</time>
      </trkpt>
      <trkpt lat="44.10752" lon="6.68127">
        <ele>2360</ele>
        <time>2022-07-09T11:51:15.000Z</time>
      </trkpt>
      <trkpt lat="44.10753" lon="6.68124">
        <ele>2359.8000488281</ele>
        <time>2022-07-09T11:51:17.000Z</time>
      </trkpt>
      <trkpt lat="44.10756" lon="6.68118">
        <ele>2360.3999023438</ele>
        <time>2022-07-09T11:51:21.000Z</time>
      </trkpt>
      <trkpt lat="44.10757" lon="6.68114">
        <ele>2360.8000488281</ele>
        <time>2022-07-09T11:51:24.000Z</time>
      </trkpt>
      <trkpt lat="44.10759" lon="6.68103">
        <ele>2360.1999511719</ele>
        <time>2022-07-09T11:51:30.000Z</time>
      </trkpt>
      <trkpt lat="44.10761" lon="6.68097">
        <ele>2360.1999511719</ele>
        <time>2022-07-09T11:51:34.000Z</time>
      </trkpt>
      <trkpt lat="44.10764" lon="6.68092">
        <ele>2360.8000488281</ele>
        <time>2022-07-09T11:51:37.000Z</time>
      </trkpt>
      <trkpt lat="44.10768" lon="6.68079">
        <ele>2361</ele>
        <time>2022-07-09T11:51:44.000Z</time>
      </trkpt>
      <trkpt lat="44.10768" lon="6.68075">
        <ele>2361.6000976562</ele>
        <time>2022-07-09T11:51:46.000Z</time>
      </trkpt>
      <trkpt lat="44.10773" lon="6.68063">
        <ele>2362.6000976562</ele>
        <time>2022-07-09T11:51:53.000Z</time>
      </trkpt>
      <trkpt lat="44.10779" lon="6.68052">
        <ele>2363.1999511719</ele>
        <time>2022-07-09T11:52:00.000Z</time>
      </trkpt>
      <trkpt lat="44.10782" lon="6.68049">
        <ele>2363.6000976562</ele>
        <time>2022-07-09T11:52:03.000Z</time>
      </trkpt>
      <trkpt lat="44.10782" lon="6.68049">
        <ele>2364</ele>
        <time>2022-07-09T11:52:05.000Z</time>
      </trkpt>
      <trkpt lat="44.10787" lon="6.68049">
        <ele>2364</ele>
        <time>2022-07-09T11:52:09.000Z</time>
      </trkpt>
      <trkpt lat="44.10794" lon="6.68052">
        <ele>2364.3999023438</ele>
        <time>2022-07-09T11:52:14.000Z</time>
      </trkpt>
      <trkpt lat="44.10798" lon="6.68055">
        <ele>2364.6000976562</ele>
        <time>2022-07-09T11:52:18.000Z</time>
      </trkpt>
      <trkpt lat="44.10799" lon="6.68055">
        <ele>2364.8000488281</ele>
        <time>2022-07-09T11:52:19.000Z</time>
      </trkpt>
      <trkpt lat="44.10801" lon="6.68054">
        <ele>2364.8000488281</ele>
        <time>2022-07-09T11:52:21.000Z</time>
      </trkpt>
      <trkpt lat="44.10802" lon="6.68054">
        <ele>2365</ele>
        <time>2022-07-09T11:52:22.000Z</time>
      </trkpt>
      <trkpt lat="44.10806" lon="6.68054">
        <ele>2365.6000976562</ele>
        <time>2022-07-09T11:52:26.000Z</time>
      </trkpt>
      <trkpt lat="44.10807" lon="6.68055">
        <ele>2365.8000488281</ele>
        <time>2022-07-09T11:52:27.000Z</time>
      </trkpt>
      <trkpt lat="44.10811" lon="6.68055">
        <ele>2366.8000488281</ele>
        <time>2022-07-09T11:52:31.000Z</time>
      </trkpt>
      <trkpt lat="44.10813" lon="6.68055">
        <ele>2367</ele>
        <time>2022-07-09T11:52:33.000Z</time>
      </trkpt>
      <trkpt lat="44.10821" lon="6.68056">
        <ele>2367.6000976562</ele>
        <time>2022-07-09T11:52:41.000Z</time>
      </trkpt>
      <trkpt lat="44.10824" lon="6.68056">
        <ele>2368</ele>
        <time>2022-07-09T11:52:44.000Z</time>
      </trkpt>
      <trkpt lat="44.10826" lon="6.68057">
        <ele>2368.1999511719</ele>
        <time>2022-07-09T11:52:46.000Z</time>
      </trkpt>
      <trkpt lat="44.10832" lon="6.6806">
        <ele>2369</ele>
        <time>2022-07-09T11:52:53.000Z</time>
      </trkpt>
      <trkpt lat="44.10838" lon="6.68065">
        <ele>2369.6000976562</ele>
        <time>2022-07-09T11:53:00.000Z</time>
      </trkpt>
      <trkpt lat="44.10841" lon="6.68068">
        <ele>2370.1999511719</ele>
        <time>2022-07-09T11:53:04.000Z</time>
      </trkpt>
      <trkpt lat="44.10844" lon="6.6807">
        <ele>2370.6000976562</ele>
        <time>2022-07-09T11:53:07.000Z</time>
      </trkpt>
      <trkpt lat="44.10848" lon="6.68067">
        <ele>2371.1999511719</ele>
        <time>2022-07-09T11:53:12.000Z</time>
      </trkpt>
      <trkpt lat="44.10847" lon="6.68068">
        <ele>2371.1999511719</ele>
        <time>2022-07-09T11:53:13.000Z</time>
      </trkpt>
      <trkpt lat="44.10848" lon="6.68067">
        <ele>2371.6000976562</ele>
        <time>2022-07-09T11:53:18.000Z</time>
      </trkpt>
      <trkpt lat="44.10849" lon="6.68067">
        <ele>2371.6000976562</ele>
        <time>2022-07-09T11:53:27.000Z</time>
      </trkpt>
      <trkpt lat="44.10851" lon="6.68065">
        <ele>2371.3999023438</ele>
        <time>2022-07-09T11:53:29.000Z</time>
      </trkpt>
      <trkpt lat="44.10853" lon="6.68063">
        <ele>2371.6000976562</ele>
        <time>2022-07-09T11:53:31.000Z</time>
      </trkpt>
      <trkpt lat="44.10859" lon="6.68057">
        <ele>2372.1999511719</ele>
        <time>2022-07-09T11:53:37.000Z</time>
      </trkpt>
      <trkpt lat="44.10866" lon="6.6805">
        <ele>2373.1999511719</ele>
        <time>2022-07-09T11:53:44.000Z</time>
      </trkpt>
      <trkpt lat="44.10867" lon="6.6805">
        <ele>2373.3999023438</ele>
        <time>2022-07-09T11:53:45.000Z</time>
      </trkpt>
      <trkpt lat="44.10874" lon="6.68045">
        <ele>2374</ele>
        <time>2022-07-09T11:53:52.000Z</time>
      </trkpt>
      <trkpt lat="44.10879" lon="6.68044">
        <ele>2374.3999023438</ele>
        <time>2022-07-09T11:53:56.000Z</time>
      </trkpt>
      <trkpt lat="44.10884" lon="6.68047">
        <ele>2374.8000488281</ele>
        <time>2022-07-09T11:54:00.000Z</time>
      </trkpt>
      <trkpt lat="44.10887" lon="6.68048">
        <ele>2375.1999511719</ele>
        <time>2022-07-09T11:54:02.000Z</time>
      </trkpt>
      <trkpt lat="44.10887" lon="6.68046">
        <ele>2375.3999023438</ele>
        <time>2022-07-09T11:54:04.000Z</time>
      </trkpt>
      <trkpt lat="44.10888" lon="6.68046">
        <ele>2375.6000976562</ele>
        <time>2022-07-09T11:54:05.000Z</time>
      </trkpt>
      <trkpt lat="44.10887" lon="6.68042">
        <ele>2376.1999511719</ele>
        <time>2022-07-09T11:54:10.000Z</time>
      </trkpt>
      <trkpt lat="44.10886" lon="6.6804">
        <ele>2376.6000976562</ele>
        <time>2022-07-09T11:54:15.000Z</time>
      </trkpt>
      <trkpt lat="44.10884" lon="6.68033">
        <ele>2377.8000488281</ele>
        <time>2022-07-09T11:54:22.000Z</time>
      </trkpt>
      <trkpt lat="44.10884" lon="6.68032">
        <ele>2378</ele>
        <time>2022-07-09T11:54:24.000Z</time>
      </trkpt>
      <trkpt lat="44.10881" lon="6.68026">
        <ele>2378.8000488281</ele>
        <time>2022-07-09T11:54:32.000Z</time>
      </trkpt>
      <trkpt lat="44.10879" lon="6.68021">
        <ele>2379.8000488281</ele>
        <time>2022-07-09T11:54:38.000Z</time>
      </trkpt>
      <trkpt lat="44.10878" lon="6.6802">
        <ele>2380.1999511719</ele>
        <time>2022-07-09T11:54:40.000Z</time>
      </trkpt>
      <trkpt lat="44.10874" lon="6.68016">
        <ele>2381</ele>
        <time>2022-07-09T11:54:47.000Z</time>
      </trkpt>
      <trkpt lat="44.10874" lon="6.68015">
        <ele>2381</ele>
        <time>2022-07-09T11:54:48.000Z</time>
      </trkpt>
      <trkpt lat="44.10871" lon="6.68012">
        <ele>2382.1999511719</ele>
        <time>2022-07-09T11:54:53.000Z</time>
      </trkpt>
      <trkpt lat="44.10869" lon="6.68009">
        <ele>2383</ele>
        <time>2022-07-09T11:54:57.000Z</time>
      </trkpt>
      <trkpt lat="44.10867" lon="6.68006">
        <ele>2383.3999023438</ele>
        <time>2022-07-09T11:55:02.000Z</time>
      </trkpt>
      <trkpt lat="44.10865" lon="6.68003">
        <ele>2384.1999511719</ele>
        <time>2022-07-09T11:55:07.000Z</time>
      </trkpt>
      <trkpt lat="44.10865" lon="6.68003">
        <ele>2384.6000976562</ele>
        <time>2022-07-09T11:55:09.000Z</time>
      </trkpt>
      <trkpt lat="44.10865" lon="6.68003">
        <ele>2385.3999023438</ele>
        <time>2022-07-09T11:55:14.000Z</time>
      </trkpt>
      <trkpt lat="44.10866" lon="6.68003">
        <ele>2385</ele>
        <time>2022-07-09T11:55:24.000Z</time>
      </trkpt>
      <trkpt lat="44.10866" lon="6.68001">
        <ele>2384.3999023438</ele>
        <time>2022-07-09T11:55:28.000Z</time>
      </trkpt>
      <trkpt lat="44.10867" lon="6.67998">
        <ele>2385</ele>
        <time>2022-07-09T11:55:34.000Z</time>
      </trkpt>
      <trkpt lat="44.10867" lon="6.67996">
        <ele>2385.6000976562</ele>
        <time>2022-07-09T11:55:39.000Z</time>
      </trkpt>
      <trkpt lat="44.10868" lon="6.67993">
        <ele>2386</ele>
        <time>2022-07-09T11:55:44.000Z</time>
      </trkpt>
      <trkpt lat="44.10868" lon="6.67991">
        <ele>2386.6000976562</ele>
        <time>2022-07-09T11:55:49.000Z</time>
      </trkpt>
      <trkpt lat="44.10868" lon="6.67991">
        <ele>2386.8000488281</ele>
        <time>2022-07-09T11:55:50.000Z</time>
      </trkpt>
      <trkpt lat="44.10867" lon="6.67989">
        <ele>2387.6000976562</ele>
        <time>2022-07-09T11:55:55.000Z</time>
      </trkpt>
      <trkpt lat="44.10867" lon="6.67988">
        <ele>2388.1999511719</ele>
        <time>2022-07-09T11:55:57.000Z</time>
      </trkpt>
      <trkpt lat="44.10867" lon="6.67986">
        <ele>2388.8000488281</ele>
        <time>2022-07-09T11:56:00.000Z</time>
      </trkpt>
      <trkpt lat="44.10867" lon="6.67985">
        <ele>2389.1999511719</ele>
        <time>2022-07-09T11:56:02.000Z</time>
      </trkpt>
      <trkpt lat="44.10867" lon="6.67985">
        <ele>2390</ele>
        <time>2022-07-09T11:56:05.000Z</time>
      </trkpt>
      <trkpt lat="44.10867" lon="6.67984">
        <ele>2390.1999511719</ele>
        <time>2022-07-09T11:56:09.000Z</time>
      </trkpt>
      <trkpt lat="44.10866" lon="6.67984">
        <ele>2390.1999511719</ele>
        <time>2022-07-09T11:56:24.000Z</time>
      </trkpt>
      <trkpt lat="44.10866" lon="6.67984">
        <ele>2389.8000488281</ele>
        <time>2022-07-09T11:56:33.000Z</time>
      </trkpt>
      <trkpt lat="44.10868" lon="6.67984">
        <ele>2390.1999511719</ele>
        <time>2022-07-09T11:56:37.000Z</time>
      </trkpt>
      <trkpt lat="44.1087" lon="6.67985">
        <ele>2390.1999511719</ele>
        <time>2022-07-09T11:56:40.000Z</time>
      </trkpt>
      <trkpt lat="44.10872" lon="6.67983">
        <ele>2390.1999511719</ele>
        <time>2022-07-09T11:56:47.000Z</time>
      </trkpt>
      <trkpt lat="44.10874" lon="6.67981">
        <ele>2390.6000976562</ele>
        <time>2022-07-09T11:56:55.000Z</time>
      </trkpt>
      <trkpt lat="44.10874" lon="6.67979">
        <ele>2391</ele>
        <time>2022-07-09T11:56:58.000Z</time>
      </trkpt>
      <trkpt lat="44.10874" lon="6.67977">
        <ele>2392.3999023438</ele>
        <time>2022-07-09T11:57:03.000Z</time>
      </trkpt>
      <trkpt lat="44.10875" lon="6.67975">
        <ele>2393.6000976562</ele>
        <time>2022-07-09T11:57:07.000Z</time>
      </trkpt>
      <trkpt lat="44.10876" lon="6.67975">
        <ele>2393.8000488281</ele>
        <time>2022-07-09T11:57:08.000Z</time>
      </trkpt>
      <trkpt lat="44.10877" lon="6.67973">
        <ele>2394.3999023438</ele>
        <time>2022-07-09T11:57:13.000Z</time>
      </trkpt>
      <trkpt lat="44.10877" lon="6.67973">
        <ele>2394.6000976562</ele>
        <time>2022-07-09T11:57:14.000Z</time>
      </trkpt>
      <trkpt lat="44.10878" lon="6.6797">
        <ele>2395.3999023438</ele>
        <time>2022-07-09T11:57:19.000Z</time>
      </trkpt>
      <trkpt lat="44.10878" lon="6.6797">
        <ele>2395.6000976562</ele>
        <time>2022-07-09T11:57:20.000Z</time>
      </trkpt>
      <trkpt lat="44.1088" lon="6.67968">
        <ele>2396.3999023438</ele>
        <time>2022-07-09T11:57:25.000Z</time>
      </trkpt>
      <trkpt lat="44.1088" lon="6.67967">
        <ele>2396.6000976562</ele>
        <time>2022-07-09T11:57:27.000Z</time>
      </trkpt>
      <trkpt lat="44.1088" lon="6.67964">
        <ele>2397.3999023438</ele>
        <time>2022-07-09T11:57:31.000Z</time>
      </trkpt>
      <trkpt lat="44.1088" lon="6.67964">
        <ele>2397.8000488281</ele>
        <time>2022-07-09T11:57:32.000Z</time>
      </trkpt>
      <trkpt lat="44.10883" lon="6.67964">
        <ele>2398.6000976562</ele>
        <time>2022-07-09T11:57:38.000Z</time>
      </trkpt>
      <trkpt lat="44.10883" lon="6.67964">
        <ele>2398.8000488281</ele>
        <time>2022-07-09T11:57:39.000Z</time>
      </trkpt>
      <trkpt lat="44.10887" lon="6.67965">
        <ele>2399.1999511719</ele>
        <time>2022-07-09T11:57:44.000Z</time>
      </trkpt>
      <trkpt lat="44.10886" lon="6.67962">
        <ele>2399.8000488281</ele>
        <time>2022-07-09T11:57:50.000Z</time>
      </trkpt>
      <trkpt lat="44.10884" lon="6.6796">
        <ele>2400.6000976562</ele>
        <time>2022-07-09T11:57:56.000Z</time>
      </trkpt>
      <trkpt lat="44.10883" lon="6.67959">
        <ele>2400.8000488281</ele>
        <time>2022-07-09T11:57:59.000Z</time>
      </trkpt>
      <trkpt lat="44.10882" lon="6.67957">
        <ele>2401</ele>
        <time>2022-07-09T11:58:02.000Z</time>
      </trkpt>
      <trkpt lat="44.1088" lon="6.67954">
        <ele>2401.8000488281</ele>
        <time>2022-07-09T11:58:08.000Z</time>
      </trkpt>
      <trkpt lat="44.10879" lon="6.67953">
        <ele>2402.6000976562</ele>
        <time>2022-07-09T11:58:17.000Z</time>
      </trkpt>
      <trkpt lat="44.10876" lon="6.6795">
        <ele>2402.1999511719</ele>
        <time>2022-07-09T11:58:24.000Z</time>
      </trkpt>
      <trkpt lat="44.10872" lon="6.67946">
        <ele>2402.6000976562</ele>
        <time>2022-07-09T11:58:32.000Z</time>
      </trkpt>
      <trkpt lat="44.10871" lon="6.67946">
        <ele>2403</ele>
        <time>2022-07-09T11:58:34.000Z</time>
      </trkpt>
      <trkpt lat="44.10869" lon="6.67944">
        <ele>2404</ele>
        <time>2022-07-09T11:58:39.000Z</time>
      </trkpt>
      <trkpt lat="44.10866" lon="6.67941">
        <ele>2405.1999511719</ele>
        <time>2022-07-09T11:58:46.000Z</time>
      </trkpt>
      <trkpt lat="44.10869" lon="6.67937">
        <ele>2405.8000488281</ele>
        <time>2022-07-09T11:58:54.000Z</time>
      </trkpt>
      <trkpt lat="44.10871" lon="6.67937">
        <ele>2406.1999511719</ele>
        <time>2022-07-09T11:58:57.000Z</time>
      </trkpt>
      <trkpt lat="44.10873" lon="6.67938">
        <ele>2406.6000976562</ele>
        <time>2022-07-09T11:59:00.000Z</time>
      </trkpt>
      <trkpt lat="44.10875" lon="6.67939">
        <ele>2407.1999511719</ele>
        <time>2022-07-09T11:59:05.000Z</time>
      </trkpt>
      <trkpt lat="44.10876" lon="6.67938">
        <ele>2407.3999023438</ele>
        <time>2022-07-09T11:59:08.000Z</time>
      </trkpt>
      <trkpt lat="44.10875" lon="6.67935">
        <ele>2408.1999511719</ele>
        <time>2022-07-09T11:59:15.000Z</time>
      </trkpt>
      <trkpt lat="44.10872" lon="6.67931">
        <ele>2409.1999511719</ele>
        <time>2022-07-09T11:59:21.000Z</time>
      </trkpt>
      <trkpt lat="44.1087" lon="6.67928">
        <ele>2410.3999023438</ele>
        <time>2022-07-09T11:59:25.000Z</time>
      </trkpt>
      <trkpt lat="44.10867" lon="6.67925">
        <ele>2411</ele>
        <time>2022-07-09T11:59:29.000Z</time>
      </trkpt>
      <trkpt lat="44.10866" lon="6.67924">
        <ele>2411.3999023438</ele>
        <time>2022-07-09T11:59:31.000Z</time>
      </trkpt>
      <trkpt lat="44.10862" lon="6.6792">
        <ele>2412.1999511719</ele>
        <time>2022-07-09T11:59:38.000Z</time>
      </trkpt>
      <trkpt lat="44.1086" lon="6.67919">
        <ele>2412.3999023438</ele>
        <time>2022-07-09T11:59:40.000Z</time>
      </trkpt>
      <trkpt lat="44.10856" lon="6.67915">
        <ele>2413.6000976562</ele>
        <time>2022-07-09T11:59:47.000Z</time>
      </trkpt>
      <trkpt lat="44.10856" lon="6.67914">
        <ele>2413.6000976562</ele>
        <time>2022-07-09T11:59:48.000Z</time>
      </trkpt>
      <trkpt lat="44.1085" lon="6.6791">
        <ele>2414.6000976562</ele>
        <time>2022-07-09T11:59:56.000Z</time>
      </trkpt>
      <trkpt lat="44.10849" lon="6.67909">
        <ele>2415</ele>
        <time>2022-07-09T11:59:58.000Z</time>
      </trkpt>
      <trkpt lat="44.10843" lon="6.67905">
        <ele>2415.6000976562</ele>
        <time>2022-07-09T12:00:05.000Z</time>
      </trkpt>
      <trkpt lat="44.1084" lon="6.67903">
        <ele>2416.3999023438</ele>
        <time>2022-07-09T12:00:09.000Z</time>
      </trkpt>
      <trkpt lat="44.10837" lon="6.67901">
        <ele>2417</ele>
        <time>2022-07-09T12:00:13.000Z</time>
      </trkpt>
      <trkpt lat="44.10834" lon="6.67898">
        <ele>2417.3999023438</ele>
        <time>2022-07-09T12:00:19.000Z</time>
      </trkpt>
      <trkpt lat="44.1083" lon="6.67896">
        <ele>2418</ele>
        <time>2022-07-09T12:00:25.000Z</time>
      </trkpt>
      <trkpt lat="44.10826" lon="6.67895">
        <ele>2418.3999023438</ele>
        <time>2022-07-09T12:00:30.000Z</time>
      </trkpt>
      <trkpt lat="44.10818" lon="6.6789">
        <ele>2419</ele>
        <time>2022-07-09T12:00:40.000Z</time>
      </trkpt>
      <trkpt lat="44.10815" lon="6.67889">
        <ele>2419.1999511719</ele>
        <time>2022-07-09T12:00:42.000Z</time>
      </trkpt>
      <trkpt lat="44.10812" lon="6.67886">
        <ele>2420.3999023438</ele>
        <time>2022-07-09T12:00:46.000Z</time>
      </trkpt>
      <trkpt lat="44.10809" lon="6.67884">
        <ele>2420.6000976562</ele>
        <time>2022-07-09T12:00:49.000Z</time>
      </trkpt>
      <trkpt lat="44.10804" lon="6.6788">
        <ele>2421.3999023438</ele>
        <time>2022-07-09T12:00:55.000Z</time>
      </trkpt>
      <trkpt lat="44.10801" lon="6.67878">
        <ele>2421.8000488281</ele>
        <time>2022-07-09T12:00:58.000Z</time>
      </trkpt>
      <trkpt lat="44.10788" lon="6.6787">
        <ele>2422</ele>
        <time>2022-07-09T12:01:12.000Z</time>
      </trkpt>
      <trkpt lat="44.10782" lon="6.67867">
        <ele>2422.6000976562</ele>
        <time>2022-07-09T12:01:18.000Z</time>
      </trkpt>
      <trkpt lat="44.10777" lon="6.67864">
        <ele>2423</ele>
        <time>2022-07-09T12:01:23.000Z</time>
      </trkpt>
      <trkpt lat="44.10773" lon="6.67861">
        <ele>2423.6000976562</ele>
        <time>2022-07-09T12:01:28.000Z</time>
      </trkpt>
      <trkpt lat="44.10769" lon="6.67858">
        <ele>2423.6000976562</ele>
        <time>2022-07-09T12:01:32.000Z</time>
      </trkpt>
      <trkpt lat="44.10762" lon="6.67851">
        <ele>2424.8000488281</ele>
        <time>2022-07-09T12:01:42.000Z</time>
      </trkpt>
      <trkpt lat="44.10761" lon="6.67851">
        <ele>2425</ele>
        <time>2022-07-09T12:01:43.000Z</time>
      </trkpt>
      <trkpt lat="44.10762" lon="6.67851">
        <ele>2426</ele>
        <time>2022-07-09T12:01:49.000Z</time>
      </trkpt>
      <trkpt lat="44.10762" lon="6.67851">
        <ele>2426.6000976562</ele>
        <time>2022-07-09T12:02:14.000Z</time>
      </trkpt>
      <trkpt lat="44.10762" lon="6.67851">
        <ele>2426.1999511719</ele>
        <time>2022-07-09T12:02:37.000Z</time>
      </trkpt>
      <trkpt lat="44.10762" lon="6.67851">
        <ele>2426</ele>
        <time>2022-07-09T12:03:07.000Z</time>
      </trkpt>
      <trkpt lat="44.10763" lon="6.67852">
        <ele>2426.6000976562</ele>
        <time>2022-07-09T12:03:34.000Z</time>
      </trkpt>
      <trkpt lat="44.10763" lon="6.67852">
        <ele>2426.1999511719</ele>
        <time>2022-07-09T12:04:02.000Z</time>
      </trkpt>
      <trkpt lat="44.10763" lon="6.67852">
        <ele>2426</ele>
        <time>2022-07-09T12:04:33.000Z</time>
      </trkpt>
      <trkpt lat="44.10762" lon="6.67852">
        <ele>2425.1999511719</ele>
        <time>2022-07-09T12:04:58.000Z</time>
      </trkpt>
      <trkpt lat="44.10764" lon="6.6785">
        <ele>2426.1999511719</ele>
        <time>2022-07-09T12:05:20.000Z</time>
      </trkpt>
      <trkpt lat="44.10768" lon="6.67848">
        <ele>2427</ele>
        <time>2022-07-09T12:05:26.000Z</time>
      </trkpt>
      <trkpt lat="44.10772" lon="6.67848">
        <ele>2427.6000976562</ele>
        <time>2022-07-09T12:05:31.000Z</time>
      </trkpt>
      <trkpt lat="44.10774" lon="6.67849">
        <ele>2428</ele>
        <time>2022-07-09T12:05:34.000Z</time>
      </trkpt>
      <trkpt lat="44.10778" lon="6.67848">
        <ele>2428.1999511719</ele>
        <time>2022-07-09T12:05:40.000Z</time>
      </trkpt>
      <trkpt lat="44.10786" lon="6.67847">
        <ele>2429.1999511719</ele>
        <time>2022-07-09T12:05:50.000Z</time>
      </trkpt>
      <trkpt lat="44.10787" lon="6.67847">
        <ele>2429.3999023438</ele>
        <time>2022-07-09T12:05:51.000Z</time>
      </trkpt>
      <trkpt lat="44.10794" lon="6.67845">
        <ele>2430.1999511719</ele>
        <time>2022-07-09T12:06:01.000Z</time>
      </trkpt>
      <trkpt lat="44.10794" lon="6.67845">
        <ele>2430.1999511719</ele>
        <time>2022-07-09T12:06:02.000Z</time>
      </trkpt>
      <trkpt lat="44.10803" lon="6.67842">
        <ele>2431.1999511719</ele>
        <time>2022-07-09T12:06:14.000Z</time>
      </trkpt>
      <trkpt lat="44.10809" lon="6.67841">
        <ele>2432.3999023438</ele>
        <time>2022-07-09T12:06:24.000Z</time>
      </trkpt>
      <trkpt lat="44.1081" lon="6.6784">
        <ele>2432.3999023438</ele>
        <time>2022-07-09T12:06:25.000Z</time>
      </trkpt>
      <trkpt lat="44.10814" lon="6.67839">
        <ele>2433.3999023438</ele>
        <time>2022-07-09T12:06:32.000Z</time>
      </trkpt>
      <trkpt lat="44.10815" lon="6.67838">
        <ele>2433.6000976562</ele>
        <time>2022-07-09T12:06:34.000Z</time>
      </trkpt>
      <trkpt lat="44.10818" lon="6.67837">
        <ele>2434.1999511719</ele>
        <time>2022-07-09T12:06:43.000Z</time>
      </trkpt>
      <trkpt lat="44.10821" lon="6.67834">
        <ele>2434.6000976562</ele>
        <time>2022-07-09T12:06:50.000Z</time>
      </trkpt>
      <trkpt lat="44.10822" lon="6.67834">
        <ele>2434.6000976562</ele>
        <time>2022-07-09T12:06:51.000Z</time>
      </trkpt>
      <trkpt lat="44.10826" lon="6.67833">
        <ele>2435.6000976562</ele>
        <time>2022-07-09T12:06:57.000Z</time>
      </trkpt>
      <trkpt lat="44.10827" lon="6.67833">
        <ele>2435.6000976562</ele>
        <time>2022-07-09T12:06:58.000Z</time>
      </trkpt>
      <trkpt lat="44.10831" lon="6.67832">
        <ele>2436.6000976562</ele>
        <time>2022-07-09T12:07:03.000Z</time>
      </trkpt>
      <trkpt lat="44.10833" lon="6.67832">
        <ele>2436.8000488281</ele>
        <time>2022-07-09T12:07:07.000Z</time>
      </trkpt>
      <trkpt lat="44.1084" lon="6.6783">
        <ele>2437.6000976562</ele>
        <time>2022-07-09T12:07:17.000Z</time>
      </trkpt>
      <trkpt lat="44.10845" lon="6.67829">
        <ele>2438.6000976562</ele>
        <time>2022-07-09T12:07:25.000Z</time>
      </trkpt>
      <trkpt lat="44.1085" lon="6.67827">
        <ele>2439.8000488281</ele>
        <time>2022-07-09T12:07:33.000Z</time>
      </trkpt>
      <trkpt lat="44.10851" lon="6.67827">
        <ele>2440.1999511719</ele>
        <time>2022-07-09T12:07:34.000Z</time>
      </trkpt>
      <trkpt lat="44.10856" lon="6.67825">
        <ele>2440.6000976562</ele>
        <time>2022-07-09T12:07:44.000Z</time>
      </trkpt>
      <trkpt lat="44.10859" lon="6.67823">
        <ele>2440.8000488281</ele>
        <time>2022-07-09T12:07:50.000Z</time>
      </trkpt>
      <trkpt lat="44.10861" lon="6.67821">
        <ele>2441.1999511719</ele>
        <time>2022-07-09T12:07:53.000Z</time>
      </trkpt>
      <trkpt lat="44.10862" lon="6.67818">
        <ele>2442</ele>
        <time>2022-07-09T12:07:56.000Z</time>
      </trkpt>
      <trkpt lat="44.10864" lon="6.67813">
        <ele>2443.1999511719</ele>
        <time>2022-07-09T12:08:01.000Z</time>
      </trkpt>
      <trkpt lat="44.10868" lon="6.67801">
        <ele>2444</ele>
        <time>2022-07-09T12:08:12.000Z</time>
      </trkpt>
      <trkpt lat="44.10872" lon="6.67793">
        <ele>2444.3999023438</ele>
        <time>2022-07-09T12:08:19.000Z</time>
      </trkpt>
      <trkpt lat="44.10874" lon="6.67789">
        <ele>2445</ele>
        <time>2022-07-09T12:08:22.000Z</time>
      </trkpt>
      <trkpt lat="44.1088" lon="6.67779">
        <ele>2443.8000488281</ele>
        <time>2022-07-09T12:08:31.000Z</time>
      </trkpt>
      <trkpt lat="44.10882" lon="6.67771">
        <ele>2443.8000488281</ele>
        <time>2022-07-09T12:08:39.000Z</time>
      </trkpt>
      <trkpt lat="44.10885" lon="6.67766">
        <ele>2443.3999023438</ele>
        <time>2022-07-09T12:08:45.000Z</time>
      </trkpt>
      <trkpt lat="44.10885" lon="6.67763">
        <ele>2443.1999511719</ele>
        <time>2022-07-09T12:08:51.000Z</time>
      </trkpt>
      <trkpt lat="44.10887" lon="6.67755">
        <ele>2442.3999023438</ele>
        <time>2022-07-09T12:08:58.000Z</time>
      </trkpt>
      <trkpt lat="44.10889" lon="6.67749">
        <ele>2442.6000976562</ele>
        <time>2022-07-09T12:09:04.000Z</time>
      </trkpt>
      <trkpt lat="44.10892" lon="6.6774">
        <ele>2442.3999023438</ele>
        <time>2022-07-09T12:09:12.000Z</time>
      </trkpt>
      <trkpt lat="44.10893" lon="6.67738">
        <ele>2442.1999511719</ele>
        <time>2022-07-09T12:09:14.000Z</time>
      </trkpt>
      <trkpt lat="44.10893" lon="6.67733">
        <ele>2442.6000976562</ele>
        <time>2022-07-09T12:09:19.000Z</time>
      </trkpt>
      <trkpt lat="44.10894" lon="6.67729">
        <ele>2443.3999023438</ele>
        <time>2022-07-09T12:09:22.000Z</time>
      </trkpt>
      <trkpt lat="44.10895" lon="6.67726">
        <ele>2442.6000976562</ele>
        <time>2022-07-09T12:09:25.000Z</time>
      </trkpt>
      <trkpt lat="44.10895" lon="6.67725">
        <ele>2442.1999511719</ele>
        <time>2022-07-09T12:09:26.000Z</time>
      </trkpt>
      <trkpt lat="44.10896" lon="6.67718">
        <ele>2442.6000976562</ele>
        <time>2022-07-09T12:09:31.000Z</time>
      </trkpt>
      <trkpt lat="44.10899" lon="6.67711">
        <ele>2443</ele>
        <time>2022-07-09T12:09:38.000Z</time>
      </trkpt>
      <trkpt lat="44.10902" lon="6.67702">
        <ele>2443.3999023438</ele>
        <time>2022-07-09T12:09:45.000Z</time>
      </trkpt>
      <trkpt lat="44.10902" lon="6.67701">
        <ele>2443.3999023438</ele>
        <time>2022-07-09T12:09:46.000Z</time>
      </trkpt>
      <trkpt lat="44.10903" lon="6.67685">
        <ele>2443.8000488281</ele>
        <time>2022-07-09T12:09:57.000Z</time>
      </trkpt>
      <trkpt lat="44.10903" lon="6.67675">
        <ele>2443.8000488281</ele>
        <time>2022-07-09T12:10:05.000Z</time>
      </trkpt>
      <trkpt lat="44.10902" lon="6.67671">
        <ele>2443</ele>
        <time>2022-07-09T12:10:11.000Z</time>
      </trkpt>
      <trkpt lat="44.10904" lon="6.67664">
        <ele>2443.6000976562</ele>
        <time>2022-07-09T12:10:19.000Z</time>
      </trkpt>
      <trkpt lat="44.10905" lon="6.67659">
        <ele>2444</ele>
        <time>2022-07-09T12:10:24.000Z</time>
      </trkpt>
      <trkpt lat="44.10905" lon="6.67657">
        <ele>2444</ele>
        <time>2022-07-09T12:10:26.000Z</time>
      </trkpt>
      <trkpt lat="44.10907" lon="6.67651">
        <ele>2444.1999511719</ele>
        <time>2022-07-09T12:10:33.000Z</time>
      </trkpt>
      <trkpt lat="44.10907" lon="6.6765">
        <ele>2444.3999023438</ele>
        <time>2022-07-09T12:10:34.000Z</time>
      </trkpt>
      <trkpt lat="44.10907" lon="6.67648">
        <ele>2444.8000488281</ele>
        <time>2022-07-09T12:10:36.000Z</time>
      </trkpt>
      <trkpt lat="44.10907" lon="6.67647">
        <ele>2445.3999023438</ele>
        <time>2022-07-09T12:10:39.000Z</time>
      </trkpt>
      <trkpt lat="44.10906" lon="6.6764">
        <ele>2445</ele>
        <time>2022-07-09T12:10:48.000Z</time>
      </trkpt>
      <trkpt lat="44.10907" lon="6.67631">
        <ele>2443.8000488281</ele>
        <time>2022-07-09T12:10:58.000Z</time>
      </trkpt>
      <trkpt lat="44.10909" lon="6.67623">
        <ele>2444.3999023438</ele>
        <time>2022-07-09T12:11:07.000Z</time>
      </trkpt>
      <trkpt lat="44.10911" lon="6.67616">
        <ele>2445</ele>
        <time>2022-07-09T12:11:14.000Z</time>
      </trkpt>
      <trkpt lat="44.10911" lon="6.67612">
        <ele>2445.3999023438</ele>
        <time>2022-07-09T12:11:20.000Z</time>
      </trkpt>
      <trkpt lat="44.10912" lon="6.67605">
        <ele>2444.6000976562</ele>
        <time>2022-07-09T12:11:28.000Z</time>
      </trkpt>
      <trkpt lat="44.10914" lon="6.67597">
        <ele>2445.3999023438</ele>
        <time>2022-07-09T12:11:36.000Z</time>
      </trkpt>
      <trkpt lat="44.10914" lon="6.67598">
        <ele>2445.8000488281</ele>
        <time>2022-07-09T12:11:37.000Z</time>
      </trkpt>
      <trkpt lat="44.10914" lon="6.67596">
        <ele>2446.1999511719</ele>
        <time>2022-07-09T12:11:40.000Z</time>
      </trkpt>
      <trkpt lat="44.10915" lon="6.67595">
        <ele>2445.8000488281</ele>
        <time>2022-07-09T12:11:47.000Z</time>
      </trkpt>
      <trkpt lat="44.10915" lon="6.6759">
        <ele>2446.1999511719</ele>
        <time>2022-07-09T12:11:53.000Z</time>
      </trkpt>
      <trkpt lat="44.10915" lon="6.67585">
        <ele>2444.3999023438</ele>
        <time>2022-07-09T12:11:58.000Z</time>
      </trkpt>
      <trkpt lat="44.10915" lon="6.67583">
        <ele>2444.3999023438</ele>
        <time>2022-07-09T12:12:01.000Z</time>
      </trkpt>
      <trkpt lat="44.10916" lon="6.67579">
        <ele>2443.8000488281</ele>
        <time>2022-07-09T12:12:08.000Z</time>
      </trkpt>
      <trkpt lat="44.10918" lon="6.67576">
        <ele>2444.6000976562</ele>
        <time>2022-07-09T12:12:14.000Z</time>
      </trkpt>
      <trkpt lat="44.10918" lon="6.67573">
        <ele>2444.3999023438</ele>
        <time>2022-07-09T12:12:18.000Z</time>
      </trkpt>
      <trkpt lat="44.10918" lon="6.67571">
        <ele>2444.6000976562</ele>
        <time>2022-07-09T12:12:21.000Z</time>
      </trkpt>
      <trkpt lat="44.10918" lon="6.67567">
        <ele>2444.6000976562</ele>
        <time>2022-07-09T12:12:28.000Z</time>
      </trkpt>
      <trkpt lat="44.10919" lon="6.67565">
        <ele>2444.1999511719</ele>
        <time>2022-07-09T12:12:30.000Z</time>
      </trkpt>
      <trkpt lat="44.10919" lon="6.67563">
        <ele>2444</ele>
        <time>2022-07-09T12:12:33.000Z</time>
      </trkpt>
      <trkpt lat="44.1092" lon="6.67559">
        <ele>2444.8000488281</ele>
        <time>2022-07-09T12:12:39.000Z</time>
      </trkpt>
      <trkpt lat="44.1092" lon="6.67552">
        <ele>2444.8000488281</ele>
        <time>2022-07-09T12:12:46.000Z</time>
      </trkpt>
      <trkpt lat="44.10921" lon="6.67549">
        <ele>2445.1999511719</ele>
        <time>2022-07-09T12:12:50.000Z</time>
      </trkpt>
      <trkpt lat="44.10921" lon="6.67548">
        <ele>2445.3999023438</ele>
        <time>2022-07-09T12:12:51.000Z</time>
      </trkpt>
      <trkpt lat="44.10921" lon="6.67542">
        <ele>2445.6000976562</ele>
        <time>2022-07-09T12:12:57.000Z</time>
      </trkpt>
      <trkpt lat="44.10922" lon="6.67532">
        <ele>2444.8000488281</ele>
        <time>2022-07-09T12:13:05.000Z</time>
      </trkpt>
      <trkpt lat="44.10922" lon="6.67529">
        <ele>2444.3999023438</ele>
        <time>2022-07-09T12:13:07.000Z</time>
      </trkpt>
      <trkpt lat="44.10922" lon="6.67521">
        <ele>2444.6000976562</ele>
        <time>2022-07-09T12:13:13.000Z</time>
      </trkpt>
      <trkpt lat="44.10922" lon="6.67513">
        <ele>2445.1999511719</ele>
        <time>2022-07-09T12:13:19.000Z</time>
      </trkpt>
      <trkpt lat="44.10922" lon="6.67512">
        <ele>2445.1999511719</ele>
        <time>2022-07-09T12:13:20.000Z</time>
      </trkpt>
      <trkpt lat="44.10921" lon="6.67505">
        <ele>2445.3999023438</ele>
        <time>2022-07-09T12:13:25.000Z</time>
      </trkpt>
      <trkpt lat="44.10922" lon="6.67504">
        <ele>2445.3999023438</ele>
        <time>2022-07-09T12:13:26.000Z</time>
      </trkpt>
      <trkpt lat="44.10921" lon="6.67498">
        <ele>2445.6000976562</ele>
        <time>2022-07-09T12:13:31.000Z</time>
      </trkpt>
      <trkpt lat="44.10921" lon="6.67497">
        <ele>2445.6000976562</ele>
        <time>2022-07-09T12:13:32.000Z</time>
      </trkpt>
      <trkpt lat="44.10926" lon="6.67484">
        <ele>2445.3999023438</ele>
        <time>2022-07-09T12:13:42.000Z</time>
      </trkpt>
      <trkpt lat="44.10926" lon="6.67478">
        <ele>2445.1999511719</ele>
        <time>2022-07-09T12:13:46.000Z</time>
      </trkpt>
      <trkpt lat="44.10926" lon="6.67474">
        <ele>2445.6000976562</ele>
        <time>2022-07-09T12:13:49.000Z</time>
      </trkpt>
      <trkpt lat="44.10926" lon="6.67473">
        <ele>2445.6000976562</ele>
        <time>2022-07-09T12:13:50.000Z</time>
      </trkpt>
      <trkpt lat="44.10929" lon="6.67467">
        <ele>2445.6000976562</ele>
        <time>2022-07-09T12:13:57.000Z</time>
      </trkpt>
      <trkpt lat="44.10932" lon="6.6746">
        <ele>2445.1999511719</ele>
        <time>2022-07-09T12:14:04.000Z</time>
      </trkpt>
      <trkpt lat="44.10933" lon="6.67456">
        <ele>2444.3999023438</ele>
        <time>2022-07-09T12:14:07.000Z</time>
      </trkpt>
      <trkpt lat="44.10935" lon="6.67449">
        <ele>2443.3999023438</ele>
        <time>2022-07-09T12:14:13.000Z</time>
      </trkpt>
      <trkpt lat="44.10936" lon="6.67446">
        <ele>2443</ele>
        <time>2022-07-09T12:14:16.000Z</time>
      </trkpt>
      <trkpt lat="44.10936" lon="6.67442">
        <ele>2442.6000976562</ele>
        <time>2022-07-09T12:14:20.000Z</time>
      </trkpt>
      <trkpt lat="44.10937" lon="6.67436">
        <ele>2442.1999511719</ele>
        <time>2022-07-09T12:14:25.000Z</time>
      </trkpt>
      <trkpt lat="44.10937" lon="6.67435">
        <ele>2441.8000488281</ele>
        <time>2022-07-09T12:14:29.000Z</time>
      </trkpt>
      <trkpt lat="44.10937" lon="6.67435">
        <ele>2441.1999511719</ele>
        <time>2022-07-09T12:14:41.000Z</time>
      </trkpt>
      <trkpt lat="44.10937" lon="6.67435">
        <ele>2440.3999023438</ele>
        <time>2022-07-09T12:14:49.000Z</time>
      </trkpt>
      <trkpt lat="44.10938" lon="6.67435">
        <ele>2440.8000488281</ele>
        <time>2022-07-09T12:15:10.000Z</time>
      </trkpt>
      <trkpt lat="44.10939" lon="6.67436">
        <ele>2440.8000488281</ele>
        <time>2022-07-09T12:15:32.000Z</time>
      </trkpt>
      <trkpt lat="44.1094" lon="6.67437">
        <ele>2441.1999511719</ele>
        <time>2022-07-09T12:15:40.000Z</time>
      </trkpt>
      <trkpt lat="44.1094" lon="6.67439">
        <ele>2441</ele>
        <time>2022-07-09T12:15:54.000Z</time>
      </trkpt>
      <trkpt lat="44.10942" lon="6.67441">
        <ele>2440.6000976562</ele>
        <time>2022-07-09T12:16:06.000Z</time>
      </trkpt>
      <trkpt lat="44.10949" lon="6.67448">
        <ele>2440.1999511719</ele>
        <time>2022-07-09T12:16:10.000Z</time>
      </trkpt>
      <trkpt lat="44.10951" lon="6.67448">
        <ele>2440</ele>
        <time>2022-07-09T12:16:11.000Z</time>
      </trkpt>
      <trkpt lat="44.10954" lon="6.6745">
        <ele>2439.8000488281</ele>
        <time>2022-07-09T12:16:12.000Z</time>
      </trkpt>
      <trkpt lat="44.10957" lon="6.67452">
        <ele>2439.1999511719</ele>
        <time>2022-07-09T12:16:14.000Z</time>
      </trkpt>
      <trkpt lat="44.10958" lon="6.6745">
        <ele>2438.8000488281</ele>
        <time>2022-07-09T12:16:15.000Z</time>
      </trkpt>
      <trkpt lat="44.10957" lon="6.67448">
        <ele>2437.6000976562</ele>
        <time>2022-07-09T12:16:17.000Z</time>
      </trkpt>
      <trkpt lat="44.10956" lon="6.67446">
        <ele>2437.3999023438</ele>
        <time>2022-07-09T12:16:18.000Z</time>
      </trkpt>
      <trkpt lat="44.10953" lon="6.67439">
        <ele>2436.6000976562</ele>
        <time>2022-07-09T12:16:20.000Z</time>
      </trkpt>
      <trkpt lat="44.10949" lon="6.67428">
        <ele>2436.1999511719</ele>
        <time>2022-07-09T12:16:22.000Z</time>
      </trkpt>
      <trkpt lat="44.10944" lon="6.67418">
        <ele>2435.6000976562</ele>
        <time>2022-07-09T12:16:24.000Z</time>
      </trkpt>
      <trkpt lat="44.10942" lon="6.67413">
        <ele>2434.8000488281</ele>
        <time>2022-07-09T12:16:25.000Z</time>
      </trkpt>
      <trkpt lat="44.1094" lon="6.67408">
        <ele>2434</ele>
        <time>2022-07-09T12:16:26.000Z</time>
      </trkpt>
      <trkpt lat="44.10939" lon="6.67404">
        <ele>2433.8000488281</ele>
        <time>2022-07-09T12:16:27.000Z</time>
      </trkpt>
      <trkpt lat="44.10937" lon="6.67396">
        <ele>2432.3999023438</ele>
        <time>2022-07-09T12:16:29.000Z</time>
      </trkpt>
      <trkpt lat="44.10936" lon="6.67385">
        <ele>2431.3999023438</ele>
        <time>2022-07-09T12:16:31.000Z</time>
      </trkpt>
      <trkpt lat="44.10936" lon="6.6738">
        <ele>2430.6000976562</ele>
        <time>2022-07-09T12:16:32.000Z</time>
      </trkpt>
      <trkpt lat="44.10937" lon="6.67374">
        <ele>2430.1999511719</ele>
        <time>2022-07-09T12:16:33.000Z</time>
      </trkpt>
      <trkpt lat="44.10938" lon="6.6736">
        <ele>2429.3999023438</ele>
        <time>2022-07-09T12:16:35.000Z</time>
      </trkpt>
      <trkpt lat="44.1094" lon="6.67352">
        <ele>2428.8000488281</ele>
        <time>2022-07-09T12:16:36.000Z</time>
      </trkpt>
      <trkpt lat="44.10942" lon="6.67342">
        <ele>2427.3999023438</ele>
        <time>2022-07-09T12:16:38.000Z</time>
      </trkpt>
      <trkpt lat="44.10943" lon="6.67339">
        <ele>2426.1999511719</ele>
        <time>2022-07-09T12:16:39.000Z</time>
      </trkpt>
      <trkpt lat="44.10942" lon="6.67336">
        <ele>2425</ele>
        <time>2022-07-09T12:16:41.000Z</time>
      </trkpt>
      <trkpt lat="44.10942" lon="6.67337">
        <ele>2423.8000488281</ele>
        <time>2022-07-09T12:16:43.000Z</time>
      </trkpt>
      <trkpt lat="44.10942" lon="6.67337">
        <ele>2423.6000976562</ele>
        <time>2022-07-09T12:16:44.000Z</time>
      </trkpt>
      <trkpt lat="44.10943" lon="6.67336">
        <ele>2423.6000976562</ele>
        <time>2022-07-09T12:16:50.000Z</time>
      </trkpt>
      <trkpt lat="44.10944" lon="6.67336">
        <ele>2423.6000976562</ele>
        <time>2022-07-09T12:16:51.000Z</time>
      </trkpt>
      <trkpt lat="44.10945" lon="6.67338">
        <ele>2423.8000488281</ele>
        <time>2022-07-09T12:16:56.000Z</time>
      </trkpt>
      <trkpt lat="44.1095" lon="6.67349">
        <ele>2423.1999511719</ele>
        <time>2022-07-09T12:17:01.000Z</time>
      </trkpt>
      <trkpt lat="44.10959" lon="6.67358">
        <ele>2422.8000488281</ele>
        <time>2022-07-09T12:17:04.000Z</time>
      </trkpt>
      <trkpt lat="44.10967" lon="6.67363">
        <ele>2422.3999023438</ele>
        <time>2022-07-09T12:17:06.000Z</time>
      </trkpt>
      <trkpt lat="44.10971" lon="6.67366">
        <ele>2422.1999511719</ele>
        <time>2022-07-09T12:17:07.000Z</time>
      </trkpt>
      <trkpt lat="44.10979" lon="6.67373">
        <ele>2421.1999511719</ele>
        <time>2022-07-09T12:17:09.000Z</time>
      </trkpt>
      <trkpt lat="44.10984" lon="6.67383">
        <ele>2420.1999511719</ele>
        <time>2022-07-09T12:17:11.000Z</time>
      </trkpt>
      <trkpt lat="44.10987" lon="6.67388">
        <ele>2418.8000488281</ele>
        <time>2022-07-09T12:17:12.000Z</time>
      </trkpt>
      <trkpt lat="44.10993" lon="6.67396">
        <ele>2417.6000976562</ele>
        <time>2022-07-09T12:17:14.000Z</time>
      </trkpt>
      <trkpt lat="44.11003" lon="6.67411">
        <ele>2416.6000976562</ele>
        <time>2022-07-09T12:17:18.000Z</time>
      </trkpt>
      <trkpt lat="44.11008" lon="6.67419">
        <ele>2415.1999511719</ele>
        <time>2022-07-09T12:17:20.000Z</time>
      </trkpt>
      <trkpt lat="44.11013" lon="6.67428">
        <ele>2414.3999023438</ele>
        <time>2022-07-09T12:17:23.000Z</time>
      </trkpt>
      <trkpt lat="44.11013" lon="6.67428">
        <ele>2414.1999511719</ele>
        <time>2022-07-09T12:17:24.000Z</time>
      </trkpt>
      <trkpt lat="44.11014" lon="6.6743">
        <ele>2413.6000976562</ele>
        <time>2022-07-09T12:17:27.000Z</time>
      </trkpt>
      <trkpt lat="44.11016" lon="6.67435">
        <ele>2413.3999023438</ele>
        <time>2022-07-09T12:17:34.000Z</time>
      </trkpt>
      <trkpt lat="44.11018" lon="6.67439">
        <ele>2413.1999511719</ele>
        <time>2022-07-09T12:17:39.000Z</time>
      </trkpt>
      <trkpt lat="44.11019" lon="6.6744">
        <ele>2413</ele>
        <time>2022-07-09T12:17:40.000Z</time>
      </trkpt>
      <trkpt lat="44.11024" lon="6.67449">
        <ele>2412.3999023438</ele>
        <time>2022-07-09T12:17:48.000Z</time>
      </trkpt>
      <trkpt lat="44.11029" lon="6.67457">
        <ele>2412</ele>
        <time>2022-07-09T12:17:55.000Z</time>
      </trkpt>
      <trkpt lat="44.11029" lon="6.67458">
        <ele>2411.8000488281</ele>
        <time>2022-07-09T12:17:56.000Z</time>
      </trkpt>
      <trkpt lat="44.11031" lon="6.67463">
        <ele>2411</ele>
        <time>2022-07-09T12:18:00.000Z</time>
      </trkpt>
      <trkpt lat="44.11034" lon="6.67467">
        <ele>2411</ele>
        <time>2022-07-09T12:18:04.000Z</time>
      </trkpt>
      <trkpt lat="44.11038" lon="6.67473">
        <ele>2410.3999023438</ele>
        <time>2022-07-09T12:18:11.000Z</time>
      </trkpt>
      <trkpt lat="44.11039" lon="6.67476">
        <ele>2410</ele>
        <time>2022-07-09T12:18:14.000Z</time>
      </trkpt>
      <trkpt lat="44.11041" lon="6.6748">
        <ele>2409.3999023438</ele>
        <time>2022-07-09T12:18:18.000Z</time>
      </trkpt>
      <trkpt lat="44.11048" lon="6.67488">
        <ele>2409.1999511719</ele>
        <time>2022-07-09T12:18:27.000Z</time>
      </trkpt>
      <trkpt lat="44.11051" lon="6.67493">
        <ele>2408.8000488281</ele>
        <time>2022-07-09T12:18:31.000Z</time>
      </trkpt>
      <trkpt lat="44.11052" lon="6.67495">
        <ele>2408.1999511719</ele>
        <time>2022-07-09T12:18:34.000Z</time>
      </trkpt>
      <trkpt lat="44.11053" lon="6.67498">
        <ele>2407.6000976562</ele>
        <time>2022-07-09T12:18:36.000Z</time>
      </trkpt>
      <trkpt lat="44.11056" lon="6.67502">
        <ele>2406.6000976562</ele>
        <time>2022-07-09T12:18:40.000Z</time>
      </trkpt>
      <trkpt lat="44.11057" lon="6.67504">
        <ele>2406.3999023438</ele>
        <time>2022-07-09T12:18:42.000Z</time>
      </trkpt>
      <trkpt lat="44.11061" lon="6.67509">
        <ele>2406</ele>
        <time>2022-07-09T12:18:49.000Z</time>
      </trkpt>
      <trkpt lat="44.11066" lon="6.67516">
        <ele>2407</ele>
        <time>2022-07-09T12:18:57.000Z</time>
      </trkpt>
      <trkpt lat="44.11072" lon="6.67519">
        <ele>2406.6000976562</ele>
        <time>2022-07-09T12:19:04.000Z</time>
      </trkpt>
      <trkpt lat="44.11078" lon="6.67525">
        <ele>2405.6000976562</ele>
        <time>2022-07-09T12:19:12.000Z</time>
      </trkpt>
      <trkpt lat="44.11079" lon="6.67526">
        <ele>2405.6000976562</ele>
        <time>2022-07-09T12:19:14.000Z</time>
      </trkpt>
      <trkpt lat="44.11084" lon="6.67529">
        <ele>2405</ele>
        <time>2022-07-09T12:19:20.000Z</time>
      </trkpt>
      <trkpt lat="44.11089" lon="6.67528">
        <ele>2405.1999511719</ele>
        <time>2022-07-09T12:19:26.000Z</time>
      </trkpt>
      <trkpt lat="44.11096" lon="6.67531">
        <ele>2404.3999023438</ele>
        <time>2022-07-09T12:19:32.000Z</time>
      </trkpt>
      <trkpt lat="44.11097" lon="6.67532">
        <ele>2404.3999023438</ele>
        <time>2022-07-09T12:19:33.000Z</time>
      </trkpt>
      <trkpt lat="44.11102" lon="6.67538">
        <ele>2403.6000976562</ele>
        <time>2022-07-09T12:19:41.000Z</time>
      </trkpt>
      <trkpt lat="44.11106" lon="6.6754">
        <ele>2403.8000488281</ele>
        <time>2022-07-09T12:19:47.000Z</time>
      </trkpt>
      <trkpt lat="44.11114" lon="6.67542">
        <ele>2403.1999511719</ele>
        <time>2022-07-09T12:19:51.000Z</time>
      </trkpt>
      <trkpt lat="44.11119" lon="6.67544">
        <ele>2403</ele>
        <time>2022-07-09T12:19:53.000Z</time>
      </trkpt>
      <trkpt lat="44.11125" lon="6.6755">
        <ele>2402.1999511719</ele>
        <time>2022-07-09T12:19:56.000Z</time>
      </trkpt>
      <trkpt lat="44.11127" lon="6.67552">
        <ele>2401.3999023438</ele>
        <time>2022-07-09T12:19:58.000Z</time>
      </trkpt>
      <trkpt lat="44.11128" lon="6.67552">
        <ele>2401.1999511719</ele>
        <time>2022-07-09T12:19:59.000Z</time>
      </trkpt>
      <trkpt lat="44.11128" lon="6.67552">
        <ele>2400.1999511719</ele>
        <time>2022-07-09T12:20:03.000Z</time>
      </trkpt>
      <trkpt lat="44.1113" lon="6.67552">
        <ele>2400</ele>
        <time>2022-07-09T12:20:05.000Z</time>
      </trkpt>
      <trkpt lat="44.11133" lon="6.67552">
        <ele>2399.8000488281</ele>
        <time>2022-07-09T12:20:09.000Z</time>
      </trkpt>
      <trkpt lat="44.11133" lon="6.67552">
        <ele>2399.8000488281</ele>
        <time>2022-07-09T12:20:10.000Z</time>
      </trkpt>
      <trkpt lat="44.11138" lon="6.67552">
        <ele>2399.6000976562</ele>
        <time>2022-07-09T12:20:16.000Z</time>
      </trkpt>
      <trkpt lat="44.11143" lon="6.67555">
        <ele>2399</ele>
        <time>2022-07-09T12:20:23.000Z</time>
      </trkpt>
      <trkpt lat="44.11144" lon="6.67556">
        <ele>2398.8000488281</ele>
        <time>2022-07-09T12:20:24.000Z</time>
      </trkpt>
      <trkpt lat="44.11152" lon="6.67561">
        <ele>2398.1999511719</ele>
        <time>2022-07-09T12:20:32.000Z</time>
      </trkpt>
      <trkpt lat="44.11154" lon="6.67566">
        <ele>2398</ele>
        <time>2022-07-09T12:20:36.000Z</time>
      </trkpt>
      <trkpt lat="44.11155" lon="6.6757">
        <ele>2397.6000976562</ele>
        <time>2022-07-09T12:20:40.000Z</time>
      </trkpt>
      <trkpt lat="44.11159" lon="6.67575">
        <ele>2397.8000488281</ele>
        <time>2022-07-09T12:20:47.000Z</time>
      </trkpt>
      <trkpt lat="44.11164" lon="6.67576">
        <ele>2397.3999023438</ele>
        <time>2022-07-09T12:20:55.000Z</time>
      </trkpt>
      <trkpt lat="44.11164" lon="6.67575">
        <ele>2397.1999511719</ele>
        <time>2022-07-09T12:20:56.000Z</time>
      </trkpt>
      <trkpt lat="44.11168" lon="6.67573">
        <ele>2396.8000488281</ele>
        <time>2022-07-09T12:21:00.000Z</time>
      </trkpt>
      <trkpt lat="44.1117" lon="6.67573">
        <ele>2396.6000976562</ele>
        <time>2022-07-09T12:21:02.000Z</time>
      </trkpt>
      <trkpt lat="44.11177" lon="6.67573">
        <ele>2396.3999023438</ele>
        <time>2022-07-09T12:21:09.000Z</time>
      </trkpt>
      <trkpt lat="44.11185" lon="6.67574">
        <ele>2395.8000488281</ele>
        <time>2022-07-09T12:21:17.000Z</time>
      </trkpt>
      <trkpt lat="44.11186" lon="6.67575">
        <ele>2395.8000488281</ele>
        <time>2022-07-09T12:21:18.000Z</time>
      </trkpt>
      <trkpt lat="44.11192" lon="6.67578">
        <ele>2395</ele>
        <time>2022-07-09T12:21:25.000Z</time>
      </trkpt>
      <trkpt lat="44.11194" lon="6.67579">
        <ele>2394.3999023438</ele>
        <time>2022-07-09T12:21:28.000Z</time>
      </trkpt>
      <trkpt lat="44.11195" lon="6.6758">
        <ele>2394.1999511719</ele>
        <time>2022-07-09T12:21:29.000Z</time>
      </trkpt>
      <trkpt lat="44.112" lon="6.67586">
        <ele>2394</ele>
        <time>2022-07-09T12:21:36.000Z</time>
      </trkpt>
      <trkpt lat="44.11202" lon="6.67591">
        <ele>2393.6000976562</ele>
        <time>2022-07-09T12:21:43.000Z</time>
      </trkpt>
      <trkpt lat="44.11203" lon="6.67593">
        <ele>2393.3999023438</ele>
        <time>2022-07-09T12:21:46.000Z</time>
      </trkpt>
      <trkpt lat="44.11206" lon="6.67592">
        <ele>2393</ele>
        <time>2022-07-09T12:21:51.000Z</time>
      </trkpt>
      <trkpt lat="44.11209" lon="6.67591">
        <ele>2392</ele>
        <time>2022-07-09T12:21:55.000Z</time>
      </trkpt>
      <trkpt lat="44.11212" lon="6.67591">
        <ele>2391.3999023438</ele>
        <time>2022-07-09T12:21:59.000Z</time>
      </trkpt>
      <trkpt lat="44.11215" lon="6.67589">
        <ele>2391.3999023438</ele>
        <time>2022-07-09T12:22:07.000Z</time>
      </trkpt>
      <trkpt lat="44.11217" lon="6.67588">
        <ele>2391</ele>
        <time>2022-07-09T12:22:10.000Z</time>
      </trkpt>
      <trkpt lat="44.11218" lon="6.67588">
        <ele>2390.6000976562</ele>
        <time>2022-07-09T12:22:13.000Z</time>
      </trkpt>
      <trkpt lat="44.11222" lon="6.67588">
        <ele>2390.6000976562</ele>
        <time>2022-07-09T12:22:20.000Z</time>
      </trkpt>
      <trkpt lat="44.11225" lon="6.67588">
        <ele>2391.1999511719</ele>
        <time>2022-07-09T12:22:24.000Z</time>
      </trkpt>
      <trkpt lat="44.11229" lon="6.67589">
        <ele>2392</ele>
        <time>2022-07-09T12:22:28.000Z</time>
      </trkpt>
      <trkpt lat="44.1123" lon="6.6759">
        <ele>2392.1999511719</ele>
        <time>2022-07-09T12:22:29.000Z</time>
      </trkpt>
      <trkpt lat="44.11235" lon="6.67593">
        <ele>2391.1999511719</ele>
        <time>2022-07-09T12:22:36.000Z</time>
      </trkpt>
      <trkpt lat="44.11241" lon="6.67591">
        <ele>2391.1999511719</ele>
        <time>2022-07-09T12:22:43.000Z</time>
      </trkpt>
      <trkpt lat="44.11242" lon="6.6759">
        <ele>2391.1999511719</ele>
        <time>2022-07-09T12:22:44.000Z</time>
      </trkpt>
      <trkpt lat="44.11246" lon="6.67586">
        <ele>2390.3999023438</ele>
        <time>2022-07-09T12:22:51.000Z</time>
      </trkpt>
      <trkpt lat="44.11252" lon="6.67582">
        <ele>2390</ele>
        <time>2022-07-09T12:22:58.000Z</time>
      </trkpt>
      <trkpt lat="44.11254" lon="6.67581">
        <ele>2389.3999023438</ele>
        <time>2022-07-09T12:23:00.000Z</time>
      </trkpt>
      <trkpt lat="44.11259" lon="6.67581">
        <ele>2389</ele>
        <time>2022-07-09T12:23:07.000Z</time>
      </trkpt>
      <trkpt lat="44.11257" lon="6.67581">
        <ele>2388.1999511719</ele>
        <time>2022-07-09T12:23:14.000Z</time>
      </trkpt>
      <trkpt lat="44.11256" lon="6.67582">
        <ele>2387.8000488281</ele>
        <time>2022-07-09T12:23:28.000Z</time>
      </trkpt>
      <trkpt lat="44.11256" lon="6.67582">
        <ele>2387.8000488281</ele>
        <time>2022-07-09T12:23:29.000Z</time>
      </trkpt>
      <trkpt lat="44.11255" lon="6.67584">
        <ele>2388</ele>
        <time>2022-07-09T12:23:50.000Z</time>
      </trkpt>
      <trkpt lat="44.11255" lon="6.67584">
        <ele>2388.1999511719</ele>
        <time>2022-07-09T12:24:01.000Z</time>
      </trkpt>
      <trkpt lat="44.11255" lon="6.67583">
        <ele>2388.3999023438</ele>
        <time>2022-07-09T12:24:07.000Z</time>
      </trkpt>
      <trkpt lat="44.11257" lon="6.67583">
        <ele>2388.1999511719</ele>
        <time>2022-07-09T12:24:15.000Z</time>
      </trkpt>
      <trkpt lat="44.1126" lon="6.67582">
        <ele>2388.3999023438</ele>
        <time>2022-07-09T12:24:20.000Z</time>
      </trkpt>
      <trkpt lat="44.11267" lon="6.67583">
        <ele>2387.8000488281</ele>
        <time>2022-07-09T12:24:27.000Z</time>
      </trkpt>
      <trkpt lat="44.11272" lon="6.67585">
        <ele>2386.8000488281</ele>
        <time>2022-07-09T12:24:35.000Z</time>
      </trkpt>
      <trkpt lat="44.11276" lon="6.67586">
        <ele>2386.3999023438</ele>
        <time>2022-07-09T12:24:41.000Z</time>
      </trkpt>
      <trkpt lat="44.11277" lon="6.67587">
        <ele>2386</ele>
        <time>2022-07-09T12:24:47.000Z</time>
      </trkpt>
      <trkpt lat="44.1128" lon="6.67593">
        <ele>2385.8000488281</ele>
        <time>2022-07-09T12:24:54.000Z</time>
      </trkpt>
      <trkpt lat="44.1128" lon="6.67593">
        <ele>2385.8000488281</ele>
        <time>2022-07-09T12:24:55.000Z</time>
      </trkpt>
      <trkpt lat="44.11283" lon="6.67596">
        <ele>2386</ele>
        <time>2022-07-09T12:25:01.000Z</time>
      </trkpt>
      <trkpt lat="44.11288" lon="6.67594">
        <ele>2385.6000976562</ele>
        <time>2022-07-09T12:25:08.000Z</time>
      </trkpt>
      <trkpt lat="44.11292" lon="6.67593">
        <ele>2384.8000488281</ele>
        <time>2022-07-09T12:25:14.000Z</time>
      </trkpt>
      <trkpt lat="44.11294" lon="6.67593">
        <ele>2384.8000488281</ele>
        <time>2022-07-09T12:25:16.000Z</time>
      </trkpt>
      <trkpt lat="44.11303" lon="6.67594">
        <ele>2384.1999511719</ele>
        <time>2022-07-09T12:25:25.000Z</time>
      </trkpt>
      <trkpt lat="44.11307" lon="6.67594">
        <ele>2383.8000488281</ele>
        <time>2022-07-09T12:25:29.000Z</time>
      </trkpt>
      <trkpt lat="44.11309" lon="6.67596">
        <ele>2383.6000976562</ele>
        <time>2022-07-09T12:25:32.000Z</time>
      </trkpt>
      <trkpt lat="44.11316" lon="6.67599">
        <ele>2382.6000976562</ele>
        <time>2022-07-09T12:25:41.000Z</time>
      </trkpt>
      <trkpt lat="44.11317" lon="6.67599">
        <ele>2382.3999023438</ele>
        <time>2022-07-09T12:25:43.000Z</time>
      </trkpt>
      <trkpt lat="44.11322" lon="6.676">
        <ele>2382.1999511719</ele>
        <time>2022-07-09T12:25:47.000Z</time>
      </trkpt>
      <trkpt lat="44.11329" lon="6.67598">
        <ele>2382</ele>
        <time>2022-07-09T12:25:55.000Z</time>
      </trkpt>
      <trkpt lat="44.1133" lon="6.67598">
        <ele>2381.6000976562</ele>
        <time>2022-07-09T12:25:57.000Z</time>
      </trkpt>
      <trkpt lat="44.11333" lon="6.67598">
        <ele>2380.3999023438</ele>
        <time>2022-07-09T12:26:02.000Z</time>
      </trkpt>
      <trkpt lat="44.11334" lon="6.67598">
        <ele>2380.1999511719</ele>
        <time>2022-07-09T12:26:03.000Z</time>
      </trkpt>
      <trkpt lat="44.11337" lon="6.67599">
        <ele>2380.1999511719</ele>
        <time>2022-07-09T12:26:09.000Z</time>
      </trkpt>
      <trkpt lat="44.11342" lon="6.67601">
        <ele>2379.6000976562</ele>
        <time>2022-07-09T12:26:17.000Z</time>
      </trkpt>
      <trkpt lat="44.11343" lon="6.67602">
        <ele>2379.3999023438</ele>
        <time>2022-07-09T12:26:19.000Z</time>
      </trkpt>
      <trkpt lat="44.11346" lon="6.67602">
        <ele>2379.3999023438</ele>
        <time>2022-07-09T12:26:23.000Z</time>
      </trkpt>
      <trkpt lat="44.1135" lon="6.67603">
        <ele>2379</ele>
        <time>2022-07-09T12:26:29.000Z</time>
      </trkpt>
      <trkpt lat="44.11355" lon="6.67603">
        <ele>2379</ele>
        <time>2022-07-09T12:26:34.000Z</time>
      </trkpt>
      <trkpt lat="44.11358" lon="6.67602">
        <ele>2378</ele>
        <time>2022-07-09T12:26:39.000Z</time>
      </trkpt>
      <trkpt lat="44.11358" lon="6.67601">
        <ele>2377.8000488281</ele>
        <time>2022-07-09T12:26:40.000Z</time>
      </trkpt>
      <trkpt lat="44.11363" lon="6.67601">
        <ele>2377</ele>
        <time>2022-07-09T12:26:46.000Z</time>
      </trkpt>
      <trkpt lat="44.11364" lon="6.67601">
        <ele>2377</ele>
        <time>2022-07-09T12:26:47.000Z</time>
      </trkpt>
      <trkpt lat="44.11369" lon="6.67602">
        <ele>2377</ele>
        <time>2022-07-09T12:26:56.000Z</time>
      </trkpt>
      <trkpt lat="44.11372" lon="6.67603">
        <ele>2376.3999023438</ele>
        <time>2022-07-09T12:27:02.000Z</time>
      </trkpt>
      <trkpt lat="44.11373" lon="6.67603">
        <ele>2376.1999511719</ele>
        <time>2022-07-09T12:27:03.000Z</time>
      </trkpt>
      <trkpt lat="44.11376" lon="6.67604">
        <ele>2376</ele>
        <time>2022-07-09T12:27:08.000Z</time>
      </trkpt>
      <trkpt lat="44.11378" lon="6.67605">
        <ele>2376</ele>
        <time>2022-07-09T12:27:11.000Z</time>
      </trkpt>
      <trkpt lat="44.11381" lon="6.67605">
        <ele>2375.3999023438</ele>
        <time>2022-07-09T12:27:15.000Z</time>
      </trkpt>
      <trkpt lat="44.11382" lon="6.67603">
        <ele>2374.8000488281</ele>
        <time>2022-07-09T12:27:18.000Z</time>
      </trkpt>
      <trkpt lat="44.11384" lon="6.67602">
        <ele>2374.1999511719</ele>
        <time>2022-07-09T12:27:21.000Z</time>
      </trkpt>
      <trkpt lat="44.11387" lon="6.67602">
        <ele>2373.8000488281</ele>
        <time>2022-07-09T12:27:28.000Z</time>
      </trkpt>
      <trkpt lat="44.11392" lon="6.676">
        <ele>2373.8000488281</ele>
        <time>2022-07-09T12:27:35.000Z</time>
      </trkpt>
      <trkpt lat="44.11394" lon="6.67598">
        <ele>2374.3999023438</ele>
        <time>2022-07-09T12:27:39.000Z</time>
      </trkpt>
      <trkpt lat="44.11395" lon="6.67598">
        <ele>2374.1999511719</ele>
        <time>2022-07-09T12:27:41.000Z</time>
      </trkpt>
      <trkpt lat="44.11402" lon="6.67598">
        <ele>2373.8000488281</ele>
        <time>2022-07-09T12:27:48.000Z</time>
      </trkpt>
      <trkpt lat="44.11404" lon="6.67599">
        <ele>2373.6000976562</ele>
        <time>2022-07-09T12:27:50.000Z</time>
      </trkpt>
      <trkpt lat="44.11407" lon="6.67599">
        <ele>2372.8000488281</ele>
        <time>2022-07-09T12:27:54.000Z</time>
      </trkpt>
      <trkpt lat="44.11408" lon="6.676">
        <ele>2372.3999023438</ele>
        <time>2022-07-09T12:27:56.000Z</time>
      </trkpt>
      <trkpt lat="44.11412" lon="6.67601">
        <ele>2372</ele>
        <time>2022-07-09T12:28:00.000Z</time>
      </trkpt>
      <trkpt lat="44.11418" lon="6.67602">
        <ele>2371.8000488281</ele>
        <time>2022-07-09T12:28:06.000Z</time>
      </trkpt>
      <trkpt lat="44.11421" lon="6.67602">
        <ele>2371.3999023438</ele>
        <time>2022-07-09T12:28:08.000Z</time>
      </trkpt>
      <trkpt lat="44.11429" lon="6.676">
        <ele>2371.3999023438</ele>
        <time>2022-07-09T12:28:15.000Z</time>
      </trkpt>
      <trkpt lat="44.11437" lon="6.67599">
        <ele>2370</ele>
        <time>2022-07-09T12:28:24.000Z</time>
      </trkpt>
      <trkpt lat="44.11442" lon="6.67599">
        <ele>2369.1999511719</ele>
        <time>2022-07-09T12:28:31.000Z</time>
      </trkpt>
      <trkpt lat="44.11448" lon="6.67598">
        <ele>2369</ele>
        <time>2022-07-09T12:28:34.000Z</time>
      </trkpt>
      <trkpt lat="44.11455" lon="6.67596">
        <ele>2369</ele>
        <time>2022-07-09T12:28:37.000Z</time>
      </trkpt>
      <trkpt lat="44.11466" lon="6.67595">
        <ele>2367.6000976562</ele>
        <time>2022-07-09T12:28:41.000Z</time>
      </trkpt>
      <trkpt lat="44.11472" lon="6.67595">
        <ele>2367</ele>
        <time>2022-07-09T12:28:43.000Z</time>
      </trkpt>
      <trkpt lat="44.11482" lon="6.67593">
        <ele>2366.6000976562</ele>
        <time>2022-07-09T12:28:47.000Z</time>
      </trkpt>
      <trkpt lat="44.11485" lon="6.67594">
        <ele>2366.6000976562</ele>
        <time>2022-07-09T12:28:48.000Z</time>
      </trkpt>
      <trkpt lat="44.11496" lon="6.67595">
        <ele>2365.1999511719</ele>
        <time>2022-07-09T12:28:51.000Z</time>
      </trkpt>
      <trkpt lat="44.11502" lon="6.67597">
        <ele>2364.6000976562</ele>
        <time>2022-07-09T12:28:53.000Z</time>
      </trkpt>
      <trkpt lat="44.11508" lon="6.676">
        <ele>2364.1999511719</ele>
        <time>2022-07-09T12:28:55.000Z</time>
      </trkpt>
      <trkpt lat="44.11517" lon="6.67606">
        <ele>2363.3999023438</ele>
        <time>2022-07-09T12:28:58.000Z</time>
      </trkpt>
      <trkpt lat="44.1152" lon="6.67608">
        <ele>2363.1999511719</ele>
        <time>2022-07-09T12:28:59.000Z</time>
      </trkpt>
      <trkpt lat="44.11523" lon="6.67609">
        <ele>2362.8000488281</ele>
        <time>2022-07-09T12:29:00.000Z</time>
      </trkpt>
      <trkpt lat="44.11528" lon="6.67607">
        <ele>2362.1999511719</ele>
        <time>2022-07-09T12:29:02.000Z</time>
      </trkpt>
      <trkpt lat="44.11532" lon="6.67604">
        <ele>2361.3999023438</ele>
        <time>2022-07-09T12:29:04.000Z</time>
      </trkpt>
      <trkpt lat="44.1154" lon="6.67599">
        <ele>2360.3999023438</ele>
        <time>2022-07-09T12:29:07.000Z</time>
      </trkpt>
      <trkpt lat="44.11542" lon="6.67595">
        <ele>2359.3999023438</ele>
        <time>2022-07-09T12:29:11.000Z</time>
      </trkpt>
      <trkpt lat="44.11542" lon="6.67595">
        <ele>2359.1999511719</ele>
        <time>2022-07-09T12:29:12.000Z</time>
      </trkpt>
      <trkpt lat="44.11542" lon="6.67595">
        <ele>2358.6000976562</ele>
        <time>2022-07-09T12:29:21.000Z</time>
      </trkpt>
      <trkpt lat="44.11542" lon="6.67595">
        <ele>2358.1999511719</ele>
        <time>2022-07-09T12:29:23.000Z</time>
      </trkpt>
      <trkpt lat="44.11541" lon="6.67593">
        <ele>2358</ele>
        <time>2022-07-09T12:29:36.000Z</time>
      </trkpt>
      <trkpt lat="44.1154" lon="6.67592">
        <ele>2358</ele>
        <time>2022-07-09T12:29:37.000Z</time>
      </trkpt>
      <trkpt lat="44.1153" lon="6.67583">
        <ele>2358</ele>
        <time>2022-07-09T12:29:43.000Z</time>
      </trkpt>
      <trkpt lat="44.11524" lon="6.67576">
        <ele>2357</ele>
        <time>2022-07-09T12:29:46.000Z</time>
      </trkpt>
      <trkpt lat="44.11521" lon="6.67575">
        <ele>2356.8000488281</ele>
        <time>2022-07-09T12:29:47.000Z</time>
      </trkpt>
      <trkpt lat="44.11508" lon="6.67569">
        <ele>2356</ele>
        <time>2022-07-09T12:29:51.000Z</time>
      </trkpt>
      <trkpt lat="44.11504" lon="6.67567">
        <ele>2355.6000976562</ele>
        <time>2022-07-09T12:29:52.000Z</time>
      </trkpt>
      <trkpt lat="44.11497" lon="6.67563">
        <ele>2354.1999511719</ele>
        <time>2022-07-09T12:29:54.000Z</time>
      </trkpt>
      <trkpt lat="44.1149" lon="6.6756">
        <ele>2352.3999023438</ele>
        <time>2022-07-09T12:29:56.000Z</time>
      </trkpt>
      <trkpt lat="44.11483" lon="6.67558">
        <ele>2350.8000488281</ele>
        <time>2022-07-09T12:29:58.000Z</time>
      </trkpt>
      <trkpt lat="44.11474" lon="6.67557">
        <ele>2349.8000488281</ele>
        <time>2022-07-09T12:30:00.000Z</time>
      </trkpt>
      <trkpt lat="44.11466" lon="6.67553">
        <ele>2348.8000488281</ele>
        <time>2022-07-09T12:30:02.000Z</time>
      </trkpt>
      <trkpt lat="44.11462" lon="6.67552">
        <ele>2348.6000976562</ele>
        <time>2022-07-09T12:30:03.000Z</time>
      </trkpt>
      <trkpt lat="44.11458" lon="6.67551">
        <ele>2347.3999023438</ele>
        <time>2022-07-09T12:30:04.000Z</time>
      </trkpt>
      <trkpt lat="44.1145" lon="6.67547">
        <ele>2346.1999511719</ele>
        <time>2022-07-09T12:30:06.000Z</time>
      </trkpt>
      <trkpt lat="44.11443" lon="6.67544">
        <ele>2344.8000488281</ele>
        <time>2022-07-09T12:30:08.000Z</time>
      </trkpt>
      <trkpt lat="44.11436" lon="6.6754">
        <ele>2344.3999023438</ele>
        <time>2022-07-09T12:30:10.000Z</time>
      </trkpt>
      <trkpt lat="44.11434" lon="6.67537">
        <ele>2343.6000976562</ele>
        <time>2022-07-09T12:30:11.000Z</time>
      </trkpt>
      <trkpt lat="44.11425" lon="6.67531">
        <ele>2341.1999511719</ele>
        <time>2022-07-09T12:30:14.000Z</time>
      </trkpt>
      <trkpt lat="44.1142" lon="6.67526">
        <ele>2340.3999023438</ele>
        <time>2022-07-09T12:30:16.000Z</time>
      </trkpt>
      <trkpt lat="44.11415" lon="6.67522">
        <ele>2340</ele>
        <time>2022-07-09T12:30:18.000Z</time>
      </trkpt>
      <trkpt lat="44.1141" lon="6.67523">
        <ele>2339.3999023438</ele>
        <time>2022-07-09T12:30:19.000Z</time>
      </trkpt>
      <trkpt lat="44.11407" lon="6.67522">
        <ele>2339</ele>
        <time>2022-07-09T12:30:20.000Z</time>
      </trkpt>
      <trkpt lat="44.11402" lon="6.67518">
        <ele>2337.3999023438</ele>
        <time>2022-07-09T12:30:22.000Z</time>
      </trkpt>
      <trkpt lat="44.11399" lon="6.67514">
        <ele>2336.6000976562</ele>
        <time>2022-07-09T12:30:24.000Z</time>
      </trkpt>
      <trkpt lat="44.11398" lon="6.67511">
        <ele>2336.1999511719</ele>
        <time>2022-07-09T12:30:25.000Z</time>
      </trkpt>
      <trkpt lat="44.11391" lon="6.67505">
        <ele>2335.8000488281</ele>
        <time>2022-07-09T12:30:28.000Z</time>
      </trkpt>
      <trkpt lat="44.11384" lon="6.675">
        <ele>2334.8000488281</ele>
        <time>2022-07-09T12:30:30.000Z</time>
      </trkpt>
      <trkpt lat="44.11383" lon="6.67497">
        <ele>2334.6000976562</ele>
        <time>2022-07-09T12:30:31.000Z</time>
      </trkpt>
      <trkpt lat="44.11384" lon="6.67495">
        <ele>2333.8000488281</ele>
        <time>2022-07-09T12:30:32.000Z</time>
      </trkpt>
      <trkpt lat="44.11386" lon="6.67495">
        <ele>2332.6000976562</ele>
        <time>2022-07-09T12:30:35.000Z</time>
      </trkpt>
      <trkpt lat="44.11388" lon="6.67495">
        <ele>2332.3999023438</ele>
        <time>2022-07-09T12:30:36.000Z</time>
      </trkpt>
      <trkpt lat="44.11394" lon="6.67493">
        <ele>2332.1999511719</ele>
        <time>2022-07-09T12:30:38.000Z</time>
      </trkpt>
      <trkpt lat="44.11403" lon="6.67489">
        <ele>2331.6000976562</ele>
        <time>2022-07-09T12:30:40.000Z</time>
      </trkpt>
      <trkpt lat="44.11411" lon="6.67488">
        <ele>2331.3999023438</ele>
        <time>2022-07-09T12:30:42.000Z</time>
      </trkpt>
      <trkpt lat="44.11421" lon="6.67486">
        <ele>2330.3999023438</ele>
        <time>2022-07-09T12:30:44.000Z</time>
      </trkpt>
      <trkpt lat="44.11438" lon="6.67485">
        <ele>2328.3999023438</ele>
        <time>2022-07-09T12:30:47.000Z</time>
      </trkpt>
      <trkpt lat="44.11443" lon="6.67483">
        <ele>2327.6000976562</ele>
        <time>2022-07-09T12:30:48.000Z</time>
      </trkpt>
      <trkpt lat="44.11448" lon="6.67482">
        <ele>2326.6000976562</ele>
        <time>2022-07-09T12:30:49.000Z</time>
      </trkpt>
      <trkpt lat="44.11452" lon="6.67482">
        <ele>2325.6000976562</ele>
        <time>2022-07-09T12:30:50.000Z</time>
      </trkpt>
      <trkpt lat="44.11454" lon="6.67481">
        <ele>2325.1999511719</ele>
        <time>2022-07-09T12:30:51.000Z</time>
      </trkpt>
      <trkpt lat="44.11455" lon="6.6748">
        <ele>2324.8000488281</ele>
        <time>2022-07-09T12:30:52.000Z</time>
      </trkpt>
      <trkpt lat="44.11456" lon="6.67479">
        <ele>2324.3999023438</ele>
        <time>2022-07-09T12:30:53.000Z</time>
      </trkpt>
      <trkpt lat="44.11459" lon="6.67471">
        <ele>2323.6000976562</ele>
        <time>2022-07-09T12:30:55.000Z</time>
      </trkpt>
      <trkpt lat="44.11461" lon="6.67468">
        <ele>2323</ele>
        <time>2022-07-09T12:30:56.000Z</time>
      </trkpt>
      <trkpt lat="44.11467" lon="6.67465">
        <ele>2322</ele>
        <time>2022-07-09T12:30:58.000Z</time>
      </trkpt>
      <trkpt lat="44.11468" lon="6.67464">
        <ele>2321.1999511719</ele>
        <time>2022-07-09T12:30:59.000Z</time>
      </trkpt>
      <trkpt lat="44.11473" lon="6.6746">
        <ele>2319.8000488281</ele>
        <time>2022-07-09T12:31:01.000Z</time>
      </trkpt>
      <trkpt lat="44.11475" lon="6.67458">
        <ele>2319.1999511719</ele>
        <time>2022-07-09T12:31:02.000Z</time>
      </trkpt>
      <trkpt lat="44.11479" lon="6.67456">
        <ele>2318.1999511719</ele>
        <time>2022-07-09T12:31:04.000Z</time>
      </trkpt>
      <trkpt lat="44.1149" lon="6.67452">
        <ele>2317.6000976562</ele>
        <time>2022-07-09T12:31:09.000Z</time>
      </trkpt>
      <trkpt lat="44.11497" lon="6.67445">
        <ele>2317.1999511719</ele>
        <time>2022-07-09T12:31:12.000Z</time>
      </trkpt>
      <trkpt lat="44.11498" lon="6.67444">
        <ele>2316.8000488281</ele>
        <time>2022-07-09T12:31:13.000Z</time>
      </trkpt>
      <trkpt lat="44.11507" lon="6.6743">
        <ele>2316.1999511719</ele>
        <time>2022-07-09T12:31:17.000Z</time>
      </trkpt>
      <trkpt lat="44.11508" lon="6.67425">
        <ele>2316.3999023438</ele>
        <time>2022-07-09T12:31:19.000Z</time>
      </trkpt>
      <trkpt lat="44.11508" lon="6.67424">
        <ele>2316.1999511719</ele>
        <time>2022-07-09T12:31:20.000Z</time>
      </trkpt>
      <trkpt lat="44.11506" lon="6.67422">
        <ele>2315.6000976562</ele>
        <time>2022-07-09T12:31:21.000Z</time>
      </trkpt>
      <trkpt lat="44.11503" lon="6.6742">
        <ele>2314.1999511719</ele>
        <time>2022-07-09T12:31:23.000Z</time>
      </trkpt>
      <trkpt lat="44.115" lon="6.6742">
        <ele>2312.6000976562</ele>
        <time>2022-07-09T12:31:24.000Z</time>
      </trkpt>
      <trkpt lat="44.11497" lon="6.67421">
        <ele>2312</ele>
        <time>2022-07-09T12:31:25.000Z</time>
      </trkpt>
      <trkpt lat="44.11494" lon="6.67423">
        <ele>2311.1999511719</ele>
        <time>2022-07-09T12:31:26.000Z</time>
      </trkpt>
      <trkpt lat="44.11487" lon="6.67425">
        <ele>2310.6000976562</ele>
        <time>2022-07-09T12:31:28.000Z</time>
      </trkpt>
      <trkpt lat="44.11483" lon="6.6742">
        <ele>2310.1999511719</ele>
        <time>2022-07-09T12:31:29.000Z</time>
      </trkpt>
      <trkpt lat="44.11479" lon="6.67416">
        <ele>2309.6000976562</ele>
        <time>2022-07-09T12:31:30.000Z</time>
      </trkpt>
      <trkpt lat="44.1147" lon="6.67413">
        <ele>2308</ele>
        <time>2022-07-09T12:31:32.000Z</time>
      </trkpt>
      <trkpt lat="44.11465" lon="6.67414">
        <ele>2307.1999511719</ele>
        <time>2022-07-09T12:31:33.000Z</time>
      </trkpt>
      <trkpt lat="44.1146" lon="6.67413">
        <ele>2306.1999511719</ele>
        <time>2022-07-09T12:31:34.000Z</time>
      </trkpt>
      <trkpt lat="44.1145" lon="6.6741">
        <ele>2304.8000488281</ele>
        <time>2022-07-09T12:31:36.000Z</time>
      </trkpt>
      <trkpt lat="44.11433" lon="6.67405">
        <ele>2303.3999023438</ele>
        <time>2022-07-09T12:31:39.000Z</time>
      </trkpt>
      <trkpt lat="44.11427" lon="6.67403">
        <ele>2302.1999511719</ele>
        <time>2022-07-09T12:31:40.000Z</time>
      </trkpt>
      <trkpt lat="44.11422" lon="6.674">
        <ele>2301.8000488281</ele>
        <time>2022-07-09T12:31:41.000Z</time>
      </trkpt>
      <trkpt lat="44.11419" lon="6.67394">
        <ele>2300.8000488281</ele>
        <time>2022-07-09T12:31:42.000Z</time>
      </trkpt>
      <trkpt lat="44.11415" lon="6.67385">
        <ele>2299.1999511719</ele>
        <time>2022-07-09T12:31:44.000Z</time>
      </trkpt>
      <trkpt lat="44.11414" lon="6.67377">
        <ele>2297.8000488281</ele>
        <time>2022-07-09T12:31:47.000Z</time>
      </trkpt>
      <trkpt lat="44.11416" lon="6.67372">
        <ele>2297.6000976562</ele>
        <time>2022-07-09T12:31:49.000Z</time>
      </trkpt>
      <trkpt lat="44.11418" lon="6.6737">
        <ele>2297.6000976562</ele>
        <time>2022-07-09T12:31:50.000Z</time>
      </trkpt>
      <trkpt lat="44.11422" lon="6.67367">
        <ele>2296.8000488281</ele>
        <time>2022-07-09T12:31:52.000Z</time>
      </trkpt>
      <trkpt lat="44.11426" lon="6.67365">
        <ele>2296.1999511719</ele>
        <time>2022-07-09T12:31:54.000Z</time>
      </trkpt>
      <trkpt lat="44.11432" lon="6.67355">
        <ele>2295.8000488281</ele>
        <time>2022-07-09T12:31:57.000Z</time>
      </trkpt>
      <trkpt lat="44.11438" lon="6.67348">
        <ele>2295.3999023438</ele>
        <time>2022-07-09T12:31:59.000Z</time>
      </trkpt>
      <trkpt lat="44.11442" lon="6.67345">
        <ele>2294.6000976562</ele>
        <time>2022-07-09T12:32:00.000Z</time>
      </trkpt>
      <trkpt lat="44.11447" lon="6.67337">
        <ele>2293.1999511719</ele>
        <time>2022-07-09T12:32:02.000Z</time>
      </trkpt>
      <trkpt lat="44.1145" lon="6.67329">
        <ele>2291.8000488281</ele>
        <time>2022-07-09T12:32:04.000Z</time>
      </trkpt>
      <trkpt lat="44.1145" lon="6.67325">
        <ele>2291.3999023438</ele>
        <time>2022-07-09T12:32:05.000Z</time>
      </trkpt>
      <trkpt lat="44.11451" lon="6.67319">
        <ele>2290.6000976562</ele>
        <time>2022-07-09T12:32:06.000Z</time>
      </trkpt>
      <trkpt lat="44.11451" lon="6.67301">
        <ele>2288.1999511719</ele>
        <time>2022-07-09T12:32:09.000Z</time>
      </trkpt>
      <trkpt lat="44.11451" lon="6.67295">
        <ele>2287.1999511719</ele>
        <time>2022-07-09T12:32:10.000Z</time>
      </trkpt>
      <trkpt lat="44.11451" lon="6.67289">
        <ele>2286.6000976562</ele>
        <time>2022-07-09T12:32:11.000Z</time>
      </trkpt>
      <trkpt lat="44.11453" lon="6.67284">
        <ele>2285.1999511719</ele>
        <time>2022-07-09T12:32:12.000Z</time>
      </trkpt>
      <trkpt lat="44.11454" lon="6.67273">
        <ele>2283.3999023438</ele>
        <time>2022-07-09T12:32:14.000Z</time>
      </trkpt>
      <trkpt lat="44.11454" lon="6.67268">
        <ele>2282.3999023438</ele>
        <time>2022-07-09T12:32:15.000Z</time>
      </trkpt>
      <trkpt lat="44.11454" lon="6.67248">
        <ele>2281.8000488281</ele>
        <time>2022-07-09T12:32:18.000Z</time>
      </trkpt>
      <trkpt lat="44.11452" lon="6.67233">
        <ele>2279.8000488281</ele>
        <time>2022-07-09T12:32:20.000Z</time>
      </trkpt>
      <trkpt lat="44.11451" lon="6.67226">
        <ele>2278.6000976562</ele>
        <time>2022-07-09T12:32:21.000Z</time>
      </trkpt>
      <trkpt lat="44.1145" lon="6.67221">
        <ele>2277.3999023438</ele>
        <time>2022-07-09T12:32:22.000Z</time>
      </trkpt>
      <trkpt lat="44.11447" lon="6.67212">
        <ele>2275.6000976562</ele>
        <time>2022-07-09T12:32:24.000Z</time>
      </trkpt>
      <trkpt lat="44.11442" lon="6.67205">
        <ele>2274.3999023438</ele>
        <time>2022-07-09T12:32:26.000Z</time>
      </trkpt>
      <trkpt lat="44.11438" lon="6.67199">
        <ele>2273.1999511719</ele>
        <time>2022-07-09T12:32:28.000Z</time>
      </trkpt>
      <trkpt lat="44.11438" lon="6.67195">
        <ele>2272.3999023438</ele>
        <time>2022-07-09T12:32:29.000Z</time>
      </trkpt>
      <trkpt lat="44.11439" lon="6.67191">
        <ele>2271.3999023438</ele>
        <time>2022-07-09T12:32:30.000Z</time>
      </trkpt>
      <trkpt lat="44.1144" lon="6.67184">
        <ele>2269.6000976562</ele>
        <time>2022-07-09T12:32:32.000Z</time>
      </trkpt>
      <trkpt lat="44.11441" lon="6.67182">
        <ele>2269</ele>
        <time>2022-07-09T12:32:33.000Z</time>
      </trkpt>
      <trkpt lat="44.11437" lon="6.67175">
        <ele>2269</ele>
        <time>2022-07-09T12:32:36.000Z</time>
      </trkpt>
      <trkpt lat="44.11435" lon="6.67172">
        <ele>2269</ele>
        <time>2022-07-09T12:32:37.000Z</time>
      </trkpt>
      <trkpt lat="44.11428" lon="6.67164">
        <ele>2268.6000976562</ele>
        <time>2022-07-09T12:32:40.000Z</time>
      </trkpt>
      <trkpt lat="44.11426" lon="6.67161">
        <ele>2268.6000976562</ele>
        <time>2022-07-09T12:32:41.000Z</time>
      </trkpt>
      <trkpt lat="44.1142" lon="6.67149">
        <ele>2268.6000976562</ele>
        <time>2022-07-09T12:32:46.000Z</time>
      </trkpt>
      <trkpt lat="44.11425" lon="6.67133">
        <ele>2268.6000976562</ele>
        <time>2022-07-09T12:32:51.000Z</time>
      </trkpt>
      <trkpt lat="44.11427" lon="6.67123">
        <ele>2268.6000976562</ele>
        <time>2022-07-09T12:32:56.000Z</time>
      </trkpt>
      <trkpt lat="44.1143" lon="6.67108">
        <ele>2268.3999023438</ele>
        <time>2022-07-09T12:33:02.000Z</time>
      </trkpt>
      <trkpt lat="44.11435" lon="6.67094">
        <ele>2267.6000976562</ele>
        <time>2022-07-09T12:33:08.000Z</time>
      </trkpt>
      <trkpt lat="44.11436" lon="6.67088">
        <ele>2267.3999023438</ele>
        <time>2022-07-09T12:33:11.000Z</time>
      </trkpt>
      <trkpt lat="44.11439" lon="6.67077">
        <ele>2266.8000488281</ele>
        <time>2022-07-09T12:33:15.000Z</time>
      </trkpt>
      <trkpt lat="44.11441" lon="6.6707">
        <ele>2266.1999511719</ele>
        <time>2022-07-09T12:33:18.000Z</time>
      </trkpt>
      <trkpt lat="44.11443" lon="6.67062">
        <ele>2265.8000488281</ele>
        <time>2022-07-09T12:33:21.000Z</time>
      </trkpt>
      <trkpt lat="44.11447" lon="6.67047">
        <ele>2265.6000976562</ele>
        <time>2022-07-09T12:33:27.000Z</time>
      </trkpt>
      <trkpt lat="44.1145" lon="6.67032">
        <ele>2266.3999023438</ele>
        <time>2022-07-09T12:33:34.000Z</time>
      </trkpt>
      <trkpt lat="44.11452" lon="6.6702">
        <ele>2267</ele>
        <time>2022-07-09T12:33:40.000Z</time>
      </trkpt>
      <trkpt lat="44.11453" lon="6.67015">
        <ele>2267.3999023438</ele>
        <time>2022-07-09T12:33:42.000Z</time>
      </trkpt>
      <trkpt lat="44.11456" lon="6.67004">
        <ele>2267.6000976562</ele>
        <time>2022-07-09T12:33:48.000Z</time>
      </trkpt>
      <trkpt lat="44.1146" lon="6.66996">
        <ele>2268.1999511719</ele>
        <time>2022-07-09T12:33:54.000Z</time>
      </trkpt>
      <trkpt lat="44.11461" lon="6.66996">
        <ele>2268.1999511719</ele>
        <time>2022-07-09T12:34:00.000Z</time>
      </trkpt>
      <trkpt lat="44.11461" lon="6.66994">
        <ele>2268.1999511719</ele>
        <time>2022-07-09T12:34:12.000Z</time>
      </trkpt>
      <trkpt lat="44.11461" lon="6.66991">
        <ele>2268.1999511719</ele>
        <time>2022-07-09T12:34:14.000Z</time>
      </trkpt>
      <trkpt lat="44.11462" lon="6.66985">
        <ele>2268.3999023438</ele>
        <time>2022-07-09T12:34:17.000Z</time>
      </trkpt>
      <trkpt lat="44.11463" lon="6.66976">
        <ele>2269.1999511719</ele>
        <time>2022-07-09T12:34:22.000Z</time>
      </trkpt>
      <trkpt lat="44.11463" lon="6.66974">
        <ele>2269.3999023438</ele>
        <time>2022-07-09T12:34:23.000Z</time>
      </trkpt>
      <trkpt lat="44.11466" lon="6.66963">
        <ele>2269.8000488281</ele>
        <time>2022-07-09T12:34:29.000Z</time>
      </trkpt>
      <trkpt lat="44.11466" lon="6.66953">
        <ele>2270.3999023438</ele>
        <time>2022-07-09T12:34:34.000Z</time>
      </trkpt>
      <trkpt lat="44.11466" lon="6.66949">
        <ele>2270.6000976562</ele>
        <time>2022-07-09T12:34:36.000Z</time>
      </trkpt>
      <trkpt lat="44.11466" lon="6.66935">
        <ele>2271.1999511719</ele>
        <time>2022-07-09T12:34:43.000Z</time>
      </trkpt>
      <trkpt lat="44.11464" lon="6.66929">
        <ele>2271.3999023438</ele>
        <time>2022-07-09T12:34:46.000Z</time>
      </trkpt>
      <trkpt lat="44.11463" lon="6.66923">
        <ele>2271.8000488281</ele>
        <time>2022-07-09T12:34:49.000Z</time>
      </trkpt>
      <trkpt lat="44.11464" lon="6.66907">
        <ele>2272</ele>
        <time>2022-07-09T12:34:56.000Z</time>
      </trkpt>
      <trkpt lat="44.11465" lon="6.66891">
        <ele>2271.6000976562</ele>
        <time>2022-07-09T12:35:02.000Z</time>
      </trkpt>
      <trkpt lat="44.11471" lon="6.66877">
        <ele>2271.6000976562</ele>
        <time>2022-07-09T12:35:08.000Z</time>
      </trkpt>
      <trkpt lat="44.11476" lon="6.66869">
        <ele>2272.6000976562</ele>
        <time>2022-07-09T12:35:12.000Z</time>
      </trkpt>
      <trkpt lat="44.11478" lon="6.66866">
        <ele>2272.8000488281</ele>
        <time>2022-07-09T12:35:14.000Z</time>
      </trkpt>
      <trkpt lat="44.11479" lon="6.66862">
        <ele>2273.1999511719</ele>
        <time>2022-07-09T12:35:16.000Z</time>
      </trkpt>
      <trkpt lat="44.11477" lon="6.66857">
        <ele>2273.1999511719</ele>
        <time>2022-07-09T12:35:18.000Z</time>
      </trkpt>
      <trkpt lat="44.11471" lon="6.66853">
        <ele>2273</ele>
        <time>2022-07-09T12:35:22.000Z</time>
      </trkpt>
      <trkpt lat="44.11468" lon="6.66851">
        <ele>2272.8000488281</ele>
        <time>2022-07-09T12:35:23.000Z</time>
      </trkpt>
      <trkpt lat="44.11458" lon="6.66841">
        <ele>2272.8000488281</ele>
        <time>2022-07-09T12:35:29.000Z</time>
      </trkpt>
      <trkpt lat="44.11455" lon="6.66835">
        <ele>2273</ele>
        <time>2022-07-09T12:35:32.000Z</time>
      </trkpt>
      <trkpt lat="44.1145" lon="6.66833">
        <ele>2272.8000488281</ele>
        <time>2022-07-09T12:35:34.000Z</time>
      </trkpt>
      <trkpt lat="44.11441" lon="6.66824">
        <ele>2272.6000976562</ele>
        <time>2022-07-09T12:35:38.000Z</time>
      </trkpt>
      <trkpt lat="44.11439" lon="6.66821">
        <ele>2272.3999023438</ele>
        <time>2022-07-09T12:35:39.000Z</time>
      </trkpt>
      <trkpt lat="44.11431" lon="6.6681">
        <ele>2271.8000488281</ele>
        <time>2022-07-09T12:35:44.000Z</time>
      </trkpt>
      <trkpt lat="44.11428" lon="6.66789">
        <ele>2272.1999511719</ele>
        <time>2022-07-09T12:35:51.000Z</time>
      </trkpt>
      <trkpt lat="44.11427" lon="6.66768">
        <ele>2271.8000488281</ele>
        <time>2022-07-09T12:35:58.000Z</time>
      </trkpt>
      <trkpt lat="44.11426" lon="6.6675">
        <ele>2272</ele>
        <time>2022-07-09T12:36:03.000Z</time>
      </trkpt>
      <trkpt lat="44.11424" lon="6.66745">
        <ele>2272.1999511719</ele>
        <time>2022-07-09T12:36:05.000Z</time>
      </trkpt>
      <trkpt lat="44.11421" lon="6.66742">
        <ele>2272.3999023438</ele>
        <time>2022-07-09T12:36:07.000Z</time>
      </trkpt>
      <trkpt lat="44.11412" lon="6.66733">
        <ele>2272.6000976562</ele>
        <time>2022-07-09T12:36:12.000Z</time>
      </trkpt>
      <trkpt lat="44.11401" lon="6.66724">
        <ele>2272</ele>
        <time>2022-07-09T12:36:18.000Z</time>
      </trkpt>
      <trkpt lat="44.11397" lon="6.6671">
        <ele>2272</ele>
        <time>2022-07-09T12:36:23.000Z</time>
      </trkpt>
      <trkpt lat="44.11394" lon="6.66706">
        <ele>2271.8000488281</ele>
        <time>2022-07-09T12:36:27.000Z</time>
      </trkpt>
      <trkpt lat="44.11393" lon="6.66705">
        <ele>2271.3999023438</ele>
        <time>2022-07-09T12:36:30.000Z</time>
      </trkpt>
      <trkpt lat="44.11393" lon="6.66705">
        <ele>2271.3999023438</ele>
        <time>2022-07-09T12:36:31.000Z</time>
      </trkpt>
      <trkpt lat="44.11388" lon="6.66698">
        <ele>2271.1999511719</ele>
        <time>2022-07-09T12:36:38.000Z</time>
      </trkpt>
      <trkpt lat="44.11385" lon="6.66693">
        <ele>2271.8000488281</ele>
        <time>2022-07-09T12:36:45.000Z</time>
      </trkpt>
      <trkpt lat="44.11384" lon="6.66691">
        <ele>2271.8000488281</ele>
        <time>2022-07-09T12:36:51.000Z</time>
      </trkpt>
      <trkpt lat="44.11377" lon="6.66673">
        <ele>2272</ele>
        <time>2022-07-09T12:36:58.000Z</time>
      </trkpt>
      <trkpt lat="44.11377" lon="6.66664">
        <ele>2272</ele>
        <time>2022-07-09T12:37:01.000Z</time>
      </trkpt>
      <trkpt lat="44.11376" lon="6.66662">
        <ele>2272</ele>
        <time>2022-07-09T12:37:02.000Z</time>
      </trkpt>
      <trkpt lat="44.11369" lon="6.66649">
        <ele>2272.3999023438</ele>
        <time>2022-07-09T12:37:07.000Z</time>
      </trkpt>
      <trkpt lat="44.11366" lon="6.66644">
        <ele>2272.1999511719</ele>
        <time>2022-07-09T12:37:09.000Z</time>
      </trkpt>
      <trkpt lat="44.11363" lon="6.66642">
        <ele>2272.3999023438</ele>
        <time>2022-07-09T12:37:11.000Z</time>
      </trkpt>
      <trkpt lat="44.11359" lon="6.66642">
        <ele>2272.3999023438</ele>
        <time>2022-07-09T12:37:13.000Z</time>
      </trkpt>
      <trkpt lat="44.11354" lon="6.66638">
        <ele>2272.1999511719</ele>
        <time>2022-07-09T12:37:16.000Z</time>
      </trkpt>
      <trkpt lat="44.11353" lon="6.66636">
        <ele>2272.1999511719</ele>
        <time>2022-07-09T12:37:17.000Z</time>
      </trkpt>
      <trkpt lat="44.11346" lon="6.66634">
        <ele>2272.1999511719</ele>
        <time>2022-07-09T12:37:20.000Z</time>
      </trkpt>
      <trkpt lat="44.11339" lon="6.66629">
        <ele>2272.1999511719</ele>
        <time>2022-07-09T12:37:23.000Z</time>
      </trkpt>
      <trkpt lat="44.11331" lon="6.66622">
        <ele>2271.6000976562</ele>
        <time>2022-07-09T12:37:26.000Z</time>
      </trkpt>
      <trkpt lat="44.11329" lon="6.66619">
        <ele>2271.3999023438</ele>
        <time>2022-07-09T12:37:28.000Z</time>
      </trkpt>
      <trkpt lat="44.11325" lon="6.66617">
        <ele>2271.3999023438</ele>
        <time>2022-07-09T12:37:30.000Z</time>
      </trkpt>
      <trkpt lat="44.11311" lon="6.66606">
        <ele>2271.1999511719</ele>
        <time>2022-07-09T12:37:36.000Z</time>
      </trkpt>
      <trkpt lat="44.11302" lon="6.66592">
        <ele>2270.1999511719</ele>
        <time>2022-07-09T12:37:40.000Z</time>
      </trkpt>
      <trkpt lat="44.113" lon="6.66589">
        <ele>2270</ele>
        <time>2022-07-09T12:37:41.000Z</time>
      </trkpt>
      <trkpt lat="44.11294" lon="6.66566">
        <ele>2269.6000976562</ele>
        <time>2022-07-09T12:37:47.000Z</time>
      </trkpt>
      <trkpt lat="44.11291" lon="6.66553">
        <ele>2270</ele>
        <time>2022-07-09T12:37:52.000Z</time>
      </trkpt>
      <trkpt lat="44.1129" lon="6.66549">
        <ele>2270</ele>
        <time>2022-07-09T12:37:54.000Z</time>
      </trkpt>
      <trkpt lat="44.11288" lon="6.66538">
        <ele>2270.6000976562</ele>
        <time>2022-07-09T12:37:58.000Z</time>
      </trkpt>
      <trkpt lat="44.11288" lon="6.66522">
        <ele>2270.8000488281</ele>
        <time>2022-07-09T12:38:02.000Z</time>
      </trkpt>
      <trkpt lat="44.11289" lon="6.66514">
        <ele>2270.6000976562</ele>
        <time>2022-07-09T12:38:04.000Z</time>
      </trkpt>
      <trkpt lat="44.1129" lon="6.66509">
        <ele>2270.6000976562</ele>
        <time>2022-07-09T12:38:06.000Z</time>
      </trkpt>
      <trkpt lat="44.11289" lon="6.66506">
        <ele>2270.6000976562</ele>
        <time>2022-07-09T12:38:07.000Z</time>
      </trkpt>
      <trkpt lat="44.11289" lon="6.66488">
        <ele>2270.8000488281</ele>
        <time>2022-07-09T12:38:12.000Z</time>
      </trkpt>
      <trkpt lat="44.11291" lon="6.66482">
        <ele>2270.6000976562</ele>
        <time>2022-07-09T12:38:14.000Z</time>
      </trkpt>
      <trkpt lat="44.11294" lon="6.66478">
        <ele>2270.6000976562</ele>
        <time>2022-07-09T12:38:16.000Z</time>
      </trkpt>
      <trkpt lat="44.11295" lon="6.66476">
        <ele>2270.8000488281</ele>
        <time>2022-07-09T12:38:21.000Z</time>
      </trkpt>
      <trkpt lat="44.11294" lon="6.66473">
        <ele>2270.8000488281</ele>
        <time>2022-07-09T12:38:24.000Z</time>
      </trkpt>
      <trkpt lat="44.11293" lon="6.66468">
        <ele>2271</ele>
        <time>2022-07-09T12:38:27.000Z</time>
      </trkpt>
      <trkpt lat="44.11297" lon="6.66452">
        <ele>2271.1999511719</ele>
        <time>2022-07-09T12:38:33.000Z</time>
      </trkpt>
      <trkpt lat="44.11299" lon="6.66445">
        <ele>2271.1999511719</ele>
        <time>2022-07-09T12:38:36.000Z</time>
      </trkpt>
      <trkpt lat="44.11299" lon="6.66442">
        <ele>2271</ele>
        <time>2022-07-09T12:38:37.000Z</time>
      </trkpt>
      <trkpt lat="44.11308" lon="6.66421">
        <ele>2271.3999023438</ele>
        <time>2022-07-09T12:38:44.000Z</time>
      </trkpt>
      <trkpt lat="44.11319" lon="6.66409">
        <ele>2271.3999023438</ele>
        <time>2022-07-09T12:38:49.000Z</time>
      </trkpt>
      <trkpt lat="44.11333" lon="6.66402">
        <ele>2271.8000488281</ele>
        <time>2022-07-09T12:38:54.000Z</time>
      </trkpt>
      <trkpt lat="44.11336" lon="6.66402">
        <ele>2271.8000488281</ele>
        <time>2022-07-09T12:38:55.000Z</time>
      </trkpt>
      <trkpt lat="44.11349" lon="6.664">
        <ele>2272.1999511719</ele>
        <time>2022-07-09T12:39:01.000Z</time>
      </trkpt>
      <trkpt lat="44.11351" lon="6.664">
        <ele>2271.8000488281</ele>
        <time>2022-07-09T12:39:06.000Z</time>
      </trkpt>
      <trkpt lat="44.11352" lon="6.66399">
        <ele>2271.1999511719</ele>
        <time>2022-07-09T12:39:11.000Z</time>
      </trkpt>
      <trkpt lat="44.11355" lon="6.66399">
        <ele>2271.1999511719</ele>
        <time>2022-07-09T12:39:18.000Z</time>
      </trkpt>
      <trkpt lat="44.11356" lon="6.66399">
        <ele>2271.6000976562</ele>
        <time>2022-07-09T12:39:22.000Z</time>
      </trkpt>
      <trkpt lat="44.11369" lon="6.66402">
        <ele>2271.6000976562</ele>
        <time>2022-07-09T12:39:29.000Z</time>
      </trkpt>
      <trkpt lat="44.11372" lon="6.66403">
        <ele>2271.8000488281</ele>
        <time>2022-07-09T12:39:30.000Z</time>
      </trkpt>
      <trkpt lat="44.11377" lon="6.664">
        <ele>2272</ele>
        <time>2022-07-09T12:39:33.000Z</time>
      </trkpt>
      <trkpt lat="44.11379" lon="6.66394">
        <ele>2271.8000488281</ele>
        <time>2022-07-09T12:39:36.000Z</time>
      </trkpt>
      <trkpt lat="44.11379" lon="6.66391">
        <ele>2271.6000976562</ele>
        <time>2022-07-09T12:39:37.000Z</time>
      </trkpt>
      <trkpt lat="44.11387" lon="6.66383">
        <ele>2271.8000488281</ele>
        <time>2022-07-09T12:39:41.000Z</time>
      </trkpt>
      <trkpt lat="44.1139" lon="6.66382">
        <ele>2271.8000488281</ele>
        <time>2022-07-09T12:39:42.000Z</time>
      </trkpt>
      <trkpt lat="44.11394" lon="6.66379">
        <ele>2272</ele>
        <time>2022-07-09T12:39:44.000Z</time>
      </trkpt>
      <trkpt lat="44.11396" lon="6.66375">
        <ele>2271.6000976562</ele>
        <time>2022-07-09T12:39:46.000Z</time>
      </trkpt>
      <trkpt lat="44.11403" lon="6.66363">
        <ele>2271</ele>
        <time>2022-07-09T12:39:51.000Z</time>
      </trkpt>
      <trkpt lat="44.1142" lon="6.66351">
        <ele>2271</ele>
        <time>2022-07-09T12:39:57.000Z</time>
      </trkpt>
      <trkpt lat="44.1144" lon="6.6635">
        <ele>2271.1999511719</ele>
        <time>2022-07-09T12:40:03.000Z</time>
      </trkpt>
      <trkpt lat="44.11451" lon="6.66351">
        <ele>2271</ele>
        <time>2022-07-09T12:40:07.000Z</time>
      </trkpt>
      <trkpt lat="44.11465" lon="6.66347">
        <ele>2271.3999023438</ele>
        <time>2022-07-09T12:40:13.000Z</time>
      </trkpt>
      <trkpt lat="44.11475" lon="6.6634">
        <ele>2272</ele>
        <time>2022-07-09T12:40:18.000Z</time>
      </trkpt>
      <trkpt lat="44.11481" lon="6.66331">
        <ele>2271.8000488281</ele>
        <time>2022-07-09T12:40:24.000Z</time>
      </trkpt>
      <trkpt lat="44.11487" lon="6.6632">
        <ele>2271.6000976562</ele>
        <time>2022-07-09T12:40:29.000Z</time>
      </trkpt>
      <trkpt lat="44.11497" lon="6.66304">
        <ele>2270.8000488281</ele>
        <time>2022-07-09T12:40:35.000Z</time>
      </trkpt>
      <trkpt lat="44.11503" lon="6.66296">
        <ele>2270.8000488281</ele>
        <time>2022-07-09T12:40:40.000Z</time>
      </trkpt>
      <trkpt lat="44.11503" lon="6.66296">
        <ele>2270.6000976562</ele>
        <time>2022-07-09T12:40:46.000Z</time>
      </trkpt>
      <trkpt lat="44.11506" lon="6.66294">
        <ele>2271.1999511719</ele>
        <time>2022-07-09T12:40:52.000Z</time>
      </trkpt>
      <trkpt lat="44.11511" lon="6.66288">
        <ele>2271.8000488281</ele>
        <time>2022-07-09T12:41:00.000Z</time>
      </trkpt>
      <trkpt lat="44.11514" lon="6.66284">
        <ele>2272</ele>
        <time>2022-07-09T12:41:06.000Z</time>
      </trkpt>
      <trkpt lat="44.11516" lon="6.6628">
        <ele>2272</ele>
        <time>2022-07-09T12:41:08.000Z</time>
      </trkpt>
      <trkpt lat="44.11518" lon="6.66269">
        <ele>2271.1999511719</ele>
        <time>2022-07-09T12:41:11.000Z</time>
      </trkpt>
      <trkpt lat="44.11524" lon="6.6626">
        <ele>2270.6000976562</ele>
        <time>2022-07-09T12:41:15.000Z</time>
      </trkpt>
      <trkpt lat="44.11528" lon="6.66257">
        <ele>2270.3999023438</ele>
        <time>2022-07-09T12:41:19.000Z</time>
      </trkpt>
      <trkpt lat="44.11529" lon="6.66257">
        <ele>2270.1999511719</ele>
        <time>2022-07-09T12:41:20.000Z</time>
      </trkpt>
      <trkpt lat="44.1153" lon="6.66255">
        <ele>2269.6000976562</ele>
        <time>2022-07-09T12:41:28.000Z</time>
      </trkpt>
      <trkpt lat="44.11531" lon="6.66253">
        <ele>2270.1999511719</ele>
        <time>2022-07-09T12:41:33.000Z</time>
      </trkpt>
      <trkpt lat="44.1153" lon="6.66247">
        <ele>2270.6000976562</ele>
        <time>2022-07-09T12:41:41.000Z</time>
      </trkpt>
      <trkpt lat="44.1153" lon="6.66246">
        <ele>2270.3999023438</ele>
        <time>2022-07-09T12:41:52.000Z</time>
      </trkpt>
      <trkpt lat="44.1153" lon="6.66245">
        <ele>2270.6000976562</ele>
        <time>2022-07-09T12:42:04.000Z</time>
      </trkpt>
      <trkpt lat="44.1153" lon="6.66244">
        <ele>2270.8000488281</ele>
        <time>2022-07-09T12:42:10.000Z</time>
      </trkpt>
      <trkpt lat="44.1153" lon="6.6624">
        <ele>2271</ele>
        <time>2022-07-09T12:42:12.000Z</time>
      </trkpt>
      <trkpt lat="44.11538" lon="6.66231">
        <ele>2270.8000488281</ele>
        <time>2022-07-09T12:42:17.000Z</time>
      </trkpt>
      <trkpt lat="44.11538" lon="6.6622">
        <ele>2270.1999511719</ele>
        <time>2022-07-09T12:42:20.000Z</time>
      </trkpt>
      <trkpt lat="44.11538" lon="6.66217">
        <ele>2270</ele>
        <time>2022-07-09T12:42:21.000Z</time>
      </trkpt>
      <trkpt lat="44.11541" lon="6.66207">
        <ele>2269.6000976562</ele>
        <time>2022-07-09T12:42:24.000Z</time>
      </trkpt>
      <trkpt lat="44.11543" lon="6.66204">
        <ele>2269.6000976562</ele>
        <time>2022-07-09T12:42:25.000Z</time>
      </trkpt>
      <trkpt lat="44.11549" lon="6.66192">
        <ele>2269</ele>
        <time>2022-07-09T12:42:28.000Z</time>
      </trkpt>
      <trkpt lat="44.11555" lon="6.66185">
        <ele>2268.6000976562</ele>
        <time>2022-07-09T12:42:30.000Z</time>
      </trkpt>
      <trkpt lat="44.1156" lon="6.66183">
        <ele>2267.8000488281</ele>
        <time>2022-07-09T12:42:32.000Z</time>
      </trkpt>
      <trkpt lat="44.1156" lon="6.66183">
        <ele>2267.6000976562</ele>
        <time>2022-07-09T12:42:33.000Z</time>
      </trkpt>
      <trkpt lat="44.11562" lon="6.66176">
        <ele>2267.1999511719</ele>
        <time>2022-07-09T12:42:38.000Z</time>
      </trkpt>
      <trkpt lat="44.11564" lon="6.66164">
        <ele>2267.8000488281</ele>
        <time>2022-07-09T12:42:44.000Z</time>
      </trkpt>
      <trkpt lat="44.11568" lon="6.66157">
        <ele>2267.3999023438</ele>
        <time>2022-07-09T12:42:47.000Z</time>
      </trkpt>
      <trkpt lat="44.1157" lon="6.66156">
        <ele>2267.3999023438</ele>
        <time>2022-07-09T12:42:48.000Z</time>
      </trkpt>
      <trkpt lat="44.11578" lon="6.66156">
        <ele>2267.3999023438</ele>
        <time>2022-07-09T12:42:52.000Z</time>
      </trkpt>
      <trkpt lat="44.11583" lon="6.66156">
        <ele>2267.1999511719</ele>
        <time>2022-07-09T12:42:55.000Z</time>
      </trkpt>
      <trkpt lat="44.11587" lon="6.66154">
        <ele>2267.1999511719</ele>
        <time>2022-07-09T12:43:01.000Z</time>
      </trkpt>
      <trkpt lat="44.11595" lon="6.66148">
        <ele>2268</ele>
        <time>2022-07-09T12:43:10.000Z</time>
      </trkpt>
      <trkpt lat="44.11596" lon="6.66144">
        <ele>2268.1999511719</ele>
        <time>2022-07-09T12:43:13.000Z</time>
      </trkpt>
      <trkpt lat="44.11596" lon="6.66141">
        <ele>2268.6000976562</ele>
        <time>2022-07-09T12:43:16.000Z</time>
      </trkpt>
      <trkpt lat="44.11594" lon="6.66133">
        <ele>2268.1999511719</ele>
        <time>2022-07-09T12:43:22.000Z</time>
      </trkpt>
      <trkpt lat="44.11589" lon="6.66107">
        <ele>2267</ele>
        <time>2022-07-09T12:43:30.000Z</time>
      </trkpt>
      <trkpt lat="44.11588" lon="6.66104">
        <ele>2266.6000976562</ele>
        <time>2022-07-09T12:43:31.000Z</time>
      </trkpt>
      <trkpt lat="44.11587" lon="6.66087">
        <ele>2265.3999023438</ele>
        <time>2022-07-09T12:43:35.000Z</time>
      </trkpt>
      <trkpt lat="44.11587" lon="6.6607">
        <ele>2264.3999023438</ele>
        <time>2022-07-09T12:43:39.000Z</time>
      </trkpt>
      <trkpt lat="44.11587" lon="6.66063">
        <ele>2264</ele>
        <time>2022-07-09T12:43:41.000Z</time>
      </trkpt>
      <trkpt lat="44.11589" lon="6.66048">
        <ele>2263.3999023438</ele>
        <time>2022-07-09T12:43:46.000Z</time>
      </trkpt>
      <trkpt lat="44.11596" lon="6.66029">
        <ele>2263</ele>
        <time>2022-07-09T12:43:51.000Z</time>
      </trkpt>
      <trkpt lat="44.11599" lon="6.66022">
        <ele>2262.6000976562</ele>
        <time>2022-07-09T12:43:54.000Z</time>
      </trkpt>
      <trkpt lat="44.11598" lon="6.66021">
        <ele>2262.6000976562</ele>
        <time>2022-07-09T12:43:55.000Z</time>
      </trkpt>
      <trkpt lat="44.11596" lon="6.66008">
        <ele>2262.1999511719</ele>
        <time>2022-07-09T12:43:59.000Z</time>
      </trkpt>
      <trkpt lat="44.11595" lon="6.66002">
        <ele>2262.1999511719</ele>
        <time>2022-07-09T12:44:01.000Z</time>
      </trkpt>
      <trkpt lat="44.11598" lon="6.65983">
        <ele>2261.6000976562</ele>
        <time>2022-07-09T12:44:06.000Z</time>
      </trkpt>
      <trkpt lat="44.11601" lon="6.65972">
        <ele>2261.1999511719</ele>
        <time>2022-07-09T12:44:09.000Z</time>
      </trkpt>
      <trkpt lat="44.11603" lon="6.65969">
        <ele>2261</ele>
        <time>2022-07-09T12:44:10.000Z</time>
      </trkpt>
      <trkpt lat="44.1161" lon="6.65956">
        <ele>2259.8000488281</ele>
        <time>2022-07-09T12:44:15.000Z</time>
      </trkpt>
      <trkpt lat="44.1161" lon="6.65952">
        <ele>2258.8000488281</ele>
        <time>2022-07-09T12:44:19.000Z</time>
      </trkpt>
      <trkpt lat="44.11607" lon="6.65947">
        <ele>2258.8000488281</ele>
        <time>2022-07-09T12:44:24.000Z</time>
      </trkpt>
      <trkpt lat="44.11602" lon="6.65941">
        <ele>2258.8000488281</ele>
        <time>2022-07-09T12:44:30.000Z</time>
      </trkpt>
      <trkpt lat="44.11597" lon="6.65933">
        <ele>2259</ele>
        <time>2022-07-09T12:44:34.000Z</time>
      </trkpt>
      <trkpt lat="44.11598" lon="6.65929">
        <ele>2259</ele>
        <time>2022-07-09T12:44:35.000Z</time>
      </trkpt>
      <trkpt lat="44.11603" lon="6.6591">
        <ele>2258.6000976562</ele>
        <time>2022-07-09T12:44:41.000Z</time>
      </trkpt>
      <trkpt lat="44.11608" lon="6.65886">
        <ele>2257.8000488281</ele>
        <time>2022-07-09T12:44:47.000Z</time>
      </trkpt>
      <trkpt lat="44.11612" lon="6.6588">
        <ele>2257.6000976562</ele>
        <time>2022-07-09T12:44:49.000Z</time>
      </trkpt>
      <trkpt lat="44.11614" lon="6.65879">
        <ele>2257.3999023438</ele>
        <time>2022-07-09T12:44:50.000Z</time>
      </trkpt>
      <trkpt lat="44.11617" lon="6.65878">
        <ele>2257.1999511719</ele>
        <time>2022-07-09T12:44:51.000Z</time>
      </trkpt>
      <trkpt lat="44.1162" lon="6.65872">
        <ele>2257</ele>
        <time>2022-07-09T12:44:54.000Z</time>
      </trkpt>
      <trkpt lat="44.1162" lon="6.65869">
        <ele>2257</ele>
        <time>2022-07-09T12:44:55.000Z</time>
      </trkpt>
      <trkpt lat="44.11619" lon="6.65848">
        <ele>2256.6000976562</ele>
        <time>2022-07-09T12:45:00.000Z</time>
      </trkpt>
      <trkpt lat="44.11621" lon="6.65845">
        <ele>2256.6000976562</ele>
        <time>2022-07-09T12:45:01.000Z</time>
      </trkpt>
      <trkpt lat="44.11624" lon="6.65843">
        <ele>2256.3999023438</ele>
        <time>2022-07-09T12:45:02.000Z</time>
      </trkpt>
      <trkpt lat="44.11626" lon="6.65842">
        <ele>2256.1999511719</ele>
        <time>2022-07-09T12:45:03.000Z</time>
      </trkpt>
      <trkpt lat="44.1163" lon="6.65833">
        <ele>2255.8000488281</ele>
        <time>2022-07-09T12:45:06.000Z</time>
      </trkpt>
      <trkpt lat="44.11629" lon="6.65826">
        <ele>2255.6000976562</ele>
        <time>2022-07-09T12:45:08.000Z</time>
      </trkpt>
      <trkpt lat="44.1163" lon="6.65813">
        <ele>2255.3999023438</ele>
        <time>2022-07-09T12:45:12.000Z</time>
      </trkpt>
      <trkpt lat="44.11631" lon="6.6581">
        <ele>2254.8000488281</ele>
        <time>2022-07-09T12:45:17.000Z</time>
      </trkpt>
      <trkpt lat="44.11631" lon="6.6581">
        <ele>2254.6000976562</ele>
        <time>2022-07-09T12:45:29.000Z</time>
      </trkpt>
      <trkpt lat="44.1163" lon="6.6581">
        <ele>2254.3999023438</ele>
        <time>2022-07-09T12:45:36.000Z</time>
      </trkpt>
      <trkpt lat="44.1163" lon="6.65809">
        <ele>2254.3999023438</ele>
        <time>2022-07-09T12:45:37.000Z</time>
      </trkpt>
      <trkpt lat="44.11629" lon="6.6581">
        <ele>2254.1999511719</ele>
        <time>2022-07-09T12:45:43.000Z</time>
      </trkpt>
      <trkpt lat="44.11629" lon="6.6581">
        <ele>2254.3999023438</ele>
        <time>2022-07-09T12:45:55.000Z</time>
      </trkpt>
      <trkpt lat="44.11629" lon="6.6581">
        <ele>2254.6000976562</ele>
        <time>2022-07-09T12:46:07.000Z</time>
      </trkpt>
      <trkpt lat="44.11629" lon="6.6581">
        <ele>2254.8000488281</ele>
        <time>2022-07-09T12:46:17.000Z</time>
      </trkpt>
      <trkpt lat="44.11629" lon="6.6581">
        <ele>2254.3999023438</ele>
        <time>2022-07-09T12:46:29.000Z</time>
      </trkpt>
      <trkpt lat="44.11629" lon="6.6581">
        <ele>2254.3999023438</ele>
        <time>2022-07-09T12:46:40.000Z</time>
      </trkpt>
      <trkpt lat="44.11629" lon="6.65811">
        <ele>2254.1999511719</ele>
        <time>2022-07-09T12:46:53.000Z</time>
      </trkpt>
      <trkpt lat="44.1163" lon="6.6581">
        <ele>2254.3999023438</ele>
        <time>2022-07-09T12:47:01.000Z</time>
      </trkpt>
      <trkpt lat="44.1163" lon="6.6581">
        <ele>2254.8000488281</ele>
        <time>2022-07-09T12:47:17.000Z</time>
      </trkpt>
      <trkpt lat="44.11629" lon="6.65806">
        <ele>2254.8000488281</ele>
        <time>2022-07-09T12:47:24.000Z</time>
      </trkpt>
      <trkpt lat="44.11629" lon="6.65803">
        <ele>2254.8000488281</ele>
        <time>2022-07-09T12:47:25.000Z</time>
      </trkpt>
      <trkpt lat="44.11631" lon="6.65783">
        <ele>2253.6000976562</ele>
        <time>2022-07-09T12:47:29.000Z</time>
      </trkpt>
      <trkpt lat="44.11633" lon="6.65775">
        <ele>2252.8000488281</ele>
        <time>2022-07-09T12:47:30.000Z</time>
      </trkpt>
      <trkpt lat="44.11637" lon="6.6576">
        <ele>2251.1999511719</ele>
        <time>2022-07-09T12:47:32.000Z</time>
      </trkpt>
      <trkpt lat="44.11639" lon="6.65753">
        <ele>2250.3999023438</ele>
        <time>2022-07-09T12:47:33.000Z</time>
      </trkpt>
      <trkpt lat="44.11641" lon="6.65745">
        <ele>2249.1999511719</ele>
        <time>2022-07-09T12:47:34.000Z</time>
      </trkpt>
      <trkpt lat="44.11643" lon="6.65728">
        <ele>2247</ele>
        <time>2022-07-09T12:47:36.000Z</time>
      </trkpt>
      <trkpt lat="44.11644" lon="6.65712">
        <ele>2247.1999511719</ele>
        <time>2022-07-09T12:47:38.000Z</time>
      </trkpt>
      <trkpt lat="44.11646" lon="6.65704">
        <ele>2245.8000488281</ele>
        <time>2022-07-09T12:47:39.000Z</time>
      </trkpt>
      <trkpt lat="44.11649" lon="6.65696">
        <ele>2244.6000976562</ele>
        <time>2022-07-09T12:47:40.000Z</time>
      </trkpt>
      <trkpt lat="44.11651" lon="6.65688">
        <ele>2243.6000976562</ele>
        <time>2022-07-09T12:47:41.000Z</time>
      </trkpt>
      <trkpt lat="44.11654" lon="6.65681">
        <ele>2241.6000976562</ele>
        <time>2022-07-09T12:47:42.000Z</time>
      </trkpt>
      <trkpt lat="44.1166" lon="6.65666">
        <ele>2239.1999511719</ele>
        <time>2022-07-09T12:47:44.000Z</time>
      </trkpt>
      <trkpt lat="44.11664" lon="6.65659">
        <ele>2238</ele>
        <time>2022-07-09T12:47:45.000Z</time>
      </trkpt>
      <trkpt lat="44.11668" lon="6.65653">
        <ele>2236.6000976562</ele>
        <time>2022-07-09T12:47:46.000Z</time>
      </trkpt>
      <trkpt lat="44.11673" lon="6.65647">
        <ele>2235.6000976562</ele>
        <time>2022-07-09T12:47:47.000Z</time>
      </trkpt>
      <trkpt lat="44.11682" lon="6.65638">
        <ele>2233.3999023438</ele>
        <time>2022-07-09T12:47:49.000Z</time>
      </trkpt>
      <trkpt lat="44.11688" lon="6.65632">
        <ele>2231.1999511719</ele>
        <time>2022-07-09T12:47:51.000Z</time>
      </trkpt>
      <trkpt lat="44.11691" lon="6.65632">
        <ele>2230</ele>
        <time>2022-07-09T12:47:52.000Z</time>
      </trkpt>
      <trkpt lat="44.11695" lon="6.65632">
        <ele>2228.1999511719</ele>
        <time>2022-07-09T12:47:54.000Z</time>
      </trkpt>
      <trkpt lat="44.11697" lon="6.65632">
        <ele>2227.1999511719</ele>
        <time>2022-07-09T12:47:55.000Z</time>
      </trkpt>
      <trkpt lat="44.11699" lon="6.65632">
        <ele>2226.1999511719</ele>
        <time>2022-07-09T12:47:56.000Z</time>
      </trkpt>
      <trkpt lat="44.11704" lon="6.65633">
        <ele>2225.1999511719</ele>
        <time>2022-07-09T12:47:58.000Z</time>
      </trkpt>
      <trkpt lat="44.11709" lon="6.65636">
        <ele>2223.3999023438</ele>
        <time>2022-07-09T12:48:00.000Z</time>
      </trkpt>
      <trkpt lat="44.11714" lon="6.65636">
        <ele>2221.8000488281</ele>
        <time>2022-07-09T12:48:02.000Z</time>
      </trkpt>
      <trkpt lat="44.1172" lon="6.65638">
        <ele>2220.6000976562</ele>
        <time>2022-07-09T12:48:04.000Z</time>
      </trkpt>
      <trkpt lat="44.11723" lon="6.6564">
        <ele>2220.1999511719</ele>
        <time>2022-07-09T12:48:05.000Z</time>
      </trkpt>
      <trkpt lat="44.11726" lon="6.65641">
        <ele>2219.3999023438</ele>
        <time>2022-07-09T12:48:06.000Z</time>
      </trkpt>
      <trkpt lat="44.11739" lon="6.65646">
        <ele>2218</ele>
        <time>2022-07-09T12:48:09.000Z</time>
      </trkpt>
      <trkpt lat="44.11749" lon="6.6565">
        <ele>2216.3999023438</ele>
        <time>2022-07-09T12:48:11.000Z</time>
      </trkpt>
      <trkpt lat="44.11757" lon="6.65652">
        <ele>2215</ele>
        <time>2022-07-09T12:48:13.000Z</time>
      </trkpt>
      <trkpt lat="44.11762" lon="6.65654">
        <ele>2214.6000976562</ele>
        <time>2022-07-09T12:48:14.000Z</time>
      </trkpt>
      <trkpt lat="44.11767" lon="6.65656">
        <ele>2213.8000488281</ele>
        <time>2022-07-09T12:48:15.000Z</time>
      </trkpt>
      <trkpt lat="44.11774" lon="6.65657">
        <ele>2212.6000976562</ele>
        <time>2022-07-09T12:48:17.000Z</time>
      </trkpt>
      <trkpt lat="44.11778" lon="6.65657">
        <ele>2212.3999023438</ele>
        <time>2022-07-09T12:48:18.000Z</time>
      </trkpt>
      <trkpt lat="44.11785" lon="6.65659">
        <ele>2211.1999511719</ele>
        <time>2022-07-09T12:48:20.000Z</time>
      </trkpt>
      <trkpt lat="44.11791" lon="6.65664">
        <ele>2210</ele>
        <time>2022-07-09T12:48:22.000Z</time>
      </trkpt>
      <trkpt lat="44.11796" lon="6.65665">
        <ele>2209.1999511719</ele>
        <time>2022-07-09T12:48:24.000Z</time>
      </trkpt>
      <trkpt lat="44.11799" lon="6.65664">
        <ele>2209</ele>
        <time>2022-07-09T12:48:25.000Z</time>
      </trkpt>
      <trkpt lat="44.11801" lon="6.65664">
        <ele>2208.8000488281</ele>
        <time>2022-07-09T12:48:26.000Z</time>
      </trkpt>
      <trkpt lat="44.11808" lon="6.65666">
        <ele>2207.8000488281</ele>
        <time>2022-07-09T12:48:29.000Z</time>
      </trkpt>
      <trkpt lat="44.11812" lon="6.65669">
        <ele>2207.3999023438</ele>
        <time>2022-07-09T12:48:31.000Z</time>
      </trkpt>
      <trkpt lat="44.11815" lon="6.65673">
        <ele>2206.8000488281</ele>
        <time>2022-07-09T12:48:33.000Z</time>
      </trkpt>
      <trkpt lat="44.11818" lon="6.65675">
        <ele>2205.3999023438</ele>
        <time>2022-07-09T12:48:35.000Z</time>
      </trkpt>
      <trkpt lat="44.1182" lon="6.65674">
        <ele>2204.3999023438</ele>
        <time>2022-07-09T12:48:36.000Z</time>
      </trkpt>
      <trkpt lat="44.11824" lon="6.65672">
        <ele>2203</ele>
        <time>2022-07-09T12:48:38.000Z</time>
      </trkpt>
      <trkpt lat="44.11827" lon="6.65673">
        <ele>2202.1999511719</ele>
        <time>2022-07-09T12:48:39.000Z</time>
      </trkpt>
      <trkpt lat="44.11828" lon="6.65673">
        <ele>2201.6000976562</ele>
        <time>2022-07-09T12:48:40.000Z</time>
      </trkpt>
      <trkpt lat="44.1183" lon="6.65674">
        <ele>2201.3999023438</ele>
        <time>2022-07-09T12:48:41.000Z</time>
      </trkpt>
      <trkpt lat="44.11839" lon="6.65673">
        <ele>2201</ele>
        <time>2022-07-09T12:48:46.000Z</time>
      </trkpt>
      <trkpt lat="44.11841" lon="6.65672">
        <ele>2200.3999023438</ele>
        <time>2022-07-09T12:48:48.000Z</time>
      </trkpt>
      <trkpt lat="44.11841" lon="6.65671">
        <ele>2200</ele>
        <time>2022-07-09T12:48:50.000Z</time>
      </trkpt>
      <trkpt lat="44.11844" lon="6.65661">
        <ele>2201.3999023438</ele>
        <time>2022-07-09T12:48:57.000Z</time>
      </trkpt>
      <trkpt lat="44.11844" lon="6.6566">
        <ele>2201.3999023438</ele>
        <time>2022-07-09T12:48:58.000Z</time>
      </trkpt>
      <trkpt lat="44.11847" lon="6.65653">
        <ele>2202.6000976562</ele>
        <time>2022-07-09T12:49:04.000Z</time>
      </trkpt>
      <trkpt lat="44.11849" lon="6.6565">
        <ele>2203</ele>
        <time>2022-07-09T12:49:07.000Z</time>
      </trkpt>
      <trkpt lat="44.11849" lon="6.65647">
        <ele>2203.6000976562</ele>
        <time>2022-07-09T12:49:11.000Z</time>
      </trkpt>
      <trkpt lat="44.11851" lon="6.65646">
        <ele>2203.8000488281</ele>
        <time>2022-07-09T12:49:15.000Z</time>
      </trkpt>
      <trkpt lat="44.11855" lon="6.65639">
        <ele>2204.6000976562</ele>
        <time>2022-07-09T12:49:22.000Z</time>
      </trkpt>
      <trkpt lat="44.11858" lon="6.65634">
        <ele>2204.6000976562</ele>
        <time>2022-07-09T12:49:28.000Z</time>
      </trkpt>
      <trkpt lat="44.11868" lon="6.65619">
        <ele>2204</ele>
        <time>2022-07-09T12:49:34.000Z</time>
      </trkpt>
      <trkpt lat="44.11871" lon="6.65613">
        <ele>2203.6000976562</ele>
        <time>2022-07-09T12:49:36.000Z</time>
      </trkpt>
      <trkpt lat="44.11877" lon="6.65594">
        <ele>2202</ele>
        <time>2022-07-09T12:49:41.000Z</time>
      </trkpt>
      <trkpt lat="44.1188" lon="6.65585">
        <ele>2200.6000976562</ele>
        <time>2022-07-09T12:49:43.000Z</time>
      </trkpt>
      <trkpt lat="44.11883" lon="6.65577">
        <ele>2198.6000976562</ele>
        <time>2022-07-09T12:49:45.000Z</time>
      </trkpt>
      <trkpt lat="44.11884" lon="6.65573">
        <ele>2198.1999511719</ele>
        <time>2022-07-09T12:49:46.000Z</time>
      </trkpt>
      <trkpt lat="44.11886" lon="6.65568">
        <ele>2197.6000976562</ele>
        <time>2022-07-09T12:49:47.000Z</time>
      </trkpt>
      <trkpt lat="44.11889" lon="6.65556">
        <ele>2196.6000976562</ele>
        <time>2022-07-09T12:49:49.000Z</time>
      </trkpt>
      <trkpt lat="44.11893" lon="6.65545">
        <ele>2195.3999023438</ele>
        <time>2022-07-09T12:49:51.000Z</time>
      </trkpt>
      <trkpt lat="44.11896" lon="6.65539">
        <ele>2194.6000976562</ele>
        <time>2022-07-09T12:49:52.000Z</time>
      </trkpt>
      <trkpt lat="44.11899" lon="6.65534">
        <ele>2193.8000488281</ele>
        <time>2022-07-09T12:49:53.000Z</time>
      </trkpt>
      <trkpt lat="44.11902" lon="6.65527">
        <ele>2192.6000976562</ele>
        <time>2022-07-09T12:49:54.000Z</time>
      </trkpt>
      <trkpt lat="44.11905" lon="6.65521">
        <ele>2191.8000488281</ele>
        <time>2022-07-09T12:49:55.000Z</time>
      </trkpt>
      <trkpt lat="44.11908" lon="6.65516">
        <ele>2190.8000488281</ele>
        <time>2022-07-09T12:49:56.000Z</time>
      </trkpt>
      <trkpt lat="44.11914" lon="6.65508">
        <ele>2190.1999511719</ele>
        <time>2022-07-09T12:49:58.000Z</time>
      </trkpt>
      <trkpt lat="44.11918" lon="6.65503">
        <ele>2189.3999023438</ele>
        <time>2022-07-09T12:49:59.000Z</time>
      </trkpt>
      <trkpt lat="44.11921" lon="6.65498">
        <ele>2188.3999023438</ele>
        <time>2022-07-09T12:50:00.000Z</time>
      </trkpt>
      <trkpt lat="44.11927" lon="6.65489">
        <ele>2186</ele>
        <time>2022-07-09T12:50:02.000Z</time>
      </trkpt>
      <trkpt lat="44.1193" lon="6.65486">
        <ele>2185</ele>
        <time>2022-07-09T12:50:03.000Z</time>
      </trkpt>
      <trkpt lat="44.11933" lon="6.6548">
        <ele>2183.8000488281</ele>
        <time>2022-07-09T12:50:04.000Z</time>
      </trkpt>
      <trkpt lat="44.11941" lon="6.6547">
        <ele>2182.3999023438</ele>
        <time>2022-07-09T12:50:06.000Z</time>
      </trkpt>
      <trkpt lat="44.11945" lon="6.65465">
        <ele>2182</ele>
        <time>2022-07-09T12:50:07.000Z</time>
      </trkpt>
      <trkpt lat="44.11951" lon="6.65462">
        <ele>2181</ele>
        <time>2022-07-09T12:50:08.000Z</time>
      </trkpt>
      <trkpt lat="44.11959" lon="6.65459">
        <ele>2179.1999511719</ele>
        <time>2022-07-09T12:50:10.000Z</time>
      </trkpt>
      <trkpt lat="44.11961" lon="6.6546">
        <ele>2178.1999511719</ele>
        <time>2022-07-09T12:50:11.000Z</time>
      </trkpt>
      <trkpt lat="44.1196" lon="6.65456">
        <ele>2176.3999023438</ele>
        <time>2022-07-09T12:50:13.000Z</time>
      </trkpt>
      <trkpt lat="44.11959" lon="6.65454">
        <ele>2175.6000976562</ele>
        <time>2022-07-09T12:50:14.000Z</time>
      </trkpt>
      <trkpt lat="44.11957" lon="6.65453">
        <ele>2174.8000488281</ele>
        <time>2022-07-09T12:50:15.000Z</time>
      </trkpt>
      <trkpt lat="44.11948" lon="6.65451">
        <ele>2174.1999511719</ele>
        <time>2022-07-09T12:50:17.000Z</time>
      </trkpt>
      <trkpt lat="44.11944" lon="6.65451">
        <ele>2173.6000976562</ele>
        <time>2022-07-09T12:50:18.000Z</time>
      </trkpt>
      <trkpt lat="44.11936" lon="6.65452">
        <ele>2173</ele>
        <time>2022-07-09T12:50:20.000Z</time>
      </trkpt>
      <trkpt lat="44.11932" lon="6.65453">
        <ele>2172.3999023438</ele>
        <time>2022-07-09T12:50:21.000Z</time>
      </trkpt>
      <trkpt lat="44.11927" lon="6.65455">
        <ele>2171.6000976562</ele>
        <time>2022-07-09T12:50:22.000Z</time>
      </trkpt>
      <trkpt lat="44.11922" lon="6.65456">
        <ele>2171.1999511719</ele>
        <time>2022-07-09T12:50:23.000Z</time>
      </trkpt>
      <trkpt lat="44.11913" lon="6.65459">
        <ele>2169.8000488281</ele>
        <time>2022-07-09T12:50:25.000Z</time>
      </trkpt>
      <trkpt lat="44.11903" lon="6.65463">
        <ele>2167.8000488281</ele>
        <time>2022-07-09T12:50:27.000Z</time>
      </trkpt>
      <trkpt lat="44.11899" lon="6.65464">
        <ele>2166.1999511719</ele>
        <time>2022-07-09T12:50:28.000Z</time>
      </trkpt>
      <trkpt lat="44.11895" lon="6.65467">
        <ele>2165</ele>
        <time>2022-07-09T12:50:29.000Z</time>
      </trkpt>
      <trkpt lat="44.11892" lon="6.65469">
        <ele>2164</ele>
        <time>2022-07-09T12:50:30.000Z</time>
      </trkpt>
      <trkpt lat="44.11883" lon="6.65473">
        <ele>2162.8000488281</ele>
        <time>2022-07-09T12:50:32.000Z</time>
      </trkpt>
      <trkpt lat="44.1188" lon="6.65476">
        <ele>2162.1999511719</ele>
        <time>2022-07-09T12:50:33.000Z</time>
      </trkpt>
      <trkpt lat="44.11876" lon="6.65478">
        <ele>2160.8000488281</ele>
        <time>2022-07-09T12:50:35.000Z</time>
      </trkpt>
      <trkpt lat="44.11877" lon="6.65477">
        <ele>2160.1999511719</ele>
        <time>2022-07-09T12:50:36.000Z</time>
      </trkpt>
      <trkpt lat="44.11876" lon="6.65476">
        <ele>2159.3999023438</ele>
        <time>2022-07-09T12:50:37.000Z</time>
      </trkpt>
      <trkpt lat="44.11877" lon="6.65474">
        <ele>2159.1999511719</ele>
        <time>2022-07-09T12:50:38.000Z</time>
      </trkpt>
      <trkpt lat="44.11879" lon="6.65472">
        <ele>2158.6000976562</ele>
        <time>2022-07-09T12:50:40.000Z</time>
      </trkpt>
      <trkpt lat="44.11884" lon="6.65465">
        <ele>2158.3999023438</ele>
        <time>2022-07-09T12:50:43.000Z</time>
      </trkpt>
      <trkpt lat="44.1189" lon="6.65453">
        <ele>2157.1999511719</ele>
        <time>2022-07-09T12:50:46.000Z</time>
      </trkpt>
      <trkpt lat="44.11901" lon="6.65438">
        <ele>2155.6000976562</ele>
        <time>2022-07-09T12:50:49.000Z</time>
      </trkpt>
      <trkpt lat="44.11904" lon="6.65433">
        <ele>2154.8000488281</ele>
        <time>2022-07-09T12:50:50.000Z</time>
      </trkpt>
      <trkpt lat="44.11908" lon="6.65428">
        <ele>2154.3999023438</ele>
        <time>2022-07-09T12:50:51.000Z</time>
      </trkpt>
      <trkpt lat="44.11911" lon="6.65424">
        <ele>2153.1999511719</ele>
        <time>2022-07-09T12:50:52.000Z</time>
      </trkpt>
      <trkpt lat="44.11914" lon="6.6542">
        <ele>2152</ele>
        <time>2022-07-09T12:50:53.000Z</time>
      </trkpt>
      <trkpt lat="44.11922" lon="6.65411">
        <ele>2150.3999023438</ele>
        <time>2022-07-09T12:50:55.000Z</time>
      </trkpt>
      <trkpt lat="44.11926" lon="6.65407">
        <ele>2149.3999023438</ele>
        <time>2022-07-09T12:50:56.000Z</time>
      </trkpt>
      <trkpt lat="44.1193" lon="6.65402">
        <ele>2148.6000976562</ele>
        <time>2022-07-09T12:50:57.000Z</time>
      </trkpt>
      <trkpt lat="44.11933" lon="6.65398">
        <ele>2148</ele>
        <time>2022-07-09T12:50:58.000Z</time>
      </trkpt>
      <trkpt lat="44.11937" lon="6.65394">
        <ele>2146.6000976562</ele>
        <time>2022-07-09T12:50:59.000Z</time>
      </trkpt>
      <trkpt lat="44.11942" lon="6.65389">
        <ele>2145.6000976562</ele>
        <time>2022-07-09T12:51:00.000Z</time>
      </trkpt>
      <trkpt lat="44.11946" lon="6.65385">
        <ele>2144.8000488281</ele>
        <time>2022-07-09T12:51:01.000Z</time>
      </trkpt>
      <trkpt lat="44.11949" lon="6.65381">
        <ele>2144</ele>
        <time>2022-07-09T12:51:02.000Z</time>
      </trkpt>
      <trkpt lat="44.11953" lon="6.65376">
        <ele>2143</ele>
        <time>2022-07-09T12:51:03.000Z</time>
      </trkpt>
      <trkpt lat="44.11962" lon="6.65365">
        <ele>2141.1999511719</ele>
        <time>2022-07-09T12:51:06.000Z</time>
      </trkpt>
      <trkpt lat="44.11965" lon="6.65361">
        <ele>2140.1999511719</ele>
        <time>2022-07-09T12:51:07.000Z</time>
      </trkpt>
      <trkpt lat="44.1197" lon="6.65356">
        <ele>2139.6000976562</ele>
        <time>2022-07-09T12:51:08.000Z</time>
      </trkpt>
      <trkpt lat="44.11979" lon="6.65347">
        <ele>2137.8000488281</ele>
        <time>2022-07-09T12:51:10.000Z</time>
      </trkpt>
      <trkpt lat="44.11982" lon="6.65342">
        <ele>2137</ele>
        <time>2022-07-09T12:51:11.000Z</time>
      </trkpt>
      <trkpt lat="44.11987" lon="6.65338">
        <ele>2136</ele>
        <time>2022-07-09T12:51:12.000Z</time>
      </trkpt>
      <trkpt lat="44.11992" lon="6.65334">
        <ele>2134.6000976562</ele>
        <time>2022-07-09T12:51:13.000Z</time>
      </trkpt>
      <trkpt lat="44.11995" lon="6.65333">
        <ele>2133.3999023438</ele>
        <time>2022-07-09T12:51:14.000Z</time>
      </trkpt>
      <trkpt lat="44.11997" lon="6.65333">
        <ele>2132.3999023438</ele>
        <time>2022-07-09T12:51:15.000Z</time>
      </trkpt>
      <trkpt lat="44.11997" lon="6.65331">
        <ele>2131.1999511719</ele>
        <time>2022-07-09T12:51:16.000Z</time>
      </trkpt>
      <trkpt lat="44.11994" lon="6.6533">
        <ele>2130.3999023438</ele>
        <time>2022-07-09T12:51:18.000Z</time>
      </trkpt>
      <trkpt lat="44.11991" lon="6.65329">
        <ele>2130.1999511719</ele>
        <time>2022-07-09T12:51:19.000Z</time>
      </trkpt>
      <trkpt lat="44.11981" lon="6.65329">
        <ele>2129.3999023438</ele>
        <time>2022-07-09T12:51:21.000Z</time>
      </trkpt>
      <trkpt lat="44.11976" lon="6.6533">
        <ele>2128.6000976562</ele>
        <time>2022-07-09T12:51:22.000Z</time>
      </trkpt>
      <trkpt lat="44.11966" lon="6.65332">
        <ele>2127.3999023438</ele>
        <time>2022-07-09T12:51:24.000Z</time>
      </trkpt>
      <trkpt lat="44.1196" lon="6.65333">
        <ele>2126.3999023438</ele>
        <time>2022-07-09T12:51:25.000Z</time>
      </trkpt>
      <trkpt lat="44.11954" lon="6.65334">
        <ele>2125.8000488281</ele>
        <time>2022-07-09T12:51:26.000Z</time>
      </trkpt>
      <trkpt lat="44.11947" lon="6.65334">
        <ele>2125.1999511719</ele>
        <time>2022-07-09T12:51:27.000Z</time>
      </trkpt>
      <trkpt lat="44.11942" lon="6.65336">
        <ele>2124.3999023438</ele>
        <time>2022-07-09T12:51:28.000Z</time>
      </trkpt>
      <trkpt lat="44.11936" lon="6.65337">
        <ele>2123.6000976562</ele>
        <time>2022-07-09T12:51:29.000Z</time>
      </trkpt>
      <trkpt lat="44.11932" lon="6.65338">
        <ele>2122.3999023438</ele>
        <time>2022-07-09T12:51:30.000Z</time>
      </trkpt>
      <trkpt lat="44.11928" lon="6.6534">
        <ele>2121</ele>
        <time>2022-07-09T12:51:31.000Z</time>
      </trkpt>
      <trkpt lat="44.11924" lon="6.65341">
        <ele>2118.8000488281</ele>
        <time>2022-07-09T12:51:33.000Z</time>
      </trkpt>
      <trkpt lat="44.11926" lon="6.65341">
        <ele>2117.8000488281</ele>
        <time>2022-07-09T12:51:34.000Z</time>
      </trkpt>
      <trkpt lat="44.11925" lon="6.65341">
        <ele>2117.3999023438</ele>
        <time>2022-07-09T12:51:35.000Z</time>
      </trkpt>
      <trkpt lat="44.11927" lon="6.65338">
        <ele>2116.6000976562</ele>
        <time>2022-07-09T12:51:40.000Z</time>
      </trkpt>
      <trkpt lat="44.11928" lon="6.65338">
        <ele>2116.8000488281</ele>
        <time>2022-07-09T12:51:46.000Z</time>
      </trkpt>
      <trkpt lat="44.11936" lon="6.65328">
        <ele>2116.3999023438</ele>
        <time>2022-07-09T12:51:50.000Z</time>
      </trkpt>
      <trkpt lat="44.11946" lon="6.65315">
        <ele>2115.1999511719</ele>
        <time>2022-07-09T12:51:53.000Z</time>
      </trkpt>
      <trkpt lat="44.1195" lon="6.65311">
        <ele>2114.3999023438</ele>
        <time>2022-07-09T12:51:54.000Z</time>
      </trkpt>
      <trkpt lat="44.11954" lon="6.65305">
        <ele>2113.8000488281</ele>
        <time>2022-07-09T12:51:55.000Z</time>
      </trkpt>
      <trkpt lat="44.11961" lon="6.65295">
        <ele>2112.8000488281</ele>
        <time>2022-07-09T12:51:57.000Z</time>
      </trkpt>
      <trkpt lat="44.11966" lon="6.65287">
        <ele>2111.1999511719</ele>
        <time>2022-07-09T12:51:59.000Z</time>
      </trkpt>
      <trkpt lat="44.11973" lon="6.65278">
        <ele>2109.6000976562</ele>
        <time>2022-07-09T12:52:01.000Z</time>
      </trkpt>
      <trkpt lat="44.11978" lon="6.65272">
        <ele>2108.1999511719</ele>
        <time>2022-07-09T12:52:02.000Z</time>
      </trkpt>
      <trkpt lat="44.11983" lon="6.65266">
        <ele>2107.6000976562</ele>
        <time>2022-07-09T12:52:03.000Z</time>
      </trkpt>
      <trkpt lat="44.11986" lon="6.6526">
        <ele>2106.8000488281</ele>
        <time>2022-07-09T12:52:04.000Z</time>
      </trkpt>
      <trkpt lat="44.1199" lon="6.65254">
        <ele>2105.6000976562</ele>
        <time>2022-07-09T12:52:05.000Z</time>
      </trkpt>
      <trkpt lat="44.11994" lon="6.65249">
        <ele>2104.1999511719</ele>
        <time>2022-07-09T12:52:06.000Z</time>
      </trkpt>
      <trkpt lat="44.12003" lon="6.65236">
        <ele>2102.1999511719</ele>
        <time>2022-07-09T12:52:08.000Z</time>
      </trkpt>
      <trkpt lat="44.12008" lon="6.65231">
        <ele>2100.8000488281</ele>
        <time>2022-07-09T12:52:09.000Z</time>
      </trkpt>
      <trkpt lat="44.12017" lon="6.65219">
        <ele>2098.8000488281</ele>
        <time>2022-07-09T12:52:11.000Z</time>
      </trkpt>
      <trkpt lat="44.12021" lon="6.65215">
        <ele>2097.1999511719</ele>
        <time>2022-07-09T12:52:12.000Z</time>
      </trkpt>
      <trkpt lat="44.12025" lon="6.65212">
        <ele>2096</ele>
        <time>2022-07-09T12:52:13.000Z</time>
      </trkpt>
      <trkpt lat="44.12028" lon="6.65211">
        <ele>2094.3999023438</ele>
        <time>2022-07-09T12:52:15.000Z</time>
      </trkpt>
      <trkpt lat="44.12026" lon="6.6521">
        <ele>2093.3999023438</ele>
        <time>2022-07-09T12:52:16.000Z</time>
      </trkpt>
      <trkpt lat="44.12024" lon="6.6521">
        <ele>2093</ele>
        <time>2022-07-09T12:52:17.000Z</time>
      </trkpt>
      <trkpt lat="44.12013" lon="6.65212">
        <ele>2092.1999511719</ele>
        <time>2022-07-09T12:52:19.000Z</time>
      </trkpt>
      <trkpt lat="44.12007" lon="6.65215">
        <ele>2091.6000976562</ele>
        <time>2022-07-09T12:52:20.000Z</time>
      </trkpt>
      <trkpt lat="44.11985" lon="6.65223">
        <ele>2090.8000488281</ele>
        <time>2022-07-09T12:52:23.000Z</time>
      </trkpt>
      <trkpt lat="44.11974" lon="6.65228">
        <ele>2089.3999023438</ele>
        <time>2022-07-09T12:52:25.000Z</time>
      </trkpt>
      <trkpt lat="44.11962" lon="6.65233">
        <ele>2087.6000976562</ele>
        <time>2022-07-09T12:52:27.000Z</time>
      </trkpt>
      <trkpt lat="44.11949" lon="6.65237">
        <ele>2086</ele>
        <time>2022-07-09T12:52:29.000Z</time>
      </trkpt>
      <trkpt lat="44.11938" lon="6.65243">
        <ele>2084.3999023438</ele>
        <time>2022-07-09T12:52:31.000Z</time>
      </trkpt>
      <trkpt lat="44.11933" lon="6.65245">
        <ele>2083.1999511719</ele>
        <time>2022-07-09T12:52:32.000Z</time>
      </trkpt>
      <trkpt lat="44.11928" lon="6.65247">
        <ele>2082.1999511719</ele>
        <time>2022-07-09T12:52:33.000Z</time>
      </trkpt>
      <trkpt lat="44.11925" lon="6.6525">
        <ele>2080.8000488281</ele>
        <time>2022-07-09T12:52:34.000Z</time>
      </trkpt>
      <trkpt lat="44.11922" lon="6.65252">
        <ele>2079.8000488281</ele>
        <time>2022-07-09T12:52:35.000Z</time>
      </trkpt>
      <trkpt lat="44.11921" lon="6.65253">
        <ele>2079</ele>
        <time>2022-07-09T12:52:36.000Z</time>
      </trkpt>
      <trkpt lat="44.11921" lon="6.65253">
        <ele>2078.1999511719</ele>
        <time>2022-07-09T12:52:37.000Z</time>
      </trkpt>
      <trkpt lat="44.11922" lon="6.65252">
        <ele>2077.8000488281</ele>
        <time>2022-07-09T12:52:40.000Z</time>
      </trkpt>
      <trkpt lat="44.11922" lon="6.6525">
        <ele>2077.1999511719</ele>
        <time>2022-07-09T12:52:44.000Z</time>
      </trkpt>
      <trkpt lat="44.11925" lon="6.65246">
        <ele>2076.3999023438</ele>
        <time>2022-07-09T12:52:51.000Z</time>
      </trkpt>
      <trkpt lat="44.11927" lon="6.65243">
        <ele>2075.8000488281</ele>
        <time>2022-07-09T12:52:52.000Z</time>
      </trkpt>
      <trkpt lat="44.11933" lon="6.65235">
        <ele>2075</ele>
        <time>2022-07-09T12:52:54.000Z</time>
      </trkpt>
      <trkpt lat="44.11936" lon="6.6523">
        <ele>2074.3999023438</ele>
        <time>2022-07-09T12:52:55.000Z</time>
      </trkpt>
      <trkpt lat="44.11944" lon="6.65222">
        <ele>2072.1999511719</ele>
        <time>2022-07-09T12:52:57.000Z</time>
      </trkpt>
      <trkpt lat="44.11947" lon="6.65216">
        <ele>2071.1999511719</ele>
        <time>2022-07-09T12:52:58.000Z</time>
      </trkpt>
      <trkpt lat="44.11951" lon="6.6521">
        <ele>2070.3999023438</ele>
        <time>2022-07-09T12:52:59.000Z</time>
      </trkpt>
      <trkpt lat="44.11955" lon="6.65205">
        <ele>2069.3999023438</ele>
        <time>2022-07-09T12:53:00.000Z</time>
      </trkpt>
      <trkpt lat="44.11958" lon="6.652">
        <ele>2068.3999023438</ele>
        <time>2022-07-09T12:53:01.000Z</time>
      </trkpt>
      <trkpt lat="44.11962" lon="6.65193">
        <ele>2066.3999023438</ele>
        <time>2022-07-09T12:53:03.000Z</time>
      </trkpt>
      <trkpt lat="44.11966" lon="6.65189">
        <ele>2065.6000976562</ele>
        <time>2022-07-09T12:53:04.000Z</time>
      </trkpt>
      <trkpt lat="44.11968" lon="6.65184">
        <ele>2065.1999511719</ele>
        <time>2022-07-09T12:53:05.000Z</time>
      </trkpt>
      <trkpt lat="44.11971" lon="6.65179">
        <ele>2064</ele>
        <time>2022-07-09T12:53:06.000Z</time>
      </trkpt>
      <trkpt lat="44.11978" lon="6.65169">
        <ele>2062.3999023438</ele>
        <time>2022-07-09T12:53:08.000Z</time>
      </trkpt>
      <trkpt lat="44.11981" lon="6.65164">
        <ele>2061.3999023438</ele>
        <time>2022-07-09T12:53:09.000Z</time>
      </trkpt>
      <trkpt lat="44.11984" lon="6.65158">
        <ele>2060.3999023438</ele>
        <time>2022-07-09T12:53:10.000Z</time>
      </trkpt>
      <trkpt lat="44.11992" lon="6.65148">
        <ele>2058.6000976562</ele>
        <time>2022-07-09T12:53:12.000Z</time>
      </trkpt>
      <trkpt lat="44.12001" lon="6.65137">
        <ele>2057.3999023438</ele>
        <time>2022-07-09T12:53:14.000Z</time>
      </trkpt>
      <trkpt lat="44.12005" lon="6.65131">
        <ele>2056.3999023438</ele>
        <time>2022-07-09T12:53:15.000Z</time>
      </trkpt>
      <trkpt lat="44.1201" lon="6.65126">
        <ele>2055.1999511719</ele>
        <time>2022-07-09T12:53:16.000Z</time>
      </trkpt>
      <trkpt lat="44.1202" lon="6.65115">
        <ele>2053.3999023438</ele>
        <time>2022-07-09T12:53:18.000Z</time>
      </trkpt>
      <trkpt lat="44.12025" lon="6.65111">
        <ele>2052.1999511719</ele>
        <time>2022-07-09T12:53:19.000Z</time>
      </trkpt>
      <trkpt lat="44.12031" lon="6.65106">
        <ele>2050.1999511719</ele>
        <time>2022-07-09T12:53:20.000Z</time>
      </trkpt>
      <trkpt lat="44.12042" lon="6.65098">
        <ele>2048</ele>
        <time>2022-07-09T12:53:22.000Z</time>
      </trkpt>
      <trkpt lat="44.12048" lon="6.65093">
        <ele>2046.8000488281</ele>
        <time>2022-07-09T12:53:23.000Z</time>
      </trkpt>
      <trkpt lat="44.12053" lon="6.6509">
        <ele>2045.5999755859</ele>
        <time>2022-07-09T12:53:24.000Z</time>
      </trkpt>
      <trkpt lat="44.12059" lon="6.65084">
        <ele>2044.4000244141</ele>
        <time>2022-07-09T12:53:25.000Z</time>
      </trkpt>
      <trkpt lat="44.12065" lon="6.65079">
        <ele>2043.1999511719</ele>
        <time>2022-07-09T12:53:26.000Z</time>
      </trkpt>
      <trkpt lat="44.12071" lon="6.65073">
        <ele>2042.1999511719</ele>
        <time>2022-07-09T12:53:27.000Z</time>
      </trkpt>
      <trkpt lat="44.12076" lon="6.65069">
        <ele>2041</ele>
        <time>2022-07-09T12:53:28.000Z</time>
      </trkpt>
      <trkpt lat="44.1208" lon="6.65066">
        <ele>2039.8000488281</ele>
        <time>2022-07-09T12:53:29.000Z</time>
      </trkpt>
      <trkpt lat="44.12082" lon="6.65065">
        <ele>2038</ele>
        <time>2022-07-09T12:53:30.000Z</time>
      </trkpt>
      <trkpt lat="44.12084" lon="6.65064">
        <ele>2037</ele>
        <time>2022-07-09T12:53:32.000Z</time>
      </trkpt>
      <trkpt lat="44.12083" lon="6.65063">
        <ele>2036.1999511719</ele>
        <time>2022-07-09T12:53:33.000Z</time>
      </trkpt>
      <trkpt lat="44.1208" lon="6.65063">
        <ele>2035.5999755859</ele>
        <time>2022-07-09T12:53:34.000Z</time>
      </trkpt>
      <trkpt lat="44.12065" lon="6.65065">
        <ele>2034.4000244141</ele>
        <time>2022-07-09T12:53:37.000Z</time>
      </trkpt>
      <trkpt lat="44.12052" lon="6.65067">
        <ele>2032.5999755859</ele>
        <time>2022-07-09T12:53:39.000Z</time>
      </trkpt>
      <trkpt lat="44.12041" lon="6.65069">
        <ele>2030.5999755859</ele>
        <time>2022-07-09T12:53:41.000Z</time>
      </trkpt>
      <trkpt lat="44.12037" lon="6.6507">
        <ele>2029.1999511719</ele>
        <time>2022-07-09T12:53:42.000Z</time>
      </trkpt>
      <trkpt lat="44.12026" lon="6.65071">
        <ele>2027.8000488281</ele>
        <time>2022-07-09T12:53:44.000Z</time>
      </trkpt>
      <trkpt lat="44.12016" lon="6.65072">
        <ele>2026.1999511719</ele>
        <time>2022-07-09T12:53:46.000Z</time>
      </trkpt>
      <trkpt lat="44.1201" lon="6.65073">
        <ele>2025.1999511719</ele>
        <time>2022-07-09T12:53:47.000Z</time>
      </trkpt>
      <trkpt lat="44.12005" lon="6.65073">
        <ele>2024.1999511719</ele>
        <time>2022-07-09T12:53:48.000Z</time>
      </trkpt>
      <trkpt lat="44.11994" lon="6.65076">
        <ele>2022.5999755859</ele>
        <time>2022-07-09T12:53:50.000Z</time>
      </trkpt>
      <trkpt lat="44.11989" lon="6.65077">
        <ele>2021.4000244141</ele>
        <time>2022-07-09T12:53:51.000Z</time>
      </trkpt>
      <trkpt lat="44.11983" lon="6.65079">
        <ele>2020.5999755859</ele>
        <time>2022-07-09T12:53:52.000Z</time>
      </trkpt>
      <trkpt lat="44.11977" lon="6.6508">
        <ele>2019.4000244141</ele>
        <time>2022-07-09T12:53:53.000Z</time>
      </trkpt>
      <trkpt lat="44.11972" lon="6.65081">
        <ele>2018</ele>
        <time>2022-07-09T12:53:54.000Z</time>
      </trkpt>
      <trkpt lat="44.1196" lon="6.65085">
        <ele>2016.1999511719</ele>
        <time>2022-07-09T12:53:56.000Z</time>
      </trkpt>
      <trkpt lat="44.11954" lon="6.65088">
        <ele>2015</ele>
        <time>2022-07-09T12:53:57.000Z</time>
      </trkpt>
      <trkpt lat="44.11943" lon="6.65094">
        <ele>2013.8000488281</ele>
        <time>2022-07-09T12:53:59.000Z</time>
      </trkpt>
      <trkpt lat="44.1194" lon="6.65097">
        <ele>2011.8000488281</ele>
        <time>2022-07-09T12:54:00.000Z</time>
      </trkpt>
      <trkpt lat="44.11938" lon="6.65099">
        <ele>2011.4000244141</ele>
        <time>2022-07-09T12:54:01.000Z</time>
      </trkpt>
      <trkpt lat="44.11938" lon="6.65096">
        <ele>2010.4000244141</ele>
        <time>2022-07-09T12:54:02.000Z</time>
      </trkpt>
      <trkpt lat="44.11939" lon="6.65094">
        <ele>2009.5999755859</ele>
        <time>2022-07-09T12:54:03.000Z</time>
      </trkpt>
      <trkpt lat="44.11941" lon="6.65093">
        <ele>2008.8000488281</ele>
        <time>2022-07-09T12:54:04.000Z</time>
      </trkpt>
      <trkpt lat="44.11949" lon="6.65081">
        <ele>2007.8000488281</ele>
        <time>2022-07-09T12:54:07.000Z</time>
      </trkpt>
      <trkpt lat="44.11952" lon="6.65076">
        <ele>2007.4000244141</ele>
        <time>2022-07-09T12:54:08.000Z</time>
      </trkpt>
      <trkpt lat="44.11965" lon="6.65061">
        <ele>2005.8000488281</ele>
        <time>2022-07-09T12:54:11.000Z</time>
      </trkpt>
      <trkpt lat="44.11969" lon="6.65057">
        <ele>2005</ele>
        <time>2022-07-09T12:54:12.000Z</time>
      </trkpt>
      <trkpt lat="44.11973" lon="6.65053">
        <ele>2004</ele>
        <time>2022-07-09T12:54:13.000Z</time>
      </trkpt>
      <trkpt lat="44.11982" lon="6.65044">
        <ele>2002.4000244141</ele>
        <time>2022-07-09T12:54:15.000Z</time>
      </trkpt>
      <trkpt lat="44.11991" lon="6.65034">
        <ele>2000.1999511719</ele>
        <time>2022-07-09T12:54:17.000Z</time>
      </trkpt>
      <trkpt lat="44.11995" lon="6.65031">
        <ele>1999.1999511719</ele>
        <time>2022-07-09T12:54:18.000Z</time>
      </trkpt>
      <trkpt lat="44.12" lon="6.65027">
        <ele>1998</ele>
        <time>2022-07-09T12:54:19.000Z</time>
      </trkpt>
      <trkpt lat="44.12009" lon="6.6502">
        <ele>1995.4000244141</ele>
        <time>2022-07-09T12:54:21.000Z</time>
      </trkpt>
      <trkpt lat="44.12017" lon="6.65012">
        <ele>1994</ele>
        <time>2022-07-09T12:54:23.000Z</time>
      </trkpt>
      <trkpt lat="44.12024" lon="6.65003">
        <ele>1992.1999511719</ele>
        <time>2022-07-09T12:54:25.000Z</time>
      </trkpt>
      <trkpt lat="44.12031" lon="6.64993">
        <ele>1990.4000244141</ele>
        <time>2022-07-09T12:54:27.000Z</time>
      </trkpt>
      <trkpt lat="44.12035" lon="6.6499">
        <ele>1989.4000244141</ele>
        <time>2022-07-09T12:54:28.000Z</time>
      </trkpt>
      <trkpt lat="44.12037" lon="6.64987">
        <ele>1988.5999755859</ele>
        <time>2022-07-09T12:54:29.000Z</time>
      </trkpt>
      <trkpt lat="44.12038" lon="6.64986">
        <ele>1987</ele>
        <time>2022-07-09T12:54:31.000Z</time>
      </trkpt>
      <trkpt lat="44.12038" lon="6.64985">
        <ele>1986.4000244141</ele>
        <time>2022-07-09T12:54:32.000Z</time>
      </trkpt>
      <trkpt lat="44.12038" lon="6.64985">
        <ele>1985.8000488281</ele>
        <time>2022-07-09T12:54:34.000Z</time>
      </trkpt>
      <trkpt lat="44.12041" lon="6.64981">
        <ele>1985.1999511719</ele>
        <time>2022-07-09T12:54:40.000Z</time>
      </trkpt>
      <trkpt lat="44.12043" lon="6.64978">
        <ele>1985</ele>
        <time>2022-07-09T12:54:41.000Z</time>
      </trkpt>
      <trkpt lat="44.12048" lon="6.64972">
        <ele>1984.8000488281</ele>
        <time>2022-07-09T12:54:44.000Z</time>
      </trkpt>
      <trkpt lat="44.12055" lon="6.64965">
        <ele>1984.4000244141</ele>
        <time>2022-07-09T12:54:46.000Z</time>
      </trkpt>
      <trkpt lat="44.12061" lon="6.6496">
        <ele>1983.1999511719</ele>
        <time>2022-07-09T12:54:48.000Z</time>
      </trkpt>
      <trkpt lat="44.12065" lon="6.64958">
        <ele>1981.5999755859</ele>
        <time>2022-07-09T12:54:50.000Z</time>
      </trkpt>
      <trkpt lat="44.12072" lon="6.64954">
        <ele>1980.5999755859</ele>
        <time>2022-07-09T12:54:52.000Z</time>
      </trkpt>
      <trkpt lat="44.12085" lon="6.64945">
        <ele>1979</ele>
        <time>2022-07-09T12:54:55.000Z</time>
      </trkpt>
      <trkpt lat="44.12093" lon="6.64939">
        <ele>1977.1999511719</ele>
        <time>2022-07-09T12:54:57.000Z</time>
      </trkpt>
      <trkpt lat="44.12098" lon="6.64933">
        <ele>1975.8000488281</ele>
        <time>2022-07-09T12:54:59.000Z</time>
      </trkpt>
      <trkpt lat="44.12106" lon="6.64924">
        <ele>1974.4000244141</ele>
        <time>2022-07-09T12:55:01.000Z</time>
      </trkpt>
      <trkpt lat="44.12116" lon="6.64914">
        <ele>1972.5999755859</ele>
        <time>2022-07-09T12:55:03.000Z</time>
      </trkpt>
      <trkpt lat="44.12125" lon="6.64902">
        <ele>1970.5999755859</ele>
        <time>2022-07-09T12:55:05.000Z</time>
      </trkpt>
      <trkpt lat="44.12129" lon="6.64897">
        <ele>1969.5999755859</ele>
        <time>2022-07-09T12:55:06.000Z</time>
      </trkpt>
      <trkpt lat="44.12133" lon="6.64889">
        <ele>1968.4000244141</ele>
        <time>2022-07-09T12:55:07.000Z</time>
      </trkpt>
      <trkpt lat="44.12137" lon="6.64877">
        <ele>1966.5999755859</ele>
        <time>2022-07-09T12:55:09.000Z</time>
      </trkpt>
      <trkpt lat="44.12139" lon="6.64876">
        <ele>1965.4000244141</ele>
        <time>2022-07-09T12:55:10.000Z</time>
      </trkpt>
      <trkpt lat="44.12135" lon="6.64875">
        <ele>1964</ele>
        <time>2022-07-09T12:55:12.000Z</time>
      </trkpt>
      <trkpt lat="44.12132" lon="6.64877">
        <ele>1963.1999511719</ele>
        <time>2022-07-09T12:55:13.000Z</time>
      </trkpt>
      <trkpt lat="44.12129" lon="6.64879">
        <ele>1962.5999755859</ele>
        <time>2022-07-09T12:55:14.000Z</time>
      </trkpt>
      <trkpt lat="44.12119" lon="6.64886">
        <ele>1961.4000244141</ele>
        <time>2022-07-09T12:55:16.000Z</time>
      </trkpt>
      <trkpt lat="44.12114" lon="6.64888">
        <ele>1960.5999755859</ele>
        <time>2022-07-09T12:55:17.000Z</time>
      </trkpt>
      <trkpt lat="44.12109" lon="6.6489">
        <ele>1960</ele>
        <time>2022-07-09T12:55:18.000Z</time>
      </trkpt>
      <trkpt lat="44.12098" lon="6.64893">
        <ele>1958.5999755859</ele>
        <time>2022-07-09T12:55:20.000Z</time>
      </trkpt>
      <trkpt lat="44.12092" lon="6.64894">
        <ele>1957.1999511719</ele>
        <time>2022-07-09T12:55:21.000Z</time>
      </trkpt>
      <trkpt lat="44.12081" lon="6.64892">
        <ele>1955.5999755859</ele>
        <time>2022-07-09T12:55:23.000Z</time>
      </trkpt>
      <trkpt lat="44.12073" lon="6.64894">
        <ele>1953.5999755859</ele>
        <time>2022-07-09T12:55:25.000Z</time>
      </trkpt>
      <trkpt lat="44.12071" lon="6.64893">
        <ele>1952.1999511719</ele>
        <time>2022-07-09T12:55:26.000Z</time>
      </trkpt>
      <trkpt lat="44.12064" lon="6.6489">
        <ele>1950.5999755859</ele>
        <time>2022-07-09T12:55:28.000Z</time>
      </trkpt>
      <trkpt lat="44.12059" lon="6.6489">
        <ele>1949.4000244141</ele>
        <time>2022-07-09T12:55:29.000Z</time>
      </trkpt>
      <trkpt lat="44.12054" lon="6.64889">
        <ele>1948.8000488281</ele>
        <time>2022-07-09T12:55:30.000Z</time>
      </trkpt>
      <trkpt lat="44.12049" lon="6.64888">
        <ele>1948.1999511719</ele>
        <time>2022-07-09T12:55:31.000Z</time>
      </trkpt>
      <trkpt lat="44.12037" lon="6.64888">
        <ele>1946.5999755859</ele>
        <time>2022-07-09T12:55:33.000Z</time>
      </trkpt>
      <trkpt lat="44.1203" lon="6.64889">
        <ele>1945</ele>
        <time>2022-07-09T12:55:35.000Z</time>
      </trkpt>
      <trkpt lat="44.12019" lon="6.64891">
        <ele>1943.8000488281</ele>
        <time>2022-07-09T12:55:37.000Z</time>
      </trkpt>
      <trkpt lat="44.12014" lon="6.64893">
        <ele>1943</ele>
        <time>2022-07-09T12:55:38.000Z</time>
      </trkpt>
      <trkpt lat="44.12008" lon="6.64897">
        <ele>1942</ele>
        <time>2022-07-09T12:55:39.000Z</time>
      </trkpt>
      <trkpt lat="44.12003" lon="6.64899">
        <ele>1941</ele>
        <time>2022-07-09T12:55:40.000Z</time>
      </trkpt>
      <trkpt lat="44.11993" lon="6.64904">
        <ele>1939</ele>
        <time>2022-07-09T12:55:42.000Z</time>
      </trkpt>
      <trkpt lat="44.11989" lon="6.64907">
        <ele>1938</ele>
        <time>2022-07-09T12:55:43.000Z</time>
      </trkpt>
      <trkpt lat="44.11985" lon="6.64909">
        <ele>1937</ele>
        <time>2022-07-09T12:55:44.000Z</time>
      </trkpt>
      <trkpt lat="44.11981" lon="6.64913">
        <ele>1936</ele>
        <time>2022-07-09T12:55:45.000Z</time>
      </trkpt>
      <trkpt lat="44.11974" lon="6.64914">
        <ele>1934.1999511719</ele>
        <time>2022-07-09T12:55:47.000Z</time>
      </trkpt>
      <trkpt lat="44.11969" lon="6.64915">
        <ele>1933</ele>
        <time>2022-07-09T12:55:48.000Z</time>
      </trkpt>
      <trkpt lat="44.11962" lon="6.64912">
        <ele>1931.4000244141</ele>
        <time>2022-07-09T12:55:50.000Z</time>
      </trkpt>
      <trkpt lat="44.11957" lon="6.64911">
        <ele>1930.4000244141</ele>
        <time>2022-07-09T12:55:52.000Z</time>
      </trkpt>
      <trkpt lat="44.11951" lon="6.64909">
        <ele>1930</ele>
        <time>2022-07-09T12:55:53.000Z</time>
      </trkpt>
      <trkpt lat="44.11944" lon="6.64911">
        <ele>1928.4000244141</ele>
        <time>2022-07-09T12:55:55.000Z</time>
      </trkpt>
      <trkpt lat="44.11943" lon="6.6491">
        <ele>1926.4000244141</ele>
        <time>2022-07-09T12:55:57.000Z</time>
      </trkpt>
      <trkpt lat="44.11944" lon="6.64907">
        <ele>1925</ele>
        <time>2022-07-09T12:55:59.000Z</time>
      </trkpt>
      <trkpt lat="44.11955" lon="6.64898">
        <ele>1923.8000488281</ele>
        <time>2022-07-09T12:56:02.000Z</time>
      </trkpt>
      <trkpt lat="44.11959" lon="6.64894">
        <ele>1923.4000244141</ele>
        <time>2022-07-09T12:56:03.000Z</time>
      </trkpt>
      <trkpt lat="44.11962" lon="6.64891">
        <ele>1922.8000488281</ele>
        <time>2022-07-09T12:56:04.000Z</time>
      </trkpt>
      <trkpt lat="44.11969" lon="6.64884">
        <ele>1920.8000488281</ele>
        <time>2022-07-09T12:56:06.000Z</time>
      </trkpt>
      <trkpt lat="44.11972" lon="6.6488">
        <ele>1920.1999511719</ele>
        <time>2022-07-09T12:56:07.000Z</time>
      </trkpt>
      <trkpt lat="44.11975" lon="6.6488">
        <ele>1919.5999755859</ele>
        <time>2022-07-09T12:56:08.000Z</time>
      </trkpt>
      <trkpt lat="44.11978" lon="6.64875">
        <ele>1918.8000488281</ele>
        <time>2022-07-09T12:56:09.000Z</time>
      </trkpt>
      <trkpt lat="44.11979" lon="6.64872">
        <ele>1918.1999511719</ele>
        <time>2022-07-09T12:56:10.000Z</time>
      </trkpt>
      <trkpt lat="44.1198" lon="6.64865">
        <ele>1916.8000488281</ele>
        <time>2022-07-09T12:56:12.000Z</time>
      </trkpt>
      <trkpt lat="44.11985" lon="6.64854">
        <ele>1915.4000244141</ele>
        <time>2022-07-09T12:56:15.000Z</time>
      </trkpt>
      <trkpt lat="44.11986" lon="6.64849">
        <ele>1914.8000488281</ele>
        <time>2022-07-09T12:56:16.000Z</time>
      </trkpt>
      <trkpt lat="44.11988" lon="6.64844">
        <ele>1914</ele>
        <time>2022-07-09T12:56:17.000Z</time>
      </trkpt>
      <trkpt lat="44.11991" lon="6.64838">
        <ele>1912</ele>
        <time>2022-07-09T12:56:19.000Z</time>
      </trkpt>
      <trkpt lat="44.11993" lon="6.64836">
        <ele>1911.5999755859</ele>
        <time>2022-07-09T12:56:20.000Z</time>
      </trkpt>
      <trkpt lat="44.11994" lon="6.64834">
        <ele>1910.8000488281</ele>
        <time>2022-07-09T12:56:21.000Z</time>
      </trkpt>
      <trkpt lat="44.11998" lon="6.64828">
        <ele>1909.5999755859</ele>
        <time>2022-07-09T12:56:23.000Z</time>
      </trkpt>
      <trkpt lat="44.12005" lon="6.64815">
        <ele>1909</ele>
        <time>2022-07-09T12:56:26.000Z</time>
      </trkpt>
      <trkpt lat="44.12009" lon="6.64811">
        <ele>1908.4000244141</ele>
        <time>2022-07-09T12:56:27.000Z</time>
      </trkpt>
      <trkpt lat="44.12015" lon="6.64805">
        <ele>1907.1999511719</ele>
        <time>2022-07-09T12:56:29.000Z</time>
      </trkpt>
      <trkpt lat="44.12018" lon="6.64801">
        <ele>1906.5999755859</ele>
        <time>2022-07-09T12:56:30.000Z</time>
      </trkpt>
      <trkpt lat="44.12022" lon="6.64797">
        <ele>1905.8000488281</ele>
        <time>2022-07-09T12:56:31.000Z</time>
      </trkpt>
      <trkpt lat="44.12026" lon="6.64794">
        <ele>1905.1999511719</ele>
        <time>2022-07-09T12:56:32.000Z</time>
      </trkpt>
      <trkpt lat="44.12028" lon="6.64791">
        <ele>1904.4000244141</ele>
        <time>2022-07-09T12:56:33.000Z</time>
      </trkpt>
      <trkpt lat="44.12034" lon="6.64788">
        <ele>1903</ele>
        <time>2022-07-09T12:56:35.000Z</time>
      </trkpt>
      <trkpt lat="44.12042" lon="6.64786">
        <ele>1901.4000244141</ele>
        <time>2022-07-09T12:56:37.000Z</time>
      </trkpt>
      <trkpt lat="44.12049" lon="6.64783">
        <ele>1900.1999511719</ele>
        <time>2022-07-09T12:56:39.000Z</time>
      </trkpt>
      <trkpt lat="44.12053" lon="6.64781">
        <ele>1899.1999511719</ele>
        <time>2022-07-09T12:56:40.000Z</time>
      </trkpt>
      <trkpt lat="44.12057" lon="6.64779">
        <ele>1898.8000488281</ele>
        <time>2022-07-09T12:56:41.000Z</time>
      </trkpt>
      <trkpt lat="44.12059" lon="6.64777">
        <ele>1898</ele>
        <time>2022-07-09T12:56:42.000Z</time>
      </trkpt>
      <trkpt lat="44.12061" lon="6.64775">
        <ele>1897.5999755859</ele>
        <time>2022-07-09T12:56:43.000Z</time>
      </trkpt>
      <trkpt lat="44.12062" lon="6.6477">
        <ele>1896.4000244141</ele>
        <time>2022-07-09T12:56:44.000Z</time>
      </trkpt>
      <trkpt lat="44.12065" lon="6.64757">
        <ele>1895</ele>
        <time>2022-07-09T12:56:47.000Z</time>
      </trkpt>
      <trkpt lat="44.12068" lon="6.64743">
        <ele>1893.5999755859</ele>
        <time>2022-07-09T12:56:50.000Z</time>
      </trkpt>
      <trkpt lat="44.12067" lon="6.6474">
        <ele>1892.5999755859</ele>
        <time>2022-07-09T12:56:51.000Z</time>
      </trkpt>
      <trkpt lat="44.12069" lon="6.64734">
        <ele>1891.8000488281</ele>
        <time>2022-07-09T12:56:52.000Z</time>
      </trkpt>
      <trkpt lat="44.12071" lon="6.64724">
        <ele>1890.1999511719</ele>
        <time>2022-07-09T12:56:54.000Z</time>
      </trkpt>
      <trkpt lat="44.12072" lon="6.64718">
        <ele>1889.4000244141</ele>
        <time>2022-07-09T12:56:55.000Z</time>
      </trkpt>
      <trkpt lat="44.12072" lon="6.6471">
        <ele>1889.1999511719</ele>
        <time>2022-07-09T12:56:56.000Z</time>
      </trkpt>
      <trkpt lat="44.12073" lon="6.64703">
        <ele>1888.1999511719</ele>
        <time>2022-07-09T12:56:57.000Z</time>
      </trkpt>
      <trkpt lat="44.12073" lon="6.64692">
        <ele>1886.8000488281</ele>
        <time>2022-07-09T12:56:59.000Z</time>
      </trkpt>
      <trkpt lat="44.12074" lon="6.6469">
        <ele>1885.4000244141</ele>
        <time>2022-07-09T12:57:00.000Z</time>
      </trkpt>
      <trkpt lat="44.12076" lon="6.64679">
        <ele>1883.5999755859</ele>
        <time>2022-07-09T12:57:02.000Z</time>
      </trkpt>
      <trkpt lat="44.12078" lon="6.64665">
        <ele>1882.4000244141</ele>
        <time>2022-07-09T12:57:04.000Z</time>
      </trkpt>
      <trkpt lat="44.12083" lon="6.6465">
        <ele>1881</ele>
        <time>2022-07-09T12:57:06.000Z</time>
      </trkpt>
      <trkpt lat="44.12085" lon="6.64642">
        <ele>1880.4000244141</ele>
        <time>2022-07-09T12:57:07.000Z</time>
      </trkpt>
      <trkpt lat="44.12087" lon="6.64634">
        <ele>1879.4000244141</ele>
        <time>2022-07-09T12:57:08.000Z</time>
      </trkpt>
      <trkpt lat="44.12089" lon="6.64628">
        <ele>1878.1999511719</ele>
        <time>2022-07-09T12:57:09.000Z</time>
      </trkpt>
      <trkpt lat="44.1209" lon="6.64621">
        <ele>1876</ele>
        <time>2022-07-09T12:57:11.000Z</time>
      </trkpt>
      <trkpt lat="44.12092" lon="6.64618">
        <ele>1874.8000488281</ele>
        <time>2022-07-09T12:57:12.000Z</time>
      </trkpt>
      <trkpt lat="44.12095" lon="6.64608">
        <ele>1873.1999511719</ele>
        <time>2022-07-09T12:57:14.000Z</time>
      </trkpt>
      <trkpt lat="44.12097" lon="6.64602">
        <ele>1872.8000488281</ele>
        <time>2022-07-09T12:57:15.000Z</time>
      </trkpt>
      <trkpt lat="44.12099" lon="6.64595">
        <ele>1872.1999511719</ele>
        <time>2022-07-09T12:57:16.000Z</time>
      </trkpt>
      <trkpt lat="44.12102" lon="6.64581">
        <ele>1871.1999511719</ele>
        <time>2022-07-09T12:57:18.000Z</time>
      </trkpt>
      <trkpt lat="44.12105" lon="6.64574">
        <ele>1870.4000244141</ele>
        <time>2022-07-09T12:57:19.000Z</time>
      </trkpt>
      <trkpt lat="44.12107" lon="6.64567">
        <ele>1869</ele>
        <time>2022-07-09T12:57:20.000Z</time>
      </trkpt>
      <trkpt lat="44.12109" lon="6.64555">
        <ele>1867.4000244141</ele>
        <time>2022-07-09T12:57:22.000Z</time>
      </trkpt>
      <trkpt lat="44.12111" lon="6.64551">
        <ele>1866</ele>
        <time>2022-07-09T12:57:23.000Z</time>
      </trkpt>
      <trkpt lat="44.12112" lon="6.64545">
        <ele>1865.1999511719</ele>
        <time>2022-07-09T12:57:24.000Z</time>
      </trkpt>
      <trkpt lat="44.12114" lon="6.64538">
        <ele>1864.4000244141</ele>
        <time>2022-07-09T12:57:25.000Z</time>
      </trkpt>
      <trkpt lat="44.12117" lon="6.64532">
        <ele>1863.4000244141</ele>
        <time>2022-07-09T12:57:26.000Z</time>
      </trkpt>
      <trkpt lat="44.12118" lon="6.64527">
        <ele>1863</ele>
        <time>2022-07-09T12:57:27.000Z</time>
      </trkpt>
      <trkpt lat="44.12121" lon="6.64518">
        <ele>1861.4000244141</ele>
        <time>2022-07-09T12:57:29.000Z</time>
      </trkpt>
      <trkpt lat="44.12123" lon="6.64509">
        <ele>1859.5999755859</ele>
        <time>2022-07-09T12:57:31.000Z</time>
      </trkpt>
      <trkpt lat="44.12126" lon="6.64504">
        <ele>1858.5999755859</ele>
        <time>2022-07-09T12:57:32.000Z</time>
      </trkpt>
      <trkpt lat="44.12129" lon="6.64498">
        <ele>1858.1999511719</ele>
        <time>2022-07-09T12:57:33.000Z</time>
      </trkpt>
      <trkpt lat="44.12131" lon="6.64493">
        <ele>1857.5999755859</ele>
        <time>2022-07-09T12:57:34.000Z</time>
      </trkpt>
      <trkpt lat="44.12134" lon="6.64487">
        <ele>1857</ele>
        <time>2022-07-09T12:57:35.000Z</time>
      </trkpt>
      <trkpt lat="44.12136" lon="6.64482">
        <ele>1856.1999511719</ele>
        <time>2022-07-09T12:57:36.000Z</time>
      </trkpt>
      <trkpt lat="44.12142" lon="6.64473">
        <ele>1854.5999755859</ele>
        <time>2022-07-09T12:57:38.000Z</time>
      </trkpt>
      <trkpt lat="44.12148" lon="6.64463">
        <ele>1853.1999511719</ele>
        <time>2022-07-09T12:57:40.000Z</time>
      </trkpt>
      <trkpt lat="44.12149" lon="6.64454">
        <ele>1851.8000488281</ele>
        <time>2022-07-09T12:57:42.000Z</time>
      </trkpt>
      <trkpt lat="44.12149" lon="6.64454">
        <ele>1850.4000244141</ele>
        <time>2022-07-09T12:57:44.000Z</time>
      </trkpt>
      <trkpt lat="44.12149" lon="6.64455">
        <ele>1850</ele>
        <time>2022-07-09T12:57:45.000Z</time>
      </trkpt>
      <trkpt lat="44.12148" lon="6.64456">
        <ele>1849.8000488281</ele>
        <time>2022-07-09T12:57:55.000Z</time>
      </trkpt>
      <trkpt lat="44.12145" lon="6.64458">
        <ele>1849.5999755859</ele>
        <time>2022-07-09T12:58:02.000Z</time>
      </trkpt>
      <trkpt lat="44.12145" lon="6.6446">
        <ele>1850.1999511719</ele>
        <time>2022-07-09T12:58:09.000Z</time>
      </trkpt>
      <trkpt lat="44.12145" lon="6.64456">
        <ele>1850.1999511719</ele>
        <time>2022-07-09T12:58:13.000Z</time>
      </trkpt>
      <trkpt lat="44.12145" lon="6.64458">
        <ele>1850.1999511719</ele>
        <time>2022-07-09T12:58:15.000Z</time>
      </trkpt>
      <trkpt lat="44.12144" lon="6.64459">
        <ele>1849.4000244141</ele>
        <time>2022-07-09T12:58:22.000Z</time>
      </trkpt>
      <trkpt lat="44.12144" lon="6.6446">
        <ele>1849.1999511719</ele>
        <time>2022-07-09T12:58:24.000Z</time>
      </trkpt>
      <trkpt lat="44.12145" lon="6.6446">
        <ele>1849</ele>
        <time>2022-07-09T12:58:34.000Z</time>
      </trkpt>
      <trkpt lat="44.12146" lon="6.64461">
        <ele>1849.4000244141</ele>
        <time>2022-07-09T12:58:44.000Z</time>
      </trkpt>
      <trkpt lat="44.12147" lon="6.64462">
        <ele>1849.5999755859</ele>
        <time>2022-07-09T12:58:55.000Z</time>
      </trkpt>
      <trkpt lat="44.12148" lon="6.64462">
        <ele>1849.4000244141</ele>
        <time>2022-07-09T12:59:11.000Z</time>
      </trkpt>
      <trkpt lat="44.12149" lon="6.64461">
        <ele>1849.8000488281</ele>
        <time>2022-07-09T12:59:33.000Z</time>
      </trkpt>
      <trkpt lat="44.12149" lon="6.64462">
        <ele>1850</ele>
        <time>2022-07-09T12:59:48.000Z</time>
      </trkpt>
      <trkpt lat="44.12149" lon="6.64464">
        <ele>1849.8000488281</ele>
        <time>2022-07-09T13:00:11.000Z</time>
      </trkpt>
      <trkpt lat="44.1215" lon="6.64465">
        <ele>1849.8000488281</ele>
        <time>2022-07-09T13:00:30.000Z</time>
      </trkpt>
      <trkpt lat="44.12151" lon="6.64464">
        <ele>1849.5999755859</ele>
        <time>2022-07-09T13:00:47.000Z</time>
      </trkpt>
      <trkpt lat="44.12151" lon="6.64464">
        <ele>1849.5999755859</ele>
        <time>2022-07-09T13:00:53.000Z</time>
      </trkpt>
      <trkpt lat="44.1215" lon="6.64464">
        <ele>1849.8000488281</ele>
        <time>2022-07-09T13:01:06.000Z</time>
      </trkpt>
      <trkpt lat="44.12147" lon="6.64466">
        <ele>1850</ele>
        <time>2022-07-09T13:01:26.000Z</time>
      </trkpt>
      <trkpt lat="44.12147" lon="6.64466">
        <ele>1849.8000488281</ele>
        <time>2022-07-09T13:01:38.000Z</time>
      </trkpt>
      <trkpt lat="44.12147" lon="6.64463">
        <ele>1849.8000488281</ele>
        <time>2022-07-09T13:01:52.000Z</time>
      </trkpt>
      <trkpt lat="44.12149" lon="6.64463">
        <ele>1850.1999511719</ele>
        <time>2022-07-09T13:02:09.000Z</time>
      </trkpt>
      <trkpt lat="44.1215" lon="6.64464">
        <ele>1850.4000244141</ele>
        <time>2022-07-09T13:02:22.000Z</time>
      </trkpt>
      <trkpt lat="44.1215" lon="6.64464">
        <ele>1850.5999755859</ele>
        <time>2022-07-09T13:02:25.000Z</time>
      </trkpt>
      <trkpt lat="44.12151" lon="6.64465">
        <ele>1850</ele>
        <time>2022-07-09T13:02:43.000Z</time>
      </trkpt>
      <trkpt lat="44.12152" lon="6.64464">
        <ele>1850</ele>
        <time>2022-07-09T13:02:55.000Z</time>
      </trkpt>
      <trkpt lat="44.12154" lon="6.64464">
        <ele>1850</ele>
        <time>2022-07-09T13:03:01.000Z</time>
      </trkpt>
      <trkpt lat="44.12154" lon="6.64465">
        <ele>1850.1999511719</ele>
        <time>2022-07-09T13:03:08.000Z</time>
      </trkpt>
      <trkpt lat="44.12152" lon="6.64465">
        <ele>1850.1999511719</ele>
        <time>2022-07-09T13:03:14.000Z</time>
      </trkpt>
      <trkpt lat="44.12151" lon="6.64466">
        <ele>1849.4000244141</ele>
        <time>2022-07-09T13:03:19.000Z</time>
      </trkpt>
      <trkpt lat="44.12151" lon="6.64466">
        <ele>1849.4000244141</ele>
        <time>2022-07-09T13:03:24.000Z</time>
      </trkpt>
      <trkpt lat="44.12155" lon="6.64466">
        <ele>1849.4000244141</ele>
        <time>2022-07-09T13:03:32.000Z</time>
      </trkpt>
      <trkpt lat="44.12155" lon="6.64467">
        <ele>1849.8000488281</ele>
        <time>2022-07-09T13:03:37.000Z</time>
      </trkpt>
      <trkpt lat="44.12154" lon="6.64468">
        <ele>1849.8000488281</ele>
        <time>2022-07-09T13:03:44.000Z</time>
      </trkpt>
      <trkpt lat="44.12151" lon="6.64469">
        <ele>1850.4000244141</ele>
        <time>2022-07-09T13:03:58.000Z</time>
      </trkpt>
      <trkpt lat="44.1215" lon="6.6447">
        <ele>1850.1999511719</ele>
        <time>2022-07-09T13:04:09.000Z</time>
      </trkpt>
      <trkpt lat="44.12152" lon="6.64469">
        <ele>1849.5999755859</ele>
        <time>2022-07-09T13:04:19.000Z</time>
      </trkpt>
      <trkpt lat="44.12155" lon="6.64468">
        <ele>1849.1999511719</ele>
        <time>2022-07-09T13:04:29.000Z</time>
      </trkpt>
      <trkpt lat="44.12155" lon="6.64467">
        <ele>1849.5999755859</ele>
        <time>2022-07-09T13:04:36.000Z</time>
      </trkpt>
      <trkpt lat="44.12159" lon="6.64465">
        <ele>1850.1999511719</ele>
        <time>2022-07-09T13:04:50.000Z</time>
      </trkpt>
      <trkpt lat="44.1216" lon="6.64462">
        <ele>1849.5999755859</ele>
        <time>2022-07-09T13:04:56.000Z</time>
      </trkpt>
      <trkpt lat="44.12157" lon="6.64463">
        <ele>1849.5999755859</ele>
        <time>2022-07-09T13:05:05.000Z</time>
      </trkpt>
      <trkpt lat="44.12155" lon="6.64463">
        <ele>1849.4000244141</ele>
        <time>2022-07-09T13:05:18.000Z</time>
      </trkpt>
      <trkpt lat="44.12155" lon="6.64463">
        <ele>1849.4000244141</ele>
        <time>2022-07-09T13:05:27.000Z</time>
      </trkpt>
      <trkpt lat="44.12154" lon="6.64463">
        <ele>1849.5999755859</ele>
        <time>2022-07-09T13:05:40.000Z</time>
      </trkpt>
      <trkpt lat="44.12153" lon="6.6446">
        <ele>1849.4000244141</ele>
        <time>2022-07-09T13:05:50.000Z</time>
      </trkpt>
      <trkpt lat="44.12153" lon="6.6446">
        <ele>1849.5999755859</ele>
        <time>2022-07-09T13:06:00.000Z</time>
      </trkpt>
      <trkpt lat="44.12153" lon="6.6446">
        <ele>1849.4000244141</ele>
        <time>2022-07-09T13:06:08.000Z</time>
      </trkpt>
      <trkpt lat="44.12151" lon="6.64462">
        <ele>1849.5999755859</ele>
        <time>2022-07-09T13:06:18.000Z</time>
      </trkpt>
      <trkpt lat="44.12151" lon="6.64461">
        <ele>1850</ele>
        <time>2022-07-09T13:06:25.000Z</time>
      </trkpt>
      <trkpt lat="44.12152" lon="6.64462">
        <ele>1850</ele>
        <time>2022-07-09T13:06:38.000Z</time>
      </trkpt>
      <trkpt lat="44.12154" lon="6.64461">
        <ele>1850</ele>
        <time>2022-07-09T13:06:49.000Z</time>
      </trkpt>
      <trkpt lat="44.12154" lon="6.64461">
        <ele>1849.4000244141</ele>
        <time>2022-07-09T13:07:03.000Z</time>
      </trkpt>
      <trkpt lat="44.12154" lon="6.6446">
        <ele>1849.4000244141</ele>
        <time>2022-07-09T13:07:05.000Z</time>
      </trkpt>
      <trkpt lat="44.12155" lon="6.64462">
        <ele>1849.5999755859</ele>
        <time>2022-07-09T13:07:07.000Z</time>
      </trkpt>
      <trkpt lat="44.12157" lon="6.64463">
        <ele>1849.8000488281</ele>
        <time>2022-07-09T13:07:09.000Z</time>
      </trkpt>
      <trkpt lat="44.12159" lon="6.64466">
        <ele>1850</ele>
        <time>2022-07-09T13:07:12.000Z</time>
      </trkpt>
      <trkpt lat="44.12163" lon="6.64472">
        <ele>1850.5999755859</ele>
        <time>2022-07-09T13:07:17.000Z</time>
      </trkpt>
      <trkpt lat="44.12166" lon="6.64476">
        <ele>1851.4000244141</ele>
        <time>2022-07-09T13:07:22.000Z</time>
      </trkpt>
      <trkpt lat="44.12167" lon="6.64477">
        <ele>1851.5999755859</ele>
        <time>2022-07-09T13:07:23.000Z</time>
      </trkpt>
      <trkpt lat="44.12172" lon="6.6448">
        <ele>1852.4000244141</ele>
        <time>2022-07-09T13:07:31.000Z</time>
      </trkpt>
      <trkpt lat="44.12173" lon="6.6448">
        <ele>1852.5999755859</ele>
        <time>2022-07-09T13:07:34.000Z</time>
      </trkpt>
      <trkpt lat="44.12173" lon="6.64481">
        <ele>1852.5999755859</ele>
        <time>2022-07-09T13:07:37.000Z</time>
      </trkpt>
      <trkpt lat="44.1218" lon="6.64486">
        <ele>1852.5999755859</ele>
        <time>2022-07-09T13:07:42.000Z</time>
      </trkpt>
      <trkpt lat="44.12185" lon="6.6449">
        <ele>1852.8000488281</ele>
        <time>2022-07-09T13:07:45.000Z</time>
      </trkpt>
      <trkpt lat="44.1219" lon="6.64494">
        <ele>1852.8000488281</ele>
        <time>2022-07-09T13:07:47.000Z</time>
      </trkpt>
      <trkpt lat="44.12201" lon="6.64503">
        <ele>1852.8000488281</ele>
        <time>2022-07-09T13:07:52.000Z</time>
      </trkpt>
      <trkpt lat="44.12202" lon="6.64506">
        <ele>1853</ele>
        <time>2022-07-09T13:07:57.000Z</time>
      </trkpt>
      <trkpt lat="44.12204" lon="6.64508">
        <ele>1853.1999511719</ele>
        <time>2022-07-09T13:08:04.000Z</time>
      </trkpt>
      <trkpt lat="44.12206" lon="6.64511">
        <ele>1853.1999511719</ele>
        <time>2022-07-09T13:08:06.000Z</time>
      </trkpt>
      <trkpt lat="44.12211" lon="6.64523">
        <ele>1853.4000244141</ele>
        <time>2022-07-09T13:08:11.000Z</time>
      </trkpt>
      <trkpt lat="44.12213" lon="6.64526">
        <ele>1853.5999755859</ele>
        <time>2022-07-09T13:08:12.000Z</time>
      </trkpt>
      <trkpt lat="44.12216" lon="6.64533">
        <ele>1853.5999755859</ele>
        <time>2022-07-09T13:08:15.000Z</time>
      </trkpt>
      <trkpt lat="44.12217" lon="6.64536">
        <ele>1853.5999755859</ele>
        <time>2022-07-09T13:08:16.000Z</time>
      </trkpt>
      <trkpt lat="44.12222" lon="6.64552">
        <ele>1854.1999511719</ele>
        <time>2022-07-09T13:08:22.000Z</time>
      </trkpt>
      <trkpt lat="44.12224" lon="6.64562">
        <ele>1854.5999755859</ele>
        <time>2022-07-09T13:08:26.000Z</time>
      </trkpt>
      <trkpt lat="44.12225" lon="6.64568">
        <ele>1855</ele>
        <time>2022-07-09T13:08:28.000Z</time>
      </trkpt>
      <trkpt lat="44.12225" lon="6.64574">
        <ele>1855.1999511719</ele>
        <time>2022-07-09T13:08:30.000Z</time>
      </trkpt>
      <trkpt lat="44.12226" lon="6.64583">
        <ele>1855.4000244141</ele>
        <time>2022-07-09T13:08:33.000Z</time>
      </trkpt>
      <trkpt lat="44.12228" lon="6.64591">
        <ele>1855.5999755859</ele>
        <time>2022-07-09T13:08:36.000Z</time>
      </trkpt>
      <trkpt lat="44.12229" lon="6.64597">
        <ele>1855.8000488281</ele>
        <time>2022-07-09T13:08:38.000Z</time>
      </trkpt>
      <trkpt lat="44.12229" lon="6.646">
        <ele>1855.8000488281</ele>
        <time>2022-07-09T13:08:39.000Z</time>
      </trkpt>
      <trkpt lat="44.12231" lon="6.64611">
        <ele>1856.4000244141</ele>
        <time>2022-07-09T13:08:43.000Z</time>
      </trkpt>
      <trkpt lat="44.12231" lon="6.64613">
        <ele>1856.5999755859</ele>
        <time>2022-07-09T13:08:44.000Z</time>
      </trkpt>
      <trkpt lat="44.12231" lon="6.64619">
        <ele>1856.8000488281</ele>
        <time>2022-07-09T13:08:46.000Z</time>
      </trkpt>
      <trkpt lat="44.12232" lon="6.64629">
        <ele>1857.1999511719</ele>
        <time>2022-07-09T13:08:50.000Z</time>
      </trkpt>
      <trkpt lat="44.12233" lon="6.64639">
        <ele>1857.8000488281</ele>
        <time>2022-07-09T13:08:55.000Z</time>
      </trkpt>
      <trkpt lat="44.12234" lon="6.64642">
        <ele>1858</ele>
        <time>2022-07-09T13:08:57.000Z</time>
      </trkpt>
      <trkpt lat="44.12234" lon="6.64649">
        <ele>1858.4000244141</ele>
        <time>2022-07-09T13:09:00.000Z</time>
      </trkpt>
      <trkpt lat="44.12236" lon="6.64655">
        <ele>1858.8000488281</ele>
        <time>2022-07-09T13:09:03.000Z</time>
      </trkpt>
      <trkpt lat="44.12238" lon="6.64661">
        <ele>1859.1999511719</ele>
        <time>2022-07-09T13:09:06.000Z</time>
      </trkpt>
      <trkpt lat="44.12239" lon="6.64664">
        <ele>1859.4000244141</ele>
        <time>2022-07-09T13:09:07.000Z</time>
      </trkpt>
      <trkpt lat="44.1224" lon="6.64671">
        <ele>1859.5999755859</ele>
        <time>2022-07-09T13:09:10.000Z</time>
      </trkpt>
      <trkpt lat="44.1224" lon="6.64674">
        <ele>1859.5999755859</ele>
        <time>2022-07-09T13:09:11.000Z</time>
      </trkpt>
      <trkpt lat="44.12242" lon="6.6468">
        <ele>1860</ele>
        <time>2022-07-09T13:09:14.000Z</time>
      </trkpt>
      <trkpt lat="44.12243" lon="6.64688">
        <ele>1860.8000488281</ele>
        <time>2022-07-09T13:09:18.000Z</time>
      </trkpt>
      <trkpt lat="44.12244" lon="6.64693">
        <ele>1861.1999511719</ele>
        <time>2022-07-09T13:09:20.000Z</time>
      </trkpt>
      <trkpt lat="44.12245" lon="6.64705">
        <ele>1861.8000488281</ele>
        <time>2022-07-09T13:09:25.000Z</time>
      </trkpt>
      <trkpt lat="44.12246" lon="6.64707">
        <ele>1862</ele>
        <time>2022-07-09T13:09:26.000Z</time>
      </trkpt>
      <trkpt lat="44.12247" lon="6.64713">
        <ele>1862.1999511719</ele>
        <time>2022-07-09T13:09:28.000Z</time>
      </trkpt>
      <trkpt lat="44.1225" lon="6.64723">
        <ele>1862.8000488281</ele>
        <time>2022-07-09T13:09:32.000Z</time>
      </trkpt>
      <trkpt lat="44.12253" lon="6.64738">
        <ele>1863.4000244141</ele>
        <time>2022-07-09T13:09:37.000Z</time>
      </trkpt>
      <trkpt lat="44.12253" lon="6.6474">
        <ele>1863.4000244141</ele>
        <time>2022-07-09T13:09:38.000Z</time>
      </trkpt>
      <trkpt lat="44.12254" lon="6.6476">
        <ele>1864.1999511719</ele>
        <time>2022-07-09T13:09:45.000Z</time>
      </trkpt>
      <trkpt lat="44.12254" lon="6.64763">
        <ele>1864.4000244141</ele>
        <time>2022-07-09T13:09:46.000Z</time>
      </trkpt>
      <trkpt lat="44.12258" lon="6.64779">
        <ele>1864.8000488281</ele>
        <time>2022-07-09T13:09:51.000Z</time>
      </trkpt>
      <trkpt lat="44.12264" lon="6.64793">
        <ele>1865.4000244141</ele>
        <time>2022-07-09T13:09:56.000Z</time>
      </trkpt>
      <trkpt lat="44.12265" lon="6.64795">
        <ele>1865.4000244141</ele>
        <time>2022-07-09T13:09:57.000Z</time>
      </trkpt>
      <trkpt lat="44.12269" lon="6.64813">
        <ele>1866.1999511719</ele>
        <time>2022-07-09T13:10:03.000Z</time>
      </trkpt>
      <trkpt lat="44.12269" lon="6.64819">
        <ele>1866.4000244141</ele>
        <time>2022-07-09T13:10:05.000Z</time>
      </trkpt>
      <trkpt lat="44.12268" lon="6.6483">
        <ele>1866.8000488281</ele>
        <time>2022-07-09T13:10:09.000Z</time>
      </trkpt>
      <trkpt lat="44.12267" lon="6.64841">
        <ele>1867.5999755859</ele>
        <time>2022-07-09T13:10:13.000Z</time>
      </trkpt>
      <trkpt lat="44.12266" lon="6.64847">
        <ele>1867.8000488281</ele>
        <time>2022-07-09T13:10:15.000Z</time>
      </trkpt>
      <trkpt lat="44.12264" lon="6.64862">
        <ele>1868.5999755859</ele>
        <time>2022-07-09T13:10:21.000Z</time>
      </trkpt>
      <trkpt lat="44.12264" lon="6.64865">
        <ele>1869</ele>
        <time>2022-07-09T13:10:22.000Z</time>
      </trkpt>
      <trkpt lat="44.12263" lon="6.64881">
        <ele>1869.4000244141</ele>
        <time>2022-07-09T13:10:27.000Z</time>
      </trkpt>
      <trkpt lat="44.12265" lon="6.64895">
        <ele>1869.8000488281</ele>
        <time>2022-07-09T13:10:32.000Z</time>
      </trkpt>
      <trkpt lat="44.12268" lon="6.64915">
        <ele>1870.8000488281</ele>
        <time>2022-07-09T13:10:39.000Z</time>
      </trkpt>
      <trkpt lat="44.12267" lon="6.6492">
        <ele>1870.8000488281</ele>
        <time>2022-07-09T13:10:40.000Z</time>
      </trkpt>
      <trkpt lat="44.12268" lon="6.64936">
        <ele>1870.4000244141</ele>
        <time>2022-07-09T13:10:45.000Z</time>
      </trkpt>
      <trkpt lat="44.12268" lon="6.6495">
        <ele>1872</ele>
        <time>2022-07-09T13:10:51.000Z</time>
      </trkpt>
      <trkpt lat="44.12268" lon="6.64953">
        <ele>1872.1999511719</ele>
        <time>2022-07-09T13:10:52.000Z</time>
      </trkpt>
      <trkpt lat="44.12268" lon="6.64967">
        <ele>1873.1999511719</ele>
        <time>2022-07-09T13:10:58.000Z</time>
      </trkpt>
      <trkpt lat="44.12269" lon="6.6497">
        <ele>1873.1999511719</ele>
        <time>2022-07-09T13:10:59.000Z</time>
      </trkpt>
      <trkpt lat="44.12271" lon="6.64982">
        <ele>1874.1999511719</ele>
        <time>2022-07-09T13:11:04.000Z</time>
      </trkpt>
      <trkpt lat="44.12276" lon="6.64991">
        <ele>1875.1999511719</ele>
        <time>2022-07-09T13:11:09.000Z</time>
      </trkpt>
      <trkpt lat="44.12281" lon="6.64997">
        <ele>1874.8000488281</ele>
        <time>2022-07-09T13:11:15.000Z</time>
      </trkpt>
      <trkpt lat="44.12283" lon="6.64996">
        <ele>1874</ele>
        <time>2022-07-09T13:11:19.000Z</time>
      </trkpt>
      <trkpt lat="44.12283" lon="6.64996">
        <ele>1874</ele>
        <time>2022-07-09T13:11:22.000Z</time>
      </trkpt>
      <trkpt lat="44.12284" lon="6.64993">
        <ele>1874</ele>
        <time>2022-07-09T13:11:26.000Z</time>
      </trkpt>
      <trkpt lat="44.12285" lon="6.64988">
        <ele>1874.1999511719</ele>
        <time>2022-07-09T13:11:33.000Z</time>
      </trkpt>
      <trkpt lat="44.12286" lon="6.64969">
        <ele>1874</ele>
        <time>2022-07-09T13:11:39.000Z</time>
      </trkpt>
      <trkpt lat="44.1229" lon="6.64942">
        <ele>1873.1999511719</ele>
        <time>2022-07-09T13:11:45.000Z</time>
      </trkpt>
      <trkpt lat="44.12292" lon="6.64933">
        <ele>1872.8000488281</ele>
        <time>2022-07-09T13:11:47.000Z</time>
      </trkpt>
      <trkpt lat="44.12296" lon="6.64924">
        <ele>1872.5999755859</ele>
        <time>2022-07-09T13:11:49.000Z</time>
      </trkpt>
      <trkpt lat="44.12298" lon="6.64918">
        <ele>1872.4000244141</ele>
        <time>2022-07-09T13:11:50.000Z</time>
      </trkpt>
      <trkpt lat="44.12299" lon="6.64906">
        <ele>1871.8000488281</ele>
        <time>2022-07-09T13:11:52.000Z</time>
      </trkpt>
      <trkpt lat="44.12303" lon="6.64893">
        <ele>1871.1999511719</ele>
        <time>2022-07-09T13:11:54.000Z</time>
      </trkpt>
      <trkpt lat="44.12305" lon="6.64888">
        <ele>1870.8000488281</ele>
        <time>2022-07-09T13:11:55.000Z</time>
      </trkpt>
      <trkpt lat="44.12311" lon="6.64878">
        <ele>1869.8000488281</ele>
        <time>2022-07-09T13:11:57.000Z</time>
      </trkpt>
      <trkpt lat="44.12314" lon="6.64874">
        <ele>1869.4000244141</ele>
        <time>2022-07-09T13:11:58.000Z</time>
      </trkpt>
      <trkpt lat="44.12317" lon="6.6487">
        <ele>1869</ele>
        <time>2022-07-09T13:11:59.000Z</time>
      </trkpt>
      <trkpt lat="44.12321" lon="6.64866">
        <ele>1868.8000488281</ele>
        <time>2022-07-09T13:12:00.000Z</time>
      </trkpt>
      <trkpt lat="44.1233" lon="6.64861">
        <ele>1868.5999755859</ele>
        <time>2022-07-09T13:12:03.000Z</time>
      </trkpt>
      <trkpt lat="44.12344" lon="6.64861">
        <ele>1869</ele>
        <time>2022-07-09T13:12:08.000Z</time>
      </trkpt>
      <trkpt lat="44.12354" lon="6.64868">
        <ele>1869.5999755859</ele>
        <time>2022-07-09T13:12:12.000Z</time>
      </trkpt>
      <trkpt lat="44.12356" lon="6.64869">
        <ele>1869.8000488281</ele>
        <time>2022-07-09T13:12:13.000Z</time>
      </trkpt>
      <trkpt lat="44.12364" lon="6.64878">
        <ele>1870.4000244141</ele>
        <time>2022-07-09T13:12:17.000Z</time>
      </trkpt>
      <trkpt lat="44.12366" lon="6.6488">
        <ele>1871</ele>
        <time>2022-07-09T13:12:19.000Z</time>
      </trkpt>
      <trkpt lat="44.1237" lon="6.64884">
        <ele>1871.5999755859</ele>
        <time>2022-07-09T13:12:22.000Z</time>
      </trkpt>
      <trkpt lat="44.12375" lon="6.64891">
        <ele>1872</ele>
        <time>2022-07-09T13:12:25.000Z</time>
      </trkpt>
      <trkpt lat="44.12375" lon="6.64893">
        <ele>1872.1999511719</ele>
        <time>2022-07-09T13:12:26.000Z</time>
      </trkpt>
      <trkpt lat="44.12375" lon="6.64896">
        <ele>1872.4000244141</ele>
        <time>2022-07-09T13:12:27.000Z</time>
      </trkpt>
      <trkpt lat="44.12376" lon="6.64899">
        <ele>1872.8000488281</ele>
        <time>2022-07-09T13:12:29.000Z</time>
      </trkpt>
      <trkpt lat="44.12377" lon="6.64901">
        <ele>1873</ele>
        <time>2022-07-09T13:12:30.000Z</time>
      </trkpt>
      <trkpt lat="44.12379" lon="6.64907">
        <ele>1873.1999511719</ele>
        <time>2022-07-09T13:12:32.000Z</time>
      </trkpt>
      <trkpt lat="44.12381" lon="6.64909">
        <ele>1873.1999511719</ele>
        <time>2022-07-09T13:12:33.000Z</time>
      </trkpt>
      <trkpt lat="44.12385" lon="6.64916">
        <ele>1873.5999755859</ele>
        <time>2022-07-09T13:12:37.000Z</time>
      </trkpt>
      <trkpt lat="44.12387" lon="6.64919">
        <ele>1874</ele>
        <time>2022-07-09T13:12:39.000Z</time>
      </trkpt>
      <trkpt lat="44.1239" lon="6.64924">
        <ele>1874.5999755859</ele>
        <time>2022-07-09T13:12:42.000Z</time>
      </trkpt>
      <trkpt lat="44.1239" lon="6.64925">
        <ele>1874.8000488281</ele>
        <time>2022-07-09T13:12:43.000Z</time>
      </trkpt>
      <trkpt lat="44.12391" lon="6.64926">
        <ele>1875</ele>
        <time>2022-07-09T13:12:44.000Z</time>
      </trkpt>
      <trkpt lat="44.12395" lon="6.64932">
        <ele>1875.4000244141</ele>
        <time>2022-07-09T13:12:48.000Z</time>
      </trkpt>
      <trkpt lat="44.12399" lon="6.64937">
        <ele>1875.8000488281</ele>
        <time>2022-07-09T13:12:51.000Z</time>
      </trkpt>
      <trkpt lat="44.12401" lon="6.64939">
        <ele>1876.1999511719</ele>
        <time>2022-07-09T13:12:52.000Z</time>
      </trkpt>
      <trkpt lat="44.12406" lon="6.64946">
        <ele>1877.1999511719</ele>
        <time>2022-07-09T13:12:56.000Z</time>
      </trkpt>
      <trkpt lat="44.12409" lon="6.6495">
        <ele>1878</ele>
        <time>2022-07-09T13:12:59.000Z</time>
      </trkpt>
      <trkpt lat="44.1241" lon="6.64952">
        <ele>1878.4000244141</ele>
        <time>2022-07-09T13:13:00.000Z</time>
      </trkpt>
      <trkpt lat="44.12415" lon="6.6496">
        <ele>1879</ele>
        <time>2022-07-09T13:13:05.000Z</time>
      </trkpt>
      <trkpt lat="44.12418" lon="6.64965">
        <ele>1879.5999755859</ele>
        <time>2022-07-09T13:13:08.000Z</time>
      </trkpt>
      <trkpt lat="44.12421" lon="6.64974">
        <ele>1880.1999511719</ele>
        <time>2022-07-09T13:13:13.000Z</time>
      </trkpt>
      <trkpt lat="44.12425" lon="6.64979">
        <ele>1880.5999755859</ele>
        <time>2022-07-09T13:13:17.000Z</time>
      </trkpt>
      <trkpt lat="44.12427" lon="6.64982">
        <ele>1881</ele>
        <time>2022-07-09T13:13:19.000Z</time>
      </trkpt>
      <trkpt lat="44.12428" lon="6.64985">
        <ele>1881.4000244141</ele>
        <time>2022-07-09T13:13:21.000Z</time>
      </trkpt>
      <trkpt lat="44.12431" lon="6.64992">
        <ele>1881.5999755859</ele>
        <time>2022-07-09T13:13:25.000Z</time>
      </trkpt>
      <trkpt lat="44.12432" lon="6.64993">
        <ele>1881.8000488281</ele>
        <time>2022-07-09T13:13:26.000Z</time>
      </trkpt>
      <trkpt lat="44.12433" lon="6.64994">
        <ele>1882.5999755859</ele>
        <time>2022-07-09T13:13:30.000Z</time>
      </trkpt>
      <trkpt lat="44.12433" lon="6.64995">
        <ele>1883</ele>
        <time>2022-07-09T13:13:32.000Z</time>
      </trkpt>
      <trkpt lat="44.12436" lon="6.64996">
        <ele>1883</ele>
        <time>2022-07-09T13:13:48.000Z</time>
      </trkpt>
      <trkpt lat="44.12438" lon="6.64997">
        <ele>1883</ele>
        <time>2022-07-09T13:14:04.000Z</time>
      </trkpt>
      <trkpt lat="44.1244" lon="6.65003">
        <ele>1883.1999511719</ele>
        <time>2022-07-09T13:14:12.000Z</time>
      </trkpt>
      <trkpt lat="44.12444" lon="6.65009">
        <ele>1883.8000488281</ele>
        <time>2022-07-09T13:14:16.000Z</time>
      </trkpt>
      <trkpt lat="44.12446" lon="6.65014">
        <ele>1884</ele>
        <time>2022-07-09T13:14:18.000Z</time>
      </trkpt>
      <trkpt lat="44.12449" lon="6.65022">
        <ele>1885</ele>
        <time>2022-07-09T13:14:22.000Z</time>
      </trkpt>
      <trkpt lat="44.1245" lon="6.6503">
        <ele>1886</ele>
        <time>2022-07-09T13:14:26.000Z</time>
      </trkpt>
      <trkpt lat="44.12453" lon="6.65042">
        <ele>1887</ele>
        <time>2022-07-09T13:14:31.000Z</time>
      </trkpt>
      <trkpt lat="44.12453" lon="6.65044">
        <ele>1887.1999511719</ele>
        <time>2022-07-09T13:14:32.000Z</time>
      </trkpt>
      <trkpt lat="44.12459" lon="6.65055">
        <ele>1888.1999511719</ele>
        <time>2022-07-09T13:14:38.000Z</time>
      </trkpt>
      <trkpt lat="44.12465" lon="6.65066">
        <ele>1889</ele>
        <time>2022-07-09T13:14:44.000Z</time>
      </trkpt>
      <trkpt lat="44.12466" lon="6.65069">
        <ele>1889.1999511719</ele>
        <time>2022-07-09T13:14:45.000Z</time>
      </trkpt>
      <trkpt lat="44.12471" lon="6.65078">
        <ele>1889.4000244141</ele>
        <time>2022-07-09T13:14:49.000Z</time>
      </trkpt>
      <trkpt lat="44.12473" lon="6.65086">
        <ele>1889.5999755859</ele>
        <time>2022-07-09T13:14:52.000Z</time>
      </trkpt>
      <trkpt lat="44.12474" lon="6.65092">
        <ele>1889.8000488281</ele>
        <time>2022-07-09T13:14:55.000Z</time>
      </trkpt>
      <trkpt lat="44.12476" lon="6.65109">
        <ele>1890.1999511719</ele>
        <time>2022-07-09T13:15:01.000Z</time>
      </trkpt>
      <trkpt lat="44.12479" lon="6.65118">
        <ele>1890.4000244141</ele>
        <time>2022-07-09T13:15:05.000Z</time>
      </trkpt>
      <trkpt lat="44.1248" lon="6.65122">
        <ele>1890.5999755859</ele>
        <time>2022-07-09T13:15:07.000Z</time>
      </trkpt>
      <trkpt lat="44.1248" lon="6.65124">
        <ele>1890.8000488281</ele>
        <time>2022-07-09T13:15:08.000Z</time>
      </trkpt>
      <trkpt lat="44.12481" lon="6.65125">
        <ele>1891.1999511719</ele>
        <time>2022-07-09T13:15:09.000Z</time>
      </trkpt>
      <trkpt lat="44.12484" lon="6.65129">
        <ele>1891.4000244141</ele>
        <time>2022-07-09T13:15:11.000Z</time>
      </trkpt>
      <trkpt lat="44.12486" lon="6.6513">
        <ele>1891.5999755859</ele>
        <time>2022-07-09T13:15:12.000Z</time>
      </trkpt>
      <trkpt lat="44.12494" lon="6.65139">
        <ele>1891.4000244141</ele>
        <time>2022-07-09T13:15:18.000Z</time>
      </trkpt>
      <trkpt lat="44.12501" lon="6.65149">
        <ele>1892</ele>
        <time>2022-07-09T13:15:23.000Z</time>
      </trkpt>
      <trkpt lat="44.12503" lon="6.65151">
        <ele>1892</ele>
        <time>2022-07-09T13:15:24.000Z</time>
      </trkpt>
      <trkpt lat="44.12512" lon="6.65168">
        <ele>1892.1999511719</ele>
        <time>2022-07-09T13:15:31.000Z</time>
      </trkpt>
      <trkpt lat="44.12516" lon="6.65176">
        <ele>1892.4000244141</ele>
        <time>2022-07-09T13:15:34.000Z</time>
      </trkpt>
      <trkpt lat="44.12521" lon="6.65187">
        <ele>1892.4000244141</ele>
        <time>2022-07-09T13:15:38.000Z</time>
      </trkpt>
      <trkpt lat="44.12532" lon="6.65201">
        <ele>1892.5999755859</ele>
        <time>2022-07-09T13:15:44.000Z</time>
      </trkpt>
      <trkpt lat="44.12538" lon="6.65206">
        <ele>1893.5999755859</ele>
        <time>2022-07-09T13:15:48.000Z</time>
      </trkpt>
      <trkpt lat="44.12541" lon="6.65205">
        <ele>1894</ele>
        <time>2022-07-09T13:15:49.000Z</time>
      </trkpt>
      <trkpt lat="44.12552" lon="6.6521">
        <ele>1894</ele>
        <time>2022-07-09T13:15:53.000Z</time>
      </trkpt>
      <trkpt lat="44.12558" lon="6.65225">
        <ele>1893.5999755859</ele>
        <time>2022-07-09T13:15:58.000Z</time>
      </trkpt>
      <trkpt lat="44.12562" lon="6.6523">
        <ele>1893.8000488281</ele>
        <time>2022-07-09T13:16:00.000Z</time>
      </trkpt>
      <trkpt lat="44.12566" lon="6.65235">
        <ele>1894</ele>
        <time>2022-07-09T13:16:02.000Z</time>
      </trkpt>
      <trkpt lat="44.12568" lon="6.65239">
        <ele>1894.1999511719</ele>
        <time>2022-07-09T13:16:04.000Z</time>
      </trkpt>
      <trkpt lat="44.12569" lon="6.65243">
        <ele>1894.4000244141</ele>
        <time>2022-07-09T13:16:07.000Z</time>
      </trkpt>
      <trkpt lat="44.12572" lon="6.65245">
        <ele>1894.1999511719</ele>
        <time>2022-07-09T13:16:18.000Z</time>
      </trkpt>
      <trkpt lat="44.12578" lon="6.65242">
        <ele>1894</ele>
        <time>2022-07-09T13:16:24.000Z</time>
      </trkpt>
      <trkpt lat="44.12579" lon="6.65241">
        <ele>1893.4000244141</ele>
        <time>2022-07-09T13:16:31.000Z</time>
      </trkpt>
      <trkpt lat="44.12579" lon="6.6524">
        <ele>1893.5999755859</ele>
        <time>2022-07-09T13:16:34.000Z</time>
      </trkpt>
      <trkpt lat="44.12578" lon="6.65235">
        <ele>1894</ele>
        <time>2022-07-09T13:16:38.000Z</time>
      </trkpt>
      <trkpt lat="44.12578" lon="6.65229">
        <ele>1894.8000488281</ele>
        <time>2022-07-09T13:16:44.000Z</time>
      </trkpt>
      <trkpt lat="44.12578" lon="6.65227">
        <ele>1895</ele>
        <time>2022-07-09T13:16:47.000Z</time>
      </trkpt>
      <trkpt lat="44.1258" lon="6.65221">
        <ele>1895</ele>
        <time>2022-07-09T13:16:54.000Z</time>
      </trkpt>
      <trkpt lat="44.12579" lon="6.65207">
        <ele>1894.5999755859</ele>
        <time>2022-07-09T13:16:59.000Z</time>
      </trkpt>
      <trkpt lat="44.12581" lon="6.65205">
        <ele>1894.4000244141</ele>
        <time>2022-07-09T13:17:00.000Z</time>
      </trkpt>
      <trkpt lat="44.12583" lon="6.65201">
        <ele>1894.1999511719</ele>
        <time>2022-07-09T13:17:02.000Z</time>
      </trkpt>
      <trkpt lat="44.1258" lon="6.65197">
        <ele>1894.8000488281</ele>
        <time>2022-07-09T13:17:07.000Z</time>
      </trkpt>
      <trkpt lat="44.12574" lon="6.65185">
        <ele>1894.4000244141</ele>
        <time>2022-07-09T13:17:11.000Z</time>
      </trkpt>
      <trkpt lat="44.12572" lon="6.6518">
        <ele>1893.8000488281</ele>
        <time>2022-07-09T13:17:13.000Z</time>
      </trkpt>
      <trkpt lat="44.1257" lon="6.6517">
        <ele>1893.4000244141</ele>
        <time>2022-07-09T13:17:16.000Z</time>
      </trkpt>
      <trkpt lat="44.12564" lon="6.65152">
        <ele>1893.5999755859</ele>
        <time>2022-07-09T13:17:21.000Z</time>
      </trkpt>
      <trkpt lat="44.12556" lon="6.65136">
        <ele>1892.8000488281</ele>
        <time>2022-07-09T13:17:26.000Z</time>
      </trkpt>
      <trkpt lat="44.12557" lon="6.65127">
        <ele>1892.8000488281</ele>
        <time>2022-07-09T13:17:28.000Z</time>
      </trkpt>
      <trkpt lat="44.1256" lon="6.65114">
        <ele>1892.1999511719</ele>
        <time>2022-07-09T13:17:31.000Z</time>
      </trkpt>
      <trkpt lat="44.12566" lon="6.65102">
        <ele>1891.8000488281</ele>
        <time>2022-07-09T13:17:34.000Z</time>
      </trkpt>
      <trkpt lat="44.12571" lon="6.65091">
        <ele>1891.1999511719</ele>
        <time>2022-07-09T13:17:37.000Z</time>
      </trkpt>
      <trkpt lat="44.12581" lon="6.65071">
        <ele>1890.5999755859</ele>
        <time>2022-07-09T13:17:42.000Z</time>
      </trkpt>
      <trkpt lat="44.12585" lon="6.65062">
        <ele>1890.1999511719</ele>
        <time>2022-07-09T13:17:44.000Z</time>
      </trkpt>
      <trkpt lat="44.12589" lon="6.65056">
        <ele>1890</ele>
        <time>2022-07-09T13:17:46.000Z</time>
      </trkpt>
      <trkpt lat="44.126" lon="6.65035">
        <ele>1889.8000488281</ele>
        <time>2022-07-09T13:17:52.000Z</time>
      </trkpt>
      <trkpt lat="44.12605" lon="6.65013">
        <ele>1890</ele>
        <time>2022-07-09T13:17:57.000Z</time>
      </trkpt>
      <trkpt lat="44.12605" lon="6.65008">
        <ele>1890</ele>
        <time>2022-07-09T13:17:58.000Z</time>
      </trkpt>
      <trkpt lat="44.12605" lon="6.6499">
        <ele>1890</ele>
        <time>2022-07-09T13:18:02.000Z</time>
      </trkpt>
      <trkpt lat="44.1261" lon="6.64971">
        <ele>1889.8000488281</ele>
        <time>2022-07-09T13:18:07.000Z</time>
      </trkpt>
      <trkpt lat="44.12613" lon="6.64947">
        <ele>1890.4000244141</ele>
        <time>2022-07-09T13:18:13.000Z</time>
      </trkpt>
      <trkpt lat="44.1261" lon="6.64929">
        <ele>1890.4000244141</ele>
        <time>2022-07-09T13:18:17.000Z</time>
      </trkpt>
      <trkpt lat="44.12614" lon="6.64901">
        <ele>1890.4000244141</ele>
        <time>2022-07-09T13:18:24.000Z</time>
      </trkpt>
      <trkpt lat="44.1262" lon="6.64903">
        <ele>1890.4000244141</ele>
        <time>2022-07-09T13:18:26.000Z</time>
      </trkpt>
      <trkpt lat="44.12626" lon="6.64906">
        <ele>1890.5999755859</ele>
        <time>2022-07-09T13:18:28.000Z</time>
      </trkpt>
      <trkpt lat="44.12631" lon="6.64913">
        <ele>1890.8000488281</ele>
        <time>2022-07-09T13:18:31.000Z</time>
      </trkpt>
      <trkpt lat="44.12632" lon="6.64916">
        <ele>1891</ele>
        <time>2022-07-09T13:18:32.000Z</time>
      </trkpt>
      <trkpt lat="44.12634" lon="6.64938">
        <ele>1891.5999755859</ele>
        <time>2022-07-09T13:18:38.000Z</time>
      </trkpt>
      <trkpt lat="44.12636" lon="6.6494">
        <ele>1891.8000488281</ele>
        <time>2022-07-09T13:18:39.000Z</time>
      </trkpt>
      <trkpt lat="44.12637" lon="6.64943">
        <ele>1891.8000488281</ele>
        <time>2022-07-09T13:18:40.000Z</time>
      </trkpt>
      <trkpt lat="44.12644" lon="6.64947">
        <ele>1891.5999755859</ele>
        <time>2022-07-09T13:18:43.000Z</time>
      </trkpt>
      <trkpt lat="44.12645" lon="6.64946">
        <ele>1891.5999755859</ele>
        <time>2022-07-09T13:18:44.000Z</time>
      </trkpt>
      <trkpt lat="44.12649" lon="6.64948">
        <ele>1891.4000244141</ele>
        <time>2022-07-09T13:18:47.000Z</time>
      </trkpt>
      <trkpt lat="44.12649" lon="6.64949">
        <ele>1891.4000244141</ele>
        <time>2022-07-09T13:18:48.000Z</time>
      </trkpt>
      <trkpt lat="44.12653" lon="6.64956">
        <ele>1891.5999755859</ele>
        <time>2022-07-09T13:18:51.000Z</time>
      </trkpt>
      <trkpt lat="44.12665" lon="6.64965">
        <ele>1892</ele>
        <time>2022-07-09T13:18:57.000Z</time>
      </trkpt>
      <trkpt lat="44.12683" lon="6.64969">
        <ele>1892</ele>
        <time>2022-07-09T13:19:04.000Z</time>
      </trkpt>
      <trkpt lat="44.12688" lon="6.64973">
        <ele>1892</ele>
        <time>2022-07-09T13:19:07.000Z</time>
      </trkpt>
      <trkpt lat="44.12692" lon="6.64972">
        <ele>1892.5999755859</ele>
        <time>2022-07-09T13:19:09.000Z</time>
      </trkpt>
      <trkpt lat="44.12694" lon="6.64971">
        <ele>1892.8000488281</ele>
        <time>2022-07-09T13:19:10.000Z</time>
      </trkpt>
      <trkpt lat="44.12698" lon="6.64966">
        <ele>1893</ele>
        <time>2022-07-09T13:19:12.000Z</time>
      </trkpt>
      <trkpt lat="44.12698" lon="6.64962">
        <ele>1892.5999755859</ele>
        <time>2022-07-09T13:19:14.000Z</time>
      </trkpt>
      <trkpt lat="44.12699" lon="6.6496">
        <ele>1892.5999755859</ele>
        <time>2022-07-09T13:19:19.000Z</time>
      </trkpt>
      <trkpt lat="44.12699" lon="6.64951">
        <ele>1892.5999755859</ele>
        <time>2022-07-09T13:19:23.000Z</time>
      </trkpt>
      <trkpt lat="44.12696" lon="6.64938">
        <ele>1892.8000488281</ele>
        <time>2022-07-09T13:19:28.000Z</time>
      </trkpt>
      <trkpt lat="44.12691" lon="6.64923">
        <ele>1892.4000244141</ele>
        <time>2022-07-09T13:19:32.000Z</time>
      </trkpt>
      <trkpt lat="44.12694" lon="6.64919">
        <ele>1892</ele>
        <time>2022-07-09T13:19:34.000Z</time>
      </trkpt>
      <trkpt lat="44.12699" lon="6.64918">
        <ele>1891.8000488281</ele>
        <time>2022-07-09T13:19:36.000Z</time>
      </trkpt>
      <trkpt lat="44.12704" lon="6.64912">
        <ele>1891.8000488281</ele>
        <time>2022-07-09T13:19:39.000Z</time>
      </trkpt>
      <trkpt lat="44.12705" lon="6.64908">
        <ele>1891.8000488281</ele>
        <time>2022-07-09T13:19:40.000Z</time>
      </trkpt>
      <trkpt lat="44.12713" lon="6.64889">
        <ele>1892</ele>
        <time>2022-07-09T13:19:46.000Z</time>
      </trkpt>
      <trkpt lat="44.12718" lon="6.6486">
        <ele>1891.8000488281</ele>
        <time>2022-07-09T13:19:53.000Z</time>
      </trkpt>
      <trkpt lat="44.1272" lon="6.64859">
        <ele>1891.5999755859</ele>
        <time>2022-07-09T13:19:54.000Z</time>
      </trkpt>
      <trkpt lat="44.12726" lon="6.64859">
        <ele>1891.4000244141</ele>
        <time>2022-07-09T13:19:56.000Z</time>
      </trkpt>
      <trkpt lat="44.12731" lon="6.64861">
        <ele>1891.5999755859</ele>
        <time>2022-07-09T13:19:58.000Z</time>
      </trkpt>
      <trkpt lat="44.1274" lon="6.64873">
        <ele>1892.1999511719</ele>
        <time>2022-07-09T13:20:03.000Z</time>
      </trkpt>
      <trkpt lat="44.12746" lon="6.6488">
        <ele>1892.5999755859</ele>
        <time>2022-07-09T13:20:06.000Z</time>
      </trkpt>
      <trkpt lat="44.12751" lon="6.64883">
        <ele>1892.5999755859</ele>
        <time>2022-07-09T13:20:08.000Z</time>
      </trkpt>
      <trkpt lat="44.12757" lon="6.64886">
        <ele>1893</ele>
        <time>2022-07-09T13:20:10.000Z</time>
      </trkpt>
      <trkpt lat="44.12765" lon="6.64885">
        <ele>1893</ele>
        <time>2022-07-09T13:20:13.000Z</time>
      </trkpt>
      <trkpt lat="44.12767" lon="6.64885">
        <ele>1893.1999511719</ele>
        <time>2022-07-09T13:20:14.000Z</time>
      </trkpt>
      <trkpt lat="44.12773" lon="6.64888">
        <ele>1893.1999511719</ele>
        <time>2022-07-09T13:20:17.000Z</time>
      </trkpt>
      <trkpt lat="44.12775" lon="6.6489">
        <ele>1893.4000244141</ele>
        <time>2022-07-09T13:20:18.000Z</time>
      </trkpt>
      <trkpt lat="44.12777" lon="6.6489">
        <ele>1893.4000244141</ele>
        <time>2022-07-09T13:20:19.000Z</time>
      </trkpt>
      <trkpt lat="44.12782" lon="6.64889">
        <ele>1893.5999755859</ele>
        <time>2022-07-09T13:20:21.000Z</time>
      </trkpt>
      <trkpt lat="44.12783" lon="6.64888">
        <ele>1893.8000488281</ele>
        <time>2022-07-09T13:20:22.000Z</time>
      </trkpt>
      <trkpt lat="44.12784" lon="6.64888">
        <ele>1894</ele>
        <time>2022-07-09T13:20:23.000Z</time>
      </trkpt>
      <trkpt lat="44.12784" lon="6.64887">
        <ele>1894.5999755859</ele>
        <time>2022-07-09T13:20:25.000Z</time>
      </trkpt>
      <trkpt lat="44.12786" lon="6.64881">
        <ele>1894.8000488281</ele>
        <time>2022-07-09T13:20:28.000Z</time>
      </trkpt>
      <trkpt lat="44.12788" lon="6.64879">
        <ele>1894.1999511719</ele>
        <time>2022-07-09T13:20:29.000Z</time>
      </trkpt>
      <trkpt lat="44.12791" lon="6.64874">
        <ele>1893.5999755859</ele>
        <time>2022-07-09T13:20:31.000Z</time>
      </trkpt>
      <trkpt lat="44.12791" lon="6.64872">
        <ele>1893.5999755859</ele>
        <time>2022-07-09T13:20:32.000Z</time>
      </trkpt>
      <trkpt lat="44.12785" lon="6.64867">
        <ele>1893</ele>
        <time>2022-07-09T13:20:36.000Z</time>
      </trkpt>
      <trkpt lat="44.12782" lon="6.64865">
        <ele>1893</ele>
        <time>2022-07-09T13:20:37.000Z</time>
      </trkpt>
      <trkpt lat="44.12779" lon="6.64855">
        <ele>1893.4000244141</ele>
        <time>2022-07-09T13:20:40.000Z</time>
      </trkpt>
      <trkpt lat="44.12769" lon="6.64838">
        <ele>1893.4000244141</ele>
        <time>2022-07-09T13:20:45.000Z</time>
      </trkpt>
      <trkpt lat="44.12761" lon="6.64814">
        <ele>1892.5999755859</ele>
        <time>2022-07-09T13:20:51.000Z</time>
      </trkpt>
      <trkpt lat="44.12759" lon="6.64792">
        <ele>1892.5999755859</ele>
        <time>2022-07-09T13:20:57.000Z</time>
      </trkpt>
      <trkpt lat="44.12752" lon="6.64776">
        <ele>1892.5999755859</ele>
        <time>2022-07-09T13:21:03.000Z</time>
      </trkpt>
      <trkpt lat="44.12751" lon="6.64766">
        <ele>1892.5999755859</ele>
        <time>2022-07-09T13:21:06.000Z</time>
      </trkpt>
      <trkpt lat="44.12748" lon="6.64759">
        <ele>1892.8000488281</ele>
        <time>2022-07-09T13:21:08.000Z</time>
      </trkpt>
      <trkpt lat="44.12747" lon="6.64738">
        <ele>1892.8000488281</ele>
        <time>2022-07-09T13:21:14.000Z</time>
      </trkpt>
      <trkpt lat="44.12747" lon="6.64715">
        <ele>1892.8000488281</ele>
        <time>2022-07-09T13:21:19.000Z</time>
      </trkpt>
      <trkpt lat="44.12748" lon="6.6469">
        <ele>1892.5999755859</ele>
        <time>2022-07-09T13:21:24.000Z</time>
      </trkpt>
      <trkpt lat="44.12757" lon="6.64676">
        <ele>1892.4000244141</ele>
        <time>2022-07-09T13:21:28.000Z</time>
      </trkpt>
      <trkpt lat="44.12759" lon="6.64669">
        <ele>1892.4000244141</ele>
        <time>2022-07-09T13:21:30.000Z</time>
      </trkpt>
      <trkpt lat="44.12758" lon="6.64661">
        <ele>1892.8000488281</ele>
        <time>2022-07-09T13:21:32.000Z</time>
      </trkpt>
      <trkpt lat="44.12752" lon="6.64636">
        <ele>1893.4000244141</ele>
        <time>2022-07-09T13:21:39.000Z</time>
      </trkpt>
      <trkpt lat="44.1275" lon="6.6463">
        <ele>1893.5999755859</ele>
        <time>2022-07-09T13:21:41.000Z</time>
      </trkpt>
      <trkpt lat="44.12748" lon="6.64618">
        <ele>1894</ele>
        <time>2022-07-09T13:21:44.000Z</time>
      </trkpt>
      <trkpt lat="44.12744" lon="6.64593">
        <ele>1894.1999511719</ele>
        <time>2022-07-09T13:21:50.000Z</time>
      </trkpt>
      <trkpt lat="44.12738" lon="6.64564">
        <ele>1894.5999755859</ele>
        <time>2022-07-09T13:21:57.000Z</time>
      </trkpt>
      <trkpt lat="44.12737" lon="6.64559">
        <ele>1894.8000488281</ele>
        <time>2022-07-09T13:21:58.000Z</time>
      </trkpt>
      <trkpt lat="44.12735" lon="6.6454">
        <ele>1895.1999511719</ele>
        <time>2022-07-09T13:22:03.000Z</time>
      </trkpt>
      <trkpt lat="44.12736" lon="6.64535">
        <ele>1895.1999511719</ele>
        <time>2022-07-09T13:22:04.000Z</time>
      </trkpt>
      <trkpt lat="44.12742" lon="6.64519">
        <ele>1895.1999511719</ele>
        <time>2022-07-09T13:22:08.000Z</time>
      </trkpt>
      <trkpt lat="44.12755" lon="6.64505">
        <ele>1895.1999511719</ele>
        <time>2022-07-09T13:22:13.000Z</time>
      </trkpt>
      <trkpt lat="44.12771" lon="6.64486">
        <ele>1895.5999755859</ele>
        <time>2022-07-09T13:22:20.000Z</time>
      </trkpt>
      <trkpt lat="44.1277" lon="6.64478">
        <ele>1895.8000488281</ele>
        <time>2022-07-09T13:22:22.000Z</time>
      </trkpt>
      <trkpt lat="44.1277" lon="6.64467">
        <ele>1895.5999755859</ele>
        <time>2022-07-09T13:22:25.000Z</time>
      </trkpt>
      <trkpt lat="44.12775" lon="6.64458">
        <ele>1895.5999755859</ele>
        <time>2022-07-09T13:22:29.000Z</time>
      </trkpt>
      <trkpt lat="44.12772" lon="6.64449">
        <ele>1895.4000244141</ele>
        <time>2022-07-09T13:22:32.000Z</time>
      </trkpt>
      <trkpt lat="44.1277" lon="6.64447">
        <ele>1895.4000244141</ele>
        <time>2022-07-09T13:22:33.000Z</time>
      </trkpt>
      <trkpt lat="44.12767" lon="6.64446">
        <ele>1895.4000244141</ele>
        <time>2022-07-09T13:22:34.000Z</time>
      </trkpt>
      <trkpt lat="44.12761" lon="6.64441">
        <ele>1895.4000244141</ele>
        <time>2022-07-09T13:22:37.000Z</time>
      </trkpt>
      <trkpt lat="44.12753" lon="6.64419">
        <ele>1896.4000244141</ele>
        <time>2022-07-09T13:22:44.000Z</time>
      </trkpt>
      <trkpt lat="44.12752" lon="6.64397">
        <ele>1896.4000244141</ele>
        <time>2022-07-09T13:22:49.000Z</time>
      </trkpt>
      <trkpt lat="44.12753" lon="6.64393">
        <ele>1896.1999511719</ele>
        <time>2022-07-09T13:22:50.000Z</time>
      </trkpt>
      <trkpt lat="44.1276" lon="6.64369">
        <ele>1896</ele>
        <time>2022-07-09T13:22:56.000Z</time>
      </trkpt>
      <trkpt lat="44.12758" lon="6.64365">
        <ele>1896.1999511719</ele>
        <time>2022-07-09T13:22:57.000Z</time>
      </trkpt>
      <trkpt lat="44.12754" lon="6.64352">
        <ele>1896</ele>
        <time>2022-07-09T13:23:00.000Z</time>
      </trkpt>
      <trkpt lat="44.12753" lon="6.64336">
        <ele>1895.8000488281</ele>
        <time>2022-07-09T13:23:04.000Z</time>
      </trkpt>
      <trkpt lat="44.12752" lon="6.64334">
        <ele>1896</ele>
        <time>2022-07-09T13:23:05.000Z</time>
      </trkpt>
      <trkpt lat="44.12744" lon="6.64327">
        <ele>1895.5999755859</ele>
        <time>2022-07-09T13:23:09.000Z</time>
      </trkpt>
      <trkpt lat="44.12726" lon="6.643">
        <ele>1895.1999511719</ele>
        <time>2022-07-09T13:23:16.000Z</time>
      </trkpt>
      <trkpt lat="44.12713" lon="6.64283">
        <ele>1894.8000488281</ele>
        <time>2022-07-09T13:23:21.000Z</time>
      </trkpt>
      <trkpt lat="44.1271" lon="6.64279">
        <ele>1894.5999755859</ele>
        <time>2022-07-09T13:23:22.000Z</time>
      </trkpt>
      <trkpt lat="44.12697" lon="6.64264">
        <ele>1893.5999755859</ele>
        <time>2022-07-09T13:23:26.000Z</time>
      </trkpt>
      <trkpt lat="44.12693" lon="6.64261">
        <ele>1893.4000244141</ele>
        <time>2022-07-09T13:23:27.000Z</time>
      </trkpt>
      <trkpt lat="44.12677" lon="6.64249">
        <ele>1892.8000488281</ele>
        <time>2022-07-09T13:23:31.000Z</time>
      </trkpt>
      <trkpt lat="44.12668" lon="6.64236">
        <ele>1893.1999511719</ele>
        <time>2022-07-09T13:23:34.000Z</time>
      </trkpt>
      <trkpt lat="44.12659" lon="6.64219">
        <ele>1892.5999755859</ele>
        <time>2022-07-09T13:23:37.000Z</time>
      </trkpt>
      <trkpt lat="44.12651" lon="6.642">
        <ele>1891.8000488281</ele>
        <time>2022-07-09T13:23:41.000Z</time>
      </trkpt>
      <trkpt lat="44.12658" lon="6.64189">
        <ele>1891.8000488281</ele>
        <time>2022-07-09T13:23:44.000Z</time>
      </trkpt>
      <trkpt lat="44.12663" lon="6.64182">
        <ele>1891.5999755859</ele>
        <time>2022-07-09T13:23:46.000Z</time>
      </trkpt>
      <trkpt lat="44.12677" lon="6.64169">
        <ele>1891.1999511719</ele>
        <time>2022-07-09T13:23:50.000Z</time>
      </trkpt>
      <trkpt lat="44.12697" lon="6.64151">
        <ele>1890.8000488281</ele>
        <time>2022-07-09T13:23:56.000Z</time>
      </trkpt>
      <trkpt lat="44.1272" lon="6.64125">
        <ele>1890.8000488281</ele>
        <time>2022-07-09T13:24:03.000Z</time>
      </trkpt>
      <trkpt lat="44.12727" lon="6.64118">
        <ele>1890.5999755859</ele>
        <time>2022-07-09T13:24:05.000Z</time>
      </trkpt>
      <trkpt lat="44.12731" lon="6.64113">
        <ele>1890.4000244141</ele>
        <time>2022-07-09T13:24:08.000Z</time>
      </trkpt>
      <trkpt lat="44.12731" lon="6.64112">
        <ele>1890.1999511719</ele>
        <time>2022-07-09T13:24:13.000Z</time>
      </trkpt>
      <trkpt lat="44.12731" lon="6.6411">
        <ele>1890.1999511719</ele>
        <time>2022-07-09T13:24:26.000Z</time>
      </trkpt>
      <trkpt lat="44.12734" lon="6.64108">
        <ele>1890.8000488281</ele>
        <time>2022-07-09T13:24:38.000Z</time>
      </trkpt>
      <trkpt lat="44.12738" lon="6.64103">
        <ele>1890.5999755859</ele>
        <time>2022-07-09T13:24:52.000Z</time>
      </trkpt>
      <trkpt lat="44.12741" lon="6.64101">
        <ele>1890.4000244141</ele>
        <time>2022-07-09T13:24:55.000Z</time>
      </trkpt>
      <trkpt lat="44.12744" lon="6.64096">
        <ele>1890.4000244141</ele>
        <time>2022-07-09T13:24:57.000Z</time>
      </trkpt>
      <trkpt lat="44.12748" lon="6.6409">
        <ele>1890.4000244141</ele>
        <time>2022-07-09T13:24:59.000Z</time>
      </trkpt>
      <trkpt lat="44.12754" lon="6.64082">
        <ele>1890.4000244141</ele>
        <time>2022-07-09T13:25:02.000Z</time>
      </trkpt>
      <trkpt lat="44.12766" lon="6.64069">
        <ele>1890</ele>
        <time>2022-07-09T13:25:07.000Z</time>
      </trkpt>
      <trkpt lat="44.12776" lon="6.6406">
        <ele>1890</ele>
        <time>2022-07-09T13:25:11.000Z</time>
      </trkpt>
      <trkpt lat="44.12792" lon="6.64049">
        <ele>1889.8000488281</ele>
        <time>2022-07-09T13:25:17.000Z</time>
      </trkpt>
      <trkpt lat="44.12806" lon="6.64043">
        <ele>1889.5999755859</ele>
        <time>2022-07-09T13:25:22.000Z</time>
      </trkpt>
      <trkpt lat="44.1281" lon="6.64043">
        <ele>1889.5999755859</ele>
        <time>2022-07-09T13:25:25.000Z</time>
      </trkpt>
      <trkpt lat="44.12809" lon="6.64042">
        <ele>1889.5999755859</ele>
        <time>2022-07-09T13:25:26.000Z</time>
      </trkpt>
      <trkpt lat="44.12813" lon="6.64043">
        <ele>1890</ele>
        <time>2022-07-09T13:25:32.000Z</time>
      </trkpt>
      <trkpt lat="44.12815" lon="6.64041">
        <ele>1890</ele>
        <time>2022-07-09T13:25:37.000Z</time>
      </trkpt>
      <trkpt lat="44.12822" lon="6.6404">
        <ele>1889.8000488281</ele>
        <time>2022-07-09T13:25:42.000Z</time>
      </trkpt>
      <trkpt lat="44.12827" lon="6.64037">
        <ele>1890</ele>
        <time>2022-07-09T13:25:45.000Z</time>
      </trkpt>
      <trkpt lat="44.1283" lon="6.64034">
        <ele>1890</ele>
        <time>2022-07-09T13:25:46.000Z</time>
      </trkpt>
      <trkpt lat="44.12828" lon="6.64029">
        <ele>1890</ele>
        <time>2022-07-09T13:25:47.000Z</time>
      </trkpt>
      <trkpt lat="44.1283" lon="6.6402">
        <ele>1889.8000488281</ele>
        <time>2022-07-09T13:25:49.000Z</time>
      </trkpt>
      <trkpt lat="44.12839" lon="6.64002">
        <ele>1889.8000488281</ele>
        <time>2022-07-09T13:25:53.000Z</time>
      </trkpt>
      <trkpt lat="44.12851" lon="6.63978">
        <ele>1889.1999511719</ele>
        <time>2022-07-09T13:25:58.000Z</time>
      </trkpt>
      <trkpt lat="44.12854" lon="6.63974">
        <ele>1889.1999511719</ele>
        <time>2022-07-09T13:25:59.000Z</time>
      </trkpt>
      <trkpt lat="44.12862" lon="6.63957">
        <ele>1889</ele>
        <time>2022-07-09T13:26:02.000Z</time>
      </trkpt>
      <trkpt lat="44.12869" lon="6.63947">
        <ele>1888.8000488281</ele>
        <time>2022-07-09T13:26:04.000Z</time>
      </trkpt>
      <trkpt lat="44.12876" lon="6.63935">
        <ele>1888.5999755859</ele>
        <time>2022-07-09T13:26:06.000Z</time>
      </trkpt>
      <trkpt lat="44.12884" lon="6.63925">
        <ele>1888</ele>
        <time>2022-07-09T13:26:08.000Z</time>
      </trkpt>
      <trkpt lat="44.12893" lon="6.63908">
        <ele>1887.8000488281</ele>
        <time>2022-07-09T13:26:11.000Z</time>
      </trkpt>
      <trkpt lat="44.12896" lon="6.63902">
        <ele>1887.5999755859</ele>
        <time>2022-07-09T13:26:12.000Z</time>
      </trkpt>
      <trkpt lat="44.12902" lon="6.6389">
        <ele>1887.4000244141</ele>
        <time>2022-07-09T13:26:14.000Z</time>
      </trkpt>
      <trkpt lat="44.1291" lon="6.63864">
        <ele>1886.5999755859</ele>
        <time>2022-07-09T13:26:18.000Z</time>
      </trkpt>
      <trkpt lat="44.12911" lon="6.63857">
        <ele>1886.4000244141</ele>
        <time>2022-07-09T13:26:19.000Z</time>
      </trkpt>
      <trkpt lat="44.12917" lon="6.63824">
        <ele>1886</ele>
        <time>2022-07-09T13:26:24.000Z</time>
      </trkpt>
      <trkpt lat="44.12921" lon="6.63811">
        <ele>1886</ele>
        <time>2022-07-09T13:26:26.000Z</time>
      </trkpt>
      <trkpt lat="44.12931" lon="6.63813">
        <ele>1885.8000488281</ele>
        <time>2022-07-09T13:26:29.000Z</time>
      </trkpt>
      <trkpt lat="44.12934" lon="6.63823">
        <ele>1886</ele>
        <time>2022-07-09T13:26:33.000Z</time>
      </trkpt>
      <trkpt lat="44.12935" lon="6.6383">
        <ele>1886.1999511719</ele>
        <time>2022-07-09T13:26:35.000Z</time>
      </trkpt>
      <trkpt lat="44.1294" lon="6.63843">
        <ele>1886.5999755859</ele>
        <time>2022-07-09T13:26:39.000Z</time>
      </trkpt>
      <trkpt lat="44.12957" lon="6.63855">
        <ele>1886.8000488281</ele>
        <time>2022-07-09T13:26:46.000Z</time>
      </trkpt>
      <trkpt lat="44.12971" lon="6.63857">
        <ele>1886.5999755859</ele>
        <time>2022-07-09T13:26:51.000Z</time>
      </trkpt>
      <trkpt lat="44.1298" lon="6.63864">
        <ele>1887.1999511719</ele>
        <time>2022-07-09T13:26:55.000Z</time>
      </trkpt>
      <trkpt lat="44.12982" lon="6.63866">
        <ele>1887.4000244141</ele>
        <time>2022-07-09T13:26:56.000Z</time>
      </trkpt>
      <trkpt lat="44.12987" lon="6.6388">
        <ele>1887.4000244141</ele>
        <time>2022-07-09T13:27:01.000Z</time>
      </trkpt>
      <trkpt lat="44.12998" lon="6.63892">
        <ele>1888</ele>
        <time>2022-07-09T13:27:07.000Z</time>
      </trkpt>
      <trkpt lat="44.13007" lon="6.63897">
        <ele>1888.4000244141</ele>
        <time>2022-07-09T13:27:11.000Z</time>
      </trkpt>
      <trkpt lat="44.13009" lon="6.63898">
        <ele>1888.5999755859</ele>
        <time>2022-07-09T13:27:12.000Z</time>
      </trkpt>
      <trkpt lat="44.13019" lon="6.63908">
        <ele>1888.5999755859</ele>
        <time>2022-07-09T13:27:17.000Z</time>
      </trkpt>
      <trkpt lat="44.13027" lon="6.63915">
        <ele>1888.8000488281</ele>
        <time>2022-07-09T13:27:21.000Z</time>
      </trkpt>
      <trkpt lat="44.13038" lon="6.63924">
        <ele>1889.8000488281</ele>
        <time>2022-07-09T13:27:26.000Z</time>
      </trkpt>
      <trkpt lat="44.13051" lon="6.63937">
        <ele>1890.5999755859</ele>
        <time>2022-07-09T13:27:32.000Z</time>
      </trkpt>
      <trkpt lat="44.13059" lon="6.63945">
        <ele>1890.8000488281</ele>
        <time>2022-07-09T13:27:36.000Z</time>
      </trkpt>
      <trkpt lat="44.13061" lon="6.6395">
        <ele>1890.8000488281</ele>
        <time>2022-07-09T13:27:38.000Z</time>
      </trkpt>
      <trkpt lat="44.13064" lon="6.63954">
        <ele>1891</ele>
        <time>2022-07-09T13:27:40.000Z</time>
      </trkpt>
      <trkpt lat="44.13066" lon="6.63958">
        <ele>1891</ele>
        <time>2022-07-09T13:27:42.000Z</time>
      </trkpt>
      <trkpt lat="44.13072" lon="6.63968">
        <ele>1891.4000244141</ele>
        <time>2022-07-09T13:27:47.000Z</time>
      </trkpt>
      <trkpt lat="44.1308" lon="6.63976">
        <ele>1891.8000488281</ele>
        <time>2022-07-09T13:27:52.000Z</time>
      </trkpt>
      <trkpt lat="44.13091" lon="6.63985">
        <ele>1892.1999511719</ele>
        <time>2022-07-09T13:27:58.000Z</time>
      </trkpt>
      <trkpt lat="44.13098" lon="6.63993">
        <ele>1892.5999755859</ele>
        <time>2022-07-09T13:28:02.000Z</time>
      </trkpt>
      <trkpt lat="44.13102" lon="6.63999">
        <ele>1892.8000488281</ele>
        <time>2022-07-09T13:28:05.000Z</time>
      </trkpt>
      <trkpt lat="44.13103" lon="6.64001">
        <ele>1892.8000488281</ele>
        <time>2022-07-09T13:28:06.000Z</time>
      </trkpt>
      <trkpt lat="44.13105" lon="6.64003">
        <ele>1893</ele>
        <time>2022-07-09T13:28:07.000Z</time>
      </trkpt>
      <trkpt lat="44.13116" lon="6.64015">
        <ele>1893.5999755859</ele>
        <time>2022-07-09T13:28:13.000Z</time>
      </trkpt>
      <trkpt lat="44.13122" lon="6.64023">
        <ele>1893.8000488281</ele>
        <time>2022-07-09T13:28:17.000Z</time>
      </trkpt>
      <trkpt lat="44.13125" lon="6.64025">
        <ele>1894</ele>
        <time>2022-07-09T13:28:18.000Z</time>
      </trkpt>
      <trkpt lat="44.1313" lon="6.6403">
        <ele>1894.1999511719</ele>
        <time>2022-07-09T13:28:21.000Z</time>
      </trkpt>
      <trkpt lat="44.13132" lon="6.64032">
        <ele>1894.4000244141</ele>
        <time>2022-07-09T13:28:22.000Z</time>
      </trkpt>
      <trkpt lat="44.13145" lon="6.64042">
        <ele>1894.5999755859</ele>
        <time>2022-07-09T13:28:27.000Z</time>
      </trkpt>
      <trkpt lat="44.13158" lon="6.64051">
        <ele>1894.5999755859</ele>
        <time>2022-07-09T13:28:32.000Z</time>
      </trkpt>
      <trkpt lat="44.13166" lon="6.64058">
        <ele>1895</ele>
        <time>2022-07-09T13:28:36.000Z</time>
      </trkpt>
      <trkpt lat="44.1317" lon="6.64061">
        <ele>1895.4000244141</ele>
        <time>2022-07-09T13:28:38.000Z</time>
      </trkpt>
      <trkpt lat="44.13179" lon="6.64071">
        <ele>1895.8000488281</ele>
        <time>2022-07-09T13:28:43.000Z</time>
      </trkpt>
      <trkpt lat="44.13189" lon="6.64081">
        <ele>1896</ele>
        <time>2022-07-09T13:28:48.000Z</time>
      </trkpt>
      <trkpt lat="44.1319" lon="6.64082">
        <ele>1896</ele>
        <time>2022-07-09T13:28:49.000Z</time>
      </trkpt>
      <trkpt lat="44.13196" lon="6.64089">
        <ele>1896.8000488281</ele>
        <time>2022-07-09T13:28:53.000Z</time>
      </trkpt>
      <trkpt lat="44.13201" lon="6.64097">
        <ele>1897</ele>
        <time>2022-07-09T13:28:57.000Z</time>
      </trkpt>
      <trkpt lat="44.13204" lon="6.64099">
        <ele>1897.1999511719</ele>
        <time>2022-07-09T13:28:58.000Z</time>
      </trkpt>
      <trkpt lat="44.13215" lon="6.64111">
        <ele>1898</ele>
        <time>2022-07-09T13:29:04.000Z</time>
      </trkpt>
      <trkpt lat="44.1323" lon="6.64124">
        <ele>1898.1999511719</ele>
        <time>2022-07-09T13:29:10.000Z</time>
      </trkpt>
      <trkpt lat="44.13243" lon="6.64132">
        <ele>1898</ele>
        <time>2022-07-09T13:29:15.000Z</time>
      </trkpt>
      <trkpt lat="44.1325" lon="6.64139">
        <ele>1898.4000244141</ele>
        <time>2022-07-09T13:29:19.000Z</time>
      </trkpt>
      <trkpt lat="44.13252" lon="6.64141">
        <ele>1898.4000244141</ele>
        <time>2022-07-09T13:29:20.000Z</time>
      </trkpt>
      <trkpt lat="44.13264" lon="6.64151">
        <ele>1899</ele>
        <time>2022-07-09T13:29:26.000Z</time>
      </trkpt>
      <trkpt lat="44.13271" lon="6.64155">
        <ele>1899.4000244141</ele>
        <time>2022-07-09T13:29:30.000Z</time>
      </trkpt>
      <trkpt lat="44.13272" lon="6.64157">
        <ele>1899.5999755859</ele>
        <time>2022-07-09T13:29:31.000Z</time>
      </trkpt>
      <trkpt lat="44.13282" lon="6.64172">
        <ele>1900.1999511719</ele>
        <time>2022-07-09T13:29:37.000Z</time>
      </trkpt>
      <trkpt lat="44.13283" lon="6.64177">
        <ele>1900.1999511719</ele>
        <time>2022-07-09T13:29:39.000Z</time>
      </trkpt>
      <trkpt lat="44.13284" lon="6.64182">
        <ele>1900.4000244141</ele>
        <time>2022-07-09T13:29:41.000Z</time>
      </trkpt>
      <trkpt lat="44.13284" lon="6.64185">
        <ele>1900.5999755859</ele>
        <time>2022-07-09T13:29:42.000Z</time>
      </trkpt>
      <trkpt lat="44.13291" lon="6.64197">
        <ele>1901</ele>
        <time>2022-07-09T13:29:47.000Z</time>
      </trkpt>
      <trkpt lat="44.13294" lon="6.64206">
        <ele>1901.4000244141</ele>
        <time>2022-07-09T13:29:51.000Z</time>
      </trkpt>
      <trkpt lat="44.13296" lon="6.6421">
        <ele>1901.8000488281</ele>
        <time>2022-07-09T13:29:53.000Z</time>
      </trkpt>
      <trkpt lat="44.133" lon="6.64221">
        <ele>1902</ele>
        <time>2022-07-09T13:29:57.000Z</time>
      </trkpt>
      <trkpt lat="44.133" lon="6.64223">
        <ele>1902.1999511719</ele>
        <time>2022-07-09T13:29:58.000Z</time>
      </trkpt>
      <trkpt lat="44.13302" lon="6.64225">
        <ele>1902.1999511719</ele>
        <time>2022-07-09T13:29:59.000Z</time>
      </trkpt>
      <trkpt lat="44.13306" lon="6.64235">
        <ele>1902.1999511719</ele>
        <time>2022-07-09T13:30:03.000Z</time>
      </trkpt>
      <trkpt lat="44.13308" lon="6.64236">
        <ele>1902.1999511719</ele>
        <time>2022-07-09T13:30:04.000Z</time>
      </trkpt>
      <trkpt lat="44.13311" lon="6.64244">
        <ele>1902.5999755859</ele>
        <time>2022-07-09T13:30:07.000Z</time>
      </trkpt>
      <trkpt lat="44.13313" lon="6.64246">
        <ele>1902.8000488281</ele>
        <time>2022-07-09T13:30:08.000Z</time>
      </trkpt>
      <trkpt lat="44.13315" lon="6.64252">
        <ele>1903</ele>
        <time>2022-07-09T13:30:10.000Z</time>
      </trkpt>
      <trkpt lat="44.13322" lon="6.64266">
        <ele>1903.1999511719</ele>
        <time>2022-07-09T13:30:16.000Z</time>
      </trkpt>
      <trkpt lat="44.13326" lon="6.64273">
        <ele>1903.8000488281</ele>
        <time>2022-07-09T13:30:20.000Z</time>
      </trkpt>
      <trkpt lat="44.13329" lon="6.64275">
        <ele>1904</ele>
        <time>2022-07-09T13:30:22.000Z</time>
      </trkpt>
      <trkpt lat="44.13336" lon="6.64279">
        <ele>1904.8000488281</ele>
        <time>2022-07-09T13:30:26.000Z</time>
      </trkpt>
      <trkpt lat="44.13341" lon="6.64287">
        <ele>1905.1999511719</ele>
        <time>2022-07-09T13:30:28.000Z</time>
      </trkpt>
      <trkpt lat="44.13344" lon="6.64296">
        <ele>1905.1999511719</ele>
        <time>2022-07-09T13:30:32.000Z</time>
      </trkpt>
      <trkpt lat="44.13346" lon="6.64306">
        <ele>1905.5999755859</ele>
        <time>2022-07-09T13:30:36.000Z</time>
      </trkpt>
      <trkpt lat="44.13349" lon="6.64309">
        <ele>1906</ele>
        <time>2022-07-09T13:30:38.000Z</time>
      </trkpt>
      <trkpt lat="44.13354" lon="6.64309">
        <ele>1906.1999511719</ele>
        <time>2022-07-09T13:30:41.000Z</time>
      </trkpt>
      <trkpt lat="44.13367" lon="6.64316">
        <ele>1906.5999755859</ele>
        <time>2022-07-09T13:30:47.000Z</time>
      </trkpt>
      <trkpt lat="44.13371" lon="6.64324">
        <ele>1906.5999755859</ele>
        <time>2022-07-09T13:30:51.000Z</time>
      </trkpt>
      <trkpt lat="44.13371" lon="6.64328">
        <ele>1906.8000488281</ele>
        <time>2022-07-09T13:30:52.000Z</time>
      </trkpt>
      <trkpt lat="44.13373" lon="6.64332">
        <ele>1907</ele>
        <time>2022-07-09T13:30:54.000Z</time>
      </trkpt>
      <trkpt lat="44.13376" lon="6.64336">
        <ele>1907.1999511719</ele>
        <time>2022-07-09T13:30:56.000Z</time>
      </trkpt>
      <trkpt lat="44.13383" lon="6.64344">
        <ele>1908</ele>
        <time>2022-07-09T13:31:01.000Z</time>
      </trkpt>
      <trkpt lat="44.13385" lon="6.64347">
        <ele>1908.5999755859</ele>
        <time>2022-07-09T13:31:03.000Z</time>
      </trkpt>
      <trkpt lat="44.13388" lon="6.64349">
        <ele>1908.5999755859</ele>
        <time>2022-07-09T13:31:05.000Z</time>
      </trkpt>
      <trkpt lat="44.13389" lon="6.6435">
        <ele>1908.4000244141</ele>
        <time>2022-07-09T13:31:08.000Z</time>
      </trkpt>
      <trkpt lat="44.13392" lon="6.64347">
        <ele>1908.1999511719</ele>
        <time>2022-07-09T13:31:14.000Z</time>
      </trkpt>
      <trkpt lat="44.13392" lon="6.64346">
        <ele>1908.4000244141</ele>
        <time>2022-07-09T13:31:15.000Z</time>
      </trkpt>
      <trkpt lat="44.13393" lon="6.64343">
        <ele>1909</ele>
        <time>2022-07-09T13:31:22.000Z</time>
      </trkpt>
      <trkpt lat="44.13393" lon="6.64342">
        <ele>1908.8000488281</ele>
        <time>2022-07-09T13:31:30.000Z</time>
      </trkpt>
      <trkpt lat="44.13398" lon="6.64333">
        <ele>1908.8000488281</ele>
        <time>2022-07-09T13:31:34.000Z</time>
      </trkpt>
      <trkpt lat="44.134" lon="6.64334">
        <ele>1908.8000488281</ele>
        <time>2022-07-09T13:31:35.000Z</time>
      </trkpt>
      <trkpt lat="44.13401" lon="6.64337">
        <ele>1908.5999755859</ele>
        <time>2022-07-09T13:31:37.000Z</time>
      </trkpt>
      <trkpt lat="44.13405" lon="6.6435">
        <ele>1909</ele>
        <time>2022-07-09T13:31:42.000Z</time>
      </trkpt>
      <trkpt lat="44.13406" lon="6.64351">
        <ele>1909</ele>
        <time>2022-07-09T13:31:43.000Z</time>
      </trkpt>
      <trkpt lat="44.13407" lon="6.64353">
        <ele>1909.1999511719</ele>
        <time>2022-07-09T13:31:44.000Z</time>
      </trkpt>
      <trkpt lat="44.1341" lon="6.64357">
        <ele>1909.5999755859</ele>
        <time>2022-07-09T13:31:46.000Z</time>
      </trkpt>
      <trkpt lat="44.13411" lon="6.64359">
        <ele>1909.8000488281</ele>
        <time>2022-07-09T13:31:48.000Z</time>
      </trkpt>
      <trkpt lat="44.13412" lon="6.64359">
        <ele>1909.8000488281</ele>
        <time>2022-07-09T13:31:51.000Z</time>
      </trkpt>
      <trkpt lat="44.13414" lon="6.64356">
        <ele>1909.1999511719</ele>
        <time>2022-07-09T13:31:58.000Z</time>
      </trkpt>
      <trkpt lat="44.13414" lon="6.64354">
        <ele>1909.5999755859</ele>
        <time>2022-07-09T13:32:05.000Z</time>
      </trkpt>
      <trkpt lat="44.13413" lon="6.64351">
        <ele>1909.5999755859</ele>
        <time>2022-07-09T13:32:09.000Z</time>
      </trkpt>
      <trkpt lat="44.13413" lon="6.64352">
        <ele>1909.5999755859</ele>
        <time>2022-07-09T13:32:15.000Z</time>
      </trkpt>
      <trkpt lat="44.13413" lon="6.64352">
        <ele>1909.5999755859</ele>
        <time>2022-07-09T13:32:23.000Z</time>
      </trkpt>
      <trkpt lat="44.13413" lon="6.64348">
        <ele>1909.8000488281</ele>
        <time>2022-07-09T13:32:25.000Z</time>
      </trkpt>
      <trkpt lat="44.13413" lon="6.64342">
        <ele>1909.5999755859</ele>
        <time>2022-07-09T13:32:28.000Z</time>
      </trkpt>
      <trkpt lat="44.13416" lon="6.64325">
        <ele>1909.8000488281</ele>
        <time>2022-07-09T13:32:35.000Z</time>
      </trkpt>
      <trkpt lat="44.13423" lon="6.64313">
        <ele>1909.5999755859</ele>
        <time>2022-07-09T13:32:41.000Z</time>
      </trkpt>
      <trkpt lat="44.13435" lon="6.64299">
        <ele>1909.5999755859</ele>
        <time>2022-07-09T13:32:49.000Z</time>
      </trkpt>
      <trkpt lat="44.13444" lon="6.64301">
        <ele>1910</ele>
        <time>2022-07-09T13:32:54.000Z</time>
      </trkpt>
      <trkpt lat="44.13449" lon="6.64306">
        <ele>1910.4000244141</ele>
        <time>2022-07-09T13:32:57.000Z</time>
      </trkpt>
      <trkpt lat="44.13456" lon="6.64309">
        <ele>1910.8000488281</ele>
        <time>2022-07-09T13:33:00.000Z</time>
      </trkpt>
      <trkpt lat="44.13459" lon="6.6431">
        <ele>1911.4000244141</ele>
        <time>2022-07-09T13:33:02.000Z</time>
      </trkpt>
      <trkpt lat="44.13466" lon="6.64309">
        <ele>1911.8000488281</ele>
        <time>2022-07-09T13:33:06.000Z</time>
      </trkpt>
      <trkpt lat="44.13466" lon="6.64305">
        <ele>1911.5999755859</ele>
        <time>2022-07-09T13:33:07.000Z</time>
      </trkpt>
      <trkpt lat="44.13464" lon="6.64293">
        <ele>1911.5999755859</ele>
        <time>2022-07-09T13:33:11.000Z</time>
      </trkpt>
      <trkpt lat="44.13463" lon="6.64289">
        <ele>1911.5999755859</ele>
        <time>2022-07-09T13:33:12.000Z</time>
      </trkpt>
      <trkpt lat="44.13467" lon="6.64271">
        <ele>1911.5999755859</ele>
        <time>2022-07-09T13:33:18.000Z</time>
      </trkpt>
      <trkpt lat="44.13475" lon="6.64257">
        <ele>1911.5999755859</ele>
        <time>2022-07-09T13:33:24.000Z</time>
      </trkpt>
      <trkpt lat="44.13477" lon="6.64255">
        <ele>1911.8000488281</ele>
        <time>2022-07-09T13:33:25.000Z</time>
      </trkpt>
      <trkpt lat="44.13487" lon="6.64248">
        <ele>1912.1999511719</ele>
        <time>2022-07-09T13:33:31.000Z</time>
      </trkpt>
      <trkpt lat="44.13497" lon="6.64243">
        <ele>1912.4000244141</ele>
        <time>2022-07-09T13:33:36.000Z</time>
      </trkpt>
      <trkpt lat="44.13499" lon="6.64243">
        <ele>1912.5999755859</ele>
        <time>2022-07-09T13:33:37.000Z</time>
      </trkpt>
      <trkpt lat="44.13501" lon="6.64242">
        <ele>1912.5999755859</ele>
        <time>2022-07-09T13:33:38.000Z</time>
      </trkpt>
      <trkpt lat="44.13505" lon="6.64241">
        <ele>1912.5999755859</ele>
        <time>2022-07-09T13:33:40.000Z</time>
      </trkpt>
      <trkpt lat="44.13514" lon="6.64241">
        <ele>1912.8000488281</ele>
        <time>2022-07-09T13:33:45.000Z</time>
      </trkpt>
      <trkpt lat="44.13518" lon="6.64242">
        <ele>1912.8000488281</ele>
        <time>2022-07-09T13:33:47.000Z</time>
      </trkpt>
      <trkpt lat="44.13528" lon="6.64243">
        <ele>1913.1999511719</ele>
        <time>2022-07-09T13:33:51.000Z</time>
      </trkpt>
      <trkpt lat="44.13538" lon="6.64245">
        <ele>1913.5999755859</ele>
        <time>2022-07-09T13:33:56.000Z</time>
      </trkpt>
      <trkpt lat="44.13554" lon="6.6425">
        <ele>1914.1999511719</ele>
        <time>2022-07-09T13:34:03.000Z</time>
      </trkpt>
      <trkpt lat="44.13562" lon="6.64252">
        <ele>1914.5999755859</ele>
        <time>2022-07-09T13:34:07.000Z</time>
      </trkpt>
      <trkpt lat="44.13573" lon="6.64259">
        <ele>1914.5999755859</ele>
        <time>2022-07-09T13:34:12.000Z</time>
      </trkpt>
      <trkpt lat="44.13579" lon="6.64276">
        <ele>1915.1999511719</ele>
        <time>2022-07-09T13:34:18.000Z</time>
      </trkpt>
      <trkpt lat="44.13585" lon="6.64286">
        <ele>1915.5999755859</ele>
        <time>2022-07-09T13:34:23.000Z</time>
      </trkpt>
      <trkpt lat="44.13586" lon="6.64286">
        <ele>1915.8000488281</ele>
        <time>2022-07-09T13:34:24.000Z</time>
      </trkpt>
      <trkpt lat="44.13589" lon="6.64285">
        <ele>1915.5999755859</ele>
        <time>2022-07-09T13:34:29.000Z</time>
      </trkpt>
      <trkpt lat="44.13594" lon="6.64281">
        <ele>1916</ele>
        <time>2022-07-09T13:34:36.000Z</time>
      </trkpt>
      <trkpt lat="44.13596" lon="6.6428">
        <ele>1916</ele>
        <time>2022-07-09T13:34:43.000Z</time>
      </trkpt>
      <trkpt lat="44.13597" lon="6.64278">
        <ele>1916</ele>
        <time>2022-07-09T13:34:49.000Z</time>
      </trkpt>
      <trkpt lat="44.13605" lon="6.64266">
        <ele>1915.8000488281</ele>
        <time>2022-07-09T13:34:54.000Z</time>
      </trkpt>
      <trkpt lat="44.13613" lon="6.64255">
        <ele>1916</ele>
        <time>2022-07-09T13:34:59.000Z</time>
      </trkpt>
      <trkpt lat="44.13615" lon="6.64232">
        <ele>1916.1999511719</ele>
        <time>2022-07-09T13:35:06.000Z</time>
      </trkpt>
      <trkpt lat="44.13623" lon="6.64214">
        <ele>1916.4000244141</ele>
        <time>2022-07-09T13:35:12.000Z</time>
      </trkpt>
      <trkpt lat="44.13635" lon="6.64201">
        <ele>1916.8000488281</ele>
        <time>2022-07-09T13:35:18.000Z</time>
      </trkpt>
      <trkpt lat="44.13642" lon="6.64196">
        <ele>1916.8000488281</ele>
        <time>2022-07-09T13:35:21.000Z</time>
      </trkpt>
      <trkpt lat="44.13657" lon="6.64188">
        <ele>1917.4000244141</ele>
        <time>2022-07-09T13:35:28.000Z</time>
      </trkpt>
      <trkpt lat="44.13667" lon="6.64182">
        <ele>1917.8000488281</ele>
        <time>2022-07-09T13:35:33.000Z</time>
      </trkpt>
      <trkpt lat="44.13676" lon="6.64175">
        <ele>1918.4000244141</ele>
        <time>2022-07-09T13:35:38.000Z</time>
      </trkpt>
      <trkpt lat="44.13683" lon="6.64171">
        <ele>1918.8000488281</ele>
        <time>2022-07-09T13:35:42.000Z</time>
      </trkpt>
      <trkpt lat="44.13691" lon="6.64168">
        <ele>1919.1999511719</ele>
        <time>2022-07-09T13:35:46.000Z</time>
      </trkpt>
      <trkpt lat="44.137" lon="6.64165">
        <ele>1919.8000488281</ele>
        <time>2022-07-09T13:35:52.000Z</time>
      </trkpt>
      <trkpt lat="44.13702" lon="6.64164">
        <ele>1920</ele>
        <time>2022-07-09T13:35:53.000Z</time>
      </trkpt>
      <trkpt lat="44.13717" lon="6.6416">
        <ele>1920.4000244141</ele>
        <time>2022-07-09T13:36:01.000Z</time>
      </trkpt>
      <trkpt lat="44.13727" lon="6.64148">
        <ele>1920.8000488281</ele>
        <time>2022-07-09T13:36:07.000Z</time>
      </trkpt>
      <trkpt lat="44.13736" lon="6.64143">
        <ele>1921</ele>
        <time>2022-07-09T13:36:11.000Z</time>
      </trkpt>
      <trkpt lat="44.1374" lon="6.64143">
        <ele>1921.4000244141</ele>
        <time>2022-07-09T13:36:13.000Z</time>
      </trkpt>
      <trkpt lat="44.1375" lon="6.64137">
        <ele>1921.1999511719</ele>
        <time>2022-07-09T13:36:18.000Z</time>
      </trkpt>
      <trkpt lat="44.13753" lon="6.64135">
        <ele>1922</ele>
        <time>2022-07-09T13:36:22.000Z</time>
      </trkpt>
      <trkpt lat="44.13755" lon="6.64132">
        <ele>1921.8000488281</ele>
        <time>2022-07-09T13:36:30.000Z</time>
      </trkpt>
      <trkpt lat="44.13756" lon="6.64132">
        <ele>1922</ele>
        <time>2022-07-09T13:36:31.000Z</time>
      </trkpt>
      <trkpt lat="44.13759" lon="6.64128">
        <ele>1922.1999511719</ele>
        <time>2022-07-09T13:36:37.000Z</time>
      </trkpt>
      <trkpt lat="44.13758" lon="6.64127">
        <ele>1922</ele>
        <time>2022-07-09T13:36:43.000Z</time>
      </trkpt>
      <trkpt lat="44.13758" lon="6.64124">
        <ele>1922.4000244141</ele>
        <time>2022-07-09T13:36:50.000Z</time>
      </trkpt>
      <trkpt lat="44.13759" lon="6.64122">
        <ele>1922.4000244141</ele>
        <time>2022-07-09T13:36:56.000Z</time>
      </trkpt>
      <trkpt lat="44.13759" lon="6.64123">
        <ele>1923</ele>
        <time>2022-07-09T13:37:02.000Z</time>
      </trkpt>
      <trkpt lat="44.13758" lon="6.64126">
        <ele>1922.8000488281</ele>
        <time>2022-07-09T13:37:28.000Z</time>
      </trkpt>
      <trkpt lat="44.13756" lon="6.64125">
        <ele>1922.1999511719</ele>
        <time>2022-07-09T13:37:35.000Z</time>
      </trkpt>
      <trkpt lat="44.13751" lon="6.64124">
        <ele>1921.4000244141</ele>
        <time>2022-07-09T13:37:43.000Z</time>
      </trkpt>
      <trkpt lat="44.13747" lon="6.6412">
        <ele>1921.8000488281</ele>
        <time>2022-07-09T13:37:50.000Z</time>
      </trkpt>
      <trkpt lat="44.13746" lon="6.64115">
        <ele>1922</ele>
        <time>2022-07-09T13:37:55.000Z</time>
      </trkpt>
      <trkpt lat="44.13746" lon="6.64113">
        <ele>1922</ele>
        <time>2022-07-09T13:37:56.000Z</time>
      </trkpt>
      <trkpt lat="44.13743" lon="6.641">
        <ele>1921.8000488281</ele>
        <time>2022-07-09T13:38:02.000Z</time>
      </trkpt>
      <trkpt lat="44.13738" lon="6.64087">
        <ele>1922.1999511719</ele>
        <time>2022-07-09T13:38:08.000Z</time>
      </trkpt>
      <trkpt lat="44.13736" lon="6.64085">
        <ele>1922.4000244141</ele>
        <time>2022-07-09T13:38:09.000Z</time>
      </trkpt>
      <trkpt lat="44.1373" lon="6.64077">
        <ele>1923</ele>
        <time>2022-07-09T13:38:13.000Z</time>
      </trkpt>
      <trkpt lat="44.13722" lon="6.6406">
        <ele>1923</ele>
        <time>2022-07-09T13:38:18.000Z</time>
      </trkpt>
      <trkpt lat="44.1372" lon="6.64054">
        <ele>1923.1999511719</ele>
        <time>2022-07-09T13:38:20.000Z</time>
      </trkpt>
      <trkpt lat="44.13716" lon="6.64044">
        <ele>1923.1999511719</ele>
        <time>2022-07-09T13:38:23.000Z</time>
      </trkpt>
      <trkpt lat="44.13708" lon="6.64025">
        <ele>1923.1999511719</ele>
        <time>2022-07-09T13:38:29.000Z</time>
      </trkpt>
      <trkpt lat="44.13698" lon="6.63995">
        <ele>1923.5999755859</ele>
        <time>2022-07-09T13:38:38.000Z</time>
      </trkpt>
      <trkpt lat="44.13691" lon="6.63971">
        <ele>1923.8000488281</ele>
        <time>2022-07-09T13:38:45.000Z</time>
      </trkpt>
      <trkpt lat="44.13693" lon="6.63949">
        <ele>1924</ele>
        <time>2022-07-09T13:38:51.000Z</time>
      </trkpt>
      <trkpt lat="44.13694" lon="6.63946">
        <ele>1924.1999511719</ele>
        <time>2022-07-09T13:38:52.000Z</time>
      </trkpt>
      <trkpt lat="44.13703" lon="6.63937">
        <ele>1924.1999511719</ele>
        <time>2022-07-09T13:38:56.000Z</time>
      </trkpt>
      <trkpt lat="44.13716" lon="6.63923">
        <ele>1923.8000488281</ele>
        <time>2022-07-09T13:39:02.000Z</time>
      </trkpt>
      <trkpt lat="44.1373" lon="6.63907">
        <ele>1923.8000488281</ele>
        <time>2022-07-09T13:39:08.000Z</time>
      </trkpt>
      <trkpt lat="44.13742" lon="6.63895">
        <ele>1923.5999755859</ele>
        <time>2022-07-09T13:39:13.000Z</time>
      </trkpt>
      <trkpt lat="44.13753" lon="6.63888">
        <ele>1924.1999511719</ele>
        <time>2022-07-09T13:39:19.000Z</time>
      </trkpt>
      <trkpt lat="44.13762" lon="6.63876">
        <ele>1924.5999755859</ele>
        <time>2022-07-09T13:39:24.000Z</time>
      </trkpt>
      <trkpt lat="44.13769" lon="6.63861">
        <ele>1924.8000488281</ele>
        <time>2022-07-09T13:39:29.000Z</time>
      </trkpt>
      <trkpt lat="44.13777" lon="6.63851">
        <ele>1924.8000488281</ele>
        <time>2022-07-09T13:39:34.000Z</time>
      </trkpt>
      <trkpt lat="44.13779" lon="6.6385">
        <ele>1924.8000488281</ele>
        <time>2022-07-09T13:39:35.000Z</time>
      </trkpt>
      <trkpt lat="44.13788" lon="6.63845">
        <ele>1924.8000488281</ele>
        <time>2022-07-09T13:39:39.000Z</time>
      </trkpt>
      <trkpt lat="44.1379" lon="6.63842">
        <ele>1925</ele>
        <time>2022-07-09T13:39:40.000Z</time>
      </trkpt>
      <trkpt lat="44.13792" lon="6.63833">
        <ele>1925</ele>
        <time>2022-07-09T13:39:43.000Z</time>
      </trkpt>
      <trkpt lat="44.13792" lon="6.63829">
        <ele>1925.1999511719</ele>
        <time>2022-07-09T13:39:44.000Z</time>
      </trkpt>
      <trkpt lat="44.13792" lon="6.63826">
        <ele>1925.1999511719</ele>
        <time>2022-07-09T13:39:45.000Z</time>
      </trkpt>
      <trkpt lat="44.13794" lon="6.63823">
        <ele>1925.4000244141</ele>
        <time>2022-07-09T13:39:46.000Z</time>
      </trkpt>
      <trkpt lat="44.13807" lon="6.63815">
        <ele>1925.4000244141</ele>
        <time>2022-07-09T13:39:51.000Z</time>
      </trkpt>
      <trkpt lat="44.13812" lon="6.63808">
        <ele>1925</ele>
        <time>2022-07-09T13:39:55.000Z</time>
      </trkpt>
      <trkpt lat="44.13812" lon="6.63801">
        <ele>1925</ele>
        <time>2022-07-09T13:39:59.000Z</time>
      </trkpt>
      <trkpt lat="44.13812" lon="6.63799">
        <ele>1925.1999511719</ele>
        <time>2022-07-09T13:40:01.000Z</time>
      </trkpt>
      <trkpt lat="44.1381" lon="6.63791">
        <ele>1925.4000244141</ele>
        <time>2022-07-09T13:40:06.000Z</time>
      </trkpt>
      <trkpt lat="44.13812" lon="6.63787">
        <ele>1925.8000488281</ele>
        <time>2022-07-09T13:40:08.000Z</time>
      </trkpt>
      <trkpt lat="44.13815" lon="6.63783">
        <ele>1926.1999511719</ele>
        <time>2022-07-09T13:40:10.000Z</time>
      </trkpt>
      <trkpt lat="44.13817" lon="6.63783">
        <ele>1926.1999511719</ele>
        <time>2022-07-09T13:40:11.000Z</time>
      </trkpt>
      <trkpt lat="44.13821" lon="6.63779">
        <ele>1926.4000244141</ele>
        <time>2022-07-09T13:40:13.000Z</time>
      </trkpt>
      <trkpt lat="44.1383" lon="6.63763">
        <ele>1926.8000488281</ele>
        <time>2022-07-09T13:40:19.000Z</time>
      </trkpt>
      <trkpt lat="44.13836" lon="6.63751">
        <ele>1927.1999511719</ele>
        <time>2022-07-09T13:40:25.000Z</time>
      </trkpt>
      <trkpt lat="44.13836" lon="6.63752">
        <ele>1927.1999511719</ele>
        <time>2022-07-09T13:40:26.000Z</time>
      </trkpt>
      <trkpt lat="44.13836" lon="6.63751">
        <ele>1927.1999511719</ele>
        <time>2022-07-09T13:40:29.000Z</time>
      </trkpt>
      <trkpt lat="44.13834" lon="6.63746">
        <ele>1926.8000488281</ele>
        <time>2022-07-09T13:40:37.000Z</time>
      </trkpt>
      <trkpt lat="44.13829" lon="6.63744">
        <ele>1927</ele>
        <time>2022-07-09T13:40:43.000Z</time>
      </trkpt>
      <trkpt lat="44.13821" lon="6.63741">
        <ele>1927.8000488281</ele>
        <time>2022-07-09T13:40:52.000Z</time>
      </trkpt>
      <trkpt lat="44.1382" lon="6.63739">
        <ele>1928</ele>
        <time>2022-07-09T13:40:59.000Z</time>
      </trkpt>
      <trkpt lat="44.13818" lon="6.63738">
        <ele>1928</ele>
        <time>2022-07-09T13:41:02.000Z</time>
      </trkpt>
      <trkpt lat="44.13815" lon="6.63736">
        <ele>1928</ele>
        <time>2022-07-09T13:41:04.000Z</time>
      </trkpt>
      <trkpt lat="44.1381" lon="6.63733">
        <ele>1928.1999511719</ele>
        <time>2022-07-09T13:41:07.000Z</time>
      </trkpt>
      <trkpt lat="44.13811" lon="6.63733">
        <ele>1928.4000244141</ele>
        <time>2022-07-09T13:41:09.000Z</time>
      </trkpt>
      <trkpt lat="44.13807" lon="6.63729">
        <ele>1928.4000244141</ele>
        <time>2022-07-09T13:41:15.000Z</time>
      </trkpt>
      <trkpt lat="44.13804" lon="6.63728">
        <ele>1929</ele>
        <time>2022-07-09T13:41:21.000Z</time>
      </trkpt>
      <trkpt lat="44.13795" lon="6.63724">
        <ele>1929.1999511719</ele>
        <time>2022-07-09T13:41:26.000Z</time>
      </trkpt>
      <trkpt lat="44.1379" lon="6.63723">
        <ele>1929.1999511719</ele>
        <time>2022-07-09T13:41:28.000Z</time>
      </trkpt>
      <trkpt lat="44.13783" lon="6.63722">
        <ele>1929.4000244141</ele>
        <time>2022-07-09T13:41:32.000Z</time>
      </trkpt>
      <trkpt lat="44.13776" lon="6.63722">
        <ele>1929.1999511719</ele>
        <time>2022-07-09T13:41:38.000Z</time>
      </trkpt>
      <trkpt lat="44.13773" lon="6.63718">
        <ele>1929.4000244141</ele>
        <time>2022-07-09T13:41:44.000Z</time>
      </trkpt>
      <trkpt lat="44.13771" lon="6.63718">
        <ele>1930</ele>
        <time>2022-07-09T13:41:50.000Z</time>
      </trkpt>
      <trkpt lat="44.13763" lon="6.63709">
        <ele>1929.8000488281</ele>
        <time>2022-07-09T13:41:57.000Z</time>
      </trkpt>
      <trkpt lat="44.13763" lon="6.63706">
        <ele>1930</ele>
        <time>2022-07-09T13:41:58.000Z</time>
      </trkpt>
      <trkpt lat="44.13759" lon="6.63698">
        <ele>1930</ele>
        <time>2022-07-09T13:42:02.000Z</time>
      </trkpt>
      <trkpt lat="44.13753" lon="6.63691">
        <ele>1930.1999511719</ele>
        <time>2022-07-09T13:42:05.000Z</time>
      </trkpt>
      <trkpt lat="44.13749" lon="6.63683">
        <ele>1930.4000244141</ele>
        <time>2022-07-09T13:42:08.000Z</time>
      </trkpt>
      <trkpt lat="44.13743" lon="6.63673">
        <ele>1930.4000244141</ele>
        <time>2022-07-09T13:42:13.000Z</time>
      </trkpt>
      <trkpt lat="44.13733" lon="6.63658">
        <ele>1931</ele>
        <time>2022-07-09T13:42:20.000Z</time>
      </trkpt>
      <trkpt lat="44.13726" lon="6.63642">
        <ele>1930.8000488281</ele>
        <time>2022-07-09T13:42:26.000Z</time>
      </trkpt>
      <trkpt lat="44.13716" lon="6.63616">
        <ele>1931</ele>
        <time>2022-07-09T13:42:35.000Z</time>
      </trkpt>
      <trkpt lat="44.13711" lon="6.63605">
        <ele>1931.4000244141</ele>
        <time>2022-07-09T13:42:39.000Z</time>
      </trkpt>
      <trkpt lat="44.13705" lon="6.63591">
        <ele>1931.1999511719</ele>
        <time>2022-07-09T13:42:44.000Z</time>
      </trkpt>
      <trkpt lat="44.137" lon="6.63579">
        <ele>1931.5999755859</ele>
        <time>2022-07-09T13:42:49.000Z</time>
      </trkpt>
      <trkpt lat="44.13695" lon="6.63561">
        <ele>1932.1999511719</ele>
        <time>2022-07-09T13:42:57.000Z</time>
      </trkpt>
      <trkpt lat="44.13694" lon="6.63558">
        <ele>1932.4000244141</ele>
        <time>2022-07-09T13:42:59.000Z</time>
      </trkpt>
      <trkpt lat="44.13686" lon="6.6354">
        <ele>1932.8000488281</ele>
        <time>2022-07-09T13:43:06.000Z</time>
      </trkpt>
      <trkpt lat="44.13683" lon="6.63529">
        <ele>1933.1999511719</ele>
        <time>2022-07-09T13:43:11.000Z</time>
      </trkpt>
      <trkpt lat="44.13682" lon="6.63528">
        <ele>1933.1999511719</ele>
        <time>2022-07-09T13:43:12.000Z</time>
      </trkpt>
      <trkpt lat="44.13681" lon="6.63527">
        <ele>1933.5999755859</ele>
        <time>2022-07-09T13:43:13.000Z</time>
      </trkpt>
      <trkpt lat="44.13678" lon="6.63522">
        <ele>1933.8000488281</ele>
        <time>2022-07-09T13:43:16.000Z</time>
      </trkpt>
      <trkpt lat="44.13677" lon="6.6352">
        <ele>1934</ele>
        <time>2022-07-09T13:43:17.000Z</time>
      </trkpt>
      <trkpt lat="44.13672" lon="6.63502">
        <ele>1934</ele>
        <time>2022-07-09T13:43:25.000Z</time>
      </trkpt>
      <trkpt lat="44.13669" lon="6.63488">
        <ele>1934.5999755859</ele>
        <time>2022-07-09T13:43:31.000Z</time>
      </trkpt>
      <trkpt lat="44.13668" lon="6.63474">
        <ele>1934.5999755859</ele>
        <time>2022-07-09T13:43:37.000Z</time>
      </trkpt>
      <trkpt lat="44.13668" lon="6.63461">
        <ele>1934.8000488281</ele>
        <time>2022-07-09T13:43:42.000Z</time>
      </trkpt>
      <trkpt lat="44.1367" lon="6.63447">
        <ele>1934.5999755859</ele>
        <time>2022-07-09T13:43:48.000Z</time>
      </trkpt>
      <trkpt lat="44.13676" lon="6.63438">
        <ele>1934.8000488281</ele>
        <time>2022-07-09T13:43:52.000Z</time>
      </trkpt>
      <trkpt lat="44.13687" lon="6.63433">
        <ele>1934.8000488281</ele>
        <time>2022-07-09T13:43:59.000Z</time>
      </trkpt>
      <trkpt lat="44.13698" lon="6.63426">
        <ele>1935.4000244141</ele>
        <time>2022-07-09T13:44:06.000Z</time>
      </trkpt>
      <trkpt lat="44.1371" lon="6.6342">
        <ele>1935.5999755859</ele>
        <time>2022-07-09T13:44:12.000Z</time>
      </trkpt>
      <trkpt lat="44.13713" lon="6.63418">
        <ele>1935.5999755859</ele>
        <time>2022-07-09T13:44:14.000Z</time>
      </trkpt>
      <trkpt lat="44.13723" lon="6.63413">
        <ele>1936.1999511719</ele>
        <time>2022-07-09T13:44:20.000Z</time>
      </trkpt>
      <trkpt lat="44.13732" lon="6.63407">
        <ele>1936.5999755859</ele>
        <time>2022-07-09T13:44:25.000Z</time>
      </trkpt>
      <trkpt lat="44.13734" lon="6.63406">
        <ele>1936.5999755859</ele>
        <time>2022-07-09T13:44:27.000Z</time>
      </trkpt>
      <trkpt lat="44.13739" lon="6.63403">
        <ele>1936.8000488281</ele>
        <time>2022-07-09T13:44:30.000Z</time>
      </trkpt>
      <trkpt lat="44.13747" lon="6.63396">
        <ele>1937.1999511719</ele>
        <time>2022-07-09T13:44:36.000Z</time>
      </trkpt>
      <trkpt lat="44.13759" lon="6.63387">
        <ele>1937.5999755859</ele>
        <time>2022-07-09T13:44:43.000Z</time>
      </trkpt>
      <trkpt lat="44.13761" lon="6.63385">
        <ele>1937.8000488281</ele>
        <time>2022-07-09T13:44:44.000Z</time>
      </trkpt>
      <trkpt lat="44.1377" lon="6.63378">
        <ele>1937.8000488281</ele>
        <time>2022-07-09T13:44:49.000Z</time>
      </trkpt>
      <trkpt lat="44.13779" lon="6.63371">
        <ele>1938.1999511719</ele>
        <time>2022-07-09T13:44:55.000Z</time>
      </trkpt>
      <trkpt lat="44.1379" lon="6.63362">
        <ele>1938.8000488281</ele>
        <time>2022-07-09T13:45:01.000Z</time>
      </trkpt>
      <trkpt lat="44.13791" lon="6.63361">
        <ele>1938.8000488281</ele>
        <time>2022-07-09T13:45:02.000Z</time>
      </trkpt>
      <trkpt lat="44.13803" lon="6.63353">
        <ele>1939.8000488281</ele>
        <time>2022-07-09T13:45:10.000Z</time>
      </trkpt>
      <trkpt lat="44.13806" lon="6.63351">
        <ele>1940</ele>
        <time>2022-07-09T13:45:12.000Z</time>
      </trkpt>
      <trkpt lat="44.13815" lon="6.63346">
        <ele>1940.5999755859</ele>
        <time>2022-07-09T13:45:19.000Z</time>
      </trkpt>
      <trkpt lat="44.13819" lon="6.63341">
        <ele>1940.8000488281</ele>
        <time>2022-07-09T13:45:22.000Z</time>
      </trkpt>
      <trkpt lat="44.13822" lon="6.63339">
        <ele>1940.8000488281</ele>
        <time>2022-07-09T13:45:24.000Z</time>
      </trkpt>
      <trkpt lat="44.13833" lon="6.63328">
        <ele>1940.8000488281</ele>
        <time>2022-07-09T13:45:31.000Z</time>
      </trkpt>
      <trkpt lat="44.13845" lon="6.63314">
        <ele>1941.1999511719</ele>
        <time>2022-07-09T13:45:40.000Z</time>
      </trkpt>
      <trkpt lat="44.13861" lon="6.63303">
        <ele>1942</ele>
        <time>2022-07-09T13:45:50.000Z</time>
      </trkpt>
      <trkpt lat="44.13869" lon="6.63301">
        <ele>1942.5999755859</ele>
        <time>2022-07-09T13:45:54.000Z</time>
      </trkpt>
      <trkpt lat="44.13871" lon="6.63299">
        <ele>1942.4000244141</ele>
        <time>2022-07-09T13:45:55.000Z</time>
      </trkpt>
      <trkpt lat="44.13877" lon="6.63293">
        <ele>1942.4000244141</ele>
        <time>2022-07-09T13:46:00.000Z</time>
      </trkpt>
      <trkpt lat="44.13883" lon="6.63289">
        <ele>1943</ele>
        <time>2022-07-09T13:46:04.000Z</time>
      </trkpt>
      <trkpt lat="44.13884" lon="6.63289">
        <ele>1943</ele>
        <time>2022-07-09T13:46:05.000Z</time>
      </trkpt>
      <trkpt lat="44.13886" lon="6.6329">
        <ele>1943.1999511719</ele>
        <time>2022-07-09T13:46:06.000Z</time>
      </trkpt>
      <trkpt lat="44.1389" lon="6.6329">
        <ele>1943.4000244141</ele>
        <time>2022-07-09T13:46:09.000Z</time>
      </trkpt>
      <trkpt lat="44.13891" lon="6.63289">
        <ele>1943.1999511719</ele>
        <time>2022-07-09T13:46:11.000Z</time>
      </trkpt>
      <trkpt lat="44.13892" lon="6.63288">
        <ele>1943.5999755859</ele>
        <time>2022-07-09T13:46:19.000Z</time>
      </trkpt>
      <trkpt lat="44.13894" lon="6.63286">
        <ele>1944</ele>
        <time>2022-07-09T13:46:31.000Z</time>
      </trkpt>
      <trkpt lat="44.13896" lon="6.63283">
        <ele>1944.1999511719</ele>
        <time>2022-07-09T13:46:37.000Z</time>
      </trkpt>
      <trkpt lat="44.13897" lon="6.6328">
        <ele>1944.1999511719</ele>
        <time>2022-07-09T13:46:40.000Z</time>
      </trkpt>
      <trkpt lat="44.139" lon="6.6327">
        <ele>1943.5999755859</ele>
        <time>2022-07-09T13:46:48.000Z</time>
      </trkpt>
      <trkpt lat="44.13907" lon="6.6326">
        <ele>1944.1999511719</ele>
        <time>2022-07-09T13:46:58.000Z</time>
      </trkpt>
      <trkpt lat="44.13912" lon="6.63256">
        <ele>1944.5999755859</ele>
        <time>2022-07-09T13:47:05.000Z</time>
      </trkpt>
      <trkpt lat="44.13913" lon="6.63256">
        <ele>1944.8000488281</ele>
        <time>2022-07-09T13:47:11.000Z</time>
      </trkpt>
      <trkpt lat="44.13919" lon="6.63253">
        <ele>1944.8000488281</ele>
        <time>2022-07-09T13:47:16.000Z</time>
      </trkpt>
      <trkpt lat="44.13929" lon="6.63239">
        <ele>1945</ele>
        <time>2022-07-09T13:47:24.000Z</time>
      </trkpt>
      <trkpt lat="44.13933" lon="6.63237">
        <ele>1945.1999511719</ele>
        <time>2022-07-09T13:47:26.000Z</time>
      </trkpt>
      <trkpt lat="44.13941" lon="6.63234">
        <ele>1945.5999755859</ele>
        <time>2022-07-09T13:47:31.000Z</time>
      </trkpt>
      <trkpt lat="44.13952" lon="6.63227">
        <ele>1946</ele>
        <time>2022-07-09T13:47:38.000Z</time>
      </trkpt>
      <trkpt lat="44.13961" lon="6.63216">
        <ele>1946</ele>
        <time>2022-07-09T13:47:44.000Z</time>
      </trkpt>
      <trkpt lat="44.13964" lon="6.63213">
        <ele>1946.4000244141</ele>
        <time>2022-07-09T13:47:46.000Z</time>
      </trkpt>
      <trkpt lat="44.13972" lon="6.63209">
        <ele>1946.1999511719</ele>
        <time>2022-07-09T13:47:50.000Z</time>
      </trkpt>
      <trkpt lat="44.13979" lon="6.63205">
        <ele>1946.4000244141</ele>
        <time>2022-07-09T13:47:54.000Z</time>
      </trkpt>
      <trkpt lat="44.13985" lon="6.63202">
        <ele>1946.8000488281</ele>
        <time>2022-07-09T13:47:59.000Z</time>
      </trkpt>
      <trkpt lat="44.13986" lon="6.63201">
        <ele>1946.4000244141</ele>
        <time>2022-07-09T13:48:07.000Z</time>
      </trkpt>
      <trkpt lat="44.13986" lon="6.63192">
        <ele>1946.4000244141</ele>
        <time>2022-07-09T13:48:15.000Z</time>
      </trkpt>
      <trkpt lat="44.13982" lon="6.63188">
        <ele>1947</ele>
        <time>2022-07-09T13:48:21.000Z</time>
      </trkpt>
      <trkpt lat="44.13979" lon="6.63184">
        <ele>1947.4000244141</ele>
        <time>2022-07-09T13:48:25.000Z</time>
      </trkpt>
      <trkpt lat="44.13975" lon="6.6318">
        <ele>1947.5999755859</ele>
        <time>2022-07-09T13:48:30.000Z</time>
      </trkpt>
      <trkpt lat="44.13969" lon="6.63173">
        <ele>1947.8000488281</ele>
        <time>2022-07-09T13:48:38.000Z</time>
      </trkpt>
      <trkpt lat="44.13969" lon="6.63163">
        <ele>1948.4000244141</ele>
        <time>2022-07-09T13:48:46.000Z</time>
      </trkpt>
      <trkpt lat="44.13974" lon="6.63158">
        <ele>1948.5999755859</ele>
        <time>2022-07-09T13:48:52.000Z</time>
      </trkpt>
      <trkpt lat="44.13975" lon="6.63149">
        <ele>1948.5999755859</ele>
        <time>2022-07-09T13:49:00.000Z</time>
      </trkpt>
      <trkpt lat="44.13972" lon="6.63147">
        <ele>1948.4000244141</ele>
        <time>2022-07-09T13:49:05.000Z</time>
      </trkpt>
      <trkpt lat="44.13971" lon="6.63145">
        <ele>1948.1999511719</ele>
        <time>2022-07-09T13:49:07.000Z</time>
      </trkpt>
      <trkpt lat="44.13967" lon="6.63142">
        <ele>1948.4000244141</ele>
        <time>2022-07-09T13:49:15.000Z</time>
      </trkpt>
      <trkpt lat="44.13962" lon="6.63138">
        <ele>1948.1999511719</ele>
        <time>2022-07-09T13:49:25.000Z</time>
      </trkpt>
      <trkpt lat="44.13952" lon="6.63123">
        <ele>1948.4000244141</ele>
        <time>2022-07-09T13:49:33.000Z</time>
      </trkpt>
      <trkpt lat="44.13944" lon="6.63109">
        <ele>1948.5999755859</ele>
        <time>2022-07-09T13:49:40.000Z</time>
      </trkpt>
      <trkpt lat="44.13937" lon="6.63095">
        <ele>1948.5999755859</ele>
        <time>2022-07-09T13:49:46.000Z</time>
      </trkpt>
      <trkpt lat="44.1393" lon="6.63077">
        <ele>1948.5999755859</ele>
        <time>2022-07-09T13:49:53.000Z</time>
      </trkpt>
      <trkpt lat="44.13924" lon="6.63062">
        <ele>1949</ele>
        <time>2022-07-09T13:49:59.000Z</time>
      </trkpt>
      <trkpt lat="44.13919" lon="6.63046">
        <ele>1949.1999511719</ele>
        <time>2022-07-09T13:50:05.000Z</time>
      </trkpt>
      <trkpt lat="44.13915" lon="6.63029">
        <ele>1949</ele>
        <time>2022-07-09T13:50:11.000Z</time>
      </trkpt>
      <trkpt lat="44.13913" lon="6.63017">
        <ele>1948.8000488281</ele>
        <time>2022-07-09T13:50:16.000Z</time>
      </trkpt>
      <trkpt lat="44.13912" lon="6.63013">
        <ele>1949</ele>
        <time>2022-07-09T13:50:18.000Z</time>
      </trkpt>
      <trkpt lat="44.13911" lon="6.6301">
        <ele>1949</ele>
        <time>2022-07-09T13:50:21.000Z</time>
      </trkpt>
      <trkpt lat="44.13911" lon="6.6301">
        <ele>1947.5999755859</ele>
        <time>2022-07-09T13:50:27.000Z</time>
      </trkpt>
      <trkpt lat="44.13911" lon="6.63008">
        <ele>1948</ele>
        <time>2022-07-09T13:50:33.000Z</time>
      </trkpt>
      <trkpt lat="44.1391" lon="6.63004">
        <ele>1948.1999511719</ele>
        <time>2022-07-09T13:50:41.000Z</time>
      </trkpt>
      <trkpt lat="44.1391" lon="6.63004">
        <ele>1948.4000244141</ele>
        <time>2022-07-09T13:50:51.000Z</time>
      </trkpt>
      <trkpt lat="44.13911" lon="6.63004">
        <ele>1948.4000244141</ele>
        <time>2022-07-09T13:51:02.000Z</time>
      </trkpt>
      <trkpt lat="44.13911" lon="6.63005">
        <ele>1947.8000488281</ele>
        <time>2022-07-09T13:51:06.000Z</time>
      </trkpt>
      <trkpt lat="44.13911" lon="6.63005">
        <ele>1948</ele>
        <time>2022-07-09T13:51:23.000Z</time>
      </trkpt>
      <trkpt lat="44.13911" lon="6.63006">
        <ele>1947.8000488281</ele>
        <time>2022-07-09T13:51:28.000Z</time>
      </trkpt>
      <trkpt lat="44.13911" lon="6.63006">
        <ele>1948.1999511719</ele>
        <time>2022-07-09T13:51:34.000Z</time>
      </trkpt>
      <trkpt lat="44.13911" lon="6.63006">
        <ele>1948.5999755859</ele>
        <time>2022-07-09T13:51:44.000Z</time>
      </trkpt>
      <trkpt lat="44.13911" lon="6.63006">
        <ele>1948.4000244141</ele>
        <time>2022-07-09T13:51:59.000Z</time>
      </trkpt>
      <trkpt lat="44.13911" lon="6.63007">
        <ele>1948</ele>
        <time>2022-07-09T13:52:12.000Z</time>
      </trkpt>
      <trkpt lat="44.13911" lon="6.63007">
        <ele>1948.1999511719</ele>
        <time>2022-07-09T13:52:31.000Z</time>
      </trkpt>
      <trkpt lat="44.13911" lon="6.63008">
        <ele>1948</ele>
        <time>2022-07-09T13:52:44.000Z</time>
      </trkpt>
      <trkpt lat="44.13911" lon="6.63008">
        <ele>1947.5999755859</ele>
        <time>2022-07-09T13:52:54.000Z</time>
      </trkpt>
      <trkpt lat="44.1391" lon="6.63008">
        <ele>1947.5999755859</ele>
        <time>2022-07-09T13:53:05.000Z</time>
      </trkpt>
      <trkpt lat="44.1391" lon="6.63008">
        <ele>1948.1999511719</ele>
        <time>2022-07-09T13:53:11.000Z</time>
      </trkpt>
      <trkpt lat="44.13911" lon="6.63007">
        <ele>1948</ele>
        <time>2022-07-09T13:53:18.000Z</time>
      </trkpt>
      <trkpt lat="44.1391" lon="6.63007">
        <ele>1948</ele>
        <time>2022-07-09T13:53:32.000Z</time>
      </trkpt>
      <trkpt lat="44.1391" lon="6.63005">
        <ele>1947.5999755859</ele>
        <time>2022-07-09T13:53:43.000Z</time>
      </trkpt>
      <trkpt lat="44.13911" lon="6.63004">
        <ele>1947.8000488281</ele>
        <time>2022-07-09T13:53:49.000Z</time>
      </trkpt>
      <trkpt lat="44.1391" lon="6.63004">
        <ele>1948.1999511719</ele>
        <time>2022-07-09T13:53:57.000Z</time>
      </trkpt>
      <trkpt lat="44.1391" lon="6.63003">
        <ele>1948.4000244141</ele>
        <time>2022-07-09T13:54:06.000Z</time>
      </trkpt>
      <trkpt lat="44.13909" lon="6.62996">
        <ele>1948</ele>
        <time>2022-07-09T13:54:13.000Z</time>
      </trkpt>
      <trkpt lat="44.13904" lon="6.62981">
        <ele>1948</ele>
        <time>2022-07-09T13:54:20.000Z</time>
      </trkpt>
      <trkpt lat="44.13901" lon="6.62972">
        <ele>1947.8000488281</ele>
        <time>2022-07-09T13:54:26.000Z</time>
      </trkpt>
      <trkpt lat="44.13901" lon="6.6297">
        <ele>1948.1999511719</ele>
        <time>2022-07-09T13:54:30.000Z</time>
      </trkpt>
      <trkpt lat="44.13899" lon="6.62964">
        <ele>1948.4000244141</ele>
        <time>2022-07-09T13:54:34.000Z</time>
      </trkpt>
      <trkpt lat="44.13896" lon="6.62951">
        <ele>1948.4000244141</ele>
        <time>2022-07-09T13:54:39.000Z</time>
      </trkpt>
      <trkpt lat="44.13891" lon="6.62937">
        <ele>1948.5999755859</ele>
        <time>2022-07-09T13:54:45.000Z</time>
      </trkpt>
      <trkpt lat="44.13887" lon="6.62927">
        <ele>1948.4000244141</ele>
        <time>2022-07-09T13:54:49.000Z</time>
      </trkpt>
      <trkpt lat="44.13878" lon="6.62913">
        <ele>1948.5999755859</ele>
        <time>2022-07-09T13:54:56.000Z</time>
      </trkpt>
      <trkpt lat="44.13873" lon="6.62902">
        <ele>1948.8000488281</ele>
        <time>2022-07-09T13:55:01.000Z</time>
      </trkpt>
      <trkpt lat="44.13872" lon="6.62897">
        <ele>1948.8000488281</ele>
        <time>2022-07-09T13:55:05.000Z</time>
      </trkpt>
      <trkpt lat="44.13869" lon="6.62883">
        <ele>1948.8000488281</ele>
        <time>2022-07-09T13:55:11.000Z</time>
      </trkpt>
      <trkpt lat="44.13868" lon="6.62865">
        <ele>1949</ele>
        <time>2022-07-09T13:55:18.000Z</time>
      </trkpt>
      <trkpt lat="44.13868" lon="6.62845">
        <ele>1948.8000488281</ele>
        <time>2022-07-09T13:55:25.000Z</time>
      </trkpt>
      <trkpt lat="44.13868" lon="6.62841">
        <ele>1949.1999511719</ele>
        <time>2022-07-09T13:55:29.000Z</time>
      </trkpt>
      <trkpt lat="44.13868" lon="6.6284">
        <ele>1949</ele>
        <time>2022-07-09T13:55:35.000Z</time>
      </trkpt>
      <trkpt lat="44.13867" lon="6.62834">
        <ele>1949.4000244141</ele>
        <time>2022-07-09T13:55:44.000Z</time>
      </trkpt>
      <trkpt lat="44.13866" lon="6.62831">
        <ele>1949.5999755859</ele>
        <time>2022-07-09T13:55:46.000Z</time>
      </trkpt>
      <trkpt lat="44.13864" lon="6.62821">
        <ele>1949.5999755859</ele>
        <time>2022-07-09T13:55:50.000Z</time>
      </trkpt>
      <trkpt lat="44.13858" lon="6.62809">
        <ele>1949.1999511719</ele>
        <time>2022-07-09T13:55:58.000Z</time>
      </trkpt>
      <trkpt lat="44.13853" lon="6.62795">
        <ele>1949.8000488281</ele>
        <time>2022-07-09T13:56:04.000Z</time>
      </trkpt>
      <trkpt lat="44.13854" lon="6.62791">
        <ele>1950</ele>
        <time>2022-07-09T13:56:06.000Z</time>
      </trkpt>
      <trkpt lat="44.13854" lon="6.62781">
        <ele>1950</ele>
        <time>2022-07-09T13:56:10.000Z</time>
      </trkpt>
      <trkpt lat="44.13854" lon="6.6278">
        <ele>1950.1999511719</ele>
        <time>2022-07-09T13:56:14.000Z</time>
      </trkpt>
      <trkpt lat="44.1385" lon="6.62775">
        <ele>1950</ele>
        <time>2022-07-09T13:56:20.000Z</time>
      </trkpt>
      <trkpt lat="44.13843" lon="6.62767">
        <ele>1950</ele>
        <time>2022-07-09T13:56:29.000Z</time>
      </trkpt>
      <trkpt lat="44.13833" lon="6.62765">
        <ele>1950.5999755859</ele>
        <time>2022-07-09T13:56:38.000Z</time>
      </trkpt>
      <trkpt lat="44.1383" lon="6.62763">
        <ele>1950.5999755859</ele>
        <time>2022-07-09T13:56:42.000Z</time>
      </trkpt>
      <trkpt lat="44.13828" lon="6.62761">
        <ele>1950.8000488281</ele>
        <time>2022-07-09T13:56:44.000Z</time>
      </trkpt>
      <trkpt lat="44.13822" lon="6.62754">
        <ele>1951</ele>
        <time>2022-07-09T13:56:53.000Z</time>
      </trkpt>
      <trkpt lat="44.13822" lon="6.62754">
        <ele>1951</ele>
        <time>2022-07-09T13:56:59.000Z</time>
      </trkpt>
      <trkpt lat="44.13816" lon="6.62752">
        <ele>1950.4000244141</ele>
        <time>2022-07-09T13:57:04.000Z</time>
      </trkpt>
      <trkpt lat="44.13807" lon="6.62741">
        <ele>1950</ele>
        <time>2022-07-09T13:57:10.000Z</time>
      </trkpt>
      <trkpt lat="44.13803" lon="6.62726">
        <ele>1949.8000488281</ele>
        <time>2022-07-09T13:57:15.000Z</time>
      </trkpt>
      <trkpt lat="44.13804" lon="6.62724">
        <ele>1949.8000488281</ele>
        <time>2022-07-09T13:57:16.000Z</time>
      </trkpt>
      <trkpt lat="44.13809" lon="6.6271">
        <ele>1949.5999755859</ele>
        <time>2022-07-09T13:57:21.000Z</time>
      </trkpt>
      <trkpt lat="44.1381" lon="6.62707">
        <ele>1949.5999755859</ele>
        <time>2022-07-09T13:57:22.000Z</time>
      </trkpt>
      <trkpt lat="44.13809" lon="6.62696">
        <ele>1950</ele>
        <time>2022-07-09T13:57:27.000Z</time>
      </trkpt>
      <trkpt lat="44.13807" lon="6.62683">
        <ele>1950</ele>
        <time>2022-07-09T13:57:33.000Z</time>
      </trkpt>
      <trkpt lat="44.13805" lon="6.62674">
        <ele>1950.1999511719</ele>
        <time>2022-07-09T13:57:41.000Z</time>
      </trkpt>
      <trkpt lat="44.13802" lon="6.62657">
        <ele>1950.1999511719</ele>
        <time>2022-07-09T13:57:48.000Z</time>
      </trkpt>
      <trkpt lat="44.13803" lon="6.62649">
        <ele>1950</ele>
        <time>2022-07-09T13:57:51.000Z</time>
      </trkpt>
      <trkpt lat="44.13805" lon="6.62645">
        <ele>1950</ele>
        <time>2022-07-09T13:57:53.000Z</time>
      </trkpt>
      <trkpt lat="44.1381" lon="6.62641">
        <ele>1950.5999755859</ele>
        <time>2022-07-09T13:57:57.000Z</time>
      </trkpt>
      <trkpt lat="44.1381" lon="6.6264">
        <ele>1950.8000488281</ele>
        <time>2022-07-09T13:57:58.000Z</time>
      </trkpt>
      <trkpt lat="44.13809" lon="6.62641">
        <ele>1951.1999511719</ele>
        <time>2022-07-09T13:58:07.000Z</time>
      </trkpt>
      <trkpt lat="44.1381" lon="6.62638">
        <ele>1951.4000244141</ele>
        <time>2022-07-09T13:58:21.000Z</time>
      </trkpt>
      <trkpt lat="44.13814" lon="6.6263">
        <ele>1951.8000488281</ele>
        <time>2022-07-09T13:58:28.000Z</time>
      </trkpt>
      <trkpt lat="44.13817" lon="6.62624">
        <ele>1952.1999511719</ele>
        <time>2022-07-09T13:58:32.000Z</time>
      </trkpt>
      <trkpt lat="44.13819" lon="6.62619">
        <ele>1952.1999511719</ele>
        <time>2022-07-09T13:58:34.000Z</time>
      </trkpt>
      <trkpt lat="44.13819" lon="6.62614">
        <ele>1952.4000244141</ele>
        <time>2022-07-09T13:58:37.000Z</time>
      </trkpt>
      <trkpt lat="44.13816" lon="6.62607">
        <ele>1952.4000244141</ele>
        <time>2022-07-09T13:58:43.000Z</time>
      </trkpt>
      <trkpt lat="44.13817" lon="6.62605">
        <ele>1952.4000244141</ele>
        <time>2022-07-09T13:58:44.000Z</time>
      </trkpt>
      <trkpt lat="44.13816" lon="6.626">
        <ele>1952.1999511719</ele>
        <time>2022-07-09T13:58:47.000Z</time>
      </trkpt>
      <trkpt lat="44.13814" lon="6.62598">
        <ele>1952</ele>
        <time>2022-07-09T13:58:48.000Z</time>
      </trkpt>
      <trkpt lat="44.13811" lon="6.62588">
        <ele>1952</ele>
        <time>2022-07-09T13:58:51.000Z</time>
      </trkpt>
      <trkpt lat="44.1381" lon="6.62568">
        <ele>1951.5999755859</ele>
        <time>2022-07-09T13:58:57.000Z</time>
      </trkpt>
      <trkpt lat="44.13812" lon="6.62561">
        <ele>1951.5999755859</ele>
        <time>2022-07-09T13:59:00.000Z</time>
      </trkpt>
      <trkpt lat="44.13814" lon="6.6256">
        <ele>1951.5999755859</ele>
        <time>2022-07-09T13:59:01.000Z</time>
      </trkpt>
      <trkpt lat="44.13818" lon="6.62555">
        <ele>1951.8000488281</ele>
        <time>2022-07-09T13:59:04.000Z</time>
      </trkpt>
      <trkpt lat="44.13818" lon="6.62553">
        <ele>1951.8000488281</ele>
        <time>2022-07-09T13:59:06.000Z</time>
      </trkpt>
      <trkpt lat="44.13819" lon="6.62549">
        <ele>1952.1999511719</ele>
        <time>2022-07-09T13:59:13.000Z</time>
      </trkpt>
      <trkpt lat="44.1382" lon="6.62543">
        <ele>1952.1999511719</ele>
        <time>2022-07-09T13:59:19.000Z</time>
      </trkpt>
      <trkpt lat="44.13822" lon="6.62535">
        <ele>1952.4000244141</ele>
        <time>2022-07-09T13:59:26.000Z</time>
      </trkpt>
      <trkpt lat="44.13821" lon="6.62532">
        <ele>1952</ele>
        <time>2022-07-09T13:59:29.000Z</time>
      </trkpt>
      <trkpt lat="44.13816" lon="6.62526">
        <ele>1952</ele>
        <time>2022-07-09T13:59:34.000Z</time>
      </trkpt>
      <trkpt lat="44.13816" lon="6.62524">
        <ele>1952</ele>
        <time>2022-07-09T13:59:36.000Z</time>
      </trkpt>
      <trkpt lat="44.13813" lon="6.62519">
        <ele>1952.1999511719</ele>
        <time>2022-07-09T13:59:40.000Z</time>
      </trkpt>
      <trkpt lat="44.13812" lon="6.62518">
        <ele>1952</ele>
        <time>2022-07-09T13:59:47.000Z</time>
      </trkpt>
      <trkpt lat="44.13809" lon="6.62514">
        <ele>1952.1999511719</ele>
        <time>2022-07-09T13:59:55.000Z</time>
      </trkpt>
      <trkpt lat="44.13799" lon="6.62501">
        <ele>1952</ele>
        <time>2022-07-09T14:00:01.000Z</time>
      </trkpt>
      <trkpt lat="44.13789" lon="6.62489">
        <ele>1952</ele>
        <time>2022-07-09T14:00:06.000Z</time>
      </trkpt>
      <trkpt lat="44.13781" lon="6.62469">
        <ele>1952</ele>
        <time>2022-07-09T14:00:13.000Z</time>
      </trkpt>
      <trkpt lat="44.1378" lon="6.62453">
        <ele>1952.4000244141</ele>
        <time>2022-07-09T14:00:18.000Z</time>
      </trkpt>
      <trkpt lat="44.13779" lon="6.6245">
        <ele>1952.4000244141</ele>
        <time>2022-07-09T14:00:19.000Z</time>
      </trkpt>
      <trkpt lat="44.13775" lon="6.62448">
        <ele>1952.4000244141</ele>
        <time>2022-07-09T14:00:21.000Z</time>
      </trkpt>
      <trkpt lat="44.1377" lon="6.62448">
        <ele>1952.5999755859</ele>
        <time>2022-07-09T14:00:23.000Z</time>
      </trkpt>
      <trkpt lat="44.13757" lon="6.62443">
        <ele>1952.1999511719</ele>
        <time>2022-07-09T14:00:28.000Z</time>
      </trkpt>
      <trkpt lat="44.13746" lon="6.62431">
        <ele>1952.1999511719</ele>
        <time>2022-07-09T14:00:34.000Z</time>
      </trkpt>
      <trkpt lat="44.13742" lon="6.62426">
        <ele>1952.5999755859</ele>
        <time>2022-07-09T14:00:39.000Z</time>
      </trkpt>
      <trkpt lat="44.13741" lon="6.62423">
        <ele>1952.5999755859</ele>
        <time>2022-07-09T14:00:47.000Z</time>
      </trkpt>
      <trkpt lat="44.13738" lon="6.62416">
        <ele>1953</ele>
        <time>2022-07-09T14:00:52.000Z</time>
      </trkpt>
      <trkpt lat="44.13737" lon="6.62414">
        <ele>1953.1999511719</ele>
        <time>2022-07-09T14:00:56.000Z</time>
      </trkpt>
      <trkpt lat="44.13735" lon="6.62413">
        <ele>1953.1999511719</ele>
        <time>2022-07-09T14:00:58.000Z</time>
      </trkpt>
      <trkpt lat="44.1373" lon="6.6241">
        <ele>1953</ele>
        <time>2022-07-09T14:01:05.000Z</time>
      </trkpt>
      <trkpt lat="44.13723" lon="6.62402">
        <ele>1953</ele>
        <time>2022-07-09T14:01:15.000Z</time>
      </trkpt>
      <trkpt lat="44.13717" lon="6.62399">
        <ele>1953</ele>
        <time>2022-07-09T14:01:22.000Z</time>
      </trkpt>
      <trkpt lat="44.13712" lon="6.62397">
        <ele>1953.1999511719</ele>
        <time>2022-07-09T14:01:30.000Z</time>
      </trkpt>
      <trkpt lat="44.13704" lon="6.62395">
        <ele>1953.4000244141</ele>
        <time>2022-07-09T14:01:38.000Z</time>
      </trkpt>
      <trkpt lat="44.13703" lon="6.62395">
        <ele>1953.4000244141</ele>
        <time>2022-07-09T14:01:45.000Z</time>
      </trkpt>
      <trkpt lat="44.13696" lon="6.62396">
        <ele>1953.5999755859</ele>
        <time>2022-07-09T14:01:50.000Z</time>
      </trkpt>
      <trkpt lat="44.13687" lon="6.62395">
        <ele>1953.5999755859</ele>
        <time>2022-07-09T14:01:54.000Z</time>
      </trkpt>
      <trkpt lat="44.13671" lon="6.62396">
        <ele>1953</ele>
        <time>2022-07-09T14:02:01.000Z</time>
      </trkpt>
      <trkpt lat="44.13653" lon="6.62395">
        <ele>1953</ele>
        <time>2022-07-09T14:02:09.000Z</time>
      </trkpt>
      <trkpt lat="44.13637" lon="6.62388">
        <ele>1953</ele>
        <time>2022-07-09T14:02:16.000Z</time>
      </trkpt>
      <trkpt lat="44.13619" lon="6.62378">
        <ele>1953</ele>
        <time>2022-07-09T14:02:23.000Z</time>
      </trkpt>
      <trkpt lat="44.13612" lon="6.62372">
        <ele>1953</ele>
        <time>2022-07-09T14:02:27.000Z</time>
      </trkpt>
      <trkpt lat="44.13612" lon="6.62374">
        <ele>1953</ele>
        <time>2022-07-09T14:02:28.000Z</time>
      </trkpt>
      <trkpt lat="44.13614" lon="6.62371">
        <ele>1954</ele>
        <time>2022-07-09T14:02:36.000Z</time>
      </trkpt>
      <trkpt lat="44.13619" lon="6.62372">
        <ele>1954.4000244141</ele>
        <time>2022-07-09T14:02:43.000Z</time>
      </trkpt>
      <trkpt lat="44.13622" lon="6.62372">
        <ele>1955</ele>
        <time>2022-07-09T14:02:48.000Z</time>
      </trkpt>
      <trkpt lat="44.13624" lon="6.62373">
        <ele>1955.5999755859</ele>
        <time>2022-07-09T14:02:52.000Z</time>
      </trkpt>
      <trkpt lat="44.13627" lon="6.62373">
        <ele>1956</ele>
        <time>2022-07-09T14:02:55.000Z</time>
      </trkpt>
      <trkpt lat="44.13629" lon="6.62374">
        <ele>1956.8000488281</ele>
        <time>2022-07-09T14:02:59.000Z</time>
      </trkpt>
      <trkpt lat="44.13631" lon="6.62374">
        <ele>1957.1999511719</ele>
        <time>2022-07-09T14:03:01.000Z</time>
      </trkpt>
      <trkpt lat="44.13636" lon="6.62375">
        <ele>1958</ele>
        <time>2022-07-09T14:03:07.000Z</time>
      </trkpt>
      <trkpt lat="44.13637" lon="6.62376">
        <ele>1958.4000244141</ele>
        <time>2022-07-09T14:03:09.000Z</time>
      </trkpt>
      <trkpt lat="44.13643" lon="6.62377">
        <ele>1959</ele>
        <time>2022-07-09T14:03:15.000Z</time>
      </trkpt>
      <trkpt lat="44.13644" lon="6.62377">
        <ele>1959.5999755859</ele>
        <time>2022-07-09T14:03:17.000Z</time>
      </trkpt>
      <trkpt lat="44.1365" lon="6.62378">
        <ele>1960.5999755859</ele>
        <time>2022-07-09T14:03:24.000Z</time>
      </trkpt>
      <trkpt lat="44.13651" lon="6.62378">
        <ele>1960.5999755859</ele>
        <time>2022-07-09T14:03:25.000Z</time>
      </trkpt>
      <trkpt lat="44.13655" lon="6.62378">
        <ele>1961.4000244141</ele>
        <time>2022-07-09T14:03:31.000Z</time>
      </trkpt>
      <trkpt lat="44.13657" lon="6.62378">
        <ele>1961.8000488281</ele>
        <time>2022-07-09T14:03:33.000Z</time>
      </trkpt>
      <trkpt lat="44.13661" lon="6.62378">
        <ele>1962.1999511719</ele>
        <time>2022-07-09T14:03:38.000Z</time>
      </trkpt>
      <trkpt lat="44.13665" lon="6.62377">
        <ele>1962.8000488281</ele>
        <time>2022-07-09T14:03:43.000Z</time>
      </trkpt>
      <trkpt lat="44.13669" lon="6.62375">
        <ele>1963.5999755859</ele>
        <time>2022-07-09T14:03:49.000Z</time>
      </trkpt>
      <trkpt lat="44.1367" lon="6.62375">
        <ele>1963.8000488281</ele>
        <time>2022-07-09T14:03:51.000Z</time>
      </trkpt>
      <trkpt lat="44.13674" lon="6.62373">
        <ele>1964.8000488281</ele>
        <time>2022-07-09T14:03:58.000Z</time>
      </trkpt>
      <trkpt lat="44.13674" lon="6.62373">
        <ele>1965</ele>
        <time>2022-07-09T14:03:59.000Z</time>
      </trkpt>
      <trkpt lat="44.13675" lon="6.62373">
        <ele>1965.4000244141</ele>
        <time>2022-07-09T14:04:07.000Z</time>
      </trkpt>
      <trkpt lat="44.13676" lon="6.62373">
        <ele>1965.4000244141</ele>
        <time>2022-07-09T14:04:19.000Z</time>
      </trkpt>
      <trkpt lat="44.13679" lon="6.62373">
        <ele>1965.8000488281</ele>
        <time>2022-07-09T14:04:36.000Z</time>
      </trkpt>
      <trkpt lat="44.1368" lon="6.62372">
        <ele>1966</ele>
        <time>2022-07-09T14:04:42.000Z</time>
      </trkpt>
      <trkpt lat="44.13679" lon="6.62372">
        <ele>1965.8000488281</ele>
        <time>2022-07-09T14:04:46.000Z</time>
      </trkpt>
      <trkpt lat="44.13685" lon="6.62371">
        <ele>1966.1999511719</ele>
        <time>2022-07-09T14:04:54.000Z</time>
      </trkpt>
      <trkpt lat="44.13691" lon="6.6237">
        <ele>1967.1999511719</ele>
        <time>2022-07-09T14:05:02.000Z</time>
      </trkpt>
      <trkpt lat="44.137" lon="6.6237">
        <ele>1967.5999755859</ele>
        <time>2022-07-09T14:05:14.000Z</time>
      </trkpt>
      <trkpt lat="44.13704" lon="6.6237">
        <ele>1968.1999511719</ele>
        <time>2022-07-09T14:05:19.000Z</time>
      </trkpt>
      <trkpt lat="44.13706" lon="6.62369">
        <ele>1968.5999755859</ele>
        <time>2022-07-09T14:05:23.000Z</time>
      </trkpt>
      <trkpt lat="44.13708" lon="6.62368">
        <ele>1969.4000244141</ele>
        <time>2022-07-09T14:05:27.000Z</time>
      </trkpt>
      <trkpt lat="44.1371" lon="6.62367">
        <ele>1969.8000488281</ele>
        <time>2022-07-09T14:05:30.000Z</time>
      </trkpt>
      <trkpt lat="44.13715" lon="6.62366">
        <ele>1970.4000244141</ele>
        <time>2022-07-09T14:05:39.000Z</time>
      </trkpt>
      <trkpt lat="44.13718" lon="6.62366">
        <ele>1970.8000488281</ele>
        <time>2022-07-09T14:05:42.000Z</time>
      </trkpt>
      <trkpt lat="44.13721" lon="6.62368">
        <ele>1971.1999511719</ele>
        <time>2022-07-09T14:05:47.000Z</time>
      </trkpt>
      <trkpt lat="44.13722" lon="6.62368">
        <ele>1971.4000244141</ele>
        <time>2022-07-09T14:05:49.000Z</time>
      </trkpt>
      <trkpt lat="44.13726" lon="6.62369">
        <ele>1972</ele>
        <time>2022-07-09T14:05:55.000Z</time>
      </trkpt>
      <trkpt lat="44.13729" lon="6.62368">
        <ele>1972.5999755859</ele>
        <time>2022-07-09T14:06:01.000Z</time>
      </trkpt>
      <trkpt lat="44.13731" lon="6.62369">
        <ele>1973</ele>
        <time>2022-07-09T14:06:04.000Z</time>
      </trkpt>
      <trkpt lat="44.13736" lon="6.6237">
        <ele>1973.5999755859</ele>
        <time>2022-07-09T14:06:13.000Z</time>
      </trkpt>
      <trkpt lat="44.13737" lon="6.6237">
        <ele>1973.8000488281</ele>
        <time>2022-07-09T14:06:14.000Z</time>
      </trkpt>
      <trkpt lat="44.13741" lon="6.62371">
        <ele>1974.1999511719</ele>
        <time>2022-07-09T14:06:20.000Z</time>
      </trkpt>
      <trkpt lat="44.13746" lon="6.62377">
        <ele>1974.4000244141</ele>
        <time>2022-07-09T14:06:30.000Z</time>
      </trkpt>
      <trkpt lat="44.13749" lon="6.62378">
        <ele>1974.8000488281</ele>
        <time>2022-07-09T14:06:34.000Z</time>
      </trkpt>
      <trkpt lat="44.13751" lon="6.62379">
        <ele>1975.4000244141</ele>
        <time>2022-07-09T14:06:38.000Z</time>
      </trkpt>
      <trkpt lat="44.13756" lon="6.62381">
        <ele>1975.5999755859</ele>
        <time>2022-07-09T14:06:46.000Z</time>
      </trkpt>
      <trkpt lat="44.13758" lon="6.62382">
        <ele>1975.8000488281</ele>
        <time>2022-07-09T14:06:50.000Z</time>
      </trkpt>
      <trkpt lat="44.1376" lon="6.62383">
        <ele>1976</ele>
        <time>2022-07-09T14:06:52.000Z</time>
      </trkpt>
      <trkpt lat="44.1376" lon="6.62385">
        <ele>1976.1999511719</ele>
        <time>2022-07-09T14:06:54.000Z</time>
      </trkpt>
      <trkpt lat="44.13766" lon="6.62391">
        <ele>1976.8000488281</ele>
        <time>2022-07-09T14:07:04.000Z</time>
      </trkpt>
      <trkpt lat="44.13772" lon="6.62395">
        <ele>1977.8000488281</ele>
        <time>2022-07-09T14:07:14.000Z</time>
      </trkpt>
      <trkpt lat="44.13772" lon="6.62396">
        <ele>1978</ele>
        <time>2022-07-09T14:07:15.000Z</time>
      </trkpt>
      <trkpt lat="44.13778" lon="6.624">
        <ele>1979</ele>
        <time>2022-07-09T14:07:24.000Z</time>
      </trkpt>
      <trkpt lat="44.13786" lon="6.62407">
        <ele>1979.1999511719</ele>
        <time>2022-07-09T14:07:37.000Z</time>
      </trkpt>
      <trkpt lat="44.13785" lon="6.62404">
        <ele>1979.5999755859</ele>
        <time>2022-07-09T14:07:46.000Z</time>
      </trkpt>
      <trkpt lat="44.13784" lon="6.62401">
        <ele>1980</ele>
        <time>2022-07-09T14:07:50.000Z</time>
      </trkpt>
      <trkpt lat="44.13782" lon="6.62397">
        <ele>1981</ele>
        <time>2022-07-09T14:07:56.000Z</time>
      </trkpt>
      <trkpt lat="44.13781" lon="6.62396">
        <ele>1981.1999511719</ele>
        <time>2022-07-09T14:07:58.000Z</time>
      </trkpt>
      <trkpt lat="44.13778" lon="6.62391">
        <ele>1982</ele>
        <time>2022-07-09T14:08:04.000Z</time>
      </trkpt>
      <trkpt lat="44.13776" lon="6.62389">
        <ele>1982.4000244141</ele>
        <time>2022-07-09T14:08:08.000Z</time>
      </trkpt>
      <trkpt lat="44.13774" lon="6.62385">
        <ele>1983.1999511719</ele>
        <time>2022-07-09T14:08:12.000Z</time>
      </trkpt>
      <trkpt lat="44.13771" lon="6.6238">
        <ele>1983.8000488281</ele>
        <time>2022-07-09T14:08:18.000Z</time>
      </trkpt>
      <trkpt lat="44.1377" lon="6.62378">
        <ele>1984.1999511719</ele>
        <time>2022-07-09T14:08:20.000Z</time>
      </trkpt>
      <trkpt lat="44.13769" lon="6.62374">
        <ele>1985.1999511719</ele>
        <time>2022-07-09T14:08:26.000Z</time>
      </trkpt>
      <trkpt lat="44.13769" lon="6.62373">
        <ele>1985.4000244141</ele>
        <time>2022-07-09T14:08:27.000Z</time>
      </trkpt>
      <trkpt lat="44.13765" lon="6.62368">
        <ele>1986</ele>
        <time>2022-07-09T14:08:35.000Z</time>
      </trkpt>
      <trkpt lat="44.13764" lon="6.62368">
        <ele>1986.4000244141</ele>
        <time>2022-07-09T14:08:36.000Z</time>
      </trkpt>
      <trkpt lat="44.13761" lon="6.62363">
        <ele>1987</ele>
        <time>2022-07-09T14:08:44.000Z</time>
      </trkpt>
      <trkpt lat="44.13759" lon="6.6236">
        <ele>1987.4000244141</ele>
        <time>2022-07-09T14:08:49.000Z</time>
      </trkpt>
      <trkpt lat="44.13756" lon="6.62357">
        <ele>1987.8000488281</ele>
        <time>2022-07-09T14:08:54.000Z</time>
      </trkpt>
      <trkpt lat="44.13754" lon="6.62354">
        <ele>1988.4000244141</ele>
        <time>2022-07-09T14:08:59.000Z</time>
      </trkpt>
      <trkpt lat="44.13753" lon="6.62353">
        <ele>1989</ele>
        <time>2022-07-09T14:09:03.000Z</time>
      </trkpt>
      <trkpt lat="44.13753" lon="6.62353">
        <ele>1989.4000244141</ele>
        <time>2022-07-09T14:09:21.000Z</time>
      </trkpt>
      <trkpt lat="44.13752" lon="6.62353">
        <ele>1989</ele>
        <time>2022-07-09T14:09:26.000Z</time>
      </trkpt>
      <trkpt lat="44.13751" lon="6.62351">
        <ele>1988.8000488281</ele>
        <time>2022-07-09T14:09:33.000Z</time>
      </trkpt>
      <trkpt lat="44.13747" lon="6.62345">
        <ele>1989.5999755859</ele>
        <time>2022-07-09T14:09:42.000Z</time>
      </trkpt>
      <trkpt lat="44.13741" lon="6.62339">
        <ele>1990.5999755859</ele>
        <time>2022-07-09T14:09:52.000Z</time>
      </trkpt>
      <trkpt lat="44.1374" lon="6.62337">
        <ele>1991.1999511719</ele>
        <time>2022-07-09T14:09:55.000Z</time>
      </trkpt>
      <trkpt lat="44.13737" lon="6.62335">
        <ele>1991.8000488281</ele>
        <time>2022-07-09T14:10:00.000Z</time>
      </trkpt>
      <trkpt lat="44.13733" lon="6.62333">
        <ele>1992.4000244141</ele>
        <time>2022-07-09T14:10:06.000Z</time>
      </trkpt>
      <trkpt lat="44.1373" lon="6.62331">
        <ele>1992.8000488281</ele>
        <time>2022-07-09T14:10:10.000Z</time>
      </trkpt>
      <trkpt lat="44.13727" lon="6.62329">
        <ele>1993.5999755859</ele>
        <time>2022-07-09T14:10:17.000Z</time>
      </trkpt>
      <trkpt lat="44.13725" lon="6.62328">
        <ele>1994</ele>
        <time>2022-07-09T14:10:19.000Z</time>
      </trkpt>
      <trkpt lat="44.13721" lon="6.62325">
        <ele>1994.8000488281</ele>
        <time>2022-07-09T14:10:25.000Z</time>
      </trkpt>
      <trkpt lat="44.13719" lon="6.62325">
        <ele>1995.1999511719</ele>
        <time>2022-07-09T14:10:27.000Z</time>
      </trkpt>
      <trkpt lat="44.13716" lon="6.62322">
        <ele>1995.5999755859</ele>
        <time>2022-07-09T14:10:34.000Z</time>
      </trkpt>
      <trkpt lat="44.13715" lon="6.62321">
        <ele>1996.1999511719</ele>
        <time>2022-07-09T14:10:37.000Z</time>
      </trkpt>
      <trkpt lat="44.13713" lon="6.62319">
        <ele>1997.1999511719</ele>
        <time>2022-07-09T14:10:43.000Z</time>
      </trkpt>
      <trkpt lat="44.13711" lon="6.62318">
        <ele>1997.5999755859</ele>
        <time>2022-07-09T14:10:45.000Z</time>
      </trkpt>
      <trkpt lat="44.13708" lon="6.62317">
        <ele>1998.1999511719</ele>
        <time>2022-07-09T14:10:49.000Z</time>
      </trkpt>
      <trkpt lat="44.13703" lon="6.62312">
        <ele>1999</ele>
        <time>2022-07-09T14:10:57.000Z</time>
      </trkpt>
      <trkpt lat="44.13702" lon="6.62311">
        <ele>1999.1999511719</ele>
        <time>2022-07-09T14:10:59.000Z</time>
      </trkpt>
      <trkpt lat="44.13699" lon="6.62305">
        <ele>2000.1999511719</ele>
        <time>2022-07-09T14:11:08.000Z</time>
      </trkpt>
      <trkpt lat="44.13699" lon="6.62305">
        <ele>2000.4000244141</ele>
        <time>2022-07-09T14:11:09.000Z</time>
      </trkpt>
      <trkpt lat="44.13699" lon="6.62304">
        <ele>2000.5999755859</ele>
        <time>2022-07-09T14:11:13.000Z</time>
      </trkpt>
      <trkpt lat="44.13699" lon="6.62305">
        <ele>2000.8000488281</ele>
        <time>2022-07-09T14:11:34.000Z</time>
      </trkpt>
      <trkpt lat="44.13701" lon="6.62305">
        <ele>2000.4000244141</ele>
        <time>2022-07-09T14:11:43.000Z</time>
      </trkpt>
      <trkpt lat="44.13701" lon="6.62306">
        <ele>2000.4000244141</ele>
        <time>2022-07-09T14:11:44.000Z</time>
      </trkpt>
      <trkpt lat="44.13705" lon="6.62309">
        <ele>2001.4000244141</ele>
        <time>2022-07-09T14:11:50.000Z</time>
      </trkpt>
      <trkpt lat="44.13705" lon="6.62309">
        <ele>2001.5999755859</ele>
        <time>2022-07-09T14:11:51.000Z</time>
      </trkpt>
      <trkpt lat="44.13709" lon="6.6231">
        <ele>2002.5999755859</ele>
        <time>2022-07-09T14:11:58.000Z</time>
      </trkpt>
      <trkpt lat="44.1371" lon="6.6231">
        <ele>2002.5999755859</ele>
        <time>2022-07-09T14:11:59.000Z</time>
      </trkpt>
      <trkpt lat="44.1371" lon="6.6231">
        <ele>2002.8000488281</ele>
        <time>2022-07-09T14:12:06.000Z</time>
      </trkpt>
      <trkpt lat="44.13711" lon="6.6231">
        <ele>2003.1999511719</ele>
        <time>2022-07-09T14:12:14.000Z</time>
      </trkpt>
      <trkpt lat="44.13716" lon="6.62311">
        <ele>2003.4000244141</ele>
        <time>2022-07-09T14:12:21.000Z</time>
      </trkpt>
      <trkpt lat="44.13717" lon="6.62311">
        <ele>2003.8000488281</ele>
        <time>2022-07-09T14:12:23.000Z</time>
      </trkpt>
      <trkpt lat="44.13722" lon="6.62312">
        <ele>2004.4000244141</ele>
        <time>2022-07-09T14:12:30.000Z</time>
      </trkpt>
      <trkpt lat="44.13724" lon="6.62312">
        <ele>2004.8000488281</ele>
        <time>2022-07-09T14:12:32.000Z</time>
      </trkpt>
      <trkpt lat="44.13728" lon="6.62313">
        <ele>2005.8000488281</ele>
        <time>2022-07-09T14:12:39.000Z</time>
      </trkpt>
      <trkpt lat="44.13732" lon="6.62315">
        <ele>2006.4000244141</ele>
        <time>2022-07-09T14:12:45.000Z</time>
      </trkpt>
      <trkpt lat="44.13734" lon="6.62315">
        <ele>2006.4000244141</ele>
        <time>2022-07-09T14:12:47.000Z</time>
      </trkpt>
      <trkpt lat="44.13737" lon="6.62316">
        <ele>2007</ele>
        <time>2022-07-09T14:12:54.000Z</time>
      </trkpt>
      <trkpt lat="44.13739" lon="6.62316">
        <ele>2007.1999511719</ele>
        <time>2022-07-09T14:12:56.000Z</time>
      </trkpt>
      <trkpt lat="44.13745" lon="6.62318">
        <ele>2008</ele>
        <time>2022-07-09T14:13:04.000Z</time>
      </trkpt>
      <trkpt lat="44.13746" lon="6.62318">
        <ele>2008.1999511719</ele>
        <time>2022-07-09T14:13:06.000Z</time>
      </trkpt>
      <trkpt lat="44.13754" lon="6.62321">
        <ele>2009</ele>
        <time>2022-07-09T14:13:15.000Z</time>
      </trkpt>
      <trkpt lat="44.13755" lon="6.62321">
        <ele>2009</ele>
        <time>2022-07-09T14:13:16.000Z</time>
      </trkpt>
      <trkpt lat="44.13762" lon="6.62324">
        <ele>2010</ele>
        <time>2022-07-09T14:13:26.000Z</time>
      </trkpt>
      <trkpt lat="44.13762" lon="6.62324">
        <ele>2010.1999511719</ele>
        <time>2022-07-09T14:13:27.000Z</time>
      </trkpt>
      <trkpt lat="44.13768" lon="6.62327">
        <ele>2011</ele>
        <time>2022-07-09T14:13:35.000Z</time>
      </trkpt>
      <trkpt lat="44.1377" lon="6.62328">
        <ele>2011.1999511719</ele>
        <time>2022-07-09T14:13:38.000Z</time>
      </trkpt>
      <trkpt lat="44.13775" lon="6.6233">
        <ele>2012</ele>
        <time>2022-07-09T14:13:44.000Z</time>
      </trkpt>
      <trkpt lat="44.13777" lon="6.62331">
        <ele>2012.4000244141</ele>
        <time>2022-07-09T14:13:48.000Z</time>
      </trkpt>
      <trkpt lat="44.1378" lon="6.62332">
        <ele>2012.8000488281</ele>
        <time>2022-07-09T14:13:53.000Z</time>
      </trkpt>
      <trkpt lat="44.13784" lon="6.62336">
        <ele>2013.4000244141</ele>
        <time>2022-07-09T14:13:59.000Z</time>
      </trkpt>
      <trkpt lat="44.13786" lon="6.62338">
        <ele>2013.5999755859</ele>
        <time>2022-07-09T14:14:03.000Z</time>
      </trkpt>
      <trkpt lat="44.13791" lon="6.6234">
        <ele>2014</ele>
        <time>2022-07-09T14:14:11.000Z</time>
      </trkpt>
      <trkpt lat="44.13794" lon="6.62341">
        <ele>2014.4000244141</ele>
        <time>2022-07-09T14:14:15.000Z</time>
      </trkpt>
      <trkpt lat="44.13797" lon="6.62343">
        <ele>2014.8000488281</ele>
        <time>2022-07-09T14:14:19.000Z</time>
      </trkpt>
      <trkpt lat="44.13801" lon="6.62345">
        <ele>2015.4000244141</ele>
        <time>2022-07-09T14:14:25.000Z</time>
      </trkpt>
      <trkpt lat="44.13803" lon="6.62346">
        <ele>2015.5999755859</ele>
        <time>2022-07-09T14:14:28.000Z</time>
      </trkpt>
      <trkpt lat="44.1381" lon="6.62348">
        <ele>2016.5999755859</ele>
        <time>2022-07-09T14:14:38.000Z</time>
      </trkpt>
      <trkpt lat="44.13812" lon="6.62349">
        <ele>2017.1999511719</ele>
        <time>2022-07-09T14:14:44.000Z</time>
      </trkpt>
      <trkpt lat="44.13812" lon="6.62348">
        <ele>2017.5999755859</ele>
        <time>2022-07-09T14:14:47.000Z</time>
      </trkpt>
      <trkpt lat="44.13812" lon="6.62349">
        <ele>2017.4000244141</ele>
        <time>2022-07-09T14:14:54.000Z</time>
      </trkpt>
      <trkpt lat="44.13809" lon="6.62344">
        <ele>2017.1999511719</ele>
        <time>2022-07-09T14:15:02.000Z</time>
      </trkpt>
      <trkpt lat="44.13802" lon="6.62337">
        <ele>2018.1999511719</ele>
        <time>2022-07-09T14:15:13.000Z</time>
      </trkpt>
      <trkpt lat="44.138" lon="6.62336">
        <ele>2018.5999755859</ele>
        <time>2022-07-09T14:15:16.000Z</time>
      </trkpt>
      <trkpt lat="44.13798" lon="6.62333">
        <ele>2019.4000244141</ele>
        <time>2022-07-09T14:15:22.000Z</time>
      </trkpt>
      <trkpt lat="44.13797" lon="6.62331">
        <ele>2019.5999755859</ele>
        <time>2022-07-09T14:15:24.000Z</time>
      </trkpt>
      <trkpt lat="44.13795" lon="6.62329">
        <ele>2021</ele>
        <time>2022-07-09T14:15:28.000Z</time>
      </trkpt>
      <trkpt lat="44.13791" lon="6.62322">
        <ele>2022</ele>
        <time>2022-07-09T14:15:36.000Z</time>
      </trkpt>
      <trkpt lat="44.13787" lon="6.62317">
        <ele>2023.1999511719</ele>
        <time>2022-07-09T14:15:44.000Z</time>
      </trkpt>
      <trkpt lat="44.13786" lon="6.62316">
        <ele>2023.1999511719</ele>
        <time>2022-07-09T14:15:45.000Z</time>
      </trkpt>
      <trkpt lat="44.13783" lon="6.6231">
        <ele>2024</ele>
        <time>2022-07-09T14:15:52.000Z</time>
      </trkpt>
      <trkpt lat="44.13781" lon="6.62308">
        <ele>2024.1999511719</ele>
        <time>2022-07-09T14:15:55.000Z</time>
      </trkpt>
      <trkpt lat="44.13778" lon="6.62303">
        <ele>2025.1999511719</ele>
        <time>2022-07-09T14:16:01.000Z</time>
      </trkpt>
      <trkpt lat="44.13777" lon="6.62301">
        <ele>2025.4000244141</ele>
        <time>2022-07-09T14:16:03.000Z</time>
      </trkpt>
      <trkpt lat="44.13773" lon="6.62296">
        <ele>2026.1999511719</ele>
        <time>2022-07-09T14:16:10.000Z</time>
      </trkpt>
      <trkpt lat="44.13773" lon="6.62295">
        <ele>2026.4000244141</ele>
        <time>2022-07-09T14:16:11.000Z</time>
      </trkpt>
      <trkpt lat="44.1377" lon="6.6229">
        <ele>2027.4000244141</ele>
        <time>2022-07-09T14:16:18.000Z</time>
      </trkpt>
      <trkpt lat="44.13763" lon="6.62285">
        <ele>2028.4000244141</ele>
        <time>2022-07-09T14:16:27.000Z</time>
      </trkpt>
      <trkpt lat="44.13762" lon="6.62284">
        <ele>2028.5999755859</ele>
        <time>2022-07-09T14:16:29.000Z</time>
      </trkpt>
      <trkpt lat="44.13757" lon="6.62277">
        <ele>2029.4000244141</ele>
        <time>2022-07-09T14:16:38.000Z</time>
      </trkpt>
      <trkpt lat="44.13758" lon="6.62275">
        <ele>2030.5999755859</ele>
        <time>2022-07-09T14:16:43.000Z</time>
      </trkpt>
      <trkpt lat="44.13758" lon="6.62276">
        <ele>2031</ele>
        <time>2022-07-09T14:16:45.000Z</time>
      </trkpt>
      <trkpt lat="44.13762" lon="6.62279">
        <ele>2031.5999755859</ele>
        <time>2022-07-09T14:16:51.000Z</time>
      </trkpt>
      <trkpt lat="44.13764" lon="6.62281">
        <ele>2031.8000488281</ele>
        <time>2022-07-09T14:16:55.000Z</time>
      </trkpt>
      <trkpt lat="44.13769" lon="6.62282">
        <ele>2032.8000488281</ele>
        <time>2022-07-09T14:17:02.000Z</time>
      </trkpt>
      <trkpt lat="44.13773" lon="6.62284">
        <ele>2033.1999511719</ele>
        <time>2022-07-09T14:17:07.000Z</time>
      </trkpt>
      <trkpt lat="44.13776" lon="6.62286">
        <ele>2033.8000488281</ele>
        <time>2022-07-09T14:17:13.000Z</time>
      </trkpt>
      <trkpt lat="44.13779" lon="6.62288">
        <ele>2034.4000244141</ele>
        <time>2022-07-09T14:17:18.000Z</time>
      </trkpt>
      <trkpt lat="44.13782" lon="6.62288">
        <ele>2035</ele>
        <time>2022-07-09T14:17:22.000Z</time>
      </trkpt>
      <trkpt lat="44.13785" lon="6.62289">
        <ele>2035.5999755859</ele>
        <time>2022-07-09T14:17:27.000Z</time>
      </trkpt>
      <trkpt lat="44.13788" lon="6.6229">
        <ele>2036</ele>
        <time>2022-07-09T14:17:30.000Z</time>
      </trkpt>
      <trkpt lat="44.13791" lon="6.62293">
        <ele>2036.5999755859</ele>
        <time>2022-07-09T14:17:35.000Z</time>
      </trkpt>
      <trkpt lat="44.13794" lon="6.62295">
        <ele>2037</ele>
        <time>2022-07-09T14:17:39.000Z</time>
      </trkpt>
      <trkpt lat="44.13799" lon="6.62298">
        <ele>2037.8000488281</ele>
        <time>2022-07-09T14:17:46.000Z</time>
      </trkpt>
      <trkpt lat="44.13802" lon="6.62299">
        <ele>2038.1999511719</ele>
        <time>2022-07-09T14:17:50.000Z</time>
      </trkpt>
      <trkpt lat="44.13806" lon="6.62302">
        <ele>2039</ele>
        <time>2022-07-09T14:17:56.000Z</time>
      </trkpt>
      <trkpt lat="44.13807" lon="6.62303">
        <ele>2039.1999511719</ele>
        <time>2022-07-09T14:17:58.000Z</time>
      </trkpt>
      <trkpt lat="44.13808" lon="6.62303">
        <ele>2039.4000244141</ele>
        <time>2022-07-09T14:17:59.000Z</time>
      </trkpt>
      <trkpt lat="44.1381" lon="6.62304">
        <ele>2039.8000488281</ele>
        <time>2022-07-09T14:18:03.000Z</time>
      </trkpt>
      <trkpt lat="44.13812" lon="6.62304">
        <ele>2040.4000244141</ele>
        <time>2022-07-09T14:18:07.000Z</time>
      </trkpt>
      <trkpt lat="44.13814" lon="6.62305">
        <ele>2040.8000488281</ele>
        <time>2022-07-09T14:18:11.000Z</time>
      </trkpt>
      <trkpt lat="44.13818" lon="6.62306">
        <ele>2041.4000244141</ele>
        <time>2022-07-09T14:18:16.000Z</time>
      </trkpt>
      <trkpt lat="44.1382" lon="6.62306">
        <ele>2042.1999511719</ele>
        <time>2022-07-09T14:18:20.000Z</time>
      </trkpt>
      <trkpt lat="44.13822" lon="6.62306">
        <ele>2042.5999755859</ele>
        <time>2022-07-09T14:18:23.000Z</time>
      </trkpt>
      <trkpt lat="44.13825" lon="6.62307">
        <ele>2043</ele>
        <time>2022-07-09T14:18:28.000Z</time>
      </trkpt>
      <trkpt lat="44.13829" lon="6.62308">
        <ele>2043.5999755859</ele>
        <time>2022-07-09T14:18:33.000Z</time>
      </trkpt>
      <trkpt lat="44.13833" lon="6.62309">
        <ele>2044.5999755859</ele>
        <time>2022-07-09T14:18:40.000Z</time>
      </trkpt>
      <trkpt lat="44.13834" lon="6.62309">
        <ele>2044.5999755859</ele>
        <time>2022-07-09T14:18:41.000Z</time>
      </trkpt>
      <trkpt lat="44.13839" lon="6.62311">
        <ele>2045.4000244141</ele>
        <time>2022-07-09T14:18:48.000Z</time>
      </trkpt>
      <trkpt lat="44.13841" lon="6.62312">
        <ele>2045.5999755859</ele>
        <time>2022-07-09T14:18:50.000Z</time>
      </trkpt>
      <trkpt lat="44.13847" lon="6.62316">
        <ele>2046.4000244141</ele>
        <time>2022-07-09T14:18:58.000Z</time>
      </trkpt>
      <trkpt lat="44.13848" lon="6.62316">
        <ele>2046.5999755859</ele>
        <time>2022-07-09T14:19:00.000Z</time>
      </trkpt>
      <trkpt lat="44.13855" lon="6.62319">
        <ele>2047.5999755859</ele>
        <time>2022-07-09T14:19:09.000Z</time>
      </trkpt>
      <trkpt lat="44.13856" lon="6.6232">
        <ele>2047.8000488281</ele>
        <time>2022-07-09T14:19:11.000Z</time>
      </trkpt>
      <trkpt lat="44.1386" lon="6.62323">
        <ele>2048.8000488281</ele>
        <time>2022-07-09T14:19:17.000Z</time>
      </trkpt>
      <trkpt lat="44.13861" lon="6.62323">
        <ele>2049</ele>
        <time>2022-07-09T14:19:18.000Z</time>
      </trkpt>
      <trkpt lat="44.13866" lon="6.62329">
        <ele>2049.6000976562</ele>
        <time>2022-07-09T14:19:26.000Z</time>
      </trkpt>
      <trkpt lat="44.13867" lon="6.6233">
        <ele>2049.8000488281</ele>
        <time>2022-07-09T14:19:28.000Z</time>
      </trkpt>
      <trkpt lat="44.13868" lon="6.62331">
        <ele>2050</ele>
        <time>2022-07-09T14:19:29.000Z</time>
      </trkpt>
      <trkpt lat="44.13871" lon="6.62333">
        <ele>2050.3999023438</ele>
        <time>2022-07-09T14:19:32.000Z</time>
      </trkpt>
      <trkpt lat="44.13874" lon="6.62336">
        <ele>2051</ele>
        <time>2022-07-09T14:19:36.000Z</time>
      </trkpt>
      <trkpt lat="44.13878" lon="6.6234">
        <ele>2052</ele>
        <time>2022-07-09T14:19:43.000Z</time>
      </trkpt>
      <trkpt lat="44.1388" lon="6.62342">
        <ele>2052.3999023438</ele>
        <time>2022-07-09T14:19:46.000Z</time>
      </trkpt>
      <trkpt lat="44.13884" lon="6.62347">
        <ele>2053</ele>
        <time>2022-07-09T14:19:52.000Z</time>
      </trkpt>
      <trkpt lat="44.13885" lon="6.62349">
        <ele>2053.1999511719</ele>
        <time>2022-07-09T14:19:54.000Z</time>
      </trkpt>
      <trkpt lat="44.13888" lon="6.62351">
        <ele>2054</ele>
        <time>2022-07-09T14:19:59.000Z</time>
      </trkpt>
      <trkpt lat="44.1389" lon="6.62353">
        <ele>2054.3999023438</ele>
        <time>2022-07-09T14:20:02.000Z</time>
      </trkpt>
      <trkpt lat="44.13894" lon="6.62357">
        <ele>2055.1999511719</ele>
        <time>2022-07-09T14:20:08.000Z</time>
      </trkpt>
      <trkpt lat="44.13895" lon="6.62358">
        <ele>2055.6000976562</ele>
        <time>2022-07-09T14:20:11.000Z</time>
      </trkpt>
      <trkpt lat="44.139" lon="6.62363">
        <ele>2056.1999511719</ele>
        <time>2022-07-09T14:20:18.000Z</time>
      </trkpt>
      <trkpt lat="44.13901" lon="6.62364">
        <ele>2056.1999511719</ele>
        <time>2022-07-09T14:20:19.000Z</time>
      </trkpt>
      <trkpt lat="44.13905" lon="6.62368">
        <ele>2057.1999511719</ele>
        <time>2022-07-09T14:20:26.000Z</time>
      </trkpt>
      <trkpt lat="44.13906" lon="6.62368">
        <ele>2057.3999023438</ele>
        <time>2022-07-09T14:20:27.000Z</time>
      </trkpt>
      <trkpt lat="44.13907" lon="6.62369">
        <ele>2058</ele>
        <time>2022-07-09T14:20:35.000Z</time>
      </trkpt>
      <trkpt lat="44.13907" lon="6.62369">
        <ele>2058.1999511719</ele>
        <time>2022-07-09T14:20:51.000Z</time>
      </trkpt>
      <trkpt lat="44.13908" lon="6.6237">
        <ele>2058.1999511719</ele>
        <time>2022-07-09T14:20:54.000Z</time>
      </trkpt>
      <trkpt lat="44.1391" lon="6.62371">
        <ele>2058.3999023438</ele>
        <time>2022-07-09T14:20:58.000Z</time>
      </trkpt>
      <trkpt lat="44.13915" lon="6.62376">
        <ele>2059.1999511719</ele>
        <time>2022-07-09T14:21:06.000Z</time>
      </trkpt>
      <trkpt lat="44.13916" lon="6.62377">
        <ele>2059.3999023438</ele>
        <time>2022-07-09T14:21:08.000Z</time>
      </trkpt>
      <trkpt lat="44.1392" lon="6.6238">
        <ele>2060.3999023438</ele>
        <time>2022-07-09T14:21:14.000Z</time>
      </trkpt>
      <trkpt lat="44.1392" lon="6.62381">
        <ele>2060.6000976562</ele>
        <time>2022-07-09T14:21:15.000Z</time>
      </trkpt>
      <trkpt lat="44.13925" lon="6.62385">
        <ele>2061.6000976562</ele>
        <time>2022-07-09T14:21:24.000Z</time>
      </trkpt>
      <trkpt lat="44.13928" lon="6.62389">
        <ele>2062.8000488281</ele>
        <time>2022-07-09T14:21:31.000Z</time>
      </trkpt>
      <trkpt lat="44.1393" lon="6.62392">
        <ele>2063</ele>
        <time>2022-07-09T14:21:34.000Z</time>
      </trkpt>
      <trkpt lat="44.13933" lon="6.62396">
        <ele>2063.8000488281</ele>
        <time>2022-07-09T14:21:40.000Z</time>
      </trkpt>
      <trkpt lat="44.13935" lon="6.62398">
        <ele>2064.3999023438</ele>
        <time>2022-07-09T14:21:44.000Z</time>
      </trkpt>
      <trkpt lat="44.13936" lon="6.624">
        <ele>2065</ele>
        <time>2022-07-09T14:21:47.000Z</time>
      </trkpt>
      <trkpt lat="44.13939" lon="6.62404">
        <ele>2065.6000976562</ele>
        <time>2022-07-09T14:21:53.000Z</time>
      </trkpt>
      <trkpt lat="44.1394" lon="6.62407">
        <ele>2066</ele>
        <time>2022-07-09T14:21:56.000Z</time>
      </trkpt>
      <trkpt lat="44.13943" lon="6.62411">
        <ele>2066.6000976562</ele>
        <time>2022-07-09T14:22:01.000Z</time>
      </trkpt>
      <trkpt lat="44.13945" lon="6.62415">
        <ele>2067.1999511719</ele>
        <time>2022-07-09T14:22:07.000Z</time>
      </trkpt>
      <trkpt lat="44.13946" lon="6.62416">
        <ele>2067.3999023438</ele>
        <time>2022-07-09T14:22:09.000Z</time>
      </trkpt>
      <trkpt lat="44.13949" lon="6.62422">
        <ele>2068.1999511719</ele>
        <time>2022-07-09T14:22:16.000Z</time>
      </trkpt>
      <trkpt lat="44.1395" lon="6.62424">
        <ele>2068.8000488281</ele>
        <time>2022-07-09T14:22:19.000Z</time>
      </trkpt>
      <trkpt lat="44.13951" lon="6.62427">
        <ele>2069.1999511719</ele>
        <time>2022-07-09T14:22:23.000Z</time>
      </trkpt>
      <trkpt lat="44.13954" lon="6.62431">
        <ele>2069.8000488281</ele>
        <time>2022-07-09T14:22:29.000Z</time>
      </trkpt>
      <trkpt lat="44.13955" lon="6.62434">
        <ele>2070.3999023438</ele>
        <time>2022-07-09T14:22:34.000Z</time>
      </trkpt>
      <trkpt lat="44.13957" lon="6.62438">
        <ele>2071</ele>
        <time>2022-07-09T14:22:39.000Z</time>
      </trkpt>
      <trkpt lat="44.13958" lon="6.62441">
        <ele>2071.3999023438</ele>
        <time>2022-07-09T14:22:42.000Z</time>
      </trkpt>
      <trkpt lat="44.13961" lon="6.62445">
        <ele>2072.1999511719</ele>
        <time>2022-07-09T14:22:48.000Z</time>
      </trkpt>
      <trkpt lat="44.13961" lon="6.62447">
        <ele>2072.3999023438</ele>
        <time>2022-07-09T14:22:50.000Z</time>
      </trkpt>
      <trkpt lat="44.13965" lon="6.62453">
        <ele>2073.6000976562</ele>
        <time>2022-07-09T14:22:58.000Z</time>
      </trkpt>
      <trkpt lat="44.13968" lon="6.62454">
        <ele>2074.6000976562</ele>
        <time>2022-07-09T14:23:06.000Z</time>
      </trkpt>
      <trkpt lat="44.13968" lon="6.62453">
        <ele>2074.8000488281</ele>
        <time>2022-07-09T14:23:07.000Z</time>
      </trkpt>
      <trkpt lat="44.1397" lon="6.62451">
        <ele>2075.8000488281</ele>
        <time>2022-07-09T14:23:11.000Z</time>
      </trkpt>
      <trkpt lat="44.13971" lon="6.62451">
        <ele>2076.1999511719</ele>
        <time>2022-07-09T14:23:14.000Z</time>
      </trkpt>
      <trkpt lat="44.1397" lon="6.62452">
        <ele>2075.3999023438</ele>
        <time>2022-07-09T14:23:20.000Z</time>
      </trkpt>
      <trkpt lat="44.1397" lon="6.62452">
        <ele>2074.8000488281</ele>
        <time>2022-07-09T14:23:25.000Z</time>
      </trkpt>
      <trkpt lat="44.13971" lon="6.62452">
        <ele>2075.1999511719</ele>
        <time>2022-07-09T14:23:34.000Z</time>
      </trkpt>
      <trkpt lat="44.13971" lon="6.62452">
        <ele>2075.8000488281</ele>
        <time>2022-07-09T14:23:40.000Z</time>
      </trkpt>
      <trkpt lat="44.13971" lon="6.62452">
        <ele>2075.8000488281</ele>
        <time>2022-07-09T14:23:44.000Z</time>
      </trkpt>
      <trkpt lat="44.13971" lon="6.62453">
        <ele>2076.1999511719</ele>
        <time>2022-07-09T14:23:58.000Z</time>
      </trkpt>
      <trkpt lat="44.13971" lon="6.62453">
        <ele>2076</ele>
        <time>2022-07-09T14:24:01.000Z</time>
      </trkpt>
      <trkpt lat="44.13971" lon="6.62453">
        <ele>2076.1999511719</ele>
        <time>2022-07-09T14:24:02.000Z</time>
      </trkpt>
      <trkpt lat="44.13972" lon="6.62453">
        <ele>2076.1999511719</ele>
        <time>2022-07-09T14:24:03.000Z</time>
      </trkpt>
      <trkpt lat="44.13972" lon="6.62454">
        <ele>2076.1999511719</ele>
        <time>2022-07-09T14:24:06.000Z</time>
      </trkpt>
      <trkpt lat="44.13972" lon="6.62454">
        <ele>2076</ele>
        <time>2022-07-09T14:24:11.000Z</time>
      </trkpt>
      <trkpt lat="44.13974" lon="6.62454">
        <ele>2076.3999023438</ele>
        <time>2022-07-09T14:24:24.000Z</time>
      </trkpt>
      <trkpt lat="44.13974" lon="6.62455">
        <ele>2076.1999511719</ele>
        <time>2022-07-09T14:24:35.000Z</time>
      </trkpt>
      <trkpt lat="44.13972" lon="6.62454">
        <ele>2076.1999511719</ele>
        <time>2022-07-09T14:24:52.000Z</time>
      </trkpt>
      <trkpt lat="44.13972" lon="6.62454">
        <ele>2076.8000488281</ele>
        <time>2022-07-09T14:25:00.000Z</time>
      </trkpt>
      <trkpt lat="44.13972" lon="6.62454">
        <ele>2076.8000488281</ele>
        <time>2022-07-09T14:25:02.000Z</time>
      </trkpt>
      <trkpt lat="44.13971" lon="6.62455">
        <ele>2076.6000976562</ele>
        <time>2022-07-09T14:25:19.000Z</time>
      </trkpt>
      <trkpt lat="44.13971" lon="6.62456">
        <ele>2076.6000976562</ele>
        <time>2022-07-09T14:25:30.000Z</time>
      </trkpt>
      <trkpt lat="44.1397" lon="6.62455">
        <ele>2076.3999023438</ele>
        <time>2022-07-09T14:25:47.000Z</time>
      </trkpt>
      <trkpt lat="44.1397" lon="6.62455">
        <ele>2077</ele>
        <time>2022-07-09T14:25:57.000Z</time>
      </trkpt>
      <trkpt lat="44.1397" lon="6.62455">
        <ele>2077.1999511719</ele>
        <time>2022-07-09T14:26:06.000Z</time>
      </trkpt>
      <trkpt lat="44.1397" lon="6.62455">
        <ele>2076.8000488281</ele>
        <time>2022-07-09T14:26:23.000Z</time>
      </trkpt>
      <trkpt lat="44.1397" lon="6.62455">
        <ele>2077.1999511719</ele>
        <time>2022-07-09T14:26:41.000Z</time>
      </trkpt>
      <trkpt lat="44.13971" lon="6.62455">
        <ele>2077.6000976562</ele>
        <time>2022-07-09T14:26:51.000Z</time>
      </trkpt>
      <trkpt lat="44.13971" lon="6.62455">
        <ele>2077.8000488281</ele>
        <time>2022-07-09T14:26:54.000Z</time>
      </trkpt>
      <trkpt lat="44.13971" lon="6.62454">
        <ele>2078</ele>
        <time>2022-07-09T14:26:58.000Z</time>
      </trkpt>
      <trkpt lat="44.13971" lon="6.62455">
        <ele>2078.1999511719</ele>
        <time>2022-07-09T14:27:04.000Z</time>
      </trkpt>
      <trkpt lat="44.13971" lon="6.62459">
        <ele>2078.1999511719</ele>
        <time>2022-07-09T14:27:08.000Z</time>
      </trkpt>
      <trkpt lat="44.13971" lon="6.62461">
        <ele>2078.1999511719</ele>
        <time>2022-07-09T14:27:11.000Z</time>
      </trkpt>
      <trkpt lat="44.13972" lon="6.62468">
        <ele>2078.3999023438</ele>
        <time>2022-07-09T14:27:18.000Z</time>
      </trkpt>
      <trkpt lat="44.13972" lon="6.6247">
        <ele>2078.6000976562</ele>
        <time>2022-07-09T14:27:23.000Z</time>
      </trkpt>
      <trkpt lat="44.13976" lon="6.62489">
        <ele>2078.6000976562</ele>
        <time>2022-07-09T14:27:30.000Z</time>
      </trkpt>
      <trkpt lat="44.13977" lon="6.62505">
        <ele>2078.3999023438</ele>
        <time>2022-07-09T14:27:36.000Z</time>
      </trkpt>
      <trkpt lat="44.13978" lon="6.62522">
        <ele>2077.8000488281</ele>
        <time>2022-07-09T14:27:43.000Z</time>
      </trkpt>
      <trkpt lat="44.13979" lon="6.62534">
        <ele>2077.8000488281</ele>
        <time>2022-07-09T14:27:49.000Z</time>
      </trkpt>
      <trkpt lat="44.1398" lon="6.62545">
        <ele>2078.3999023438</ele>
        <time>2022-07-09T14:27:54.000Z</time>
      </trkpt>
      <trkpt lat="44.13979" lon="6.62558">
        <ele>2078.8000488281</ele>
        <time>2022-07-09T14:27:59.000Z</time>
      </trkpt>
      <trkpt lat="44.13979" lon="6.62563">
        <ele>2079</ele>
        <time>2022-07-09T14:28:01.000Z</time>
      </trkpt>
      <trkpt lat="44.13979" lon="6.62569">
        <ele>2079.3999023438</ele>
        <time>2022-07-09T14:28:04.000Z</time>
      </trkpt>
      <trkpt lat="44.13982" lon="6.62583">
        <ele>2079.6000976562</ele>
        <time>2022-07-09T14:28:09.000Z</time>
      </trkpt>
      <trkpt lat="44.13982" lon="6.62598">
        <ele>2079.6000976562</ele>
        <time>2022-07-09T14:28:15.000Z</time>
      </trkpt>
      <trkpt lat="44.13984" lon="6.62607">
        <ele>2080</ele>
        <time>2022-07-09T14:28:20.000Z</time>
      </trkpt>
      <trkpt lat="44.13986" lon="6.62622">
        <ele>2079.8000488281</ele>
        <time>2022-07-09T14:28:25.000Z</time>
      </trkpt>
      <trkpt lat="44.1399" lon="6.62644">
        <ele>2079.3999023438</ele>
        <time>2022-07-09T14:28:32.000Z</time>
      </trkpt>
      <trkpt lat="44.13995" lon="6.62667">
        <ele>2078.6000976562</ele>
        <time>2022-07-09T14:28:39.000Z</time>
      </trkpt>
      <trkpt lat="44.13997" lon="6.62679">
        <ele>2078.6000976562</ele>
        <time>2022-07-09T14:28:43.000Z</time>
      </trkpt>
      <trkpt lat="44.14003" lon="6.627">
        <ele>2078.8000488281</ele>
        <time>2022-07-09T14:28:51.000Z</time>
      </trkpt>
      <trkpt lat="44.14009" lon="6.62715">
        <ele>2079.3999023438</ele>
        <time>2022-07-09T14:28:58.000Z</time>
      </trkpt>
      <trkpt lat="44.14014" lon="6.62722">
        <ele>2080</ele>
        <time>2022-07-09T14:29:03.000Z</time>
      </trkpt>
      <trkpt lat="44.14015" lon="6.62723">
        <ele>2080.1999511719</ele>
        <time>2022-07-09T14:29:04.000Z</time>
      </trkpt>
      <trkpt lat="44.14017" lon="6.62724">
        <ele>2080.3999023438</ele>
        <time>2022-07-09T14:29:05.000Z</time>
      </trkpt>
      <trkpt lat="44.14026" lon="6.62732">
        <ele>2081.1999511719</ele>
        <time>2022-07-09T14:29:12.000Z</time>
      </trkpt>
      <trkpt lat="44.14031" lon="6.62739">
        <ele>2081.8000488281</ele>
        <time>2022-07-09T14:29:18.000Z</time>
      </trkpt>
      <trkpt lat="44.14033" lon="6.62741">
        <ele>2082.1999511719</ele>
        <time>2022-07-09T14:29:20.000Z</time>
      </trkpt>
      <trkpt lat="44.14039" lon="6.62742">
        <ele>2082.8000488281</ele>
        <time>2022-07-09T14:29:24.000Z</time>
      </trkpt>
      <trkpt lat="44.14041" lon="6.62743">
        <ele>2083.1999511719</ele>
        <time>2022-07-09T14:29:26.000Z</time>
      </trkpt>
      <trkpt lat="44.14041" lon="6.62743">
        <ele>2083.6000976562</ele>
        <time>2022-07-09T14:29:29.000Z</time>
      </trkpt>
      <trkpt lat="44.14046" lon="6.62746">
        <ele>2084.1999511719</ele>
        <time>2022-07-09T14:29:36.000Z</time>
      </trkpt>
      <trkpt lat="44.1405" lon="6.62747">
        <ele>2085.1999511719</ele>
        <time>2022-07-09T14:29:42.000Z</time>
      </trkpt>
      <trkpt lat="44.14052" lon="6.62747">
        <ele>2085.6000976562</ele>
        <time>2022-07-09T14:29:44.000Z</time>
      </trkpt>
      <trkpt lat="44.14059" lon="6.62747">
        <ele>2086.1999511719</ele>
        <time>2022-07-09T14:29:51.000Z</time>
      </trkpt>
      <trkpt lat="44.14059" lon="6.62747">
        <ele>2086.3999023438</ele>
        <time>2022-07-09T14:29:52.000Z</time>
      </trkpt>
      <trkpt lat="44.14065" lon="6.62748">
        <ele>2087.1999511719</ele>
        <time>2022-07-09T14:29:59.000Z</time>
      </trkpt>
      <trkpt lat="44.14067" lon="6.62748">
        <ele>2087.3999023438</ele>
        <time>2022-07-09T14:30:01.000Z</time>
      </trkpt>
      <trkpt lat="44.14071" lon="6.62746">
        <ele>2088</ele>
        <time>2022-07-09T14:30:06.000Z</time>
      </trkpt>
      <trkpt lat="44.14076" lon="6.62747">
        <ele>2088.3999023438</ele>
        <time>2022-07-09T14:30:13.000Z</time>
      </trkpt>
      <trkpt lat="44.14078" lon="6.62747">
        <ele>2089</ele>
        <time>2022-07-09T14:30:16.000Z</time>
      </trkpt>
      <trkpt lat="44.14081" lon="6.62746">
        <ele>2089.3999023438</ele>
        <time>2022-07-09T14:30:22.000Z</time>
      </trkpt>
      <trkpt lat="44.14081" lon="6.62745">
        <ele>2089.3999023438</ele>
        <time>2022-07-09T14:30:24.000Z</time>
      </trkpt>
      <trkpt lat="44.14086" lon="6.62742">
        <ele>2089.6000976562</ele>
        <time>2022-07-09T14:30:30.000Z</time>
      </trkpt>
      <trkpt lat="44.14094" lon="6.62738">
        <ele>2090</ele>
        <time>2022-07-09T14:30:36.000Z</time>
      </trkpt>
      <trkpt lat="44.14103" lon="6.62734">
        <ele>2089.8000488281</ele>
        <time>2022-07-09T14:30:41.000Z</time>
      </trkpt>
      <trkpt lat="44.14105" lon="6.62733">
        <ele>2089.6000976562</ele>
        <time>2022-07-09T14:30:43.000Z</time>
      </trkpt>
      <trkpt lat="44.14109" lon="6.62732">
        <ele>2089.6000976562</ele>
        <time>2022-07-09T14:30:45.000Z</time>
      </trkpt>
      <trkpt lat="44.14114" lon="6.62731">
        <ele>2089.8000488281</ele>
        <time>2022-07-09T14:30:49.000Z</time>
      </trkpt>
      <trkpt lat="44.14116" lon="6.6273">
        <ele>2090</ele>
        <time>2022-07-09T14:30:50.000Z</time>
      </trkpt>
      <trkpt lat="44.14123" lon="6.62729">
        <ele>2090.6000976562</ele>
        <time>2022-07-09T14:30:54.000Z</time>
      </trkpt>
      <trkpt lat="44.14127" lon="6.62728">
        <ele>2090.8000488281</ele>
        <time>2022-07-09T14:30:57.000Z</time>
      </trkpt>
      <trkpt lat="44.14134" lon="6.62726">
        <ele>2091.1999511719</ele>
        <time>2022-07-09T14:31:01.000Z</time>
      </trkpt>
      <trkpt lat="44.14143" lon="6.62719">
        <ele>2091.1999511719</ele>
        <time>2022-07-09T14:31:06.000Z</time>
      </trkpt>
      <trkpt lat="44.14152" lon="6.62716">
        <ele>2090.6000976562</ele>
        <time>2022-07-09T14:31:11.000Z</time>
      </trkpt>
      <trkpt lat="44.1416" lon="6.62716">
        <ele>2091.1999511719</ele>
        <time>2022-07-09T14:31:17.000Z</time>
      </trkpt>
      <trkpt lat="44.14161" lon="6.62715">
        <ele>2091.6000976562</ele>
        <time>2022-07-09T14:31:18.000Z</time>
      </trkpt>
      <trkpt lat="44.14168" lon="6.62713">
        <ele>2092</ele>
        <time>2022-07-09T14:31:23.000Z</time>
      </trkpt>
      <trkpt lat="44.14177" lon="6.6271">
        <ele>2092.1999511719</ele>
        <time>2022-07-09T14:31:30.000Z</time>
      </trkpt>
      <trkpt lat="44.14189" lon="6.62707">
        <ele>2092.6000976562</ele>
        <time>2022-07-09T14:31:37.000Z</time>
      </trkpt>
      <trkpt lat="44.14198" lon="6.62705">
        <ele>2093</ele>
        <time>2022-07-09T14:31:42.000Z</time>
      </trkpt>
      <trkpt lat="44.14209" lon="6.62703">
        <ele>2093</ele>
        <time>2022-07-09T14:31:47.000Z</time>
      </trkpt>
      <trkpt lat="44.14214" lon="6.62704">
        <ele>2093.1999511719</ele>
        <time>2022-07-09T14:31:51.000Z</time>
      </trkpt>
      <trkpt lat="44.14213" lon="6.62704">
        <ele>2093.1999511719</ele>
        <time>2022-07-09T14:31:52.000Z</time>
      </trkpt>
      <trkpt lat="44.14217" lon="6.62704">
        <ele>2093.3999023438</ele>
        <time>2022-07-09T14:31:57.000Z</time>
      </trkpt>
      <trkpt lat="44.1422" lon="6.62702">
        <ele>2093.6000976562</ele>
        <time>2022-07-09T14:32:02.000Z</time>
      </trkpt>
      <trkpt lat="44.14221" lon="6.62699">
        <ele>2094.1999511719</ele>
        <time>2022-07-09T14:32:05.000Z</time>
      </trkpt>
      <trkpt lat="44.14223" lon="6.62697">
        <ele>2094.6000976562</ele>
        <time>2022-07-09T14:32:07.000Z</time>
      </trkpt>
      <trkpt lat="44.14225" lon="6.62697">
        <ele>2095.1999511719</ele>
        <time>2022-07-09T14:32:11.000Z</time>
      </trkpt>
      <trkpt lat="44.14227" lon="6.62698">
        <ele>2095.1999511719</ele>
        <time>2022-07-09T14:32:20.000Z</time>
      </trkpt>
      <trkpt lat="44.1423" lon="6.62698">
        <ele>2095</ele>
        <time>2022-07-09T14:32:25.000Z</time>
      </trkpt>
      <trkpt lat="44.14232" lon="6.62699">
        <ele>2095</ele>
        <time>2022-07-09T14:32:26.000Z</time>
      </trkpt>
      <trkpt lat="44.14242" lon="6.62703">
        <ele>2094</ele>
        <time>2022-07-09T14:32:30.000Z</time>
      </trkpt>
      <trkpt lat="44.14246" lon="6.62703">
        <ele>2093.3999023438</ele>
        <time>2022-07-09T14:32:31.000Z</time>
      </trkpt>
      <trkpt lat="44.14248" lon="6.62704">
        <ele>2092.8000488281</ele>
        <time>2022-07-09T14:32:32.000Z</time>
      </trkpt>
      <trkpt lat="44.14252" lon="6.62705">
        <ele>2092.1999511719</ele>
        <time>2022-07-09T14:32:33.000Z</time>
      </trkpt>
      <trkpt lat="44.14254" lon="6.62708">
        <ele>2091.3999023438</ele>
        <time>2022-07-09T14:32:34.000Z</time>
      </trkpt>
      <trkpt lat="44.14258" lon="6.62711">
        <ele>2090.3999023438</ele>
        <time>2022-07-09T14:32:35.000Z</time>
      </trkpt>
      <trkpt lat="44.14265" lon="6.62719">
        <ele>2089.3999023438</ele>
        <time>2022-07-09T14:32:37.000Z</time>
      </trkpt>
      <trkpt lat="44.14273" lon="6.62729">
        <ele>2087.6000976562</ele>
        <time>2022-07-09T14:32:39.000Z</time>
      </trkpt>
      <trkpt lat="44.14277" lon="6.62733">
        <ele>2086.8000488281</ele>
        <time>2022-07-09T14:32:40.000Z</time>
      </trkpt>
      <trkpt lat="44.14282" lon="6.62737">
        <ele>2085.6000976562</ele>
        <time>2022-07-09T14:32:41.000Z</time>
      </trkpt>
      <trkpt lat="44.14285" lon="6.6274">
        <ele>2084</ele>
        <time>2022-07-09T14:32:42.000Z</time>
      </trkpt>
      <trkpt lat="44.1429" lon="6.62743">
        <ele>2082.6000976562</ele>
        <time>2022-07-09T14:32:43.000Z</time>
      </trkpt>
      <trkpt lat="44.14295" lon="6.62745">
        <ele>2081.6000976562</ele>
        <time>2022-07-09T14:32:44.000Z</time>
      </trkpt>
      <trkpt lat="44.14299" lon="6.62747">
        <ele>2080.3999023438</ele>
        <time>2022-07-09T14:32:45.000Z</time>
      </trkpt>
      <trkpt lat="44.14307" lon="6.62755">
        <ele>2078.8000488281</ele>
        <time>2022-07-09T14:32:47.000Z</time>
      </trkpt>
      <trkpt lat="44.14314" lon="6.62763">
        <ele>2077.6000976562</ele>
        <time>2022-07-09T14:32:49.000Z</time>
      </trkpt>
      <trkpt lat="44.14319" lon="6.62766">
        <ele>2076.3999023438</ele>
        <time>2022-07-09T14:32:50.000Z</time>
      </trkpt>
      <trkpt lat="44.14324" lon="6.62767">
        <ele>2075.1999511719</ele>
        <time>2022-07-09T14:32:51.000Z</time>
      </trkpt>
      <trkpt lat="44.14328" lon="6.62768">
        <ele>2073.8000488281</ele>
        <time>2022-07-09T14:32:52.000Z</time>
      </trkpt>
      <trkpt lat="44.14333" lon="6.6277">
        <ele>2072.3999023438</ele>
        <time>2022-07-09T14:32:53.000Z</time>
      </trkpt>
      <trkpt lat="44.1434" lon="6.62773">
        <ele>2070.1999511719</ele>
        <time>2022-07-09T14:32:55.000Z</time>
      </trkpt>
      <trkpt lat="44.14343" lon="6.62776">
        <ele>2069</ele>
        <time>2022-07-09T14:32:56.000Z</time>
      </trkpt>
      <trkpt lat="44.14347" lon="6.62778">
        <ele>2067.6000976562</ele>
        <time>2022-07-09T14:32:57.000Z</time>
      </trkpt>
      <trkpt lat="44.14354" lon="6.62783">
        <ele>2066</ele>
        <time>2022-07-09T14:32:59.000Z</time>
      </trkpt>
      <trkpt lat="44.14357" lon="6.62786">
        <ele>2065.1999511719</ele>
        <time>2022-07-09T14:33:00.000Z</time>
      </trkpt>
      <trkpt lat="44.14361" lon="6.62788">
        <ele>2064.8000488281</ele>
        <time>2022-07-09T14:33:01.000Z</time>
      </trkpt>
      <trkpt lat="44.14369" lon="6.62791">
        <ele>2063.3999023438</ele>
        <time>2022-07-09T14:33:03.000Z</time>
      </trkpt>
      <trkpt lat="44.14375" lon="6.62795">
        <ele>2062.1999511719</ele>
        <time>2022-07-09T14:33:05.000Z</time>
      </trkpt>
      <trkpt lat="44.14382" lon="6.62798">
        <ele>2061</ele>
        <time>2022-07-09T14:33:07.000Z</time>
      </trkpt>
      <trkpt lat="44.14389" lon="6.628">
        <ele>2060</ele>
        <time>2022-07-09T14:33:09.000Z</time>
      </trkpt>
      <trkpt lat="44.14395" lon="6.62801">
        <ele>2059.3999023438</ele>
        <time>2022-07-09T14:33:10.000Z</time>
      </trkpt>
      <trkpt lat="44.14399" lon="6.62802">
        <ele>2058.8000488281</ele>
        <time>2022-07-09T14:33:11.000Z</time>
      </trkpt>
      <trkpt lat="44.14403" lon="6.62804">
        <ele>2057.6000976562</ele>
        <time>2022-07-09T14:33:12.000Z</time>
      </trkpt>
      <trkpt lat="44.1441" lon="6.62802">
        <ele>2056</ele>
        <time>2022-07-09T14:33:14.000Z</time>
      </trkpt>
      <trkpt lat="44.14412" lon="6.62798">
        <ele>2054.8000488281</ele>
        <time>2022-07-09T14:33:15.000Z</time>
      </trkpt>
      <trkpt lat="44.14414" lon="6.62794">
        <ele>2053.3999023438</ele>
        <time>2022-07-09T14:33:16.000Z</time>
      </trkpt>
      <trkpt lat="44.14417" lon="6.62787">
        <ele>2052.1999511719</ele>
        <time>2022-07-09T14:33:18.000Z</time>
      </trkpt>
      <trkpt lat="44.14418" lon="6.62784">
        <ele>2051.8000488281</ele>
        <time>2022-07-09T14:33:19.000Z</time>
      </trkpt>
      <trkpt lat="44.1442" lon="6.6278">
        <ele>2052</ele>
        <time>2022-07-09T14:33:20.000Z</time>
      </trkpt>
      <trkpt lat="44.14426" lon="6.62765">
        <ele>2052.3999023438</ele>
        <time>2022-07-09T14:33:25.000Z</time>
      </trkpt>
      <trkpt lat="44.14438" lon="6.62743">
        <ele>2052.1999511719</ele>
        <time>2022-07-09T14:33:31.000Z</time>
      </trkpt>
      <trkpt lat="44.14444" lon="6.62735">
        <ele>2051</ele>
        <time>2022-07-09T14:33:34.000Z</time>
      </trkpt>
      <trkpt lat="44.14446" lon="6.62734">
        <ele>2049.3999023438</ele>
        <time>2022-07-09T14:33:37.000Z</time>
      </trkpt>
      <trkpt lat="44.14447" lon="6.62734">
        <ele>2048.3999023438</ele>
        <time>2022-07-09T14:33:41.000Z</time>
      </trkpt>
      <trkpt lat="44.14447" lon="6.62734">
        <ele>2048.6000976562</ele>
        <time>2022-07-09T14:33:53.000Z</time>
      </trkpt>
      <trkpt lat="44.14449" lon="6.62735">
        <ele>2049.1999511719</ele>
        <time>2022-07-09T14:34:19.000Z</time>
      </trkpt>
      <trkpt lat="44.14457" lon="6.62731">
        <ele>2049.3999023438</ele>
        <time>2022-07-09T14:34:33.000Z</time>
      </trkpt>
      <trkpt lat="44.14474" lon="6.62723">
        <ele>2048.3999023438</ele>
        <time>2022-07-09T14:34:39.000Z</time>
      </trkpt>
      <trkpt lat="44.14482" lon="6.62719">
        <ele>2047.4000244141</ele>
        <time>2022-07-09T14:34:42.000Z</time>
      </trkpt>
      <trkpt lat="44.14489" lon="6.62713">
        <ele>2046</ele>
        <time>2022-07-09T14:34:45.000Z</time>
      </trkpt>
      <trkpt lat="44.1449" lon="6.62711">
        <ele>2045.5999755859</ele>
        <time>2022-07-09T14:34:46.000Z</time>
      </trkpt>
      <trkpt lat="44.14491" lon="6.62707">
        <ele>2045</ele>
        <time>2022-07-09T14:34:47.000Z</time>
      </trkpt>
      <trkpt lat="44.14491" lon="6.62705">
        <ele>2044.4000244141</ele>
        <time>2022-07-09T14:34:48.000Z</time>
      </trkpt>
      <trkpt lat="44.14491" lon="6.62703">
        <ele>2043.5999755859</ele>
        <time>2022-07-09T14:34:50.000Z</time>
      </trkpt>
      <trkpt lat="44.14491" lon="6.62703">
        <ele>2043.1999511719</ele>
        <time>2022-07-09T14:34:52.000Z</time>
      </trkpt>
      <trkpt lat="44.14492" lon="6.62703">
        <ele>2043.1999511719</ele>
        <time>2022-07-09T14:35:00.000Z</time>
      </trkpt>
      <trkpt lat="44.14492" lon="6.62703">
        <ele>2043.1999511719</ele>
        <time>2022-07-09T14:35:07.000Z</time>
      </trkpt>
      <trkpt lat="44.14492" lon="6.62703">
        <ele>2043</ele>
        <time>2022-07-09T14:35:13.000Z</time>
      </trkpt>
      <trkpt lat="44.1449" lon="6.627">
        <ele>2043</ele>
        <time>2022-07-09T14:35:23.000Z</time>
      </trkpt>
      <trkpt lat="44.1449" lon="6.62699">
        <ele>2043.1999511719</ele>
        <time>2022-07-09T14:35:30.000Z</time>
      </trkpt>
      <trkpt lat="44.1449" lon="6.62699">
        <ele>2043</ele>
        <time>2022-07-09T14:35:38.000Z</time>
      </trkpt>
      <trkpt lat="44.1449" lon="6.62699">
        <ele>2043.1999511719</ele>
        <time>2022-07-09T14:35:47.000Z</time>
      </trkpt>
      <trkpt lat="44.14489" lon="6.62695">
        <ele>2043.1999511719</ele>
        <time>2022-07-09T14:36:00.000Z</time>
      </trkpt>
      <trkpt lat="44.14488" lon="6.62694">
        <ele>2043.5999755859</ele>
        <time>2022-07-09T14:36:11.000Z</time>
      </trkpt>
      <trkpt lat="44.14488" lon="6.62694">
        <ele>2043.5999755859</ele>
        <time>2022-07-09T14:36:26.000Z</time>
      </trkpt>
      <trkpt lat="44.14488" lon="6.62694">
        <ele>2043.1999511719</ele>
        <time>2022-07-09T14:36:40.000Z</time>
      </trkpt>
      <trkpt lat="44.14488" lon="6.62693">
        <ele>2043.1999511719</ele>
        <time>2022-07-09T14:36:45.000Z</time>
      </trkpt>
      <trkpt lat="44.14488" lon="6.62693">
        <ele>2043.1999511719</ele>
        <time>2022-07-09T14:36:51.000Z</time>
      </trkpt>
      <trkpt lat="44.1449" lon="6.6269">
        <ele>2042.8000488281</ele>
        <time>2022-07-09T14:36:56.000Z</time>
      </trkpt>
      <trkpt lat="44.14491" lon="6.62688">
        <ele>2042.8000488281</ele>
        <time>2022-07-09T14:37:03.000Z</time>
      </trkpt>
      <trkpt lat="44.14491" lon="6.62686">
        <ele>2042.8000488281</ele>
        <time>2022-07-09T14:37:04.000Z</time>
      </trkpt>
      <trkpt lat="44.14494" lon="6.62676">
        <ele>2043.8000488281</ele>
        <time>2022-07-09T14:37:11.000Z</time>
      </trkpt>
      <trkpt lat="44.14498" lon="6.62659">
        <ele>2043.8000488281</ele>
        <time>2022-07-09T14:37:16.000Z</time>
      </trkpt>
      <trkpt lat="44.14499" lon="6.62649">
        <ele>2043.5999755859</ele>
        <time>2022-07-09T14:37:20.000Z</time>
      </trkpt>
      <trkpt lat="44.14502" lon="6.62624">
        <ele>2043.5999755859</ele>
        <time>2022-07-09T14:37:25.000Z</time>
      </trkpt>
      <trkpt lat="44.14505" lon="6.62603">
        <ele>2042.5999755859</ele>
        <time>2022-07-09T14:37:29.000Z</time>
      </trkpt>
      <trkpt lat="44.14505" lon="6.62594">
        <ele>2041.8000488281</ele>
        <time>2022-07-09T14:37:31.000Z</time>
      </trkpt>
      <trkpt lat="44.14509" lon="6.6258">
        <ele>2041.1999511719</ele>
        <time>2022-07-09T14:37:35.000Z</time>
      </trkpt>
      <trkpt lat="44.14511" lon="6.62567">
        <ele>2041.8000488281</ele>
        <time>2022-07-09T14:37:40.000Z</time>
      </trkpt>
      <trkpt lat="44.1451" lon="6.62553">
        <ele>2042</ele>
        <time>2022-07-09T14:37:45.000Z</time>
      </trkpt>
      <trkpt lat="44.14512" lon="6.62545">
        <ele>2040.8000488281</ele>
        <time>2022-07-09T14:37:47.000Z</time>
      </trkpt>
      <trkpt lat="44.14515" lon="6.62537">
        <ele>2039.1999511719</ele>
        <time>2022-07-09T14:37:49.000Z</time>
      </trkpt>
      <trkpt lat="44.14518" lon="6.62532">
        <ele>2038.4000244141</ele>
        <time>2022-07-09T14:37:50.000Z</time>
      </trkpt>
      <trkpt lat="44.14521" lon="6.62528">
        <ele>2037.8000488281</ele>
        <time>2022-07-09T14:37:51.000Z</time>
      </trkpt>
      <trkpt lat="44.14531" lon="6.62515">
        <ele>2036.5999755859</ele>
        <time>2022-07-09T14:37:54.000Z</time>
      </trkpt>
      <trkpt lat="44.14536" lon="6.62512">
        <ele>2035.8000488281</ele>
        <time>2022-07-09T14:37:55.000Z</time>
      </trkpt>
      <trkpt lat="44.14542" lon="6.62504">
        <ele>2035.4000244141</ele>
        <time>2022-07-09T14:37:57.000Z</time>
      </trkpt>
      <trkpt lat="44.14545" lon="6.625">
        <ele>2034.5999755859</ele>
        <time>2022-07-09T14:37:59.000Z</time>
      </trkpt>
      <trkpt lat="44.14547" lon="6.62498">
        <ele>2034.4000244141</ele>
        <time>2022-07-09T14:38:03.000Z</time>
      </trkpt>
      <trkpt lat="44.14547" lon="6.62501">
        <ele>2034.4000244141</ele>
        <time>2022-07-09T14:38:22.000Z</time>
      </trkpt>
      <trkpt lat="44.14547" lon="6.62502">
        <ele>2035</ele>
        <time>2022-07-09T14:38:41.000Z</time>
      </trkpt>
      <trkpt lat="44.14547" lon="6.62502">
        <ele>2035.4000244141</ele>
        <time>2022-07-09T14:38:50.000Z</time>
      </trkpt>
      <trkpt lat="44.14547" lon="6.62502">
        <ele>2035.5999755859</ele>
        <time>2022-07-09T14:38:55.000Z</time>
      </trkpt>
      <trkpt lat="44.14547" lon="6.62501">
        <ele>2035.5999755859</ele>
        <time>2022-07-09T14:39:12.000Z</time>
      </trkpt>
      <trkpt lat="44.14548" lon="6.62503">
        <ele>2035.8000488281</ele>
        <time>2022-07-09T14:39:24.000Z</time>
      </trkpt>
      <trkpt lat="44.14549" lon="6.62504">
        <ele>2035.8000488281</ele>
        <time>2022-07-09T14:39:41.000Z</time>
      </trkpt>
      <trkpt lat="44.14549" lon="6.62503">
        <ele>2036.4000244141</ele>
        <time>2022-07-09T14:39:53.000Z</time>
      </trkpt>
      <trkpt lat="44.14548" lon="6.62503">
        <ele>2036.5999755859</ele>
        <time>2022-07-09T14:39:54.000Z</time>
      </trkpt>
      <trkpt lat="44.14549" lon="6.625">
        <ele>2036.5999755859</ele>
        <time>2022-07-09T14:39:59.000Z</time>
      </trkpt>
      <trkpt lat="44.14551" lon="6.62496">
        <ele>2036.5999755859</ele>
        <time>2022-07-09T14:40:01.000Z</time>
      </trkpt>
      <trkpt lat="44.14555" lon="6.6249">
        <ele>2036.1999511719</ele>
        <time>2022-07-09T14:40:04.000Z</time>
      </trkpt>
      <trkpt lat="44.14555" lon="6.6249">
        <ele>2035.5999755859</ele>
        <time>2022-07-09T14:40:06.000Z</time>
      </trkpt>
      <trkpt lat="44.14555" lon="6.6249">
        <ele>2035.4000244141</ele>
        <time>2022-07-09T14:40:07.000Z</time>
      </trkpt>
      <trkpt lat="44.14553" lon="6.62491">
        <ele>2035.1999511719</ele>
        <time>2022-07-09T14:40:11.000Z</time>
      </trkpt>
      <trkpt lat="44.1455" lon="6.62491">
        <ele>2034</ele>
        <time>2022-07-09T14:40:16.000Z</time>
      </trkpt>
      <trkpt lat="44.14548" lon="6.6249">
        <ele>2033.1999511719</ele>
        <time>2022-07-09T14:40:18.000Z</time>
      </trkpt>
      <trkpt lat="44.14547" lon="6.62491">
        <ele>2033</ele>
        <time>2022-07-09T14:40:19.000Z</time>
      </trkpt>
      <trkpt lat="44.14547" lon="6.62491">
        <ele>2032</ele>
        <time>2022-07-09T14:40:22.000Z</time>
      </trkpt>
      <trkpt lat="44.14545" lon="6.62492">
        <ele>2031.8000488281</ele>
        <time>2022-07-09T14:40:24.000Z</time>
      </trkpt>
      <trkpt lat="44.14538" lon="6.62497">
        <ele>2032</ele>
        <time>2022-07-09T14:40:29.000Z</time>
      </trkpt>
      <trkpt lat="44.14531" lon="6.62502">
        <ele>2031</ele>
        <time>2022-07-09T14:40:33.000Z</time>
      </trkpt>
      <trkpt lat="44.14529" lon="6.62502">
        <ele>2030.8000488281</ele>
        <time>2022-07-09T14:40:34.000Z</time>
      </trkpt>
      <trkpt lat="44.1452" lon="6.62499">
        <ele>2030.4000244141</ele>
        <time>2022-07-09T14:40:37.000Z</time>
      </trkpt>
      <trkpt lat="44.14513" lon="6.62498">
        <ele>2029.4000244141</ele>
        <time>2022-07-09T14:40:39.000Z</time>
      </trkpt>
      <trkpt lat="44.14504" lon="6.62496">
        <ele>2027.1999511719</ele>
        <time>2022-07-09T14:40:41.000Z</time>
      </trkpt>
      <trkpt lat="44.145" lon="6.62494">
        <ele>2025.8000488281</ele>
        <time>2022-07-09T14:40:42.000Z</time>
      </trkpt>
      <trkpt lat="44.14495" lon="6.62493">
        <ele>2024.4000244141</ele>
        <time>2022-07-09T14:40:43.000Z</time>
      </trkpt>
      <trkpt lat="44.1449" lon="6.62491">
        <ele>2023</ele>
        <time>2022-07-09T14:40:44.000Z</time>
      </trkpt>
      <trkpt lat="44.14486" lon="6.62488">
        <ele>2021.5999755859</ele>
        <time>2022-07-09T14:40:45.000Z</time>
      </trkpt>
      <trkpt lat="44.14478" lon="6.62482">
        <ele>2019.8000488281</ele>
        <time>2022-07-09T14:40:47.000Z</time>
      </trkpt>
      <trkpt lat="44.14476" lon="6.62477">
        <ele>2017.8000488281</ele>
        <time>2022-07-09T14:40:48.000Z</time>
      </trkpt>
      <trkpt lat="44.14474" lon="6.62472">
        <ele>2016.4000244141</ele>
        <time>2022-07-09T14:40:49.000Z</time>
      </trkpt>
      <trkpt lat="44.14471" lon="6.62466">
        <ele>2015.1999511719</ele>
        <time>2022-07-09T14:40:50.000Z</time>
      </trkpt>
      <trkpt lat="44.14469" lon="6.6246">
        <ele>2012.8000488281</ele>
        <time>2022-07-09T14:40:51.000Z</time>
      </trkpt>
      <trkpt lat="44.14466" lon="6.62455">
        <ele>2011</ele>
        <time>2022-07-09T14:40:52.000Z</time>
      </trkpt>
      <trkpt lat="44.14463" lon="6.62449">
        <ele>2009.4000244141</ele>
        <time>2022-07-09T14:40:53.000Z</time>
      </trkpt>
      <trkpt lat="44.14459" lon="6.62438">
        <ele>2007.1999511719</ele>
        <time>2022-07-09T14:40:55.000Z</time>
      </trkpt>
      <trkpt lat="44.14457" lon="6.62432">
        <ele>2006.1999511719</ele>
        <time>2022-07-09T14:40:56.000Z</time>
      </trkpt>
      <trkpt lat="44.14456" lon="6.62427">
        <ele>2004.8000488281</ele>
        <time>2022-07-09T14:40:57.000Z</time>
      </trkpt>
      <trkpt lat="44.14456" lon="6.62423">
        <ele>2003.4000244141</ele>
        <time>2022-07-09T14:40:58.000Z</time>
      </trkpt>
      <trkpt lat="44.14455" lon="6.62417">
        <ele>2001.1999511719</ele>
        <time>2022-07-09T14:40:59.000Z</time>
      </trkpt>
      <trkpt lat="44.14455" lon="6.62411">
        <ele>2000</ele>
        <time>2022-07-09T14:41:00.000Z</time>
      </trkpt>
      <trkpt lat="44.14456" lon="6.62405">
        <ele>1998</ele>
        <time>2022-07-09T14:41:01.000Z</time>
      </trkpt>
      <trkpt lat="44.14455" lon="6.624">
        <ele>1996.5999755859</ele>
        <time>2022-07-09T14:41:02.000Z</time>
      </trkpt>
      <trkpt lat="44.14456" lon="6.62391">
        <ele>1993.8000488281</ele>
        <time>2022-07-09T14:41:04.000Z</time>
      </trkpt>
      <trkpt lat="44.14457" lon="6.62386">
        <ele>1992.4000244141</ele>
        <time>2022-07-09T14:41:05.000Z</time>
      </trkpt>
      <trkpt lat="44.14457" lon="6.62381">
        <ele>1991.1999511719</ele>
        <time>2022-07-09T14:41:06.000Z</time>
      </trkpt>
      <trkpt lat="44.14457" lon="6.62371">
        <ele>1988.8000488281</ele>
        <time>2022-07-09T14:41:08.000Z</time>
      </trkpt>
      <trkpt lat="44.14457" lon="6.62362">
        <ele>1986.8000488281</ele>
        <time>2022-07-09T14:41:10.000Z</time>
      </trkpt>
      <trkpt lat="44.14458" lon="6.62357">
        <ele>1984.5999755859</ele>
        <time>2022-07-09T14:41:11.000Z</time>
      </trkpt>
      <trkpt lat="44.14458" lon="6.62353">
        <ele>1983.8000488281</ele>
        <time>2022-07-09T14:41:12.000Z</time>
      </trkpt>
      <trkpt lat="44.14458" lon="6.62342">
        <ele>1983.1999511719</ele>
        <time>2022-07-09T14:41:15.000Z</time>
      </trkpt>
      <trkpt lat="44.14458" lon="6.62339">
        <ele>1981</ele>
        <time>2022-07-09T14:41:16.000Z</time>
      </trkpt>
      <trkpt lat="44.14458" lon="6.62336">
        <ele>1979.5999755859</ele>
        <time>2022-07-09T14:41:17.000Z</time>
      </trkpt>
      <trkpt lat="44.14457" lon="6.62333">
        <ele>1978.4000244141</ele>
        <time>2022-07-09T14:41:18.000Z</time>
      </trkpt>
      <trkpt lat="44.14455" lon="6.62325">
        <ele>1976.4000244141</ele>
        <time>2022-07-09T14:41:20.000Z</time>
      </trkpt>
      <trkpt lat="44.14455" lon="6.62321">
        <ele>1975.4000244141</ele>
        <time>2022-07-09T14:41:21.000Z</time>
      </trkpt>
      <trkpt lat="44.14453" lon="6.62316">
        <ele>1974.1999511719</ele>
        <time>2022-07-09T14:41:22.000Z</time>
      </trkpt>
      <trkpt lat="44.14453" lon="6.62313">
        <ele>1973</ele>
        <time>2022-07-09T14:41:23.000Z</time>
      </trkpt>
      <trkpt lat="44.14453" lon="6.62311">
        <ele>1972.1999511719</ele>
        <time>2022-07-09T14:41:24.000Z</time>
      </trkpt>
      <trkpt lat="44.14455" lon="6.6231">
        <ele>1971.5999755859</ele>
        <time>2022-07-09T14:41:25.000Z</time>
      </trkpt>
      <trkpt lat="44.1446" lon="6.62309">
        <ele>1970.5999755859</ele>
        <time>2022-07-09T14:41:27.000Z</time>
      </trkpt>
      <trkpt lat="44.14463" lon="6.6231">
        <ele>1970</ele>
        <time>2022-07-09T14:41:28.000Z</time>
      </trkpt>
      <trkpt lat="44.14466" lon="6.62311">
        <ele>1969.4000244141</ele>
        <time>2022-07-09T14:41:29.000Z</time>
      </trkpt>
      <trkpt lat="44.14474" lon="6.62312">
        <ele>1968.5999755859</ele>
        <time>2022-07-09T14:41:31.000Z</time>
      </trkpt>
      <trkpt lat="44.14476" lon="6.62313">
        <ele>1967.8000488281</ele>
        <time>2022-07-09T14:41:32.000Z</time>
      </trkpt>
      <trkpt lat="44.14478" lon="6.62313">
        <ele>1966.5999755859</ele>
        <time>2022-07-09T14:41:33.000Z</time>
      </trkpt>
      <trkpt lat="44.14481" lon="6.6231">
        <ele>1965.5999755859</ele>
        <time>2022-07-09T14:41:36.000Z</time>
      </trkpt>
      <trkpt lat="44.14483" lon="6.62306">
        <ele>1965.4000244141</ele>
        <time>2022-07-09T14:41:37.000Z</time>
      </trkpt>
      <trkpt lat="44.14485" lon="6.62301">
        <ele>1964</ele>
        <time>2022-07-09T14:41:39.000Z</time>
      </trkpt>
      <trkpt lat="44.14486" lon="6.62298">
        <ele>1963</ele>
        <time>2022-07-09T14:41:40.000Z</time>
      </trkpt>
      <trkpt lat="44.14488" lon="6.62296">
        <ele>1962</ele>
        <time>2022-07-09T14:41:41.000Z</time>
      </trkpt>
      <trkpt lat="44.14489" lon="6.62294">
        <ele>1960.8000488281</ele>
        <time>2022-07-09T14:41:42.000Z</time>
      </trkpt>
      <trkpt lat="44.14491" lon="6.62291">
        <ele>1958.8000488281</ele>
        <time>2022-07-09T14:41:44.000Z</time>
      </trkpt>
      <trkpt lat="44.14493" lon="6.6229">
        <ele>1958</ele>
        <time>2022-07-09T14:41:45.000Z</time>
      </trkpt>
      <trkpt lat="44.14496" lon="6.6229">
        <ele>1957.1999511719</ele>
        <time>2022-07-09T14:41:46.000Z</time>
      </trkpt>
      <trkpt lat="44.14502" lon="6.6229">
        <ele>1956</ele>
        <time>2022-07-09T14:41:48.000Z</time>
      </trkpt>
      <trkpt lat="44.14505" lon="6.6229">
        <ele>1955.5999755859</ele>
        <time>2022-07-09T14:41:49.000Z</time>
      </trkpt>
      <trkpt lat="44.14512" lon="6.6229">
        <ele>1954.4000244141</ele>
        <time>2022-07-09T14:41:51.000Z</time>
      </trkpt>
      <trkpt lat="44.14514" lon="6.62287">
        <ele>1953</ele>
        <time>2022-07-09T14:41:53.000Z</time>
      </trkpt>
      <trkpt lat="44.14513" lon="6.62288">
        <ele>1952.4000244141</ele>
        <time>2022-07-09T14:41:54.000Z</time>
      </trkpt>
      <trkpt lat="44.14512" lon="6.62285">
        <ele>1952</ele>
        <time>2022-07-09T14:41:56.000Z</time>
      </trkpt>
      <trkpt lat="44.1451" lon="6.62283">
        <ele>1951.8000488281</ele>
        <time>2022-07-09T14:41:57.000Z</time>
      </trkpt>
      <trkpt lat="44.14509" lon="6.6228">
        <ele>1951.5999755859</ele>
        <time>2022-07-09T14:41:58.000Z</time>
      </trkpt>
      <trkpt lat="44.14507" lon="6.62277">
        <ele>1950.4000244141</ele>
        <time>2022-07-09T14:42:00.000Z</time>
      </trkpt>
      <trkpt lat="44.14509" lon="6.62276">
        <ele>1949.5999755859</ele>
        <time>2022-07-09T14:42:02.000Z</time>
      </trkpt>
      <trkpt lat="44.14511" lon="6.62275">
        <ele>1949.1999511719</ele>
        <time>2022-07-09T14:42:03.000Z</time>
      </trkpt>
      <trkpt lat="44.14512" lon="6.62275">
        <ele>1948</ele>
        <time>2022-07-09T14:42:07.000Z</time>
      </trkpt>
      <trkpt lat="44.14512" lon="6.62275">
        <ele>1946.8000488281</ele>
        <time>2022-07-09T14:42:11.000Z</time>
      </trkpt>
      <trkpt lat="44.14512" lon="6.62275">
        <ele>1945.5999755859</ele>
        <time>2022-07-09T14:42:16.000Z</time>
      </trkpt>
      <trkpt lat="44.14512" lon="6.62275">
        <ele>1944.5999755859</ele>
        <time>2022-07-09T14:42:25.000Z</time>
      </trkpt>
      <trkpt lat="44.14512" lon="6.62275">
        <ele>1944.1999511719</ele>
        <time>2022-07-09T14:42:28.000Z</time>
      </trkpt>
      <trkpt lat="44.14512" lon="6.62276">
        <ele>1943.5999755859</ele>
        <time>2022-07-09T14:42:32.000Z</time>
      </trkpt>
      <trkpt lat="44.14514" lon="6.62274">
        <ele>1943.1999511719</ele>
        <time>2022-07-09T14:42:39.000Z</time>
      </trkpt>
      <trkpt lat="44.14514" lon="6.62275">
        <ele>1942.8000488281</ele>
        <time>2022-07-09T14:42:49.000Z</time>
      </trkpt>
      <trkpt lat="44.14514" lon="6.62274">
        <ele>1943.1999511719</ele>
        <time>2022-07-09T14:43:00.000Z</time>
      </trkpt>
      <trkpt lat="44.14513" lon="6.62275">
        <ele>1943.4000244141</ele>
        <time>2022-07-09T14:43:22.000Z</time>
      </trkpt>
      <trkpt lat="44.14513" lon="6.62273">
        <ele>1944.1999511719</ele>
        <time>2022-07-09T14:43:40.000Z</time>
      </trkpt>
      <trkpt lat="44.14514" lon="6.62272">
        <ele>1944.5999755859</ele>
        <time>2022-07-09T14:43:44.000Z</time>
      </trkpt>
      <trkpt lat="44.14516" lon="6.62265">
        <ele>1944.4000244141</ele>
        <time>2022-07-09T14:43:47.000Z</time>
      </trkpt>
      <trkpt lat="44.14518" lon="6.62257">
        <ele>1943.4000244141</ele>
        <time>2022-07-09T14:43:50.000Z</time>
      </trkpt>
      <trkpt lat="44.14518" lon="6.62253">
        <ele>1942.5999755859</ele>
        <time>2022-07-09T14:43:52.000Z</time>
      </trkpt>
      <trkpt lat="44.14519" lon="6.6225">
        <ele>1942.1999511719</ele>
        <time>2022-07-09T14:43:53.000Z</time>
      </trkpt>
      <trkpt lat="44.14519" lon="6.62249">
        <ele>1942</ele>
        <time>2022-07-09T14:43:54.000Z</time>
      </trkpt>
      <trkpt lat="44.14521" lon="6.62244">
        <ele>1941</ele>
        <time>2022-07-09T14:43:56.000Z</time>
      </trkpt>
      <trkpt lat="44.14523" lon="6.62239">
        <ele>1941</ele>
        <time>2022-07-09T14:43:57.000Z</time>
      </trkpt>
      <trkpt lat="44.14528" lon="6.62219">
        <ele>1939.8000488281</ele>
        <time>2022-07-09T14:44:01.000Z</time>
      </trkpt>
      <trkpt lat="44.1453" lon="6.62215">
        <ele>1939.1999511719</ele>
        <time>2022-07-09T14:44:02.000Z</time>
      </trkpt>
      <trkpt lat="44.14532" lon="6.62211">
        <ele>1938.5999755859</ele>
        <time>2022-07-09T14:44:03.000Z</time>
      </trkpt>
      <trkpt lat="44.14534" lon="6.62206">
        <ele>1938</ele>
        <time>2022-07-09T14:44:04.000Z</time>
      </trkpt>
      <trkpt lat="44.14537" lon="6.62195">
        <ele>1937.4000244141</ele>
        <time>2022-07-09T14:44:06.000Z</time>
      </trkpt>
      <trkpt lat="44.14544" lon="6.62182">
        <ele>1936</ele>
        <time>2022-07-09T14:44:10.000Z</time>
      </trkpt>
      <trkpt lat="44.14558" lon="6.62166">
        <ele>1934.8000488281</ele>
        <time>2022-07-09T14:44:15.000Z</time>
      </trkpt>
      <trkpt lat="44.14562" lon="6.62157">
        <ele>1933.8000488281</ele>
        <time>2022-07-09T14:44:17.000Z</time>
      </trkpt>
      <trkpt lat="44.14569" lon="6.62145">
        <ele>1932.4000244141</ele>
        <time>2022-07-09T14:44:20.000Z</time>
      </trkpt>
      <trkpt lat="44.14577" lon="6.62139">
        <ele>1930.8000488281</ele>
        <time>2022-07-09T14:44:23.000Z</time>
      </trkpt>
      <trkpt lat="44.14579" lon="6.62139">
        <ele>1930.1999511719</ele>
        <time>2022-07-09T14:44:24.000Z</time>
      </trkpt>
      <trkpt lat="44.14582" lon="6.62139">
        <ele>1929.5999755859</ele>
        <time>2022-07-09T14:44:25.000Z</time>
      </trkpt>
      <trkpt lat="44.14589" lon="6.62135">
        <ele>1928.5999755859</ele>
        <time>2022-07-09T14:44:27.000Z</time>
      </trkpt>
      <trkpt lat="44.14592" lon="6.62131">
        <ele>1928.1999511719</ele>
        <time>2022-07-09T14:44:28.000Z</time>
      </trkpt>
      <trkpt lat="44.14596" lon="6.62129">
        <ele>1927.4000244141</ele>
        <time>2022-07-09T14:44:29.000Z</time>
      </trkpt>
      <trkpt lat="44.14603" lon="6.62122">
        <ele>1926.5999755859</ele>
        <time>2022-07-09T14:44:31.000Z</time>
      </trkpt>
      <trkpt lat="44.14611" lon="6.62113">
        <ele>1925.4000244141</ele>
        <time>2022-07-09T14:44:33.000Z</time>
      </trkpt>
      <trkpt lat="44.14614" lon="6.62108">
        <ele>1924</ele>
        <time>2022-07-09T14:44:34.000Z</time>
      </trkpt>
      <trkpt lat="44.14618" lon="6.62104">
        <ele>1922.8000488281</ele>
        <time>2022-07-09T14:44:35.000Z</time>
      </trkpt>
      <trkpt lat="44.1462" lon="6.62101">
        <ele>1921.4000244141</ele>
        <time>2022-07-09T14:44:36.000Z</time>
      </trkpt>
      <trkpt lat="44.14623" lon="6.62097">
        <ele>1920</ele>
        <time>2022-07-09T14:44:37.000Z</time>
      </trkpt>
      <trkpt lat="44.14626" lon="6.62093">
        <ele>1918.8000488281</ele>
        <time>2022-07-09T14:44:38.000Z</time>
      </trkpt>
      <trkpt lat="44.14628" lon="6.62091">
        <ele>1917.8000488281</ele>
        <time>2022-07-09T14:44:39.000Z</time>
      </trkpt>
      <trkpt lat="44.1463" lon="6.62089">
        <ele>1916.5999755859</ele>
        <time>2022-07-09T14:44:40.000Z</time>
      </trkpt>
      <trkpt lat="44.14634" lon="6.62085">
        <ele>1915.4000244141</ele>
        <time>2022-07-09T14:44:42.000Z</time>
      </trkpt>
      <trkpt lat="44.14639" lon="6.62079">
        <ele>1914.1999511719</ele>
        <time>2022-07-09T14:44:44.000Z</time>
      </trkpt>
      <trkpt lat="44.14647" lon="6.62073">
        <ele>1913</ele>
        <time>2022-07-09T14:44:46.000Z</time>
      </trkpt>
      <trkpt lat="44.14654" lon="6.62067">
        <ele>1911.4000244141</ele>
        <time>2022-07-09T14:44:48.000Z</time>
      </trkpt>
      <trkpt lat="44.14663" lon="6.62061">
        <ele>1910.1999511719</ele>
        <time>2022-07-09T14:44:50.000Z</time>
      </trkpt>
      <trkpt lat="44.14667" lon="6.62058">
        <ele>1908.5999755859</ele>
        <time>2022-07-09T14:44:51.000Z</time>
      </trkpt>
      <trkpt lat="44.1467" lon="6.62056">
        <ele>1907.8000488281</ele>
        <time>2022-07-09T14:44:52.000Z</time>
      </trkpt>
      <trkpt lat="44.14673" lon="6.62053">
        <ele>1906.8000488281</ele>
        <time>2022-07-09T14:44:53.000Z</time>
      </trkpt>
      <trkpt lat="44.14677" lon="6.62051">
        <ele>1905.8000488281</ele>
        <time>2022-07-09T14:44:54.000Z</time>
      </trkpt>
      <trkpt lat="44.14682" lon="6.62048">
        <ele>1904.5999755859</ele>
        <time>2022-07-09T14:44:55.000Z</time>
      </trkpt>
      <trkpt lat="44.14685" lon="6.62046">
        <ele>1903.4000244141</ele>
        <time>2022-07-09T14:44:56.000Z</time>
      </trkpt>
      <trkpt lat="44.14691" lon="6.62041">
        <ele>1901.8000488281</ele>
        <time>2022-07-09T14:44:58.000Z</time>
      </trkpt>
      <trkpt lat="44.147" lon="6.62037">
        <ele>1900.4000244141</ele>
        <time>2022-07-09T14:45:00.000Z</time>
      </trkpt>
      <trkpt lat="44.14704" lon="6.62036">
        <ele>1899.4000244141</ele>
        <time>2022-07-09T14:45:01.000Z</time>
      </trkpt>
      <trkpt lat="44.14708" lon="6.62033">
        <ele>1898.4000244141</ele>
        <time>2022-07-09T14:45:02.000Z</time>
      </trkpt>
      <trkpt lat="44.14712" lon="6.6203">
        <ele>1897.4000244141</ele>
        <time>2022-07-09T14:45:03.000Z</time>
      </trkpt>
      <trkpt lat="44.14721" lon="6.62028">
        <ele>1894.5999755859</ele>
        <time>2022-07-09T14:45:05.000Z</time>
      </trkpt>
      <trkpt lat="44.14723" lon="6.62026">
        <ele>1894.1999511719</ele>
        <time>2022-07-09T14:45:06.000Z</time>
      </trkpt>
      <trkpt lat="44.14727" lon="6.62024">
        <ele>1891.8000488281</ele>
        <time>2022-07-09T14:45:07.000Z</time>
      </trkpt>
      <trkpt lat="44.1473" lon="6.62023">
        <ele>1889.5999755859</ele>
        <time>2022-07-09T14:45:09.000Z</time>
      </trkpt>
      <trkpt lat="44.1473" lon="6.62019">
        <ele>1888.5999755859</ele>
        <time>2022-07-09T14:45:10.000Z</time>
      </trkpt>
      <trkpt lat="44.14729" lon="6.62014">
        <ele>1887.8000488281</ele>
        <time>2022-07-09T14:45:11.000Z</time>
      </trkpt>
      <trkpt lat="44.14725" lon="6.62009">
        <ele>1885.8000488281</ele>
        <time>2022-07-09T14:45:13.000Z</time>
      </trkpt>
      <trkpt lat="44.14724" lon="6.62007">
        <ele>1885.1999511719</ele>
        <time>2022-07-09T14:45:14.000Z</time>
      </trkpt>
      <trkpt lat="44.14724" lon="6.62003">
        <ele>1884.4000244141</ele>
        <time>2022-07-09T14:45:15.000Z</time>
      </trkpt>
      <trkpt lat="44.14726" lon="6.61999">
        <ele>1882.8000488281</ele>
        <time>2022-07-09T14:45:17.000Z</time>
      </trkpt>
      <trkpt lat="44.14727" lon="6.61997">
        <ele>1882</ele>
        <time>2022-07-09T14:45:18.000Z</time>
      </trkpt>
      <trkpt lat="44.14727" lon="6.61995">
        <ele>1881.4000244141</ele>
        <time>2022-07-09T14:45:19.000Z</time>
      </trkpt>
      <trkpt lat="44.14725" lon="6.61992">
        <ele>1880</ele>
        <time>2022-07-09T14:45:21.000Z</time>
      </trkpt>
      <trkpt lat="44.14725" lon="6.61993">
        <ele>1879.4000244141</ele>
        <time>2022-07-09T14:45:22.000Z</time>
      </trkpt>
      <trkpt lat="44.14725" lon="6.61993">
        <ele>1878.4000244141</ele>
        <time>2022-07-09T14:45:23.000Z</time>
      </trkpt>
      <trkpt lat="44.14725" lon="6.61993">
        <ele>1877.1999511719</ele>
        <time>2022-07-09T14:45:26.000Z</time>
      </trkpt>
      <trkpt lat="44.14725" lon="6.61993">
        <ele>1876.5999755859</ele>
        <time>2022-07-09T14:45:31.000Z</time>
      </trkpt>
      <trkpt lat="44.14723" lon="6.61992">
        <ele>1876.1999511719</ele>
        <time>2022-07-09T14:45:37.000Z</time>
      </trkpt>
      <trkpt lat="44.14719" lon="6.61993">
        <ele>1876.4000244141</ele>
        <time>2022-07-09T14:45:39.000Z</time>
      </trkpt>
      <trkpt lat="44.14715" lon="6.61995">
        <ele>1876</ele>
        <time>2022-07-09T14:45:41.000Z</time>
      </trkpt>
      <trkpt lat="44.14708" lon="6.61992">
        <ele>1874.5999755859</ele>
        <time>2022-07-09T14:45:44.000Z</time>
      </trkpt>
      <trkpt lat="44.14707" lon="6.6199">
        <ele>1873.5999755859</ele>
        <time>2022-07-09T14:45:45.000Z</time>
      </trkpt>
      <trkpt lat="44.147" lon="6.61989">
        <ele>1871.8000488281</ele>
        <time>2022-07-09T14:45:47.000Z</time>
      </trkpt>
      <trkpt lat="44.14696" lon="6.61989">
        <ele>1871.1999511719</ele>
        <time>2022-07-09T14:45:48.000Z</time>
      </trkpt>
      <trkpt lat="44.14691" lon="6.61989">
        <ele>1870.1999511719</ele>
        <time>2022-07-09T14:45:49.000Z</time>
      </trkpt>
      <trkpt lat="44.14681" lon="6.6199">
        <ele>1868.5999755859</ele>
        <time>2022-07-09T14:45:51.000Z</time>
      </trkpt>
      <trkpt lat="44.14673" lon="6.61988">
        <ele>1866.8000488281</ele>
        <time>2022-07-09T14:45:53.000Z</time>
      </trkpt>
      <trkpt lat="44.14663" lon="6.61986">
        <ele>1865.4000244141</ele>
        <time>2022-07-09T14:45:55.000Z</time>
      </trkpt>
      <trkpt lat="44.14658" lon="6.61986">
        <ele>1864.8000488281</ele>
        <time>2022-07-09T14:45:56.000Z</time>
      </trkpt>
      <trkpt lat="44.14653" lon="6.61985">
        <ele>1864.4000244141</ele>
        <time>2022-07-09T14:45:57.000Z</time>
      </trkpt>
      <trkpt lat="44.14649" lon="6.61985">
        <ele>1863.5999755859</ele>
        <time>2022-07-09T14:45:58.000Z</time>
      </trkpt>
      <trkpt lat="44.14643" lon="6.61986">
        <ele>1862.8000488281</ele>
        <time>2022-07-09T14:45:59.000Z</time>
      </trkpt>
      <trkpt lat="44.14639" lon="6.61986">
        <ele>1862.5999755859</ele>
        <time>2022-07-09T14:46:00.000Z</time>
      </trkpt>
      <trkpt lat="44.14634" lon="6.61987">
        <ele>1861.5999755859</ele>
        <time>2022-07-09T14:46:01.000Z</time>
      </trkpt>
      <trkpt lat="44.1463" lon="6.61989">
        <ele>1861.1999511719</ele>
        <time>2022-07-09T14:46:02.000Z</time>
      </trkpt>
      <trkpt lat="44.14626" lon="6.6199">
        <ele>1861</ele>
        <time>2022-07-09T14:46:03.000Z</time>
      </trkpt>
      <trkpt lat="44.14619" lon="6.61991">
        <ele>1860.5999755859</ele>
        <time>2022-07-09T14:46:05.000Z</time>
      </trkpt>
      <trkpt lat="44.14614" lon="6.6199">
        <ele>1860.5999755859</ele>
        <time>2022-07-09T14:46:06.000Z</time>
      </trkpt>
      <trkpt lat="44.14601" lon="6.6199">
        <ele>1860.1999511719</ele>
        <time>2022-07-09T14:46:09.000Z</time>
      </trkpt>
      <trkpt lat="44.14592" lon="6.61986">
        <ele>1859.4000244141</ele>
        <time>2022-07-09T14:46:11.000Z</time>
      </trkpt>
      <trkpt lat="44.14583" lon="6.6198">
        <ele>1858.8000488281</ele>
        <time>2022-07-09T14:46:13.000Z</time>
      </trkpt>
      <trkpt lat="44.14574" lon="6.61976">
        <ele>1858</ele>
        <time>2022-07-09T14:46:15.000Z</time>
      </trkpt>
      <trkpt lat="44.14567" lon="6.61972">
        <ele>1857.8000488281</ele>
        <time>2022-07-09T14:46:17.000Z</time>
      </trkpt>
      <trkpt lat="44.14561" lon="6.61973">
        <ele>1856.1999511719</ele>
        <time>2022-07-09T14:46:19.000Z</time>
      </trkpt>
      <trkpt lat="44.14555" lon="6.61971">
        <ele>1854.8000488281</ele>
        <time>2022-07-09T14:46:21.000Z</time>
      </trkpt>
      <trkpt lat="44.1455" lon="6.6197">
        <ele>1853.5999755859</ele>
        <time>2022-07-09T14:46:23.000Z</time>
      </trkpt>
      <trkpt lat="44.14549" lon="6.61965">
        <ele>1852.4000244141</ele>
        <time>2022-07-09T14:46:25.000Z</time>
      </trkpt>
      <trkpt lat="44.14552" lon="6.61963">
        <ele>1852</ele>
        <time>2022-07-09T14:46:26.000Z</time>
      </trkpt>
      <trkpt lat="44.14554" lon="6.6196">
        <ele>1851.1999511719</ele>
        <time>2022-07-09T14:46:27.000Z</time>
      </trkpt>
      <trkpt lat="44.14556" lon="6.61958">
        <ele>1850.4000244141</ele>
        <time>2022-07-09T14:46:28.000Z</time>
      </trkpt>
      <trkpt lat="44.14558" lon="6.61954">
        <ele>1849.5999755859</ele>
        <time>2022-07-09T14:46:29.000Z</time>
      </trkpt>
      <trkpt lat="44.1456" lon="6.61952">
        <ele>1848.4000244141</ele>
        <time>2022-07-09T14:46:30.000Z</time>
      </trkpt>
      <trkpt lat="44.14561" lon="6.61951">
        <ele>1847.5999755859</ele>
        <time>2022-07-09T14:46:31.000Z</time>
      </trkpt>
      <trkpt lat="44.1456" lon="6.6195">
        <ele>1846.8000488281</ele>
        <time>2022-07-09T14:46:32.000Z</time>
      </trkpt>
      <trkpt lat="44.14554" lon="6.6195">
        <ele>1845.4000244141</ele>
        <time>2022-07-09T14:46:34.000Z</time>
      </trkpt>
      <trkpt lat="44.1455" lon="6.61951">
        <ele>1844.1999511719</ele>
        <time>2022-07-09T14:46:36.000Z</time>
      </trkpt>
      <trkpt lat="44.14549" lon="6.61948">
        <ele>1843.5999755859</ele>
        <time>2022-07-09T14:46:37.000Z</time>
      </trkpt>
      <trkpt lat="44.14553" lon="6.61944">
        <ele>1842.5999755859</ele>
        <time>2022-07-09T14:46:39.000Z</time>
      </trkpt>
      <trkpt lat="44.14555" lon="6.61939">
        <ele>1841.5999755859</ele>
        <time>2022-07-09T14:46:40.000Z</time>
      </trkpt>
      <trkpt lat="44.14557" lon="6.61935">
        <ele>1840.8000488281</ele>
        <time>2022-07-09T14:46:41.000Z</time>
      </trkpt>
      <trkpt lat="44.14564" lon="6.61933">
        <ele>1839.1999511719</ele>
        <time>2022-07-09T14:46:43.000Z</time>
      </trkpt>
      <trkpt lat="44.14564" lon="6.6193">
        <ele>1838.1999511719</ele>
        <time>2022-07-09T14:46:44.000Z</time>
      </trkpt>
      <trkpt lat="44.14563" lon="6.61928">
        <ele>1837.5999755859</ele>
        <time>2022-07-09T14:46:45.000Z</time>
      </trkpt>
      <trkpt lat="44.14558" lon="6.61928">
        <ele>1836.1999511719</ele>
        <time>2022-07-09T14:46:47.000Z</time>
      </trkpt>
      <trkpt lat="44.14553" lon="6.61925">
        <ele>1834.8000488281</ele>
        <time>2022-07-09T14:46:50.000Z</time>
      </trkpt>
      <trkpt lat="44.14556" lon="6.61923">
        <ele>1834.5999755859</ele>
        <time>2022-07-09T14:46:51.000Z</time>
      </trkpt>
      <trkpt lat="44.1456" lon="6.6192">
        <ele>1833.5999755859</ele>
        <time>2022-07-09T14:46:53.000Z</time>
      </trkpt>
      <trkpt lat="44.14563" lon="6.61916">
        <ele>1832.4000244141</ele>
        <time>2022-07-09T14:46:55.000Z</time>
      </trkpt>
      <trkpt lat="44.14569" lon="6.61912">
        <ele>1831</ele>
        <time>2022-07-09T14:46:57.000Z</time>
      </trkpt>
      <trkpt lat="44.14573" lon="6.61911">
        <ele>1829.5999755859</ele>
        <time>2022-07-09T14:46:59.000Z</time>
      </trkpt>
      <trkpt lat="44.14573" lon="6.61908">
        <ele>1829.1999511719</ele>
        <time>2022-07-09T14:47:00.000Z</time>
      </trkpt>
      <trkpt lat="44.14571" lon="6.61908">
        <ele>1828</ele>
        <time>2022-07-09T14:47:01.000Z</time>
      </trkpt>
      <trkpt lat="44.14565" lon="6.61906">
        <ele>1827.1999511719</ele>
        <time>2022-07-09T14:47:03.000Z</time>
      </trkpt>
      <trkpt lat="44.1456" lon="6.61906">
        <ele>1826.4000244141</ele>
        <time>2022-07-09T14:47:04.000Z</time>
      </trkpt>
      <trkpt lat="44.14555" lon="6.61906">
        <ele>1826</ele>
        <time>2022-07-09T14:47:05.000Z</time>
      </trkpt>
      <trkpt lat="44.14546" lon="6.61908">
        <ele>1825.1999511719</ele>
        <time>2022-07-09T14:47:07.000Z</time>
      </trkpt>
      <trkpt lat="44.14536" lon="6.61909">
        <ele>1824</ele>
        <time>2022-07-09T14:47:10.000Z</time>
      </trkpt>
      <trkpt lat="44.14531" lon="6.6191">
        <ele>1823.1999511719</ele>
        <time>2022-07-09T14:47:11.000Z</time>
      </trkpt>
      <trkpt lat="44.14526" lon="6.61912">
        <ele>1822.8000488281</ele>
        <time>2022-07-09T14:47:12.000Z</time>
      </trkpt>
      <trkpt lat="44.14521" lon="6.61914">
        <ele>1822.1999511719</ele>
        <time>2022-07-09T14:47:13.000Z</time>
      </trkpt>
      <trkpt lat="44.14518" lon="6.61915">
        <ele>1821.4000244141</ele>
        <time>2022-07-09T14:47:14.000Z</time>
      </trkpt>
      <trkpt lat="44.14515" lon="6.61917">
        <ele>1820.5999755859</ele>
        <time>2022-07-09T14:47:15.000Z</time>
      </trkpt>
      <trkpt lat="44.14513" lon="6.61918">
        <ele>1820</ele>
        <time>2022-07-09T14:47:16.000Z</time>
      </trkpt>
      <trkpt lat="44.14507" lon="6.6192">
        <ele>1818.5999755859</ele>
        <time>2022-07-09T14:47:18.000Z</time>
      </trkpt>
      <trkpt lat="44.145" lon="6.61925">
        <ele>1817</ele>
        <time>2022-07-09T14:47:20.000Z</time>
      </trkpt>
      <trkpt lat="44.14496" lon="6.61927">
        <ele>1815.5999755859</ele>
        <time>2022-07-09T14:47:22.000Z</time>
      </trkpt>
      <trkpt lat="44.14492" lon="6.61927">
        <ele>1814.4000244141</ele>
        <time>2022-07-09T14:47:24.000Z</time>
      </trkpt>
      <trkpt lat="44.1449" lon="6.61928">
        <ele>1813.5999755859</ele>
        <time>2022-07-09T14:47:25.000Z</time>
      </trkpt>
      <trkpt lat="44.14487" lon="6.61929">
        <ele>1812.8000488281</ele>
        <time>2022-07-09T14:47:26.000Z</time>
      </trkpt>
      <trkpt lat="44.14482" lon="6.6193">
        <ele>1811.8000488281</ele>
        <time>2022-07-09T14:47:28.000Z</time>
      </trkpt>
      <trkpt lat="44.1448" lon="6.61931">
        <ele>1810.8000488281</ele>
        <time>2022-07-09T14:47:29.000Z</time>
      </trkpt>
      <trkpt lat="44.14476" lon="6.61932">
        <ele>1810</ele>
        <time>2022-07-09T14:47:30.000Z</time>
      </trkpt>
      <trkpt lat="44.14472" lon="6.61934">
        <ele>1809.1999511719</ele>
        <time>2022-07-09T14:47:31.000Z</time>
      </trkpt>
      <trkpt lat="44.14464" lon="6.61939">
        <ele>1807.4000244141</ele>
        <time>2022-07-09T14:47:33.000Z</time>
      </trkpt>
      <trkpt lat="44.14455" lon="6.61945">
        <ele>1806</ele>
        <time>2022-07-09T14:47:35.000Z</time>
      </trkpt>
      <trkpt lat="44.14448" lon="6.61951">
        <ele>1804.8000488281</ele>
        <time>2022-07-09T14:47:37.000Z</time>
      </trkpt>
      <trkpt lat="44.14442" lon="6.61956">
        <ele>1803.1999511719</ele>
        <time>2022-07-09T14:47:39.000Z</time>
      </trkpt>
      <trkpt lat="44.14437" lon="6.61958">
        <ele>1802.1999511719</ele>
        <time>2022-07-09T14:47:42.000Z</time>
      </trkpt>
      <trkpt lat="44.14435" lon="6.61956">
        <ele>1802.1999511719</ele>
        <time>2022-07-09T14:47:43.000Z</time>
      </trkpt>
      <trkpt lat="44.14435" lon="6.61953">
        <ele>1802</ele>
        <time>2022-07-09T14:47:44.000Z</time>
      </trkpt>
      <trkpt lat="44.14435" lon="6.61942">
        <ele>1801.5999755859</ele>
        <time>2022-07-09T14:47:47.000Z</time>
      </trkpt>
      <trkpt lat="44.14436" lon="6.61937">
        <ele>1801.1999511719</ele>
        <time>2022-07-09T14:47:49.000Z</time>
      </trkpt>
      <trkpt lat="44.14436" lon="6.61931">
        <ele>1801.1999511719</ele>
        <time>2022-07-09T14:47:51.000Z</time>
      </trkpt>
      <trkpt lat="44.14436" lon="6.61921">
        <ele>1802</ele>
        <time>2022-07-09T14:47:56.000Z</time>
      </trkpt>
      <trkpt lat="44.14436" lon="6.61918">
        <ele>1802.4000244141</ele>
        <time>2022-07-09T14:47:58.000Z</time>
      </trkpt>
      <trkpt lat="44.14435" lon="6.61907">
        <ele>1803.1999511719</ele>
        <time>2022-07-09T14:48:02.000Z</time>
      </trkpt>
      <trkpt lat="44.14435" lon="6.61904">
        <ele>1803.1999511719</ele>
        <time>2022-07-09T14:48:03.000Z</time>
      </trkpt>
      <trkpt lat="44.14436" lon="6.61903">
        <ele>1803.1999511719</ele>
        <time>2022-07-09T14:48:04.000Z</time>
      </trkpt>
      <trkpt lat="44.14436" lon="6.61896">
        <ele>1803.5999755859</ele>
        <time>2022-07-09T14:48:07.000Z</time>
      </trkpt>
      <trkpt lat="44.14437" lon="6.61894">
        <ele>1803.8000488281</ele>
        <time>2022-07-09T14:48:08.000Z</time>
      </trkpt>
      <trkpt lat="44.14438" lon="6.61884">
        <ele>1804.1999511719</ele>
        <time>2022-07-09T14:48:11.000Z</time>
      </trkpt>
      <trkpt lat="44.14437" lon="6.61862">
        <ele>1804.1999511719</ele>
        <time>2022-07-09T14:48:15.000Z</time>
      </trkpt>
      <trkpt lat="44.14441" lon="6.61846">
        <ele>1803.5999755859</ele>
        <time>2022-07-09T14:48:18.000Z</time>
      </trkpt>
      <trkpt lat="44.14443" lon="6.61839">
        <ele>1803.1999511719</ele>
        <time>2022-07-09T14:48:19.000Z</time>
      </trkpt>
      <trkpt lat="44.14447" lon="6.61824">
        <ele>1802.1999511719</ele>
        <time>2022-07-09T14:48:21.000Z</time>
      </trkpt>
      <trkpt lat="44.14448" lon="6.61817">
        <ele>1801.5999755859</ele>
        <time>2022-07-09T14:48:22.000Z</time>
      </trkpt>
      <trkpt lat="44.14448" lon="6.6181">
        <ele>1801</ele>
        <time>2022-07-09T14:48:23.000Z</time>
      </trkpt>
      <trkpt lat="44.14449" lon="6.61804">
        <ele>1800.4000244141</ele>
        <time>2022-07-09T14:48:24.000Z</time>
      </trkpt>
      <trkpt lat="44.14452" lon="6.61797">
        <ele>1800.1999511719</ele>
        <time>2022-07-09T14:48:25.000Z</time>
      </trkpt>
      <trkpt lat="44.14454" lon="6.61791">
        <ele>1799.4000244141</ele>
        <time>2022-07-09T14:48:26.000Z</time>
      </trkpt>
      <trkpt lat="44.14455" lon="6.61784">
        <ele>1799</ele>
        <time>2022-07-09T14:48:27.000Z</time>
      </trkpt>
      <trkpt lat="44.14459" lon="6.61773">
        <ele>1798</ele>
        <time>2022-07-09T14:48:29.000Z</time>
      </trkpt>
      <trkpt lat="44.14461" lon="6.61767">
        <ele>1797.4000244141</ele>
        <time>2022-07-09T14:48:30.000Z</time>
      </trkpt>
      <trkpt lat="44.14463" lon="6.61761">
        <ele>1797</ele>
        <time>2022-07-09T14:48:31.000Z</time>
      </trkpt>
      <trkpt lat="44.14465" lon="6.61756">
        <ele>1796.8000488281</ele>
        <time>2022-07-09T14:48:32.000Z</time>
      </trkpt>
      <trkpt lat="44.14479" lon="6.61736">
        <ele>1796</ele>
        <time>2022-07-09T14:48:36.000Z</time>
      </trkpt>
      <trkpt lat="44.14481" lon="6.6173">
        <ele>1795.5999755859</ele>
        <time>2022-07-09T14:48:37.000Z</time>
      </trkpt>
      <trkpt lat="44.14487" lon="6.61721">
        <ele>1795</ele>
        <time>2022-07-09T14:48:39.000Z</time>
      </trkpt>
      <trkpt lat="44.14489" lon="6.61717">
        <ele>1794.8000488281</ele>
        <time>2022-07-09T14:48:40.000Z</time>
      </trkpt>
      <trkpt lat="44.14498" lon="6.61706">
        <ele>1794.5999755859</ele>
        <time>2022-07-09T14:48:43.000Z</time>
      </trkpt>
      <trkpt lat="44.14498" lon="6.61703">
        <ele>1794.4000244141</ele>
        <time>2022-07-09T14:48:44.000Z</time>
      </trkpt>
      <trkpt lat="44.14508" lon="6.61687">
        <ele>1794.5999755859</ele>
        <time>2022-07-09T14:48:49.000Z</time>
      </trkpt>
      <trkpt lat="44.14521" lon="6.6167">
        <ele>1795.5999755859</ele>
        <time>2022-07-09T14:48:55.000Z</time>
      </trkpt>
      <trkpt lat="44.14523" lon="6.61667">
        <ele>1795.8000488281</ele>
        <time>2022-07-09T14:48:56.000Z</time>
      </trkpt>
      <trkpt lat="44.1453" lon="6.61654">
        <ele>1796.1999511719</ele>
        <time>2022-07-09T14:49:00.000Z</time>
      </trkpt>
      <trkpt lat="44.14539" lon="6.6164">
        <ele>1796.8000488281</ele>
        <time>2022-07-09T14:49:06.000Z</time>
      </trkpt>
      <trkpt lat="44.14544" lon="6.61629">
        <ele>1797.4000244141</ele>
        <time>2022-07-09T14:49:11.000Z</time>
      </trkpt>
      <trkpt lat="44.14548" lon="6.61623">
        <ele>1797.8000488281</ele>
        <time>2022-07-09T14:49:14.000Z</time>
      </trkpt>
      <trkpt lat="44.14551" lon="6.61617">
        <ele>1798.1999511719</ele>
        <time>2022-07-09T14:49:17.000Z</time>
      </trkpt>
      <trkpt lat="44.14552" lon="6.61614">
        <ele>1798.4000244141</ele>
        <time>2022-07-09T14:49:18.000Z</time>
      </trkpt>
      <trkpt lat="44.14552" lon="6.61609">
        <ele>1798.5999755859</ele>
        <time>2022-07-09T14:49:20.000Z</time>
      </trkpt>
      <trkpt lat="44.14553" lon="6.61609">
        <ele>1798.8000488281</ele>
        <time>2022-07-09T14:49:21.000Z</time>
      </trkpt>
      <trkpt lat="44.14553" lon="6.61609">
        <ele>1799.1999511719</ele>
        <time>2022-07-09T14:49:22.000Z</time>
      </trkpt>
      <trkpt lat="44.14556" lon="6.61606">
        <ele>1800</ele>
        <time>2022-07-09T14:49:26.000Z</time>
      </trkpt>
      <trkpt lat="44.14562" lon="6.61594">
        <ele>1800</ele>
        <time>2022-07-09T14:49:31.000Z</time>
      </trkpt>
      <trkpt lat="44.14566" lon="6.61585">
        <ele>1800.1999511719</ele>
        <time>2022-07-09T14:49:35.000Z</time>
      </trkpt>
      <trkpt lat="44.14569" lon="6.6158">
        <ele>1800.1999511719</ele>
        <time>2022-07-09T14:49:37.000Z</time>
      </trkpt>
      <trkpt lat="44.14573" lon="6.61565">
        <ele>1800.8000488281</ele>
        <time>2022-07-09T14:49:43.000Z</time>
      </trkpt>
      <trkpt lat="44.14578" lon="6.6155">
        <ele>1801.1999511719</ele>
        <time>2022-07-09T14:49:49.000Z</time>
      </trkpt>
      <trkpt lat="44.14579" lon="6.61547">
        <ele>1801.1999511719</ele>
        <time>2022-07-09T14:49:50.000Z</time>
      </trkpt>
      <trkpt lat="44.14582" lon="6.61531">
        <ele>1801.4000244141</ele>
        <time>2022-07-09T14:49:55.000Z</time>
      </trkpt>
      <trkpt lat="44.14583" lon="6.61518">
        <ele>1802.4000244141</ele>
        <time>2022-07-09T14:50:00.000Z</time>
      </trkpt>
      <trkpt lat="44.14585" lon="6.61512">
        <ele>1802.8000488281</ele>
        <time>2022-07-09T14:50:02.000Z</time>
      </trkpt>
      <trkpt lat="44.14591" lon="6.61497">
        <ele>1802.8000488281</ele>
        <time>2022-07-09T14:50:07.000Z</time>
      </trkpt>
      <trkpt lat="44.14592" lon="6.6149">
        <ele>1802.4000244141</ele>
        <time>2022-07-09T14:50:09.000Z</time>
      </trkpt>
      <trkpt lat="44.14593" lon="6.61483">
        <ele>1802.4000244141</ele>
        <time>2022-07-09T14:50:11.000Z</time>
      </trkpt>
      <trkpt lat="44.14594" lon="6.61477">
        <ele>1802.5999755859</ele>
        <time>2022-07-09T14:50:13.000Z</time>
      </trkpt>
      <trkpt lat="44.14593" lon="6.61471">
        <ele>1803.5999755859</ele>
        <time>2022-07-09T14:50:16.000Z</time>
      </trkpt>
      <trkpt lat="44.14587" lon="6.61463">
        <ele>1804</ele>
        <time>2022-07-09T14:50:21.000Z</time>
      </trkpt>
      <trkpt lat="44.14573" lon="6.6146">
        <ele>1802.5999755859</ele>
        <time>2022-07-09T14:50:26.000Z</time>
      </trkpt>
      <trkpt lat="44.1457" lon="6.61459">
        <ele>1801.8000488281</ele>
        <time>2022-07-09T14:50:27.000Z</time>
      </trkpt>
      <trkpt lat="44.14565" lon="6.61453">
        <ele>1800.5999755859</ele>
        <time>2022-07-09T14:50:29.000Z</time>
      </trkpt>
      <trkpt lat="44.14562" lon="6.61448">
        <ele>1799.5999755859</ele>
        <time>2022-07-09T14:50:30.000Z</time>
      </trkpt>
      <trkpt lat="44.14556" lon="6.61443">
        <ele>1798</ele>
        <time>2022-07-09T14:50:32.000Z</time>
      </trkpt>
      <trkpt lat="44.14557" lon="6.61439">
        <ele>1797.1999511719</ele>
        <time>2022-07-09T14:50:33.000Z</time>
      </trkpt>
      <trkpt lat="44.14559" lon="6.61438">
        <ele>1796.5999755859</ele>
        <time>2022-07-09T14:50:34.000Z</time>
      </trkpt>
      <trkpt lat="44.14563" lon="6.61438">
        <ele>1796.1999511719</ele>
        <time>2022-07-09T14:50:35.000Z</time>
      </trkpt>
      <trkpt lat="44.14567" lon="6.61441">
        <ele>1795.1999511719</ele>
        <time>2022-07-09T14:50:37.000Z</time>
      </trkpt>
      <trkpt lat="44.14567" lon="6.61439">
        <ele>1794.4000244141</ele>
        <time>2022-07-09T14:50:39.000Z</time>
      </trkpt>
      <trkpt lat="44.14566" lon="6.61436">
        <ele>1793.8000488281</ele>
        <time>2022-07-09T14:50:40.000Z</time>
      </trkpt>
      <trkpt lat="44.14564" lon="6.61425">
        <ele>1793.1999511719</ele>
        <time>2022-07-09T14:50:42.000Z</time>
      </trkpt>
      <trkpt lat="44.1456" lon="6.61415">
        <ele>1792.5999755859</ele>
        <time>2022-07-09T14:50:44.000Z</time>
      </trkpt>
      <trkpt lat="44.1456" lon="6.61406">
        <ele>1791.4000244141</ele>
        <time>2022-07-09T14:50:46.000Z</time>
      </trkpt>
      <trkpt lat="44.1456" lon="6.61398">
        <ele>1790</ele>
        <time>2022-07-09T14:50:48.000Z</time>
      </trkpt>
      <trkpt lat="44.14559" lon="6.61389">
        <ele>1788</ele>
        <time>2022-07-09T14:50:50.000Z</time>
      </trkpt>
      <trkpt lat="44.1456" lon="6.61385">
        <ele>1786.8000488281</ele>
        <time>2022-07-09T14:50:51.000Z</time>
      </trkpt>
      <trkpt lat="44.1456" lon="6.61382">
        <ele>1785.4000244141</ele>
        <time>2022-07-09T14:50:52.000Z</time>
      </trkpt>
      <trkpt lat="44.1456" lon="6.61379">
        <ele>1784.1999511719</ele>
        <time>2022-07-09T14:50:53.000Z</time>
      </trkpt>
      <trkpt lat="44.14561" lon="6.61376">
        <ele>1782.8000488281</ele>
        <time>2022-07-09T14:50:54.000Z</time>
      </trkpt>
      <trkpt lat="44.14563" lon="6.61374">
        <ele>1781.5999755859</ele>
        <time>2022-07-09T14:50:55.000Z</time>
      </trkpt>
      <trkpt lat="44.14564" lon="6.61372">
        <ele>1780.5999755859</ele>
        <time>2022-07-09T14:50:56.000Z</time>
      </trkpt>
      <trkpt lat="44.1456" lon="6.61367">
        <ele>1778.8000488281</ele>
        <time>2022-07-09T14:50:58.000Z</time>
      </trkpt>
      <trkpt lat="44.14555" lon="6.61367">
        <ele>1777.8000488281</ele>
        <time>2022-07-09T14:51:00.000Z</time>
      </trkpt>
      <trkpt lat="44.14549" lon="6.61364">
        <ele>1776.1999511719</ele>
        <time>2022-07-09T14:51:02.000Z</time>
      </trkpt>
      <trkpt lat="44.14545" lon="6.61365">
        <ele>1775</ele>
        <time>2022-07-09T14:51:03.000Z</time>
      </trkpt>
      <trkpt lat="44.14543" lon="6.61363">
        <ele>1773.8000488281</ele>
        <time>2022-07-09T14:51:04.000Z</time>
      </trkpt>
      <trkpt lat="44.14542" lon="6.6136">
        <ele>1772.5999755859</ele>
        <time>2022-07-09T14:51:05.000Z</time>
      </trkpt>
      <trkpt lat="44.14541" lon="6.61359">
        <ele>1771.5999755859</ele>
        <time>2022-07-09T14:51:06.000Z</time>
      </trkpt>
      <trkpt lat="44.14539" lon="6.61357">
        <ele>1770.4000244141</ele>
        <time>2022-07-09T14:51:07.000Z</time>
      </trkpt>
      <trkpt lat="44.14535" lon="6.61356">
        <ele>1769.1999511719</ele>
        <time>2022-07-09T14:51:08.000Z</time>
      </trkpt>
      <trkpt lat="44.14533" lon="6.61354">
        <ele>1767.1999511719</ele>
        <time>2022-07-09T14:51:10.000Z</time>
      </trkpt>
      <trkpt lat="44.14532" lon="6.61353">
        <ele>1766</ele>
        <time>2022-07-09T14:51:11.000Z</time>
      </trkpt>
      <trkpt lat="44.14533" lon="6.61352">
        <ele>1765</ele>
        <time>2022-07-09T14:51:12.000Z</time>
      </trkpt>
      <trkpt lat="44.14537" lon="6.61347">
        <ele>1763.4000244141</ele>
        <time>2022-07-09T14:51:14.000Z</time>
      </trkpt>
      <trkpt lat="44.1454" lon="6.61345">
        <ele>1762.4000244141</ele>
        <time>2022-07-09T14:51:16.000Z</time>
      </trkpt>
      <trkpt lat="44.14537" lon="6.61342">
        <ele>1761</ele>
        <time>2022-07-09T14:51:18.000Z</time>
      </trkpt>
      <trkpt lat="44.14533" lon="6.6134">
        <ele>1760.4000244141</ele>
        <time>2022-07-09T14:51:19.000Z</time>
      </trkpt>
      <trkpt lat="44.14529" lon="6.61337">
        <ele>1759.5999755859</ele>
        <time>2022-07-09T14:51:20.000Z</time>
      </trkpt>
      <trkpt lat="44.14526" lon="6.61335">
        <ele>1758.5999755859</ele>
        <time>2022-07-09T14:51:21.000Z</time>
      </trkpt>
      <trkpt lat="44.14521" lon="6.61333">
        <ele>1758.8000488281</ele>
        <time>2022-07-09T14:51:22.000Z</time>
      </trkpt>
      <trkpt lat="44.14513" lon="6.61329">
        <ele>1758.1999511719</ele>
        <time>2022-07-09T14:51:24.000Z</time>
      </trkpt>
      <trkpt lat="44.14505" lon="6.61325">
        <ele>1756.4000244141</ele>
        <time>2022-07-09T14:51:26.000Z</time>
      </trkpt>
      <trkpt lat="44.14495" lon="6.61319">
        <ele>1754.1999511719</ele>
        <time>2022-07-09T14:51:28.000Z</time>
      </trkpt>
      <trkpt lat="44.14491" lon="6.61319">
        <ele>1752.8000488281</ele>
        <time>2022-07-09T14:51:29.000Z</time>
      </trkpt>
      <trkpt lat="44.14486" lon="6.61319">
        <ele>1751.4000244141</ele>
        <time>2022-07-09T14:51:30.000Z</time>
      </trkpt>
      <trkpt lat="44.1448" lon="6.61319">
        <ele>1750.4000244141</ele>
        <time>2022-07-09T14:51:31.000Z</time>
      </trkpt>
      <trkpt lat="44.14476" lon="6.61318">
        <ele>1749</ele>
        <time>2022-07-09T14:51:32.000Z</time>
      </trkpt>
      <trkpt lat="44.1447" lon="6.61319">
        <ele>1747</ele>
        <time>2022-07-09T14:51:34.000Z</time>
      </trkpt>
      <trkpt lat="44.14466" lon="6.61319">
        <ele>1746</ele>
        <time>2022-07-09T14:51:35.000Z</time>
      </trkpt>
      <trkpt lat="44.14463" lon="6.61318">
        <ele>1744.8000488281</ele>
        <time>2022-07-09T14:51:36.000Z</time>
      </trkpt>
      <trkpt lat="44.14459" lon="6.61316">
        <ele>1743.8000488281</ele>
        <time>2022-07-09T14:51:37.000Z</time>
      </trkpt>
      <trkpt lat="44.14455" lon="6.61316">
        <ele>1742.4000244141</ele>
        <time>2022-07-09T14:51:38.000Z</time>
      </trkpt>
      <trkpt lat="44.14451" lon="6.61317">
        <ele>1740.8000488281</ele>
        <time>2022-07-09T14:51:39.000Z</time>
      </trkpt>
      <trkpt lat="44.14447" lon="6.61316">
        <ele>1739.1999511719</ele>
        <time>2022-07-09T14:51:40.000Z</time>
      </trkpt>
      <trkpt lat="44.14443" lon="6.61315">
        <ele>1737.5999755859</ele>
        <time>2022-07-09T14:51:41.000Z</time>
      </trkpt>
      <trkpt lat="44.1444" lon="6.61313">
        <ele>1736.4000244141</ele>
        <time>2022-07-09T14:51:42.000Z</time>
      </trkpt>
      <trkpt lat="44.14436" lon="6.61311">
        <ele>1735</ele>
        <time>2022-07-09T14:51:43.000Z</time>
      </trkpt>
      <trkpt lat="44.14432" lon="6.61308">
        <ele>1733.1999511719</ele>
        <time>2022-07-09T14:51:44.000Z</time>
      </trkpt>
      <trkpt lat="44.14429" lon="6.61304">
        <ele>1731.1999511719</ele>
        <time>2022-07-09T14:51:45.000Z</time>
      </trkpt>
      <trkpt lat="44.14427" lon="6.613">
        <ele>1729.8000488281</ele>
        <time>2022-07-09T14:51:46.000Z</time>
      </trkpt>
      <trkpt lat="44.14424" lon="6.61297">
        <ele>1728.4000244141</ele>
        <time>2022-07-09T14:51:47.000Z</time>
      </trkpt>
      <trkpt lat="44.1442" lon="6.61294">
        <ele>1726.5999755859</ele>
        <time>2022-07-09T14:51:48.000Z</time>
      </trkpt>
      <trkpt lat="44.14417" lon="6.61291">
        <ele>1725.1999511719</ele>
        <time>2022-07-09T14:51:49.000Z</time>
      </trkpt>
      <trkpt lat="44.14414" lon="6.61287">
        <ele>1723.5999755859</ele>
        <time>2022-07-09T14:51:50.000Z</time>
      </trkpt>
      <trkpt lat="44.1441" lon="6.61283">
        <ele>1722</ele>
        <time>2022-07-09T14:51:51.000Z</time>
      </trkpt>
      <trkpt lat="44.14405" lon="6.6128">
        <ele>1720.5999755859</ele>
        <time>2022-07-09T14:51:52.000Z</time>
      </trkpt>
      <trkpt lat="44.14401" lon="6.61277">
        <ele>1719.1999511719</ele>
        <time>2022-07-09T14:51:53.000Z</time>
      </trkpt>
      <trkpt lat="44.14395" lon="6.61271">
        <ele>1717.4000244141</ele>
        <time>2022-07-09T14:51:55.000Z</time>
      </trkpt>
      <trkpt lat="44.14392" lon="6.61266">
        <ele>1716.4000244141</ele>
        <time>2022-07-09T14:51:56.000Z</time>
      </trkpt>
      <trkpt lat="44.14387" lon="6.61261">
        <ele>1714.1999511719</ele>
        <time>2022-07-09T14:51:57.000Z</time>
      </trkpt>
      <trkpt lat="44.14382" lon="6.61256">
        <ele>1713.1999511719</ele>
        <time>2022-07-09T14:51:58.000Z</time>
      </trkpt>
      <trkpt lat="44.14378" lon="6.61252">
        <ele>1711.8000488281</ele>
        <time>2022-07-09T14:51:59.000Z</time>
      </trkpt>
      <trkpt lat="44.14375" lon="6.61247">
        <ele>1710.8000488281</ele>
        <time>2022-07-09T14:52:00.000Z</time>
      </trkpt>
      <trkpt lat="44.1437" lon="6.6124">
        <ele>1709.1999511719</ele>
        <time>2022-07-09T14:52:01.000Z</time>
      </trkpt>
      <trkpt lat="44.14366" lon="6.61237">
        <ele>1707.5999755859</ele>
        <time>2022-07-09T14:52:02.000Z</time>
      </trkpt>
      <trkpt lat="44.14363" lon="6.61233">
        <ele>1706.1999511719</ele>
        <time>2022-07-09T14:52:03.000Z</time>
      </trkpt>
      <trkpt lat="44.14361" lon="6.61232">
        <ele>1705.1999511719</ele>
        <time>2022-07-09T14:52:04.000Z</time>
      </trkpt>
      <trkpt lat="44.14359" lon="6.61229">
        <ele>1703.8000488281</ele>
        <time>2022-07-09T14:52:05.000Z</time>
      </trkpt>
      <trkpt lat="44.1436" lon="6.61225">
        <ele>1702.4000244141</ele>
        <time>2022-07-09T14:52:06.000Z</time>
      </trkpt>
      <trkpt lat="44.1436" lon="6.61221">
        <ele>1700.8000488281</ele>
        <time>2022-07-09T14:52:07.000Z</time>
      </trkpt>
      <trkpt lat="44.14359" lon="6.61219">
        <ele>1699.5999755859</ele>
        <time>2022-07-09T14:52:08.000Z</time>
      </trkpt>
      <trkpt lat="44.14356" lon="6.61219">
        <ele>1698.4000244141</ele>
        <time>2022-07-09T14:52:09.000Z</time>
      </trkpt>
      <trkpt lat="44.14353" lon="6.6122">
        <ele>1697.4000244141</ele>
        <time>2022-07-09T14:52:10.000Z</time>
      </trkpt>
      <trkpt lat="44.14349" lon="6.61219">
        <ele>1696.1999511719</ele>
        <time>2022-07-09T14:52:11.000Z</time>
      </trkpt>
      <trkpt lat="44.14352" lon="6.61209">
        <ele>1694.4000244141</ele>
        <time>2022-07-09T14:52:13.000Z</time>
      </trkpt>
      <trkpt lat="44.14357" lon="6.61202">
        <ele>1693.1999511719</ele>
        <time>2022-07-09T14:52:15.000Z</time>
      </trkpt>
      <trkpt lat="44.14356" lon="6.612">
        <ele>1692.1999511719</ele>
        <time>2022-07-09T14:52:16.000Z</time>
      </trkpt>
      <trkpt lat="44.14354" lon="6.61198">
        <ele>1691.4000244141</ele>
        <time>2022-07-09T14:52:17.000Z</time>
      </trkpt>
      <trkpt lat="44.14346" lon="6.61196">
        <ele>1689.4000244141</ele>
        <time>2022-07-09T14:52:19.000Z</time>
      </trkpt>
      <trkpt lat="44.14341" lon="6.61189">
        <ele>1687.5999755859</ele>
        <time>2022-07-09T14:52:21.000Z</time>
      </trkpt>
      <trkpt lat="44.14342" lon="6.61185">
        <ele>1686.8000488281</ele>
        <time>2022-07-09T14:52:22.000Z</time>
      </trkpt>
      <trkpt lat="44.14347" lon="6.61183">
        <ele>1686</ele>
        <time>2022-07-09T14:52:23.000Z</time>
      </trkpt>
      <trkpt lat="44.14349" lon="6.6118">
        <ele>1685.1999511719</ele>
        <time>2022-07-09T14:52:24.000Z</time>
      </trkpt>
      <trkpt lat="44.1435" lon="6.61178">
        <ele>1684.5999755859</ele>
        <time>2022-07-09T14:52:25.000Z</time>
      </trkpt>
      <trkpt lat="44.14345" lon="6.61174">
        <ele>1683.4000244141</ele>
        <time>2022-07-09T14:52:27.000Z</time>
      </trkpt>
      <trkpt lat="44.14336" lon="6.61169">
        <ele>1682.1999511719</ele>
        <time>2022-07-09T14:52:29.000Z</time>
      </trkpt>
      <trkpt lat="44.14331" lon="6.61168">
        <ele>1681.8000488281</ele>
        <time>2022-07-09T14:52:30.000Z</time>
      </trkpt>
      <trkpt lat="44.14326" lon="6.61168">
        <ele>1680.8000488281</ele>
        <time>2022-07-09T14:52:31.000Z</time>
      </trkpt>
      <trkpt lat="44.14322" lon="6.61168">
        <ele>1679.8000488281</ele>
        <time>2022-07-09T14:52:32.000Z</time>
      </trkpt>
      <trkpt lat="44.14313" lon="6.61168">
        <ele>1678</ele>
        <time>2022-07-09T14:52:34.000Z</time>
      </trkpt>
      <trkpt lat="44.14304" lon="6.61169">
        <ele>1676.4000244141</ele>
        <time>2022-07-09T14:52:36.000Z</time>
      </trkpt>
      <trkpt lat="44.14299" lon="6.61169">
        <ele>1675.1999511719</ele>
        <time>2022-07-09T14:52:37.000Z</time>
      </trkpt>
      <trkpt lat="44.14294" lon="6.61172">
        <ele>1674.1999511719</ele>
        <time>2022-07-09T14:52:38.000Z</time>
      </trkpt>
      <trkpt lat="44.14287" lon="6.61175">
        <ele>1673.1999511719</ele>
        <time>2022-07-09T14:52:39.000Z</time>
      </trkpt>
      <trkpt lat="44.14281" lon="6.61178">
        <ele>1672</ele>
        <time>2022-07-09T14:52:40.000Z</time>
      </trkpt>
      <trkpt lat="44.14277" lon="6.6118">
        <ele>1670.5999755859</ele>
        <time>2022-07-09T14:52:41.000Z</time>
      </trkpt>
      <trkpt lat="44.14272" lon="6.61179">
        <ele>1669.5999755859</ele>
        <time>2022-07-09T14:52:42.000Z</time>
      </trkpt>
      <trkpt lat="44.14266" lon="6.61177">
        <ele>1668.4000244141</ele>
        <time>2022-07-09T14:52:43.000Z</time>
      </trkpt>
      <trkpt lat="44.14262" lon="6.61175">
        <ele>1667.4000244141</ele>
        <time>2022-07-09T14:52:44.000Z</time>
      </trkpt>
      <trkpt lat="44.14255" lon="6.61172">
        <ele>1665.8000488281</ele>
        <time>2022-07-09T14:52:45.000Z</time>
      </trkpt>
      <trkpt lat="44.14248" lon="6.61169">
        <ele>1664.5999755859</ele>
        <time>2022-07-09T14:52:46.000Z</time>
      </trkpt>
      <trkpt lat="44.14243" lon="6.61166">
        <ele>1663</ele>
        <time>2022-07-09T14:52:47.000Z</time>
      </trkpt>
      <trkpt lat="44.14238" lon="6.61162">
        <ele>1661.4000244141</ele>
        <time>2022-07-09T14:52:48.000Z</time>
      </trkpt>
      <trkpt lat="44.14233" lon="6.61156">
        <ele>1660.1999511719</ele>
        <time>2022-07-09T14:52:49.000Z</time>
      </trkpt>
      <trkpt lat="44.14228" lon="6.61152">
        <ele>1658.1999511719</ele>
        <time>2022-07-09T14:52:50.000Z</time>
      </trkpt>
      <trkpt lat="44.14224" lon="6.61151">
        <ele>1656.4000244141</ele>
        <time>2022-07-09T14:52:51.000Z</time>
      </trkpt>
      <trkpt lat="44.1422" lon="6.61147">
        <ele>1654.8000488281</ele>
        <time>2022-07-09T14:52:52.000Z</time>
      </trkpt>
      <trkpt lat="44.14218" lon="6.61143">
        <ele>1653.5999755859</ele>
        <time>2022-07-09T14:52:53.000Z</time>
      </trkpt>
      <trkpt lat="44.14214" lon="6.61142">
        <ele>1651.8000488281</ele>
        <time>2022-07-09T14:52:54.000Z</time>
      </trkpt>
      <trkpt lat="44.1421" lon="6.61142">
        <ele>1650.5999755859</ele>
        <time>2022-07-09T14:52:55.000Z</time>
      </trkpt>
      <trkpt lat="44.14211" lon="6.61137">
        <ele>1649.5999755859</ele>
        <time>2022-07-09T14:52:56.000Z</time>
      </trkpt>
      <trkpt lat="44.14213" lon="6.61135">
        <ele>1648.8000488281</ele>
        <time>2022-07-09T14:52:57.000Z</time>
      </trkpt>
      <trkpt lat="44.14217" lon="6.61134">
        <ele>1647.5999755859</ele>
        <time>2022-07-09T14:52:58.000Z</time>
      </trkpt>
      <trkpt lat="44.1422" lon="6.61131">
        <ele>1647</ele>
        <time>2022-07-09T14:52:59.000Z</time>
      </trkpt>
      <trkpt lat="44.14223" lon="6.61128">
        <ele>1646</ele>
        <time>2022-07-09T14:53:00.000Z</time>
      </trkpt>
      <trkpt lat="44.14227" lon="6.61127">
        <ele>1645.1999511719</ele>
        <time>2022-07-09T14:53:01.000Z</time>
      </trkpt>
      <trkpt lat="44.14229" lon="6.61126">
        <ele>1644.4000244141</ele>
        <time>2022-07-09T14:53:02.000Z</time>
      </trkpt>
      <trkpt lat="44.14229" lon="6.61124">
        <ele>1643.8000488281</ele>
        <time>2022-07-09T14:53:03.000Z</time>
      </trkpt>
      <trkpt lat="44.14229" lon="6.61124">
        <ele>1643.1999511719</ele>
        <time>2022-07-09T14:53:04.000Z</time>
      </trkpt>
      <trkpt lat="44.14226" lon="6.61121">
        <ele>1642.5999755859</ele>
        <time>2022-07-09T14:53:05.000Z</time>
      </trkpt>
      <trkpt lat="44.14223" lon="6.61117">
        <ele>1642</ele>
        <time>2022-07-09T14:53:06.000Z</time>
      </trkpt>
      <trkpt lat="44.14214" lon="6.61113">
        <ele>1640.8000488281</ele>
        <time>2022-07-09T14:53:08.000Z</time>
      </trkpt>
      <trkpt lat="44.14209" lon="6.61113">
        <ele>1639.8000488281</ele>
        <time>2022-07-09T14:53:09.000Z</time>
      </trkpt>
      <trkpt lat="44.14204" lon="6.61113">
        <ele>1638.8000488281</ele>
        <time>2022-07-09T14:53:10.000Z</time>
      </trkpt>
      <trkpt lat="44.14199" lon="6.61113">
        <ele>1637.8000488281</ele>
        <time>2022-07-09T14:53:11.000Z</time>
      </trkpt>
      <trkpt lat="44.14193" lon="6.61111">
        <ele>1636.4000244141</ele>
        <time>2022-07-09T14:53:12.000Z</time>
      </trkpt>
      <trkpt lat="44.14187" lon="6.6111">
        <ele>1635</ele>
        <time>2022-07-09T14:53:13.000Z</time>
      </trkpt>
      <trkpt lat="44.14182" lon="6.6111">
        <ele>1633.4000244141</ele>
        <time>2022-07-09T14:53:14.000Z</time>
      </trkpt>
      <trkpt lat="44.14176" lon="6.61111">
        <ele>1631.8000488281</ele>
        <time>2022-07-09T14:53:15.000Z</time>
      </trkpt>
      <trkpt lat="44.1417" lon="6.61111">
        <ele>1630.4000244141</ele>
        <time>2022-07-09T14:53:16.000Z</time>
      </trkpt>
      <trkpt lat="44.14165" lon="6.61111">
        <ele>1629</ele>
        <time>2022-07-09T14:53:17.000Z</time>
      </trkpt>
      <trkpt lat="44.1416" lon="6.61111">
        <ele>1627.4000244141</ele>
        <time>2022-07-09T14:53:18.000Z</time>
      </trkpt>
      <trkpt lat="44.14155" lon="6.61109">
        <ele>1626.1999511719</ele>
        <time>2022-07-09T14:53:19.000Z</time>
      </trkpt>
      <trkpt lat="44.14151" lon="6.61107">
        <ele>1625.1999511719</ele>
        <time>2022-07-09T14:53:20.000Z</time>
      </trkpt>
      <trkpt lat="44.14147" lon="6.61105">
        <ele>1624</ele>
        <time>2022-07-09T14:53:21.000Z</time>
      </trkpt>
      <trkpt lat="44.14143" lon="6.61104">
        <ele>1622.8000488281</ele>
        <time>2022-07-09T14:53:22.000Z</time>
      </trkpt>
      <trkpt lat="44.1414" lon="6.61104">
        <ele>1621</ele>
        <time>2022-07-09T14:53:23.000Z</time>
      </trkpt>
      <trkpt lat="44.14138" lon="6.61103">
        <ele>1619.5999755859</ele>
        <time>2022-07-09T14:53:24.000Z</time>
      </trkpt>
      <trkpt lat="44.1414" lon="6.61098">
        <ele>1617.8000488281</ele>
        <time>2022-07-09T14:53:26.000Z</time>
      </trkpt>
      <trkpt lat="44.14144" lon="6.61095">
        <ele>1616.4000244141</ele>
        <time>2022-07-09T14:53:27.000Z</time>
      </trkpt>
      <trkpt lat="44.14145" lon="6.61094">
        <ele>1615.1999511719</ele>
        <time>2022-07-09T14:53:28.000Z</time>
      </trkpt>
      <trkpt lat="44.14144" lon="6.61093">
        <ele>1614.4000244141</ele>
        <time>2022-07-09T14:53:29.000Z</time>
      </trkpt>
      <trkpt lat="44.14141" lon="6.61092">
        <ele>1613.4000244141</ele>
        <time>2022-07-09T14:53:30.000Z</time>
      </trkpt>
      <trkpt lat="44.14135" lon="6.61094">
        <ele>1612</ele>
        <time>2022-07-09T14:53:32.000Z</time>
      </trkpt>
      <trkpt lat="44.14129" lon="6.61093">
        <ele>1610.5999755859</ele>
        <time>2022-07-09T14:53:35.000Z</time>
      </trkpt>
      <trkpt lat="44.14128" lon="6.61091">
        <ele>1609.5999755859</ele>
        <time>2022-07-09T14:53:36.000Z</time>
      </trkpt>
      <trkpt lat="44.1413" lon="6.61087">
        <ele>1608.8000488281</ele>
        <time>2022-07-09T14:53:37.000Z</time>
      </trkpt>
      <trkpt lat="44.14132" lon="6.61082">
        <ele>1607.8000488281</ele>
        <time>2022-07-09T14:53:38.000Z</time>
      </trkpt>
      <trkpt lat="44.14135" lon="6.61077">
        <ele>1607</ele>
        <time>2022-07-09T14:53:39.000Z</time>
      </trkpt>
      <trkpt lat="44.1414" lon="6.61067">
        <ele>1605.4000244141</ele>
        <time>2022-07-09T14:53:41.000Z</time>
      </trkpt>
      <trkpt lat="44.14142" lon="6.61062">
        <ele>1604.5999755859</ele>
        <time>2022-07-09T14:53:42.000Z</time>
      </trkpt>
      <trkpt lat="44.14144" lon="6.61057">
        <ele>1603.5999755859</ele>
        <time>2022-07-09T14:53:43.000Z</time>
      </trkpt>
      <trkpt lat="44.14147" lon="6.61054">
        <ele>1601.5999755859</ele>
        <time>2022-07-09T14:53:44.000Z</time>
      </trkpt>
      <trkpt lat="44.14149" lon="6.61053">
        <ele>1600.1999511719</ele>
        <time>2022-07-09T14:53:45.000Z</time>
      </trkpt>
      <trkpt lat="44.14149" lon="6.61052">
        <ele>1599</ele>
        <time>2022-07-09T14:53:46.000Z</time>
      </trkpt>
      <trkpt lat="44.14147" lon="6.61051">
        <ele>1597.8000488281</ele>
        <time>2022-07-09T14:53:47.000Z</time>
      </trkpt>
      <trkpt lat="44.14144" lon="6.61051">
        <ele>1596.8000488281</ele>
        <time>2022-07-09T14:53:48.000Z</time>
      </trkpt>
      <trkpt lat="44.14136" lon="6.61048">
        <ele>1595</ele>
        <time>2022-07-09T14:53:50.000Z</time>
      </trkpt>
      <trkpt lat="44.14132" lon="6.6105">
        <ele>1593.5999755859</ele>
        <time>2022-07-09T14:53:52.000Z</time>
      </trkpt>
      <trkpt lat="44.1413" lon="6.61049">
        <ele>1593</ele>
        <time>2022-07-09T14:53:53.000Z</time>
      </trkpt>
      <trkpt lat="44.14131" lon="6.61045">
        <ele>1592.1999511719</ele>
        <time>2022-07-09T14:53:54.000Z</time>
      </trkpt>
      <trkpt lat="44.14133" lon="6.6104">
        <ele>1591.1999511719</ele>
        <time>2022-07-09T14:53:55.000Z</time>
      </trkpt>
      <trkpt lat="44.14136" lon="6.61035">
        <ele>1590.4000244141</ele>
        <time>2022-07-09T14:53:56.000Z</time>
      </trkpt>
      <trkpt lat="44.1414" lon="6.61027">
        <ele>1588.8000488281</ele>
        <time>2022-07-09T14:53:58.000Z</time>
      </trkpt>
      <trkpt lat="44.1414" lon="6.61023">
        <ele>1588</ele>
        <time>2022-07-09T14:53:59.000Z</time>
      </trkpt>
      <trkpt lat="44.14141" lon="6.61018">
        <ele>1587.1999511719</ele>
        <time>2022-07-09T14:54:00.000Z</time>
      </trkpt>
      <trkpt lat="44.14143" lon="6.61012">
        <ele>1586.1999511719</ele>
        <time>2022-07-09T14:54:01.000Z</time>
      </trkpt>
      <trkpt lat="44.14145" lon="6.61007">
        <ele>1585</ele>
        <time>2022-07-09T14:54:02.000Z</time>
      </trkpt>
      <trkpt lat="44.14146" lon="6.61001">
        <ele>1583.4000244141</ele>
        <time>2022-07-09T14:54:03.000Z</time>
      </trkpt>
      <trkpt lat="44.14148" lon="6.60996">
        <ele>1581.8000488281</ele>
        <time>2022-07-09T14:54:04.000Z</time>
      </trkpt>
      <trkpt lat="44.14149" lon="6.6099">
        <ele>1580.5999755859</ele>
        <time>2022-07-09T14:54:05.000Z</time>
      </trkpt>
      <trkpt lat="44.1415" lon="6.60987">
        <ele>1578.8000488281</ele>
        <time>2022-07-09T14:54:06.000Z</time>
      </trkpt>
      <trkpt lat="44.14148" lon="6.60984">
        <ele>1577.8000488281</ele>
        <time>2022-07-09T14:54:07.000Z</time>
      </trkpt>
      <trkpt lat="44.14146" lon="6.60984">
        <ele>1576.5999755859</ele>
        <time>2022-07-09T14:54:08.000Z</time>
      </trkpt>
      <trkpt lat="44.14142" lon="6.60986">
        <ele>1575.5999755859</ele>
        <time>2022-07-09T14:54:09.000Z</time>
      </trkpt>
      <trkpt lat="44.14138" lon="6.60987">
        <ele>1574.4000244141</ele>
        <time>2022-07-09T14:54:10.000Z</time>
      </trkpt>
      <trkpt lat="44.14134" lon="6.60989">
        <ele>1573.5999755859</ele>
        <time>2022-07-09T14:54:11.000Z</time>
      </trkpt>
      <trkpt lat="44.1413" lon="6.6099">
        <ele>1572.8000488281</ele>
        <time>2022-07-09T14:54:12.000Z</time>
      </trkpt>
      <trkpt lat="44.14124" lon="6.60996">
        <ele>1570.8000488281</ele>
        <time>2022-07-09T14:54:14.000Z</time>
      </trkpt>
      <trkpt lat="44.14122" lon="6.60995">
        <ele>1569.8000488281</ele>
        <time>2022-07-09T14:54:15.000Z</time>
      </trkpt>
      <trkpt lat="44.14121" lon="6.60991">
        <ele>1568.5999755859</ele>
        <time>2022-07-09T14:54:16.000Z</time>
      </trkpt>
      <trkpt lat="44.14122" lon="6.60988">
        <ele>1567.1999511719</ele>
        <time>2022-07-09T14:54:17.000Z</time>
      </trkpt>
      <trkpt lat="44.14123" lon="6.60985">
        <ele>1566.5999755859</ele>
        <time>2022-07-09T14:54:18.000Z</time>
      </trkpt>
      <trkpt lat="44.14124" lon="6.60982">
        <ele>1565.8000488281</ele>
        <time>2022-07-09T14:54:19.000Z</time>
      </trkpt>
      <trkpt lat="44.14126" lon="6.60979">
        <ele>1564.1999511719</ele>
        <time>2022-07-09T14:54:21.000Z</time>
      </trkpt>
      <trkpt lat="44.14121" lon="6.60978">
        <ele>1562.4000244141</ele>
        <time>2022-07-09T14:54:23.000Z</time>
      </trkpt>
      <trkpt lat="44.14113" lon="6.60982">
        <ele>1561</ele>
        <time>2022-07-09T14:54:25.000Z</time>
      </trkpt>
      <trkpt lat="44.14105" lon="6.60986">
        <ele>1559.5999755859</ele>
        <time>2022-07-09T14:54:27.000Z</time>
      </trkpt>
      <trkpt lat="44.14099" lon="6.6099">
        <ele>1558.4000244141</ele>
        <time>2022-07-09T14:54:29.000Z</time>
      </trkpt>
      <trkpt lat="44.14096" lon="6.60996">
        <ele>1556.8000488281</ele>
        <time>2022-07-09T14:54:31.000Z</time>
      </trkpt>
      <trkpt lat="44.14093" lon="6.61">
        <ele>1555.1999511719</ele>
        <time>2022-07-09T14:54:33.000Z</time>
      </trkpt>
      <trkpt lat="44.14093" lon="6.61">
        <ele>1553.8000488281</ele>
        <time>2022-07-09T14:54:35.000Z</time>
      </trkpt>
      <trkpt lat="44.14092" lon="6.61005">
        <ele>1553.1999511719</ele>
        <time>2022-07-09T14:54:41.000Z</time>
      </trkpt>
      <trkpt lat="44.1409" lon="6.61011">
        <ele>1553.5999755859</ele>
        <time>2022-07-09T14:54:47.000Z</time>
      </trkpt>
      <trkpt lat="44.14085" lon="6.61018">
        <ele>1554.4000244141</ele>
        <time>2022-07-09T14:54:55.000Z</time>
      </trkpt>
      <trkpt lat="44.14084" lon="6.61018">
        <ele>1554.8000488281</ele>
        <time>2022-07-09T14:55:01.000Z</time>
      </trkpt>
      <trkpt lat="44.14084" lon="6.61017">
        <ele>1554.8000488281</ele>
        <time>2022-07-09T14:55:02.000Z</time>
      </trkpt>
      <trkpt lat="44.14085" lon="6.61017">
        <ele>1554.8000488281</ele>
        <time>2022-07-09T14:55:21.000Z</time>
      </trkpt>
      <trkpt lat="44.14086" lon="6.61017">
        <ele>1555</ele>
        <time>2022-07-09T14:55:42.000Z</time>
      </trkpt>
      <trkpt lat="44.14087" lon="6.61017">
        <ele>1554.8000488281</ele>
        <time>2022-07-09T14:55:56.000Z</time>
      </trkpt>
      <trkpt lat="44.14087" lon="6.61018">
        <ele>1554.8000488281</ele>
        <time>2022-07-09T14:56:12.000Z</time>
      </trkpt>
      <trkpt lat="44.14087" lon="6.61016">
        <ele>1555</ele>
        <time>2022-07-09T14:56:17.000Z</time>
      </trkpt>
      <trkpt lat="44.14086" lon="6.61014">
        <ele>1555</ele>
        <time>2022-07-09T14:56:18.000Z</time>
      </trkpt>
      <trkpt lat="44.14083" lon="6.61005">
        <ele>1554.8000488281</ele>
        <time>2022-07-09T14:56:21.000Z</time>
      </trkpt>
      <trkpt lat="44.14081" lon="6.61001">
        <ele>1554.8000488281</ele>
        <time>2022-07-09T14:56:22.000Z</time>
      </trkpt>
      <trkpt lat="44.14077" lon="6.60988">
        <ele>1553.8000488281</ele>
        <time>2022-07-09T14:56:25.000Z</time>
      </trkpt>
      <trkpt lat="44.14075" lon="6.60985">
        <ele>1553.4000244141</ele>
        <time>2022-07-09T14:56:26.000Z</time>
      </trkpt>
      <trkpt lat="44.14069" lon="6.60975">
        <ele>1552.1999511719</ele>
        <time>2022-07-09T14:56:28.000Z</time>
      </trkpt>
      <trkpt lat="44.14066" lon="6.60962">
        <ele>1550.5999755859</ele>
        <time>2022-07-09T14:56:30.000Z</time>
      </trkpt>
      <trkpt lat="44.14065" lon="6.60949">
        <ele>1549.1999511719</ele>
        <time>2022-07-09T14:56:32.000Z</time>
      </trkpt>
      <trkpt lat="44.14064" lon="6.60943">
        <ele>1548</ele>
        <time>2022-07-09T14:56:33.000Z</time>
      </trkpt>
      <trkpt lat="44.14063" lon="6.60938">
        <ele>1547</ele>
        <time>2022-07-09T14:56:34.000Z</time>
      </trkpt>
      <trkpt lat="44.14062" lon="6.60932">
        <ele>1545.8000488281</ele>
        <time>2022-07-09T14:56:35.000Z</time>
      </trkpt>
      <trkpt lat="44.1406" lon="6.60926">
        <ele>1544.4000244141</ele>
        <time>2022-07-09T14:56:36.000Z</time>
      </trkpt>
      <trkpt lat="44.14059" lon="6.60921">
        <ele>1542.8000488281</ele>
        <time>2022-07-09T14:56:37.000Z</time>
      </trkpt>
      <trkpt lat="44.14057" lon="6.60917">
        <ele>1541.4000244141</ele>
        <time>2022-07-09T14:56:38.000Z</time>
      </trkpt>
      <trkpt lat="44.14056" lon="6.60912">
        <ele>1539.8000488281</ele>
        <time>2022-07-09T14:56:39.000Z</time>
      </trkpt>
      <trkpt lat="44.14056" lon="6.60909">
        <ele>1538.5999755859</ele>
        <time>2022-07-09T14:56:40.000Z</time>
      </trkpt>
      <trkpt lat="44.14057" lon="6.60907">
        <ele>1537.1999511719</ele>
        <time>2022-07-09T14:56:41.000Z</time>
      </trkpt>
      <trkpt lat="44.14059" lon="6.60908">
        <ele>1536</ele>
        <time>2022-07-09T14:56:42.000Z</time>
      </trkpt>
      <trkpt lat="44.14061" lon="6.60909">
        <ele>1535.1999511719</ele>
        <time>2022-07-09T14:56:43.000Z</time>
      </trkpt>
      <trkpt lat="44.14061" lon="6.60908">
        <ele>1534.4000244141</ele>
        <time>2022-07-09T14:56:44.000Z</time>
      </trkpt>
      <trkpt lat="44.14059" lon="6.60905">
        <ele>1533</ele>
        <time>2022-07-09T14:56:46.000Z</time>
      </trkpt>
      <trkpt lat="44.14057" lon="6.60903">
        <ele>1532.5999755859</ele>
        <time>2022-07-09T14:56:47.000Z</time>
      </trkpt>
      <trkpt lat="44.14054" lon="6.60901">
        <ele>1532</ele>
        <time>2022-07-09T14:56:48.000Z</time>
      </trkpt>
      <trkpt lat="44.14048" lon="6.60894">
        <ele>1530.4000244141</ele>
        <time>2022-07-09T14:56:51.000Z</time>
      </trkpt>
      <trkpt lat="44.14046" lon="6.6089">
        <ele>1530</ele>
        <time>2022-07-09T14:56:52.000Z</time>
      </trkpt>
      <trkpt lat="44.14044" lon="6.60889">
        <ele>1529.4000244141</ele>
        <time>2022-07-09T14:56:53.000Z</time>
      </trkpt>
      <trkpt lat="44.14042" lon="6.60888">
        <ele>1528.8000488281</ele>
        <time>2022-07-09T14:56:54.000Z</time>
      </trkpt>
      <trkpt lat="44.14039" lon="6.60886">
        <ele>1528</ele>
        <time>2022-07-09T14:56:55.000Z</time>
      </trkpt>
      <trkpt lat="44.14037" lon="6.60886">
        <ele>1527</ele>
        <time>2022-07-09T14:56:56.000Z</time>
      </trkpt>
      <trkpt lat="44.14035" lon="6.60887">
        <ele>1526.1999511719</ele>
        <time>2022-07-09T14:56:57.000Z</time>
      </trkpt>
      <trkpt lat="44.14034" lon="6.60884">
        <ele>1525.4000244141</ele>
        <time>2022-07-09T14:56:58.000Z</time>
      </trkpt>
      <trkpt lat="44.14034" lon="6.60881">
        <ele>1524.5999755859</ele>
        <time>2022-07-09T14:56:59.000Z</time>
      </trkpt>
      <trkpt lat="44.14034" lon="6.60879">
        <ele>1523.8000488281</ele>
        <time>2022-07-09T14:57:00.000Z</time>
      </trkpt>
      <trkpt lat="44.14033" lon="6.60877">
        <ele>1523.4000244141</ele>
        <time>2022-07-09T14:57:01.000Z</time>
      </trkpt>
      <trkpt lat="44.14032" lon="6.60877">
        <ele>1521.8000488281</ele>
        <time>2022-07-09T14:57:03.000Z</time>
      </trkpt>
      <trkpt lat="44.14029" lon="6.60876">
        <ele>1521.1999511719</ele>
        <time>2022-07-09T14:57:04.000Z</time>
      </trkpt>
      <trkpt lat="44.14026" lon="6.60877">
        <ele>1520.5999755859</ele>
        <time>2022-07-09T14:57:05.000Z</time>
      </trkpt>
      <trkpt lat="44.14019" lon="6.60877">
        <ele>1519.5999755859</ele>
        <time>2022-07-09T14:57:07.000Z</time>
      </trkpt>
      <trkpt lat="44.14016" lon="6.60878">
        <ele>1518.8000488281</ele>
        <time>2022-07-09T14:57:08.000Z</time>
      </trkpt>
      <trkpt lat="44.14013" lon="6.60878">
        <ele>1518.1999511719</ele>
        <time>2022-07-09T14:57:09.000Z</time>
      </trkpt>
      <trkpt lat="44.14004" lon="6.60882">
        <ele>1516.8000488281</ele>
        <time>2022-07-09T14:57:11.000Z</time>
      </trkpt>
      <trkpt lat="44.14001" lon="6.60881">
        <ele>1516</ele>
        <time>2022-07-09T14:57:12.000Z</time>
      </trkpt>
      <trkpt lat="44.13996" lon="6.60881">
        <ele>1515.4000244141</ele>
        <time>2022-07-09T14:57:13.000Z</time>
      </trkpt>
      <trkpt lat="44.13991" lon="6.60882">
        <ele>1514.4000244141</ele>
        <time>2022-07-09T14:57:15.000Z</time>
      </trkpt>
      <trkpt lat="44.13989" lon="6.6088">
        <ele>1513.8000488281</ele>
        <time>2022-07-09T14:57:16.000Z</time>
      </trkpt>
      <trkpt lat="44.13987" lon="6.60875">
        <ele>1513.4000244141</ele>
        <time>2022-07-09T14:57:17.000Z</time>
      </trkpt>
      <trkpt lat="44.13986" lon="6.60872">
        <ele>1512.5999755859</ele>
        <time>2022-07-09T14:57:19.000Z</time>
      </trkpt>
      <trkpt lat="44.13985" lon="6.60867">
        <ele>1512.1999511719</ele>
        <time>2022-07-09T14:57:20.000Z</time>
      </trkpt>
      <trkpt lat="44.13985" lon="6.60855">
        <ele>1511.5999755859</ele>
        <time>2022-07-09T14:57:22.000Z</time>
      </trkpt>
      <trkpt lat="44.13984" lon="6.60849">
        <ele>1511.1999511719</ele>
        <time>2022-07-09T14:57:23.000Z</time>
      </trkpt>
      <trkpt lat="44.13983" lon="6.60843">
        <ele>1510.1999511719</ele>
        <time>2022-07-09T14:57:24.000Z</time>
      </trkpt>
      <trkpt lat="44.13982" lon="6.60838">
        <ele>1509.4000244141</ele>
        <time>2022-07-09T14:57:25.000Z</time>
      </trkpt>
      <trkpt lat="44.1398" lon="6.60833">
        <ele>1508.1999511719</ele>
        <time>2022-07-09T14:57:26.000Z</time>
      </trkpt>
      <trkpt lat="44.13977" lon="6.60824">
        <ele>1506</ele>
        <time>2022-07-09T14:57:28.000Z</time>
      </trkpt>
      <trkpt lat="44.13973" lon="6.60814">
        <ele>1504</ele>
        <time>2022-07-09T14:57:30.000Z</time>
      </trkpt>
      <trkpt lat="44.13971" lon="6.60809">
        <ele>1503</ele>
        <time>2022-07-09T14:57:31.000Z</time>
      </trkpt>
      <trkpt lat="44.13968" lon="6.60805">
        <ele>1502</ele>
        <time>2022-07-09T14:57:32.000Z</time>
      </trkpt>
      <trkpt lat="44.13964" lon="6.60802">
        <ele>1501</ele>
        <time>2022-07-09T14:57:33.000Z</time>
      </trkpt>
      <trkpt lat="44.13959" lon="6.60794">
        <ele>1498.8000488281</ele>
        <time>2022-07-09T14:57:35.000Z</time>
      </trkpt>
      <trkpt lat="44.13967" lon="6.60794">
        <ele>1496.8000488281</ele>
        <time>2022-07-09T14:57:37.000Z</time>
      </trkpt>
      <trkpt lat="44.13971" lon="6.60795">
        <ele>1495.5999755859</ele>
        <time>2022-07-09T14:57:38.000Z</time>
      </trkpt>
      <trkpt lat="44.13974" lon="6.60795">
        <ele>1494.8000488281</ele>
        <time>2022-07-09T14:57:39.000Z</time>
      </trkpt>
      <trkpt lat="44.13975" lon="6.60791">
        <ele>1494</ele>
        <time>2022-07-09T14:57:40.000Z</time>
      </trkpt>
      <trkpt lat="44.13973" lon="6.60787">
        <ele>1493</ele>
        <time>2022-07-09T14:57:41.000Z</time>
      </trkpt>
      <trkpt lat="44.13968" lon="6.60775">
        <ele>1491.4000244141</ele>
        <time>2022-07-09T14:57:43.000Z</time>
      </trkpt>
      <trkpt lat="44.13966" lon="6.6077">
        <ele>1490.4000244141</ele>
        <time>2022-07-09T14:57:44.000Z</time>
      </trkpt>
      <trkpt lat="44.13964" lon="6.60763">
        <ele>1489.4000244141</ele>
        <time>2022-07-09T14:57:45.000Z</time>
      </trkpt>
      <trkpt lat="44.13962" lon="6.60755">
        <ele>1488</ele>
        <time>2022-07-09T14:57:46.000Z</time>
      </trkpt>
      <trkpt lat="44.1396" lon="6.60748">
        <ele>1486.4000244141</ele>
        <time>2022-07-09T14:57:47.000Z</time>
      </trkpt>
      <trkpt lat="44.13957" lon="6.60742">
        <ele>1485</ele>
        <time>2022-07-09T14:57:48.000Z</time>
      </trkpt>
      <trkpt lat="44.13954" lon="6.60734">
        <ele>1484</ele>
        <time>2022-07-09T14:57:49.000Z</time>
      </trkpt>
      <trkpt lat="44.13951" lon="6.60728">
        <ele>1482.5999755859</ele>
        <time>2022-07-09T14:57:50.000Z</time>
      </trkpt>
      <trkpt lat="44.13952" lon="6.60723">
        <ele>1480.8000488281</ele>
        <time>2022-07-09T14:57:52.000Z</time>
      </trkpt>
      <trkpt lat="44.13955" lon="6.60724">
        <ele>1479.4000244141</ele>
        <time>2022-07-09T14:57:53.000Z</time>
      </trkpt>
      <trkpt lat="44.13957" lon="6.60726">
        <ele>1478.1999511719</ele>
        <time>2022-07-09T14:57:54.000Z</time>
      </trkpt>
      <trkpt lat="44.13961" lon="6.60727">
        <ele>1477.4000244141</ele>
        <time>2022-07-09T14:57:55.000Z</time>
      </trkpt>
      <trkpt lat="44.13966" lon="6.60728">
        <ele>1476.8000488281</ele>
        <time>2022-07-09T14:57:56.000Z</time>
      </trkpt>
      <trkpt lat="44.13968" lon="6.60727">
        <ele>1476.1999511719</ele>
        <time>2022-07-09T14:57:57.000Z</time>
      </trkpt>
      <trkpt lat="44.13967" lon="6.60723">
        <ele>1475.5999755859</ele>
        <time>2022-07-09T14:57:58.000Z</time>
      </trkpt>
      <trkpt lat="44.13964" lon="6.60707">
        <ele>1474</ele>
        <time>2022-07-09T14:58:01.000Z</time>
      </trkpt>
      <trkpt lat="44.13971" lon="6.60704">
        <ele>1472.8000488281</ele>
        <time>2022-07-09T14:58:03.000Z</time>
      </trkpt>
      <trkpt lat="44.13973" lon="6.60699">
        <ele>1470.8000488281</ele>
        <time>2022-07-09T14:58:05.000Z</time>
      </trkpt>
      <trkpt lat="44.13972" lon="6.60696">
        <ele>1470.1999511719</ele>
        <time>2022-07-09T14:58:06.000Z</time>
      </trkpt>
      <trkpt lat="44.13969" lon="6.60691">
        <ele>1469.4000244141</ele>
        <time>2022-07-09T14:58:07.000Z</time>
      </trkpt>
      <trkpt lat="44.13969" lon="6.6068">
        <ele>1468.8000488281</ele>
        <time>2022-07-09T14:58:09.000Z</time>
      </trkpt>
      <trkpt lat="44.13973" lon="6.60675">
        <ele>1468.4000244141</ele>
        <time>2022-07-09T14:58:10.000Z</time>
      </trkpt>
      <trkpt lat="44.13976" lon="6.60668">
        <ele>1468</ele>
        <time>2022-07-09T14:58:11.000Z</time>
      </trkpt>
      <trkpt lat="44.13976" lon="6.60654">
        <ele>1466.5999755859</ele>
        <time>2022-07-09T14:58:13.000Z</time>
      </trkpt>
      <trkpt lat="44.13978" lon="6.60647">
        <ele>1465.8000488281</ele>
        <time>2022-07-09T14:58:14.000Z</time>
      </trkpt>
      <trkpt lat="44.13981" lon="6.60641">
        <ele>1465</ele>
        <time>2022-07-09T14:58:15.000Z</time>
      </trkpt>
      <trkpt lat="44.13981" lon="6.60633">
        <ele>1463.8000488281</ele>
        <time>2022-07-09T14:58:16.000Z</time>
      </trkpt>
      <trkpt lat="44.13981" lon="6.60625">
        <ele>1462.1999511719</ele>
        <time>2022-07-09T14:58:17.000Z</time>
      </trkpt>
      <trkpt lat="44.13981" lon="6.60614">
        <ele>1461.1999511719</ele>
        <time>2022-07-09T14:58:18.000Z</time>
      </trkpt>
      <trkpt lat="44.13981" lon="6.60596">
        <ele>1459.4000244141</ele>
        <time>2022-07-09T14:58:20.000Z</time>
      </trkpt>
      <trkpt lat="44.13982" lon="6.60579">
        <ele>1458.1999511719</ele>
        <time>2022-07-09T14:58:22.000Z</time>
      </trkpt>
      <trkpt lat="44.13981" lon="6.60567">
        <ele>1456.8000488281</ele>
        <time>2022-07-09T14:58:24.000Z</time>
      </trkpt>
      <trkpt lat="44.1398" lon="6.60561">
        <ele>1455.8000488281</ele>
        <time>2022-07-09T14:58:25.000Z</time>
      </trkpt>
      <trkpt lat="44.13979" lon="6.60549">
        <ele>1453.8000488281</ele>
        <time>2022-07-09T14:58:27.000Z</time>
      </trkpt>
      <trkpt lat="44.13979" lon="6.60544">
        <ele>1452.4000244141</ele>
        <time>2022-07-09T14:58:28.000Z</time>
      </trkpt>
      <trkpt lat="44.13981" lon="6.60539">
        <ele>1451.1999511719</ele>
        <time>2022-07-09T14:58:29.000Z</time>
      </trkpt>
      <trkpt lat="44.13984" lon="6.60535">
        <ele>1450.4000244141</ele>
        <time>2022-07-09T14:58:30.000Z</time>
      </trkpt>
      <trkpt lat="44.13986" lon="6.6053">
        <ele>1449.5999755859</ele>
        <time>2022-07-09T14:58:31.000Z</time>
      </trkpt>
      <trkpt lat="44.13989" lon="6.60525">
        <ele>1448.5999755859</ele>
        <time>2022-07-09T14:58:32.000Z</time>
      </trkpt>
      <trkpt lat="44.1399" lon="6.60518">
        <ele>1447.4000244141</ele>
        <time>2022-07-09T14:58:33.000Z</time>
      </trkpt>
      <trkpt lat="44.1399" lon="6.60511">
        <ele>1446.4000244141</ele>
        <time>2022-07-09T14:58:34.000Z</time>
      </trkpt>
      <trkpt lat="44.13991" lon="6.60503">
        <ele>1445.1999511719</ele>
        <time>2022-07-09T14:58:35.000Z</time>
      </trkpt>
      <trkpt lat="44.1399" lon="6.60496">
        <ele>1443.8000488281</ele>
        <time>2022-07-09T14:58:36.000Z</time>
      </trkpt>
      <trkpt lat="44.1399" lon="6.60489">
        <ele>1442.8000488281</ele>
        <time>2022-07-09T14:58:37.000Z</time>
      </trkpt>
      <trkpt lat="44.13991" lon="6.60484">
        <ele>1441.5999755859</ele>
        <time>2022-07-09T14:58:38.000Z</time>
      </trkpt>
      <trkpt lat="44.13994" lon="6.60481">
        <ele>1440.5999755859</ele>
        <time>2022-07-09T14:58:39.000Z</time>
      </trkpt>
      <trkpt lat="44.13998" lon="6.60477">
        <ele>1439.5999755859</ele>
        <time>2022-07-09T14:58:40.000Z</time>
      </trkpt>
      <trkpt lat="44.14" lon="6.60473">
        <ele>1438.5999755859</ele>
        <time>2022-07-09T14:58:41.000Z</time>
      </trkpt>
      <trkpt lat="44.14009" lon="6.60472">
        <ele>1436.8000488281</ele>
        <time>2022-07-09T14:58:43.000Z</time>
      </trkpt>
      <trkpt lat="44.14019" lon="6.6047">
        <ele>1435.1999511719</ele>
        <time>2022-07-09T14:58:45.000Z</time>
      </trkpt>
      <trkpt lat="44.14024" lon="6.60466">
        <ele>1434</ele>
        <time>2022-07-09T14:58:46.000Z</time>
      </trkpt>
      <trkpt lat="44.14029" lon="6.60464">
        <ele>1432.5999755859</ele>
        <time>2022-07-09T14:58:47.000Z</time>
      </trkpt>
      <trkpt lat="44.14033" lon="6.60461">
        <ele>1431</ele>
        <time>2022-07-09T14:58:48.000Z</time>
      </trkpt>
      <trkpt lat="44.14038" lon="6.60459">
        <ele>1429.4000244141</ele>
        <time>2022-07-09T14:58:49.000Z</time>
      </trkpt>
      <trkpt lat="44.14043" lon="6.60458">
        <ele>1427.8000488281</ele>
        <time>2022-07-09T14:58:50.000Z</time>
      </trkpt>
      <trkpt lat="44.14049" lon="6.60457">
        <ele>1425.8000488281</ele>
        <time>2022-07-09T14:58:51.000Z</time>
      </trkpt>
      <trkpt lat="44.14053" lon="6.60455">
        <ele>1424.4000244141</ele>
        <time>2022-07-09T14:58:52.000Z</time>
      </trkpt>
      <trkpt lat="44.14055" lon="6.60456">
        <ele>1423.1999511719</ele>
        <time>2022-07-09T14:58:53.000Z</time>
      </trkpt>
      <trkpt lat="44.14057" lon="6.60454">
        <ele>1422</ele>
        <time>2022-07-09T14:58:54.000Z</time>
      </trkpt>
      <trkpt lat="44.1406" lon="6.60449">
        <ele>1420.8000488281</ele>
        <time>2022-07-09T14:58:55.000Z</time>
      </trkpt>
      <trkpt lat="44.14067" lon="6.60444">
        <ele>1419.1999511719</ele>
        <time>2022-07-09T14:58:57.000Z</time>
      </trkpt>
      <trkpt lat="44.1407" lon="6.60446">
        <ele>1418.1999511719</ele>
        <time>2022-07-09T14:58:58.000Z</time>
      </trkpt>
      <trkpt lat="44.14074" lon="6.60446">
        <ele>1417</ele>
        <time>2022-07-09T14:58:59.000Z</time>
      </trkpt>
      <trkpt lat="44.14078" lon="6.60444">
        <ele>1416.1999511719</ele>
        <time>2022-07-09T14:59:00.000Z</time>
      </trkpt>
      <trkpt lat="44.14083" lon="6.60441">
        <ele>1415.1999511719</ele>
        <time>2022-07-09T14:59:01.000Z</time>
      </trkpt>
      <trkpt lat="44.14088" lon="6.60438">
        <ele>1414.4000244141</ele>
        <time>2022-07-09T14:59:02.000Z</time>
      </trkpt>
      <trkpt lat="44.14091" lon="6.60438">
        <ele>1413.5999755859</ele>
        <time>2022-07-09T14:59:03.000Z</time>
      </trkpt>
      <trkpt lat="44.14093" lon="6.60434">
        <ele>1413</ele>
        <time>2022-07-09T14:59:04.000Z</time>
      </trkpt>
      <trkpt lat="44.14098" lon="6.60428">
        <ele>1411.8000488281</ele>
        <time>2022-07-09T14:59:05.000Z</time>
      </trkpt>
      <trkpt lat="44.14103" lon="6.60425">
        <ele>1410.8000488281</ele>
        <time>2022-07-09T14:59:06.000Z</time>
      </trkpt>
      <trkpt lat="44.14106" lon="6.6042">
        <ele>1409.1999511719</ele>
        <time>2022-07-09T14:59:07.000Z</time>
      </trkpt>
      <trkpt lat="44.14107" lon="6.60415">
        <ele>1407.8000488281</ele>
        <time>2022-07-09T14:59:08.000Z</time>
      </trkpt>
      <trkpt lat="44.14109" lon="6.60407">
        <ele>1406.1999511719</ele>
        <time>2022-07-09T14:59:09.000Z</time>
      </trkpt>
      <trkpt lat="44.14109" lon="6.60401">
        <ele>1405</ele>
        <time>2022-07-09T14:59:10.000Z</time>
      </trkpt>
      <trkpt lat="44.14107" lon="6.60394">
        <ele>1403.5999755859</ele>
        <time>2022-07-09T14:59:11.000Z</time>
      </trkpt>
      <trkpt lat="44.14107" lon="6.60387">
        <ele>1402.5999755859</ele>
        <time>2022-07-09T14:59:12.000Z</time>
      </trkpt>
      <trkpt lat="44.14107" lon="6.6038">
        <ele>1401.4000244141</ele>
        <time>2022-07-09T14:59:13.000Z</time>
      </trkpt>
      <trkpt lat="44.14109" lon="6.60375">
        <ele>1400.5999755859</ele>
        <time>2022-07-09T14:59:14.000Z</time>
      </trkpt>
      <trkpt lat="44.14114" lon="6.60369">
        <ele>1399.8000488281</ele>
        <time>2022-07-09T14:59:15.000Z</time>
      </trkpt>
      <trkpt lat="44.1412" lon="6.60366">
        <ele>1399.1999511719</ele>
        <time>2022-07-09T14:59:16.000Z</time>
      </trkpt>
      <trkpt lat="44.14124" lon="6.60364">
        <ele>1398.4000244141</ele>
        <time>2022-07-09T14:59:17.000Z</time>
      </trkpt>
      <trkpt lat="44.14136" lon="6.60359">
        <ele>1397.4000244141</ele>
        <time>2022-07-09T14:59:19.000Z</time>
      </trkpt>
      <trkpt lat="44.14141" lon="6.60357">
        <ele>1396</ele>
        <time>2022-07-09T14:59:20.000Z</time>
      </trkpt>
      <trkpt lat="44.14145" lon="6.60354">
        <ele>1395</ele>
        <time>2022-07-09T14:59:21.000Z</time>
      </trkpt>
      <trkpt lat="44.14148" lon="6.60351">
        <ele>1393.5999755859</ele>
        <time>2022-07-09T14:59:22.000Z</time>
      </trkpt>
      <trkpt lat="44.14154" lon="6.60348">
        <ele>1392.4000244141</ele>
        <time>2022-07-09T14:59:23.000Z</time>
      </trkpt>
      <trkpt lat="44.14158" lon="6.60349">
        <ele>1391.1999511719</ele>
        <time>2022-07-09T14:59:24.000Z</time>
      </trkpt>
      <trkpt lat="44.14167" lon="6.60355">
        <ele>1389</ele>
        <time>2022-07-09T14:59:26.000Z</time>
      </trkpt>
      <trkpt lat="44.14172" lon="6.60357">
        <ele>1388.4000244141</ele>
        <time>2022-07-09T14:59:27.000Z</time>
      </trkpt>
      <trkpt lat="44.14176" lon="6.60359">
        <ele>1387.5999755859</ele>
        <time>2022-07-09T14:59:28.000Z</time>
      </trkpt>
      <trkpt lat="44.14186" lon="6.60366">
        <ele>1386.4000244141</ele>
        <time>2022-07-09T14:59:30.000Z</time>
      </trkpt>
      <trkpt lat="44.14195" lon="6.60374">
        <ele>1385.1999511719</ele>
        <time>2022-07-09T14:59:32.000Z</time>
      </trkpt>
      <trkpt lat="44.14203" lon="6.60384">
        <ele>1384</ele>
        <time>2022-07-09T14:59:34.000Z</time>
      </trkpt>
      <trkpt lat="44.14206" lon="6.60395">
        <ele>1382.5999755859</ele>
        <time>2022-07-09T14:59:36.000Z</time>
      </trkpt>
      <trkpt lat="44.14205" lon="6.60406">
        <ele>1381.4000244141</ele>
        <time>2022-07-09T14:59:38.000Z</time>
      </trkpt>
      <trkpt lat="44.14204" lon="6.60412">
        <ele>1381.1999511719</ele>
        <time>2022-07-09T14:59:39.000Z</time>
      </trkpt>
      <trkpt lat="44.14202" lon="6.60424">
        <ele>1380</ele>
        <time>2022-07-09T14:59:41.000Z</time>
      </trkpt>
      <trkpt lat="44.14205" lon="6.60435">
        <ele>1379</ele>
        <time>2022-07-09T14:59:43.000Z</time>
      </trkpt>
      <trkpt lat="44.14209" lon="6.6044">
        <ele>1378.4000244141</ele>
        <time>2022-07-09T14:59:44.000Z</time>
      </trkpt>
      <trkpt lat="44.14213" lon="6.60442">
        <ele>1377.8000488281</ele>
        <time>2022-07-09T14:59:45.000Z</time>
      </trkpt>
      <trkpt lat="44.14217" lon="6.60439">
        <ele>1376.8000488281</ele>
        <time>2022-07-09T14:59:47.000Z</time>
      </trkpt>
      <trkpt lat="44.1422" lon="6.60437">
        <ele>1376.5999755859</ele>
        <time>2022-07-09T14:59:48.000Z</time>
      </trkpt>
      <trkpt lat="44.14223" lon="6.60436">
        <ele>1376.5999755859</ele>
        <time>2022-07-09T14:59:49.000Z</time>
      </trkpt>
      <trkpt lat="44.14233" lon="6.60433">
        <ele>1377</ele>
        <time>2022-07-09T14:59:52.000Z</time>
      </trkpt>
      <trkpt lat="44.14242" lon="6.6043">
        <ele>1377.1999511719</ele>
        <time>2022-07-09T14:59:54.000Z</time>
      </trkpt>
      <trkpt lat="44.14255" lon="6.60424">
        <ele>1376.5999755859</ele>
        <time>2022-07-09T14:59:56.000Z</time>
      </trkpt>
      <trkpt lat="44.14266" lon="6.60417">
        <ele>1375.4000244141</ele>
        <time>2022-07-09T14:59:58.000Z</time>
      </trkpt>
      <trkpt lat="44.14273" lon="6.60411">
        <ele>1374.1999511719</ele>
        <time>2022-07-09T15:00:00.000Z</time>
      </trkpt>
      <trkpt lat="44.14281" lon="6.60404">
        <ele>1373</ele>
        <time>2022-07-09T15:00:02.000Z</time>
      </trkpt>
      <trkpt lat="44.14295" lon="6.6039">
        <ele>1371.5999755859</ele>
        <time>2022-07-09T15:00:05.000Z</time>
      </trkpt>
      <trkpt lat="44.14299" lon="6.60384">
        <ele>1370.1999511719</ele>
        <time>2022-07-09T15:00:06.000Z</time>
      </trkpt>
      <trkpt lat="44.14303" lon="6.60378">
        <ele>1368.8000488281</ele>
        <time>2022-07-09T15:00:07.000Z</time>
      </trkpt>
      <trkpt lat="44.14308" lon="6.60371">
        <ele>1367.1999511719</ele>
        <time>2022-07-09T15:00:08.000Z</time>
      </trkpt>
      <trkpt lat="44.14312" lon="6.60365">
        <ele>1365.4000244141</ele>
        <time>2022-07-09T15:00:09.000Z</time>
      </trkpt>
      <trkpt lat="44.14317" lon="6.6036">
        <ele>1364.4000244141</ele>
        <time>2022-07-09T15:00:10.000Z</time>
      </trkpt>
      <trkpt lat="44.14322" lon="6.60356">
        <ele>1363.1999511719</ele>
        <time>2022-07-09T15:00:11.000Z</time>
      </trkpt>
      <trkpt lat="44.14328" lon="6.60355">
        <ele>1362.1999511719</ele>
        <time>2022-07-09T15:00:12.000Z</time>
      </trkpt>
      <trkpt lat="44.14336" lon="6.60356">
        <ele>1360.8000488281</ele>
        <time>2022-07-09T15:00:13.000Z</time>
      </trkpt>
      <trkpt lat="44.14349" lon="6.60359">
        <ele>1358</ele>
        <time>2022-07-09T15:00:15.000Z</time>
      </trkpt>
      <trkpt lat="44.14356" lon="6.60359">
        <ele>1356.5999755859</ele>
        <time>2022-07-09T15:00:16.000Z</time>
      </trkpt>
      <trkpt lat="44.14363" lon="6.60356">
        <ele>1355.4000244141</ele>
        <time>2022-07-09T15:00:17.000Z</time>
      </trkpt>
      <trkpt lat="44.14369" lon="6.60354">
        <ele>1354.4000244141</ele>
        <time>2022-07-09T15:00:18.000Z</time>
      </trkpt>
      <trkpt lat="44.14376" lon="6.60351">
        <ele>1353.1999511719</ele>
        <time>2022-07-09T15:00:19.000Z</time>
      </trkpt>
      <trkpt lat="44.14385" lon="6.60347">
        <ele>1351.5999755859</ele>
        <time>2022-07-09T15:00:20.000Z</time>
      </trkpt>
      <trkpt lat="44.14391" lon="6.60343">
        <ele>1351</ele>
        <time>2022-07-09T15:00:21.000Z</time>
      </trkpt>
      <trkpt lat="44.14399" lon="6.60341">
        <ele>1349.5999755859</ele>
        <time>2022-07-09T15:00:22.000Z</time>
      </trkpt>
      <trkpt lat="44.14406" lon="6.6034">
        <ele>1348.4000244141</ele>
        <time>2022-07-09T15:00:23.000Z</time>
      </trkpt>
      <trkpt lat="44.14422" lon="6.60336">
        <ele>1346.8000488281</ele>
        <time>2022-07-09T15:00:25.000Z</time>
      </trkpt>
      <trkpt lat="44.14437" lon="6.60334">
        <ele>1345.5999755859</ele>
        <time>2022-07-09T15:00:27.000Z</time>
      </trkpt>
      <trkpt lat="44.14452" lon="6.60335">
        <ele>1343.5999755859</ele>
        <time>2022-07-09T15:00:29.000Z</time>
      </trkpt>
      <trkpt lat="44.14459" lon="6.60335">
        <ele>1342.8000488281</ele>
        <time>2022-07-09T15:00:30.000Z</time>
      </trkpt>
      <trkpt lat="44.14465" lon="6.60334">
        <ele>1342</ele>
        <time>2022-07-09T15:00:31.000Z</time>
      </trkpt>
      <trkpt lat="44.14477" lon="6.60332">
        <ele>1340.4000244141</ele>
        <time>2022-07-09T15:00:33.000Z</time>
      </trkpt>
      <trkpt lat="44.14488" lon="6.60334">
        <ele>1339.4000244141</ele>
        <time>2022-07-09T15:00:35.000Z</time>
      </trkpt>
      <trkpt lat="44.14493" lon="6.60334">
        <ele>1338.8000488281</ele>
        <time>2022-07-09T15:00:36.000Z</time>
      </trkpt>
      <trkpt lat="44.14506" lon="6.6033">
        <ele>1337.1999511719</ele>
        <time>2022-07-09T15:00:38.000Z</time>
      </trkpt>
      <trkpt lat="44.14516" lon="6.60321">
        <ele>1335.8000488281</ele>
        <time>2022-07-09T15:00:40.000Z</time>
      </trkpt>
      <trkpt lat="44.14522" lon="6.60318">
        <ele>1334.5999755859</ele>
        <time>2022-07-09T15:00:41.000Z</time>
      </trkpt>
      <trkpt lat="44.14527" lon="6.60316">
        <ele>1333</ele>
        <time>2022-07-09T15:00:42.000Z</time>
      </trkpt>
      <trkpt lat="44.14539" lon="6.6031">
        <ele>1330.8000488281</ele>
        <time>2022-07-09T15:00:44.000Z</time>
      </trkpt>
      <trkpt lat="44.14546" lon="6.60306">
        <ele>1329.8000488281</ele>
        <time>2022-07-09T15:00:45.000Z</time>
      </trkpt>
      <trkpt lat="44.14552" lon="6.60303">
        <ele>1329</ele>
        <time>2022-07-09T15:00:46.000Z</time>
      </trkpt>
      <trkpt lat="44.14559" lon="6.60299">
        <ele>1328.1999511719</ele>
        <time>2022-07-09T15:00:47.000Z</time>
      </trkpt>
      <trkpt lat="44.14566" lon="6.60296">
        <ele>1327.1999511719</ele>
        <time>2022-07-09T15:00:48.000Z</time>
      </trkpt>
      <trkpt lat="44.14573" lon="6.60292">
        <ele>1325.4000244141</ele>
        <time>2022-07-09T15:00:49.000Z</time>
      </trkpt>
      <trkpt lat="44.1458" lon="6.60288">
        <ele>1324.1999511719</ele>
        <time>2022-07-09T15:00:50.000Z</time>
      </trkpt>
      <trkpt lat="44.14585" lon="6.60284">
        <ele>1322.4000244141</ele>
        <time>2022-07-09T15:00:51.000Z</time>
      </trkpt>
      <trkpt lat="44.14589" lon="6.60278">
        <ele>1321.1999511719</ele>
        <time>2022-07-09T15:00:52.000Z</time>
      </trkpt>
      <trkpt lat="44.14591" lon="6.60266">
        <ele>1320</ele>
        <time>2022-07-09T15:00:54.000Z</time>
      </trkpt>
      <trkpt lat="44.14591" lon="6.60258">
        <ele>1319.1999511719</ele>
        <time>2022-07-09T15:00:55.000Z</time>
      </trkpt>
      <trkpt lat="44.14589" lon="6.60251">
        <ele>1318.8000488281</ele>
        <time>2022-07-09T15:00:56.000Z</time>
      </trkpt>
      <trkpt lat="44.14585" lon="6.60238">
        <ele>1317.1999511719</ele>
        <time>2022-07-09T15:00:58.000Z</time>
      </trkpt>
      <trkpt lat="44.14582" lon="6.6023">
        <ele>1316.5999755859</ele>
        <time>2022-07-09T15:00:59.000Z</time>
      </trkpt>
      <trkpt lat="44.14579" lon="6.60221">
        <ele>1315.8000488281</ele>
        <time>2022-07-09T15:01:00.000Z</time>
      </trkpt>
      <trkpt lat="44.14574" lon="6.60203">
        <ele>1314</ele>
        <time>2022-07-09T15:01:02.000Z</time>
      </trkpt>
      <trkpt lat="44.14574" lon="6.60196">
        <ele>1313.5999755859</ele>
        <time>2022-07-09T15:01:03.000Z</time>
      </trkpt>
      <trkpt lat="44.14575" lon="6.60191">
        <ele>1312.8000488281</ele>
        <time>2022-07-09T15:01:04.000Z</time>
      </trkpt>
      <trkpt lat="44.14573" lon="6.60178">
        <ele>1311.5999755859</ele>
        <time>2022-07-09T15:01:06.000Z</time>
      </trkpt>
      <trkpt lat="44.14567" lon="6.60165">
        <ele>1309.8000488281</ele>
        <time>2022-07-09T15:01:08.000Z</time>
      </trkpt>
      <trkpt lat="44.14564" lon="6.60161">
        <ele>1309</ele>
        <time>2022-07-09T15:01:09.000Z</time>
      </trkpt>
      <trkpt lat="44.14561" lon="6.60156">
        <ele>1308.1999511719</ele>
        <time>2022-07-09T15:01:10.000Z</time>
      </trkpt>
      <trkpt lat="44.14555" lon="6.60147">
        <ele>1306.8000488281</ele>
        <time>2022-07-09T15:01:12.000Z</time>
      </trkpt>
      <trkpt lat="44.14547" lon="6.60134">
        <ele>1305.8000488281</ele>
        <time>2022-07-09T15:01:14.000Z</time>
      </trkpt>
      <trkpt lat="44.14542" lon="6.60128">
        <ele>1304.8000488281</ele>
        <time>2022-07-09T15:01:15.000Z</time>
      </trkpt>
      <trkpt lat="44.14537" lon="6.60123">
        <ele>1303.8000488281</ele>
        <time>2022-07-09T15:01:16.000Z</time>
      </trkpt>
      <trkpt lat="44.14527" lon="6.60112">
        <ele>1302</ele>
        <time>2022-07-09T15:01:18.000Z</time>
      </trkpt>
      <trkpt lat="44.14522" lon="6.60108">
        <ele>1301</ele>
        <time>2022-07-09T15:01:19.000Z</time>
      </trkpt>
      <trkpt lat="44.14517" lon="6.60104">
        <ele>1300</ele>
        <time>2022-07-09T15:01:20.000Z</time>
      </trkpt>
      <trkpt lat="44.14511" lon="6.60101">
        <ele>1299</ele>
        <time>2022-07-09T15:01:21.000Z</time>
      </trkpt>
      <trkpt lat="44.14506" lon="6.60098">
        <ele>1297.8000488281</ele>
        <time>2022-07-09T15:01:22.000Z</time>
      </trkpt>
      <trkpt lat="44.14497" lon="6.60093">
        <ele>1297</ele>
        <time>2022-07-09T15:01:24.000Z</time>
      </trkpt>
      <trkpt lat="44.14493" lon="6.6009">
        <ele>1296.1999511719</ele>
        <time>2022-07-09T15:01:25.000Z</time>
      </trkpt>
      <trkpt lat="44.14485" lon="6.60084">
        <ele>1294.5999755859</ele>
        <time>2022-07-09T15:01:27.000Z</time>
      </trkpt>
      <trkpt lat="44.14482" lon="6.60079">
        <ele>1293.4000244141</ele>
        <time>2022-07-09T15:01:28.000Z</time>
      </trkpt>
      <trkpt lat="44.14475" lon="6.60071">
        <ele>1292.8000488281</ele>
        <time>2022-07-09T15:01:30.000Z</time>
      </trkpt>
      <trkpt lat="44.14469" lon="6.6006">
        <ele>1291.8000488281</ele>
        <time>2022-07-09T15:01:32.000Z</time>
      </trkpt>
      <trkpt lat="44.14456" lon="6.60039">
        <ele>1290</ele>
        <time>2022-07-09T15:01:35.000Z</time>
      </trkpt>
      <trkpt lat="44.14452" lon="6.60034">
        <ele>1289.4000244141</ele>
        <time>2022-07-09T15:01:36.000Z</time>
      </trkpt>
      <trkpt lat="44.14449" lon="6.60028">
        <ele>1288.8000488281</ele>
        <time>2022-07-09T15:01:37.000Z</time>
      </trkpt>
      <trkpt lat="44.14446" lon="6.6002">
        <ele>1287.8000488281</ele>
        <time>2022-07-09T15:01:38.000Z</time>
      </trkpt>
      <trkpt lat="44.14442" lon="6.60014">
        <ele>1287</ele>
        <time>2022-07-09T15:01:39.000Z</time>
      </trkpt>
      <trkpt lat="44.14431" lon="6.6">
        <ele>1285.4000244141</ele>
        <time>2022-07-09T15:01:41.000Z</time>
      </trkpt>
      <trkpt lat="44.14425" lon="6.59994">
        <ele>1284.4000244141</ele>
        <time>2022-07-09T15:01:42.000Z</time>
      </trkpt>
      <trkpt lat="44.14419" lon="6.59989">
        <ele>1283.1999511719</ele>
        <time>2022-07-09T15:01:43.000Z</time>
      </trkpt>
      <trkpt lat="44.14406" lon="6.59978">
        <ele>1282.1999511719</ele>
        <time>2022-07-09T15:01:46.000Z</time>
      </trkpt>
      <trkpt lat="44.144" lon="6.59971">
        <ele>1280.1999511719</ele>
        <time>2022-07-09T15:01:48.000Z</time>
      </trkpt>
      <trkpt lat="44.14397" lon="6.59966">
        <ele>1279</ele>
        <time>2022-07-09T15:01:49.000Z</time>
      </trkpt>
      <trkpt lat="44.14393" lon="6.59962">
        <ele>1278</ele>
        <time>2022-07-09T15:01:50.000Z</time>
      </trkpt>
      <trkpt lat="44.1439" lon="6.59958">
        <ele>1276.1999511719</ele>
        <time>2022-07-09T15:01:51.000Z</time>
      </trkpt>
      <trkpt lat="44.14387" lon="6.59955">
        <ele>1274.5999755859</ele>
        <time>2022-07-09T15:01:52.000Z</time>
      </trkpt>
      <trkpt lat="44.14384" lon="6.59951">
        <ele>1273.1999511719</ele>
        <time>2022-07-09T15:01:53.000Z</time>
      </trkpt>
      <trkpt lat="44.1438" lon="6.59948">
        <ele>1271.4000244141</ele>
        <time>2022-07-09T15:01:54.000Z</time>
      </trkpt>
      <trkpt lat="44.14376" lon="6.59945">
        <ele>1269.5999755859</ele>
        <time>2022-07-09T15:01:55.000Z</time>
      </trkpt>
      <trkpt lat="44.14371" lon="6.59945">
        <ele>1268</ele>
        <time>2022-07-09T15:01:56.000Z</time>
      </trkpt>
      <trkpt lat="44.14366" lon="6.59945">
        <ele>1266.5999755859</ele>
        <time>2022-07-09T15:01:57.000Z</time>
      </trkpt>
      <trkpt lat="44.14362" lon="6.59946">
        <ele>1265.4000244141</ele>
        <time>2022-07-09T15:01:58.000Z</time>
      </trkpt>
      <trkpt lat="44.14355" lon="6.59951">
        <ele>1264</ele>
        <time>2022-07-09T15:02:00.000Z</time>
      </trkpt>
      <trkpt lat="44.1435" lon="6.59953">
        <ele>1262.4000244141</ele>
        <time>2022-07-09T15:02:01.000Z</time>
      </trkpt>
      <trkpt lat="44.14342" lon="6.59953">
        <ele>1260.5999755859</ele>
        <time>2022-07-09T15:02:03.000Z</time>
      </trkpt>
      <trkpt lat="44.14338" lon="6.59953">
        <ele>1260</ele>
        <time>2022-07-09T15:02:04.000Z</time>
      </trkpt>
      <trkpt lat="44.14333" lon="6.59955">
        <ele>1259.1999511719</ele>
        <time>2022-07-09T15:02:05.000Z</time>
      </trkpt>
      <trkpt lat="44.14324" lon="6.59963">
        <ele>1257.4000244141</ele>
        <time>2022-07-09T15:02:07.000Z</time>
      </trkpt>
      <trkpt lat="44.14321" lon="6.59973">
        <ele>1256</ele>
        <time>2022-07-09T15:02:09.000Z</time>
      </trkpt>
      <trkpt lat="44.14317" lon="6.59973">
        <ele>1255.1999511719</ele>
        <time>2022-07-09T15:02:10.000Z</time>
      </trkpt>
      <trkpt lat="44.14317" lon="6.5997">
        <ele>1254.8000488281</ele>
        <time>2022-07-09T15:02:11.000Z</time>
      </trkpt>
      <trkpt lat="44.14319" lon="6.59966">
        <ele>1254.5999755859</ele>
        <time>2022-07-09T15:02:12.000Z</time>
      </trkpt>
      <trkpt lat="44.14319" lon="6.59961">
        <ele>1254.1999511719</ele>
        <time>2022-07-09T15:02:13.000Z</time>
      </trkpt>
      <trkpt lat="44.14318" lon="6.59955">
        <ele>1253.8000488281</ele>
        <time>2022-07-09T15:02:14.000Z</time>
      </trkpt>
      <trkpt lat="44.14316" lon="6.59947">
        <ele>1253.4000244141</ele>
        <time>2022-07-09T15:02:15.000Z</time>
      </trkpt>
      <trkpt lat="44.14316" lon="6.59939">
        <ele>1252.8000488281</ele>
        <time>2022-07-09T15:02:16.000Z</time>
      </trkpt>
      <trkpt lat="44.14313" lon="6.59915">
        <ele>1251.8000488281</ele>
        <time>2022-07-09T15:02:19.000Z</time>
      </trkpt>
      <trkpt lat="44.14312" lon="6.59908">
        <ele>1251.4000244141</ele>
        <time>2022-07-09T15:02:20.000Z</time>
      </trkpt>
      <trkpt lat="44.1431" lon="6.599">
        <ele>1250</ele>
        <time>2022-07-09T15:02:21.000Z</time>
      </trkpt>
      <trkpt lat="44.14309" lon="6.59893">
        <ele>1248.8000488281</ele>
        <time>2022-07-09T15:02:22.000Z</time>
      </trkpt>
      <trkpt lat="44.14307" lon="6.59886">
        <ele>1247.8000488281</ele>
        <time>2022-07-09T15:02:23.000Z</time>
      </trkpt>
      <trkpt lat="44.14304" lon="6.5988">
        <ele>1246.8000488281</ele>
        <time>2022-07-09T15:02:24.000Z</time>
      </trkpt>
      <trkpt lat="44.143" lon="6.59872">
        <ele>1245.8000488281</ele>
        <time>2022-07-09T15:02:25.000Z</time>
      </trkpt>
      <trkpt lat="44.14294" lon="6.59863">
        <ele>1243.8000488281</ele>
        <time>2022-07-09T15:02:27.000Z</time>
      </trkpt>
      <trkpt lat="44.14291" lon="6.59856">
        <ele>1242.4000244141</ele>
        <time>2022-07-09T15:02:28.000Z</time>
      </trkpt>
      <trkpt lat="44.14288" lon="6.5985">
        <ele>1241</ele>
        <time>2022-07-09T15:02:29.000Z</time>
      </trkpt>
      <trkpt lat="44.14285" lon="6.59844">
        <ele>1239.1999511719</ele>
        <time>2022-07-09T15:02:30.000Z</time>
      </trkpt>
      <trkpt lat="44.14282" lon="6.59838">
        <ele>1238</ele>
        <time>2022-07-09T15:02:31.000Z</time>
      </trkpt>
      <trkpt lat="44.14279" lon="6.59832">
        <ele>1236.5999755859</ele>
        <time>2022-07-09T15:02:32.000Z</time>
      </trkpt>
      <trkpt lat="44.14276" lon="6.59826">
        <ele>1234.5999755859</ele>
        <time>2022-07-09T15:02:33.000Z</time>
      </trkpt>
      <trkpt lat="44.14274" lon="6.59821">
        <ele>1233</ele>
        <time>2022-07-09T15:02:34.000Z</time>
      </trkpt>
      <trkpt lat="44.14272" lon="6.59815">
        <ele>1231.1999511719</ele>
        <time>2022-07-09T15:02:35.000Z</time>
      </trkpt>
      <trkpt lat="44.14267" lon="6.598">
        <ele>1227.5999755859</ele>
        <time>2022-07-09T15:02:38.000Z</time>
      </trkpt>
      <trkpt lat="44.14265" lon="6.59791">
        <ele>1226</ele>
        <time>2022-07-09T15:02:39.000Z</time>
      </trkpt>
      <trkpt lat="44.14265" lon="6.59788">
        <ele>1224.4000244141</ele>
        <time>2022-07-09T15:02:40.000Z</time>
      </trkpt>
      <trkpt lat="44.14264" lon="6.59779">
        <ele>1222.8000488281</ele>
        <time>2022-07-09T15:02:41.000Z</time>
      </trkpt>
      <trkpt lat="44.14268" lon="6.59772">
        <ele>1222</ele>
        <time>2022-07-09T15:02:43.000Z</time>
      </trkpt>
      <trkpt lat="44.14271" lon="6.59769">
        <ele>1221.1999511719</ele>
        <time>2022-07-09T15:02:44.000Z</time>
      </trkpt>
      <trkpt lat="44.14273" lon="6.59766">
        <ele>1220</ele>
        <time>2022-07-09T15:02:45.000Z</time>
      </trkpt>
      <trkpt lat="44.14274" lon="6.59762">
        <ele>1218.5999755859</ele>
        <time>2022-07-09T15:02:46.000Z</time>
      </trkpt>
      <trkpt lat="44.14277" lon="6.59756">
        <ele>1217.1999511719</ele>
        <time>2022-07-09T15:02:47.000Z</time>
      </trkpt>
      <trkpt lat="44.14279" lon="6.59753">
        <ele>1215.5999755859</ele>
        <time>2022-07-09T15:02:48.000Z</time>
      </trkpt>
      <trkpt lat="44.14282" lon="6.59747">
        <ele>1213.5999755859</ele>
        <time>2022-07-09T15:02:50.000Z</time>
      </trkpt>
      <trkpt lat="44.14283" lon="6.59744">
        <ele>1212.4000244141</ele>
        <time>2022-07-09T15:02:51.000Z</time>
      </trkpt>
      <trkpt lat="44.14285" lon="6.59736">
        <ele>1210.8000488281</ele>
        <time>2022-07-09T15:02:53.000Z</time>
      </trkpt>
      <trkpt lat="44.14289" lon="6.59728">
        <ele>1209.5999755859</ele>
        <time>2022-07-09T15:02:55.000Z</time>
      </trkpt>
      <trkpt lat="44.14292" lon="6.59722">
        <ele>1209</ele>
        <time>2022-07-09T15:02:56.000Z</time>
      </trkpt>
      <trkpt lat="44.14295" lon="6.59716">
        <ele>1208.1999511719</ele>
        <time>2022-07-09T15:02:57.000Z</time>
      </trkpt>
      <trkpt lat="44.14298" lon="6.59709">
        <ele>1207</ele>
        <time>2022-07-09T15:02:58.000Z</time>
      </trkpt>
      <trkpt lat="44.14299" lon="6.59703">
        <ele>1205.5999755859</ele>
        <time>2022-07-09T15:02:59.000Z</time>
      </trkpt>
      <trkpt lat="44.14301" lon="6.59697">
        <ele>1204</ele>
        <time>2022-07-09T15:03:00.000Z</time>
      </trkpt>
      <trkpt lat="44.14302" lon="6.5969">
        <ele>1202.8000488281</ele>
        <time>2022-07-09T15:03:01.000Z</time>
      </trkpt>
      <trkpt lat="44.14302" lon="6.59685">
        <ele>1201.4000244141</ele>
        <time>2022-07-09T15:03:02.000Z</time>
      </trkpt>
      <trkpt lat="44.14302" lon="6.5968">
        <ele>1200.4000244141</ele>
        <time>2022-07-09T15:03:03.000Z</time>
      </trkpt>
      <trkpt lat="44.14302" lon="6.59675">
        <ele>1199.8000488281</ele>
        <time>2022-07-09T15:03:04.000Z</time>
      </trkpt>
      <trkpt lat="44.14301" lon="6.59669">
        <ele>1199</ele>
        <time>2022-07-09T15:03:05.000Z</time>
      </trkpt>
      <trkpt lat="44.14301" lon="6.59663">
        <ele>1198.4000244141</ele>
        <time>2022-07-09T15:03:06.000Z</time>
      </trkpt>
      <trkpt lat="44.143" lon="6.59656">
        <ele>1197.5999755859</ele>
        <time>2022-07-09T15:03:07.000Z</time>
      </trkpt>
      <trkpt lat="44.14295" lon="6.59644">
        <ele>1196.1999511719</ele>
        <time>2022-07-09T15:03:09.000Z</time>
      </trkpt>
      <trkpt lat="44.14291" lon="6.59638">
        <ele>1195.4000244141</ele>
        <time>2022-07-09T15:03:10.000Z</time>
      </trkpt>
      <trkpt lat="44.14286" lon="6.59634">
        <ele>1194.4000244141</ele>
        <time>2022-07-09T15:03:11.000Z</time>
      </trkpt>
      <trkpt lat="44.14273" lon="6.59626">
        <ele>1191.5999755859</ele>
        <time>2022-07-09T15:03:13.000Z</time>
      </trkpt>
      <trkpt lat="44.14268" lon="6.59623">
        <ele>1190</ele>
        <time>2022-07-09T15:03:14.000Z</time>
      </trkpt>
      <trkpt lat="44.14264" lon="6.59615">
        <ele>1188.5999755859</ele>
        <time>2022-07-09T15:03:15.000Z</time>
      </trkpt>
      <trkpt lat="44.14264" lon="6.59605">
        <ele>1187.4000244141</ele>
        <time>2022-07-09T15:03:16.000Z</time>
      </trkpt>
      <trkpt lat="44.14266" lon="6.59595">
        <ele>1186.4000244141</ele>
        <time>2022-07-09T15:03:17.000Z</time>
      </trkpt>
      <trkpt lat="44.1427" lon="6.59587">
        <ele>1185.1999511719</ele>
        <time>2022-07-09T15:03:18.000Z</time>
      </trkpt>
      <trkpt lat="44.14272" lon="6.59578">
        <ele>1184.4000244141</ele>
        <time>2022-07-09T15:03:19.000Z</time>
      </trkpt>
      <trkpt lat="44.14275" lon="6.59569">
        <ele>1183.8000488281</ele>
        <time>2022-07-09T15:03:20.000Z</time>
      </trkpt>
      <trkpt lat="44.14282" lon="6.59544">
        <ele>1182.4000244141</ele>
        <time>2022-07-09T15:03:23.000Z</time>
      </trkpt>
      <trkpt lat="44.14291" lon="6.59513">
        <ele>1181</ele>
        <time>2022-07-09T15:03:27.000Z</time>
      </trkpt>
      <trkpt lat="44.14299" lon="6.59486">
        <ele>1179.8000488281</ele>
        <time>2022-07-09T15:03:31.000Z</time>
      </trkpt>
      <trkpt lat="44.14304" lon="6.59482">
        <ele>1179.4000244141</ele>
        <time>2022-07-09T15:03:33.000Z</time>
      </trkpt>
      <trkpt lat="44.14308" lon="6.59486">
        <ele>1178.4000244141</ele>
        <time>2022-07-09T15:03:36.000Z</time>
      </trkpt>
      <trkpt lat="44.14308" lon="6.59486">
        <ele>1177.8000488281</ele>
        <time>2022-07-09T15:03:41.000Z</time>
      </trkpt>
      <trkpt lat="44.14309" lon="6.59486">
        <ele>1178.8000488281</ele>
        <time>2022-07-09T15:03:48.000Z</time>
      </trkpt>
      <trkpt lat="44.14309" lon="6.59486">
        <ele>1179.5999755859</ele>
        <time>2022-07-09T15:03:53.000Z</time>
      </trkpt>
      <trkpt lat="44.14309" lon="6.59486">
        <ele>1180.1999511719</ele>
        <time>2022-07-09T15:03:57.000Z</time>
      </trkpt>
      <trkpt lat="44.14309" lon="6.59486">
        <ele>1180.5999755859</ele>
        <time>2022-07-09T15:03:59.000Z</time>
      </trkpt>
      <trkpt lat="44.14308" lon="6.59487">
        <ele>1181.5999755859</ele>
        <time>2022-07-09T15:04:05.000Z</time>
      </trkpt>
      <trkpt lat="44.14308" lon="6.59486">
        <ele>1181.8000488281</ele>
        <time>2022-07-09T15:04:06.000Z</time>
      </trkpt>
    </trkseg>
  </trk>
</gpx>